<?xml version="1.0" encoding="UTF-8" standalone="no" ?>
<gpx xmlns="http://www.topografix.com/GPX/1/1" xmlns:xsi="http://www.w3.org/2001/XMLSchema-instance" xsi:schemaLocation="http://www.topografix.com/GPX/1/1 http://www.topografix.com/GPX/1/1/gpx.xsd" version="1.1" creator="VisuGPX - https://www.visugpx.com">
  <metadata>
    <name>Rando LN</name>
  </metadata>
  <trk>
    <name><![CDATA[castets-en-dorthe]]></name>
    <extensions>
      <line xmlns="http://www.topografix.com/GPX/gpx_style/0/2">
        <color>ff00f7</color>
        <width>4</width>
      </line>
    </extensions>
    <trkseg>
      <trkpt lat="44.55529" lon="-0.25516">
        <ele>22.1</ele>
      </trkpt>
      <trkpt lat="44.55529" lon="-0.25516">
        <ele>22.1</ele>
      </trkpt>
      <trkpt lat="44.55529" lon="-0.25516">
        <ele>22.1</ele>
      </trkpt>
      <trkpt lat="44.55529" lon="-0.25516">
        <ele>22.1</ele>
      </trkpt>
      <trkpt lat="44.55529" lon="-0.25516">
        <ele>22.1</ele>
      </trkpt>
      <trkpt lat="44.55529" lon="-0.25516">
        <ele>22.1</ele>
      </trkpt>
      <trkpt lat="44.55529" lon="-0.25516">
        <ele>22.1</ele>
      </trkpt>
      <trkpt lat="44.55529" lon="-0.25516">
        <ele>22.1</ele>
      </trkpt>
      <trkpt lat="44.55529" lon="-0.25516">
        <ele>22.1</ele>
      </trkpt>
      <trkpt lat="44.55529" lon="-0.25516">
        <ele>22.1</ele>
      </trkpt>
      <trkpt lat="44.55529" lon="-0.25516">
        <ele>22.1</ele>
      </trkpt>
      <trkpt lat="44.55507" lon="-0.25441">
        <ele>20.7</ele>
      </trkpt>
      <trkpt lat="44.55668" lon="-0.25248">
        <ele>16.1</ele>
      </trkpt>
      <trkpt lat="44.55647" lon="-0.25069">
        <ele>19</ele>
      </trkpt>
      <trkpt lat="44.5566" lon="-0.24921">
        <ele>18.1</ele>
      </trkpt>
      <trkpt lat="44.55616" lon="-0.24758">
        <ele>15.8</ele>
      </trkpt>
      <trkpt lat="44.55612" lon="-0.247">
        <ele>13.5</ele>
      </trkpt>
      <trkpt lat="44.55619" lon="-0.24575">
        <ele>14.563</ele>
        <time>2017-03-28T15:59:38Z</time>
      </trkpt>
      <trkpt lat="44.55619" lon="-0.24575">
        <ele>14.563</ele>
        <time>2017-03-28T15:59:38Z</time>
      </trkpt>
      <trkpt lat="44.55619" lon="-0.24575">
        <ele>14.563</ele>
        <time>2017-03-28T15:59:38Z</time>
      </trkpt>
      <trkpt lat="44.55619" lon="-0.24575">
        <ele>14.563</ele>
        <time>2017-03-28T15:59:38Z</time>
      </trkpt>
      <trkpt lat="44.55569" lon="-0.24345">
        <ele>15.579</ele>
        <time>2017-03-28T15:59:58Z</time>
      </trkpt>
      <trkpt lat="44.55643" lon="-0.24294">
        <ele>8.505</ele>
        <time>2017-03-28T16:00:18Z</time>
      </trkpt>
      <trkpt lat="44.55676" lon="-0.24206">
        <ele>8.525</ele>
        <time>2017-03-28T16:00:38Z</time>
      </trkpt>
      <trkpt lat="44.55697" lon="-0.24109">
        <ele>11.608</ele>
        <time>2017-03-28T16:00:58Z</time>
      </trkpt>
      <trkpt lat="44.55677" lon="-0.23918">
        <ele>11.033</ele>
        <time>2017-03-28T16:01:18Z</time>
      </trkpt>
      <trkpt lat="44.5565" lon="-0.23847">
        <ele>10.168</ele>
        <time>2017-03-28T16:01:38Z</time>
      </trkpt>
      <trkpt lat="44.55602" lon="-0.23791">
        <ele>11.738</ele>
        <time>2017-03-28T16:01:58Z</time>
      </trkpt>
      <trkpt lat="44.55535" lon="-0.23774">
        <ele>10.19</ele>
        <time>2017-03-28T16:02:18Z</time>
      </trkpt>
      <trkpt lat="44.55478" lon="-0.23789">
        <ele>12.032</ele>
        <time>2017-03-28T16:02:38Z</time>
      </trkpt>
      <trkpt lat="44.55492" lon="-0.23736">
        <ele>12.643</ele>
        <time>2017-03-28T16:02:58Z</time>
      </trkpt>
      <trkpt lat="44.55481" lon="-0.23633">
        <ele>8.829</ele>
        <time>2017-03-28T16:03:18Z</time>
      </trkpt>
      <trkpt lat="44.55478" lon="-0.23341">
        <ele>12.711</ele>
        <time>2017-03-28T16:03:38Z</time>
      </trkpt>
      <trkpt lat="44.55491" lon="-0.23143">
        <ele>8.811</ele>
        <time>2017-03-28T16:03:58Z</time>
      </trkpt>
      <trkpt lat="44.55419" lon="-0.23094">
        <ele>10.621</ele>
        <time>2017-03-28T16:04:18Z</time>
      </trkpt>
      <trkpt lat="44.55315" lon="-0.23098">
        <ele>12.303</ele>
        <time>2017-03-28T16:04:38Z</time>
      </trkpt>
      <trkpt lat="44.55315" lon="-0.22995">
        <ele>12.008</ele>
        <time>2017-03-28T16:04:58Z</time>
      </trkpt>
      <trkpt lat="44.55338" lon="-0.22907">
        <ele>12.197</ele>
        <time>2017-03-28T16:05:18Z</time>
      </trkpt>
      <trkpt lat="44.55393" lon="-0.22914">
        <ele>9.982</ele>
        <time>2017-03-28T16:05:38Z</time>
      </trkpt>
      <trkpt lat="44.55536" lon="-0.22899">
        <ele>9.892</ele>
        <time>2017-03-28T16:05:58Z</time>
      </trkpt>
      <trkpt lat="44.55591" lon="-0.22871">
        <ele>9.994</ele>
        <time>2017-03-28T16:06:18Z</time>
      </trkpt>
      <trkpt lat="44.5572" lon="-0.22847">
        <ele>9.516</ele>
        <time>2017-03-28T16:06:38Z</time>
      </trkpt>
      <trkpt lat="44.55818" lon="-0.22798">
        <ele>8.997</ele>
        <time>2017-03-28T16:06:58Z</time>
      </trkpt>
      <trkpt lat="44.55897" lon="-0.22766">
        <ele>8.453</ele>
        <time>2017-03-28T16:07:18Z</time>
      </trkpt>
      <trkpt lat="44.55965" lon="-0.22461">
        <ele>11.395</ele>
        <time>2017-03-28T16:07:38Z</time>
      </trkpt>
      <trkpt lat="44.55977" lon="-0.22388">
        <ele>10.015</ele>
        <time>2017-03-28T16:07:58Z</time>
      </trkpt>
      <trkpt lat="44.55995" lon="-0.22304">
        <ele>11.665</ele>
        <time>2017-03-28T16:08:18Z</time>
      </trkpt>
      <trkpt lat="44.56016" lon="-0.22137">
        <ele>11.111</ele>
        <time>2017-03-28T16:08:38Z</time>
      </trkpt>
      <trkpt lat="44.56078" lon="-0.21877">
        <ele>12.508</ele>
        <time>2017-03-28T16:08:58Z</time>
      </trkpt>
      <trkpt lat="44.56101" lon="-0.21607">
        <ele>14.047</ele>
        <time>2017-03-28T16:09:18Z</time>
      </trkpt>
      <trkpt lat="44.56133" lon="-0.2144">
        <ele>11.292</ele>
        <time>2017-03-28T16:09:38Z</time>
      </trkpt>
      <trkpt lat="44.56169" lon="-0.21339">
        <ele>8.012</ele>
        <time>2017-03-28T16:09:58Z</time>
      </trkpt>
      <trkpt lat="44.56197" lon="-0.21204">
        <ele>7.064</ele>
        <time>2017-03-28T16:10:18Z</time>
      </trkpt>
      <trkpt lat="44.56203" lon="-0.21077">
        <ele>7.916</ele>
        <time>2017-03-28T16:10:38Z</time>
      </trkpt>
      <trkpt lat="44.56188" lon="-0.20968">
        <ele>8.497</ele>
        <time>2017-03-28T16:10:58Z</time>
      </trkpt>
      <trkpt lat="44.56177" lon="-0.2077">
        <ele>8.363</ele>
        <time>2017-03-28T16:11:18Z</time>
      </trkpt>
      <trkpt lat="44.56159" lon="-0.2068">
        <ele>9.225</ele>
        <time>2017-03-28T16:11:38Z</time>
      </trkpt>
      <trkpt lat="44.56108" lon="-0.20575">
        <ele>10.116</ele>
        <time>2017-03-28T16:11:58Z</time>
      </trkpt>
      <trkpt lat="44.56119" lon="-0.20496">
        <ele>9.976</ele>
        <time>2017-03-28T16:12:18Z</time>
      </trkpt>
      <trkpt lat="44.56082" lon="-0.20468">
        <ele>13.113</ele>
        <time>2017-03-28T16:12:38Z</time>
      </trkpt>
      <trkpt lat="44.56088" lon="-0.20371">
        <ele>12.808</ele>
        <time>2017-03-28T16:12:58Z</time>
      </trkpt>
      <trkpt lat="44.56137" lon="-0.20414">
        <ele>11.047</ele>
        <time>2017-03-28T16:13:18Z</time>
      </trkpt>
      <trkpt lat="44.56249" lon="-0.2041">
        <ele>12.952</ele>
        <time>2017-03-28T16:13:38Z</time>
      </trkpt>
      <trkpt lat="44.56264" lon="-0.20431">
        <ele>11.552</ele>
        <time>2017-03-28T16:13:58Z</time>
      </trkpt>
      <trkpt lat="44.56275" lon="-0.20607">
        <ele>9.144</ele>
        <time>2017-03-28T16:14:18Z</time>
      </trkpt>
      <trkpt lat="44.56296" lon="-0.20629">
        <ele>9.036</ele>
        <time>2017-03-28T16:14:38Z</time>
      </trkpt>
      <trkpt lat="44.56344" lon="-0.20635">
        <ele>8.717</ele>
        <time>2017-03-28T16:14:58Z</time>
      </trkpt>
      <trkpt lat="44.56515" lon="-0.20721">
        <ele>9.073</ele>
        <time>2017-03-28T16:15:18Z</time>
      </trkpt>
      <trkpt lat="44.56524" lon="-0.2059">
        <ele>11.785</ele>
        <time>2017-03-28T16:15:38Z</time>
      </trkpt>
      <trkpt lat="44.56519" lon="-0.2035">
        <ele>12.766</ele>
        <time>2017-03-28T16:15:58Z</time>
      </trkpt>
      <trkpt lat="44.56486" lon="-0.20064">
        <ele>8.829</ele>
        <time>2017-03-28T16:16:18Z</time>
      </trkpt>
      <trkpt lat="44.5646" lon="-0.19695">
        <ele>8.521</ele>
        <time>2017-03-28T16:16:38Z</time>
      </trkpt>
      <trkpt lat="44.56454" lon="-0.19307">
        <ele>8.708</ele>
        <time>2017-03-28T16:16:58Z</time>
      </trkpt>
      <trkpt lat="44.56467" lon="-0.19219">
        <ele>9.012</ele>
        <time>2017-03-28T16:17:18Z</time>
      </trkpt>
      <trkpt lat="44.56469" lon="-0.19129">
        <ele>10.087</ele>
        <time>2017-03-28T16:17:38Z</time>
      </trkpt>
      <trkpt lat="44.56478" lon="-0.19034">
        <ele>9.627</ele>
        <time>2017-03-28T16:17:58Z</time>
      </trkpt>
      <trkpt lat="44.56484" lon="-0.18966">
        <ele>11.759</ele>
        <time>2017-03-28T16:18:18Z</time>
      </trkpt>
      <trkpt lat="44.56504" lon="-0.18927">
        <ele>10.061</ele>
        <time>2017-03-28T16:18:38Z</time>
      </trkpt>
      <trkpt lat="44.56515" lon="-0.1885">
        <ele>9.272</ele>
        <time>2017-03-28T16:18:58Z</time>
      </trkpt>
      <trkpt lat="44.56524" lon="-0.1876">
        <ele>12.548</ele>
        <time>2017-03-28T16:19:18Z</time>
      </trkpt>
      <trkpt lat="44.56634" lon="-0.18382">
        <ele>13.48</ele>
        <time>2017-03-28T16:19:38Z</time>
      </trkpt>
      <trkpt lat="44.56682" lon="-0.18161">
        <ele>10.575</ele>
        <time>2017-03-28T16:19:58Z</time>
      </trkpt>
      <trkpt lat="44.56701" lon="-0.17959">
        <ele>10.028</ele>
        <time>2017-03-28T16:20:18Z</time>
      </trkpt>
      <trkpt lat="44.56668" lon="-0.17919">
        <ele>10.02</ele>
        <time>2017-03-28T16:20:38Z</time>
      </trkpt>
      <trkpt lat="44.56662" lon="-0.17869">
        <ele>9.808</ele>
        <time>2017-03-28T16:20:58Z</time>
      </trkpt>
      <trkpt lat="44.56634" lon="-0.17803">
        <ele>11.833</ele>
        <time>2017-03-28T16:21:18Z</time>
      </trkpt>
      <trkpt lat="44.56614" lon="-0.17775">
        <ele>11.168</ele>
        <time>2017-03-28T16:21:38Z</time>
      </trkpt>
      <trkpt lat="44.56609" lon="-0.17748">
        <ele>11</ele>
      </trkpt>
      <trkpt lat="44.56607" lon="-0.17721">
        <ele>11.098</ele>
        <time>2017-03-28T16:21:58Z</time>
      </trkpt>
      <trkpt lat="44.56566" lon="-0.17713">
        <ele>11.3</ele>
      </trkpt>
      <trkpt lat="44.56526" lon="-0.17706">
        <ele>11.45</ele>
        <time>2017-03-28T16:22:18Z</time>
      </trkpt>
      <trkpt lat="44.56486" lon="-0.17695">
        <ele>11.042</ele>
        <time>2017-03-28T16:22:38Z</time>
      </trkpt>
      <trkpt lat="44.56422" lon="-0.17691">
        <ele>10.223</ele>
        <time>2017-03-28T16:22:58Z</time>
      </trkpt>
      <trkpt lat="44.56347" lon="-0.17665">
        <ele>11.589</ele>
        <time>2017-03-28T16:23:18Z</time>
      </trkpt>
      <trkpt lat="44.56299" lon="-0.17736">
        <ele>10.491</ele>
        <time>2017-03-28T16:23:38Z</time>
      </trkpt>
      <trkpt lat="44.56169" lon="-0.17682">
        <ele>9.874</ele>
        <time>2017-03-28T16:23:58Z</time>
      </trkpt>
      <trkpt lat="44.56013" lon="-0.1762">
        <ele>16.256</ele>
        <time>2017-03-28T16:24:18Z</time>
      </trkpt>
      <trkpt lat="44.56018" lon="-0.17768">
        <ele>11.621</ele>
        <time>2017-03-28T16:24:38Z</time>
      </trkpt>
      <trkpt lat="44.55983" lon="-0.1791">
        <ele>16.108</ele>
        <time>2017-03-28T16:24:58Z</time>
      </trkpt>
      <trkpt lat="44.55897" lon="-0.17919">
        <ele>27.113</ele>
        <time>2017-03-28T16:25:18Z</time>
      </trkpt>
      <trkpt lat="44.55841" lon="-0.17878">
        <ele>27.058</ele>
        <time>2017-03-28T16:25:38Z</time>
      </trkpt>
      <trkpt lat="44.55783" lon="-0.17876">
        <ele>27.918</ele>
        <time>2017-03-28T16:25:58Z</time>
      </trkpt>
      <trkpt lat="44.55708" lon="-0.17843">
        <ele>27.18</ele>
        <time>2017-03-28T16:26:18Z</time>
      </trkpt>
      <trkpt lat="44.55639" lon="-0.17798">
        <ele>31.572</ele>
        <time>2017-03-28T16:26:38Z</time>
      </trkpt>
      <trkpt lat="44.55628" lon="-0.17702">
        <ele>33.083</ele>
        <time>2017-03-28T16:26:58Z</time>
      </trkpt>
      <trkpt lat="44.55617" lon="-0.17665">
        <ele>33.059</ele>
        <time>2017-03-28T16:27:18Z</time>
      </trkpt>
      <trkpt lat="44.55604" lon="-0.17515">
        <ele>36.341</ele>
        <time>2017-03-28T16:27:38Z</time>
      </trkpt>
      <trkpt lat="44.55674" lon="-0.17318">
        <ele>35.122</ele>
        <time>2017-03-28T16:27:58Z</time>
      </trkpt>
      <trkpt lat="44.55688" lon="-0.1714">
        <ele>34.262</ele>
        <time>2017-03-28T16:28:18Z</time>
      </trkpt>
      <trkpt lat="44.55672" lon="-0.17082">
        <ele>34.708</ele>
        <time>2017-03-28T16:28:38Z</time>
      </trkpt>
      <trkpt lat="44.55688" lon="-0.16934">
        <ele>32.608</ele>
        <time>2017-03-28T16:28:58Z</time>
      </trkpt>
      <trkpt lat="44.55642" lon="-0.16923">
        <ele>33.198</ele>
        <time>2017-03-28T16:29:18Z</time>
      </trkpt>
      <trkpt lat="44.55639" lon="-0.16889">
        <ele>33.083</ele>
        <time>2017-03-28T16:29:38Z</time>
      </trkpt>
      <trkpt lat="44.55648" lon="-0.16818">
        <ele>33.223</ele>
        <time>2017-03-28T16:29:58Z</time>
      </trkpt>
      <trkpt lat="44.55636" lon="-0.16788">
        <ele>32.995</ele>
        <time>2017-03-28T16:30:18Z</time>
      </trkpt>
      <trkpt lat="44.5565" lon="-0.16723">
        <ele>28.787</ele>
        <time>2017-03-28T16:30:38Z</time>
      </trkpt>
      <trkpt lat="44.55671" lon="-0.16687">
        <ele>28.898</ele>
        <time>2017-03-28T16:30:58Z</time>
      </trkpt>
      <trkpt lat="44.55697" lon="-0.16603">
        <ele>24.264</ele>
        <time>2017-03-28T16:31:18Z</time>
      </trkpt>
      <trkpt lat="44.55805" lon="-0.16668">
        <ele>20.036</ele>
        <time>2017-03-28T16:31:38Z</time>
      </trkpt>
      <trkpt lat="44.55937" lon="-0.16502">
        <ele>12.392</ele>
        <time>2017-03-28T16:31:58Z</time>
      </trkpt>
      <trkpt lat="44.55902" lon="-0.16395">
        <ele>13.873</ele>
        <time>2017-03-28T16:32:18Z</time>
      </trkpt>
      <trkpt lat="44.55891" lon="-0.16275">
        <ele>18.62</ele>
        <time>2017-03-28T16:32:38Z</time>
      </trkpt>
      <trkpt lat="44.55911" lon="-0.16232">
        <ele>24.208</ele>
        <time>2017-03-28T16:32:58Z</time>
      </trkpt>
      <trkpt lat="44.55943" lon="-0.16219">
        <ele>27.115</ele>
        <time>2017-03-28T16:33:18Z</time>
      </trkpt>
      <trkpt lat="44.56021" lon="-0.1621">
        <ele>28.14</ele>
        <time>2017-03-28T16:33:38Z</time>
      </trkpt>
      <trkpt lat="44.56038" lon="-0.16172">
        <ele>28.68</ele>
        <time>2017-03-28T16:33:58Z</time>
      </trkpt>
      <trkpt lat="44.56065" lon="-0.16007">
        <ele>31.662</ele>
        <time>2017-03-28T16:34:18Z</time>
      </trkpt>
      <trkpt lat="44.56081" lon="-0.15835">
        <ele>32.914</ele>
        <time>2017-03-28T16:34:38Z</time>
      </trkpt>
      <trkpt lat="44.56177" lon="-0.15653">
        <ele>31.465</ele>
        <time>2017-03-28T16:34:58Z</time>
      </trkpt>
      <trkpt lat="44.56246" lon="-0.1562">
        <ele>32.351</ele>
        <time>2017-03-28T16:35:18Z</time>
      </trkpt>
      <trkpt lat="44.56289" lon="-0.15628">
        <ele>26.8</ele>
      </trkpt>
      <trkpt lat="44.56313" lon="-0.15592">
        <ele>21.8</ele>
      </trkpt>
      <trkpt lat="44.56321" lon="-0.15527">
        <ele>21</ele>
      </trkpt>
      <trkpt lat="44.56328" lon="-0.15517">
        <ele>19.9</ele>
      </trkpt>
      <trkpt lat="44.56354" lon="-0.15518">
        <ele>16.1</ele>
      </trkpt>
      <trkpt lat="44.56361" lon="-0.1538">
        <ele>18</ele>
      </trkpt>
      <trkpt lat="44.56366" lon="-0.15336">
        <ele>19.7</ele>
      </trkpt>
      <trkpt lat="44.56367" lon="-0.1529">
        <ele>18.4</ele>
      </trkpt>
      <trkpt lat="44.56361" lon="-0.15234">
        <ele>16.5</ele>
      </trkpt>
      <trkpt lat="44.5635" lon="-0.15194">
        <ele>14.5</ele>
      </trkpt>
      <trkpt lat="44.56258" lon="-0.15055">
        <ele>19</ele>
      </trkpt>
      <trkpt lat="44.56149" lon="-0.14877">
        <ele>21.9</ele>
      </trkpt>
      <trkpt lat="44.56079" lon="-0.14736">
        <ele>26.2</ele>
      </trkpt>
      <trkpt lat="44.56043" lon="-0.14638">
        <ele>28.6</ele>
      </trkpt>
      <trkpt lat="44.56023" lon="-0.14567">
        <ele>27.7</ele>
      </trkpt>
      <trkpt lat="44.56008" lon="-0.14487">
        <ele>27.2</ele>
      </trkpt>
      <trkpt lat="44.55983" lon="-0.14259">
        <ele>26.4</ele>
      </trkpt>
      <trkpt lat="44.55988" lon="-0.14181">
        <ele>25.7</ele>
      </trkpt>
    </trkseg>
  </trk>
  <trk>
    <name><![CDATA[morizès]]></name>
    <trkseg>
      <trkpt lat="44.5599" lon="-0.1418">
        <ele>25.2</ele>
      </trkpt>
      <trkpt lat="44.5599" lon="-0.1418">
        <ele>25.2</ele>
      </trkpt>
      <trkpt lat="44.5599" lon="-0.1418">
        <ele>25.2</ele>
      </trkpt>
      <trkpt lat="44.5599" lon="-0.1418">
        <ele>25.2</ele>
      </trkpt>
      <trkpt lat="44.5599" lon="-0.1418">
        <ele>25.2</ele>
      </trkpt>
      <trkpt lat="44.5599" lon="-0.1418">
        <ele>25.2</ele>
      </trkpt>
      <trkpt lat="44.5599" lon="-0.1418">
        <ele>25.2</ele>
      </trkpt>
      <trkpt lat="44.5599" lon="-0.1418">
        <ele>25.2</ele>
      </trkpt>
      <trkpt lat="44.5599" lon="-0.1418">
        <ele>25.2</ele>
      </trkpt>
      <trkpt lat="44.5599" lon="-0.1418">
        <ele>25.2</ele>
      </trkpt>
      <trkpt lat="44.55986" lon="-0.14259">
        <ele>25.8</ele>
      </trkpt>
      <trkpt lat="44.5599" lon="-0.14301">
        <ele>24.5</ele>
      </trkpt>
      <trkpt lat="44.56" lon="-0.14395">
        <ele>24.2</ele>
      </trkpt>
      <trkpt lat="44.5601" lon="-0.14485">
        <ele>26.7</ele>
      </trkpt>
      <trkpt lat="44.56025" lon="-0.14565">
        <ele>27.3</ele>
      </trkpt>
      <trkpt lat="44.56044" lon="-0.14634">
        <ele>28.3</ele>
      </trkpt>
      <trkpt lat="44.56082" lon="-0.14737">
        <ele>25.9</ele>
      </trkpt>
      <trkpt lat="44.56153" lon="-0.14879">
        <ele>21.5</ele>
      </trkpt>
      <trkpt lat="44.56251" lon="-0.15041">
        <ele>18.4</ele>
      </trkpt>
      <trkpt lat="44.56312" lon="-0.15134">
        <ele>16.4</ele>
      </trkpt>
      <trkpt lat="44.56351" lon="-0.15193">
        <ele>14.4</ele>
      </trkpt>
      <trkpt lat="44.56363" lon="-0.15234">
        <ele>16.5</ele>
      </trkpt>
      <trkpt lat="44.56369" lon="-0.15291">
        <ele>18.4</ele>
      </trkpt>
      <trkpt lat="44.56368" lon="-0.15335">
        <ele>19.7</ele>
      </trkpt>
      <trkpt lat="44.56362" lon="-0.15389">
        <ele>17.5</ele>
      </trkpt>
      <trkpt lat="44.56351" lon="-0.1563">
        <ele>17.6</ele>
      </trkpt>
      <trkpt lat="44.56339" lon="-0.15678">
        <ele>21.3</ele>
      </trkpt>
      <trkpt lat="44.56323" lon="-0.15833">
        <ele>21.4</ele>
      </trkpt>
      <trkpt lat="44.56319" lon="-0.15844">
        <ele>23.862</ele>
        <time>2017-03-28T16:36:18Z</time>
      </trkpt>
      <trkpt lat="44.56319" lon="-0.15844">
        <ele>23.862</ele>
        <time>2017-03-28T16:36:18Z</time>
      </trkpt>
      <trkpt lat="44.56347" lon="-0.15856">
        <ele>16.908</ele>
        <time>2017-03-28T16:36:38Z</time>
      </trkpt>
      <trkpt lat="44.56555" lon="-0.15861">
        <ele>10.008</ele>
        <time>2017-03-28T16:36:58Z</time>
      </trkpt>
      <trkpt lat="44.566" lon="-0.15693">
        <ele>11.028</ele>
        <time>2017-03-28T16:37:18Z</time>
      </trkpt>
      <trkpt lat="44.56536" lon="-0.15798">
        <ele>8.293</ele>
        <time>2017-03-28T16:37:38Z</time>
      </trkpt>
      <trkpt lat="44.56555" lon="-0.15668">
        <ele>11.133</ele>
        <time>2017-03-28T16:37:58Z</time>
      </trkpt>
      <trkpt lat="44.56651" lon="-0.1535">
        <ele>11.795</ele>
        <time>2017-03-28T16:38:18Z</time>
      </trkpt>
      <trkpt lat="44.56833" lon="-0.1485">
        <ele>11.987</ele>
        <time>2017-03-28T16:38:38Z</time>
      </trkpt>
      <trkpt lat="44.56911" lon="-0.14678">
        <ele>11.168</ele>
        <time>2017-03-28T16:38:58Z</time>
      </trkpt>
      <trkpt lat="44.56964" lon="-0.14582">
        <ele>11.394</ele>
        <time>2017-03-28T16:39:18Z</time>
      </trkpt>
      <trkpt lat="44.56987" lon="-0.14494">
        <ele>13.246</ele>
        <time>2017-03-28T16:39:38Z</time>
      </trkpt>
      <trkpt lat="44.57172" lon="-0.1423">
        <ele>13.446</ele>
        <time>2017-03-28T16:39:58Z</time>
      </trkpt>
      <trkpt lat="44.5731" lon="-0.14101">
        <ele>13.988</ele>
        <time>2017-03-28T16:40:18Z</time>
      </trkpt>
      <trkpt lat="44.57411" lon="-0.14045">
        <ele>13.016</ele>
        <time>2017-03-28T16:40:38Z</time>
      </trkpt>
      <trkpt lat="44.57556" lon="-0.14011">
        <ele>12.008</ele>
        <time>2017-03-28T16:40:58Z</time>
      </trkpt>
      <trkpt lat="44.57696" lon="-0.14024">
        <ele>14.19</ele>
        <time>2017-03-28T16:41:18Z</time>
      </trkpt>
      <trkpt lat="44.57748" lon="-0.13966">
        <ele>12.985</ele>
        <time>2017-03-28T16:41:38Z</time>
      </trkpt>
      <trkpt lat="44.57793" lon="-0.13949">
        <ele>16.225</ele>
        <time>2017-03-28T16:41:58Z</time>
      </trkpt>
      <trkpt lat="44.57776" lon="-0.13977">
        <ele>14.917</ele>
        <time>2017-03-28T16:42:18Z</time>
      </trkpt>
      <trkpt lat="44.57774" lon="-0.14018">
        <ele>15.689</ele>
        <time>2017-03-28T16:42:38Z</time>
      </trkpt>
      <trkpt lat="44.57813" lon="-0.14033">
        <ele>20.71</ele>
        <time>2017-03-28T16:42:58Z</time>
      </trkpt>
      <trkpt lat="44.57758" lon="-0.1429">
        <ele>21.786</ele>
        <time>2017-03-28T16:43:18Z</time>
      </trkpt>
      <trkpt lat="44.57826" lon="-0.1429">
        <ele>18.788</ele>
        <time>2017-03-28T16:43:38Z</time>
      </trkpt>
      <trkpt lat="44.57996" lon="-0.1426">
        <ele>16.973</ele>
        <time>2017-03-28T16:43:58Z</time>
      </trkpt>
      <trkpt lat="44.58111" lon="-0.14292">
        <ele>16.585</ele>
        <time>2017-03-28T16:44:18Z</time>
      </trkpt>
      <trkpt lat="44.58374" lon="-0.13513">
        <ele>22.113</ele>
        <time>2017-03-28T16:44:38Z</time>
      </trkpt>
      <trkpt lat="44.58406" lon="-0.13369">
        <ele>30.708</ele>
        <time>2017-03-28T16:44:58Z</time>
      </trkpt>
      <trkpt lat="44.58432" lon="-0.13202">
        <ele>23.923</ele>
        <time>2017-03-28T16:45:18Z</time>
      </trkpt>
      <trkpt lat="44.58508" lon="-0.13243">
        <ele>42.548</ele>
        <time>2017-03-28T16:45:38Z</time>
      </trkpt>
      <trkpt lat="44.58656" lon="-0.13269">
        <ele>53.678</ele>
        <time>2017-03-28T16:45:58Z</time>
      </trkpt>
      <trkpt lat="44.58843" lon="-0.13269">
        <ele>55.71</ele>
        <time>2017-03-28T16:46:18Z</time>
      </trkpt>
      <trkpt lat="44.58913" lon="-0.13518">
        <ele>64.422</ele>
        <time>2017-03-28T16:46:38Z</time>
      </trkpt>
      <trkpt lat="44.58957" lon="-0.13509">
        <ele>69.713</ele>
        <time>2017-03-28T16:46:58Z</time>
      </trkpt>
      <trkpt lat="44.58971" lon="-0.13526">
        <ele>71.879</ele>
        <time>2017-03-28T16:47:18Z</time>
      </trkpt>
      <trkpt lat="44.59014" lon="-0.13515">
        <ele>78.811</ele>
        <time>2017-03-28T16:47:38Z</time>
      </trkpt>
      <trkpt lat="44.59078" lon="-0.13743">
        <ele>91.228</ele>
        <time>2017-03-28T16:47:58Z</time>
      </trkpt>
      <trkpt lat="44.59037" lon="-0.13762">
        <ele>86.289</ele>
        <time>2017-03-28T16:48:18Z</time>
      </trkpt>
      <trkpt lat="44.58921" lon="-0.13839">
        <ele>83.417</ele>
        <time>2017-03-28T16:48:38Z</time>
      </trkpt>
      <trkpt lat="44.58939" lon="-0.13998">
        <ele>88.008</ele>
        <time>2017-03-28T16:48:58Z</time>
      </trkpt>
      <trkpt lat="44.58924" lon="-0.1405">
        <ele>87.468</ele>
        <time>2017-03-28T16:49:18Z</time>
      </trkpt>
      <trkpt lat="44.58982" lon="-0.1405">
        <ele>81.433</ele>
        <time>2017-03-28T16:49:38Z</time>
      </trkpt>
      <trkpt lat="44.58974" lon="-0.14153">
        <ele>78.313</ele>
        <time>2017-03-28T16:49:58Z</time>
      </trkpt>
      <trkpt lat="44.58999" lon="-0.14239">
        <ele>72.065</ele>
        <time>2017-03-28T16:50:18Z</time>
      </trkpt>
      <trkpt lat="44.59002" lon="-0.14387">
        <ele>69.817</ele>
        <time>2017-03-28T16:50:38Z</time>
      </trkpt>
      <trkpt lat="44.59018" lon="-0.14558">
        <ele>68.348</ele>
        <time>2017-03-28T16:50:58Z</time>
      </trkpt>
      <trkpt lat="44.59069" lon="-0.14672">
        <ele>62.444</ele>
        <time>2017-03-28T16:51:18Z</time>
      </trkpt>
      <trkpt lat="44.59142" lon="-0.14711">
        <ele>52.766</ele>
        <time>2017-03-28T16:51:38Z</time>
      </trkpt>
      <trkpt lat="44.59164" lon="-0.14751">
        <ele>49.953</ele>
        <time>2017-03-28T16:51:58Z</time>
      </trkpt>
      <trkpt lat="44.59336" lon="-0.147">
        <ele>61.504</ele>
        <time>2017-03-28T16:52:18Z</time>
      </trkpt>
      <trkpt lat="44.59416" lon="-0.14659">
        <ele>62.614</ele>
        <time>2017-03-28T16:52:38Z</time>
      </trkpt>
      <trkpt lat="44.5944" lon="-0.14629">
        <ele>64.208</ele>
        <time>2017-03-28T16:52:58Z</time>
      </trkpt>
      <trkpt lat="44.59465" lon="-0.14571">
        <ele>62.391</ele>
        <time>2017-03-28T16:53:18Z</time>
      </trkpt>
      <trkpt lat="44.59561" lon="-0.1449">
        <ele>61.636</ele>
        <time>2017-03-28T16:53:38Z</time>
      </trkpt>
      <trkpt lat="44.59761" lon="-0.14601">
        <ele>66.226</ele>
        <time>2017-03-28T16:53:58Z</time>
      </trkpt>
      <trkpt lat="44.5981" lon="-0.14578">
        <ele>65.748</ele>
        <time>2017-03-28T16:54:18Z</time>
      </trkpt>
      <trkpt lat="44.59874" lon="-0.14505">
        <ele>61.87</ele>
        <time>2017-03-28T16:54:38Z</time>
      </trkpt>
      <trkpt lat="44.59941" lon="-0.14449">
        <ele>67.661</ele>
        <time>2017-03-28T16:54:58Z</time>
      </trkpt>
      <trkpt lat="44.59947" lon="-0.14086">
        <ele>71.417</ele>
        <time>2017-03-28T16:55:18Z</time>
      </trkpt>
      <trkpt lat="44.60076" lon="-0.13889">
        <ele>79.439</ele>
        <time>2017-03-28T16:55:38Z</time>
      </trkpt>
      <trkpt lat="44.60123" lon="-0.13957">
        <ele>83.219</ele>
        <time>2017-03-28T16:55:58Z</time>
      </trkpt>
      <trkpt lat="44.60469" lon="-0.14158">
        <ele>90.3</ele>
      </trkpt>
      <trkpt lat="44.60472" lon="-0.14154">
        <ele>90.6</ele>
      </trkpt>
      <trkpt lat="44.60471" lon="-0.14153">
        <ele>92.909</ele>
        <time>2017-03-28T16:56:18Z</time>
      </trkpt>
      <trkpt lat="44.60471" lon="-0.14153">
        <ele>92.909</ele>
        <time>2017-03-28T16:56:18Z</time>
      </trkpt>
      <trkpt lat="44.60471" lon="-0.14153">
        <ele>92.909</ele>
        <time>2017-03-28T16:56:18Z</time>
      </trkpt>
      <trkpt lat="44.60471" lon="-0.14153">
        <ele>92.909</ele>
        <time>2017-03-28T16:56:18Z</time>
      </trkpt>
      <trkpt lat="44.60311" lon="-0.13848">
        <ele>91.719</ele>
        <time>2017-03-28T16:56:38Z</time>
      </trkpt>
      <trkpt lat="44.60253" lon="-0.13751">
        <ele>96.108</ele>
        <time>2017-03-28T16:56:58Z</time>
      </trkpt>
      <trkpt lat="44.60233" lon="-0.13726">
        <ele>94.547</ele>
        <time>2017-03-28T16:57:18Z</time>
      </trkpt>
      <trkpt lat="44.6008" lon="-0.13475">
        <ele>92.972</ele>
        <time>2017-03-28T16:57:38Z</time>
      </trkpt>
      <trkpt lat="44.60061" lon="-0.13455">
        <ele>92.712</ele>
        <time>2017-03-28T16:57:58Z</time>
      </trkpt>
      <trkpt lat="44.59873" lon="-0.13163">
        <ele>89.574</ele>
        <time>2017-03-28T16:58:18Z</time>
      </trkpt>
      <trkpt lat="44.59929" lon="-0.13078">
        <ele>94.066</ele>
        <time>2017-03-28T16:58:38Z</time>
      </trkpt>
      <trkpt lat="44.59963" lon="-0.12998">
        <ele>93.047</ele>
        <time>2017-03-28T16:58:58Z</time>
      </trkpt>
      <trkpt lat="44.60007" lon="-0.12958">
        <ele>92.223</ele>
        <time>2017-03-28T16:59:18Z</time>
      </trkpt>
      <trkpt lat="44.59989" lon="-0.12855">
        <ele>90.945</ele>
        <time>2017-03-28T16:59:38Z</time>
      </trkpt>
      <trkpt lat="44.59944" lon="-0.12799">
        <ele>88.363</ele>
        <time>2017-03-28T16:59:58Z</time>
      </trkpt>
      <trkpt lat="44.59868" lon="-0.12621">
        <ele>96.044</ele>
        <time>2017-03-28T17:00:18Z</time>
      </trkpt>
      <trkpt lat="44.59776" lon="-0.12552">
        <ele>93.818</ele>
        <time>2017-03-28T17:00:38Z</time>
      </trkpt>
      <trkpt lat="44.59732" lon="-0.12498">
        <ele>96.908</ele>
        <time>2017-03-28T17:00:58Z</time>
      </trkpt>
      <trkpt lat="44.59709" lon="-0.12447">
        <ele>97.092</ele>
        <time>2017-03-28T17:01:18Z</time>
      </trkpt>
      <trkpt lat="44.59677" lon="-0.12269">
        <ele>99.667</ele>
        <time>2017-03-28T17:01:38Z</time>
      </trkpt>
      <trkpt lat="44.59599" lon="-0.12065">
        <ele>112.087</ele>
        <time>2017-03-28T17:01:58Z</time>
      </trkpt>
      <trkpt lat="44.59524" lon="-0.11934">
        <ele>117.169</ele>
        <time>2017-03-28T17:02:18Z</time>
      </trkpt>
      <trkpt lat="44.59529" lon="-0.11803">
        <ele>122.721</ele>
        <time>2017-03-28T17:02:38Z</time>
      </trkpt>
      <trkpt lat="44.59489" lon="-0.11578">
        <ele>105.832</ele>
        <time>2017-03-28T17:02:58Z</time>
      </trkpt>
      <trkpt lat="44.59616" lon="-0.11578">
        <ele>111.838</ele>
        <time>2017-03-28T17:03:18Z</time>
      </trkpt>
      <trkpt lat="44.59643" lon="-0.11486">
        <ele>108.49</ele>
        <time>2017-03-28T17:03:38Z</time>
      </trkpt>
      <trkpt lat="44.59637" lon="-0.11367">
        <ele>111.669</ele>
        <time>2017-03-28T17:03:58Z</time>
      </trkpt>
      <trkpt lat="44.59622" lon="-0.11312">
        <ele>116.004</ele>
        <time>2017-03-28T17:04:18Z</time>
      </trkpt>
      <trkpt lat="44.59599" lon="-0.11288">
        <ele>116.924</ele>
        <time>2017-03-28T17:04:38Z</time>
      </trkpt>
      <trkpt lat="44.59562" lon="-0.11091">
        <ele>117.808</ele>
        <time>2017-03-28T17:04:58Z</time>
      </trkpt>
      <trkpt lat="44.59549" lon="-0.11033">
        <ele>118.272</ele>
        <time>2017-03-28T17:05:18Z</time>
      </trkpt>
      <trkpt lat="44.59538" lon="-0.10928">
        <ele>115.927</ele>
        <time>2017-03-28T17:05:38Z</time>
      </trkpt>
      <trkpt lat="44.59616" lon="-0.1091">
        <ele>116.797</ele>
        <time>2017-03-28T17:05:58Z</time>
      </trkpt>
      <trkpt lat="44.59677" lon="-0.10874">
        <ele>114.579</ele>
        <time>2017-03-28T17:06:18Z</time>
      </trkpt>
      <trkpt lat="44.5985" lon="-0.11052">
        <ele>86.181</ele>
        <time>2017-03-28T17:06:38Z</time>
      </trkpt>
      <trkpt lat="44.59903" lon="-0.11086">
        <ele>77.682</ele>
        <time>2017-03-28T17:06:58Z</time>
      </trkpt>
      <trkpt lat="44.59978" lon="-0.11121">
        <ele>70.978</ele>
        <time>2017-03-28T17:07:18Z</time>
      </trkpt>
      <trkpt lat="44.60024" lon="-0.11125">
        <ele>71.13</ele>
        <time>2017-03-28T17:07:38Z</time>
      </trkpt>
      <trkpt lat="44.60123" lon="-0.11097">
        <ele>68.836</ele>
        <time>2017-03-28T17:07:58Z</time>
      </trkpt>
      <trkpt lat="44.60122" lon="-0.10949">
        <ele>74.717</ele>
        <time>2017-03-28T17:08:18Z</time>
      </trkpt>
      <trkpt lat="44.60071" lon="-0.10898">
        <ele>77.118</ele>
        <time>2017-03-28T17:08:38Z</time>
      </trkpt>
      <trkpt lat="44.60067" lon="-0.10719">
        <ele>79.008</ele>
        <time>2017-03-28T17:08:58Z</time>
      </trkpt>
      <trkpt lat="44.60122" lon="-0.10726">
        <ele>75.369</ele>
        <time>2017-03-28T17:09:18Z</time>
      </trkpt>
      <trkpt lat="44.60288" lon="-0.10685">
        <ele>68.684</ele>
        <time>2017-03-28T17:09:38Z</time>
      </trkpt>
      <trkpt lat="44.60284" lon="-0.10498">
        <ele>62.694</ele>
        <time>2017-03-28T17:09:58Z</time>
      </trkpt>
      <trkpt lat="44.60452" lon="-0.10483">
        <ele>57.726</ele>
        <time>2017-03-28T17:10:18Z</time>
      </trkpt>
      <trkpt lat="44.6045" lon="-0.10325">
        <ele>49.018</ele>
        <time>2017-03-28T17:10:38Z</time>
      </trkpt>
      <trkpt lat="44.60484" lon="-0.1032">
        <ele>45.019</ele>
        <time>2017-03-28T17:10:58Z</time>
      </trkpt>
      <trkpt lat="44.60473" lon="-0.10282">
        <ele>44.115</ele>
        <time>2017-03-28T17:11:18Z</time>
      </trkpt>
      <trkpt lat="44.60493" lon="-0.10112">
        <ele>41.757</ele>
        <time>2017-03-28T17:11:38Z</time>
      </trkpt>
      <trkpt lat="44.60526" lon="-0.10029">
        <ele>43.094</ele>
        <time>2017-03-28T17:11:58Z</time>
      </trkpt>
      <trkpt lat="44.6053" lon="-0.09979">
        <ele>42.757</ele>
        <time>2017-03-28T17:12:18Z</time>
      </trkpt>
      <trkpt lat="44.60574" lon="-0.09863">
        <ele>32.222</ele>
        <time>2017-03-28T17:12:38Z</time>
      </trkpt>
      <trkpt lat="44.60557" lon="-0.09724">
        <ele>22.208</ele>
        <time>2017-03-28T17:12:58Z</time>
      </trkpt>
      <trkpt lat="44.60591" lon="-0.09743">
        <ele>23.615</ele>
        <time>2017-03-28T17:13:18Z</time>
      </trkpt>
      <trkpt lat="44.60638" lon="-0.0981">
        <ele>25.81</ele>
        <time>2017-03-28T17:13:38Z</time>
      </trkpt>
      <trkpt lat="44.60669" lon="-0.09812">
        <ele>28.14</ele>
        <time>2017-03-28T17:13:58Z</time>
      </trkpt>
      <trkpt lat="44.60701" lon="-0.09765">
        <ele>31.112</ele>
        <time>2017-03-28T17:14:18Z</time>
      </trkpt>
      <trkpt lat="44.60774" lon="-0.09825">
        <ele>35.954</ele>
        <time>2017-03-28T17:14:38Z</time>
      </trkpt>
      <trkpt lat="44.60817" lon="-0.09878">
        <ele>40.845</ele>
        <time>2017-03-28T17:14:58Z</time>
      </trkpt>
      <trkpt lat="44.60837" lon="-0.09932">
        <ele>42.381</ele>
        <time>2017-03-28T17:15:18Z</time>
      </trkpt>
      <trkpt lat="44.60896" lon="-0.1002">
        <ele>50.123</ele>
        <time>2017-03-28T17:15:38Z</time>
      </trkpt>
      <trkpt lat="44.60936" lon="-0.09928">
        <ele>49.663</ele>
        <time>2017-03-28T17:15:58Z</time>
      </trkpt>
      <trkpt lat="44.60974" lon="-0.09885">
        <ele>49.144</ele>
        <time>2017-03-28T17:16:18Z</time>
      </trkpt>
      <trkpt lat="44.61025" lon="-0.09868">
        <ele>49.518</ele>
        <time>2017-03-28T17:16:38Z</time>
      </trkpt>
      <trkpt lat="44.61101" lon="-0.09816">
        <ele>46.508</ele>
        <time>2017-03-28T17:16:58Z</time>
      </trkpt>
      <trkpt lat="44.61113" lon="-0.09707">
        <ele>42.472</ele>
        <time>2017-03-28T17:17:18Z</time>
      </trkpt>
      <trkpt lat="44.61171" lon="-0.09535">
        <ele>29.027</ele>
        <time>2017-03-28T17:17:38Z</time>
      </trkpt>
      <trkpt lat="44.61147" lon="-0.09374">
        <ele>25.987</ele>
        <time>2017-03-28T17:17:58Z</time>
      </trkpt>
      <trkpt lat="44.61199" lon="-0.09149">
        <ele>19.339</ele>
        <time>2017-03-28T17:18:18Z</time>
      </trkpt>
      <trkpt lat="44.61237" lon="-0.09084">
        <ele>18.091</ele>
        <time>2017-03-28T17:18:38Z</time>
      </trkpt>
      <trkpt lat="44.6129" lon="-0.09041">
        <ele>18.082</ele>
        <time>2017-03-28T17:18:58Z</time>
      </trkpt>
      <trkpt lat="44.61365" lon="-0.09036">
        <ele>15.048</ele>
        <time>2020-11-24T22:18:40Z</time>
      </trkpt>
      <trkpt lat="44.6145" lon="-0.09126">
        <ele>18.11</ele>
        <time>2020-11-24T22:19:00Z</time>
      </trkpt>
      <trkpt lat="44.61571" lon="-0.09039">
        <ele>18.681</ele>
        <time>2020-11-24T22:19:20Z</time>
      </trkpt>
      <trkpt lat="44.61656" lon="-0.0904">
        <ele>18.161</ele>
        <time>2020-11-24T22:19:40Z</time>
      </trkpt>
      <trkpt lat="44.61728" lon="-0.09023">
        <ele>16.017</ele>
        <time>2020-11-24T22:20:00Z</time>
      </trkpt>
      <trkpt lat="44.61798" lon="-0.08985">
        <ele>18.408</ele>
        <time>2020-11-24T22:20:20Z</time>
      </trkpt>
    </trkseg>
  </trk>
  <trk>
    <name><![CDATA[sauveterre-de-guyenne]]></name>
    <extensions>
      <line xmlns="http://www.topografix.com/GPX/gpx_style/0/2">
        <color>1eff00</color>
        <width>4</width>
      </line>
    </extensions>
    <trkseg>
      <trkpt lat="44.61798" lon="-0.08985">
        <ele>18.408</ele>
        <time>2020-11-24T22:20:20Z</time>
      </trkpt>
      <trkpt lat="44.61798" lon="-0.08985">
        <ele>18.408</ele>
        <time>2020-11-24T22:20:20Z</time>
      </trkpt>
      <trkpt lat="44.61798" lon="-0.08985">
        <ele>18.408</ele>
        <time>2020-11-24T22:20:20Z</time>
      </trkpt>
      <trkpt lat="44.61798" lon="-0.08985">
        <ele>18.408</ele>
        <time>2020-11-24T22:20:20Z</time>
      </trkpt>
      <trkpt lat="44.61798" lon="-0.08985">
        <ele>18.408</ele>
        <time>2020-11-24T22:20:20Z</time>
      </trkpt>
      <trkpt lat="44.61798" lon="-0.08985">
        <ele>18.408</ele>
        <time>2020-11-24T22:20:20Z</time>
      </trkpt>
      <trkpt lat="44.61798" lon="-0.08985">
        <ele>18.408</ele>
        <time>2020-11-24T22:20:20Z</time>
      </trkpt>
      <trkpt lat="44.61798" lon="-0.08985">
        <ele>18.408</ele>
        <time>2020-11-24T22:20:20Z</time>
      </trkpt>
      <trkpt lat="44.61798" lon="-0.08985">
        <ele>18.408</ele>
        <time>2020-11-24T22:20:20Z</time>
      </trkpt>
      <trkpt lat="44.61798" lon="-0.08985">
        <ele>18.408</ele>
        <time>2020-11-24T22:20:20Z</time>
      </trkpt>
      <trkpt lat="44.61798" lon="-0.08985">
        <ele>18.408</ele>
        <time>2020-11-24T22:20:20Z</time>
      </trkpt>
      <trkpt lat="44.61828" lon="-0.08999">
        <ele>18.984</ele>
        <time>2017-03-28T17:23:38Z</time>
      </trkpt>
      <trkpt lat="44.6184" lon="-0.09106">
        <ele>25.489</ele>
        <time>2017-03-28T17:23:58Z</time>
      </trkpt>
      <trkpt lat="44.61901" lon="-0.09327">
        <ele>38.289</ele>
        <time>2017-03-28T17:24:18Z</time>
      </trkpt>
      <trkpt lat="44.61909" lon="-0.09629">
        <ele>46.191</ele>
        <time>2017-03-28T17:24:38Z</time>
      </trkpt>
      <trkpt lat="44.6188" lon="-0.09754">
        <ele>47.893</ele>
        <time>2017-03-28T17:24:58Z</time>
      </trkpt>
      <trkpt lat="44.61866" lon="-0.09936">
        <ele>52.014</ele>
        <time>2017-03-28T17:25:18Z</time>
      </trkpt>
      <trkpt lat="44.61988" lon="-0.09915">
        <ele>35.37</ele>
        <time>2017-03-28T17:25:38Z</time>
      </trkpt>
      <trkpt lat="44.62022" lon="-0.10044">
        <ele>25.312</ele>
        <time>2017-03-28T17:25:58Z</time>
      </trkpt>
      <trkpt lat="44.62081" lon="-0.10099">
        <ele>17.275</ele>
        <time>2017-03-28T17:26:18Z</time>
      </trkpt>
      <trkpt lat="44.62153" lon="-0.10134">
        <ele>17.728</ele>
        <time>2017-03-28T17:26:38Z</time>
      </trkpt>
      <trkpt lat="44.62202" lon="-0.10112">
        <ele>19.52</ele>
        <time>2017-03-28T17:26:58Z</time>
      </trkpt>
      <trkpt lat="44.62217" lon="-0.10157">
        <ele>19.808</ele>
        <time>2017-03-28T17:27:18Z</time>
      </trkpt>
      <trkpt lat="44.62288" lon="-0.10093">
        <ele>28.893</ele>
        <time>2017-03-28T17:27:38Z</time>
      </trkpt>
      <trkpt lat="44.62315" lon="-0.10086">
        <ele>30.968</ele>
        <time>2017-03-28T17:27:58Z</time>
      </trkpt>
      <trkpt lat="44.6235" lon="-0.10031">
        <ele>37.298</ele>
        <time>2017-03-28T17:28:18Z</time>
      </trkpt>
      <trkpt lat="44.62399" lon="-0.09932">
        <ele>44.22</ele>
        <time>2017-03-28T17:28:38Z</time>
      </trkpt>
      <trkpt lat="44.6248" lon="-0.09895">
        <ele>50.632</ele>
        <time>2017-03-28T17:28:58Z</time>
      </trkpt>
      <trkpt lat="44.62501" lon="-0.10046">
        <ele>48.553</ele>
        <time>2017-03-28T17:29:18Z</time>
      </trkpt>
      <trkpt lat="44.62558" lon="-0.10138">
        <ele>49.339</ele>
        <time>2017-03-28T17:29:38Z</time>
      </trkpt>
      <trkpt lat="44.62639" lon="-0.1032">
        <ele>46.981</ele>
        <time>2017-03-28T17:29:58Z</time>
      </trkpt>
      <trkpt lat="44.62663" lon="-0.10303">
        <ele>49.099</ele>
        <time>2017-03-28T17:30:18Z</time>
      </trkpt>
      <trkpt lat="44.62792" lon="-0.10185">
        <ele>53.807</ele>
        <time>2017-03-28T17:30:38Z</time>
      </trkpt>
      <trkpt lat="44.62828" lon="-0.10132">
        <ele>53.427</ele>
        <time>2017-03-28T17:30:58Z</time>
      </trkpt>
      <trkpt lat="44.62911" lon="-0.10065">
        <ele>48.208</ele>
        <time>2017-03-28T17:31:18Z</time>
      </trkpt>
      <trkpt lat="44.62899" lon="-0.10007">
        <ele>49.715</ele>
        <time>2017-03-28T17:31:38Z</time>
      </trkpt>
      <trkpt lat="44.6301" lon="-0.09956">
        <ele>48.83</ele>
        <time>2017-03-28T17:31:58Z</time>
      </trkpt>
      <trkpt lat="44.63079" lon="-0.09908">
        <ele>46.38</ele>
        <time>2017-03-28T17:32:18Z</time>
      </trkpt>
      <trkpt lat="44.63149" lon="-0.09887">
        <ele>50.892</ele>
        <time>2017-03-28T17:32:38Z</time>
      </trkpt>
      <trkpt lat="44.63207" lon="-0.09911">
        <ele>52.144</ele>
        <time>2017-03-28T17:32:58Z</time>
      </trkpt>
      <trkpt lat="44.63265" lon="-0.09893">
        <ele>50.925</ele>
        <time>2017-03-28T17:33:18Z</time>
      </trkpt>
      <trkpt lat="44.6334" lon="-0.09902">
        <ele>44.841</ele>
        <time>2017-03-28T17:33:38Z</time>
      </trkpt>
      <trkpt lat="44.63421" lon="-0.09889">
        <ele>46.183</ele>
        <time>2017-03-28T17:33:58Z</time>
      </trkpt>
      <trkpt lat="44.63457" lon="-0.09895">
        <ele>46.886</ele>
        <time>2017-03-28T17:34:18Z</time>
      </trkpt>
      <trkpt lat="44.63572" lon="-0.09883">
        <ele>48.96</ele>
        <time>2017-03-28T17:34:38Z</time>
      </trkpt>
      <trkpt lat="44.63631" lon="-0.09893">
        <ele>51.426</ele>
        <time>2017-03-28T17:34:58Z</time>
      </trkpt>
      <trkpt lat="44.63824" lon="-0.09795">
        <ele>57.908</ele>
        <time>2017-03-28T17:35:18Z</time>
      </trkpt>
      <trkpt lat="44.63839" lon="-0.09747">
        <ele>58.364</ele>
        <time>2017-03-28T17:35:38Z</time>
      </trkpt>
      <trkpt lat="44.63841" lon="-0.097">
        <ele>57.079</ele>
        <time>2017-03-28T17:35:58Z</time>
      </trkpt>
      <trkpt lat="44.63868" lon="-0.09649">
        <ele>54.739</ele>
        <time>2017-03-28T17:36:18Z</time>
      </trkpt>
      <trkpt lat="44.63934" lon="-0.09597">
        <ele>50.811</ele>
        <time>2017-03-28T17:36:38Z</time>
      </trkpt>
      <trkpt lat="44.63989" lon="-0.09567">
        <ele>54.863</ele>
        <time>2017-03-28T17:36:58Z</time>
      </trkpt>
      <trkpt lat="44.6397" lon="-0.09496">
        <ele>58.374</ele>
        <time>2017-03-28T17:37:18Z</time>
      </trkpt>
      <trkpt lat="44.63996" lon="-0.09477">
        <ele>63.17</ele>
        <time>2017-03-28T17:37:38Z</time>
      </trkpt>
      <trkpt lat="44.6401" lon="-0.09408">
        <ele>71.662</ele>
        <time>2017-03-28T17:37:58Z</time>
      </trkpt>
      <trkpt lat="44.64062" lon="-0.09387">
        <ele>72.244</ele>
        <time>2017-03-28T17:38:18Z</time>
      </trkpt>
      <trkpt lat="44.64086" lon="-0.09423">
        <ele>69.105</ele>
        <time>2017-03-28T17:38:38Z</time>
      </trkpt>
      <trkpt lat="44.64128" lon="-0.09415">
        <ele>70.015</ele>
        <time>2017-03-28T17:38:58Z</time>
      </trkpt>
      <trkpt lat="44.64169" lon="-0.09453">
        <ele>63.508</ele>
        <time>2017-03-28T17:39:18Z</time>
      </trkpt>
      <trkpt lat="44.6419" lon="-0.09432">
        <ele>65.91</ele>
        <time>2017-03-28T17:39:38Z</time>
      </trkpt>
      <trkpt lat="44.64195" lon="-0.09305">
        <ele>68.055</ele>
        <time>2017-03-28T17:39:58Z</time>
      </trkpt>
      <trkpt lat="44.64181" lon="-0.09162">
        <ele>73.275</ele>
        <time>2017-03-28T17:40:18Z</time>
      </trkpt>
      <trkpt lat="44.64126" lon="-0.08881">
        <ele>77.617</ele>
        <time>2017-03-28T17:40:38Z</time>
      </trkpt>
      <trkpt lat="44.64111" lon="-0.08702">
        <ele>87.089</ele>
        <time>2017-03-28T17:40:58Z</time>
      </trkpt>
      <trkpt lat="44.64122" lon="-0.08668">
        <ele>86.48</ele>
        <time>2017-03-28T17:41:18Z</time>
      </trkpt>
      <trkpt lat="44.64415" lon="-0.08835">
        <ele>79.286</ele>
        <time>2017-03-28T17:41:38Z</time>
      </trkpt>
      <trkpt lat="44.64392" lon="-0.0869">
        <ele>82.398</ele>
        <time>2017-03-28T17:41:58Z</time>
      </trkpt>
      <trkpt lat="44.64483" lon="-0.08602">
        <ele>80.677</ele>
        <time>2017-03-28T17:42:18Z</time>
      </trkpt>
      <trkpt lat="44.64537" lon="-0.08535">
        <ele>78.561</ele>
        <time>2017-03-28T17:42:38Z</time>
      </trkpt>
      <trkpt lat="44.64541" lon="-0.08496">
        <ele>75.427</ele>
        <time>2017-03-28T17:42:58Z</time>
      </trkpt>
      <trkpt lat="44.64581" lon="-0.0855">
        <ele>76.708</ele>
        <time>2017-03-28T17:43:18Z</time>
      </trkpt>
      <trkpt lat="44.6469" lon="-0.08552">
        <ele>77.773</ele>
        <time>2017-03-28T17:43:38Z</time>
      </trkpt>
      <trkpt lat="44.64888" lon="-0.08496">
        <ele>78.978</ele>
        <time>2017-03-28T17:43:58Z</time>
      </trkpt>
      <trkpt lat="44.65012" lon="-0.08552">
        <ele>77.998</ele>
        <time>2017-03-28T17:44:18Z</time>
      </trkpt>
      <trkpt lat="44.65065" lon="-0.08546">
        <ele>80.33</ele>
        <time>2017-03-28T17:44:38Z</time>
      </trkpt>
      <trkpt lat="44.65067" lon="-0.08346">
        <ele>78.362</ele>
        <time>2017-03-28T17:44:58Z</time>
      </trkpt>
      <trkpt lat="44.65083" lon="-0.08228">
        <ele>74.263</ele>
        <time>2017-03-28T17:45:18Z</time>
      </trkpt>
      <trkpt lat="44.65102" lon="-0.08117">
        <ele>72.599</ele>
        <time>2017-03-28T17:45:38Z</time>
      </trkpt>
      <trkpt lat="44.65126" lon="-0.08003">
        <ele>75.511</ele>
        <time>2017-03-28T17:45:58Z</time>
      </trkpt>
      <trkpt lat="44.65144" lon="-0.07872">
        <ele>79.235</ele>
        <time>2017-03-28T17:46:18Z</time>
      </trkpt>
      <trkpt lat="44.65196" lon="-0.0772">
        <ele>85.186</ele>
        <time>2017-03-28T17:46:38Z</time>
      </trkpt>
      <trkpt lat="44.65276" lon="-0.07604">
        <ele>83.514</ele>
        <time>2017-03-28T17:46:58Z</time>
      </trkpt>
      <trkpt lat="44.65335" lon="-0.07576">
        <ele>81.008</ele>
        <time>2017-03-28T17:47:18Z</time>
      </trkpt>
      <trkpt lat="44.65438" lon="-0.07572">
        <ele>80.489</ele>
        <time>2017-03-28T17:47:38Z</time>
      </trkpt>
      <trkpt lat="44.65502" lon="-0.07527">
        <ele>78.934</ele>
        <time>2017-03-28T17:47:58Z</time>
      </trkpt>
      <trkpt lat="44.65586" lon="-0.0773">
        <ele>76.014</ele>
        <time>2017-03-28T17:48:18Z</time>
      </trkpt>
      <trkpt lat="44.65639" lon="-0.07786">
        <ele>76.086</ele>
        <time>2017-03-28T17:48:38Z</time>
      </trkpt>
      <trkpt lat="44.65645" lon="-0.07812">
        <ele>75.798</ele>
        <time>2017-03-28T17:48:58Z</time>
      </trkpt>
      <trkpt lat="44.65702" lon="-0.07825">
        <ele>69.749</ele>
        <time>2017-03-28T17:49:18Z</time>
      </trkpt>
      <trkpt lat="44.65755" lon="-0.07836">
        <ele>66.835</ele>
        <time>2017-03-28T17:49:38Z</time>
      </trkpt>
      <trkpt lat="44.65822" lon="-0.07821">
        <ele>66.067</ele>
        <time>2017-03-28T17:49:58Z</time>
      </trkpt>
      <trkpt lat="44.65898" lon="-0.07855">
        <ele>62.172</ele>
        <time>2017-03-28T17:50:18Z</time>
      </trkpt>
      <trkpt lat="44.65947" lon="-0.07855">
        <ele>61.213</ele>
        <time>2017-03-28T17:50:38Z</time>
      </trkpt>
      <trkpt lat="44.65985" lon="-0.0793">
        <ele>60.214</ele>
        <time>2017-03-28T17:50:58Z</time>
      </trkpt>
      <trkpt lat="44.66025" lon="-0.07951">
        <ele>60.708</ele>
        <time>2017-03-28T17:51:18Z</time>
      </trkpt>
      <trkpt lat="44.66079" lon="-0.07896">
        <ele>60.593</ele>
        <time>2017-03-28T17:51:38Z</time>
      </trkpt>
      <trkpt lat="44.66127" lon="-0.07906">
        <ele>59.018</ele>
        <time>2017-03-28T17:51:58Z</time>
      </trkpt>
      <trkpt lat="44.66205" lon="-0.07958">
        <ele>58.998</ele>
        <time>2017-03-28T17:52:18Z</time>
      </trkpt>
      <trkpt lat="44.66317" lon="-0.07939">
        <ele>61.63</ele>
        <time>2017-03-28T17:52:38Z</time>
      </trkpt>
      <trkpt lat="44.66343" lon="-0.07806">
        <ele>64.772</ele>
        <time>2017-03-28T17:52:58Z</time>
      </trkpt>
      <trkpt lat="44.66353" lon="-0.07737">
        <ele>64.363</ele>
        <time>2017-03-28T17:53:18Z</time>
      </trkpt>
      <trkpt lat="44.66414" lon="-0.07722">
        <ele>64.879</ele>
        <time>2017-03-28T17:53:38Z</time>
      </trkpt>
      <trkpt lat="44.66588" lon="-0.07576">
        <ele>73.281</ele>
        <time>2017-03-28T17:53:58Z</time>
      </trkpt>
      <trkpt lat="44.66715" lon="-0.0758">
        <ele>75.582</ele>
        <time>2017-03-28T17:54:18Z</time>
      </trkpt>
      <trkpt lat="44.66713" lon="-0.0769">
        <ele>76.243</ele>
        <time>2017-03-28T17:54:38Z</time>
      </trkpt>
      <trkpt lat="44.66761" lon="-0.07782">
        <ele>77.517</ele>
        <time>2017-03-28T17:54:58Z</time>
      </trkpt>
      <trkpt lat="44.66863" lon="-0.08046">
        <ele>74.208</ele>
        <time>2017-03-28T17:55:18Z</time>
      </trkpt>
      <trkpt lat="44.66869" lon="-0.0822">
        <ele>68.194</ele>
        <time>2017-03-28T17:55:38Z</time>
      </trkpt>
      <trkpt lat="44.6689" lon="-0.08308">
        <ele>65.819</ele>
        <time>2017-03-28T17:55:58Z</time>
      </trkpt>
      <trkpt lat="44.66926" lon="-0.08406">
        <ele>61.529</ele>
        <time>2017-03-28T17:56:18Z</time>
      </trkpt>
      <trkpt lat="44.66933" lon="-0.08454">
        <ele>59.781</ele>
        <time>2017-03-28T17:56:38Z</time>
      </trkpt>
      <trkpt lat="44.67" lon="-0.08587">
        <ele>58.883</ele>
        <time>2017-03-28T17:56:58Z</time>
      </trkpt>
      <trkpt lat="44.67183" lon="-0.08763">
        <ele>55.144</ele>
        <time>2017-03-28T17:57:18Z</time>
      </trkpt>
      <trkpt lat="44.67205" lon="-0.08816">
        <ele>51.58</ele>
        <time>2017-03-28T17:57:38Z</time>
      </trkpt>
      <trkpt lat="44.67238" lon="-0.08962">
        <ele>46.182</ele>
        <time>2017-03-28T17:57:58Z</time>
      </trkpt>
      <trkpt lat="44.67267" lon="-0.09007">
        <ele>46.534</ele>
        <time>2017-03-28T17:58:18Z</time>
      </trkpt>
      <trkpt lat="44.67423" lon="-0.08902">
        <ele>41.855</ele>
        <time>2017-03-28T17:58:38Z</time>
      </trkpt>
      <trkpt lat="44.67425" lon="-0.08853">
        <ele>46.11</ele>
        <time>2017-03-28T17:58:58Z</time>
      </trkpt>
      <trkpt lat="44.67312" lon="-0.08574">
        <ele>54.608</ele>
        <time>2017-03-28T17:59:18Z</time>
      </trkpt>
      <trkpt lat="44.67313" lon="-0.08531">
        <ele>56.659</ele>
        <time>2017-03-28T17:59:38Z</time>
      </trkpt>
      <trkpt lat="44.67415" lon="-0.0837">
        <ele>62.854</ele>
        <time>2017-03-28T17:59:58Z</time>
      </trkpt>
      <trkpt lat="44.67457" lon="-0.08434">
        <ele>63.294</ele>
        <time>2017-03-28T18:00:18Z</time>
      </trkpt>
      <trkpt lat="44.67483" lon="-0.08445">
        <ele>64.346</ele>
        <time>2017-03-28T18:00:38Z</time>
      </trkpt>
      <trkpt lat="44.67618" lon="-0.08428">
        <ele>57.768</ele>
        <time>2017-03-28T18:00:58Z</time>
      </trkpt>
      <trkpt lat="44.67644" lon="-0.08443">
        <ele>56.389</ele>
        <time>2017-03-28T18:01:18Z</time>
      </trkpt>
      <trkpt lat="44.67693" lon="-0.08535">
        <ele>52.775</ele>
        <time>2017-03-28T18:01:38Z</time>
      </trkpt>
      <trkpt lat="44.67797" lon="-0.08544">
        <ele>55.947</ele>
        <time>2017-03-28T18:01:58Z</time>
      </trkpt>
      <trkpt lat="44.67879" lon="-0.08617">
        <ele>53.819</ele>
        <time>2017-03-28T18:02:18Z</time>
      </trkpt>
      <trkpt lat="44.67899" lon="-0.08662">
        <ele>53.009</ele>
        <time>2017-03-28T18:02:38Z</time>
      </trkpt>
      <trkpt lat="44.67922" lon="-0.08683">
        <ele>52.319</ele>
        <time>2017-03-28T18:02:58Z</time>
      </trkpt>
      <trkpt lat="44.68024" lon="-0.08638">
        <ele>52.408</ele>
        <time>2017-03-28T18:03:18Z</time>
      </trkpt>
      <trkpt lat="44.68131" lon="-0.08619">
        <ele>45.257</ele>
        <time>2017-03-28T18:03:38Z</time>
      </trkpt>
      <trkpt lat="44.68316" lon="-0.08608">
        <ele>52.782</ele>
        <time>2017-03-28T18:03:58Z</time>
      </trkpt>
      <trkpt lat="44.68605" lon="-0.09011">
        <ele>72.222</ele>
        <time>2017-03-28T18:04:18Z</time>
      </trkpt>
      <trkpt lat="44.68721" lon="-0.08876">
        <ele>73.554</ele>
        <time>2017-03-28T18:04:38Z</time>
      </trkpt>
      <trkpt lat="44.68901" lon="-0.08797">
        <ele>56.386</ele>
        <time>2017-03-28T18:04:58Z</time>
      </trkpt>
      <trkpt lat="44.69005" lon="-0.0873">
        <ele>55.347</ele>
        <time>2017-03-28T18:05:18Z</time>
      </trkpt>
      <trkpt lat="44.69028" lon="-0.08784">
        <ele>55.013</ele>
        <time>2017-03-28T18:05:38Z</time>
      </trkpt>
      <trkpt lat="44.69036" lon="-0.08866">
        <ele>57.015</ele>
        <time>2017-03-28T18:05:58Z</time>
      </trkpt>
      <trkpt lat="44.69049" lon="-0.08842">
        <ele>57.436</ele>
        <time>2017-03-28T18:06:18Z</time>
      </trkpt>
      <trkpt lat="44.69286" lon="-0.0858">
        <ele>76.617</ele>
        <time>2017-03-28T18:08:38Z</time>
      </trkpt>
    </trkseg>
  </trk>
  <trk>
    <name><![CDATA[blasimon]]></name>
    <extensions>
      <line xmlns="http://www.topografix.com/GPX/gpx_style/0/2">
        <color>00fbff</color>
        <width>4</width>
      </line>
    </extensions>
    <trkseg>
      <trkpt lat="44.69286" lon="-0.0858">
        <ele>76.617</ele>
        <time>2017-03-28T18:08:38Z</time>
      </trkpt>
      <trkpt lat="44.69286" lon="-0.0858">
        <ele>76.617</ele>
        <time>2017-03-28T18:08:38Z</time>
      </trkpt>
      <trkpt lat="44.69286" lon="-0.0858">
        <ele>76.617</ele>
        <time>2017-03-28T18:08:38Z</time>
      </trkpt>
      <trkpt lat="44.69286" lon="-0.0858">
        <ele>76.617</ele>
        <time>2017-03-28T18:08:38Z</time>
      </trkpt>
      <trkpt lat="44.69286" lon="-0.0858">
        <ele>76.617</ele>
        <time>2017-03-28T18:08:38Z</time>
      </trkpt>
      <trkpt lat="44.69286" lon="-0.0858">
        <ele>76.617</ele>
        <time>2017-03-28T18:08:38Z</time>
      </trkpt>
      <trkpt lat="44.69286" lon="-0.0858">
        <ele>76.617</ele>
        <time>2017-03-28T18:08:38Z</time>
      </trkpt>
      <trkpt lat="44.69286" lon="-0.0858">
        <ele>76.617</ele>
        <time>2017-03-28T18:08:38Z</time>
      </trkpt>
      <trkpt lat="44.69286" lon="-0.0858">
        <ele>76.617</ele>
        <time>2017-03-28T18:08:38Z</time>
      </trkpt>
      <trkpt lat="44.69286" lon="-0.0858">
        <ele>76.617</ele>
        <time>2017-03-28T18:08:38Z</time>
      </trkpt>
      <trkpt lat="44.69286" lon="-0.0858">
        <ele>76.617</ele>
        <time>2017-03-28T18:08:38Z</time>
      </trkpt>
      <trkpt lat="44.69286" lon="-0.0858">
        <ele>76.617</ele>
        <time>2017-03-28T18:08:38Z</time>
      </trkpt>
      <trkpt lat="44.69286" lon="-0.0858">
        <ele>76.617</ele>
        <time>2017-03-28T18:08:38Z</time>
      </trkpt>
      <trkpt lat="44.69339" lon="-0.08645">
        <ele>76.118</ele>
        <time>2017-03-28T18:08:58Z</time>
      </trkpt>
      <trkpt lat="44.6947" lon="-0.08851">
        <ele>82.808</ele>
        <time>2017-03-28T18:09:18Z</time>
      </trkpt>
      <trkpt lat="44.70061" lon="-0.08812">
        <ele>93.299</ele>
        <time>2017-03-28T18:09:38Z</time>
      </trkpt>
      <trkpt lat="44.70065" lon="-0.08623">
        <ele>88.474</ele>
        <time>2017-03-28T18:09:58Z</time>
      </trkpt>
      <trkpt lat="44.70253" lon="-0.08391">
        <ele>82.774</ele>
        <time>2017-03-28T18:10:18Z</time>
      </trkpt>
      <trkpt lat="44.70271" lon="-0.0822">
        <ele>77.916</ele>
        <time>2017-03-28T18:10:38Z</time>
      </trkpt>
      <trkpt lat="44.70273" lon="-0.07979">
        <ele>65.278</ele>
        <time>2017-03-28T18:10:58Z</time>
      </trkpt>
      <trkpt lat="44.70264" lon="-0.07842">
        <ele>54.539</ele>
        <time>2017-03-28T18:11:18Z</time>
      </trkpt>
      <trkpt lat="44.7025" lon="-0.077">
        <ele>54.465</ele>
        <time>2017-03-28T18:11:38Z</time>
      </trkpt>
      <trkpt lat="44.70264" lon="-0.07655">
        <ele>55.647</ele>
        <time>2017-03-28T18:11:58Z</time>
      </trkpt>
      <trkpt lat="44.70328" lon="-0.0769">
        <ele>58.915</ele>
        <time>2017-03-28T18:12:18Z</time>
      </trkpt>
      <trkpt lat="44.70427" lon="-0.07733">
        <ele>56.565</ele>
        <time>2017-03-28T18:12:38Z</time>
      </trkpt>
      <trkpt lat="44.70627" lon="-0.07855">
        <ele>52.811</ele>
        <time>2017-03-28T18:12:58Z</time>
      </trkpt>
      <trkpt lat="44.70732" lon="-0.07859">
        <ele>56.508</ele>
        <time>2017-03-28T18:13:18Z</time>
      </trkpt>
      <trkpt lat="44.70864" lon="-0.07913">
        <ele>58.347</ele>
        <time>2017-03-28T18:13:38Z</time>
      </trkpt>
      <trkpt lat="44.70964" lon="-0.07928">
        <ele>61.492</ele>
        <time>2017-03-28T18:13:58Z</time>
      </trkpt>
      <trkpt lat="44.71072" lon="-0.07984">
        <ele>63.252</ele>
        <time>2017-03-28T18:14:18Z</time>
      </trkpt>
      <trkpt lat="44.71177" lon="-0.08097">
        <ele>60.924</ele>
        <time>2017-03-28T18:14:38Z</time>
      </trkpt>
      <trkpt lat="44.7123" lon="-0.08115">
        <ele>61.026</ele>
        <time>2017-03-28T18:14:58Z</time>
      </trkpt>
      <trkpt lat="44.71278" lon="-0.08151">
        <ele>61.067</ele>
        <time>2017-03-28T18:15:18Z</time>
      </trkpt>
      <trkpt lat="44.71307" lon="-0.08155">
        <ele>61.463</ele>
        <time>2017-03-28T18:15:38Z</time>
      </trkpt>
      <trkpt lat="44.71397" lon="-0.08054">
        <ele>68.095</ele>
        <time>2017-03-28T18:15:58Z</time>
      </trkpt>
      <trkpt lat="44.71458" lon="-0.07949">
        <ele>68.969</ele>
        <time>2017-03-28T18:16:18Z</time>
      </trkpt>
      <trkpt lat="44.715" lon="-0.07904">
        <ele>68.404</ele>
        <time>2017-03-28T18:16:38Z</time>
      </trkpt>
      <trkpt lat="44.71599" lon="-0.07848">
        <ele>69.624</ele>
        <time>2017-03-28T18:16:58Z</time>
      </trkpt>
      <trkpt lat="44.71792" lon="-0.07711">
        <ele>73.708</ele>
        <time>2017-03-28T18:17:18Z</time>
      </trkpt>
      <trkpt lat="44.71946" lon="-0.0761">
        <ele>75.042</ele>
        <time>2017-03-28T18:17:38Z</time>
      </trkpt>
      <trkpt lat="44.71985" lon="-0.07563">
        <ele>73.597</ele>
        <time>2017-03-28T18:17:58Z</time>
      </trkpt>
      <trkpt lat="44.72226" lon="-0.07499">
        <ele>87.197</ele>
        <time>2017-03-28T18:18:18Z</time>
      </trkpt>
      <trkpt lat="44.72286" lon="-0.07488">
        <ele>91.079</ele>
        <time>2017-03-28T18:18:38Z</time>
      </trkpt>
      <trkpt lat="44.72418" lon="-0.07451">
        <ele>89.391</ele>
        <time>2017-03-28T18:18:58Z</time>
      </trkpt>
      <trkpt lat="44.72586" lon="-0.07366">
        <ele>96.572</ele>
        <time>2017-03-28T18:19:18Z</time>
      </trkpt>
      <trkpt lat="44.72712" lon="-0.07314">
        <ele>106.768</ele>
        <time>2017-03-28T18:19:38Z</time>
      </trkpt>
      <trkpt lat="44.72819" lon="-0.07282">
        <ele>108.78</ele>
        <time>2017-03-28T18:19:58Z</time>
      </trkpt>
      <trkpt lat="44.72897" lon="-0.07179">
        <ele>99.435</ele>
        <time>2017-03-28T18:20:18Z</time>
      </trkpt>
      <trkpt lat="44.72943" lon="-0.07115">
        <ele>100.986</ele>
        <time>2017-03-28T18:20:38Z</time>
      </trkpt>
      <trkpt lat="44.72981" lon="-0.07104">
        <ele>103.214</ele>
        <time>2017-03-28T18:20:58Z</time>
      </trkpt>
      <trkpt lat="44.73042" lon="-0.07106">
        <ele>98.408</ele>
        <time>2017-03-28T18:21:18Z</time>
      </trkpt>
      <trkpt lat="44.73273" lon="-0.07048">
        <ele>90.989</ele>
        <time>2017-03-28T18:21:38Z</time>
      </trkpt>
      <trkpt lat="44.73334" lon="-0.0705">
        <ele>89.244</ele>
        <time>2017-03-28T18:21:58Z</time>
      </trkpt>
      <trkpt lat="44.73576" lon="-0.06944">
        <ele>74.054</ele>
        <time>2017-03-28T18:22:18Z</time>
      </trkpt>
      <trkpt lat="44.73645" lon="-0.06931">
        <ele>73.896</ele>
        <time>2017-03-28T18:22:38Z</time>
      </trkpt>
      <trkpt lat="44.73636" lon="-0.07116">
        <ele>72.138</ele>
        <time>2017-03-28T18:22:58Z</time>
      </trkpt>
      <trkpt lat="44.73683" lon="-0.07292">
        <ele>71.089</ele>
        <time>2017-03-28T18:23:18Z</time>
      </trkpt>
      <trkpt lat="44.73715" lon="-0.07519">
        <ele>66.775</ele>
        <time>2017-03-28T18:23:38Z</time>
      </trkpt>
      <trkpt lat="44.73741" lon="-0.07598">
        <ele>65.657</ele>
        <time>2017-03-28T18:23:58Z</time>
      </trkpt>
      <trkpt lat="44.73759" lon="-0.07751">
        <ele>70.095</ele>
        <time>2017-03-28T18:24:18Z</time>
      </trkpt>
      <trkpt lat="44.74029" lon="-0.07611">
        <ele>58.049</ele>
        <time>2017-03-28T18:24:38Z</time>
      </trkpt>
      <trkpt lat="44.74221" lon="-0.07551">
        <ele>66.423</ele>
        <time>2017-03-28T18:24:58Z</time>
      </trkpt>
      <trkpt lat="44.74296" lon="-0.07525">
        <ele>69.808</ele>
        <time>2017-03-28T18:25:18Z</time>
      </trkpt>
      <trkpt lat="44.74325" lon="-0.07536">
        <ele>71.135</ele>
        <time>2017-03-28T18:25:38Z</time>
      </trkpt>
      <trkpt lat="44.74354" lon="-0.07628">
        <ele>70.08</ele>
        <time>2017-03-28T18:25:58Z</time>
      </trkpt>
      <trkpt lat="44.74377" lon="-0.07641">
        <ele>69.96</ele>
        <time>2017-03-28T18:26:18Z</time>
      </trkpt>
      <trkpt lat="44.74409" lon="-0.07609">
        <ele>69.692</ele>
        <time>2017-03-28T18:26:38Z</time>
      </trkpt>
      <trkpt lat="44.74442" lon="-0.07766">
        <ele>68.934</ele>
        <time>2017-03-28T18:26:58Z</time>
      </trkpt>
      <trkpt lat="44.74488" lon="-0.07899">
        <ele>69.035</ele>
        <time>2017-03-28T18:27:18Z</time>
      </trkpt>
      <trkpt lat="44.74611" lon="-0.08079">
        <ele>69.241</ele>
        <time>2017-03-28T18:27:38Z</time>
      </trkpt>
      <trkpt lat="44.74724" lon="-0.08189">
        <ele>65.123</ele>
        <time>2017-03-28T18:27:58Z</time>
      </trkpt>
      <trkpt lat="44.74768" lon="-0.08337">
        <ele>67.417</ele>
        <time>2017-03-28T18:28:18Z</time>
      </trkpt>
      <trkpt lat="44.74822" lon="-0.08307">
        <ele>64.587</ele>
        <time>2017-03-28T18:28:38Z</time>
      </trkpt>
      <trkpt lat="44.74876" lon="-0.08253">
        <ele>60.515</ele>
        <time>2017-03-28T18:28:58Z</time>
      </trkpt>
      <trkpt lat="44.74881" lon="-0.08071">
        <ele>57.308</ele>
        <time>2017-03-28T18:29:18Z</time>
      </trkpt>
      <trkpt lat="44.74867" lon="-0.0785">
        <ele>51.887</ele>
        <time>2017-03-28T18:29:38Z</time>
      </trkpt>
      <trkpt lat="44.74873" lon="-0.07787">
        <ele>47.842</ele>
        <time>2017-03-28T18:29:58Z</time>
      </trkpt>
      <trkpt lat="44.74936" lon="-0.07667">
        <ele>59.042</ele>
        <time>2017-03-28T18:30:18Z</time>
      </trkpt>
      <trkpt lat="44.74887" lon="-0.075">
        <ele>66.944</ele>
        <time>2017-03-28T18:30:38Z</time>
      </trkpt>
      <trkpt lat="44.75087" lon="-0.07358">
        <ele>58.966</ele>
        <time>2017-03-28T18:30:58Z</time>
      </trkpt>
      <trkpt lat="44.7516" lon="-0.07315">
        <ele>60.057</ele>
        <time>2017-03-28T18:31:18Z</time>
      </trkpt>
      <trkpt lat="44.75193" lon="-0.07264">
        <ele>61.523</ele>
        <time>2017-03-28T18:31:38Z</time>
      </trkpt>
      <trkpt lat="44.75251" lon="-0.0715">
        <ele>62.415</ele>
        <time>2017-03-28T18:31:58Z</time>
      </trkpt>
      <trkpt lat="44.75277" lon="-0.07068">
        <ele>60.079</ele>
        <time>2017-03-28T18:32:18Z</time>
      </trkpt>
      <trkpt lat="44.7532" lon="-0.07004">
        <ele>59.305</ele>
        <time>2017-03-28T18:32:38Z</time>
      </trkpt>
      <trkpt lat="44.75332" lon="-0.06938">
        <ele>61.425</ele>
        <time>2017-03-28T18:32:58Z</time>
      </trkpt>
      <trkpt lat="44.75331" lon="-0.06805">
        <ele>49.208</ele>
        <time>2017-03-28T18:33:18Z</time>
      </trkpt>
      <trkpt lat="44.75483" lon="-0.06661">
        <ele>31.123</ele>
        <time>2017-03-28T18:33:38Z</time>
      </trkpt>
      <trkpt lat="44.75434" lon="-0.065">
        <ele>30.438</ele>
        <time>2017-03-28T18:33:58Z</time>
      </trkpt>
      <trkpt lat="44.75393" lon="-0.06408">
        <ele>33.318</ele>
        <time>2017-03-28T18:34:18Z</time>
      </trkpt>
      <trkpt lat="44.75395" lon="-0.0638">
        <ele>34.13</ele>
        <time>2017-03-28T18:34:38Z</time>
      </trkpt>
      <trkpt lat="44.75306" lon="-0.06335">
        <ele>30.932</ele>
        <time>2017-03-28T18:34:58Z</time>
      </trkpt>
      <trkpt lat="44.75232" lon="-0.06146">
        <ele>34.383</ele>
        <time>2017-03-28T18:35:18Z</time>
      </trkpt>
      <trkpt lat="44.752" lon="-0.06056">
        <ele>35.949</ele>
        <time>2017-03-28T18:35:38Z</time>
      </trkpt>
      <trkpt lat="44.75148" lon="-0.05978">
        <ele>34.721</ele>
        <time>2017-03-28T18:35:58Z</time>
      </trkpt>
      <trkpt lat="44.75094" lon="-0.05828">
        <ele>38.584</ele>
        <time>2017-03-28T18:36:18Z</time>
      </trkpt>
      <trkpt lat="44.75062" lon="-0.05813">
        <ele>36.307</ele>
        <time>2017-03-28T18:36:38Z</time>
      </trkpt>
      <trkpt lat="44.7505" lon="-0.05785">
        <ele>36.217</ele>
        <time>2017-03-28T18:36:58Z</time>
      </trkpt>
      <trkpt lat="44.75093" lon="-0.05558">
        <ele>36.108</ele>
        <time>2017-03-28T18:37:18Z</time>
      </trkpt>
      <trkpt lat="44.75383" lon="-0.05357">
        <ele>76.9</ele>
      </trkpt>
      <trkpt lat="44.75406" lon="-0.05395">
        <ele>78.3</ele>
      </trkpt>
    </trkseg>
  </trk>
  <trk>
    <name><![CDATA[Pellegrue]]></name>
    <trkseg>
      <trkpt lat="44.75411" lon="-0.05389">
        <ele>78.6</ele>
      </trkpt>
      <trkpt lat="44.75411" lon="-0.05389">
        <ele>78.6</ele>
      </trkpt>
      <trkpt lat="44.75411" lon="-0.05389">
        <ele>78.6</ele>
      </trkpt>
      <trkpt lat="44.75411" lon="-0.05389">
        <ele>78.6</ele>
      </trkpt>
      <trkpt lat="44.75411" lon="-0.05389">
        <ele>78.6</ele>
      </trkpt>
      <trkpt lat="44.75411" lon="-0.05389">
        <ele>78.6</ele>
      </trkpt>
      <trkpt lat="44.75411" lon="-0.05389">
        <ele>78.6</ele>
      </trkpt>
      <trkpt lat="44.75411" lon="-0.05389">
        <ele>78.6</ele>
      </trkpt>
      <trkpt lat="44.75411" lon="-0.05389">
        <ele>78.6</ele>
      </trkpt>
      <trkpt lat="44.75411" lon="-0.05389">
        <ele>78.6</ele>
      </trkpt>
      <trkpt lat="44.75383" lon="-0.05347">
        <ele>76.9</ele>
      </trkpt>
      <trkpt lat="44.75093" lon="-0.05558">
        <ele>36.108</ele>
        <time>2017-03-28T18:37:18Z</time>
      </trkpt>
      <trkpt lat="44.75075" lon="-0.05528">
        <ele>35.344</ele>
        <time>2017-03-28T18:37:38Z</time>
      </trkpt>
      <trkpt lat="44.75033" lon="-0.05363">
        <ele>32.279</ele>
        <time>2017-03-28T18:37:58Z</time>
      </trkpt>
      <trkpt lat="44.75065" lon="-0.05225">
        <ele>33.799</ele>
        <time>2017-03-28T18:38:18Z</time>
      </trkpt>
      <trkpt lat="44.74997" lon="-0.04938">
        <ele>35.231</ele>
        <time>2017-03-28T18:38:38Z</time>
      </trkpt>
      <trkpt lat="44.75012" lon="-0.04865">
        <ele>35.533</ele>
        <time>2017-03-28T18:38:58Z</time>
      </trkpt>
      <trkpt lat="44.75114" lon="-0.0477">
        <ele>36.014</ele>
        <time>2017-03-28T18:39:18Z</time>
      </trkpt>
      <trkpt lat="44.75139" lon="-0.04727">
        <ele>36.08</ele>
        <time>2017-03-28T18:39:38Z</time>
      </trkpt>
      <trkpt lat="44.75203" lon="-0.04657">
        <ele>39.232</ele>
        <time>2017-03-28T18:39:58Z</time>
      </trkpt>
      <trkpt lat="44.75233" lon="-0.04597">
        <ele>39.954</ele>
        <time>2017-03-28T18:40:18Z</time>
      </trkpt>
      <trkpt lat="44.75233" lon="-0.04328">
        <ele>37.656</ele>
        <time>2017-03-28T18:40:38Z</time>
      </trkpt>
      <trkpt lat="44.75213" lon="-0.04193">
        <ele>40.011</ele>
        <time>2017-03-28T18:40:58Z</time>
      </trkpt>
      <trkpt lat="44.75186" lon="-0.04041">
        <ele>41.108</ele>
        <time>2017-03-28T18:41:18Z</time>
      </trkpt>
      <trkpt lat="44.75216" lon="-0.0403">
        <ele>42.651</ele>
        <time>2017-03-28T18:41:38Z</time>
      </trkpt>
      <trkpt lat="44.75233" lon="-0.03991">
        <ele>44.466</ele>
        <time>2017-03-28T18:41:58Z</time>
      </trkpt>
      <trkpt lat="44.75292" lon="-0.03899">
        <ele>46.466</ele>
        <time>2017-03-28T18:42:18Z</time>
      </trkpt>
      <trkpt lat="44.75334" lon="-0.03785">
        <ele>48.728</ele>
        <time>2017-03-28T18:42:38Z</time>
      </trkpt>
      <trkpt lat="44.75361" lon="-0.03659">
        <ele>50.74</ele>
        <time>2017-03-28T18:42:58Z</time>
      </trkpt>
      <trkpt lat="44.75395" lon="-0.03491">
        <ele>48.741</ele>
        <time>2017-03-28T18:43:18Z</time>
      </trkpt>
      <trkpt lat="44.75399" lon="-0.03388">
        <ele>45.087</ele>
        <time>2017-03-28T18:43:38Z</time>
      </trkpt>
      <trkpt lat="44.75387" lon="-0.03182">
        <ele>49.629</ele>
        <time>2017-03-28T18:43:58Z</time>
      </trkpt>
      <trkpt lat="44.7536" lon="-0.03135">
        <ele>49.126</ele>
        <time>2017-03-28T18:44:18Z</time>
      </trkpt>
      <trkpt lat="44.75366" lon="-0.03022">
        <ele>50.847</ele>
        <time>2017-03-28T18:44:38Z</time>
      </trkpt>
      <trkpt lat="44.75337" lon="-0.03039">
        <ele>54.111</ele>
        <time>2017-03-28T18:44:58Z</time>
      </trkpt>
      <trkpt lat="44.75305" lon="-0.03071">
        <ele>58.508</ele>
        <time>2017-03-28T18:45:18Z</time>
      </trkpt>
      <trkpt lat="44.75267" lon="-0.03049">
        <ele>68.698</ele>
        <time>2017-03-28T18:45:38Z</time>
      </trkpt>
      <trkpt lat="44.75171" lon="-0.03037">
        <ele>75.173</ele>
        <time>2017-03-28T18:45:58Z</time>
      </trkpt>
      <trkpt lat="44.75088" lon="-0.02974">
        <ele>79.853</ele>
        <time>2017-03-28T18:46:18Z</time>
      </trkpt>
      <trkpt lat="44.74962" lon="-0.03037">
        <ele>87.065</ele>
        <time>2017-03-28T18:46:38Z</time>
      </trkpt>
      <trkpt lat="44.74822" lon="-0.02998">
        <ele>85.657</ele>
        <time>2017-03-28T18:46:58Z</time>
      </trkpt>
      <trkpt lat="44.74677" lon="-0.03052">
        <ele>81.128</ele>
        <time>2017-03-28T18:47:18Z</time>
      </trkpt>
      <trkpt lat="44.74585" lon="-0.03034">
        <ele>80.824</ele>
        <time>2017-03-28T18:47:38Z</time>
      </trkpt>
      <trkpt lat="44.74506" lon="-0.02994">
        <ele>77.946</ele>
        <time>2017-03-28T18:47:58Z</time>
      </trkpt>
      <trkpt lat="44.74492" lon="-0.02972">
        <ele>78.513</ele>
        <time>2017-03-28T18:48:18Z</time>
      </trkpt>
      <trkpt lat="44.74492" lon="-0.02972">
        <ele>78.513</ele>
        <time>2017-03-28T18:48:18Z</time>
      </trkpt>
      <trkpt lat="44.74492" lon="-0.02972">
        <ele>78.513</ele>
        <time>2017-03-28T18:48:18Z</time>
      </trkpt>
      <trkpt lat="44.74492" lon="-0.02972">
        <ele>78.513</ele>
        <time>2017-03-28T18:48:18Z</time>
      </trkpt>
      <trkpt lat="44.74492" lon="-0.02972">
        <ele>78.513</ele>
        <time>2017-03-28T18:48:18Z</time>
      </trkpt>
      <trkpt lat="44.7447" lon="-0.03007">
        <ele>76.143</ele>
        <time>2017-03-28T18:48:38Z</time>
      </trkpt>
      <trkpt lat="44.74319" lon="-0.03092">
        <ele>79.507</ele>
        <time>2017-03-28T18:48:58Z</time>
      </trkpt>
      <trkpt lat="44.74204" lon="-0.03116">
        <ele>88.308</ele>
        <time>2017-03-28T18:49:18Z</time>
      </trkpt>
      <trkpt lat="44.73839" lon="-0.02431">
        <ele>98.377</ele>
        <time>2017-03-28T18:49:38Z</time>
      </trkpt>
      <trkpt lat="44.73866" lon="-0.02397">
        <ele>97.942</ele>
        <time>2017-03-28T18:49:58Z</time>
      </trkpt>
      <trkpt lat="44.7393" lon="-0.02247">
        <ele>100.682</ele>
        <time>2017-03-28T18:50:18Z</time>
      </trkpt>
      <trkpt lat="44.7395" lon="-0.02084">
        <ele>99.864</ele>
        <time>2017-03-28T18:50:38Z</time>
      </trkpt>
      <trkpt lat="44.73983" lon="-0.0197">
        <ele>100.016</ele>
        <time>2017-03-28T18:50:58Z</time>
      </trkpt>
      <trkpt lat="44.74131" lon="-0.01863">
        <ele>104.347</ele>
        <time>2017-03-28T18:51:18Z</time>
      </trkpt>
      <trkpt lat="44.74233" lon="-0.01822">
        <ele>104.223</ele>
        <time>2017-03-28T18:51:38Z</time>
      </trkpt>
      <trkpt lat="44.74381" lon="-0.01453">
        <ele>94.525</ele>
        <time>2017-03-28T18:51:58Z</time>
      </trkpt>
      <trkpt lat="44.74264" lon="-0.01331">
        <ele>92.042</ele>
        <time>2017-03-28T18:52:18Z</time>
      </trkpt>
      <trkpt lat="44.74207" lon="-0.01208">
        <ele>91.522</ele>
        <time>2017-03-28T18:52:38Z</time>
      </trkpt>
      <trkpt lat="44.74143" lon="-0.01142">
        <ele>86.514</ele>
        <time>2017-03-28T18:52:58Z</time>
      </trkpt>
      <trkpt lat="44.74235" lon="-0.00908">
        <ele>98.308</ele>
        <time>2017-03-28T18:53:18Z</time>
      </trkpt>
      <trkpt lat="44.74273" lon="-0.00779">
        <ele>96.81</ele>
        <time>2017-03-28T18:53:38Z</time>
      </trkpt>
      <trkpt lat="44.74346" lon="-0.00296">
        <ele>95.725</ele>
        <time>2017-03-28T18:53:58Z</time>
      </trkpt>
      <trkpt lat="44.74579" lon="-0.0029">
        <ele>100.145</ele>
        <time>2017-03-28T18:54:18Z</time>
      </trkpt>
      <trkpt lat="44.74541" lon="-0.0014">
        <ele>92.177</ele>
        <time>2017-03-28T18:54:38Z</time>
      </trkpt>
      <trkpt lat="44.74508" lon="0.00047">
        <ele>88.049</ele>
        <time>2017-03-28T18:54:58Z</time>
      </trkpt>
      <trkpt lat="44.74687" lon="0.00079">
        <ele>91.68</ele>
        <time>2017-03-28T18:55:18Z</time>
      </trkpt>
      <trkpt lat="44.74899" lon="0.00047">
        <ele>99.476</ele>
        <time>2017-03-28T18:55:38Z</time>
      </trkpt>
      <trkpt lat="44.75137" lon="-0.00118">
        <ele>102.128</ele>
        <time>2017-03-28T18:55:58Z</time>
      </trkpt>
      <trkpt lat="44.7516" lon="-0.00075">
        <ele>101.523</ele>
        <time>2017-03-28T18:56:18Z</time>
      </trkpt>
      <trkpt lat="44.75274" lon="0.00249">
        <ele>101.883</ele>
        <time>2017-03-28T18:56:38Z</time>
      </trkpt>
      <trkpt lat="44.75358" lon="0.00313">
        <ele>104.411</ele>
        <time>2017-03-28T18:56:58Z</time>
      </trkpt>
      <trkpt lat="44.75364" lon="0.00356">
        <ele>104.908</ele>
        <time>2017-03-28T18:57:18Z</time>
      </trkpt>
      <trkpt lat="44.75332" lon="0.00594">
        <ele>106.668</ele>
        <time>2017-03-28T18:57:38Z</time>
      </trkpt>
      <trkpt lat="44.75276" lon="0.00723">
        <ele>108.213</ele>
        <time>2017-03-28T18:57:58Z</time>
      </trkpt>
      <trkpt lat="44.7527" lon="0.0077">
        <ele>110.173</ele>
        <time>2017-03-28T18:58:18Z</time>
      </trkpt>
      <trkpt lat="44.75294" lon="0.00991">
        <ele>113.995</ele>
        <time>2017-03-28T18:58:38Z</time>
      </trkpt>
      <trkpt lat="44.75349" lon="0.00978">
        <ele>114.677</ele>
        <time>2017-03-28T18:58:58Z</time>
      </trkpt>
      <trkpt lat="44.76228" lon="0.00965">
        <ele>102.688</ele>
        <time>2017-03-28T18:59:18Z</time>
      </trkpt>
      <trkpt lat="44.76281" lon="0.00953">
        <ele>101.474</ele>
        <time>2017-03-28T18:59:38Z</time>
      </trkpt>
      <trkpt lat="44.76249" lon="0.01195">
        <ele>106.066</ele>
        <time>2017-03-28T18:59:58Z</time>
      </trkpt>
      <trkpt lat="44.76114" lon="0.01689">
        <ele>90.276</ele>
        <time>2017-03-28T19:00:18Z</time>
      </trkpt>
      <trkpt lat="44.76074" lon="0.02549">
        <ele>110.79</ele>
        <time>2017-03-28T19:00:38Z</time>
      </trkpt>
      <trkpt lat="44.76165" lon="0.03169">
        <ele>112.019</ele>
        <time>2020-11-24T23:56:00Z</time>
      </trkpt>
      <trkpt lat="44.76189" lon="0.03221">
        <ele>112.808</ele>
        <time>2020-11-24T23:56:20Z</time>
      </trkpt>
      <trkpt lat="44.76298" lon="0.03351">
        <ele>113.383</ele>
        <time>2020-11-24T23:56:40Z</time>
      </trkpt>
      <trkpt lat="44.76317" lon="0.03467">
        <ele>109.348</ele>
        <time>2020-11-24T23:57:00Z</time>
      </trkpt>
      <trkpt lat="44.76387" lon="0.03558">
        <ele>107.918</ele>
        <time>2020-11-24T23:57:20Z</time>
      </trkpt>
      <trkpt lat="44.76397" lon="0.03622">
        <ele>107.63</ele>
        <time>2020-11-24T23:57:40Z</time>
      </trkpt>
      <trkpt lat="44.76341" lon="0.03645">
        <ele>104.322</ele>
        <time>2020-11-24T23:58:00Z</time>
      </trkpt>
      <trkpt lat="44.76306" lon="0.03696">
        <ele>102.873</ele>
        <time>2020-11-24T23:58:20Z</time>
      </trkpt>
      <trkpt lat="44.76287" lon="0.03753">
        <ele>100.559</ele>
        <time>2020-11-24T23:58:40Z</time>
      </trkpt>
      <trkpt lat="44.76305" lon="0.03817">
        <ele>97.621</ele>
        <time>2020-11-24T23:59:00Z</time>
      </trkpt>
      <trkpt lat="44.76317" lon="0.03975">
        <ele>87.368</ele>
        <time>2020-11-24T23:59:20Z</time>
      </trkpt>
      <trkpt lat="44.76263" lon="0.04214">
        <ele>81.042</ele>
        <time>2020-11-24T23:59:40Z</time>
      </trkpt>
      <trkpt lat="44.76175" lon="0.04362">
        <ele>75.226</ele>
        <time>2020-11-25T00:00:00Z</time>
      </trkpt>
      <trkpt lat="44.76143" lon="0.04508">
        <ele>74.508</ele>
        <time>2017-03-28T19:12:18Z</time>
      </trkpt>
      <trkpt lat="44.76271" lon="0.04568">
        <ele>90.472</ele>
        <time>2017-03-28T19:12:38Z</time>
      </trkpt>
      <trkpt lat="44.76322" lon="0.04521">
        <ele>92.797</ele>
        <time>2017-03-28T19:12:58Z</time>
      </trkpt>
      <trkpt lat="44.76374" lon="0.04596">
        <ele>88.927</ele>
        <time>2017-03-28T19:13:18Z</time>
      </trkpt>
      <trkpt lat="44.76455" lon="0.0469">
        <ele>80.349</ele>
        <time>2017-03-28T19:13:38Z</time>
      </trkpt>
      <trkpt lat="44.76481" lon="0.04733">
        <ele>77.871</ele>
        <time>2017-03-28T19:13:58Z</time>
      </trkpt>
      <trkpt lat="44.7649" lon="0.04813">
        <ele>73.462</ele>
        <time>2017-03-28T19:14:18Z</time>
      </trkpt>
      <trkpt lat="44.76464" lon="0.04884">
        <ele>70.268</ele>
        <time>2017-03-28T19:14:38Z</time>
      </trkpt>
      <trkpt lat="44.76438" lon="0.05004">
        <ele>65.99</ele>
        <time>2017-03-28T19:14:58Z</time>
      </trkpt>
      <trkpt lat="44.76402" lon="0.05055">
        <ele>58.665</ele>
        <time>2017-03-28T19:15:18Z</time>
      </trkpt>
      <trkpt lat="44.76358" lon="0.05047">
        <ele>55.268</ele>
        <time>2017-03-28T19:15:38Z</time>
      </trkpt>
      <trkpt lat="44.76295" lon="0.04982">
        <ele>51.314</ele>
        <time>2017-03-28T19:15:58Z</time>
      </trkpt>
      <trkpt lat="44.76237" lon="0.04987">
        <ele>50.708</ele>
        <time>2017-03-28T19:16:18Z</time>
      </trkpt>
      <trkpt lat="44.76194" lon="0.05023">
        <ele>48.552</ele>
        <time>2017-03-28T19:16:38Z</time>
      </trkpt>
      <trkpt lat="44.76339" lon="0.05263">
        <ele>41.717</ele>
        <time>2017-03-28T19:16:58Z</time>
      </trkpt>
      <trkpt lat="44.76391" lon="0.05433">
        <ele>41.067</ele>
        <time>2017-03-28T19:17:18Z</time>
      </trkpt>
      <trkpt lat="44.76198" lon="0.0565">
        <ele>37.579</ele>
        <time>2017-03-28T19:17:38Z</time>
      </trkpt>
      <trkpt lat="44.76175" lon="0.05637">
        <ele>37.881</ele>
        <time>2017-03-28T19:17:58Z</time>
      </trkpt>
      <trkpt lat="44.76146" lon="0.05598">
        <ele>41.792</ele>
        <time>2017-03-28T19:18:18Z</time>
      </trkpt>
      <trkpt lat="44.76022" lon="0.05493">
        <ele>62.938</ele>
        <time>2017-03-28T19:18:38Z</time>
      </trkpt>
      <trkpt lat="44.75919" lon="0.05504">
        <ele>67.57</ele>
        <time>2017-03-28T19:18:58Z</time>
      </trkpt>
      <trkpt lat="44.75876" lon="0.05585">
        <ele>72.364</ele>
        <time>2017-03-28T19:19:18Z</time>
      </trkpt>
      <trkpt lat="44.7583" lon="0.0562">
        <ele>73.706</ele>
        <time>2017-03-28T19:19:38Z</time>
      </trkpt>
      <trkpt lat="44.7576" lon="0.05705">
        <ele>78.816</ele>
        <time>2017-03-28T19:19:58Z</time>
      </trkpt>
      <trkpt lat="44.75701" lon="0.05718">
        <ele>78.808</ele>
        <time>2017-03-28T19:20:18Z</time>
      </trkpt>
      <trkpt lat="44.75663" lon="0.0571">
        <ele>80.372</ele>
        <time>2017-03-28T19:20:38Z</time>
      </trkpt>
      <trkpt lat="44.75602" lon="0.05746">
        <ele>86.367</ele>
        <time>2017-03-28T19:20:58Z</time>
      </trkpt>
      <trkpt lat="44.75576" lon="0.05808">
        <ele>88.367</ele>
        <time>2017-03-28T19:21:18Z</time>
      </trkpt>
      <trkpt lat="44.75206" lon="0.05989">
        <ele>96.059</ele>
        <time>2017-03-28T19:21:38Z</time>
      </trkpt>
      <trkpt lat="44.75172" lon="0.06038">
        <ele>93.481</ele>
        <time>2017-03-28T19:21:58Z</time>
      </trkpt>
      <trkpt lat="44.75081" lon="0.06298">
        <ele>95.732</ele>
        <time>2017-03-28T19:22:18Z</time>
      </trkpt>
      <trkpt lat="44.74887" lon="0.06493">
        <ele>93.628</ele>
        <time>2017-03-28T19:22:38Z</time>
      </trkpt>
      <trkpt lat="44.74873" lon="0.06553">
        <ele>94.35</ele>
        <time>2017-03-28T19:22:58Z</time>
      </trkpt>
      <trkpt lat="44.74904" lon="0.06637">
        <ele>91.957</ele>
        <time>2017-03-28T19:23:18Z</time>
      </trkpt>
      <trkpt lat="44.74898" lon="0.06692">
        <ele>88</ele>
        <time>2017-03-28T19:23:38Z</time>
      </trkpt>
      <trkpt lat="44.74697" lon="0.06967">
        <ele>88.62</ele>
        <time>2017-03-28T19:23:58Z</time>
      </trkpt>
      <trkpt lat="44.74587" lon="0.07038">
        <ele>83.308</ele>
        <time>2017-03-28T19:24:18Z</time>
      </trkpt>
      <trkpt lat="44.74532" lon="0.07306">
        <ele>77.371</ele>
        <time>2017-03-28T19:24:38Z</time>
      </trkpt>
      <trkpt lat="44.74473" lon="0.07317">
        <ele>78.276</ele>
        <time>2017-03-28T19:24:58Z</time>
      </trkpt>
      <trkpt lat="44.74416" lon="0.07377">
        <ele>88.046</ele>
        <time>2017-03-28T19:25:18Z</time>
      </trkpt>
      <trkpt lat="44.74389" lon="0.07465">
        <ele>96.098</ele>
        <time>2017-03-28T19:25:38Z</time>
      </trkpt>
      <trkpt lat="44.74378" lon="0.07544">
        <ele>99.57</ele>
        <time>2017-03-28T19:25:58Z</time>
      </trkpt>
    </trkseg>
  </trk>
  <trk>
    <name><![CDATA[Ste-Foy-la-grande]]></name>
    <extensions>
      <line xmlns="http://www.topografix.com/GPX/gpx_style/0/2">
        <color>ff000d</color>
        <width>4</width>
      </line>
    </extensions>
    <trkseg>
      <trkpt lat="44.74371" lon="0.07548">
        <ele>98.373</ele>
        <time>2019-04-11T19:15:21Z</time>
      </trkpt>
      <trkpt lat="44.74371" lon="0.07548">
        <ele>98.373</ele>
        <time>2019-04-11T19:15:21Z</time>
      </trkpt>
      <trkpt lat="44.74371" lon="0.07548">
        <ele>98.373</ele>
        <time>2019-04-11T19:15:21Z</time>
      </trkpt>
      <trkpt lat="44.74371" lon="0.07548">
        <ele>98.373</ele>
        <time>2019-04-11T19:15:21Z</time>
      </trkpt>
      <trkpt lat="44.74371" lon="0.07548">
        <ele>98.373</ele>
        <time>2019-04-11T19:15:21Z</time>
      </trkpt>
      <trkpt lat="44.74371" lon="0.07548">
        <ele>98.373</ele>
        <time>2019-04-11T19:15:21Z</time>
      </trkpt>
      <trkpt lat="44.74371" lon="0.07548">
        <ele>98.373</ele>
        <time>2019-04-11T19:15:21Z</time>
      </trkpt>
      <trkpt lat="44.74371" lon="0.07548">
        <ele>98.373</ele>
        <time>2019-04-11T19:15:21Z</time>
      </trkpt>
      <trkpt lat="44.74371" lon="0.07548">
        <ele>98.373</ele>
        <time>2019-04-11T19:15:21Z</time>
      </trkpt>
      <trkpt lat="44.74371" lon="0.07548">
        <ele>98.373</ele>
        <time>2019-04-11T19:15:21Z</time>
      </trkpt>
      <trkpt lat="44.74381" lon="0.07537">
        <ele>97.692</ele>
        <time>2019-04-11T19:15:01Z</time>
      </trkpt>
      <trkpt lat="44.74548" lon="0.07605">
        <ele>86.452</ele>
        <time>2019-04-11T19:14:41Z</time>
      </trkpt>
      <trkpt lat="44.74718" lon="0.07715">
        <ele>98.734</ele>
        <time>2019-04-11T19:14:21Z</time>
      </trkpt>
      <trkpt lat="44.74923" lon="0.07813">
        <ele>107.819</ele>
        <time>2019-04-11T19:14:01Z</time>
      </trkpt>
      <trkpt lat="44.7503" lon="0.07873">
        <ele>109.864</ele>
        <time>2019-04-11T19:13:41Z</time>
      </trkpt>
      <trkpt lat="44.75092" lon="0.07889">
        <ele>107.773</ele>
        <time>2019-04-11T19:13:21Z</time>
      </trkpt>
      <trkpt lat="44.75219" lon="0.07969">
        <ele>101.114</ele>
        <time>2019-04-11T19:13:01Z</time>
      </trkpt>
      <trkpt lat="44.75408" lon="0.08053">
        <ele>85.148</ele>
        <time>2019-04-11T19:12:41Z</time>
      </trkpt>
      <trkpt lat="44.75519" lon="0.08226">
        <ele>78.166</ele>
        <time>2019-04-11T19:12:21Z</time>
      </trkpt>
      <trkpt lat="44.75615" lon="0.08322">
        <ele>75.608</ele>
        <time>2019-04-11T19:12:01Z</time>
      </trkpt>
      <trkpt lat="44.75708" lon="0.08336">
        <ele>73.221</ele>
        <time>2019-04-11T19:11:41Z</time>
      </trkpt>
      <trkpt lat="44.76016" lon="0.08518">
        <ele>62.801</ele>
        <time>2019-04-11T19:11:21Z</time>
      </trkpt>
      <trkpt lat="44.76055" lon="0.08514">
        <ele>65.139</ele>
        <time>2019-04-11T19:11:01Z</time>
      </trkpt>
      <trkpt lat="44.76113" lon="0.08406">
        <ele>62.993</ele>
        <time>2019-04-11T19:10:41Z</time>
      </trkpt>
      <trkpt lat="44.76144" lon="0.08398">
        <ele>64.425</ele>
        <time>2019-04-11T19:10:21Z</time>
      </trkpt>
      <trkpt lat="44.76306" lon="0.08582">
        <ele>77.89</ele>
        <time>2019-04-11T19:10:01Z</time>
      </trkpt>
      <trkpt lat="44.76229" lon="0.08587">
        <ele>79.165</ele>
        <time>2019-04-11T19:09:41Z</time>
      </trkpt>
      <trkpt lat="44.7614" lon="0.08649">
        <ele>76.194</ele>
        <time>2019-04-11T19:09:21Z</time>
      </trkpt>
      <trkpt lat="44.76034" lon="0.08783">
        <ele>79.035</ele>
        <time>2019-04-11T19:09:01Z</time>
      </trkpt>
      <trkpt lat="44.76032" lon="0.08822">
        <ele>79.659</ele>
        <time>2019-04-11T19:08:41Z</time>
      </trkpt>
      <trkpt lat="44.76076" lon="0.08996">
        <ele>87.027</ele>
        <time>2019-04-11T19:08:21Z</time>
      </trkpt>
      <trkpt lat="44.76043" lon="0.0922">
        <ele>84.508</ele>
        <time>2019-04-11T19:08:01Z</time>
      </trkpt>
      <trkpt lat="44.76067" lon="0.09332">
        <ele>89.015</ele>
        <time>2019-04-11T19:07:41Z</time>
      </trkpt>
      <trkpt lat="44.76151" lon="0.09547">
        <ele>98.905</ele>
        <time>2019-04-11T19:07:21Z</time>
      </trkpt>
      <trkpt lat="44.76224" lon="0.10089">
        <ele>106.844</ele>
        <time>2019-04-11T19:07:01Z</time>
      </trkpt>
      <trkpt lat="44.76307" lon="0.10292">
        <ele>106.24</ele>
        <time>2019-04-11T19:06:41Z</time>
      </trkpt>
      <trkpt lat="44.7632" lon="0.10481">
        <ele>105.732</ele>
        <time>2019-04-11T19:06:21Z</time>
      </trkpt>
      <trkpt lat="44.76373" lon="0.10649">
        <ele>105.367</ele>
        <time>2019-04-11T19:06:01Z</time>
      </trkpt>
      <trkpt lat="44.76431" lon="0.10713">
        <ele>104.872</ele>
        <time>2019-04-11T19:05:41Z</time>
      </trkpt>
      <trkpt lat="44.7664" lon="0.11068">
        <ele>101.991</ele>
        <time>2019-04-11T19:05:21Z</time>
      </trkpt>
      <trkpt lat="44.76708" lon="0.11245">
        <ele>99.682</ele>
        <time>2019-04-11T19:05:01Z</time>
      </trkpt>
      <trkpt lat="44.76771" lon="0.11335">
        <ele>100.286</ele>
        <time>2019-04-11T19:04:41Z</time>
      </trkpt>
      <trkpt lat="44.76881" lon="0.11437">
        <ele>97.064</ele>
        <time>2019-04-11T19:04:21Z</time>
      </trkpt>
      <trkpt lat="44.77043" lon="0.11643">
        <ele>95.908</ele>
        <time>2019-04-11T19:04:01Z</time>
      </trkpt>
      <trkpt lat="44.77088" lon="0.11667">
        <ele>96.011</ele>
        <time>2019-04-11T19:03:41Z</time>
      </trkpt>
      <trkpt lat="44.77125" lon="0.11701">
        <ele>96.065</ele>
        <time>2019-04-11T19:03:21Z</time>
      </trkpt>
      <trkpt lat="44.77213" lon="0.1183">
        <ele>96.215</ele>
        <time>2019-04-11T19:03:01Z</time>
      </trkpt>
      <trkpt lat="44.77275" lon="0.11966">
        <ele>96.291</ele>
        <time>2019-04-11T19:02:41Z</time>
      </trkpt>
      <trkpt lat="44.77316" lon="0.12087">
        <ele>93.593</ele>
        <time>2019-04-11T19:02:21Z</time>
      </trkpt>
      <trkpt lat="44.77441" lon="0.12174">
        <ele>89.958</ele>
        <time>2019-04-11T19:02:01Z</time>
      </trkpt>
      <trkpt lat="44.77471" lon="0.12172">
        <ele>88.343</ele>
        <time>2019-04-11T19:01:41Z</time>
      </trkpt>
      <trkpt lat="44.77582" lon="0.12089">
        <ele>81.322</ele>
        <time>2019-04-11T19:01:21Z</time>
      </trkpt>
      <trkpt lat="44.77614" lon="0.12087">
        <ele>76.363</ele>
        <time>2019-04-11T19:01:01Z</time>
      </trkpt>
      <trkpt lat="44.77625" lon="0.12129">
        <ele>74.467</ele>
        <time>2019-04-11T19:00:41Z</time>
      </trkpt>
      <trkpt lat="44.77603" lon="0.12173">
        <ele>73.125</ele>
        <time>2019-04-11T19:00:21Z</time>
      </trkpt>
      <trkpt lat="44.77605" lon="0.12206">
        <ele>72.508</ele>
        <time>2019-04-11T19:00:01Z</time>
      </trkpt>
      <trkpt lat="44.77682" lon="0.12309">
        <ele>62.608</ele>
        <time>2019-04-11T18:59:41Z</time>
      </trkpt>
      <trkpt lat="44.7765" lon="0.12622">
        <ele>59.126</ele>
        <time>2019-04-11T18:59:21Z</time>
      </trkpt>
      <trkpt lat="44.77673" lon="0.12723">
        <ele>52.725</ele>
        <time>2019-04-11T18:59:01Z</time>
      </trkpt>
      <trkpt lat="44.77733" lon="0.12835">
        <ele>54.662</ele>
        <time>2019-04-11T18:58:41Z</time>
      </trkpt>
      <trkpt lat="44.77782" lon="0.129">
        <ele>51.624</ele>
        <time>2019-04-11T18:58:21Z</time>
      </trkpt>
      <trkpt lat="44.77782" lon="0.12931">
        <ele>51.599</ele>
        <time>2019-04-11T18:58:01Z</time>
      </trkpt>
      <trkpt lat="44.7772" lon="0.12954">
        <ele>52.074</ele>
        <time>2019-04-11T18:57:41Z</time>
      </trkpt>
      <trkpt lat="44.77647" lon="0.13004">
        <ele>49.943</ele>
        <time>2019-04-11T18:57:21Z</time>
      </trkpt>
      <trkpt lat="44.77642" lon="0.13123">
        <ele>54.394</ele>
        <time>2019-04-11T18:57:01Z</time>
      </trkpt>
      <trkpt lat="44.77544" lon="0.13116">
        <ele>51.738</ele>
        <time>2019-04-11T18:56:41Z</time>
      </trkpt>
      <trkpt lat="44.77496" lon="0.13171">
        <ele>53.036</ele>
        <time>2019-04-11T18:56:21Z</time>
      </trkpt>
      <trkpt lat="44.77469" lon="0.13272">
        <ele>55.808</ele>
        <time>2019-04-11T18:56:01Z</time>
      </trkpt>
      <trkpt lat="44.77381" lon="0.13344">
        <ele>56.714</ele>
        <time>2019-04-11T18:55:41Z</time>
      </trkpt>
      <trkpt lat="44.77343" lon="0.13483">
        <ele>59.686</ele>
        <time>2019-04-11T18:55:21Z</time>
      </trkpt>
      <trkpt lat="44.7733" lon="0.13605">
        <ele>61.235</ele>
        <time>2019-04-11T18:55:01Z</time>
      </trkpt>
      <trkpt lat="44.77318" lon="0.13656">
        <ele>61.573</ele>
        <time>2019-04-11T18:54:41Z</time>
      </trkpt>
      <trkpt lat="44.77281" lon="0.13675">
        <ele>61.825</ele>
        <time>2019-04-11T18:54:21Z</time>
      </trkpt>
      <trkpt lat="44.77252" lon="0.13666">
        <ele>60.15</ele>
        <time>2019-04-11T18:54:01Z</time>
      </trkpt>
      <trkpt lat="44.7722" lon="0.13804">
        <ele>62.785</ele>
        <time>2019-04-11T18:53:41Z</time>
      </trkpt>
      <trkpt lat="44.77173" lon="0.13933">
        <ele>60.664</ele>
        <time>2019-04-11T18:53:21Z</time>
      </trkpt>
      <trkpt lat="44.77207" lon="0.13971">
        <ele>62.315</ele>
        <time>2019-04-11T18:53:01Z</time>
      </trkpt>
      <trkpt lat="44.77231" lon="0.13977">
        <ele>63.169</ele>
        <time>2019-04-11T18:52:41Z</time>
      </trkpt>
      <trkpt lat="44.7724" lon="0.13957">
        <ele>63.087</ele>
        <time>2019-04-11T18:52:21Z</time>
      </trkpt>
      <trkpt lat="44.77401" lon="0.13966">
        <ele>74.708</ele>
        <time>2019-04-11T18:52:01Z</time>
      </trkpt>
      <trkpt lat="44.77587" lon="0.13832">
        <ele>79.114</ele>
        <time>2019-04-11T18:51:41Z</time>
      </trkpt>
      <trkpt lat="44.77681" lon="0.13801">
        <ele>82.522</ele>
        <time>2019-04-11T18:51:21Z</time>
      </trkpt>
      <trkpt lat="44.77728" lon="0.13752">
        <ele>82.442</ele>
        <time>2019-04-11T18:51:01Z</time>
      </trkpt>
      <trkpt lat="44.77848" lon="0.13816">
        <ele>69.886</ele>
        <time>2019-04-11T18:50:41Z</time>
      </trkpt>
      <trkpt lat="44.77927" lon="0.13802">
        <ele>64.428</ele>
        <time>2019-04-11T18:50:21Z</time>
      </trkpt>
      <trkpt lat="44.78023" lon="0.13699">
        <ele>63.453</ele>
        <time>2019-04-11T18:50:01Z</time>
      </trkpt>
      <trkpt lat="44.78034" lon="0.13619">
        <ele>63.378</ele>
        <time>2019-04-11T18:49:41Z</time>
      </trkpt>
      <trkpt lat="44.7813" lon="0.13377">
        <ele>68.437</ele>
        <time>2019-04-11T18:49:21Z</time>
      </trkpt>
      <trkpt lat="44.78145" lon="0.13246">
        <ele>71.568</ele>
        <time>2019-04-11T18:49:01Z</time>
      </trkpt>
      <trkpt lat="44.78158" lon="0.13203">
        <ele>72.042</ele>
        <time>2019-04-11T18:48:41Z</time>
      </trkpt>
      <trkpt lat="44.78252" lon="0.13147">
        <ele>84.11</ele>
        <time>2019-04-11T18:48:21Z</time>
      </trkpt>
      <trkpt lat="44.78352" lon="0.1314">
        <ele>89.208</ele>
        <time>2019-04-11T18:48:01Z</time>
      </trkpt>
      <trkpt lat="44.78418" lon="0.13356">
        <ele>92.221</ele>
        <time>2019-04-11T18:47:41Z</time>
      </trkpt>
      <trkpt lat="44.78597" lon="0.13541">
        <ele>97.256</ele>
        <time>2019-04-11T18:47:21Z</time>
      </trkpt>
      <trkpt lat="44.78702" lon="0.13747">
        <ele>96.274</ele>
        <time>2019-04-11T18:47:01Z</time>
      </trkpt>
      <trkpt lat="44.7882" lon="0.1406">
        <ele>102.722</ele>
        <time>2019-04-11T18:46:41Z</time>
      </trkpt>
      <trkpt lat="44.78976" lon="0.1425">
        <ele>108.684</ele>
        <time>2019-04-11T18:46:21Z</time>
      </trkpt>
      <trkpt lat="44.79085" lon="0.1432">
        <ele>102.639</ele>
        <time>2019-04-11T18:46:01Z</time>
      </trkpt>
      <trkpt lat="44.79242" lon="0.14306">
        <ele>101.654</ele>
        <time>2019-04-11T18:45:41Z</time>
      </trkpt>
      <trkpt lat="44.79388" lon="0.14233">
        <ele>102.963</ele>
        <time>2019-04-11T18:45:21Z</time>
      </trkpt>
      <trkpt lat="44.79457" lon="0.14231">
        <ele>104.794</ele>
        <time>2019-04-11T18:45:01Z</time>
      </trkpt>
      <trkpt lat="44.79678" lon="0.14447">
        <ele>104.528</ele>
        <time>2019-04-11T18:44:41Z</time>
      </trkpt>
      <trkpt lat="44.7975" lon="0.1456">
        <ele>109.576</ele>
        <time>2019-04-11T18:44:21Z</time>
      </trkpt>
      <trkpt lat="44.7976" lon="0.14639">
        <ele>107.808</ele>
        <time>2019-04-11T18:44:01Z</time>
      </trkpt>
      <trkpt lat="44.80103" lon="0.15066">
        <ele>94.211</ele>
        <time>2019-04-11T18:43:41Z</time>
      </trkpt>
      <trkpt lat="44.80252" lon="0.15198">
        <ele>91.892</ele>
        <time>2019-04-11T18:43:21Z</time>
      </trkpt>
      <trkpt lat="44.80346" lon="0.15268">
        <ele>91.332</ele>
        <time>2019-04-11T18:43:01Z</time>
      </trkpt>
      <trkpt lat="44.80414" lon="0.15333">
        <ele>90.152</ele>
        <time>2019-04-11T18:42:41Z</time>
      </trkpt>
      <trkpt lat="44.80483" lon="0.15374">
        <ele>90.284</ele>
        <time>2019-04-11T18:42:21Z</time>
      </trkpt>
      <trkpt lat="44.80465" lon="0.15444">
        <ele>90.199</ele>
        <time>2019-04-11T18:42:01Z</time>
      </trkpt>
      <trkpt lat="44.80454" lon="0.15615">
        <ele>79.814</ele>
        <time>2019-04-11T18:41:41Z</time>
      </trkpt>
      <trkpt lat="44.8047" lon="0.15676">
        <ele>76.053</ele>
        <time>2019-04-11T18:41:21Z</time>
      </trkpt>
      <trkpt lat="44.8046" lon="0.15896">
        <ele>70.984</ele>
        <time>2019-04-11T18:41:01Z</time>
      </trkpt>
      <trkpt lat="44.80438" lon="0.16047">
        <ele>67.828</ele>
        <time>2019-04-11T18:40:41Z</time>
      </trkpt>
      <trkpt lat="44.80414" lon="0.16108">
        <ele>66.486</ele>
        <time>2019-04-11T18:40:21Z</time>
      </trkpt>
      <trkpt lat="44.80403" lon="0.16199">
        <ele>60.808</ele>
        <time>2019-04-11T18:40:01Z</time>
      </trkpt>
      <trkpt lat="44.80362" lon="0.16173">
        <ele>60.821</ele>
        <time>2019-04-11T18:39:41Z</time>
      </trkpt>
      <trkpt lat="44.80294" lon="0.16347">
        <ele>44.401</ele>
        <time>2019-04-11T18:39:21Z</time>
      </trkpt>
      <trkpt lat="44.80253" lon="0.16354">
        <ele>44.239</ele>
        <time>2019-04-11T18:39:01Z</time>
      </trkpt>
      <trkpt lat="44.80221" lon="0.16427">
        <ele>38.032</ele>
        <time>2019-04-11T18:38:41Z</time>
      </trkpt>
      <trkpt lat="44.80274" lon="0.16429">
        <ele>37.884</ele>
        <time>2019-04-11T18:38:21Z</time>
      </trkpt>
      <trkpt lat="44.80351" lon="0.16481">
        <ele>38.349</ele>
        <time>2019-04-11T18:38:01Z</time>
      </trkpt>
      <trkpt lat="44.80436" lon="0.16511">
        <ele>35.054</ele>
        <time>2019-04-11T18:37:41Z</time>
      </trkpt>
      <trkpt lat="44.8048" lon="0.16499">
        <ele>37.863</ele>
        <time>2019-04-11T18:37:21Z</time>
      </trkpt>
      <trkpt lat="44.80613" lon="0.16359">
        <ele>38.174</ele>
        <time>2019-04-11T18:37:01Z</time>
      </trkpt>
      <trkpt lat="44.80722" lon="0.16382">
        <ele>37.578</ele>
        <time>2019-04-11T18:36:41Z</time>
      </trkpt>
      <trkpt lat="44.80833" lon="0.16389">
        <ele>38.126</ele>
        <time>2019-04-11T18:36:21Z</time>
      </trkpt>
      <trkpt lat="44.80929" lon="0.16434">
        <ele>34.808</ele>
        <time>2019-04-11T18:36:01Z</time>
      </trkpt>
      <trkpt lat="44.81011" lon="0.16445">
        <ele>33.607</ele>
        <time>2019-04-11T18:35:41Z</time>
      </trkpt>
      <trkpt lat="44.81282" lon="0.16392">
        <ele>31.361</ele>
        <time>2019-04-11T18:35:21Z</time>
      </trkpt>
      <trkpt lat="44.81296" lon="0.16462">
        <ele>29.031</ele>
        <time>2019-04-11T18:35:01Z</time>
      </trkpt>
      <trkpt lat="44.81324" lon="0.16528">
        <ele>30.183</ele>
        <time>2019-04-11T18:34:41Z</time>
      </trkpt>
      <trkpt lat="44.81335" lon="0.1657">
        <ele>32.315</ele>
        <time>2019-04-11T18:34:21Z</time>
      </trkpt>
      <trkpt lat="44.81308" lon="0.16664">
        <ele>37.18</ele>
        <time>2019-04-11T18:34:01Z</time>
      </trkpt>
      <trkpt lat="44.81339" lon="0.1668">
        <ele>41.945</ele>
        <time>2019-04-11T18:33:41Z</time>
      </trkpt>
      <trkpt lat="44.81345" lon="0.16727">
        <ele>45.464</ele>
        <time>2019-04-11T18:33:21Z</time>
      </trkpt>
      <trkpt lat="44.81342" lon="0.16821">
        <ele>49.735</ele>
        <time>2019-04-11T18:33:01Z</time>
      </trkpt>
      <trkpt lat="44.81279" lon="0.16962">
        <ele>56.719</ele>
        <time>2019-04-11T18:32:41Z</time>
      </trkpt>
      <trkpt lat="44.81271" lon="0.17281">
        <ele>72.577</ele>
        <time>2019-04-11T18:32:21Z</time>
      </trkpt>
      <trkpt lat="44.81259" lon="0.17551">
        <ele>81.508</ele>
        <time>2019-04-11T18:32:01Z</time>
      </trkpt>
      <trkpt lat="44.81232" lon="0.17673">
        <ele>86.022</ele>
        <time>2019-04-11T18:31:41Z</time>
      </trkpt>
      <trkpt lat="44.81131" lon="0.17879">
        <ele>94.602</ele>
        <time>2019-04-11T18:31:21Z</time>
      </trkpt>
      <trkpt lat="44.81076" lon="0.1798">
        <ele>96.149</ele>
        <time>2019-04-11T18:31:01Z</time>
      </trkpt>
      <trkpt lat="44.81098" lon="0.18029">
        <ele>98.468</ele>
        <time>2019-04-11T18:30:41Z</time>
      </trkpt>
      <trkpt lat="44.81149" lon="0.18222">
        <ele>96.16</ele>
        <time>2019-04-11T18:30:21Z</time>
      </trkpt>
      <trkpt lat="44.81193" lon="0.18177">
        <ele>96.145</ele>
        <time>2019-04-11T18:30:01Z</time>
      </trkpt>
      <trkpt lat="44.81303" lon="0.18104">
        <ele>97.26</ele>
        <time>2019-04-11T18:29:41Z</time>
      </trkpt>
      <trkpt lat="44.81438" lon="0.18123">
        <ele>100.459</ele>
        <time>2019-04-11T18:29:21Z</time>
      </trkpt>
      <trkpt lat="44.81466" lon="0.18165">
        <ele>101.82</ele>
        <time>2019-04-11T18:29:01Z</time>
      </trkpt>
      <trkpt lat="44.81523" lon="0.18186">
        <ele>105.834</ele>
        <time>2019-04-11T18:28:41Z</time>
      </trkpt>
      <trkpt lat="44.81542" lon="0.18184">
        <ele>106.252</ele>
        <time>2019-04-11T18:28:21Z</time>
      </trkpt>
      <trkpt lat="44.81583" lon="0.18205">
        <ele>107.008</ele>
        <time>2019-04-11T18:28:01Z</time>
      </trkpt>
      <trkpt lat="44.8164" lon="0.18174">
        <ele>103.525</ele>
        <time>2019-04-11T18:27:41Z</time>
      </trkpt>
      <trkpt lat="44.81637" lon="0.18158">
        <ele>102.023</ele>
        <time>2019-04-11T18:27:21Z</time>
      </trkpt>
      <trkpt lat="44.81764" lon="0.18123">
        <ele>101.297</ele>
        <time>2019-04-11T18:27:01Z</time>
      </trkpt>
      <trkpt lat="44.81798" lon="0.18104">
        <ele>101.781</ele>
        <time>2019-04-11T18:26:41Z</time>
      </trkpt>
      <trkpt lat="44.81855" lon="0.18085">
        <ele>104.043</ele>
        <time>2019-04-11T18:26:21Z</time>
      </trkpt>
      <trkpt lat="44.81912" lon="0.18109">
        <ele>105.518</ele>
        <time>2019-04-11T18:26:01Z</time>
      </trkpt>
      <trkpt lat="44.81926" lon="0.18133">
        <ele>106.763</ele>
        <time>2019-04-11T18:25:41Z</time>
      </trkpt>
      <trkpt lat="44.82039" lon="0.18231">
        <ele>102.842</ele>
        <time>2019-04-11T18:25:21Z</time>
      </trkpt>
      <trkpt lat="44.81999" lon="0.18372">
        <ele>94.783</ele>
        <time>2019-04-11T18:25:01Z</time>
      </trkpt>
      <trkpt lat="44.8192" lon="0.18545">
        <ele>79.877</ele>
        <time>2019-04-11T18:24:41Z</time>
      </trkpt>
      <trkpt lat="44.81837" lon="0.18635">
        <ele>76.825</ele>
        <time>2019-04-11T18:24:21Z</time>
      </trkpt>
      <trkpt lat="44.81782" lon="0.18644">
        <ele>77.508</ele>
        <time>2019-04-11T18:24:01Z</time>
      </trkpt>
      <trkpt lat="44.81732" lon="0.18714">
        <ele>76.905</ele>
        <time>2019-04-11T18:23:41Z</time>
      </trkpt>
      <trkpt lat="44.81743" lon="0.18754">
        <ele>73.941</ele>
        <time>2019-04-11T18:23:21Z</time>
      </trkpt>
      <trkpt lat="44.81721" lon="0.18852">
        <ele>64.221</ele>
        <time>2019-04-11T18:23:01Z</time>
      </trkpt>
      <trkpt lat="44.81769" lon="0.19097">
        <ele>50.468</ele>
        <time>2019-04-11T18:22:41Z</time>
      </trkpt>
      <trkpt lat="44.81778" lon="0.19256">
        <ele>37.55</ele>
        <time>2019-04-11T18:22:21Z</time>
      </trkpt>
      <trkpt lat="44.81821" lon="0.19359">
        <ele>34.325</ele>
        <time>2019-04-11T18:22:01Z</time>
      </trkpt>
      <trkpt lat="44.81895" lon="0.19421">
        <ele>22.51</ele>
        <time>2019-04-11T18:21:41Z</time>
      </trkpt>
      <trkpt lat="44.81934" lon="0.19408">
        <ele>19.469</ele>
        <time>2019-04-11T18:21:21Z</time>
      </trkpt>
      <trkpt lat="44.82007" lon="0.19397">
        <ele>18.34</ele>
        <time>2019-04-11T18:21:01Z</time>
      </trkpt>
      <trkpt lat="44.82086" lon="0.19421">
        <ele>16.764</ele>
        <time>2019-04-11T18:20:41Z</time>
      </trkpt>
      <trkpt lat="44.82548" lon="0.19838">
        <ele>16.6</ele>
      </trkpt>
      <trkpt lat="44.83071" lon="0.20296">
        <ele>17</ele>
      </trkpt>
      <trkpt lat="44.8354" lon="0.20722">
        <ele>17</ele>
      </trkpt>
      <trkpt lat="44.8407" lon="0.21187">
        <ele>18.922</ele>
        <time>2019-04-11T18:20:21Z</time>
      </trkpt>
    </trkseg>
  </trk>
  <trk>
    <name><![CDATA[saussignac]]></name>
    <extensions>
      <line xmlns="http://www.topografix.com/GPX/gpx_style/0/2">
        <color>fb00ff</color>
        <width>4</width>
      </line>
    </extensions>
    <trkseg>
      <trkpt lat="44.8407" lon="0.21187">
        <ele>18.922</ele>
        <time>2019-04-11T18:20:21Z</time>
      </trkpt>
      <trkpt lat="44.8407" lon="0.21187">
        <ele>18.922</ele>
        <time>2019-04-11T18:20:21Z</time>
      </trkpt>
      <trkpt lat="44.8407" lon="0.21187">
        <ele>18.922</ele>
        <time>2019-04-11T18:20:21Z</time>
      </trkpt>
      <trkpt lat="44.8407" lon="0.21187">
        <ele>18.922</ele>
        <time>2019-04-11T18:20:21Z</time>
      </trkpt>
      <trkpt lat="44.8407" lon="0.21187">
        <ele>18.922</ele>
        <time>2019-04-11T18:20:21Z</time>
      </trkpt>
      <trkpt lat="44.8407" lon="0.21187">
        <ele>18.922</ele>
        <time>2019-04-11T18:20:21Z</time>
      </trkpt>
      <trkpt lat="44.8407" lon="0.21187">
        <ele>18.922</ele>
        <time>2019-04-11T18:20:21Z</time>
      </trkpt>
      <trkpt lat="44.8407" lon="0.21187">
        <ele>18.922</ele>
        <time>2019-04-11T18:20:21Z</time>
      </trkpt>
      <trkpt lat="44.8407" lon="0.21187">
        <ele>18.922</ele>
        <time>2019-04-11T18:20:21Z</time>
      </trkpt>
      <trkpt lat="44.8407" lon="0.21187">
        <ele>18.922</ele>
        <time>2019-04-11T18:20:21Z</time>
      </trkpt>
      <trkpt lat="44.84107" lon="0.2125">
        <ele>19.208</ele>
        <time>2019-04-11T18:20:01Z</time>
      </trkpt>
      <trkpt lat="44.84117" lon="0.21335">
        <ele>20.224</ele>
        <time>2019-04-11T18:19:41Z</time>
      </trkpt>
      <trkpt lat="44.8403" lon="0.21415">
        <ele>18.531</ele>
        <time>2019-04-11T18:19:21Z</time>
      </trkpt>
      <trkpt lat="44.8382" lon="0.21513">
        <ele>19.696</ele>
        <time>2019-04-11T18:19:01Z</time>
      </trkpt>
      <trkpt lat="44.83873" lon="0.21806">
        <ele>20.312</ele>
        <time>2019-04-11T18:18:41Z</time>
      </trkpt>
      <trkpt lat="44.83777" lon="0.2182">
        <ele>20.744</ele>
        <time>2019-04-11T18:18:21Z</time>
      </trkpt>
      <trkpt lat="44.83714" lon="0.21882">
        <ele>20.239</ele>
        <time>2019-04-11T18:18:01Z</time>
      </trkpt>
      <trkpt lat="44.83615" lon="0.21891">
        <ele>19.614</ele>
        <time>2019-04-11T18:17:41Z</time>
      </trkpt>
      <trkpt lat="44.83569" lon="0.2186">
        <ele>19.683</ele>
        <time>2019-04-11T18:17:21Z</time>
      </trkpt>
      <trkpt lat="44.83484" lon="0.21994">
        <ele>19.094</ele>
        <time>2019-04-11T18:17:01Z</time>
      </trkpt>
      <trkpt lat="44.8336" lon="0.22102">
        <ele>18.398</ele>
        <time>2019-04-11T18:16:41Z</time>
      </trkpt>
      <trkpt lat="44.83315" lon="0.22158">
        <ele>19.056</ele>
        <time>2019-04-11T18:16:21Z</time>
      </trkpt>
      <trkpt lat="44.83221" lon="0.22339">
        <ele>18.808</ele>
        <time>2019-04-11T18:16:01Z</time>
      </trkpt>
      <trkpt lat="44.83056" lon="0.22592">
        <ele>19.711</ele>
        <time>2019-04-11T18:15:41Z</time>
      </trkpt>
      <trkpt lat="44.82988" lon="0.22689">
        <ele>20.092</ele>
        <time>2019-04-11T18:15:21Z</time>
      </trkpt>
      <trkpt lat="44.82988" lon="0.22689">
        <ele>20.092</ele>
        <time>2019-04-11T18:15:21Z</time>
      </trkpt>
      <trkpt lat="44.82988" lon="0.22689">
        <ele>20.092</ele>
        <time>2019-04-11T18:15:21Z</time>
      </trkpt>
      <trkpt lat="44.82988" lon="0.22689">
        <ele>20.092</ele>
        <time>2019-04-11T18:15:21Z</time>
      </trkpt>
      <trkpt lat="44.82493" lon="0.23562">
        <ele>26.6</ele>
      </trkpt>
      <trkpt lat="44.8244" lon="0.23597">
        <ele>30</ele>
      </trkpt>
      <trkpt lat="44.82429" lon="0.2361">
        <ele>31.669</ele>
        <time>2017-03-29T10:21:52Z</time>
      </trkpt>
      <trkpt lat="44.82413" lon="0.23661">
        <ele>35.004</ele>
        <time>2020-11-25T01:39:40Z</time>
      </trkpt>
      <trkpt lat="44.82348" lon="0.23735">
        <ele>45.424</ele>
        <time>2020-11-25T01:40:00Z</time>
      </trkpt>
      <trkpt lat="44.82347" lon="0.23748">
        <ele>47.208</ele>
        <time>2020-11-25T01:40:20Z</time>
      </trkpt>
      <trkpt lat="44.82306" lon="0.23782">
        <ele>53.172</ele>
        <time>2020-11-25T01:40:40Z</time>
      </trkpt>
      <trkpt lat="44.82314" lon="0.23793">
        <ele>55.957</ele>
        <time>2020-11-25T01:41:00Z</time>
      </trkpt>
      <trkpt lat="44.82351" lon="0.238">
        <ele>57.337</ele>
        <time>2020-11-25T01:41:20Z</time>
      </trkpt>
      <trkpt lat="44.82359" lon="0.23821">
        <ele>61.029</ele>
        <time>2020-11-25T01:41:40Z</time>
      </trkpt>
      <trkpt lat="44.82318" lon="0.23829">
        <ele>64.861</ele>
        <time>2017-03-29T10:22:52Z</time>
      </trkpt>
      <trkpt lat="44.8236" lon="0.23858">
        <ele>66.752</ele>
        <time>2017-03-29T10:23:12Z</time>
      </trkpt>
      <trkpt lat="44.82366" lon="0.23875">
        <ele>66.718</ele>
        <time>2017-03-29T10:23:32Z</time>
      </trkpt>
      <trkpt lat="44.82332" lon="0.23879">
        <ele>73.69</ele>
        <time>2017-03-29T10:23:52Z</time>
      </trkpt>
      <trkpt lat="44.82325" lon="0.23959">
        <ele>84.591</ele>
        <time>2017-03-29T10:24:12Z</time>
      </trkpt>
      <trkpt lat="44.82334" lon="0.24078">
        <ele>91.481</ele>
        <time>2017-03-29T10:24:32Z</time>
      </trkpt>
      <trkpt lat="44.8235" lon="0.24147">
        <ele>93.119</ele>
        <time>2017-03-29T10:24:52Z</time>
      </trkpt>
      <trkpt lat="44.82351" lon="0.24176">
        <ele>93.608</ele>
        <time>2020-11-25T01:44:20Z</time>
      </trkpt>
      <trkpt lat="44.82375" lon="0.24188">
        <ele>91.375</ele>
        <time>2020-11-25T01:44:40Z</time>
      </trkpt>
      <trkpt lat="44.82368" lon="0.24306">
        <ele>93.34</ele>
        <time>2020-11-25T01:45:00Z</time>
      </trkpt>
      <trkpt lat="44.82333" lon="0.24481">
        <ele>98.08</ele>
        <time>2020-11-25T01:45:20Z</time>
      </trkpt>
      <trkpt lat="44.82336" lon="0.24517">
        <ele>97.812</ele>
        <time>2020-11-25T01:45:40Z</time>
      </trkpt>
      <trkpt lat="44.82298" lon="0.24678">
        <ele>103.824</ele>
        <time>2020-11-25T01:46:00Z</time>
      </trkpt>
      <trkpt lat="44.82222" lon="0.24637">
        <ele>99.885</ele>
        <time>2020-11-25T01:46:20Z</time>
      </trkpt>
      <trkpt lat="44.82186" lon="0.24689">
        <ele>100.711</ele>
        <time>2017-03-29T10:27:32Z</time>
      </trkpt>
      <trkpt lat="44.8215" lon="0.24812">
        <ele>108.483</ele>
        <time>2017-03-29T10:27:52Z</time>
      </trkpt>
      <trkpt lat="44.82135" lon="0.24848">
        <ele>109.213</ele>
        <time>2017-03-29T10:28:12Z</time>
      </trkpt>
      <trkpt lat="44.82112" lon="0.24872">
        <ele>108.543</ele>
        <time>2017-03-29T10:28:32Z</time>
      </trkpt>
      <trkpt lat="44.82078" lon="0.24926">
        <ele>108.107</ele>
        <time>2017-03-29T10:28:52Z</time>
      </trkpt>
      <trkpt lat="44.82057" lon="0.24965">
        <ele>109.708</ele>
        <time>2017-03-29T10:29:12Z</time>
      </trkpt>
      <trkpt lat="44.81953" lon="0.2509">
        <ele>112.217</ele>
        <time>2017-03-29T10:29:32Z</time>
      </trkpt>
      <trkpt lat="44.82019" lon="0.25149">
        <ele>109.752</ele>
        <time>2020-11-25T01:49:00Z</time>
      </trkpt>
      <trkpt lat="44.82058" lon="0.25211">
        <ele>99.212</ele>
        <time>2020-11-25T01:49:20Z</time>
      </trkpt>
      <trkpt lat="44.82091" lon="0.25197">
        <ele>88.144</ele>
        <time>2020-11-25T01:49:40Z</time>
      </trkpt>
      <trkpt lat="44.82121" lon="0.25236">
        <ele>77.186</ele>
        <time>2020-11-25T01:50:00Z</time>
      </trkpt>
      <trkpt lat="44.82165" lon="0.25217">
        <ele>67.097</ele>
        <time>2020-11-25T01:50:20Z</time>
      </trkpt>
      <trkpt lat="44.82244" lon="0.25316">
        <ele>49.493</ele>
        <time>2020-11-25T01:50:40Z</time>
      </trkpt>
      <trkpt lat="44.82316" lon="0.25297">
        <ele>41.485</ele>
        <time>2020-11-25T01:51:00Z</time>
      </trkpt>
      <trkpt lat="44.82437" lon="0.25428">
        <ele>29.791</ele>
        <time>2020-11-25T01:51:20Z</time>
      </trkpt>
      <trkpt lat="44.82349" lon="0.25556">
        <ele>30.481</ele>
        <time>2020-11-25T01:51:40Z</time>
      </trkpt>
      <trkpt lat="44.82273" lon="0.25631">
        <ele>30.019</ele>
        <time>2020-11-25T01:52:00Z</time>
      </trkpt>
      <trkpt lat="44.82207" lon="0.25543">
        <ele>37.308</ele>
        <time>2020-11-25T01:52:20Z</time>
      </trkpt>
      <trkpt lat="44.82131" lon="0.25658">
        <ele>36.545</ele>
        <time>2020-11-25T01:52:40Z</time>
      </trkpt>
      <trkpt lat="44.81958" lon="0.25841">
        <ele>38.54</ele>
        <time>2020-11-25T01:53:00Z</time>
      </trkpt>
      <trkpt lat="44.81871" lon="0.25975">
        <ele>40.86</ele>
        <time>2020-11-25T01:53:20Z</time>
      </trkpt>
      <trkpt lat="44.81878" lon="0.26013">
        <ele>38.212</ele>
        <time>2020-11-25T01:53:40Z</time>
      </trkpt>
      <trkpt lat="44.8172" lon="0.26071">
        <ele>43.014</ele>
        <time>2020-11-25T01:54:00Z</time>
      </trkpt>
      <trkpt lat="44.81648" lon="0.26118">
        <ele>42.495</ele>
        <time>2020-11-25T01:54:20Z</time>
      </trkpt>
      <trkpt lat="44.81489" lon="0.26173">
        <ele>43.641</ele>
        <time>2020-11-25T01:54:40Z</time>
      </trkpt>
      <trkpt lat="44.81427" lon="0.26118">
        <ele>50.823</ele>
        <time>2020-11-25T01:55:00Z</time>
      </trkpt>
      <trkpt lat="44.8138" lon="0.26105">
        <ele>52.941</ele>
        <time>2020-11-25T01:55:20Z</time>
      </trkpt>
      <trkpt lat="44.81292" lon="0.26107">
        <ele>53.881</ele>
        <time>2020-11-25T01:55:40Z</time>
      </trkpt>
      <trkpt lat="44.81242" lon="0.2609">
        <ele>51.909</ele>
        <time>2017-03-29T10:35:12Z</time>
      </trkpt>
      <trkpt lat="44.81191" lon="0.26128">
        <ele>51.108</ele>
        <time>2017-03-29T10:35:32Z</time>
      </trkpt>
      <trkpt lat="44.81205" lon="0.26307">
        <ele>40.38</ele>
        <time>2017-03-29T10:35:52Z</time>
      </trkpt>
      <trkpt lat="44.81232" lon="0.26461">
        <ele>35.685</ele>
        <time>2017-03-29T10:36:12Z</time>
      </trkpt>
      <trkpt lat="44.81269" lon="0.26581">
        <ele>34.015</ele>
        <time>2017-03-29T10:36:32Z</time>
      </trkpt>
      <trkpt lat="44.81285" lon="0.26756">
        <ele>39.027</ele>
        <time>2017-03-29T10:36:52Z</time>
      </trkpt>
      <trkpt lat="44.81323" lon="0.26713">
        <ele>38.949</ele>
        <time>2017-03-29T10:37:12Z</time>
      </trkpt>
      <trkpt lat="44.81386" lon="0.26678">
        <ele>37.34</ele>
        <time>2017-03-29T10:37:32Z</time>
      </trkpt>
      <trkpt lat="44.81485" lon="0.26675">
        <ele>36.496</ele>
        <time>2017-03-29T10:37:52Z</time>
      </trkpt>
      <trkpt lat="44.8158" lon="0.26708">
        <ele>34.278</ele>
        <time>2017-03-29T10:38:12Z</time>
      </trkpt>
      <trkpt lat="44.8164" lon="0.26744">
        <ele>34.539</ele>
        <time>2017-03-29T10:38:32Z</time>
      </trkpt>
      <trkpt lat="44.81688" lon="0.26752">
        <ele>33.401</ele>
        <time>2017-03-29T10:38:52Z</time>
      </trkpt>
      <trkpt lat="44.8171" lon="0.26732">
        <ele>32.621</ele>
        <time>2017-03-29T10:39:12Z</time>
      </trkpt>
      <trkpt lat="44.81741" lon="0.26772">
        <ele>34.208</ele>
        <time>2017-03-29T10:39:32Z</time>
      </trkpt>
      <trkpt lat="44.819" lon="0.26852">
        <ele>32.369</ele>
        <time>2017-03-29T10:39:52Z</time>
      </trkpt>
      <trkpt lat="44.82016" lon="0.26792">
        <ele>33.854</ele>
        <time>2017-03-29T10:40:12Z</time>
      </trkpt>
      <trkpt lat="44.82007" lon="0.26827">
        <ele>34.874</ele>
        <time>2017-03-29T10:40:32Z</time>
      </trkpt>
      <trkpt lat="44.81972" lon="0.26875">
        <ele>35.046</ele>
        <time>2017-03-29T10:40:52Z</time>
      </trkpt>
      <trkpt lat="44.81924" lon="0.26997">
        <ele>42.178</ele>
        <time>2017-03-29T10:41:12Z</time>
      </trkpt>
      <trkpt lat="44.81921" lon="0.27051">
        <ele>45.629</ele>
        <time>2017-03-29T10:41:32Z</time>
      </trkpt>
      <trkpt lat="44.81902" lon="0.27108">
        <ele>47.615</ele>
        <time>2017-03-29T10:41:52Z</time>
      </trkpt>
      <trkpt lat="44.8185" lon="0.27347">
        <ele>68.117</ele>
        <time>2017-03-29T10:42:12Z</time>
      </trkpt>
      <trkpt lat="44.81821" lon="0.27448">
        <ele>75.257</ele>
        <time>2017-03-29T10:42:32Z</time>
      </trkpt>
      <trkpt lat="44.81822" lon="0.275">
        <ele>77.9</ele>
        <time>2017-03-29T10:42:52Z</time>
      </trkpt>
      <trkpt lat="44.8186" lon="0.27582">
        <ele>79.02</ele>
        <time>2017-03-29T10:43:12Z</time>
      </trkpt>
      <trkpt lat="44.81911" lon="0.2765">
        <ele>84.508</ele>
        <time>2017-03-29T10:43:32Z</time>
      </trkpt>
      <trkpt lat="44.81929" lon="0.27699">
        <ele>87.181</ele>
        <time>2017-03-29T10:43:52Z</time>
      </trkpt>
      <trkpt lat="44.81919" lon="0.27765">
        <ele>90.596</ele>
        <time>2017-03-29T10:44:12Z</time>
      </trkpt>
      <trkpt lat="44.81906" lon="0.27791">
        <ele>91.326</ele>
        <time>2017-03-29T10:44:32Z</time>
      </trkpt>
      <trkpt lat="44.81881" lon="0.2788">
        <ele>90.728</ele>
        <time>2017-03-29T10:44:52Z</time>
      </trkpt>
      <trkpt lat="44.81926" lon="0.27952">
        <ele>95.64</ele>
        <time>2017-03-29T10:45:12Z</time>
      </trkpt>
      <trkpt lat="44.81872" lon="0.28037">
        <ele>94.771</ele>
        <time>2017-03-29T10:45:32Z</time>
      </trkpt>
      <trkpt lat="44.81814" lon="0.28151">
        <ele>95.097</ele>
        <time>2017-03-29T10:45:52Z</time>
      </trkpt>
      <trkpt lat="44.81743" lon="0.2832">
        <ele>95.399</ele>
        <time>2017-03-29T10:46:12Z</time>
      </trkpt>
      <trkpt lat="44.81805" lon="0.28356">
        <ele>99.836</ele>
        <time>2017-03-29T10:46:32Z</time>
      </trkpt>
      <trkpt lat="44.81865" lon="0.28373">
        <ele>101.417</ele>
        <time>2017-03-29T10:46:52Z</time>
      </trkpt>
      <trkpt lat="44.81842" lon="0.28435">
        <ele>102.718</ele>
        <time>2017-03-29T10:47:12Z</time>
      </trkpt>
      <trkpt lat="44.81794" lon="0.28718">
        <ele>110.408</ele>
        <time>2017-03-29T10:47:32Z</time>
      </trkpt>
      <trkpt lat="44.81749" lon="0.28715">
        <ele>111.759</ele>
        <time>2017-03-29T10:47:52Z</time>
      </trkpt>
      <trkpt lat="44.81651" lon="0.28722">
        <ele>109.954</ele>
        <time>2017-03-29T10:48:12Z</time>
      </trkpt>
      <trkpt lat="44.81619" lon="0.28703">
        <ele>105.634</ele>
        <time>2017-03-29T10:48:32Z</time>
      </trkpt>
      <trkpt lat="44.81435" lon="0.28492">
        <ele>93.416</ele>
        <time>2017-03-29T10:48:52Z</time>
      </trkpt>
      <trkpt lat="44.8141" lon="0.28485">
        <ele>92.258</ele>
        <time>2017-03-29T10:49:12Z</time>
      </trkpt>
      <trkpt lat="44.81278" lon="0.28503">
        <ele>88.029</ele>
        <time>2017-03-29T10:49:32Z</time>
      </trkpt>
      <trkpt lat="44.81009" lon="0.2848">
        <ele>95.065</ele>
        <time>2017-03-29T10:49:52Z</time>
      </trkpt>
      <trkpt lat="44.8099" lon="0.28474">
        <ele>96.887</ele>
        <time>2017-03-29T10:50:12Z</time>
      </trkpt>
      <trkpt lat="44.80964" lon="0.28735">
        <ele>104.383</ele>
        <time>2017-03-29T10:50:32Z</time>
      </trkpt>
      <trkpt lat="44.80963" lon="0.28822">
        <ele>109.425</ele>
        <time>2017-03-29T10:50:52Z</time>
      </trkpt>
      <trkpt lat="44.80892" lon="0.28996">
        <ele>118.817</ele>
        <time>2017-03-29T10:51:12Z</time>
      </trkpt>
      <trkpt lat="44.80866" lon="0.29076">
        <ele>120.408</ele>
        <time>2017-03-29T10:51:32Z</time>
      </trkpt>
      <trkpt lat="44.80856" lon="0.29096">
        <ele>120.934</ele>
        <time>2017-03-29T10:51:52Z</time>
      </trkpt>
      <trkpt lat="44.80842" lon="0.29137">
        <ele>120.049</ele>
        <time>2017-03-29T10:52:12Z</time>
      </trkpt>
      <trkpt lat="44.80834" lon="0.2917">
        <ele>119.239</ele>
        <time>2017-03-29T10:52:32Z</time>
      </trkpt>
      <trkpt lat="44.80797" lon="0.29262">
        <ele>125.691</ele>
        <time>2017-03-29T10:52:52Z</time>
      </trkpt>
      <trkpt lat="44.80782" lon="0.29309">
        <ele>126.163</ele>
        <time>2017-03-29T10:53:12Z</time>
      </trkpt>
      <trkpt lat="44.80714" lon="0.29468">
        <ele>127.564</ele>
        <time>2017-03-29T10:53:32Z</time>
      </trkpt>
      <trkpt lat="44.80647" lon="0.29391">
        <ele>125.57</ele>
        <time>2017-03-29T10:53:52Z</time>
      </trkpt>
      <trkpt lat="44.80635" lon="0.29314">
        <ele>120.332</ele>
        <time>2017-03-29T10:54:12Z</time>
      </trkpt>
      <trkpt lat="44.8059" lon="0.29164">
        <ele>111.961</ele>
        <time>2017-03-29T10:54:32Z</time>
      </trkpt>
      <trkpt lat="44.80582" lon="0.2906">
        <ele>107.321</ele>
        <time>2017-03-29T10:54:52Z</time>
      </trkpt>
      <trkpt lat="44.80439" lon="0.28882">
        <ele>106.413</ele>
        <time>2017-03-29T10:55:12Z</time>
      </trkpt>
      <trkpt lat="44.80388" lon="0.29059">
        <ele>114.008</ele>
        <time>2017-03-29T10:55:32Z</time>
      </trkpt>
      <trkpt lat="44.80352" lon="0.29146">
        <ele>117.332</ele>
        <time>2017-03-29T10:55:52Z</time>
      </trkpt>
      <trkpt lat="44.80355" lon="0.29304">
        <ele>126.337</ele>
        <time>2017-03-29T10:56:12Z</time>
      </trkpt>
      <trkpt lat="44.80336" lon="0.29428">
        <ele>130.537</ele>
        <time>2017-03-29T10:56:32Z</time>
      </trkpt>
      <trkpt lat="44.80261" lon="0.29592">
        <ele>129.789</ele>
        <time>2017-03-29T10:56:52Z</time>
      </trkpt>
      <trkpt lat="44.80183" lon="0.29647">
        <ele>128.771</ele>
        <time>2017-03-29T10:57:12Z</time>
      </trkpt>
      <trkpt lat="44.80132" lon="0.29791">
        <ele>132.892</ele>
        <time>2017-03-29T10:57:32Z</time>
      </trkpt>
      <trkpt lat="44.80061" lon="0.29963">
        <ele>129.368</ele>
        <time>2017-03-29T10:57:52Z</time>
      </trkpt>
      <trkpt lat="44.79807" lon="0.30281">
        <ele>128.72</ele>
        <time>2017-03-29T10:58:12Z</time>
      </trkpt>
      <trkpt lat="44.79785" lon="0.30509">
        <ele>117.222</ele>
        <time>2017-03-29T10:58:32Z</time>
      </trkpt>
      <trkpt lat="44.79811" lon="0.30635">
        <ele>112.862</ele>
        <time>2017-03-29T10:58:52Z</time>
      </trkpt>
      <trkpt lat="44.79814" lon="0.30687">
        <ele>111.208</ele>
        <time>2017-03-29T10:59:12Z</time>
      </trkpt>
      <trkpt lat="44.79835" lon="0.30752">
        <ele>105.608</ele>
        <time>2017-03-29T10:59:32Z</time>
      </trkpt>
      <trkpt lat="44.79863" lon="0.30791">
        <ele>99.968</ele>
        <time>2017-03-29T10:59:52Z</time>
      </trkpt>
      <trkpt lat="44.7987" lon="0.30823">
        <ele>97.933</ele>
        <time>2017-03-29T11:00:12Z</time>
      </trkpt>
      <trkpt lat="44.79843" lon="0.30866">
        <ele>98.993</ele>
        <time>2017-03-29T11:00:32Z</time>
      </trkpt>
      <trkpt lat="44.7984" lon="0.30993">
        <ele>98.935</ele>
        <time>2017-03-29T11:00:52Z</time>
      </trkpt>
      <trkpt lat="44.79834" lon="0.31118">
        <ele>105.027</ele>
        <time>2017-03-29T11:01:12Z</time>
      </trkpt>
      <trkpt lat="44.79814" lon="0.31224">
        <ele>107.738</ele>
        <time>2017-03-29T11:01:32Z</time>
      </trkpt>
      <trkpt lat="44.79805" lon="0.31329">
        <ele>107.234</ele>
        <time>2017-03-29T11:01:52Z</time>
      </trkpt>
      <trkpt lat="44.79818" lon="0.31683">
        <ele>107.956</ele>
        <time>2017-03-29T11:02:12Z</time>
      </trkpt>
      <trkpt lat="44.79805" lon="0.31784">
        <ele>109.621</ele>
        <time>2017-03-29T11:02:32Z</time>
      </trkpt>
      <trkpt lat="44.79818" lon="0.3199">
        <ele>103.241</ele>
        <time>2017-03-29T11:02:52Z</time>
      </trkpt>
      <trkpt lat="44.7985" lon="0.32185">
        <ele>109.705</ele>
        <time>2017-03-29T11:03:12Z</time>
      </trkpt>
      <trkpt lat="44.79867" lon="0.3245">
        <ele>118.408</ele>
        <time>2017-03-29T11:03:32Z</time>
      </trkpt>
      <trkpt lat="44.79857" lon="0.32576">
        <ele>122.058</ele>
        <time>2017-03-29T11:03:52Z</time>
      </trkpt>
      <trkpt lat="44.79925" lon="0.32571">
        <ele>123.283</ele>
        <time>2017-03-29T11:04:12Z</time>
      </trkpt>
      <trkpt lat="44.80014" lon="0.32618">
        <ele>126.853</ele>
        <time>2017-03-29T11:04:32Z</time>
      </trkpt>
    </trkseg>
  </trk>
  <trk>
    <name><![CDATA[monbazillac]]></name>
    <trkseg>
      <trkpt lat="44.80014" lon="0.32618">
        <ele>126.853</ele>
        <time>2017-03-29T11:04:32Z</time>
      </trkpt>
      <trkpt lat="44.80014" lon="0.32618">
        <ele>126.853</ele>
        <time>2017-03-29T11:04:32Z</time>
      </trkpt>
      <trkpt lat="44.80014" lon="0.32618">
        <ele>126.853</ele>
        <time>2017-03-29T11:04:32Z</time>
      </trkpt>
      <trkpt lat="44.80014" lon="0.32618">
        <ele>126.853</ele>
        <time>2017-03-29T11:04:32Z</time>
      </trkpt>
      <trkpt lat="44.80014" lon="0.32618">
        <ele>126.853</ele>
        <time>2017-03-29T11:04:32Z</time>
      </trkpt>
      <trkpt lat="44.80014" lon="0.32618">
        <ele>126.853</ele>
        <time>2017-03-29T11:04:32Z</time>
      </trkpt>
      <trkpt lat="44.80014" lon="0.32618">
        <ele>126.853</ele>
        <time>2017-03-29T11:04:32Z</time>
      </trkpt>
      <trkpt lat="44.80014" lon="0.32618">
        <ele>126.853</ele>
        <time>2017-03-29T11:04:32Z</time>
      </trkpt>
      <trkpt lat="44.80014" lon="0.32618">
        <ele>126.853</ele>
        <time>2017-03-29T11:04:32Z</time>
      </trkpt>
      <trkpt lat="44.80009" lon="0.32734">
        <ele>120.235</ele>
        <time>2017-03-29T11:04:52Z</time>
      </trkpt>
      <trkpt lat="44.80034" lon="0.32749">
        <ele>120.387</ele>
        <time>2017-03-29T11:05:12Z</time>
      </trkpt>
      <trkpt lat="44.80034" lon="0.32934">
        <ele>105.748</ele>
        <time>2017-03-29T11:05:32Z</time>
      </trkpt>
      <trkpt lat="44.80027" lon="0.33007">
        <ele>101.564</ele>
        <time>2017-03-29T11:05:52Z</time>
      </trkpt>
      <trkpt lat="44.80026" lon="0.33092">
        <ele>82.376</ele>
        <time>2017-03-29T11:06:12Z</time>
      </trkpt>
      <trkpt lat="44.80019" lon="0.33157">
        <ele>76.222</ele>
        <time>2017-03-29T11:06:32Z</time>
      </trkpt>
      <trkpt lat="44.79951" lon="0.33191">
        <ele>79.762</ele>
        <time>2017-03-29T11:06:52Z</time>
      </trkpt>
      <trkpt lat="44.79883" lon="0.3329">
        <ele>99.208</ele>
        <time>2017-03-29T11:07:12Z</time>
      </trkpt>
      <trkpt lat="44.79877" lon="0.33307">
        <ele>101.808</ele>
        <time>2017-03-29T11:07:32Z</time>
      </trkpt>
      <trkpt lat="44.79869" lon="0.33322">
        <ele>103.768</ele>
        <time>2017-03-29T11:07:52Z</time>
      </trkpt>
      <trkpt lat="44.79868" lon="0.33371">
        <ele>105.963</ele>
        <time>2017-03-29T11:08:12Z</time>
      </trkpt>
      <trkpt lat="44.79834" lon="0.33441">
        <ele>108.783</ele>
        <time>2017-03-29T11:08:32Z</time>
      </trkpt>
      <trkpt lat="44.79835" lon="0.33552">
        <ele>109.985</ele>
        <time>2017-03-29T11:08:52Z</time>
      </trkpt>
      <trkpt lat="44.79844" lon="0.33657">
        <ele>106.917</ele>
        <time>2017-03-29T11:09:12Z</time>
      </trkpt>
      <trkpt lat="44.79804" lon="0.33708">
        <ele>111.598</ele>
        <time>2017-03-29T11:09:32Z</time>
      </trkpt>
      <trkpt lat="44.79795" lon="0.33756">
        <ele>111.994</ele>
        <time>2017-03-29T11:09:52Z</time>
      </trkpt>
      <trkpt lat="44.79817" lon="0.33866">
        <ele>110.896</ele>
        <time>2017-03-29T11:10:12Z</time>
      </trkpt>
      <trkpt lat="44.79844" lon="0.3397">
        <ele>113.697</ele>
        <time>2017-03-29T11:10:32Z</time>
      </trkpt>
      <trkpt lat="44.79982" lon="0.34091">
        <ele>108.523</ele>
        <time>2017-03-29T11:10:52Z</time>
      </trkpt>
      <trkpt lat="44.79869" lon="0.34343">
        <ele>110.325</ele>
        <time>2017-03-29T11:11:12Z</time>
      </trkpt>
      <trkpt lat="44.79863" lon="0.34499">
        <ele>110.908</ele>
        <time>2017-03-29T11:11:32Z</time>
      </trkpt>
      <trkpt lat="44.79785" lon="0.34608">
        <ele>113.745</ele>
        <time>2017-03-29T11:11:52Z</time>
      </trkpt>
      <trkpt lat="44.79647" lon="0.3472">
        <ele>111.04</ele>
        <time>2017-03-29T11:12:12Z</time>
      </trkpt>
      <trkpt lat="44.79606" lon="0.34775">
        <ele>110.81</ele>
        <time>2017-03-29T11:12:32Z</time>
      </trkpt>
      <trkpt lat="44.79545" lon="0.34898">
        <ele>108.392</ele>
        <time>2017-03-29T11:12:52Z</time>
      </trkpt>
      <trkpt lat="44.79516" lon="0.34976">
        <ele>107.324</ele>
        <time>2017-03-29T11:13:12Z</time>
      </trkpt>
      <trkpt lat="44.79508" lon="0.35066">
        <ele>103.545</ele>
        <time>2017-03-29T11:13:32Z</time>
      </trkpt>
      <trkpt lat="44.79475" lon="0.35156">
        <ele>104.361</ele>
        <time>2017-03-29T11:13:52Z</time>
      </trkpt>
      <trkpt lat="44.79425" lon="0.3519">
        <ele>104.833</ele>
        <time>2017-03-29T11:14:12Z</time>
      </trkpt>
      <trkpt lat="44.79361" lon="0.3521">
        <ele>106.072</ele>
        <time>2017-03-29T11:14:32Z</time>
      </trkpt>
      <trkpt lat="44.79269" lon="0.35303">
        <ele>104.913</ele>
        <time>2017-03-29T11:14:52Z</time>
      </trkpt>
      <trkpt lat="44.79187" lon="0.35636">
        <ele>79.414</ele>
        <time>2017-03-29T11:15:12Z</time>
      </trkpt>
      <trkpt lat="44.79184" lon="0.3569">
        <ele>71.308</ele>
        <time>2017-03-29T11:15:32Z</time>
      </trkpt>
      <trkpt lat="44.79157" lon="0.35828">
        <ele>50.173</ele>
        <time>2017-03-29T11:15:52Z</time>
      </trkpt>
      <trkpt lat="44.79128" lon="0.35872">
        <ele>47.098</ele>
        <time>2017-03-29T11:16:12Z</time>
      </trkpt>
      <trkpt lat="44.79096" lon="0.35945">
        <ele>45.118</ele>
        <time>2017-03-29T11:16:32Z</time>
      </trkpt>
      <trkpt lat="44.79091" lon="0.35984">
        <ele>46.03</ele>
        <time>2017-03-29T11:16:52Z</time>
      </trkpt>
      <trkpt lat="44.79104" lon="0.36014">
        <ele>45.962</ele>
        <time>2017-03-29T11:17:12Z</time>
      </trkpt>
      <trkpt lat="44.79079" lon="0.36022">
        <ele>46.993</ele>
        <time>2017-03-29T11:17:32Z</time>
      </trkpt>
      <trkpt lat="44.7905" lon="0.36098">
        <ele>49.519</ele>
        <time>2017-03-29T11:17:52Z</time>
      </trkpt>
      <trkpt lat="44.79139" lon="0.36138">
        <ele>47.021</ele>
        <time>2017-03-29T11:18:12Z</time>
      </trkpt>
      <trkpt lat="44.79216" lon="0.36199">
        <ele>48.148</ele>
        <time>2017-03-29T11:18:32Z</time>
      </trkpt>
      <trkpt lat="44.7928" lon="0.36236">
        <ele>49.761</ele>
        <time>2017-03-29T11:18:52Z</time>
      </trkpt>
      <trkpt lat="44.79413" lon="0.36373">
        <ele>46.717</ele>
        <time>2017-03-29T11:19:12Z</time>
      </trkpt>
      <trkpt lat="44.79464" lon="0.36485">
        <ele>42.208</ele>
        <time>2017-03-29T11:19:32Z</time>
      </trkpt>
      <trkpt lat="44.79445" lon="0.36538">
        <ele>45.08</ele>
        <time>2017-03-29T11:19:52Z</time>
      </trkpt>
      <trkpt lat="44.79692" lon="0.36771">
        <ele>41.325</ele>
        <time>2017-03-29T11:20:12Z</time>
      </trkpt>
      <trkpt lat="44.79697" lon="0.3682">
        <ele>40.625</ele>
        <time>2017-03-29T11:20:32Z</time>
      </trkpt>
      <trkpt lat="44.7969" lon="0.36849">
        <ele>39.827</ele>
        <time>2017-03-29T11:20:52Z</time>
      </trkpt>
      <trkpt lat="44.79624" lon="0.36883">
        <ele>44.059</ele>
        <time>2017-03-29T11:21:12Z</time>
      </trkpt>
      <trkpt lat="44.79623" lon="0.36949">
        <ele>43.47</ele>
        <time>2017-03-29T11:21:32Z</time>
      </trkpt>
      <trkpt lat="44.79585" lon="0.37009">
        <ele>42.116</ele>
        <time>2017-03-29T11:21:52Z</time>
      </trkpt>
      <trkpt lat="44.79532" lon="0.37122">
        <ele>43.278</ele>
        <time>2017-03-29T11:22:12Z</time>
      </trkpt>
      <trkpt lat="44.79542" lon="0.37271">
        <ele>45.426</ele>
        <time>2017-03-29T11:22:32Z</time>
      </trkpt>
      <trkpt lat="44.79552" lon="0.3737">
        <ele>46.847</ele>
        <time>2017-03-29T11:22:52Z</time>
      </trkpt>
      <trkpt lat="44.79547" lon="0.37461">
        <ele>52.011</ele>
        <time>2017-03-29T11:23:12Z</time>
      </trkpt>
      <trkpt lat="44.79499" lon="0.3763">
        <ele>56.308</ele>
        <time>2020-11-25T02:44:20Z</time>
      </trkpt>
      <trkpt lat="44.79499" lon="0.3763">
        <ele>56.368</ele>
        <time>2020-11-25T02:44:40Z</time>
      </trkpt>
      <trkpt lat="44.79433" lon="0.37759">
        <ele>72.023</ele>
        <time>2020-11-25T02:45:00Z</time>
      </trkpt>
      <trkpt lat="44.7943" lon="0.37816">
        <ele>77.163</ele>
        <time>2020-11-25T02:45:20Z</time>
      </trkpt>
      <trkpt lat="44.79482" lon="0.38081">
        <ele>85.935</ele>
        <time>2020-11-25T02:45:40Z</time>
      </trkpt>
      <trkpt lat="44.79471" lon="0.38163">
        <ele>88.997</ele>
        <time>2020-11-25T02:46:00Z</time>
      </trkpt>
      <trkpt lat="44.79423" lon="0.38281">
        <ele>95.048</ele>
        <time>2020-11-25T02:46:20Z</time>
      </trkpt>
      <trkpt lat="44.79536" lon="0.38494">
        <ele>108.814</ele>
        <time>2020-11-25T02:46:40Z</time>
      </trkpt>
      <trkpt lat="44.79576" lon="0.38578">
        <ele>112.656</ele>
        <time>2020-11-25T02:47:00Z</time>
      </trkpt>
      <trkpt lat="44.79658" lon="0.38708">
        <ele>113.018</ele>
        <time>2020-11-25T02:47:20Z</time>
      </trkpt>
      <trkpt lat="44.79739" lon="0.38909">
        <ele>116.798</ele>
        <time>2020-11-25T02:47:40Z</time>
      </trkpt>
      <trkpt lat="44.79677" lon="0.3905">
        <ele>116.917</ele>
        <time>2020-11-25T02:48:00Z</time>
      </trkpt>
      <trkpt lat="44.79638" lon="0.39294">
        <ele>118.608</ele>
        <time>2020-11-25T02:48:20Z</time>
      </trkpt>
      <trkpt lat="44.79574" lon="0.39481">
        <ele>119.737</ele>
        <time>2020-11-25T02:48:40Z</time>
      </trkpt>
      <trkpt lat="44.79628" lon="0.39502">
        <ele>121.562</ele>
        <time>2017-03-29T11:38:52Z</time>
      </trkpt>
      <trkpt lat="44.79831" lon="0.39654">
        <ele>113.852</ele>
        <time>2017-03-29T11:39:12Z</time>
      </trkpt>
      <trkpt lat="44.79831" lon="0.39654">
        <ele>113.852</ele>
        <time>2017-03-29T11:39:12Z</time>
      </trkpt>
      <trkpt lat="44.79831" lon="0.39654">
        <ele>113.852</ele>
        <time>2017-03-29T11:39:12Z</time>
      </trkpt>
      <trkpt lat="44.79831" lon="0.39654">
        <ele>113.852</ele>
        <time>2017-03-29T11:39:12Z</time>
      </trkpt>
      <trkpt lat="44.79831" lon="0.39654">
        <ele>113.852</ele>
        <time>2017-03-29T11:39:12Z</time>
      </trkpt>
      <trkpt lat="44.79831" lon="0.39654">
        <ele>113.852</ele>
        <time>2017-03-29T11:39:12Z</time>
      </trkpt>
      <trkpt lat="44.79826" lon="0.397">
        <ele>115.354</ele>
        <time>2017-03-29T11:39:32Z</time>
      </trkpt>
      <trkpt lat="44.79805" lon="0.39743">
        <ele>116.046</ele>
        <time>2017-03-29T11:39:52Z</time>
      </trkpt>
      <trkpt lat="44.79784" lon="0.39839">
        <ele>113.197</ele>
        <time>2017-03-29T11:40:12Z</time>
      </trkpt>
      <trkpt lat="44.79682" lon="0.40171">
        <ele>115.393</ele>
        <time>2017-03-29T11:40:32Z</time>
      </trkpt>
      <trkpt lat="44.79767" lon="0.40193">
        <ele>107.675</ele>
        <time>2017-03-29T11:40:52Z</time>
      </trkpt>
      <trkpt lat="44.79791" lon="0.40276">
        <ele>105.546</ele>
        <time>2017-03-29T11:41:12Z</time>
      </trkpt>
      <trkpt lat="44.79878" lon="0.40299">
        <ele>96.788</ele>
        <time>2017-03-29T11:41:32Z</time>
      </trkpt>
      <trkpt lat="44.79942" lon="0.40337">
        <ele>86.516</ele>
        <time>2017-03-29T11:41:52Z</time>
      </trkpt>
      <trkpt lat="44.79986" lon="0.40512">
        <ele>94.708</ele>
        <time>2017-03-29T11:42:12Z</time>
      </trkpt>
      <trkpt lat="44.80066" lon="0.40481">
        <ele>82.92</ele>
        <time>2017-03-29T11:42:32Z</time>
      </trkpt>
      <trkpt lat="44.80174" lon="0.40464">
        <ele>71.325</ele>
        <time>2017-03-29T11:42:52Z</time>
      </trkpt>
      <trkpt lat="44.80313" lon="0.40489">
        <ele>59.665</ele>
        <time>2017-03-29T11:43:12Z</time>
      </trkpt>
      <trkpt lat="44.80336" lon="0.40766">
        <ele>63.317</ele>
        <time>2017-03-29T11:43:32Z</time>
      </trkpt>
      <trkpt lat="44.80344" lon="0.40771">
        <ele>62.999</ele>
        <time>2017-03-29T11:43:52Z</time>
      </trkpt>
      <trkpt lat="44.8036" lon="0.40876">
        <ele>65.32</ele>
        <time>2017-03-29T11:44:12Z</time>
      </trkpt>
      <trkpt lat="44.80379" lon="0.4094">
        <ele>63.376</ele>
        <time>2017-03-29T11:44:32Z</time>
      </trkpt>
      <trkpt lat="44.8038" lon="0.40989">
        <ele>65.038</ele>
        <time>2017-03-29T11:44:52Z</time>
      </trkpt>
      <trkpt lat="44.80348" lon="0.41153">
        <ele>65.988</ele>
        <time>2017-03-29T11:45:12Z</time>
      </trkpt>
      <trkpt lat="44.80358" lon="0.41212">
        <ele>63.024</ele>
        <time>2017-03-29T11:45:32Z</time>
      </trkpt>
      <trkpt lat="44.8044" lon="0.41201">
        <ele>60.226</ele>
        <time>2017-03-29T11:45:52Z</time>
      </trkpt>
      <trkpt lat="44.80469" lon="0.4128">
        <ele>60.208</ele>
        <time>2017-03-29T11:46:12Z</time>
      </trkpt>
      <trkpt lat="44.80464" lon="0.41297">
        <ele>60.184</ele>
        <time>2017-03-29T11:46:32Z</time>
      </trkpt>
      <trkpt lat="44.80602" lon="0.41279">
        <ele>65.169</ele>
        <time>2017-03-29T11:46:52Z</time>
      </trkpt>
      <trkpt lat="44.8061" lon="0.4134">
        <ele>66.559</ele>
        <time>2017-03-29T11:47:12Z</time>
      </trkpt>
      <trkpt lat="44.80613" lon="0.41422">
        <ele>63.541</ele>
        <time>2017-03-29T11:47:32Z</time>
      </trkpt>
      <trkpt lat="44.80634" lon="0.41527">
        <ele>63.833</ele>
        <time>2017-03-29T11:47:52Z</time>
      </trkpt>
      <trkpt lat="44.80634" lon="0.41668">
        <ele>67.394</ele>
        <time>2017-03-29T11:48:12Z</time>
      </trkpt>
      <trkpt lat="44.80684" lon="0.41881">
        <ele>76.88</ele>
        <time>2017-03-29T11:48:32Z</time>
      </trkpt>
      <trkpt lat="44.80686" lon="0.41941">
        <ele>77.142</ele>
        <time>2017-03-29T11:48:52Z</time>
      </trkpt>
      <trkpt lat="44.80678" lon="0.42186">
        <ele>79.662</ele>
        <time>2017-03-29T11:49:12Z</time>
      </trkpt>
      <trkpt lat="44.80657" lon="0.42288">
        <ele>82.683</ele>
        <time>2017-03-29T11:49:32Z</time>
      </trkpt>
      <trkpt lat="44.80605" lon="0.42392">
        <ele>85.211</ele>
        <time>2017-03-29T11:49:52Z</time>
      </trkpt>
      <trkpt lat="44.80594" lon="0.42464">
        <ele>83.508</ele>
        <time>2017-03-29T11:50:12Z</time>
      </trkpt>
      <trkpt lat="44.80626" lon="0.4263">
        <ele>89.442</ele>
        <time>2017-03-29T11:50:32Z</time>
      </trkpt>
      <trkpt lat="44.80423" lon="0.43014">
        <ele>98.077</ele>
        <time>2017-03-29T11:50:52Z</time>
      </trkpt>
      <trkpt lat="44.80415" lon="0.4309">
        <ele>97.157</ele>
        <time>2017-03-29T11:51:12Z</time>
      </trkpt>
      <trkpt lat="44.80444" lon="0.43136">
        <ele>95.029</ele>
        <time>2017-03-29T11:51:32Z</time>
      </trkpt>
      <trkpt lat="44.80504" lon="0.43169">
        <ele>101.891</ele>
        <time>2017-03-29T11:51:52Z</time>
      </trkpt>
      <trkpt lat="44.80558" lon="0.43222">
        <ele>114.922</ele>
        <time>2017-03-29T11:52:12Z</time>
      </trkpt>
      <trkpt lat="44.806" lon="0.43273">
        <ele>123.658</ele>
        <time>2017-03-29T11:52:32Z</time>
      </trkpt>
      <trkpt lat="44.80613" lon="0.43278">
        <ele>123.97</ele>
        <time>2017-03-29T11:52:52Z</time>
      </trkpt>
      <trkpt lat="44.80631" lon="0.43304">
        <ele>125.114</ele>
        <time>2017-03-29T11:53:12Z</time>
      </trkpt>
      <trkpt lat="44.80631" lon="0.43329">
        <ele>128.554</ele>
        <time>2017-03-29T11:53:32Z</time>
      </trkpt>
      <trkpt lat="44.80656" lon="0.43358">
        <ele>130.309</ele>
        <time>2017-03-29T11:53:52Z</time>
      </trkpt>
      <trkpt lat="44.80695" lon="0.43388">
        <ele>131.908</ele>
        <time>2017-03-29T11:54:12Z</time>
      </trkpt>
      <trkpt lat="44.80734" lon="0.43446">
        <ele>134.357</ele>
        <time>2017-03-29T11:54:32Z</time>
      </trkpt>
      <trkpt lat="44.80744" lon="0.43531">
        <ele>138.052</ele>
        <time>2017-03-29T11:54:52Z</time>
      </trkpt>
      <trkpt lat="44.80755" lon="0.43559">
        <ele>137.842</ele>
        <time>2017-03-29T11:55:12Z</time>
      </trkpt>
      <trkpt lat="44.80748" lon="0.43571">
        <ele>138.014</ele>
        <time>2017-03-29T11:55:32Z</time>
      </trkpt>
      <trkpt lat="44.80642" lon="0.4359">
        <ele>137.396</ele>
        <time>2017-03-29T11:55:52Z</time>
      </trkpt>
      <trkpt lat="44.80559" lon="0.43613">
        <ele>138.227</ele>
        <time>2017-03-29T11:56:12Z</time>
      </trkpt>
      <trkpt lat="44.80475" lon="0.43594">
        <ele>129.493</ele>
        <time>2017-03-29T11:56:32Z</time>
      </trkpt>
      <trkpt lat="44.80429" lon="0.43594">
        <ele>133.935</ele>
        <time>2017-03-29T11:56:52Z</time>
      </trkpt>
      <trkpt lat="44.80406" lon="0.4358">
        <ele>135.117</ele>
        <time>2017-03-29T11:57:12Z</time>
      </trkpt>
      <trkpt lat="44.80382" lon="0.43592">
        <ele>137.787</ele>
        <time>2017-03-29T11:57:32Z</time>
      </trkpt>
      <trkpt lat="44.80303" lon="0.43683">
        <ele>141.415</ele>
        <time>2017-03-29T11:57:52Z</time>
      </trkpt>
      <trkpt lat="44.8012" lon="0.43698">
        <ele>138.508</ele>
        <time>2017-03-29T11:58:12Z</time>
      </trkpt>
      <trkpt lat="44.80004" lon="0.43642">
        <ele>141.167</ele>
        <time>2017-03-29T11:58:32Z</time>
      </trkpt>
      <trkpt lat="44.79988" lon="0.43712">
        <ele>145.082</ele>
        <time>2017-03-29T11:58:52Z</time>
      </trkpt>
      <trkpt lat="44.79954" lon="0.43739">
        <ele>145.452</ele>
        <time>2017-03-29T11:59:12Z</time>
      </trkpt>
      <trkpt lat="44.79937" lon="0.43768">
        <ele>145.544</ele>
        <time>2017-03-29T11:59:32Z</time>
      </trkpt>
      <trkpt lat="44.7978" lon="0.44004">
        <ele>139.876</ele>
        <time>2017-03-29T11:59:52Z</time>
      </trkpt>
      <trkpt lat="44.79681" lon="0.44202">
        <ele>133.947</ele>
        <time>2017-03-29T12:00:12Z</time>
      </trkpt>
      <trkpt lat="44.79629" lon="0.44272">
        <ele>128.643</ele>
        <time>2017-03-29T12:00:32Z</time>
      </trkpt>
      <trkpt lat="44.79519" lon="0.44401">
        <ele>129.925</ele>
        <time>2017-03-29T12:00:52Z</time>
      </trkpt>
      <trkpt lat="44.79509" lon="0.44521">
        <ele>128.486</ele>
        <time>2017-03-29T12:01:12Z</time>
      </trkpt>
      <trkpt lat="44.79668" lon="0.44528">
        <ele>138.06</ele>
        <time>2017-03-29T12:01:32Z</time>
      </trkpt>
      <trkpt lat="44.79724" lon="0.44596">
        <ele>144.026</ele>
        <time>2017-03-29T12:01:52Z</time>
      </trkpt>
      <trkpt lat="44.79829" lon="0.44625">
        <ele>151.308</ele>
        <time>2017-03-29T12:02:12Z</time>
      </trkpt>
      <trkpt lat="44.79845" lon="0.4477">
        <ele>154.514</ele>
        <time>2017-03-29T12:02:32Z</time>
      </trkpt>
      <trkpt lat="44.79861" lon="0.4482">
        <ele>153.539</ele>
        <time>2017-03-29T12:02:52Z</time>
      </trkpt>
      <trkpt lat="44.79841" lon="0.45027">
        <ele>159.539</ele>
        <time>2017-03-29T12:03:12Z</time>
      </trkpt>
      <trkpt lat="44.79914" lon="0.45034">
        <ele>159.861</ele>
        <time>2017-03-29T12:03:32Z</time>
      </trkpt>
      <trkpt lat="44.79947" lon="0.4507">
        <ele>162.183</ele>
        <time>2017-03-29T12:03:52Z</time>
      </trkpt>
      <trkpt lat="44.79951" lon="0.45113">
        <ele>166.144</ele>
        <time>2017-03-29T12:04:12Z</time>
      </trkpt>
      <trkpt lat="44.79904" lon="0.45163">
        <ele>168.18</ele>
        <time>2017-03-29T12:04:32Z</time>
      </trkpt>
      <trkpt lat="44.79849" lon="0.45215">
        <ele>163.022</ele>
        <time>2017-03-29T12:04:52Z</time>
      </trkpt>
      <trkpt lat="44.79829" lon="0.45243">
        <ele>162.331</ele>
        <time>2017-03-29T12:05:12Z</time>
      </trkpt>
      <trkpt lat="44.79812" lon="0.45286">
        <ele>160.961</ele>
        <time>2017-03-29T12:05:32Z</time>
      </trkpt>
      <trkpt lat="44.79807" lon="0.45341">
        <ele>161.407</ele>
        <time>2017-03-29T12:05:52Z</time>
      </trkpt>
      <trkpt lat="44.79804" lon="0.45393">
        <ele>163.208</ele>
        <time>2017-03-29T12:06:12Z</time>
      </trkpt>
      <trkpt lat="44.79806" lon="0.45434">
        <ele>163.089</ele>
        <time>2017-03-29T12:06:32Z</time>
      </trkpt>
      <trkpt lat="44.79789" lon="0.45594">
        <ele>165.614</ele>
        <time>2017-03-29T12:06:52Z</time>
      </trkpt>
      <trkpt lat="44.7976" lon="0.45809">
        <ele>166.564</ele>
        <time>2017-03-29T12:07:12Z</time>
      </trkpt>
      <trkpt lat="44.79679" lon="0.46119">
        <ele>187.676</ele>
        <time>2017-03-29T12:07:32Z</time>
      </trkpt>
      <trkpt lat="44.79622" lon="0.46262">
        <ele>181.818</ele>
        <time>2017-03-29T12:07:52Z</time>
      </trkpt>
      <trkpt lat="44.79578" lon="0.46422">
        <ele>174.879</ele>
        <time>2017-03-29T12:08:12Z</time>
      </trkpt>
      <trkpt lat="44.79496" lon="0.46638">
        <ele>171.165</ele>
        <time>2017-03-29T12:08:32Z</time>
      </trkpt>
      <trkpt lat="44.79391" lon="0.46572">
        <ele>169.737</ele>
        <time>2017-03-29T12:08:52Z</time>
      </trkpt>
      <trkpt lat="44.79337" lon="0.4646">
        <ele>162.632</ele>
        <time>2017-03-29T12:09:12Z</time>
      </trkpt>
      <trkpt lat="44.79114" lon="0.4634">
        <ele>157.492</ele>
        <time>2017-03-29T12:09:32Z</time>
      </trkpt>
      <trkpt lat="44.79097" lon="0.46389">
        <ele>162.011</ele>
        <time>2017-03-29T12:09:52Z</time>
      </trkpt>
      <trkpt lat="44.79066" lon="0.46413">
        <ele>165.308</ele>
        <time>2017-03-29T12:10:12Z</time>
      </trkpt>
      <trkpt lat="44.79045" lon="0.46528">
        <ele>164.049</ele>
        <time>2017-03-29T12:10:32Z</time>
      </trkpt>
      <trkpt lat="44.79035" lon="0.46545">
        <ele>163.544</ele>
        <time>2017-03-29T12:10:52Z</time>
      </trkpt>
      <trkpt lat="44.79028" lon="0.46576">
        <ele>162.384</ele>
        <time>2017-03-29T12:11:12Z</time>
      </trkpt>
      <trkpt lat="44.79001" lon="0.4662">
        <ele>160.036</ele>
        <time>2017-03-29T12:11:32Z</time>
      </trkpt>
      <trkpt lat="44.78984" lon="0.46704">
        <ele>158.258</ele>
        <time>2017-03-29T12:11:52Z</time>
      </trkpt>
      <trkpt lat="44.78903" lon="0.46731">
        <ele>150.759</ele>
        <time>2017-03-29T12:12:12Z</time>
      </trkpt>
      <trkpt lat="44.78753" lon="0.46699">
        <ele>148.945</ele>
        <time>2017-03-29T12:12:32Z</time>
      </trkpt>
      <trkpt lat="44.78773" lon="0.46804">
        <ele>144.927</ele>
        <time>2017-03-29T12:12:52Z</time>
      </trkpt>
      <trkpt lat="44.78728" lon="0.46817">
        <ele>142.357</ele>
        <time>2017-03-29T12:13:12Z</time>
      </trkpt>
      <trkpt lat="44.78722" lon="0.46896">
        <ele>145</ele>
        <time>2017-03-29T12:13:32Z</time>
      </trkpt>
      <trkpt lat="44.78719" lon="0.46999">
        <ele>143.62</ele>
        <time>2017-03-29T12:13:52Z</time>
      </trkpt>
      <trkpt lat="44.78743" lon="0.47223">
        <ele>140.908</ele>
        <time>2017-03-29T12:14:12Z</time>
      </trkpt>
      <trkpt lat="44.78765" lon="0.4727">
        <ele>139.211</ele>
        <time>2017-03-29T12:14:32Z</time>
      </trkpt>
      <trkpt lat="44.78785" lon="0.47285">
        <ele>139.796</ele>
        <time>2017-03-29T12:14:52Z</time>
      </trkpt>
      <trkpt lat="44.78863" lon="0.47286">
        <ele>141.216</ele>
        <time>2017-03-29T12:15:12Z</time>
      </trkpt>
      <trkpt lat="44.78869" lon="0.47344">
        <ele>140.148</ele>
        <time>2017-03-29T12:15:32Z</time>
      </trkpt>
      <trkpt lat="44.78898" lon="0.47473">
        <ele>143.23</ele>
        <time>2017-03-29T12:15:52Z</time>
      </trkpt>
      <trkpt lat="44.78941" lon="0.47619">
        <ele>138.861</ele>
        <time>2017-03-29T12:16:12Z</time>
      </trkpt>
      <trkpt lat="44.78983" lon="0.47706">
        <ele>143.387</ele>
        <time>2017-03-29T12:16:32Z</time>
      </trkpt>
      <trkpt lat="44.79078" lon="0.47831">
        <ele>147.089</ele>
        <time>2017-03-29T12:16:52Z</time>
      </trkpt>
      <trkpt lat="44.79028" lon="0.47889">
        <ele>146.051</ele>
        <time>2017-03-29T12:17:12Z</time>
      </trkpt>
      <trkpt lat="44.78892" lon="0.47923">
        <ele>146.001</ele>
        <time>2017-03-29T12:17:32Z</time>
      </trkpt>
      <trkpt lat="44.78841" lon="0.47916">
        <ele>147.011</ele>
        <time>2017-03-29T12:17:52Z</time>
      </trkpt>
      <trkpt lat="44.78835" lon="0.47947">
        <ele>146.908</ele>
        <time>2017-03-29T12:18:12Z</time>
      </trkpt>
      <trkpt lat="44.78835" lon="0.48061">
        <ele>147.061</ele>
        <time>2017-03-29T12:18:32Z</time>
      </trkpt>
      <trkpt lat="44.78891" lon="0.48307">
        <ele>152.016</ele>
        <time>2017-03-29T12:18:52Z</time>
      </trkpt>
      <trkpt lat="44.78888" lon="0.48356">
        <ele>152.076</ele>
        <time>2017-03-29T12:19:12Z</time>
      </trkpt>
      <trkpt lat="44.78861" lon="0.48479">
        <ele>154.088</ele>
        <time>2017-03-29T12:19:32Z</time>
      </trkpt>
      <trkpt lat="44.78902" lon="0.48523">
        <ele>155.44</ele>
        <time>2017-03-29T12:19:52Z</time>
      </trkpt>
      <trkpt lat="44.78994" lon="0.48567">
        <ele>160.131</ele>
        <time>2017-03-29T12:20:12Z</time>
      </trkpt>
      <trkpt lat="44.79129" lon="0.48649">
        <ele>157.217</ele>
        <time>2017-03-29T12:20:32Z</time>
      </trkpt>
      <trkpt lat="44.79204" lon="0.48704">
        <ele>157.339</ele>
        <time>2017-03-29T12:20:52Z</time>
      </trkpt>
      <trkpt lat="44.79203" lon="0.48752">
        <ele>158.712</ele>
        <time>2017-03-29T12:21:12Z</time>
      </trkpt>
      <trkpt lat="44.79223" lon="0.48794">
        <ele>159.632</ele>
        <time>2017-03-29T12:21:32Z</time>
      </trkpt>
      <trkpt lat="44.79265" lon="0.48818">
        <ele>160.905</ele>
        <time>2017-03-29T12:21:52Z</time>
      </trkpt>
      <trkpt lat="44.79389" lon="0.49149">
        <ele>167.408</ele>
        <time>2017-03-29T12:22:12Z</time>
      </trkpt>
      <trkpt lat="44.79432" lon="0.49208">
        <ele>167.647</ele>
        <time>2017-03-29T12:22:32Z</time>
      </trkpt>
      <trkpt lat="44.79487" lon="0.4924">
        <ele>160.722</ele>
        <time>2017-03-29T12:22:52Z</time>
      </trkpt>
      <trkpt lat="44.79528" lon="0.49237">
        <ele>156.642</ele>
        <time>2017-03-29T12:23:12Z</time>
      </trkpt>
      <trkpt lat="44.79533" lon="0.49263">
        <ele>157.854</ele>
        <time>2017-03-29T12:23:32Z</time>
      </trkpt>
      <trkpt lat="44.79652" lon="0.49322">
        <ele>156.896</ele>
        <time>2017-03-29T12:23:52Z</time>
      </trkpt>
      <trkpt lat="44.79775" lon="0.49336">
        <ele>144.627</ele>
        <time>2017-03-29T12:24:12Z</time>
      </trkpt>
      <trkpt lat="44.79737" lon="0.49538">
        <ele>135.673</ele>
        <time>2017-03-29T12:24:32Z</time>
      </trkpt>
      <trkpt lat="44.7969" lon="0.49593">
        <ele>139.395</ele>
        <time>2017-03-29T12:24:52Z</time>
      </trkpt>
      <trkpt lat="44.79654" lon="0.49749">
        <ele>141.892</ele>
        <time>2017-03-29T12:25:12Z</time>
      </trkpt>
      <trkpt lat="44.79576" lon="0.49808">
        <ele>150.473</ele>
        <time>2017-03-29T12:25:32Z</time>
      </trkpt>
      <trkpt lat="44.79535" lon="0.49975">
        <ele>160.22</ele>
        <time>2017-03-29T12:25:52Z</time>
      </trkpt>
      <trkpt lat="44.79352" lon="0.49969">
        <ele>172.408</ele>
        <time>2017-03-29T12:26:12Z</time>
      </trkpt>
      <trkpt lat="44.79298" lon="0.50016">
        <ele>177.355</ele>
        <time>2017-03-29T12:26:32Z</time>
      </trkpt>
      <trkpt lat="44.79226" lon="0.50048">
        <ele>178.11</ele>
        <time>2017-03-29T12:26:52Z</time>
      </trkpt>
      <trkpt lat="44.79203" lon="0.50044">
        <ele>176.64</ele>
        <time>2017-03-29T12:27:12Z</time>
      </trkpt>
    </trkseg>
  </trk>
  <trk>
    <name><![CDATA[Faux]]></name>
    <extensions>
      <line xmlns="http://www.topografix.com/GPX/gpx_style/0/2">
        <color>00ff6e</color>
        <width>4</width>
      </line>
    </extensions>
    <trkseg>
      <trkpt lat="44.79203" lon="0.50044">
        <ele>176.64</ele>
        <time>2017-03-29T12:27:12Z</time>
      </trkpt>
      <trkpt lat="44.79203" lon="0.50044">
        <ele>176.64</ele>
        <time>2017-03-29T12:27:12Z</time>
      </trkpt>
      <trkpt lat="44.79203" lon="0.50044">
        <ele>176.64</ele>
        <time>2017-03-29T12:27:12Z</time>
      </trkpt>
      <trkpt lat="44.79203" lon="0.50044">
        <ele>176.64</ele>
        <time>2017-03-29T12:27:12Z</time>
      </trkpt>
      <trkpt lat="44.79203" lon="0.50044">
        <ele>176.64</ele>
        <time>2017-03-29T12:27:12Z</time>
      </trkpt>
      <trkpt lat="44.79203" lon="0.50044">
        <ele>176.64</ele>
        <time>2017-03-29T12:27:12Z</time>
      </trkpt>
      <trkpt lat="44.79203" lon="0.50044">
        <ele>176.64</ele>
        <time>2017-03-29T12:27:12Z</time>
      </trkpt>
      <trkpt lat="44.79203" lon="0.50044">
        <ele>176.64</ele>
        <time>2017-03-29T12:27:12Z</time>
      </trkpt>
      <trkpt lat="44.79177" lon="0.50084">
        <ele>174.122</ele>
        <time>2017-03-29T12:27:32Z</time>
      </trkpt>
      <trkpt lat="44.79136" lon="0.5018">
        <ele>175.124</ele>
        <time>2017-03-29T12:27:52Z</time>
      </trkpt>
      <trkpt lat="44.79111" lon="0.50199">
        <ele>175.845</ele>
        <time>2017-03-29T12:28:12Z</time>
      </trkpt>
      <trkpt lat="44.79005" lon="0.50218">
        <ele>173.131</ele>
        <time>2017-03-29T12:28:32Z</time>
      </trkpt>
      <trkpt lat="44.78973" lon="0.50244">
        <ele>172.443</ele>
        <time>2017-03-29T12:28:52Z</time>
      </trkpt>
      <trkpt lat="44.78931" lon="0.50315">
        <ele>172.049</ele>
        <time>2017-03-29T12:29:12Z</time>
      </trkpt>
      <trkpt lat="44.78741" lon="0.50217">
        <ele>169.902</ele>
        <time>2017-03-29T12:29:32Z</time>
      </trkpt>
      <trkpt lat="44.78622" lon="0.50192">
        <ele>169.322</ele>
        <time>2017-03-29T12:29:52Z</time>
      </trkpt>
      <trkpt lat="44.78485" lon="0.5018">
        <ele>165.508</ele>
        <time>2017-03-29T12:30:12Z</time>
      </trkpt>
      <trkpt lat="44.78429" lon="0.50185">
        <ele>162.68</ele>
        <time>2017-03-29T12:30:32Z</time>
      </trkpt>
      <trkpt lat="44.78433" lon="0.50252">
        <ele>160.055</ele>
        <time>2017-03-29T12:30:52Z</time>
      </trkpt>
      <trkpt lat="44.78372" lon="0.50314">
        <ele>149.755</ele>
        <time>2017-03-29T12:31:12Z</time>
      </trkpt>
      <trkpt lat="44.78212" lon="0.50388">
        <ele>136.717</ele>
        <time>2017-03-29T12:31:32Z</time>
      </trkpt>
      <trkpt lat="44.78109" lon="0.50379">
        <ele>133.019</ele>
        <time>2017-03-29T12:31:52Z</time>
      </trkpt>
      <trkpt lat="44.7804" lon="0.50331">
        <ele>131.67</ele>
        <time>2017-03-29T12:32:12Z</time>
      </trkpt>
      <trkpt lat="44.78022" lon="0.50337">
        <ele>129.436</ele>
        <time>2017-03-29T12:32:32Z</time>
      </trkpt>
      <trkpt lat="44.77997" lon="0.50368">
        <ele>127.948</ele>
        <time>2017-03-29T12:32:52Z</time>
      </trkpt>
      <trkpt lat="44.77963" lon="0.50378">
        <ele>126.553</ele>
        <time>2017-03-29T12:33:12Z</time>
      </trkpt>
      <trkpt lat="44.77897" lon="0.50307">
        <ele>124.904</ele>
        <time>2017-03-29T12:33:32Z</time>
      </trkpt>
      <trkpt lat="44.77884" lon="0.50309">
        <ele>124.414</ele>
        <time>2017-03-29T12:33:52Z</time>
      </trkpt>
      <trkpt lat="44.77837" lon="0.50351">
        <ele>121.008</ele>
        <time>2017-03-29T12:34:12Z</time>
      </trkpt>
      <trkpt lat="44.77821" lon="0.50355">
        <ele>121.431</ele>
        <time>2017-03-29T12:34:32Z</time>
      </trkpt>
      <trkpt lat="44.77823" lon="0.50377">
        <ele>120.846</ele>
        <time>2017-03-29T12:34:52Z</time>
      </trkpt>
      <trkpt lat="44.7781" lon="0.50378">
        <ele>121.376</ele>
        <time>2017-03-29T12:35:12Z</time>
      </trkpt>
      <trkpt lat="44.77784" lon="0.50396">
        <ele>121.518</ele>
        <time>2017-03-29T12:35:32Z</time>
      </trkpt>
      <trkpt lat="44.7773" lon="0.50481">
        <ele>129.08</ele>
        <time>2017-03-29T12:35:52Z</time>
      </trkpt>
      <trkpt lat="44.77498" lon="0.50631">
        <ele>130.051</ele>
        <time>2017-03-29T12:36:12Z</time>
      </trkpt>
      <trkpt lat="44.77425" lon="0.50665">
        <ele>128.617</ele>
        <time>2017-03-29T12:36:32Z</time>
      </trkpt>
      <trkpt lat="44.77423" lon="0.5084">
        <ele>130.569</ele>
        <time>2017-03-29T12:36:52Z</time>
      </trkpt>
      <trkpt lat="44.7744" lon="0.50886">
        <ele>134.564</ele>
        <time>2017-03-29T12:37:12Z</time>
      </trkpt>
      <trkpt lat="44.77427" lon="0.50958">
        <ele>146.906</ele>
        <time>2017-03-29T12:37:32Z</time>
      </trkpt>
      <trkpt lat="44.77446" lon="0.51019">
        <ele>157.816</ele>
        <time>2017-03-29T12:37:52Z</time>
      </trkpt>
      <trkpt lat="44.77418" lon="0.51101">
        <ele>162.308</ele>
        <time>2017-03-29T12:38:12Z</time>
      </trkpt>
      <trkpt lat="44.77411" lon="0.51152">
        <ele>160.892</ele>
        <time>2017-03-29T12:38:32Z</time>
      </trkpt>
      <trkpt lat="44.77412" lon="0.51214">
        <ele>161.447</ele>
        <time>2017-03-29T12:38:52Z</time>
      </trkpt>
      <trkpt lat="44.77405" lon="0.51311">
        <ele>160.287</ele>
        <time>2017-03-29T12:39:12Z</time>
      </trkpt>
      <trkpt lat="44.77412" lon="0.51426">
        <ele>160.269</ele>
        <time>2017-03-29T12:39:32Z</time>
      </trkpt>
      <trkpt lat="44.77424" lon="0.52167">
        <ele>169.741</ele>
        <time>2017-03-29T12:39:52Z</time>
      </trkpt>
      <trkpt lat="44.77272" lon="0.52211">
        <ele>165.422</ele>
        <time>2017-03-29T12:40:12Z</time>
      </trkpt>
      <trkpt lat="44.7727" lon="0.52277">
        <ele>163.318</ele>
        <time>2017-03-29T12:40:32Z</time>
      </trkpt>
      <trkpt lat="44.77232" lon="0.52288">
        <ele>162.02</ele>
        <time>2017-03-29T12:40:52Z</time>
      </trkpt>
      <trkpt lat="44.77228" lon="0.52325">
        <ele>157.162</ele>
        <time>2017-03-29T12:41:12Z</time>
      </trkpt>
      <trkpt lat="44.77247" lon="0.52441">
        <ele>147.083</ele>
        <time>2017-03-29T12:41:32Z</time>
      </trkpt>
      <trkpt lat="44.77275" lon="0.52451">
        <ele>148.911</ele>
        <time>2017-03-29T12:41:52Z</time>
      </trkpt>
      <trkpt lat="44.77329" lon="0.52484">
        <ele>142.208</ele>
        <time>2017-03-29T12:42:12Z</time>
      </trkpt>
      <trkpt lat="44.77372" lon="0.52525">
        <ele>139.412</ele>
        <time>2017-03-29T12:42:32Z</time>
      </trkpt>
      <trkpt lat="44.77411" lon="0.52517">
        <ele>147.977</ele>
        <time>2017-03-29T12:42:52Z</time>
      </trkpt>
      <trkpt lat="44.77478" lon="0.52612">
        <ele>157.857</ele>
        <time>2017-03-29T12:43:12Z</time>
      </trkpt>
      <trkpt lat="44.77482" lon="0.52663">
        <ele>157.119</ele>
        <time>2017-03-29T12:43:32Z</time>
      </trkpt>
      <trkpt lat="44.77506" lon="0.52672">
        <ele>155.311</ele>
        <time>2017-03-29T12:43:52Z</time>
      </trkpt>
      <trkpt lat="44.77528" lon="0.52603">
        <ele>159.662</ele>
        <time>2017-03-29T12:44:12Z</time>
      </trkpt>
      <trkpt lat="44.77532" lon="0.52519">
        <ele>161.228</ele>
        <time>2017-03-29T12:44:32Z</time>
      </trkpt>
      <trkpt lat="44.77605" lon="0.52553">
        <ele>152.42</ele>
        <time>2017-03-29T12:44:52Z</time>
      </trkpt>
      <trkpt lat="44.77648" lon="0.52474">
        <ele>154.963</ele>
        <time>2017-03-29T12:45:12Z</time>
      </trkpt>
      <trkpt lat="44.77677" lon="0.52375">
        <ele>154.544</ele>
        <time>2017-03-29T12:45:32Z</time>
      </trkpt>
      <trkpt lat="44.77748" lon="0.52362">
        <ele>156.918</ele>
        <time>2017-03-29T12:45:52Z</time>
      </trkpt>
      <trkpt lat="44.77884" lon="0.52275">
        <ele>159.008</ele>
        <time>2017-03-29T12:46:12Z</time>
      </trkpt>
      <trkpt lat="44.77925" lon="0.5222">
        <ele>161.932</ele>
        <time>2017-03-29T12:46:32Z</time>
      </trkpt>
      <trkpt lat="44.78024" lon="0.52134">
        <ele>167.977</ele>
        <time>2017-03-29T12:46:52Z</time>
      </trkpt>
      <trkpt lat="44.78085" lon="0.52334">
        <ele>162.927</ele>
        <time>2017-03-29T12:47:12Z</time>
      </trkpt>
      <trkpt lat="44.78117" lon="0.52383">
        <ele>156.749</ele>
        <time>2017-03-29T12:47:32Z</time>
      </trkpt>
      <trkpt lat="44.78095" lon="0.52609">
        <ele>144.561</ele>
        <time>2017-03-29T12:47:52Z</time>
      </trkpt>
      <trkpt lat="44.78081" lon="0.52631">
        <ele>143.182</ele>
        <time>2017-03-29T12:48:12Z</time>
      </trkpt>
      <trkpt lat="44.78047" lon="0.52646">
        <ele>140.158</ele>
        <time>2017-03-29T12:48:32Z</time>
      </trkpt>
      <trkpt lat="44.78032" lon="0.52666">
        <ele>136.67</ele>
        <time>2017-03-29T12:48:52Z</time>
      </trkpt>
      <trkpt lat="44.78016" lon="0.5275">
        <ele>127.117</ele>
        <time>2017-03-29T12:49:12Z</time>
      </trkpt>
      <trkpt lat="44.78015" lon="0.5278">
        <ele>125.687</ele>
        <time>2017-03-29T12:49:32Z</time>
      </trkpt>
      <trkpt lat="44.78008" lon="0.52788">
        <ele>125.815</ele>
        <time>2017-03-29T12:49:52Z</time>
      </trkpt>
      <trkpt lat="44.77987" lon="0.52864">
        <ele>132.508</ele>
        <time>2017-03-29T12:50:12Z</time>
      </trkpt>
      <trkpt lat="44.77944" lon="0.53174">
        <ele>123.227</ele>
        <time>2017-03-29T12:50:32Z</time>
      </trkpt>
      <trkpt lat="44.77941" lon="0.53243">
        <ele>125.712</ele>
        <time>2017-03-29T12:50:52Z</time>
      </trkpt>
      <trkpt lat="44.77985" lon="0.53375">
        <ele>127.052</ele>
        <time>2017-03-29T12:51:12Z</time>
      </trkpt>
      <trkpt lat="44.77994" lon="0.53448">
        <ele>128.224</ele>
        <time>2017-03-29T12:51:32Z</time>
      </trkpt>
      <trkpt lat="44.78015" lon="0.53809">
        <ele>131.956</ele>
        <time>2017-03-29T12:51:52Z</time>
      </trkpt>
      <trkpt lat="44.78024" lon="0.53847">
        <ele>132.327</ele>
        <time>2017-03-29T12:52:12Z</time>
      </trkpt>
      <trkpt lat="44.78051" lon="0.53872">
        <ele>129.473</ele>
        <time>2017-03-29T12:52:32Z</time>
      </trkpt>
      <trkpt lat="44.78113" lon="0.5391">
        <ele>127.035</ele>
        <time>2017-03-29T12:52:52Z</time>
      </trkpt>
      <trkpt lat="44.78133" lon="0.53932">
        <ele>126.038</ele>
        <time>2017-03-29T12:53:12Z</time>
      </trkpt>
      <trkpt lat="44.78149" lon="0.54054">
        <ele>122.57</ele>
        <time>2017-03-29T12:53:32Z</time>
      </trkpt>
      <trkpt lat="44.78354" lon="0.54087">
        <ele>116.217</ele>
        <time>2017-03-29T12:53:52Z</time>
      </trkpt>
      <trkpt lat="44.7832" lon="0.54299">
        <ele>111.708</ele>
        <time>2017-03-29T12:54:12Z</time>
      </trkpt>
      <trkpt lat="44.78259" lon="0.54618">
        <ele>102.559</ele>
        <time>2017-03-29T12:54:32Z</time>
      </trkpt>
      <trkpt lat="44.78248" lon="0.54655">
        <ele>103.624</ele>
        <time>2017-03-29T12:54:52Z</time>
      </trkpt>
      <trkpt lat="44.78222" lon="0.54685">
        <ele>105.774</ele>
        <time>2017-03-29T12:55:12Z</time>
      </trkpt>
      <trkpt lat="44.7821" lon="0.54726">
        <ele>106.146</ele>
        <time>2017-03-29T12:55:32Z</time>
      </trkpt>
      <trkpt lat="44.78206" lon="0.54782">
        <ele>107.948</ele>
        <time>2017-03-29T12:55:52Z</time>
      </trkpt>
      <trkpt lat="44.78218" lon="0.54839">
        <ele>109.339</ele>
        <time>2017-03-29T12:56:12Z</time>
      </trkpt>
      <trkpt lat="44.78244" lon="0.54894">
        <ele>108.235</ele>
        <time>2017-03-29T12:56:32Z</time>
      </trkpt>
      <trkpt lat="44.78248" lon="0.54939">
        <ele>105.587</ele>
        <time>2017-03-29T12:56:52Z</time>
      </trkpt>
      <trkpt lat="44.78244" lon="0.55044">
        <ele>104.922</ele>
        <time>2017-03-29T12:57:12Z</time>
      </trkpt>
      <trkpt lat="44.78204" lon="0.55205">
        <ele>102.262</ele>
        <time>2017-03-29T12:57:32Z</time>
      </trkpt>
      <trkpt lat="44.7809" lon="0.55438">
        <ele>99.108</ele>
        <time>2017-03-29T12:57:52Z</time>
      </trkpt>
      <trkpt lat="44.78103" lon="0.55449">
        <ele>98.708</ele>
        <time>2017-03-29T12:58:12Z</time>
      </trkpt>
      <trkpt lat="44.78107" lon="0.55464">
        <ele>97.738</ele>
        <time>2017-03-29T12:58:32Z</time>
      </trkpt>
      <trkpt lat="44.78097" lon="0.55469">
        <ele>97.783</ele>
        <time>2017-03-29T12:58:52Z</time>
      </trkpt>
      <trkpt lat="44.78108" lon="0.55494">
        <ele>97.173</ele>
        <time>2017-03-29T12:59:12Z</time>
      </trkpt>
      <trkpt lat="44.78098" lon="0.55529">
        <ele>94.835</ele>
        <time>2017-03-29T12:59:32Z</time>
      </trkpt>
      <trkpt lat="44.78024" lon="0.55674">
        <ele>79.287</ele>
        <time>2017-03-29T12:59:52Z</time>
      </trkpt>
      <trkpt lat="44.78001" lon="0.55741">
        <ele>73.398</ele>
        <time>2017-03-29T13:00:12Z</time>
      </trkpt>
      <trkpt lat="44.77986" lon="0.55823">
        <ele>69.094</ele>
        <time>2017-03-29T13:00:32Z</time>
      </trkpt>
      <trkpt lat="44.7798" lon="0.55892">
        <ele>65.286</ele>
        <time>2017-03-29T13:00:52Z</time>
      </trkpt>
      <trkpt lat="44.77948" lon="0.55937">
        <ele>64.011</ele>
        <time>2017-03-29T13:01:12Z</time>
      </trkpt>
      <trkpt lat="44.77941" lon="0.55964">
        <ele>63.021</ele>
        <time>2017-03-29T13:01:32Z</time>
      </trkpt>
      <trkpt lat="44.77944" lon="0.56003">
        <ele>60.903</ele>
        <time>2017-03-29T13:01:52Z</time>
      </trkpt>
      <trkpt lat="44.77996" lon="0.55977">
        <ele>61.908</ele>
        <time>2017-03-29T13:02:12Z</time>
      </trkpt>
      <trkpt lat="44.78098" lon="0.55986">
        <ele>59.537</ele>
        <time>2017-03-29T13:02:32Z</time>
      </trkpt>
      <trkpt lat="44.78134" lon="0.56">
        <ele>58.222</ele>
        <time>2017-03-29T13:02:52Z</time>
      </trkpt>
      <trkpt lat="44.7817" lon="0.5603">
        <ele>58.092</ele>
        <time>2017-03-29T13:03:12Z</time>
      </trkpt>
      <trkpt lat="44.78201" lon="0.56078">
        <ele>57.434</ele>
        <time>2017-03-29T13:03:32Z</time>
      </trkpt>
      <trkpt lat="44.78264" lon="0.56225">
        <ele>54.026</ele>
        <time>2017-03-29T13:03:52Z</time>
      </trkpt>
      <trkpt lat="44.78323" lon="0.56235">
        <ele>54.557</ele>
        <time>2017-03-29T13:04:12Z</time>
      </trkpt>
      <trkpt lat="44.78364" lon="0.56206">
        <ele>53.493</ele>
        <time>2017-03-29T13:04:32Z</time>
      </trkpt>
      <trkpt lat="44.78558" lon="0.56038">
        <ele>55.335</ele>
        <time>2017-03-29T13:04:52Z</time>
      </trkpt>
      <trkpt lat="44.78581" lon="0.56028">
        <ele>55.049</ele>
        <time>2017-03-29T13:05:12Z</time>
      </trkpt>
      <trkpt lat="44.78635" lon="0.56029">
        <ele>57.702</ele>
        <time>2017-03-29T13:05:32Z</time>
      </trkpt>
      <trkpt lat="44.78695" lon="0.56004">
        <ele>62.122</ele>
        <time>2017-03-29T13:05:52Z</time>
      </trkpt>
      <trkpt lat="44.78708" lon="0.56005">
        <ele>64.208</ele>
        <time>2017-03-29T13:06:12Z</time>
      </trkpt>
      <trkpt lat="44.78732" lon="0.55988">
        <ele>62.19</ele>
        <time>2017-03-29T13:06:32Z</time>
      </trkpt>
      <trkpt lat="44.7893" lon="0.55907">
        <ele>59.025</ele>
        <time>2017-03-29T13:06:52Z</time>
      </trkpt>
      <trkpt lat="44.7897" lon="0.55917">
        <ele>59.965</ele>
        <time>2017-03-29T13:07:12Z</time>
      </trkpt>
      <trkpt lat="44.79123" lon="0.55997">
        <ele>58.347</ele>
        <time>2017-03-29T13:07:32Z</time>
      </trkpt>
      <trkpt lat="44.79171" lon="0.56">
        <ele>61.079</ele>
        <time>2017-03-29T13:07:52Z</time>
      </trkpt>
      <trkpt lat="44.79349" lon="0.55961">
        <ele>61.09</ele>
        <time>2017-03-29T13:08:12Z</time>
      </trkpt>
      <trkpt lat="44.79229" lon="0.56132">
        <ele>76.556</ele>
        <time>2017-03-29T13:08:32Z</time>
      </trkpt>
      <trkpt lat="44.79226" lon="0.56154">
        <ele>79.748</ele>
        <time>2017-03-29T13:08:52Z</time>
      </trkpt>
      <trkpt lat="44.79251" lon="0.56271">
        <ele>95.853</ele>
        <time>2017-03-29T13:09:12Z</time>
      </trkpt>
      <trkpt lat="44.79219" lon="0.56355">
        <ele>96.204</ele>
        <time>2017-03-29T13:09:32Z</time>
      </trkpt>
      <trkpt lat="44.79233" lon="0.56397">
        <ele>98.414</ele>
        <time>2017-03-29T13:09:52Z</time>
      </trkpt>
      <trkpt lat="44.79193" lon="0.56557">
        <ele>98.208</ele>
        <time>2017-03-29T13:10:12Z</time>
      </trkpt>
      <trkpt lat="44.79159" lon="0.56585">
        <ele>100.741</ele>
        <time>2017-03-29T13:10:32Z</time>
      </trkpt>
      <trkpt lat="44.7913" lon="0.56712">
        <ele>100.936</ele>
        <time>2017-03-29T13:10:52Z</time>
      </trkpt>
      <trkpt lat="44.79197" lon="0.56809">
        <ele>102.366</ele>
        <time>2017-03-29T13:11:12Z</time>
      </trkpt>
      <trkpt lat="44.79229" lon="0.56837">
        <ele>103.428</ele>
        <time>2017-03-29T13:11:32Z</time>
      </trkpt>
      <trkpt lat="44.79229" lon="0.56918">
        <ele>106.51</ele>
        <time>2017-03-29T13:11:52Z</time>
      </trkpt>
      <trkpt lat="44.7927" lon="0.56937">
        <ele>109.471</ele>
        <time>2017-03-29T13:12:12Z</time>
      </trkpt>
      <trkpt lat="44.7931" lon="0.56997">
        <ele>109.827</ele>
        <time>2017-03-29T13:12:32Z</time>
      </trkpt>
      <trkpt lat="44.7943" lon="0.57093">
        <ele>108.429</ele>
        <time>2017-03-29T13:12:52Z</time>
      </trkpt>
      <trkpt lat="44.79428" lon="0.57114">
        <ele>108.165</ele>
        <time>2017-03-29T13:13:12Z</time>
      </trkpt>
      <trkpt lat="44.79401" lon="0.57167">
        <ele>108.168</ele>
        <time>2017-03-29T13:13:32Z</time>
      </trkpt>
      <trkpt lat="44.7935" lon="0.57296">
        <ele>107.914</ele>
        <time>2017-03-29T13:13:52Z</time>
      </trkpt>
      <trkpt lat="44.7931" lon="0.57426">
        <ele>110.808</ele>
        <time>2017-03-29T13:14:12Z</time>
      </trkpt>
      <trkpt lat="44.79302" lon="0.57487">
        <ele>111.132</ele>
        <time>2017-03-29T13:14:32Z</time>
      </trkpt>
      <trkpt lat="44.7929" lon="0.57552">
        <ele>110.247</ele>
        <time>2017-03-29T13:14:52Z</time>
      </trkpt>
      <trkpt lat="44.79259" lon="0.57629">
        <ele>113.477</ele>
        <time>2017-03-29T13:15:12Z</time>
      </trkpt>
      <trkpt lat="44.7923" lon="0.57686">
        <ele>112.519</ele>
        <time>2017-03-29T13:15:32Z</time>
      </trkpt>
      <trkpt lat="44.79218" lon="0.57735">
        <ele>111.781</ele>
        <time>2017-03-29T13:15:52Z</time>
      </trkpt>
      <trkpt lat="44.79221" lon="0.57818">
        <ele>113.662</ele>
        <time>2017-03-29T13:16:12Z</time>
      </trkpt>
      <trkpt lat="44.79223" lon="0.57914">
        <ele>111.128</ele>
        <time>2017-03-29T13:16:32Z</time>
      </trkpt>
      <trkpt lat="44.79253" lon="0.58162">
        <ele>113.99</ele>
        <time>2017-03-29T13:16:52Z</time>
      </trkpt>
      <trkpt lat="44.79234" lon="0.58286">
        <ele>109.365</ele>
        <time>2017-03-29T13:17:12Z</time>
      </trkpt>
      <trkpt lat="44.79226" lon="0.58404">
        <ele>109.968</ele>
        <time>2017-03-29T13:17:32Z</time>
      </trkpt>
      <trkpt lat="44.79235" lon="0.58516">
        <ele>111.214</ele>
        <time>2017-03-29T13:17:52Z</time>
      </trkpt>
      <trkpt lat="44.79213" lon="0.58593">
        <ele>110.808</ele>
        <time>2017-03-29T13:18:12Z</time>
      </trkpt>
      <trkpt lat="44.79152" lon="0.58775">
        <ele>108.152</ele>
        <time>2017-03-29T13:18:32Z</time>
      </trkpt>
      <trkpt lat="44.79145" lon="0.58933">
        <ele>111.537</ele>
        <time>2017-03-29T13:18:52Z</time>
      </trkpt>
      <trkpt lat="44.79131" lon="0.58982">
        <ele>112.177</ele>
        <time>2017-03-29T13:19:12Z</time>
      </trkpt>
      <trkpt lat="44.7909" lon="0.59149">
        <ele>114.929</ele>
        <time>2017-03-29T13:19:32Z</time>
      </trkpt>
      <trkpt lat="44.79148" lon="0.59334">
        <ele>110.781</ele>
        <time>2017-03-29T13:19:52Z</time>
      </trkpt>
      <trkpt lat="44.79212" lon="0.59435">
        <ele>111.422</ele>
        <time>2017-03-29T13:20:12Z</time>
      </trkpt>
      <trkpt lat="44.79286" lon="0.59549">
        <ele>119.568</ele>
        <time>2017-03-29T13:20:32Z</time>
      </trkpt>
      <trkpt lat="44.79324" lon="0.59566">
        <ele>119.09</ele>
        <time>2017-03-29T13:20:52Z</time>
      </trkpt>
      <trkpt lat="44.79304" lon="0.59695">
        <ele>122.917</ele>
        <time>2017-03-29T13:21:12Z</time>
      </trkpt>
      <trkpt lat="44.79303" lon="0.59734">
        <ele>120.687</ele>
        <time>2017-03-29T13:21:32Z</time>
      </trkpt>
      <trkpt lat="44.79316" lon="0.59756">
        <ele>120.015</ele>
        <time>2017-03-29T13:21:52Z</time>
      </trkpt>
      <trkpt lat="44.79316" lon="0.59756">
        <ele>120.015</ele>
        <time>2017-03-29T13:21:52Z</time>
      </trkpt>
      <trkpt lat="44.79316" lon="0.59756">
        <ele>120.015</ele>
        <time>2017-03-29T13:21:52Z</time>
      </trkpt>
      <trkpt lat="44.79316" lon="0.59756">
        <ele>120.015</ele>
        <time>2017-03-29T13:21:52Z</time>
      </trkpt>
      <trkpt lat="44.79316" lon="0.59756">
        <ele>120.015</ele>
        <time>2017-03-29T13:21:52Z</time>
      </trkpt>
      <trkpt lat="44.79316" lon="0.59756">
        <ele>120.015</ele>
        <time>2017-03-29T13:21:52Z</time>
      </trkpt>
      <trkpt lat="44.79349" lon="0.59832">
        <ele>118.408</ele>
        <time>2017-03-29T13:22:12Z</time>
      </trkpt>
      <trkpt lat="44.7935" lon="0.59971">
        <ele>122.477</ele>
        <time>2017-03-29T13:22:32Z</time>
      </trkpt>
      <trkpt lat="44.7937" lon="0.5999">
        <ele>121.562</ele>
        <time>2017-03-29T13:22:52Z</time>
      </trkpt>
      <trkpt lat="44.79435" lon="0.59973">
        <ele>118.612</ele>
        <time>2017-03-29T13:23:12Z</time>
      </trkpt>
      <trkpt lat="44.79495" lon="0.59969">
        <ele>117.244</ele>
        <time>2017-03-29T13:23:32Z</time>
      </trkpt>
      <trkpt lat="44.79602" lon="0.60012">
        <ele>114.756</ele>
        <time>2017-03-29T13:23:52Z</time>
      </trkpt>
      <trkpt lat="44.79585" lon="0.60074">
        <ele>113.477</ele>
        <time>2017-03-29T13:24:12Z</time>
      </trkpt>
      <trkpt lat="44.79557" lon="0.60111">
        <ele>113.023</ele>
        <time>2017-03-29T13:24:32Z</time>
      </trkpt>
      <trkpt lat="44.79536" lon="0.60223">
        <ele>112.625</ele>
        <time>2017-03-29T13:24:52Z</time>
      </trkpt>
      <trkpt lat="44.79622" lon="0.60262">
        <ele>119.745</ele>
        <time>2017-03-29T13:25:12Z</time>
      </trkpt>
      <trkpt lat="44.79644" lon="0.60256">
        <ele>120.847</ele>
        <time>2017-03-29T13:25:32Z</time>
      </trkpt>
      <trkpt lat="44.79698" lon="0.60287">
        <ele>126.311</ele>
        <time>2017-03-29T13:25:52Z</time>
      </trkpt>
      <trkpt lat="44.79716" lon="0.60306">
        <ele>127.008</ele>
        <time>2017-03-29T13:26:12Z</time>
      </trkpt>
      <trkpt lat="44.79773" lon="0.60334">
        <ele>127.83</ele>
        <time>2017-03-29T13:26:32Z</time>
      </trkpt>
      <trkpt lat="44.7982" lon="0.60366">
        <ele>131.035</ele>
        <time>2017-03-29T13:26:52Z</time>
      </trkpt>
      <trkpt lat="44.79851" lon="0.60448">
        <ele>131.975</ele>
        <time>2017-03-29T13:27:12Z</time>
      </trkpt>
      <trkpt lat="44.79911" lon="0.60503">
        <ele>131.867</ele>
        <time>2017-03-29T13:27:32Z</time>
      </trkpt>
      <trkpt lat="44.79927" lon="0.60536">
        <ele>132.929</ele>
        <time>2017-03-29T13:27:52Z</time>
      </trkpt>
      <trkpt lat="44.79971" lon="0.60587">
        <ele>136.95</ele>
        <time>2017-03-29T13:28:12Z</time>
      </trkpt>
      <trkpt lat="44.79959" lon="0.60624">
        <ele>136.346</ele>
        <time>2017-03-29T13:28:32Z</time>
      </trkpt>
      <trkpt lat="44.8007" lon="0.60678">
        <ele>132.528</ele>
        <time>2017-03-29T13:28:52Z</time>
      </trkpt>
      <trkpt lat="44.80052" lon="0.60746">
        <ele>133.016</ele>
        <time>2017-03-29T13:29:12Z</time>
      </trkpt>
      <trkpt lat="44.80156" lon="0.60778">
        <ele>131.076</ele>
        <time>2017-03-29T13:29:32Z</time>
      </trkpt>
      <trkpt lat="44.80257" lon="0.60946">
        <ele>137.313</ele>
        <time>2017-03-29T13:29:52Z</time>
      </trkpt>
      <trkpt lat="44.80285" lon="0.60913">
        <ele>137.308</ele>
        <time>2017-03-29T13:30:12Z</time>
      </trkpt>
      <trkpt lat="44.80333" lon="0.60878">
        <ele>138.647</ele>
        <time>2017-03-29T13:30:32Z</time>
      </trkpt>
      <trkpt lat="44.80373" lon="0.60857">
        <ele>139.252</ele>
        <time>2017-03-29T13:30:52Z</time>
      </trkpt>
      <trkpt lat="44.80401" lon="0.60837">
        <ele>139.492</ele>
        <time>2017-03-29T13:31:12Z</time>
      </trkpt>
      <trkpt lat="44.80425" lon="0.60958">
        <ele>144.134</ele>
        <time>2017-03-29T13:31:32Z</time>
      </trkpt>
      <trkpt lat="44.80501" lon="0.61202">
        <ele>142.356</ele>
        <time>2017-03-29T13:31:52Z</time>
      </trkpt>
      <trkpt lat="44.80497" lon="0.61235">
        <ele>142.767</ele>
        <time>2017-03-29T13:32:12Z</time>
      </trkpt>
      <trkpt lat="44.80455" lon="0.61304">
        <ele>141.093</ele>
        <time>2017-03-29T13:32:32Z</time>
      </trkpt>
      <trkpt lat="44.80426" lon="0.61391">
        <ele>138.695</ele>
        <time>2017-03-29T13:32:52Z</time>
      </trkpt>
      <trkpt lat="44.80364" lon="0.61446">
        <ele>136.839</ele>
        <time>2017-03-29T13:33:12Z</time>
      </trkpt>
      <trkpt lat="44.80314" lon="0.61483">
        <ele>130.901</ele>
        <time>2017-03-29T13:33:32Z</time>
      </trkpt>
      <trkpt lat="44.80288" lon="0.61515">
        <ele>125.921</ele>
        <time>2017-03-29T13:33:52Z</time>
      </trkpt>
      <trkpt lat="44.80284" lon="0.61551">
        <ele>123.108</ele>
        <time>2017-03-29T13:34:12Z</time>
      </trkpt>
      <trkpt lat="44.80303" lon="0.61583">
        <ele>119.249</ele>
        <time>2017-03-29T13:34:32Z</time>
      </trkpt>
      <trkpt lat="44.80476" lon="0.61599">
        <ele>116.644</ele>
        <time>2017-03-29T13:34:52Z</time>
      </trkpt>
      <trkpt lat="44.80533" lon="0.61615">
        <ele>111.664</ele>
        <time>2017-03-29T13:35:12Z</time>
      </trkpt>
      <trkpt lat="44.80593" lon="0.6161">
        <ele>111.826</ele>
        <time>2017-03-29T13:35:32Z</time>
      </trkpt>
      <trkpt lat="44.80618" lon="0.61666">
        <ele>105.368</ele>
        <time>2017-03-29T13:35:52Z</time>
      </trkpt>
      <trkpt lat="44.80637" lon="0.61688">
        <ele>105.259</ele>
        <time>2017-03-29T13:36:12Z</time>
      </trkpt>
      <trkpt lat="44.80681" lon="0.61694">
        <ele>103.535</ele>
        <time>2017-03-29T13:36:32Z</time>
      </trkpt>
      <trkpt lat="44.80692" lon="0.61713">
        <ele>101.197</ele>
        <time>2017-03-29T13:36:52Z</time>
      </trkpt>
      <trkpt lat="44.80693" lon="0.6177">
        <ele>97.083</ele>
        <time>2017-03-29T13:37:12Z</time>
      </trkpt>
      <trkpt lat="44.80705" lon="0.61808">
        <ele>96.125</ele>
        <time>2017-03-29T13:37:32Z</time>
      </trkpt>
      <trkpt lat="44.80695" lon="0.61868">
        <ele>99.817</ele>
        <time>2017-03-29T13:37:52Z</time>
      </trkpt>
      <trkpt lat="44.8067" lon="0.61936">
        <ele>105.508</ele>
        <time>2017-03-29T13:38:12Z</time>
      </trkpt>
      <trkpt lat="44.80671" lon="0.62">
        <ele>102.984</ele>
        <time>2017-03-29T13:38:32Z</time>
      </trkpt>
      <trkpt lat="44.80659" lon="0.62098">
        <ele>101.749</ele>
        <time>2017-03-29T13:38:52Z</time>
      </trkpt>
      <trkpt lat="44.80634" lon="0.6221">
        <ele>102.349</ele>
        <time>2017-03-29T13:39:12Z</time>
      </trkpt>
      <trkpt lat="44.80592" lon="0.62315">
        <ele>105.331</ele>
        <time>2017-03-29T13:39:32Z</time>
      </trkpt>
      <trkpt lat="44.80595" lon="0.62338">
        <ele>105.693</ele>
        <time>2017-03-29T13:39:52Z</time>
      </trkpt>
      <trkpt lat="44.80674" lon="0.62479">
        <ele>118.594</ele>
        <time>2017-03-29T13:40:12Z</time>
      </trkpt>
      <trkpt lat="44.80712" lon="0.62467">
        <ele>119.56</ele>
        <time>2017-03-29T13:40:32Z</time>
      </trkpt>
      <trkpt lat="44.80745" lon="0.62493">
        <ele>123.342</ele>
        <time>2017-03-29T13:40:52Z</time>
      </trkpt>
      <trkpt lat="44.80769" lon="0.62546">
        <ele>126.398</ele>
        <time>2017-03-29T13:41:12Z</time>
      </trkpt>
      <trkpt lat="44.80776" lon="0.62584">
        <ele>126.215</ele>
        <time>2017-03-29T13:41:32Z</time>
      </trkpt>
      <trkpt lat="44.80776" lon="0.62654">
        <ele>129.326</ele>
        <time>2017-03-29T13:41:52Z</time>
      </trkpt>
      <trkpt lat="44.80774" lon="0.62715">
        <ele>130.908</ele>
        <time>2017-03-29T13:42:12Z</time>
      </trkpt>
      <trkpt lat="44.80787" lon="0.6272">
        <ele>129.725</ele>
        <time>2017-03-29T13:42:32Z</time>
      </trkpt>
      <trkpt lat="44.80815" lon="0.62703">
        <ele>129.24</ele>
        <time>2017-03-29T13:42:52Z</time>
      </trkpt>
      <trkpt lat="44.80844" lon="0.62703">
        <ele>130.12</ele>
        <time>2017-03-29T13:43:12Z</time>
      </trkpt>
      <trkpt lat="44.80987" lon="0.62776">
        <ele>151.152</ele>
        <time>2017-03-29T13:43:32Z</time>
      </trkpt>
      <trkpt lat="44.81077" lon="0.62845">
        <ele>165.714</ele>
        <time>2017-03-29T13:43:52Z</time>
      </trkpt>
      <trkpt lat="44.81062" lon="0.629">
        <ele>165.655</ele>
        <time>2017-03-29T13:44:12Z</time>
      </trkpt>
      <trkpt lat="44.8103" lon="0.62984">
        <ele>164.021</ele>
        <time>2017-03-29T13:44:32Z</time>
      </trkpt>
      <trkpt lat="44.8103" lon="0.63033">
        <ele>165.023</ele>
        <time>2017-03-29T13:44:52Z</time>
      </trkpt>
      <trkpt lat="44.81052" lon="0.63144">
        <ele>165.843</ele>
        <time>2017-03-29T13:45:12Z</time>
      </trkpt>
      <trkpt lat="44.81044" lon="0.63206">
        <ele>165.164</ele>
        <time>2017-03-29T13:45:32Z</time>
      </trkpt>
      <trkpt lat="44.80985" lon="0.63217">
        <ele>167.41</ele>
        <time>2017-03-29T13:45:52Z</time>
      </trkpt>
      <trkpt lat="44.80889" lon="0.63226">
        <ele>163.008</ele>
        <time>2017-03-29T13:46:12Z</time>
      </trkpt>
      <trkpt lat="44.80878" lon="0.63245">
        <ele>161.82</ele>
        <time>2017-03-29T13:46:32Z</time>
      </trkpt>
      <trkpt lat="44.80868" lon="0.63313">
        <ele>161.885</ele>
        <time>2017-03-29T13:46:52Z</time>
      </trkpt>
      <trkpt lat="44.80843" lon="0.63363">
        <ele>160.585</ele>
        <time>2017-03-29T13:47:12Z</time>
      </trkpt>
      <trkpt lat="44.80835" lon="0.63524">
        <ele>167.837</ele>
        <time>2017-03-29T13:47:32Z</time>
      </trkpt>
      <trkpt lat="44.80818" lon="0.6357">
        <ele>169.559</ele>
        <time>2017-03-29T13:47:52Z</time>
      </trkpt>
      <trkpt lat="44.8074" lon="0.63687">
        <ele>176.32</ele>
        <time>2017-03-29T13:48:12Z</time>
      </trkpt>
      <trkpt lat="44.80637" lon="0.63803">
        <ele>173.936</ele>
        <time>2017-03-29T13:48:32Z</time>
      </trkpt>
      <trkpt lat="44.80543" lon="0.64011">
        <ele>172.298</ele>
        <time>2017-03-29T13:48:52Z</time>
      </trkpt>
      <trkpt lat="44.80462" lon="0.64086">
        <ele>171.324</ele>
        <time>2017-03-29T13:49:12Z</time>
      </trkpt>
      <trkpt lat="44.80402" lon="0.64228">
        <ele>170.904</ele>
        <time>2017-03-29T13:49:32Z</time>
      </trkpt>
      <trkpt lat="44.80323" lon="0.6442">
        <ele>173.014</ele>
        <time>2017-03-29T13:49:52Z</time>
      </trkpt>
      <trkpt lat="44.80253" lon="0.64521">
        <ele>173.008</ele>
        <time>2017-03-29T13:50:12Z</time>
      </trkpt>
      <trkpt lat="44.8018" lon="0.64683">
        <ele>170.818</ele>
        <time>2017-03-29T13:50:32Z</time>
      </trkpt>
      <trkpt lat="44.80086" lon="0.64578">
        <ele>170.083</ele>
        <time>2017-03-29T13:50:52Z</time>
      </trkpt>
      <trkpt lat="44.79921" lon="0.64329">
        <ele>174.043</ele>
        <time>2017-03-29T13:51:12Z</time>
      </trkpt>
      <trkpt lat="44.79792" lon="0.64321">
        <ele>169.835</ele>
        <time>2017-03-29T13:51:32Z</time>
      </trkpt>
      <trkpt lat="44.79704" lon="0.64336">
        <ele>168.9</ele>
      </trkpt>
      <trkpt lat="44.79578" lon="0.64342">
        <ele>165.9</ele>
      </trkpt>
      <trkpt lat="44.79544" lon="0.64342">
        <ele>165.1</ele>
      </trkpt>
      <trkpt lat="44.79548" lon="0.6436">
        <ele>165.4</ele>
      </trkpt>
      <trkpt lat="44.79521" lon="0.64504">
        <ele>163.2</ele>
      </trkpt>
      <trkpt lat="44.79535" lon="0.64528">
        <ele>162.8</ele>
      </trkpt>
      <trkpt lat="44.79339" lon="0.6494">
        <ele>154.3</ele>
      </trkpt>
    </trkseg>
  </trk>
  <trk>
    <name><![CDATA[Mauzac]]></name>
    <extensions>
      <line xmlns="http://www.topografix.com/GPX/gpx_style/0/2">
        <color>00fbff</color>
        <width>4</width>
      </line>
    </extensions>
    <trkseg>
      <trkpt lat="44.79334" lon="0.6494">
        <ele>154.7</ele>
      </trkpt>
      <trkpt lat="44.79334" lon="0.6494">
        <ele>154.7</ele>
      </trkpt>
      <trkpt lat="44.79334" lon="0.6494">
        <ele>154.7</ele>
      </trkpt>
      <trkpt lat="44.79334" lon="0.6494">
        <ele>154.7</ele>
      </trkpt>
      <trkpt lat="44.79334" lon="0.6494">
        <ele>154.7</ele>
      </trkpt>
      <trkpt lat="44.79334" lon="0.6494">
        <ele>154.7</ele>
      </trkpt>
      <trkpt lat="44.79334" lon="0.6494">
        <ele>154.7</ele>
      </trkpt>
      <trkpt lat="44.79334" lon="0.6494">
        <ele>154.7</ele>
      </trkpt>
      <trkpt lat="44.79294" lon="0.64836">
        <ele>156.5</ele>
      </trkpt>
      <trkpt lat="44.79257" lon="0.64796">
        <ele>155.3</ele>
      </trkpt>
      <trkpt lat="44.79209" lon="0.64716">
        <ele>152.3</ele>
      </trkpt>
      <trkpt lat="44.79168" lon="0.64586">
        <ele>153</ele>
      </trkpt>
      <trkpt lat="44.79158" lon="0.64532">
        <ele>154.2</ele>
      </trkpt>
      <trkpt lat="44.79132" lon="0.64464">
        <ele>154.4</ele>
      </trkpt>
      <trkpt lat="44.78983" lon="0.6446">
        <ele>150.9</ele>
      </trkpt>
      <trkpt lat="44.78942" lon="0.64424">
        <ele>151.924</ele>
        <time>2017-03-29T13:58:52Z</time>
      </trkpt>
      <trkpt lat="44.78893" lon="0.64422">
        <ele>149.194</ele>
        <time>2017-03-29T13:59:12Z</time>
      </trkpt>
      <trkpt lat="44.78867" lon="0.64435">
        <ele>146.816</ele>
        <time>2017-03-29T13:59:32Z</time>
      </trkpt>
      <trkpt lat="44.78838" lon="0.64512">
        <ele>142.768</ele>
        <time>2017-03-29T13:59:52Z</time>
      </trkpt>
      <trkpt lat="44.78815" lon="0.64507">
        <ele>144.379</ele>
        <time>2020-11-25T05:10:20Z</time>
      </trkpt>
      <trkpt lat="44.7877" lon="0.64451">
        <ele>150.015</ele>
        <time>2020-11-25T05:10:40Z</time>
      </trkpt>
      <trkpt lat="44.78689" lon="0.64566">
        <ele>150.287</ele>
        <time>2020-11-25T05:11:00Z</time>
      </trkpt>
      <trkpt lat="44.78728" lon="0.64608">
        <ele>148.378</ele>
        <time>2017-03-29T14:01:32Z</time>
      </trkpt>
      <trkpt lat="44.78675" lon="0.64676">
        <ele>146.633</ele>
        <time>2017-03-29T14:01:52Z</time>
      </trkpt>
      <trkpt lat="44.78609" lon="0.64811">
        <ele>144.026</ele>
        <time>2017-03-29T14:02:12Z</time>
      </trkpt>
      <trkpt lat="44.78604" lon="0.64847">
        <ele>144.308</ele>
        <time>2017-03-29T14:02:32Z</time>
      </trkpt>
      <trkpt lat="44.78615" lon="0.64932">
        <ele>141.493</ele>
        <time>2017-03-29T14:02:52Z</time>
      </trkpt>
      <trkpt lat="44.78611" lon="0.64977">
        <ele>143.228</ele>
        <time>2017-03-29T14:03:12Z</time>
      </trkpt>
      <trkpt lat="44.78616" lon="0.65024">
        <ele>143.678</ele>
        <time>2017-03-29T14:03:32Z</time>
      </trkpt>
      <trkpt lat="44.78606" lon="0.6511">
        <ele>146.91</ele>
        <time>2017-03-29T14:03:52Z</time>
      </trkpt>
      <trkpt lat="44.78606" lon="0.65173">
        <ele>148.462</ele>
        <time>2017-03-29T14:04:12Z</time>
      </trkpt>
      <trkpt lat="44.78595" lon="0.65237">
        <ele>150.463</ele>
        <time>2017-03-29T14:04:32Z</time>
      </trkpt>
      <trkpt lat="44.78569" lon="0.6529">
        <ele>150.889</ele>
        <time>2017-03-29T14:04:52Z</time>
      </trkpt>
      <trkpt lat="44.78539" lon="0.65337">
        <ele>152.461</ele>
        <time>2017-03-29T14:05:12Z</time>
      </trkpt>
      <trkpt lat="44.78527" lon="0.65398">
        <ele>151.645</ele>
        <time>2017-03-29T14:05:32Z</time>
      </trkpt>
      <trkpt lat="44.78511" lon="0.65435">
        <ele>150.847</ele>
        <time>2017-03-29T14:05:52Z</time>
      </trkpt>
      <trkpt lat="44.78499" lon="0.65522">
        <ele>152.811</ele>
        <time>2017-03-29T14:06:12Z</time>
      </trkpt>
      <trkpt lat="44.78502" lon="0.65593">
        <ele>152.908</ele>
        <time>2017-03-29T14:06:32Z</time>
      </trkpt>
      <trkpt lat="44.78581" lon="0.65797">
        <ele>145.88</ele>
        <time>2017-03-29T14:06:52Z</time>
      </trkpt>
      <trkpt lat="44.78693" lon="0.65981">
        <ele>130.165</ele>
        <time>2017-03-29T14:07:12Z</time>
      </trkpt>
      <trkpt lat="44.78743" lon="0.66116">
        <ele>125.665</ele>
        <time>2017-03-29T14:07:32Z</time>
      </trkpt>
      <trkpt lat="44.78827" lon="0.66003">
        <ele>119.637</ele>
        <time>2017-03-29T14:07:52Z</time>
      </trkpt>
      <trkpt lat="44.78834" lon="0.65962">
        <ele>117.099</ele>
        <time>2017-03-29T14:08:12Z</time>
      </trkpt>
      <trkpt lat="44.78842" lon="0.65985">
        <ele>117.19</ele>
        <time>2017-03-29T14:08:32Z</time>
      </trkpt>
      <trkpt lat="44.78869" lon="0.65973">
        <ele>114.576</ele>
        <time>2017-03-29T14:08:52Z</time>
      </trkpt>
      <trkpt lat="44.78916" lon="0.65966">
        <ele>110.648</ele>
        <time>2017-03-29T14:09:12Z</time>
      </trkpt>
      <trkpt lat="44.78932" lon="0.65983">
        <ele>111.412</ele>
        <time>2017-03-29T14:09:32Z</time>
      </trkpt>
      <trkpt lat="44.78988" lon="0.66117">
        <ele>107.732</ele>
        <time>2017-03-29T14:09:52Z</time>
      </trkpt>
      <trkpt lat="44.79018" lon="0.66169">
        <ele>108.205</ele>
        <time>2017-03-29T14:10:12Z</time>
      </trkpt>
      <trkpt lat="44.79065" lon="0.66175">
        <ele>101.608</ele>
        <time>2017-03-29T14:10:32Z</time>
      </trkpt>
      <trkpt lat="44.79109" lon="0.66208">
        <ele>101.757</ele>
        <time>2020-03-06T11:28:47Z</time>
      </trkpt>
      <trkpt lat="44.79112" lon="0.66265">
        <ele>101.972</ele>
        <time>2020-03-06T11:29:07Z</time>
      </trkpt>
      <trkpt lat="44.79125" lon="0.66359">
        <ele>101.562</ele>
        <time>2020-03-06T11:29:27Z</time>
      </trkpt>
      <trkpt lat="44.79144" lon="0.6641">
        <ele>97.414</ele>
        <time>2020-03-06T11:29:47Z</time>
      </trkpt>
      <trkpt lat="44.7915" lon="0.66645">
        <ele>102.626</ele>
        <time>2020-03-06T11:30:07Z</time>
      </trkpt>
      <trkpt lat="44.79155" lon="0.66793">
        <ele>100.437</ele>
        <time>2020-03-06T11:30:27Z</time>
      </trkpt>
      <trkpt lat="44.79154" lon="0.66941">
        <ele>94.333</ele>
        <time>2020-03-06T11:30:47Z</time>
      </trkpt>
      <trkpt lat="44.79166" lon="0.67041">
        <ele>93.595</ele>
        <time>2020-03-06T11:31:07Z</time>
      </trkpt>
      <trkpt lat="44.79189" lon="0.67101">
        <ele>95.482</ele>
        <time>2017-03-29T14:12:32Z</time>
      </trkpt>
      <trkpt lat="44.79235" lon="0.67155">
        <ele>96.443</ele>
        <time>2020-03-06T11:31:47Z</time>
      </trkpt>
      <trkpt lat="44.7924" lon="0.67209">
        <ele>91.917</ele>
        <time>2020-03-06T11:32:07Z</time>
      </trkpt>
      <trkpt lat="44.79262" lon="0.67254">
        <ele>89.008</ele>
        <time>2017-03-29T14:13:12Z</time>
      </trkpt>
      <trkpt lat="44.79314" lon="0.67296">
        <ele>92.994</ele>
        <time>2020-03-06T11:32:47Z</time>
      </trkpt>
      <trkpt lat="44.79373" lon="0.67366">
        <ele>88.259</ele>
        <time>2017-03-29T14:13:32Z</time>
      </trkpt>
      <trkpt lat="44.79469" lon="0.67376">
        <ele>93.459</ele>
        <time>2017-03-29T14:13:52Z</time>
      </trkpt>
      <trkpt lat="44.79524" lon="0.67425">
        <ele>85.381</ele>
        <time>2017-03-29T14:14:12Z</time>
      </trkpt>
      <trkpt lat="44.79576" lon="0.67395">
        <ele>82.683</ele>
        <time>2020-03-06T11:34:07Z</time>
      </trkpt>
      <trkpt lat="44.79655" lon="0.67396">
        <ele>85.634</ele>
        <time>2017-03-29T14:15:12Z</time>
      </trkpt>
      <trkpt lat="44.79748" lon="0.67418">
        <ele>83.87</ele>
        <time>2017-03-29T14:15:32Z</time>
      </trkpt>
      <trkpt lat="44.79809" lon="0.67447">
        <ele>80.732</ele>
        <time>2017-03-29T14:15:52Z</time>
      </trkpt>
      <trkpt lat="44.7985" lon="0.67436">
        <ele>83.839</ele>
        <time>2017-03-29T14:16:12Z</time>
      </trkpt>
      <trkpt lat="44.7996" lon="0.67427">
        <ele>90.801</ele>
        <time>2017-03-29T14:16:32Z</time>
      </trkpt>
      <trkpt lat="44.80091" lon="0.67426">
        <ele>84.121</ele>
        <time>2017-03-29T14:16:52Z</time>
      </trkpt>
      <trkpt lat="44.80106" lon="0.67429">
        <ele>84.808</ele>
        <time>2017-03-29T14:17:12Z</time>
      </trkpt>
      <trkpt lat="44.80126" lon="0.67449">
        <ele>82.319</ele>
        <time>2017-03-29T14:17:32Z</time>
      </trkpt>
      <trkpt lat="44.80167" lon="0.67447">
        <ele>86.334</ele>
        <time>2017-03-29T14:17:52Z</time>
      </trkpt>
      <trkpt lat="44.80216" lon="0.67422">
        <ele>89.554</ele>
        <time>2020-03-06T11:37:27Z</time>
      </trkpt>
      <trkpt lat="44.80279" lon="0.67406">
        <ele>91.566</ele>
        <time>2020-03-06T11:37:47Z</time>
      </trkpt>
      <trkpt lat="44.80344" lon="0.6738">
        <ele>89.978</ele>
        <time>2020-03-06T11:38:07Z</time>
      </trkpt>
      <trkpt lat="44.80379" lon="0.67331">
        <ele>97.079</ele>
        <time>2020-03-06T11:38:27Z</time>
      </trkpt>
      <trkpt lat="44.80555" lon="0.67358">
        <ele>96.225</ele>
        <time>2020-03-06T11:38:47Z</time>
      </trkpt>
      <trkpt lat="44.80608" lon="0.67325">
        <ele>91.067</ele>
        <time>2017-03-29T14:19:52Z</time>
      </trkpt>
      <trkpt lat="44.80697" lon="0.67248">
        <ele>100.134</ele>
        <time>2020-03-06T11:39:27Z</time>
      </trkpt>
      <trkpt lat="44.80921" lon="0.67245">
        <ele>95.655</ele>
        <time>2020-03-06T11:39:47Z</time>
      </trkpt>
      <trkpt lat="44.80982" lon="0.67215">
        <ele>96.41</ele>
        <time>2020-03-06T11:40:07Z</time>
      </trkpt>
      <trkpt lat="44.81022" lon="0.67146">
        <ele>96.608</ele>
        <time>2020-03-06T11:40:27Z</time>
      </trkpt>
      <trkpt lat="44.81106" lon="0.67157">
        <ele>93.729</ele>
        <time>2017-03-29T14:21:52Z</time>
      </trkpt>
      <trkpt lat="44.81251" lon="0.67157">
        <ele>87.014</ele>
        <time>2017-03-29T14:22:12Z</time>
      </trkpt>
      <trkpt lat="44.81307" lon="0.67163">
        <ele>83.124</ele>
        <time>2017-03-29T14:22:32Z</time>
      </trkpt>
      <trkpt lat="44.81367" lon="0.6714">
        <ele>74.316</ele>
        <time>2017-03-29T14:22:52Z</time>
      </trkpt>
      <trkpt lat="44.81405" lon="0.67139">
        <ele>69.098</ele>
        <time>2017-03-29T14:23:12Z</time>
      </trkpt>
      <trkpt lat="44.8146" lon="0.6716">
        <ele>60.369</ele>
        <time>2017-03-29T14:23:32Z</time>
      </trkpt>
      <trkpt lat="44.81386" lon="0.672">
        <ele>63.115</ele>
        <time>2017-03-29T14:23:52Z</time>
      </trkpt>
      <trkpt lat="44.81352" lon="0.67402">
        <ele>62.097</ele>
        <time>2017-03-29T14:24:12Z</time>
      </trkpt>
      <trkpt lat="44.81387" lon="0.67392">
        <ele>61.767</ele>
        <time>2020-03-06T11:43:27Z</time>
      </trkpt>
      <trkpt lat="44.81431" lon="0.67399">
        <ele>66.181</ele>
        <time>2020-03-06T11:43:47Z</time>
      </trkpt>
      <trkpt lat="44.81491" lon="0.67428">
        <ele>65.419</ele>
        <time>2020-03-06T11:44:07Z</time>
      </trkpt>
      <trkpt lat="44.81551" lon="0.67432">
        <ele>62.408</ele>
        <time>2020-03-06T11:44:27Z</time>
      </trkpt>
      <trkpt lat="44.81622" lon="0.67455">
        <ele>64.362</ele>
        <time>2020-03-06T11:44:47Z</time>
      </trkpt>
      <trkpt lat="44.81701" lon="0.67459">
        <ele>60.567</ele>
        <time>2020-03-06T11:45:07Z</time>
      </trkpt>
      <trkpt lat="44.81764" lon="0.67457">
        <ele>65.587</ele>
        <time>2017-03-29T14:26:52Z</time>
      </trkpt>
      <trkpt lat="44.81701" lon="0.67501">
        <ele>66.339</ele>
        <time>2017-03-29T14:27:12Z</time>
      </trkpt>
      <trkpt lat="44.81733" lon="0.67577">
        <ele>69.571</ele>
        <time>2020-03-06T11:46:07Z</time>
      </trkpt>
      <trkpt lat="44.81794" lon="0.67565">
        <ele>69.352</ele>
        <time>2020-03-06T11:46:27Z</time>
      </trkpt>
      <trkpt lat="44.81836" lon="0.67571">
        <ele>64.528</ele>
        <time>2020-03-06T11:46:47Z</time>
      </trkpt>
      <trkpt lat="44.81877" lon="0.67599">
        <ele>68.19</ele>
        <time>2020-03-06T11:47:07Z</time>
      </trkpt>
      <trkpt lat="44.82021" lon="0.67631">
        <ele>82.111</ele>
        <time>2020-03-06T11:47:27Z</time>
      </trkpt>
      <trkpt lat="44.82047" lon="0.67556">
        <ele>82.921</ele>
        <time>2020-03-06T11:47:47Z</time>
      </trkpt>
      <trkpt lat="44.82125" lon="0.67461">
        <ele>80.503</ele>
        <time>2020-03-06T11:48:07Z</time>
      </trkpt>
      <trkpt lat="44.82187" lon="0.67461">
        <ele>77.008</ele>
        <time>2020-03-06T11:48:27Z</time>
      </trkpt>
      <trkpt lat="44.82199" lon="0.67428">
        <ele>69.567</ele>
        <time>2020-03-06T11:48:47Z</time>
      </trkpt>
      <trkpt lat="44.82233" lon="0.67429">
        <ele>70.382</ele>
        <time>2020-03-06T11:49:07Z</time>
      </trkpt>
      <trkpt lat="44.82298" lon="0.67405">
        <ele>72.682</ele>
        <time>2020-03-06T11:49:27Z</time>
      </trkpt>
      <trkpt lat="44.82317" lon="0.67424">
        <ele>75.564</ele>
        <time>2020-03-06T11:49:47Z</time>
      </trkpt>
      <trkpt lat="44.82332" lon="0.67531">
        <ele>91.176</ele>
        <time>2017-03-29T14:30:52Z</time>
      </trkpt>
      <trkpt lat="44.82332" lon="0.67572">
        <ele>93.287</ele>
        <time>2017-03-29T14:31:12Z</time>
      </trkpt>
      <trkpt lat="44.82346" lon="0.67622">
        <ele>97.423</ele>
        <time>2017-03-29T14:31:32Z</time>
      </trkpt>
      <trkpt lat="44.82327" lon="0.67661">
        <ele>103.395</ele>
        <time>2017-03-29T14:31:52Z</time>
      </trkpt>
      <trkpt lat="44.82367" lon="0.67746">
        <ele>103.358</ele>
        <time>2017-03-29T14:32:12Z</time>
      </trkpt>
      <trkpt lat="44.82371" lon="0.67812">
        <ele>101.252</ele>
        <time>2017-03-29T14:32:32Z</time>
      </trkpt>
      <trkpt lat="44.82334" lon="0.67907">
        <ele>100.017</ele>
        <time>2017-03-29T14:32:52Z</time>
      </trkpt>
      <trkpt lat="44.82292" lon="0.68218">
        <ele>88.108</ele>
        <time>2017-03-29T14:33:12Z</time>
      </trkpt>
      <trkpt lat="44.82285" lon="0.68322">
        <ele>91.331</ele>
        <time>2017-03-29T14:33:32Z</time>
      </trkpt>
      <trkpt lat="44.82309" lon="0.68541">
        <ele>92.586</ele>
        <time>2017-03-29T14:33:52Z</time>
      </trkpt>
      <trkpt lat="44.82352" lon="0.68646">
        <ele>91.246</ele>
        <time>2017-03-29T14:34:12Z</time>
      </trkpt>
      <trkpt lat="44.82394" lon="0.68677">
        <ele>92.248</ele>
        <time>2017-03-29T14:34:32Z</time>
      </trkpt>
      <trkpt lat="44.82357" lon="0.68738">
        <ele>92.15</ele>
        <time>2017-03-29T14:34:52Z</time>
      </trkpt>
      <trkpt lat="44.82258" lon="0.68825">
        <ele>97.711</ele>
        <time>2017-03-29T14:35:12Z</time>
      </trkpt>
      <trkpt lat="44.82118" lon="0.6894">
        <ele>103.267</ele>
        <time>2017-03-29T14:35:32Z</time>
      </trkpt>
      <trkpt lat="44.82047" lon="0.68972">
        <ele>100.789</ele>
        <time>2017-03-29T14:35:52Z</time>
      </trkpt>
      <trkpt lat="44.8198" lon="0.69045">
        <ele>98.062</ele>
        <time>2017-03-29T14:36:12Z</time>
      </trkpt>
      <trkpt lat="44.81912" lon="0.69148">
        <ele>99.783</ele>
        <time>2017-03-29T14:36:32Z</time>
      </trkpt>
      <trkpt lat="44.81891" lon="0.69208">
        <ele>103.011</ele>
        <time>2017-03-29T14:36:52Z</time>
      </trkpt>
      <trkpt lat="44.81797" lon="0.69237">
        <ele>100.508</ele>
        <time>2017-03-29T14:37:12Z</time>
      </trkpt>
      <trkpt lat="44.81752" lon="0.69271">
        <ele>100.032</ele>
        <time>2017-03-29T14:37:32Z</time>
      </trkpt>
      <trkpt lat="44.81664" lon="0.6936">
        <ele>110.197</ele>
        <time>2017-03-29T14:37:52Z</time>
      </trkpt>
      <trkpt lat="44.81686" lon="0.69419">
        <ele>109.017</ele>
        <time>2017-03-29T14:38:12Z</time>
      </trkpt>
      <trkpt lat="44.81696" lon="0.69473">
        <ele>110.049</ele>
        <time>2017-03-29T14:38:32Z</time>
      </trkpt>
      <trkpt lat="44.8168" lon="0.69505">
        <ele>110.021</ele>
        <time>2017-03-29T14:38:52Z</time>
      </trkpt>
      <trkpt lat="44.81731" lon="0.69528">
        <ele>111.362</ele>
        <time>2017-03-29T14:39:12Z</time>
      </trkpt>
      <trkpt lat="44.81828" lon="0.69588">
        <ele>116.988</ele>
        <time>2017-03-29T14:39:32Z</time>
      </trkpt>
      <trkpt lat="44.81904" lon="0.69656">
        <ele>121.15</ele>
        <time>2017-03-29T14:39:52Z</time>
      </trkpt>
      <trkpt lat="44.81981" lon="0.69768">
        <ele>112.956</ele>
        <time>2017-03-29T14:40:12Z</time>
      </trkpt>
      <trkpt lat="44.82054" lon="0.69784">
        <ele>104.759</ele>
        <time>2017-03-29T14:40:32Z</time>
      </trkpt>
      <trkpt lat="44.82162" lon="0.69858">
        <ele>100.014</ele>
        <time>2017-03-29T14:40:52Z</time>
      </trkpt>
      <trkpt lat="44.8218" lon="0.70029">
        <ele>85.908</ele>
        <time>2017-03-29T14:41:12Z</time>
      </trkpt>
      <trkpt lat="44.82163" lon="0.7008">
        <ele>86.971</ele>
        <time>2017-03-29T14:41:32Z</time>
      </trkpt>
      <trkpt lat="44.82162" lon="0.70149">
        <ele>79.926</ele>
        <time>2017-03-29T14:41:52Z</time>
      </trkpt>
      <trkpt lat="44.82173" lon="0.70166">
        <ele>76.386</ele>
        <time>2017-03-29T14:42:12Z</time>
      </trkpt>
      <trkpt lat="44.82199" lon="0.70182">
        <ele>73.858</ele>
        <time>2017-03-29T14:42:32Z</time>
      </trkpt>
      <trkpt lat="44.82266" lon="0.70249">
        <ele>55.58</ele>
        <time>2017-03-29T14:42:52Z</time>
      </trkpt>
      <trkpt lat="44.82283" lon="0.70301">
        <ele>49.391</ele>
        <time>2017-03-29T14:43:12Z</time>
      </trkpt>
      <trkpt lat="44.82279" lon="0.70306">
        <ele>49.017</ele>
        <time>2017-03-29T14:43:32Z</time>
      </trkpt>
      <trkpt lat="44.82279" lon="0.70544">
        <ele>48.989</ele>
        <time>2017-03-29T14:43:52Z</time>
      </trkpt>
      <trkpt lat="44.82306" lon="0.7065">
        <ele>53.958</ele>
        <time>2017-03-29T14:44:12Z</time>
      </trkpt>
      <trkpt lat="44.82256" lon="0.70695">
        <ele>57.552</ele>
        <time>2017-03-29T14:44:32Z</time>
      </trkpt>
      <trkpt lat="44.82221" lon="0.70749">
        <ele>61.817</ele>
        <time>2017-03-29T14:44:52Z</time>
      </trkpt>
      <trkpt lat="44.82209" lon="0.70781">
        <ele>63.408</ele>
        <time>2017-03-29T14:45:12Z</time>
      </trkpt>
      <trkpt lat="44.82224" lon="0.70827">
        <ele>69.281</ele>
        <time>2017-03-29T14:45:32Z</time>
      </trkpt>
      <trkpt lat="44.82226" lon="0.70889">
        <ele>74.916</ele>
        <time>2017-03-29T14:45:52Z</time>
      </trkpt>
      <trkpt lat="44.82255" lon="0.71027">
        <ele>85.066</ele>
        <time>2017-03-29T14:46:12Z</time>
      </trkpt>
      <trkpt lat="44.82245" lon="0.71097">
        <ele>88.968</ele>
        <time>2017-03-29T14:46:32Z</time>
      </trkpt>
      <trkpt lat="44.82271" lon="0.71172">
        <ele>94.86</ele>
        <time>2017-03-29T14:46:52Z</time>
      </trkpt>
      <trkpt lat="44.82297" lon="0.71209">
        <ele>99.981</ele>
        <time>2017-03-29T14:47:12Z</time>
      </trkpt>
      <trkpt lat="44.82333" lon="0.71201">
        <ele>105.957</ele>
        <time>2017-03-29T14:47:32Z</time>
      </trkpt>
      <trkpt lat="44.82371" lon="0.71176">
        <ele>111.879</ele>
        <time>2017-03-29T14:47:52Z</time>
      </trkpt>
      <trkpt lat="44.82386" lon="0.71184">
        <ele>113.478</ele>
        <time>2017-03-29T14:48:12Z</time>
      </trkpt>
      <trkpt lat="44.82397" lon="0.71196">
        <ele>115.333</ele>
        <time>2017-03-29T14:48:32Z</time>
      </trkpt>
      <trkpt lat="44.82398" lon="0.71238">
        <ele>117.826</ele>
        <time>2017-03-29T14:48:52Z</time>
      </trkpt>
      <trkpt lat="44.8242" lon="0.71279">
        <ele>122.008</ele>
        <time>2017-03-29T14:49:12Z</time>
      </trkpt>
      <trkpt lat="44.82447" lon="0.71315">
        <ele>123.493</ele>
        <time>2017-03-29T14:49:32Z</time>
      </trkpt>
      <trkpt lat="44.82448" lon="0.71352">
        <ele>125.338</ele>
        <time>2017-03-29T14:49:52Z</time>
      </trkpt>
      <trkpt lat="44.82427" lon="0.71408">
        <ele>128.488</ele>
        <time>2017-03-29T14:50:12Z</time>
      </trkpt>
      <trkpt lat="44.82445" lon="0.71456">
        <ele>127.43</ele>
        <time>2017-03-29T14:50:32Z</time>
      </trkpt>
      <trkpt lat="44.82468" lon="0.71483">
        <ele>129.322</ele>
        <time>2017-03-29T14:50:52Z</time>
      </trkpt>
      <trkpt lat="44.82477" lon="0.71519">
        <ele>128.923</ele>
        <time>2017-03-29T14:51:12Z</time>
      </trkpt>
      <trkpt lat="44.82497" lon="0.71561">
        <ele>125.159</ele>
        <time>2017-03-29T14:51:32Z</time>
      </trkpt>
      <trkpt lat="44.82514" lon="0.71622">
        <ele>122.781</ele>
        <time>2017-03-29T14:51:52Z</time>
      </trkpt>
      <trkpt lat="44.82526" lon="0.71714">
        <ele>124.982</ele>
        <time>2017-03-29T14:52:12Z</time>
      </trkpt>
      <trkpt lat="44.82527" lon="0.71787">
        <ele>130.643</ele>
        <time>2017-03-29T14:52:32Z</time>
      </trkpt>
      <trkpt lat="44.82537" lon="0.71849">
        <ele>135.317</ele>
        <time>2017-03-29T14:52:52Z</time>
      </trkpt>
      <trkpt lat="44.82552" lon="0.71894">
        <ele>138.508</ele>
        <time>2017-03-29T14:53:12Z</time>
      </trkpt>
      <trkpt lat="44.82547" lon="0.71996">
        <ele>143.784</ele>
        <time>2017-03-29T14:53:32Z</time>
      </trkpt>
      <trkpt lat="44.8255" lon="0.72091">
        <ele>144.349</ele>
        <time>2017-03-29T14:53:52Z</time>
      </trkpt>
      <trkpt lat="44.82518" lon="0.72245">
        <ele>138.899</ele>
        <time>2017-03-29T14:54:12Z</time>
      </trkpt>
      <trkpt lat="44.82524" lon="0.72304">
        <ele>134.061</ele>
        <time>2017-03-29T14:54:32Z</time>
      </trkpt>
      <trkpt lat="44.82515" lon="0.72394">
        <ele>128.213</ele>
        <time>2017-03-29T14:54:52Z</time>
      </trkpt>
      <trkpt lat="44.8245" lon="0.72539">
        <ele>114.844</ele>
        <time>2020-03-06T12:14:27Z</time>
      </trkpt>
      <trkpt lat="44.82448" lon="0.72558">
        <ele>113.99</ele>
        <time>2020-03-06T12:14:47Z</time>
      </trkpt>
      <trkpt lat="44.82422" lon="0.72579">
        <ele>110.512</ele>
        <time>2020-03-06T12:15:07Z</time>
      </trkpt>
      <trkpt lat="44.82402" lon="0.72625">
        <ele>106.917</ele>
        <time>2020-03-06T12:15:27Z</time>
      </trkpt>
      <trkpt lat="44.82397" lon="0.7265">
        <ele>105.287</ele>
        <time>2020-03-06T12:15:47Z</time>
      </trkpt>
      <trkpt lat="44.82404" lon="0.72677">
        <ele>103.415</ele>
        <time>2020-03-06T12:16:07Z</time>
      </trkpt>
      <trkpt lat="44.82424" lon="0.72701">
        <ele>103.408</ele>
        <time>2020-03-06T12:16:27Z</time>
      </trkpt>
      <trkpt lat="44.82476" lon="0.72729">
        <ele>100.997</ele>
        <time>2020-03-06T12:16:47Z</time>
      </trkpt>
      <trkpt lat="44.82516" lon="0.72765">
        <ele>97.232</ele>
        <time>2020-03-06T12:17:07Z</time>
      </trkpt>
      <trkpt lat="44.82526" lon="0.72789">
        <ele>96.642</ele>
        <time>2020-03-06T12:17:27Z</time>
      </trkpt>
      <trkpt lat="44.82547" lon="0.72782">
        <ele>94.764</ele>
        <time>2020-03-06T12:17:47Z</time>
      </trkpt>
      <trkpt lat="44.82568" lon="0.72804">
        <ele>92.316</ele>
        <time>2020-03-06T12:18:07Z</time>
      </trkpt>
      <trkpt lat="44.82584" lon="0.72839">
        <ele>91.577</ele>
        <time>2020-03-06T12:18:27Z</time>
      </trkpt>
      <trkpt lat="44.82624" lon="0.72856">
        <ele>91.793</ele>
        <time>2020-03-06T12:18:47Z</time>
      </trkpt>
      <trkpt lat="44.82646" lon="0.72896">
        <ele>99.185</ele>
        <time>2020-03-06T12:19:07Z</time>
      </trkpt>
      <trkpt lat="44.82684" lon="0.72947">
        <ele>104.934</ele>
        <time>2020-03-06T12:19:27Z</time>
      </trkpt>
      <trkpt lat="44.82686" lon="0.72965">
        <ele>106.955</ele>
        <time>2020-03-06T12:19:47Z</time>
      </trkpt>
      <trkpt lat="44.82745" lon="0.73056">
        <ele>104.11</ele>
        <time>2017-03-29T14:57:52Z</time>
      </trkpt>
      <trkpt lat="44.82744" lon="0.7308">
        <ele>106.008</ele>
        <time>2017-03-29T14:58:12Z</time>
      </trkpt>
      <trkpt lat="44.82715" lon="0.73129">
        <ele>113.099</ele>
        <time>2017-03-29T14:58:32Z</time>
      </trkpt>
      <trkpt lat="44.82715" lon="0.73157">
        <ele>114.064</ele>
        <time>2017-03-29T14:58:52Z</time>
      </trkpt>
      <trkpt lat="44.8275" lon="0.73333">
        <ele>121.014</ele>
        <time>2017-03-29T14:59:12Z</time>
      </trkpt>
      <trkpt lat="44.82755" lon="0.73383">
        <ele>125.716</ele>
        <time>2017-03-29T14:59:32Z</time>
      </trkpt>
      <trkpt lat="44.82765" lon="0.73409">
        <ele>124.788</ele>
        <time>2017-03-29T14:59:52Z</time>
      </trkpt>
      <trkpt lat="44.8289" lon="0.73363">
        <ele>117.719</ele>
        <time>2017-03-29T15:00:12Z</time>
      </trkpt>
      <trkpt lat="44.82936" lon="0.73333">
        <ele>122.115</ele>
        <time>2017-03-29T15:00:32Z</time>
      </trkpt>
      <trkpt lat="44.83013" lon="0.73248">
        <ele>125.947</ele>
        <time>2017-03-29T15:00:52Z</time>
      </trkpt>
      <trkpt lat="44.83032" lon="0.73299">
        <ele>123.562</ele>
        <time>2017-03-29T15:01:12Z</time>
      </trkpt>
      <trkpt lat="44.8306" lon="0.73365">
        <ele>120.683</ele>
        <time>2017-03-29T15:01:32Z</time>
      </trkpt>
      <trkpt lat="44.83077" lon="0.73391">
        <ele>120.611</ele>
        <time>2017-03-29T15:01:52Z</time>
      </trkpt>
      <trkpt lat="44.83123" lon="0.73503">
        <ele>122.608</ele>
        <time>2017-03-29T15:02:12Z</time>
      </trkpt>
      <trkpt lat="44.83128" lon="0.73526">
        <ele>122.432</ele>
        <time>2017-03-29T15:02:32Z</time>
      </trkpt>
      <trkpt lat="44.83128" lon="0.73548">
        <ele>121.757</ele>
        <time>2017-03-29T15:02:52Z</time>
      </trkpt>
      <trkpt lat="44.83165" lon="0.73603">
        <ele>116.797</ele>
        <time>2017-03-29T15:03:12Z</time>
      </trkpt>
      <trkpt lat="44.83175" lon="0.73655">
        <ele>110.529</ele>
        <time>2017-03-29T15:03:32Z</time>
      </trkpt>
      <trkpt lat="44.83199" lon="0.73745">
        <ele>102.651</ele>
        <time>2017-03-29T15:03:52Z</time>
      </trkpt>
      <trkpt lat="44.8321" lon="0.73763">
        <ele>99.922</ele>
        <time>2017-03-29T15:04:12Z</time>
      </trkpt>
      <trkpt lat="44.83237" lon="0.7383">
        <ele>96.078</ele>
        <time>2017-03-29T15:04:32Z</time>
      </trkpt>
      <trkpt lat="44.83254" lon="0.73919">
        <ele>92.75</ele>
        <time>2017-03-29T15:04:52Z</time>
      </trkpt>
      <trkpt lat="44.83275" lon="0.73957">
        <ele>94.831</ele>
        <time>2017-03-29T15:05:12Z</time>
      </trkpt>
      <trkpt lat="44.83289" lon="0.73956">
        <ele>95.861</ele>
        <time>2017-03-29T15:05:32Z</time>
      </trkpt>
      <trkpt lat="44.83302" lon="0.73997">
        <ele>93.207</ele>
        <time>2017-03-29T15:05:52Z</time>
      </trkpt>
      <trkpt lat="44.83357" lon="0.74065">
        <ele>58.208</ele>
        <time>2017-03-29T15:06:12Z</time>
      </trkpt>
      <trkpt lat="44.83366" lon="0.74047">
        <ele>53.739</ele>
        <time>2017-03-29T15:06:32Z</time>
      </trkpt>
      <trkpt lat="44.836" lon="0.73995">
        <ele>43.644</ele>
        <time>2017-03-29T15:06:52Z</time>
      </trkpt>
      <trkpt lat="44.83608" lon="0.74024">
        <ele>43.974</ele>
        <time>2017-03-29T15:07:12Z</time>
      </trkpt>
      <trkpt lat="44.83716" lon="0.74045">
        <ele>45.066</ele>
        <time>2017-03-29T15:07:32Z</time>
      </trkpt>
      <trkpt lat="44.83738" lon="0.74042">
        <ele>44.418</ele>
        <time>2017-03-29T15:07:52Z</time>
      </trkpt>
      <trkpt lat="44.83765" lon="0.74051">
        <ele>43.559</ele>
        <time>2017-03-29T15:08:12Z</time>
      </trkpt>
      <trkpt lat="44.8386" lon="0.74053">
        <ele>45.095</ele>
        <time>2017-03-29T15:08:32Z</time>
      </trkpt>
      <trkpt lat="44.83851" lon="0.74128">
        <ele>46.097</ele>
        <time>2017-03-29T15:08:52Z</time>
      </trkpt>
      <trkpt lat="44.83792" lon="0.74307">
        <ele>48.539</ele>
        <time>2017-03-29T15:09:12Z</time>
      </trkpt>
      <trkpt lat="44.83777" lon="0.7438">
        <ele>47.701</ele>
        <time>2017-03-29T15:09:32Z</time>
      </trkpt>
      <trkpt lat="44.83777" lon="0.7438">
        <ele>47.701</ele>
        <time>2017-03-29T15:09:32Z</time>
      </trkpt>
      <trkpt lat="44.83777" lon="0.7438">
        <ele>47.701</ele>
        <time>2017-03-29T15:09:32Z</time>
      </trkpt>
      <trkpt lat="44.83777" lon="0.7438">
        <ele>47.701</ele>
        <time>2017-03-29T15:09:32Z</time>
      </trkpt>
      <trkpt lat="44.83777" lon="0.7438">
        <ele>47.701</ele>
        <time>2017-03-29T15:09:32Z</time>
      </trkpt>
      <trkpt lat="44.83777" lon="0.7438">
        <ele>47.701</ele>
        <time>2017-03-29T15:09:32Z</time>
      </trkpt>
      <trkpt lat="44.83777" lon="0.7447">
        <ele>45.021</ele>
        <time>2017-03-29T15:09:52Z</time>
      </trkpt>
      <trkpt lat="44.83951" lon="0.75665">
        <ele>43.408</ele>
        <time>2017-03-29T15:10:12Z</time>
      </trkpt>
      <trkpt lat="44.84035" lon="0.76107">
        <ele>44.729</ele>
        <time>2017-03-29T15:10:32Z</time>
      </trkpt>
      <trkpt lat="44.84049" lon="0.76158">
        <ele>46.344</ele>
        <time>2017-03-29T15:10:52Z</time>
      </trkpt>
      <trkpt lat="44.8407" lon="0.76198">
        <ele>46.094</ele>
        <time>2017-03-29T15:11:12Z</time>
      </trkpt>
      <trkpt lat="44.84119" lon="0.76253">
        <ele>46.276</ele>
        <time>2017-03-29T15:11:32Z</time>
      </trkpt>
      <trkpt lat="44.84156" lon="0.76311">
        <ele>46.138</ele>
        <time>2017-03-29T15:11:52Z</time>
      </trkpt>
      <trkpt lat="44.84177" lon="0.76386">
        <ele>46.449</ele>
        <time>2017-03-29T15:12:12Z</time>
      </trkpt>
      <trkpt lat="44.84304" lon="0.77021">
        <ele>47.985</ele>
        <time>2017-03-29T15:12:32Z</time>
      </trkpt>
      <trkpt lat="44.84305" lon="0.77101">
        <ele>49.337</ele>
        <time>2017-03-29T15:12:52Z</time>
      </trkpt>
      <trkpt lat="44.84288" lon="0.77189">
        <ele>46.731</ele>
        <time>2017-03-29T15:13:12Z</time>
      </trkpt>
      <trkpt lat="44.8429" lon="0.77244">
        <ele>48.161</ele>
        <time>2017-03-29T15:13:32Z</time>
      </trkpt>
      <trkpt lat="44.8455" lon="0.78479">
        <ele>45.007</ele>
        <time>2017-03-29T15:13:52Z</time>
      </trkpt>
      <trkpt lat="44.84567" lon="0.78541">
        <ele>45.908</ele>
        <time>2017-03-29T15:14:12Z</time>
      </trkpt>
      <trkpt lat="44.84539" lon="0.78558">
        <ele>47.189</ele>
        <time>2017-03-29T15:14:32Z</time>
      </trkpt>
      <trkpt lat="44.84563" lon="0.78671">
        <ele>44.974</ele>
        <time>2017-03-29T15:14:52Z</time>
      </trkpt>
      <trkpt lat="44.84598" lon="0.78797">
        <ele>44.314</ele>
        <time>2017-03-29T15:15:12Z</time>
      </trkpt>
      <trkpt lat="44.84626" lon="0.78876">
        <ele>45.876</ele>
        <time>2017-03-29T15:15:32Z</time>
      </trkpt>
      <trkpt lat="44.84658" lon="0.78939">
        <ele>46.078</ele>
        <time>2017-03-29T15:15:52Z</time>
      </trkpt>
      <trkpt lat="44.84698" lon="0.79">
        <ele>45.949</ele>
        <time>2017-03-29T15:16:12Z</time>
      </trkpt>
      <trkpt lat="44.85234" lon="0.79623">
        <ele>45.445</ele>
        <time>2017-03-29T15:16:32Z</time>
      </trkpt>
      <trkpt lat="44.85364" lon="0.79775">
        <ele>46.527</ele>
        <time>2017-03-29T15:16:52Z</time>
      </trkpt>
      <trkpt lat="44.85442" lon="0.7984">
        <ele>45.121</ele>
        <time>2017-03-29T15:17:12Z</time>
      </trkpt>
      <trkpt lat="44.85521" lon="0.79885">
        <ele>45.841</ele>
        <time>2017-03-29T15:17:32Z</time>
      </trkpt>
      <trkpt lat="44.85606" lon="0.79911">
        <ele>46.005</ele>
        <time>2017-03-29T15:17:52Z</time>
      </trkpt>
      <trkpt lat="44.85793" lon="0.79932">
        <ele>45.808</ele>
        <time>2017-03-29T15:18:12Z</time>
      </trkpt>
      <trkpt lat="44.86228" lon="0.79977">
        <ele>41.488</ele>
        <time>2017-03-29T15:18:32Z</time>
      </trkpt>
      <trkpt lat="44.86232" lon="0.79928">
        <ele>46.263</ele>
        <time>2017-03-29T15:18:52Z</time>
      </trkpt>
      <trkpt lat="44.8625" lon="0.79936">
        <ele>45.613</ele>
        <time>2017-03-29T15:19:12Z</time>
      </trkpt>
      <trkpt lat="44.86339" lon="0.7994">
        <ele>46.995</ele>
        <time>2017-03-29T15:19:32Z</time>
      </trkpt>
      <trkpt lat="44.86515" lon="0.79878">
        <ele>44.447</ele>
        <time>2017-03-29T15:19:52Z</time>
      </trkpt>
      <trkpt lat="44.8653" lon="0.79866">
        <ele>44.048</ele>
        <time>2017-03-29T15:20:12Z</time>
      </trkpt>
      <trkpt lat="44.86536" lon="0.79833">
        <ele>48.054</ele>
        <time>2017-03-29T15:20:32Z</time>
      </trkpt>
      <trkpt lat="44.86578" lon="0.79743">
        <ele>54.026</ele>
        <time>2017-03-29T15:20:52Z</time>
      </trkpt>
      <trkpt lat="44.86547" lon="0.79706">
        <ele>60.795</ele>
        <time>2017-03-29T15:21:12Z</time>
      </trkpt>
      <trkpt lat="44.86487" lon="0.79642">
        <ele>62.149</ele>
        <time>2017-03-29T15:21:32Z</time>
      </trkpt>
      <trkpt lat="44.86471" lon="0.79579">
        <ele>63.523</ele>
        <time>2017-03-29T15:21:52Z</time>
      </trkpt>
    </trkseg>
  </trk>
  <trk>
    <name><![CDATA[Limeuil]]></name>
    <trkseg>
      <trkpt lat="44.86471" lon="0.79579">
        <ele>63.523</ele>
        <time>2017-03-29T15:21:52Z</time>
      </trkpt>
      <trkpt lat="44.86471" lon="0.79579">
        <ele>63.523</ele>
        <time>2017-03-29T15:21:52Z</time>
      </trkpt>
      <trkpt lat="44.86471" lon="0.79579">
        <ele>63.523</ele>
        <time>2017-03-29T15:21:52Z</time>
      </trkpt>
      <trkpt lat="44.86471" lon="0.79579">
        <ele>63.523</ele>
        <time>2017-03-29T15:21:52Z</time>
      </trkpt>
      <trkpt lat="44.86471" lon="0.79579">
        <ele>63.523</ele>
        <time>2017-03-29T15:21:52Z</time>
      </trkpt>
      <trkpt lat="44.86471" lon="0.79579">
        <ele>63.523</ele>
        <time>2017-03-29T15:21:52Z</time>
      </trkpt>
      <trkpt lat="44.86471" lon="0.79579">
        <ele>63.523</ele>
        <time>2017-03-29T15:21:52Z</time>
      </trkpt>
      <trkpt lat="44.86481" lon="0.79532">
        <ele>67.008</ele>
        <time>2017-03-29T15:22:12Z</time>
      </trkpt>
      <trkpt lat="44.86498" lon="0.79501">
        <ele>72.175</ele>
        <time>2017-03-29T15:22:32Z</time>
      </trkpt>
      <trkpt lat="44.86568" lon="0.79415">
        <ele>79.67</ele>
        <time>2017-03-29T15:22:52Z</time>
      </trkpt>
      <trkpt lat="44.8662" lon="0.79374">
        <ele>82.37</ele>
        <time>2017-03-29T15:23:12Z</time>
      </trkpt>
      <trkpt lat="44.86678" lon="0.79371">
        <ele>90.152</ele>
        <time>2017-03-29T15:23:32Z</time>
      </trkpt>
      <trkpt lat="44.86687" lon="0.79378">
        <ele>92.014</ele>
        <time>2017-03-29T15:23:52Z</time>
      </trkpt>
      <trkpt lat="44.86664" lon="0.7939">
        <ele>95.075</ele>
        <time>2017-03-29T15:24:12Z</time>
      </trkpt>
      <trkpt lat="44.86642" lon="0.79409">
        <ele>98.171</ele>
        <time>2017-03-29T15:24:32Z</time>
      </trkpt>
      <trkpt lat="44.86623" lon="0.79412">
        <ele>95.193</ele>
        <time>2017-03-29T15:24:52Z</time>
      </trkpt>
      <trkpt lat="44.86605" lon="0.79429">
        <ele>94.324</ele>
        <time>2017-03-29T15:25:12Z</time>
      </trkpt>
      <trkpt lat="44.86548" lon="0.79536">
        <ele>95.604</ele>
        <time>2017-03-29T15:25:32Z</time>
      </trkpt>
      <trkpt lat="44.86578" lon="0.79542">
        <ele>105.014</ele>
        <time>2017-03-29T15:25:52Z</time>
      </trkpt>
      <trkpt lat="44.86696" lon="0.79543">
        <ele>116.708</ele>
        <time>2017-03-29T15:26:12Z</time>
      </trkpt>
      <trkpt lat="44.86697" lon="0.79568">
        <ele>118.138</ele>
        <time>2017-03-29T15:26:32Z</time>
      </trkpt>
      <trkpt lat="44.8673" lon="0.79617">
        <ele>119.423</ele>
        <time>2017-03-29T15:26:52Z</time>
      </trkpt>
      <trkpt lat="44.86747" lon="0.79632">
        <ele>120.263</ele>
        <time>2017-03-29T15:27:12Z</time>
      </trkpt>
      <trkpt lat="44.86754" lon="0.79682">
        <ele>113.835</ele>
        <time>2017-03-29T15:27:32Z</time>
      </trkpt>
      <trkpt lat="44.86774" lon="0.79667">
        <ele>120.547</ele>
        <time>2017-03-29T15:27:52Z</time>
      </trkpt>
      <trkpt lat="44.86829" lon="0.79666">
        <ele>125.698</ele>
        <time>2017-03-29T15:28:12Z</time>
      </trkpt>
      <trkpt lat="44.86857" lon="0.79657">
        <ele>127.474</ele>
        <time>2017-03-29T15:28:32Z</time>
      </trkpt>
      <trkpt lat="44.8689" lon="0.79653">
        <ele>126.486</ele>
        <time>2017-03-29T15:28:52Z</time>
      </trkpt>
      <trkpt lat="44.87091" lon="0.79584">
        <ele>128.486</ele>
        <time>2017-03-29T15:29:12Z</time>
      </trkpt>
      <trkpt lat="44.87288" lon="0.79592">
        <ele>124.06</ele>
        <time>2017-03-29T15:29:32Z</time>
      </trkpt>
      <trkpt lat="44.87343" lon="0.79579">
        <ele>125.626</ele>
        <time>2017-03-29T15:29:52Z</time>
      </trkpt>
      <trkpt lat="44.87562" lon="0.79551">
        <ele>144.908</ele>
        <time>2017-03-29T15:30:12Z</time>
      </trkpt>
      <trkpt lat="44.87598" lon="0.79555">
        <ele>147.674</ele>
        <time>2017-03-29T15:30:32Z</time>
      </trkpt>
      <trkpt lat="44.87621" lon="0.79569">
        <ele>146.899</ele>
        <time>2017-03-29T15:30:52Z</time>
      </trkpt>
      <trkpt lat="44.87671" lon="0.79576">
        <ele>145.829</ele>
        <time>2017-03-29T15:31:12Z</time>
      </trkpt>
      <trkpt lat="44.87698" lon="0.79572">
        <ele>144.981</ele>
        <time>2017-03-29T15:31:32Z</time>
      </trkpt>
      <trkpt lat="44.87786" lon="0.79604">
        <ele>148.393</ele>
        <time>2017-03-29T15:31:52Z</time>
      </trkpt>
      <trkpt lat="44.87887" lon="0.79618">
        <ele>153.934</ele>
        <time>2017-03-29T15:32:12Z</time>
      </trkpt>
      <trkpt lat="44.87912" lon="0.7963">
        <ele>154.63</ele>
        <time>2017-03-29T15:32:32Z</time>
      </trkpt>
      <trkpt lat="44.87941" lon="0.79682">
        <ele>146.362</ele>
        <time>2017-03-29T15:32:52Z</time>
      </trkpt>
      <trkpt lat="44.88033" lon="0.79726">
        <ele>144.354</ele>
        <time>2017-03-29T15:33:12Z</time>
      </trkpt>
      <trkpt lat="44.88121" lon="0.79785">
        <ele>149.556</ele>
        <time>2017-03-29T15:33:32Z</time>
      </trkpt>
      <trkpt lat="44.88189" lon="0.79823">
        <ele>151.211</ele>
        <time>2017-03-29T15:33:52Z</time>
      </trkpt>
      <trkpt lat="44.88249" lon="0.79816">
        <ele>152.908</ele>
        <time>2017-03-29T15:34:12Z</time>
      </trkpt>
      <trkpt lat="44.88268" lon="0.79807">
        <ele>155.551</ele>
        <time>2017-03-29T15:34:32Z</time>
      </trkpt>
      <trkpt lat="44.88292" lon="0.79809">
        <ele>158.386</ele>
        <time>2017-03-29T15:34:52Z</time>
      </trkpt>
      <trkpt lat="44.88311" lon="0.79829">
        <ele>158.056</ele>
        <time>2017-03-29T15:35:12Z</time>
      </trkpt>
      <trkpt lat="44.88359" lon="0.79817">
        <ele>159.868</ele>
        <time>2017-03-29T15:35:32Z</time>
      </trkpt>
      <trkpt lat="44.88373" lon="0.79786">
        <ele>160.39</ele>
        <time>2017-03-29T15:35:52Z</time>
      </trkpt>
      <trkpt lat="44.88454" lon="0.7972">
        <ele>150.091</ele>
        <time>2017-03-29T15:36:12Z</time>
      </trkpt>
      <trkpt lat="44.88466" lon="0.79697">
        <ele>149.437</ele>
        <time>2017-03-29T15:36:32Z</time>
      </trkpt>
      <trkpt lat="44.88505" lon="0.79672">
        <ele>147.279</ele>
        <time>2017-03-29T15:36:52Z</time>
      </trkpt>
      <trkpt lat="44.88517" lon="0.79671">
        <ele>146.089</ele>
        <time>2017-03-29T15:37:12Z</time>
      </trkpt>
      <trkpt lat="44.88529" lon="0.79685">
        <ele>144.306</ele>
        <time>2017-03-29T15:37:32Z</time>
      </trkpt>
      <trkpt lat="44.88542" lon="0.79684">
        <ele>143.526</ele>
        <time>2017-03-29T15:37:52Z</time>
      </trkpt>
      <trkpt lat="44.88548" lon="0.79672">
        <ele>143.908</ele>
        <time>2017-03-29T15:38:12Z</time>
      </trkpt>
      <trkpt lat="44.88631" lon="0.79625">
        <ele>142.634</ele>
        <time>2017-03-29T15:38:32Z</time>
      </trkpt>
      <trkpt lat="44.88627" lon="0.79593">
        <ele>141.839</ele>
        <time>2017-03-29T15:38:52Z</time>
      </trkpt>
      <trkpt lat="44.8864" lon="0.79584">
        <ele>139.959</ele>
        <time>2017-03-29T15:39:12Z</time>
      </trkpt>
      <trkpt lat="44.88657" lon="0.7959">
        <ele>138.491</ele>
        <time>2017-03-29T15:39:32Z</time>
      </trkpt>
      <trkpt lat="44.88697" lon="0.7963">
        <ele>133.333</ele>
        <time>2017-03-29T15:39:52Z</time>
      </trkpt>
      <trkpt lat="44.8872" lon="0.79661">
        <ele>129.884</ele>
        <time>2017-03-29T15:40:12Z</time>
      </trkpt>
      <trkpt lat="44.8875" lon="0.79648">
        <ele>129.74</ele>
        <time>2017-03-29T15:40:32Z</time>
      </trkpt>
      <trkpt lat="44.8881" lon="0.79667">
        <ele>127.472</ele>
        <time>2017-03-29T15:40:52Z</time>
      </trkpt>
      <trkpt lat="44.88837" lon="0.79701">
        <ele>128.554</ele>
        <time>2017-03-29T15:41:12Z</time>
      </trkpt>
      <trkpt lat="44.8888" lon="0.79733">
        <ele>134.556</ele>
        <time>2017-03-29T15:41:32Z</time>
      </trkpt>
      <trkpt lat="44.88895" lon="0.79726">
        <ele>136.511</ele>
        <time>2017-03-29T15:41:52Z</time>
      </trkpt>
      <trkpt lat="44.88911" lon="0.79696">
        <ele>139.908</ele>
        <time>2017-03-29T15:42:12Z</time>
      </trkpt>
      <trkpt lat="44.88945" lon="0.79684">
        <ele>142.431</ele>
        <time>2017-03-29T15:42:32Z</time>
      </trkpt>
      <trkpt lat="44.88959" lon="0.79667">
        <ele>143.596</ele>
        <time>2017-03-29T15:42:52Z</time>
      </trkpt>
      <trkpt lat="44.88983" lon="0.79656">
        <ele>144.216</ele>
        <time>2017-03-29T15:43:12Z</time>
      </trkpt>
      <trkpt lat="44.89019" lon="0.79619">
        <ele>144.388</ele>
        <time>2017-03-29T15:43:32Z</time>
      </trkpt>
      <trkpt lat="44.89073" lon="0.79521">
        <ele>140.27</ele>
        <time>2017-03-29T15:43:52Z</time>
      </trkpt>
      <trkpt lat="44.89096" lon="0.79488">
        <ele>135.771</ele>
        <time>2017-03-29T15:44:12Z</time>
      </trkpt>
      <trkpt lat="44.89122" lon="0.79465">
        <ele>132.097</ele>
        <time>2017-03-29T15:44:32Z</time>
      </trkpt>
      <trkpt lat="44.89156" lon="0.79453">
        <ele>131.339</ele>
        <time>2017-03-29T15:44:52Z</time>
      </trkpt>
      <trkpt lat="44.89216" lon="0.79467">
        <ele>131.828</ele>
        <time>2017-03-29T15:45:12Z</time>
      </trkpt>
      <trkpt lat="44.89288" lon="0.79406">
        <ele>131.089</ele>
        <time>2017-03-29T15:45:32Z</time>
      </trkpt>
      <trkpt lat="44.89352" lon="0.79406">
        <ele>125.017</ele>
        <time>2017-03-29T15:45:52Z</time>
      </trkpt>
      <trkpt lat="44.89369" lon="0.79379">
        <ele>127.208</ele>
        <time>2017-03-29T15:46:12Z</time>
      </trkpt>
      <trkpt lat="44.89389" lon="0.79369">
        <ele>126.478</ele>
        <time>2017-03-29T15:46:32Z</time>
      </trkpt>
      <trkpt lat="44.89404" lon="0.79389">
        <ele>125.063</ele>
        <time>2017-03-29T15:46:52Z</time>
      </trkpt>
      <trkpt lat="44.89462" lon="0.79383">
        <ele>122.013</ele>
        <time>2017-03-29T15:47:12Z</time>
      </trkpt>
      <trkpt lat="44.89491" lon="0.79371">
        <ele>123.525</ele>
        <time>2017-03-29T15:47:32Z</time>
      </trkpt>
      <trkpt lat="44.89514" lon="0.79374">
        <ele>122.627</ele>
        <time>2017-03-29T15:47:52Z</time>
      </trkpt>
      <trkpt lat="44.89542" lon="0.79394">
        <ele>120.238</ele>
        <time>2017-03-29T15:48:12Z</time>
      </trkpt>
      <trkpt lat="44.89552" lon="0.79432">
        <ele>119.644</ele>
        <time>2017-03-29T15:48:32Z</time>
      </trkpt>
      <trkpt lat="44.8957" lon="0.79426">
        <ele>121.976</ele>
        <time>2017-03-29T15:48:52Z</time>
      </trkpt>
      <trkpt lat="44.8959" lon="0.79405">
        <ele>123.069</ele>
        <time>2017-03-29T15:49:12Z</time>
      </trkpt>
      <trkpt lat="44.89621" lon="0.79427">
        <ele>126.304</ele>
        <time>2017-03-29T15:49:32Z</time>
      </trkpt>
      <trkpt lat="44.89636" lon="0.7945">
        <ele>128.424</ele>
        <time>2017-03-29T15:49:52Z</time>
      </trkpt>
      <trkpt lat="44.89665" lon="0.7947">
        <ele>131.808</ele>
        <time>2017-03-29T15:50:12Z</time>
      </trkpt>
      <trkpt lat="44.89767" lon="0.79577">
        <ele>151.222</ele>
        <time>2017-03-29T15:50:32Z</time>
      </trkpt>
      <trkpt lat="44.89825" lon="0.79668">
        <ele>165.047</ele>
        <time>2017-03-29T15:50:52Z</time>
      </trkpt>
      <trkpt lat="44.89888" lon="0.79751">
        <ele>176.077</ele>
        <time>2017-03-29T15:51:12Z</time>
      </trkpt>
      <trkpt lat="44.89922" lon="0.79814">
        <ele>181.899</ele>
        <time>2017-03-29T15:51:32Z</time>
      </trkpt>
      <trkpt lat="44.89987" lon="0.79868">
        <ele>186.721</ele>
        <time>2017-03-29T15:51:52Z</time>
      </trkpt>
      <trkpt lat="44.89935" lon="0.79969">
        <ele>187.212</ele>
        <time>2017-03-29T15:52:12Z</time>
      </trkpt>
      <trkpt lat="44.89812" lon="0.80167">
        <ele>178.068</ele>
        <time>2017-03-29T15:52:32Z</time>
      </trkpt>
      <trkpt lat="44.89794" lon="0.80216">
        <ele>179.29</ele>
        <time>2017-03-29T15:52:52Z</time>
      </trkpt>
      <trkpt lat="44.89787" lon="0.80281">
        <ele>179.172</ele>
        <time>2017-03-29T15:53:12Z</time>
      </trkpt>
      <trkpt lat="44.89787" lon="0.80359">
        <ele>172.513</ele>
        <time>2017-03-29T15:53:32Z</time>
      </trkpt>
      <trkpt lat="44.89769" lon="0.80503">
        <ele>173.814</ele>
        <time>2017-03-29T15:53:52Z</time>
      </trkpt>
      <trkpt lat="44.89763" lon="0.80528">
        <ele>174.508</ele>
        <time>2017-03-29T15:54:12Z</time>
      </trkpt>
      <trkpt lat="44.89702" lon="0.80615">
        <ele>176.383</ele>
        <time>2017-03-29T15:54:32Z</time>
      </trkpt>
      <trkpt lat="44.8975" lon="0.80745">
        <ele>178.278</ele>
        <time>2017-03-29T15:54:52Z</time>
      </trkpt>
      <trkpt lat="44.89805" lon="0.8087">
        <ele>170.318</ele>
        <time>2017-03-29T15:55:12Z</time>
      </trkpt>
      <trkpt lat="44.89785" lon="0.80891">
        <ele>167.38</ele>
        <time>2017-03-29T15:55:32Z</time>
      </trkpt>
      <trkpt lat="44.89779" lon="0.80941">
        <ele>160.542</ele>
        <time>2017-03-29T15:55:52Z</time>
      </trkpt>
      <trkpt lat="44.89773" lon="0.8096">
        <ele>158.453</ele>
        <time>2017-03-29T15:56:12Z</time>
      </trkpt>
      <trkpt lat="44.89731" lon="0.81022">
        <ele>150.959</ele>
        <time>2017-03-29T15:56:32Z</time>
      </trkpt>
      <trkpt lat="44.89706" lon="0.81045">
        <ele>148.121</ele>
        <time>2017-03-29T15:56:52Z</time>
      </trkpt>
      <trkpt lat="44.89712" lon="0.81104">
        <ele>148.588</ele>
        <time>2017-03-29T15:57:12Z</time>
      </trkpt>
      <trkpt lat="44.89711" lon="0.81172">
        <ele>146.724</ele>
        <time>2017-03-29T15:57:32Z</time>
      </trkpt>
      <trkpt lat="44.89727" lon="0.81241">
        <ele>139.526</ele>
        <time>2017-03-29T15:57:52Z</time>
      </trkpt>
      <trkpt lat="44.89738" lon="0.81309">
        <ele>133.408</ele>
        <time>2017-03-29T15:58:12Z</time>
      </trkpt>
      <trkpt lat="44.89748" lon="0.81331">
        <ele>129.484</ele>
        <time>2017-03-29T15:58:32Z</time>
      </trkpt>
      <trkpt lat="44.89763" lon="0.81416">
        <ele>125.529</ele>
        <time>2017-03-29T15:58:52Z</time>
      </trkpt>
      <trkpt lat="44.89709" lon="0.81465">
        <ele>120.049</ele>
        <time>2017-03-29T15:59:12Z</time>
      </trkpt>
      <trkpt lat="44.8966" lon="0.81494">
        <ele>118.651</ele>
        <time>2017-03-29T15:59:32Z</time>
      </trkpt>
      <trkpt lat="44.89657" lon="0.81509">
        <ele>119.293</ele>
        <time>2017-03-29T15:59:52Z</time>
      </trkpt>
      <trkpt lat="44.89663" lon="0.81558">
        <ele>117.894</ele>
        <time>2017-03-29T16:00:12Z</time>
      </trkpt>
      <trkpt lat="44.8966" lon="0.81569">
        <ele>118.77</ele>
        <time>2017-03-29T16:00:32Z</time>
      </trkpt>
      <trkpt lat="44.89623" lon="0.81589">
        <ele>127.562</ele>
        <time>2017-03-29T16:00:52Z</time>
      </trkpt>
      <trkpt lat="44.89562" lon="0.8168">
        <ele>135.886</ele>
        <time>2017-03-29T16:01:12Z</time>
      </trkpt>
      <trkpt lat="44.89556" lon="0.81687">
        <ele>136.96</ele>
        <time>2017-03-29T16:01:32Z</time>
      </trkpt>
      <trkpt lat="44.89548" lon="0.81679">
        <ele>137.126</ele>
        <time>2017-03-29T16:01:52Z</time>
      </trkpt>
      <trkpt lat="44.89534" lon="0.81708">
        <ele>136.008</ele>
        <time>2017-03-29T16:02:12Z</time>
      </trkpt>
      <trkpt lat="44.89525" lon="0.8174">
        <ele>134.124</ele>
        <time>2017-03-29T16:02:32Z</time>
      </trkpt>
      <trkpt lat="44.89519" lon="0.81734">
        <ele>134.089</ele>
        <time>2017-03-29T16:02:52Z</time>
      </trkpt>
      <trkpt lat="44.89436" lon="0.81799">
        <ele>127.519</ele>
        <time>2017-03-29T16:03:12Z</time>
      </trkpt>
      <trkpt lat="44.89424" lon="0.81818">
        <ele>126.551</ele>
        <time>2017-03-29T16:03:32Z</time>
      </trkpt>
      <trkpt lat="44.89294" lon="0.81921">
        <ele>119.023</ele>
        <time>2017-03-29T16:03:52Z</time>
      </trkpt>
      <trkpt lat="44.89238" lon="0.81962">
        <ele>128.874</ele>
        <time>2017-03-29T16:04:12Z</time>
      </trkpt>
      <trkpt lat="44.89219" lon="0.81968">
        <ele>129.12</ele>
        <time>2017-03-29T16:04:32Z</time>
      </trkpt>
      <trkpt lat="44.89185" lon="0.82006">
        <ele>132.932</ele>
        <time>2017-03-29T16:04:52Z</time>
      </trkpt>
      <trkpt lat="44.89122" lon="0.82039">
        <ele>142.583</ele>
        <time>2017-03-29T16:05:12Z</time>
      </trkpt>
      <trkpt lat="44.89027" lon="0.82049">
        <ele>150.325</ele>
        <time>2017-03-29T16:05:32Z</time>
      </trkpt>
      <trkpt lat="44.88953" lon="0.82079">
        <ele>155.917</ele>
        <time>2017-03-29T16:05:52Z</time>
      </trkpt>
      <trkpt lat="44.88822" lon="0.82204">
        <ele>145.108</ele>
        <time>2017-03-29T16:06:12Z</time>
      </trkpt>
      <trkpt lat="44.88786" lon="0.82261">
        <ele>143.014</ele>
        <time>2017-03-29T16:06:32Z</time>
      </trkpt>
      <trkpt lat="44.88735" lon="0.82332">
        <ele>137.979</ele>
        <time>2017-03-29T16:06:52Z</time>
      </trkpt>
      <trkpt lat="44.88736" lon="0.82343">
        <ele>137.389</ele>
        <time>2017-03-29T16:07:12Z</time>
      </trkpt>
      <trkpt lat="44.88697" lon="0.82499">
        <ele>141.871</ele>
        <time>2017-03-29T16:07:32Z</time>
      </trkpt>
      <trkpt lat="44.88663" lon="0.82569">
        <ele>144.693</ele>
        <time>2017-03-29T16:07:52Z</time>
      </trkpt>
      <trkpt lat="44.88595" lon="0.8278">
        <ele>145.254</ele>
        <time>2017-03-29T16:08:12Z</time>
      </trkpt>
      <trkpt lat="44.88562" lon="0.82833">
        <ele>141.41</ele>
        <time>2017-03-29T16:08:32Z</time>
      </trkpt>
      <trkpt lat="44.88539" lon="0.82876">
        <ele>140.832</ele>
        <time>2017-03-29T16:08:52Z</time>
      </trkpt>
      <trkpt lat="44.88471" lon="0.82981">
        <ele>131.796</ele>
        <time>2017-03-29T16:09:12Z</time>
      </trkpt>
      <trkpt lat="44.88495" lon="0.83018">
        <ele>136.231</ele>
        <time>2017-03-29T16:09:32Z</time>
      </trkpt>
      <trkpt lat="44.88508" lon="0.83063">
        <ele>138.124</ele>
        <time>2017-03-29T16:09:52Z</time>
      </trkpt>
      <trkpt lat="44.88516" lon="0.83122">
        <ele>136.008</ele>
        <time>2017-03-29T16:10:12Z</time>
      </trkpt>
      <trkpt lat="44.88542" lon="0.83256">
        <ele>123.045</ele>
        <time>2017-03-29T16:10:32Z</time>
      </trkpt>
      <trkpt lat="44.88539" lon="0.83275">
        <ele>121.87</ele>
        <time>2017-03-29T16:10:52Z</time>
      </trkpt>
      <trkpt lat="44.88481" lon="0.83301">
        <ele>123.86</ele>
        <time>2017-03-29T16:11:12Z</time>
      </trkpt>
      <trkpt lat="44.88463" lon="0.83295">
        <ele>124.832</ele>
        <time>2017-03-29T16:11:32Z</time>
      </trkpt>
      <trkpt lat="44.88448" lon="0.83279">
        <ele>125.074</ele>
        <time>2017-03-29T16:11:52Z</time>
      </trkpt>
      <trkpt lat="44.88401" lon="0.83282">
        <ele>117.435</ele>
        <time>2017-03-29T16:12:12Z</time>
      </trkpt>
      <trkpt lat="44.88325" lon="0.83324">
        <ele>110.411</ele>
        <time>2017-03-29T16:12:32Z</time>
      </trkpt>
      <trkpt lat="44.88295" lon="0.83334">
        <ele>109.083</ele>
        <time>2017-03-29T16:12:52Z</time>
      </trkpt>
      <trkpt lat="44.88258" lon="0.83316">
        <ele>105.145</ele>
        <time>2017-03-29T16:13:12Z</time>
      </trkpt>
      <trkpt lat="44.88202" lon="0.83252">
        <ele>94.247</ele>
        <time>2017-03-29T16:13:32Z</time>
      </trkpt>
      <trkpt lat="44.88203" lon="0.83237">
        <ele>92.611</ele>
        <time>2017-03-29T16:13:52Z</time>
      </trkpt>
      <trkpt lat="44.88217" lon="0.83207">
        <ele>92.308</ele>
        <time>2017-03-29T16:14:12Z</time>
      </trkpt>
      <trkpt lat="44.88213" lon="0.83189">
        <ele>91.18</ele>
        <time>2017-03-29T16:14:32Z</time>
      </trkpt>
      <trkpt lat="44.88196" lon="0.8318">
        <ele>88.175</ele>
        <time>2017-03-29T16:14:52Z</time>
      </trkpt>
      <trkpt lat="44.88166" lon="0.83175">
        <ele>81.575</ele>
        <time>2017-03-29T16:15:12Z</time>
      </trkpt>
      <trkpt lat="44.88156" lon="0.83187">
        <ele>80.667</ele>
        <time>2017-03-29T16:15:32Z</time>
      </trkpt>
      <trkpt lat="44.88151" lon="0.83205">
        <ele>81.359</ele>
        <time>2017-03-29T16:15:52Z</time>
      </trkpt>
      <trkpt lat="44.88072" lon="0.8324">
        <ele>78.66</ele>
        <time>2017-03-29T16:16:12Z</time>
      </trkpt>
      <trkpt lat="44.87982" lon="0.83248">
        <ele>70.346</ele>
        <time>2017-03-29T16:16:32Z</time>
      </trkpt>
      <trkpt lat="44.8796" lon="0.83232">
        <ele>66.498</ele>
        <time>2017-03-29T16:16:52Z</time>
      </trkpt>
      <trkpt lat="44.87926" lon="0.83252">
        <ele>65.956</ele>
        <time>2017-03-29T16:17:12Z</time>
      </trkpt>
      <trkpt lat="44.87907" lon="0.83236">
        <ele>63.759</ele>
        <time>2017-03-29T16:17:32Z</time>
      </trkpt>
      <trkpt lat="44.87852" lon="0.83249">
        <ele>61.914</ele>
        <time>2017-03-29T16:17:52Z</time>
      </trkpt>
      <trkpt lat="44.87843" lon="0.8323">
        <ele>59.808</ele>
        <time>2017-03-29T16:18:12Z</time>
      </trkpt>
      <trkpt lat="44.87833" lon="0.83164">
        <ele>60.971</ele>
        <time>2017-03-29T16:18:32Z</time>
      </trkpt>
      <trkpt lat="44.87778" lon="0.83175">
        <ele>58.386</ele>
        <time>2017-03-29T16:18:52Z</time>
      </trkpt>
      <trkpt lat="44.87757" lon="0.83062">
        <ele>55.056</ele>
        <time>2017-03-29T16:19:12Z</time>
      </trkpt>
      <trkpt lat="44.87699" lon="0.8309">
        <ele>56.978</ele>
        <time>2017-03-29T16:19:32Z</time>
      </trkpt>
      <trkpt lat="44.87609" lon="0.83079">
        <ele>56.99</ele>
        <time>2017-03-29T16:19:52Z</time>
      </trkpt>
      <trkpt lat="44.87634" lon="0.83402">
        <ele>54.851</ele>
        <time>2017-03-29T16:20:12Z</time>
      </trkpt>
      <trkpt lat="44.87699" lon="0.83678">
        <ele>65.787</ele>
        <time>2017-03-29T16:20:32Z</time>
      </trkpt>
      <trkpt lat="44.87746" lon="0.83763">
        <ele>64.859</ele>
        <time>2017-03-29T16:20:52Z</time>
      </trkpt>
      <trkpt lat="44.8781" lon="0.83838">
        <ele>69.081</ele>
        <time>2017-03-29T16:21:12Z</time>
      </trkpt>
      <trkpt lat="44.87868" lon="0.8388">
        <ele>70.361</ele>
        <time>2017-03-29T16:21:32Z</time>
      </trkpt>
      <trkpt lat="44.87944" lon="0.83912">
        <ele>64.917</ele>
        <time>2017-03-29T16:21:52Z</time>
      </trkpt>
      <trkpt lat="44.88175" lon="0.83922">
        <ele>69.208</ele>
        <time>2017-03-29T16:22:12Z</time>
      </trkpt>
      <trkpt lat="44.8825" lon="0.84038">
        <ele>62.094</ele>
        <time>2017-03-29T16:22:32Z</time>
      </trkpt>
      <trkpt lat="44.88287" lon="0.84035">
        <ele>65.189</ele>
        <time>2017-03-29T16:22:52Z</time>
      </trkpt>
      <trkpt lat="44.88289" lon="0.84119">
        <ele>70.799</ele>
        <time>2017-03-29T16:23:12Z</time>
      </trkpt>
      <trkpt lat="44.8833" lon="0.8418">
        <ele>75.871</ele>
        <time>2017-03-29T16:23:32Z</time>
      </trkpt>
      <trkpt lat="44.8834" lon="0.84218">
        <ele>77.643</ele>
        <time>2017-03-29T16:23:52Z</time>
      </trkpt>
      <trkpt lat="44.88349" lon="0.84376">
        <ele>83.394</ele>
        <time>2017-03-29T16:24:12Z</time>
      </trkpt>
      <trkpt lat="44.88335" lon="0.84456">
        <ele>87.04</ele>
        <time>2017-03-29T16:24:32Z</time>
      </trkpt>
      <trkpt lat="44.88305" lon="0.84465">
        <ele>91.882</ele>
        <time>2017-03-29T16:24:52Z</time>
      </trkpt>
      <trkpt lat="44.88264" lon="0.84451">
        <ele>96.639</ele>
        <time>2017-03-29T16:25:12Z</time>
      </trkpt>
      <trkpt lat="44.88253" lon="0.8444">
        <ele>97.501</ele>
        <time>2017-03-29T16:25:32Z</time>
      </trkpt>
      <trkpt lat="44.88236" lon="0.84442">
        <ele>98.921</ele>
        <time>2017-03-29T16:25:52Z</time>
      </trkpt>
      <trkpt lat="44.88163" lon="0.84399">
        <ele>102.408</ele>
        <time>2017-03-29T16:26:12Z</time>
      </trkpt>
      <trkpt lat="44.88073" lon="0.84481">
        <ele>107.859</ele>
        <time>2017-03-29T16:26:32Z</time>
      </trkpt>
      <trkpt lat="44.88064" lon="0.84516">
        <ele>109.294</ele>
        <time>2017-03-29T16:26:52Z</time>
      </trkpt>
      <trkpt lat="44.8806" lon="0.84587">
        <ele>108.054</ele>
        <time>2017-03-29T16:27:12Z</time>
      </trkpt>
      <trkpt lat="44.88075" lon="0.84671">
        <ele>108.156</ele>
        <time>2017-03-29T16:27:32Z</time>
      </trkpt>
      <trkpt lat="44.88099" lon="0.84749">
        <ele>98.588</ele>
        <time>2017-03-29T16:27:52Z</time>
      </trkpt>
      <trkpt lat="44.88155" lon="0.84841">
        <ele>98.379</ele>
        <time>2017-03-29T16:28:12Z</time>
      </trkpt>
      <trkpt lat="44.8819" lon="0.84857">
        <ele>100.425</ele>
        <time>2017-03-29T16:28:32Z</time>
      </trkpt>
      <trkpt lat="44.88209" lon="0.84902">
        <ele>103.267</ele>
        <time>2017-03-29T16:28:52Z</time>
      </trkpt>
      <trkpt lat="44.88212" lon="0.85052">
        <ele>108.887</ele>
        <time>2017-03-29T16:29:12Z</time>
      </trkpt>
      <trkpt lat="44.88224" lon="0.85164">
        <ele>115.842</ele>
        <time>2017-03-29T16:29:32Z</time>
      </trkpt>
      <trkpt lat="44.88185" lon="0.8526">
        <ele>120.726</ele>
        <time>2017-03-29T16:29:52Z</time>
      </trkpt>
      <trkpt lat="44.88169" lon="0.85368">
        <ele>120.208</ele>
        <time>2017-03-29T16:30:12Z</time>
      </trkpt>
      <trkpt lat="44.88144" lon="0.85464">
        <ele>126.874</ele>
        <time>2017-03-29T16:30:32Z</time>
      </trkpt>
      <trkpt lat="44.88142" lon="0.8553">
        <ele>130.619</ele>
        <time>2017-03-29T16:30:52Z</time>
      </trkpt>
      <trkpt lat="44.88123" lon="0.85651">
        <ele>134.199</ele>
        <time>2017-03-29T16:31:12Z</time>
      </trkpt>
      <trkpt lat="44.88031" lon="0.85662">
        <ele>131.091</ele>
        <time>2017-03-29T16:31:32Z</time>
      </trkpt>
      <trkpt lat="44.88081" lon="0.85839">
        <ele>131.893</ele>
        <time>2017-03-29T16:31:52Z</time>
      </trkpt>
      <trkpt lat="44.88083" lon="0.85876">
        <ele>130.594</ele>
        <time>2017-03-29T16:32:12Z</time>
      </trkpt>
      <trkpt lat="44.88102" lon="0.85944">
        <ele>126.75</ele>
        <time>2017-03-29T16:32:32Z</time>
      </trkpt>
      <trkpt lat="44.88112" lon="0.86004">
        <ele>124.962</ele>
        <time>2017-03-29T16:32:52Z</time>
      </trkpt>
      <trkpt lat="44.88144" lon="0.86081">
        <ele>122.672</ele>
        <time>2017-03-29T16:33:12Z</time>
      </trkpt>
      <trkpt lat="44.88184" lon="0.86123">
        <ele>117.713</ele>
        <time>2017-03-29T16:33:32Z</time>
      </trkpt>
      <trkpt lat="44.88214" lon="0.86162">
        <ele>116.014</ele>
        <time>2017-03-29T16:33:52Z</time>
      </trkpt>
      <trkpt lat="44.88347" lon="0.86172">
        <ele>105.008</ele>
        <time>2017-03-29T16:34:12Z</time>
      </trkpt>
      <trkpt lat="44.88374" lon="0.86164">
        <ele>103.523</ele>
        <time>2017-03-29T16:34:32Z</time>
      </trkpt>
      <trkpt lat="44.88395" lon="0.86194">
        <ele>104.338</ele>
        <time>2017-03-29T16:34:52Z</time>
      </trkpt>
      <trkpt lat="44.8844" lon="0.86186">
        <ele>98.858</ele>
        <time>2017-03-29T16:35:12Z</time>
      </trkpt>
      <trkpt lat="44.88464" lon="0.86204">
        <ele>96.31</ele>
        <time>2017-03-29T16:35:32Z</time>
      </trkpt>
      <trkpt lat="44.88492" lon="0.86238">
        <ele>92.752</ele>
        <time>2017-03-29T16:35:52Z</time>
      </trkpt>
      <trkpt lat="44.8851" lon="0.86273">
        <ele>89.563</ele>
        <time>2017-03-29T16:36:12Z</time>
      </trkpt>
      <trkpt lat="44.88523" lon="0.86311">
        <ele>81.689</ele>
        <time>2017-03-29T16:36:32Z</time>
      </trkpt>
      <trkpt lat="44.88526" lon="0.86333">
        <ele>75.781</ele>
        <time>2017-03-29T16:36:52Z</time>
      </trkpt>
      <trkpt lat="44.88537" lon="0.86353">
        <ele>68.058</ele>
        <time>2017-03-29T16:37:12Z</time>
      </trkpt>
      <trkpt lat="44.88539" lon="0.86379">
        <ele>63.652</ele>
        <time>2017-03-29T16:37:32Z</time>
      </trkpt>
      <trkpt lat="44.88556" lon="0.86401">
        <ele>58.617</ele>
        <time>2017-03-29T16:37:52Z</time>
      </trkpt>
      <trkpt lat="44.88638" lon="0.86572">
        <ele>64.308</ele>
        <time>2017-03-29T16:38:12Z</time>
      </trkpt>
      <trkpt lat="44.88637" lon="0.86593">
        <ele>67.791</ele>
        <time>2017-03-29T16:38:32Z</time>
      </trkpt>
      <trkpt lat="44.88568" lon="0.86622">
        <ele>71.886</ele>
        <time>2017-03-29T16:38:52Z</time>
      </trkpt>
      <trkpt lat="44.88527" lon="0.86656">
        <ele>73.336</ele>
        <time>2017-03-29T16:39:12Z</time>
      </trkpt>
      <trkpt lat="44.88458" lon="0.86743">
        <ele>82.958</ele>
        <time>2017-03-29T16:39:32Z</time>
      </trkpt>
      <trkpt lat="44.88389" lon="0.86816">
        <ele>84.52</ele>
        <time>2017-03-29T16:39:52Z</time>
      </trkpt>
      <trkpt lat="44.88341" lon="0.86881">
        <ele>88.911</ele>
        <time>2017-03-29T16:40:12Z</time>
      </trkpt>
      <trkpt lat="44.88282" lon="0.86946">
        <ele>94.667</ele>
        <time>2017-03-29T16:40:32Z</time>
      </trkpt>
      <trkpt lat="44.88282" lon="0.86983">
        <ele>89.219</ele>
        <time>2017-03-29T16:40:52Z</time>
      </trkpt>
      <trkpt lat="44.88362" lon="0.87184">
        <ele>107.216</ele>
        <time>2017-03-29T16:41:12Z</time>
      </trkpt>
      <trkpt lat="44.88384" lon="0.87338">
        <ele>101.976</ele>
        <time>2017-03-29T16:41:32Z</time>
      </trkpt>
      <trkpt lat="44.88409" lon="0.87413">
        <ele>102.713</ele>
        <time>2017-03-29T16:41:52Z</time>
      </trkpt>
      <trkpt lat="44.88405" lon="0.8751">
        <ele>96.908</ele>
        <time>2017-03-29T16:42:12Z</time>
      </trkpt>
      <trkpt lat="44.88431" lon="0.87638">
        <ele>109.647</ele>
        <time>2017-03-29T16:42:32Z</time>
      </trkpt>
      <trkpt lat="44.88416" lon="0.87782">
        <ele>107.912</ele>
        <time>2017-03-29T16:42:52Z</time>
      </trkpt>
      <trkpt lat="44.88416" lon="0.87899">
        <ele>118.042</ele>
        <time>2017-03-29T16:43:12Z</time>
      </trkpt>
      <trkpt lat="44.8841" lon="0.87961">
        <ele>117.244</ele>
        <time>2017-03-29T16:43:32Z</time>
      </trkpt>
      <trkpt lat="44.88626" lon="0.87985">
        <ele>132.776</ele>
        <time>2017-03-29T16:43:52Z</time>
      </trkpt>
      <trkpt lat="44.8861" lon="0.8811">
        <ele>122.047</ele>
        <time>2017-03-29T16:44:12Z</time>
      </trkpt>
      <trkpt lat="44.88619" lon="0.88126">
        <ele>123.173</ele>
        <time>2017-03-29T16:44:32Z</time>
      </trkpt>
      <trkpt lat="44.88672" lon="0.88114">
        <ele>131.325</ele>
        <time>2017-03-29T16:44:52Z</time>
      </trkpt>
      <trkpt lat="44.88705" lon="0.88128">
        <ele>133.792</ele>
        <time>2017-03-29T16:45:12Z</time>
      </trkpt>
      <trkpt lat="44.88735" lon="0.88128">
        <ele>135.073</ele>
        <time>2017-03-29T16:45:32Z</time>
      </trkpt>
      <trkpt lat="44.88816" lon="0.88103">
        <ele>137.02</ele>
        <time>2017-03-29T16:45:52Z</time>
      </trkpt>
      <trkpt lat="44.88862" lon="0.88077">
        <ele>134.308</ele>
        <time>2017-03-29T16:46:12Z</time>
      </trkpt>
      <trkpt lat="44.88923" lon="0.88027">
        <ele>132.575</ele>
        <time>2017-03-29T16:46:32Z</time>
      </trkpt>
      <trkpt lat="44.88989" lon="0.88232">
        <ele>119.88</ele>
        <time>2017-03-29T16:46:52Z</time>
      </trkpt>
      <trkpt lat="44.8906" lon="0.88114">
        <ele>127.4</ele>
      </trkpt>
      <trkpt lat="44.89101" lon="0.88022">
        <ele>133.6</ele>
      </trkpt>
      <trkpt lat="44.89124" lon="0.87923">
        <ele>141.2</ele>
      </trkpt>
      <trkpt lat="44.89163" lon="0.87902">
        <ele>146.6</ele>
      </trkpt>
      <trkpt lat="44.89321" lon="0.87963">
        <ele>159.6</ele>
      </trkpt>
    </trkseg>
  </trk>
  <trk>
    <name><![CDATA[Le bugue]]></name>
    <extensions>
      <line xmlns="http://www.topografix.com/GPX/gpx_style/0/2">
        <color>44ff00</color>
        <width>4</width>
      </line>
    </extensions>
    <trkseg>
      <trkpt lat="44.8932" lon="0.87972">
        <ele>159.6</ele>
      </trkpt>
      <trkpt lat="44.8932" lon="0.87972">
        <ele>159.6</ele>
      </trkpt>
      <trkpt lat="44.8932" lon="0.87972">
        <ele>159.6</ele>
      </trkpt>
      <trkpt lat="44.8932" lon="0.87972">
        <ele>159.6</ele>
      </trkpt>
      <trkpt lat="44.8932" lon="0.87972">
        <ele>159.6</ele>
      </trkpt>
      <trkpt lat="44.8932" lon="0.87972">
        <ele>159.6</ele>
      </trkpt>
      <trkpt lat="44.89164" lon="0.879">
        <ele>146.6</ele>
      </trkpt>
      <trkpt lat="44.89121" lon="0.87921">
        <ele>140.7</ele>
      </trkpt>
      <trkpt lat="44.89099" lon="0.88015">
        <ele>133.6</ele>
      </trkpt>
      <trkpt lat="44.89057" lon="0.88111">
        <ele>127.5</ele>
      </trkpt>
      <trkpt lat="44.88989" lon="0.88232">
        <ele>119.88</ele>
        <time>2017-03-29T16:46:52Z</time>
      </trkpt>
      <trkpt lat="44.88923" lon="0.88426">
        <ele>114.21</ele>
        <time>2017-03-29T16:47:12Z</time>
      </trkpt>
      <trkpt lat="44.88871" lon="0.8848">
        <ele>109.782</ele>
        <time>2017-03-29T16:47:32Z</time>
      </trkpt>
      <trkpt lat="44.88746" lon="0.88726">
        <ele>75.734</ele>
        <time>2017-03-29T16:47:52Z</time>
      </trkpt>
      <trkpt lat="44.88736" lon="0.88853">
        <ele>71.455</ele>
        <time>2017-03-29T16:48:12Z</time>
      </trkpt>
      <trkpt lat="44.88723" lon="0.88883">
        <ele>76.721</ele>
        <time>2017-03-29T16:48:32Z</time>
      </trkpt>
      <trkpt lat="44.8868" lon="0.889">
        <ele>84.173</ele>
        <time>2017-03-29T16:48:52Z</time>
      </trkpt>
      <trkpt lat="44.88633" lon="0.88932">
        <ele>91.715</ele>
        <time>2017-03-29T16:49:12Z</time>
      </trkpt>
      <trkpt lat="44.88622" lon="0.88955">
        <ele>95.865</ele>
        <time>2017-03-29T16:49:32Z</time>
      </trkpt>
      <trkpt lat="44.88619" lon="0.88982">
        <ele>100.211</ele>
        <time>2017-03-29T16:49:52Z</time>
      </trkpt>
      <trkpt lat="44.88603" lon="0.89012">
        <ele>102.508</ele>
        <time>2017-03-29T16:50:12Z</time>
      </trkpt>
      <trkpt lat="44.88603" lon="0.89012">
        <ele>102.508</ele>
        <time>2017-03-29T16:50:12Z</time>
      </trkpt>
      <trkpt lat="44.88603" lon="0.89012">
        <ele>102.508</ele>
        <time>2017-03-29T16:50:12Z</time>
      </trkpt>
      <trkpt lat="44.88603" lon="0.89012">
        <ele>102.508</ele>
        <time>2017-03-29T16:50:12Z</time>
      </trkpt>
      <trkpt lat="44.88603" lon="0.89012">
        <ele>102.508</ele>
        <time>2017-03-29T16:50:12Z</time>
      </trkpt>
      <trkpt lat="44.88603" lon="0.89012">
        <ele>102.508</ele>
        <time>2017-03-29T16:50:12Z</time>
      </trkpt>
      <trkpt lat="44.88627" lon="0.89033">
        <ele>104.537</ele>
        <time>2017-03-29T16:50:32Z</time>
      </trkpt>
      <trkpt lat="44.88637" lon="0.89022">
        <ele>105.452</ele>
        <time>2017-03-29T16:50:52Z</time>
      </trkpt>
      <trkpt lat="44.88651" lon="0.89045">
        <ele>107.522</ele>
        <time>2017-03-29T16:51:12Z</time>
      </trkpt>
      <trkpt lat="44.88697" lon="0.89065">
        <ele>110.874</ele>
        <time>2017-03-29T16:51:32Z</time>
      </trkpt>
      <trkpt lat="44.88732" lon="0.89106">
        <ele>108.546</ele>
        <time>2017-03-29T16:51:52Z</time>
      </trkpt>
      <trkpt lat="44.88836" lon="0.89204">
        <ele>121.227</ele>
        <time>2017-03-29T16:52:12Z</time>
      </trkpt>
      <trkpt lat="44.88893" lon="0.89224">
        <ele>123.573</ele>
        <time>2017-03-29T16:52:32Z</time>
      </trkpt>
      <trkpt lat="44.88986" lon="0.89301">
        <ele>117.425</ele>
        <time>2017-03-29T16:52:52Z</time>
      </trkpt>
      <trkpt lat="44.8904" lon="0.89325">
        <ele>116.729</ele>
        <time>2017-03-29T16:53:12Z</time>
      </trkpt>
      <trkpt lat="44.89215" lon="0.89438">
        <ele>119.2</ele>
        <time>2017-03-29T16:53:32Z</time>
      </trkpt>
      <trkpt lat="44.8939" lon="0.89535">
        <ele>121.02</ele>
        <time>2017-03-29T16:53:52Z</time>
      </trkpt>
      <trkpt lat="44.89429" lon="0.89579">
        <ele>123.408</ele>
        <time>2020-03-06T14:16:27Z</time>
      </trkpt>
      <trkpt lat="44.89609" lon="0.89534">
        <ele>113.288</ele>
        <time>2020-03-06T14:16:47Z</time>
      </trkpt>
      <trkpt lat="44.89686" lon="0.89485">
        <ele>108.353</ele>
        <time>2020-03-06T14:17:07Z</time>
      </trkpt>
      <trkpt lat="44.89845" lon="0.89409">
        <ele>107.753</ele>
        <time>2020-03-06T14:17:27Z</time>
      </trkpt>
      <trkpt lat="44.8997" lon="0.89384">
        <ele>109.365</ele>
        <time>2020-03-06T14:17:47Z</time>
      </trkpt>
      <trkpt lat="44.90077" lon="0.89377">
        <ele>112.477</ele>
        <time>2020-03-06T14:18:07Z</time>
      </trkpt>
      <trkpt lat="44.9019" lon="0.89167">
        <ele>118.338</ele>
        <time>2020-03-06T14:18:27Z</time>
      </trkpt>
      <trkpt lat="44.90244" lon="0.89027">
        <ele>124.664</ele>
        <time>2020-03-06T14:18:47Z</time>
      </trkpt>
      <trkpt lat="44.90316" lon="0.88933">
        <ele>127.656</ele>
        <time>2020-03-06T14:19:07Z</time>
      </trkpt>
      <trkpt lat="44.90382" lon="0.88893">
        <ele>128.282</ele>
        <time>2020-03-06T14:19:27Z</time>
      </trkpt>
      <trkpt lat="44.90513" lon="0.88886">
        <ele>136.243</ele>
        <time>2020-03-06T14:19:47Z</time>
      </trkpt>
      <trkpt lat="44.90731" lon="0.88822">
        <ele>150.917</ele>
        <time>2020-03-06T14:20:07Z</time>
      </trkpt>
      <trkpt lat="44.90756" lon="0.88741">
        <ele>151.808</ele>
        <time>2020-03-06T14:20:27Z</time>
      </trkpt>
      <trkpt lat="44.90796" lon="0.88674">
        <ele>152.224</ele>
        <time>2020-03-06T14:20:47Z</time>
      </trkpt>
      <trkpt lat="44.90796" lon="0.88674">
        <ele>152.224</ele>
        <time>2020-03-06T14:20:47Z</time>
      </trkpt>
      <trkpt lat="44.90796" lon="0.88674">
        <ele>152.224</ele>
        <time>2020-03-06T14:20:47Z</time>
      </trkpt>
      <trkpt lat="44.90796" lon="0.88674">
        <ele>152.224</ele>
        <time>2020-03-06T14:20:47Z</time>
      </trkpt>
      <trkpt lat="44.90782" lon="0.8862">
        <ele>149.999</ele>
        <time>2020-03-06T14:21:07Z</time>
      </trkpt>
      <trkpt lat="44.90684" lon="0.88516">
        <ele>158.339</ele>
        <time>2020-03-06T14:21:27Z</time>
      </trkpt>
      <trkpt lat="44.90631" lon="0.8846">
        <ele>162.441</ele>
        <time>2020-03-06T14:21:47Z</time>
      </trkpt>
      <trkpt lat="44.90606" lon="0.88403">
        <ele>164.673</ele>
        <time>2020-03-06T14:22:07Z</time>
      </trkpt>
      <trkpt lat="44.90583" lon="0.88309">
        <ele>165.944</ele>
        <time>2020-03-06T14:22:27Z</time>
      </trkpt>
      <trkpt lat="44.90493" lon="0.88221">
        <ele>171.67</ele>
        <time>2020-03-06T14:22:47Z</time>
      </trkpt>
      <trkpt lat="44.90378" lon="0.8816">
        <ele>172.972</ele>
        <time>2020-03-06T14:23:07Z</time>
      </trkpt>
      <trkpt lat="44.90309" lon="0.88156">
        <ele>170.378</ele>
        <time>2020-03-06T14:23:27Z</time>
      </trkpt>
      <trkpt lat="44.90371" lon="0.88114">
        <ele>172.333</ele>
        <time>2020-03-06T14:23:47Z</time>
      </trkpt>
      <trkpt lat="44.90432" lon="0.88091">
        <ele>176.326</ele>
        <time>2020-03-06T14:24:07Z</time>
      </trkpt>
      <trkpt lat="44.90485" lon="0.88049">
        <ele>179.908</ele>
        <time>2020-03-06T14:24:27Z</time>
      </trkpt>
      <trkpt lat="44.90564" lon="0.88015">
        <ele>185.313</ele>
        <time>2020-03-06T14:24:47Z</time>
      </trkpt>
      <trkpt lat="44.90624" lon="0.87893">
        <ele>186.528</ele>
        <time>2020-03-06T14:25:07Z</time>
      </trkpt>
      <trkpt lat="44.90661" lon="0.87864">
        <ele>185.938</ele>
        <time>2020-03-06T14:25:27Z</time>
      </trkpt>
      <trkpt lat="44.90803" lon="0.87789">
        <ele>188.66</ele>
        <time>2020-03-06T14:25:47Z</time>
      </trkpt>
      <trkpt lat="44.90845" lon="0.87753">
        <ele>192.972</ele>
        <time>2020-03-06T14:26:07Z</time>
      </trkpt>
      <trkpt lat="44.90912" lon="0.87729">
        <ele>196.413</ele>
        <time>2020-03-06T14:26:27Z</time>
      </trkpt>
      <trkpt lat="44.90934" lon="0.87707">
        <ele>197.349</ele>
        <time>2020-03-06T14:26:47Z</time>
      </trkpt>
      <trkpt lat="44.91024" lon="0.87748">
        <ele>198.231</ele>
        <time>2020-03-06T14:27:07Z</time>
      </trkpt>
      <trkpt lat="44.91074" lon="0.87881">
        <ele>197.392</ele>
        <time>2020-03-06T14:27:27Z</time>
      </trkpt>
      <trkpt lat="44.91148" lon="0.88023">
        <ele>197.773</ele>
        <time>2020-03-06T14:27:47Z</time>
      </trkpt>
      <trkpt lat="44.91226" lon="0.88143">
        <ele>203.52</ele>
        <time>2020-03-06T14:28:07Z</time>
      </trkpt>
      <trkpt lat="44.91269" lon="0.88247">
        <ele>206.808</ele>
        <time>2020-03-06T14:28:27Z</time>
      </trkpt>
      <trkpt lat="44.91285" lon="0.88347">
        <ele>205.855</ele>
        <time>2020-03-06T14:28:47Z</time>
      </trkpt>
      <trkpt lat="44.91279" lon="0.88473">
        <ele>203.12</ele>
        <time>2020-03-06T14:29:07Z</time>
      </trkpt>
      <trkpt lat="44.9132" lon="0.88625">
        <ele>193.54</ele>
        <time>2020-03-06T14:29:27Z</time>
      </trkpt>
      <trkpt lat="44.9132" lon="0.88677">
        <ele>192.582</ele>
        <time>2020-03-06T14:29:47Z</time>
      </trkpt>
      <trkpt lat="44.91321" lon="0.88679">
        <ele>192.2</ele>
      </trkpt>
      <trkpt lat="44.9132" lon="0.88677">
        <ele>192.582</ele>
        <time>2020-03-06T14:29:47Z</time>
      </trkpt>
      <trkpt lat="44.91297" lon="0.88774">
        <ele>190.414</ele>
        <time>2020-03-06T14:30:07Z</time>
      </trkpt>
      <trkpt lat="44.91282" lon="0.88808">
        <ele>189.485</ele>
        <time>2020-03-06T14:30:27Z</time>
      </trkpt>
      <trkpt lat="44.91268" lon="0.88917">
        <ele>184.631</ele>
        <time>2020-03-06T14:30:47Z</time>
      </trkpt>
      <trkpt lat="44.91276" lon="0.88984">
        <ele>176.733</ele>
        <time>2020-03-06T14:31:07Z</time>
      </trkpt>
      <trkpt lat="44.91266" lon="0.89142">
        <ele>172.318</ele>
        <time>2020-03-06T14:31:27Z</time>
      </trkpt>
      <trkpt lat="44.91309" lon="0.89234">
        <ele>162.598</ele>
        <time>2020-03-06T14:31:47Z</time>
      </trkpt>
      <trkpt lat="44.91361" lon="0.8928">
        <ele>155.917</ele>
        <time>2020-03-06T14:32:07Z</time>
      </trkpt>
      <trkpt lat="44.91385" lon="0.89368">
        <ele>152.908</ele>
        <time>2017-03-29T17:09:12Z</time>
      </trkpt>
      <trkpt lat="44.9141" lon="0.89429">
        <ele>151.337</ele>
        <time>2017-03-29T17:09:32Z</time>
      </trkpt>
      <trkpt lat="44.91478" lon="0.89673">
        <ele>129.682</ele>
        <time>2017-03-29T17:09:52Z</time>
      </trkpt>
      <trkpt lat="44.91526" lon="0.89786">
        <ele>117.922</ele>
        <time>2017-03-29T17:10:12Z</time>
      </trkpt>
      <trkpt lat="44.91541" lon="0.89802">
        <ele>115.874</ele>
        <time>2017-03-29T17:10:32Z</time>
      </trkpt>
      <trkpt lat="44.91705" lon="0.89908">
        <ele>98.776</ele>
        <time>2017-03-29T17:10:52Z</time>
      </trkpt>
      <trkpt lat="44.91749" lon="0.89962">
        <ele>90.067</ele>
        <time>2017-03-29T17:11:12Z</time>
      </trkpt>
      <trkpt lat="44.91769" lon="0.89975">
        <ele>84.923</ele>
        <time>2017-03-29T17:11:32Z</time>
      </trkpt>
      <trkpt lat="44.91776" lon="0.9002">
        <ele>81.675</ele>
        <time>2017-03-29T17:11:52Z</time>
      </trkpt>
      <trkpt lat="44.918" lon="0.89961">
        <ele>81.017</ele>
        <time>2017-03-29T17:12:12Z</time>
      </trkpt>
      <trkpt lat="44.91825" lon="0.89857">
        <ele>86.487</ele>
        <time>2017-03-29T17:12:32Z</time>
      </trkpt>
      <trkpt lat="44.91829" lon="0.89783">
        <ele>89.815</ele>
        <time>2017-03-29T17:12:52Z</time>
      </trkpt>
      <trkpt lat="44.91846" lon="0.89786">
        <ele>87.208</ele>
        <time>2017-03-29T17:13:12Z</time>
      </trkpt>
      <trkpt lat="44.9187" lon="0.89801">
        <ele>84.877</ele>
        <time>2017-03-29T17:13:32Z</time>
      </trkpt>
      <trkpt lat="44.9191" lon="0.89799">
        <ele>84.042</ele>
        <time>2017-03-29T17:13:52Z</time>
      </trkpt>
      <trkpt lat="44.91936" lon="0.89789">
        <ele>85.572</ele>
        <time>2017-03-29T17:14:12Z</time>
      </trkpt>
      <trkpt lat="44.91957" lon="0.89741">
        <ele>88.574</ele>
        <time>2017-03-29T17:14:32Z</time>
      </trkpt>
      <trkpt lat="44.91984" lon="0.89744">
        <ele>90.936</ele>
        <time>2017-03-29T17:14:52Z</time>
      </trkpt>
      <trkpt lat="44.91998" lon="0.89748">
        <ele>91.897</ele>
        <time>2017-03-29T17:15:12Z</time>
      </trkpt>
      <trkpt lat="44.92057" lon="0.89769">
        <ele>95.013</ele>
        <time>2017-03-29T17:15:32Z</time>
      </trkpt>
      <trkpt lat="44.92033" lon="0.89943">
        <ele>118.045</ele>
        <time>2017-03-29T17:15:52Z</time>
      </trkpt>
      <trkpt lat="44.92019" lon="0.9012">
        <ele>150.786</ele>
        <time>2017-03-29T17:16:12Z</time>
      </trkpt>
      <trkpt lat="44.92" lon="0.90117">
        <ele>149.86</ele>
        <time>2017-03-29T17:16:32Z</time>
      </trkpt>
      <trkpt lat="44.91992" lon="0.90213">
        <ele>157.826</ele>
        <time>2017-03-29T17:16:52Z</time>
      </trkpt>
      <trkpt lat="44.91977" lon="0.90286">
        <ele>163.208</ele>
        <time>2017-03-29T17:17:12Z</time>
      </trkpt>
      <trkpt lat="44.91972" lon="0.90321">
        <ele>162.454</ele>
        <time>2017-03-29T17:17:32Z</time>
      </trkpt>
      <trkpt lat="44.92012" lon="0.90385">
        <ele>163.979</ele>
        <time>2017-03-29T17:17:52Z</time>
      </trkpt>
      <trkpt lat="44.92085" lon="0.90358">
        <ele>167.179</ele>
        <time>2017-03-29T17:18:12Z</time>
      </trkpt>
      <trkpt lat="44.92144" lon="0.90372">
        <ele>165.761</ele>
        <time>2017-03-29T17:18:32Z</time>
      </trkpt>
      <trkpt lat="44.92211" lon="0.90437">
        <ele>168.123</ele>
        <time>2017-03-29T17:18:52Z</time>
      </trkpt>
      <trkpt lat="44.92256" lon="0.90452">
        <ele>167.094</ele>
        <time>2017-03-29T17:19:12Z</time>
      </trkpt>
      <trkpt lat="44.92354" lon="0.90531">
        <ele>170.51</ele>
        <time>2017-03-29T17:19:32Z</time>
      </trkpt>
      <trkpt lat="44.92374" lon="0.90573">
        <ele>173.942</ele>
        <time>2017-03-29T17:19:52Z</time>
      </trkpt>
      <trkpt lat="44.92383" lon="0.90639">
        <ele>179.697</ele>
        <time>2017-03-29T17:20:12Z</time>
      </trkpt>
      <trkpt lat="44.92426" lon="0.90774">
        <ele>178.623</ele>
        <time>2017-03-29T17:20:32Z</time>
      </trkpt>
      <trkpt lat="44.92384" lon="0.90959">
        <ele>177.825</ele>
        <time>2017-03-29T17:20:52Z</time>
      </trkpt>
      <trkpt lat="44.924" lon="0.90973">
        <ele>176.208</ele>
        <time>2017-03-29T17:21:12Z</time>
      </trkpt>
      <trkpt lat="44.92393" lon="0.91148">
        <ele>176.725</ele>
        <time>2017-03-29T17:21:32Z</time>
      </trkpt>
      <trkpt lat="44.92376" lon="0.91258">
        <ele>176.09</ele>
        <time>2017-03-29T17:21:52Z</time>
      </trkpt>
      <trkpt lat="44.92304" lon="0.91567">
        <ele>178.18</ele>
        <time>2017-03-29T17:22:12Z</time>
      </trkpt>
      <trkpt lat="44.92276" lon="0.91672">
        <ele>174.912</ele>
        <time>2020-03-06T14:45:47Z</time>
      </trkpt>
      <trkpt lat="44.92214" lon="0.91649">
        <ele>176.754</ele>
        <time>2020-03-06T14:46:07Z</time>
      </trkpt>
      <trkpt lat="44.92209" lon="0.91496">
        <ele>177.625</ele>
        <time>2020-03-06T14:46:27Z</time>
      </trkpt>
      <trkpt lat="44.92178" lon="0.91469">
        <ele>181.731</ele>
        <time>2020-03-06T14:46:47Z</time>
      </trkpt>
      <trkpt lat="44.92166" lon="0.91415">
        <ele>180.063</ele>
        <time>2020-03-06T14:47:07Z</time>
      </trkpt>
      <trkpt lat="44.92129" lon="0.91389">
        <ele>180.497</ele>
        <time>2020-03-06T14:47:27Z</time>
      </trkpt>
      <trkpt lat="44.92069" lon="0.91392">
        <ele>180.223</ele>
        <time>2020-03-06T14:47:47Z</time>
      </trkpt>
      <trkpt lat="44.92039" lon="0.91231">
        <ele>173.825</ele>
        <time>2020-03-06T14:48:07Z</time>
      </trkpt>
      <trkpt lat="44.91954" lon="0.91277">
        <ele>163.108</ele>
        <time>2020-03-06T14:48:27Z</time>
      </trkpt>
      <trkpt lat="44.91935" lon="0.91337">
        <ele>161.955</ele>
        <time>2020-03-06T14:48:47Z</time>
      </trkpt>
      <trkpt lat="44.91772" lon="0.91568">
        <ele>161.55</ele>
        <time>2020-03-06T14:49:07Z</time>
      </trkpt>
      <trkpt lat="44.91818" lon="0.91633">
        <ele>162.48</ele>
        <time>2020-03-06T14:49:27Z</time>
      </trkpt>
      <trkpt lat="44.91823" lon="0.9167">
        <ele>155.552</ele>
        <time>2020-03-06T14:49:47Z</time>
      </trkpt>
      <trkpt lat="44.91811" lon="0.91759">
        <ele>130.384</ele>
        <time>2020-03-06T14:50:07Z</time>
      </trkpt>
      <trkpt lat="44.91821" lon="0.91788">
        <ele>126.955</ele>
        <time>2020-03-06T14:50:27Z</time>
      </trkpt>
      <trkpt lat="44.91813" lon="0.91801">
        <ele>120.871</ele>
        <time>2020-03-06T14:50:47Z</time>
      </trkpt>
      <trkpt lat="44.91822" lon="0.91828">
        <ele>117.573</ele>
        <time>2020-03-06T14:51:07Z</time>
      </trkpt>
      <trkpt lat="44.91815" lon="0.91866">
        <ele>106.416</ele>
        <time>2020-03-06T14:51:27Z</time>
      </trkpt>
      <trkpt lat="44.91818" lon="0.91967">
        <ele>92.176</ele>
        <time>2020-03-06T14:51:47Z</time>
      </trkpt>
      <trkpt lat="44.91836" lon="0.92019">
        <ele>86.813</ele>
        <time>2020-03-06T14:52:07Z</time>
      </trkpt>
      <trkpt lat="44.91838" lon="0.92062">
        <ele>79.608</ele>
        <time>2020-03-06T14:52:27Z</time>
      </trkpt>
      <trkpt lat="44.91829" lon="0.92082">
        <ele>73.967</ele>
        <time>2020-03-06T14:52:47Z</time>
      </trkpt>
      <trkpt lat="44.91806" lon="0.92105">
        <ele>66.232</ele>
        <time>2020-03-06T14:53:07Z</time>
      </trkpt>
      <trkpt lat="44.91826" lon="0.92313">
        <ele>64.952</ele>
        <time>2020-03-06T14:53:27Z</time>
      </trkpt>
      <trkpt lat="44.91838" lon="0.9237">
        <ele>63.914</ele>
        <time>2020-03-06T14:53:47Z</time>
      </trkpt>
      <trkpt lat="44.91882" lon="0.92455">
        <ele>59.626</ele>
        <time>2020-03-06T14:54:07Z</time>
      </trkpt>
      <trkpt lat="44.91873" lon="0.9247">
        <ele>58.097</ele>
        <time>2017-03-29T17:26:32Z</time>
      </trkpt>
      <trkpt lat="44.91832" lon="0.92663">
        <ele>59.563</ele>
        <time>2017-03-29T17:26:52Z</time>
      </trkpt>
      <trkpt lat="44.91824" lon="0.92734">
        <ele>63.825</ele>
        <time>2017-03-29T17:27:12Z</time>
      </trkpt>
      <trkpt lat="44.91838" lon="0.92751">
        <ele>65.085</ele>
        <time>2017-03-29T17:27:32Z</time>
      </trkpt>
    </trkseg>
  </trk>
  <trk>
    <name><![CDATA[Sireuil]]></name>
    <extensions>
      <line xmlns="http://www.topografix.com/GPX/gpx_style/0/2">
        <color>ff0004</color>
        <width>4</width>
      </line>
    </extensions>
    <trkseg>
      <trkpt lat="44.91838" lon="0.92751">
        <ele>65.085</ele>
        <time>2017-03-29T17:27:32Z</time>
      </trkpt>
      <trkpt lat="44.91838" lon="0.92751">
        <ele>65.085</ele>
        <time>2017-03-29T17:27:32Z</time>
      </trkpt>
      <trkpt lat="44.91838" lon="0.92751">
        <ele>65.085</ele>
        <time>2017-03-29T17:27:32Z</time>
      </trkpt>
      <trkpt lat="44.91838" lon="0.92751">
        <ele>65.085</ele>
        <time>2017-03-29T17:27:32Z</time>
      </trkpt>
      <trkpt lat="44.91838" lon="0.92751">
        <ele>65.085</ele>
        <time>2017-03-29T17:27:32Z</time>
      </trkpt>
      <trkpt lat="44.91838" lon="0.92751">
        <ele>65.085</ele>
        <time>2017-03-29T17:27:32Z</time>
      </trkpt>
      <trkpt lat="44.91838" lon="0.92751">
        <ele>65.085</ele>
        <time>2017-03-29T17:27:32Z</time>
      </trkpt>
      <trkpt lat="44.91838" lon="0.92751">
        <ele>65.085</ele>
        <time>2017-03-29T17:27:32Z</time>
      </trkpt>
      <trkpt lat="44.91811" lon="0.9279">
        <ele>64.889</ele>
        <time>2017-03-29T17:27:52Z</time>
      </trkpt>
      <trkpt lat="44.9182" lon="0.92861">
        <ele>73.117</ele>
        <time>2017-03-29T17:28:12Z</time>
      </trkpt>
      <trkpt lat="44.91829" lon="0.92898">
        <ele>78.508</ele>
        <time>2017-03-29T17:28:32Z</time>
      </trkpt>
      <trkpt lat="44.9181" lon="0.92919">
        <ele>78.794</ele>
        <time>2017-03-29T17:28:52Z</time>
      </trkpt>
      <trkpt lat="44.9177" lon="0.93065">
        <ele>89.349</ele>
        <time>2017-03-29T17:29:12Z</time>
      </trkpt>
      <trkpt lat="44.91767" lon="0.93109">
        <ele>92.769</ele>
        <time>2017-03-29T17:29:32Z</time>
      </trkpt>
      <trkpt lat="44.91772" lon="0.93163">
        <ele>98.421</ele>
        <time>2017-03-29T17:29:52Z</time>
      </trkpt>
      <trkpt lat="44.9174" lon="0.93237">
        <ele>100.883</ele>
        <time>2017-03-29T17:30:12Z</time>
      </trkpt>
      <trkpt lat="44.91831" lon="0.93522">
        <ele>136.334</ele>
        <time>2017-03-29T17:30:32Z</time>
      </trkpt>
      <trkpt lat="44.91853" lon="0.93598">
        <ele>143.52</ele>
        <time>2017-03-29T17:30:52Z</time>
      </trkpt>
      <trkpt lat="44.91878" lon="0.93662">
        <ele>144.792</ele>
        <time>2017-03-29T17:31:12Z</time>
      </trkpt>
      <trkpt lat="44.91902" lon="0.93768">
        <ele>157.199</ele>
        <time>2017-03-29T17:31:32Z</time>
      </trkpt>
      <trkpt lat="44.91959" lon="0.93923">
        <ele>169.907</ele>
        <time>2017-03-29T17:31:52Z</time>
      </trkpt>
      <trkpt lat="44.91982" lon="0.9396">
        <ele>170.827</ele>
        <time>2017-03-29T17:32:12Z</time>
      </trkpt>
      <trkpt lat="44.92002" lon="0.94023">
        <ele>174.208</ele>
        <time>2017-03-29T17:32:32Z</time>
      </trkpt>
      <trkpt lat="44.92037" lon="0.9406">
        <ele>175.365</ele>
        <time>2017-03-29T17:32:52Z</time>
      </trkpt>
      <trkpt lat="44.92082" lon="0.94086">
        <ele>181.28</ele>
        <time>2017-03-29T17:33:12Z</time>
      </trkpt>
      <trkpt lat="44.92174" lon="0.94127">
        <ele>182.72</ele>
        <time>2017-03-29T17:33:32Z</time>
      </trkpt>
      <trkpt lat="44.92246" lon="0.94179">
        <ele>182.832</ele>
        <time>2017-03-29T17:33:52Z</time>
      </trkpt>
      <trkpt lat="44.92213" lon="0.9427">
        <ele>173.764</ele>
        <time>2017-03-29T17:34:12Z</time>
      </trkpt>
      <trkpt lat="44.92189" lon="0.94402">
        <ele>172.175</ele>
        <time>2017-03-29T17:34:32Z</time>
      </trkpt>
      <trkpt lat="44.92251" lon="0.9447">
        <ele>177.171</ele>
        <time>2017-03-29T17:34:52Z</time>
      </trkpt>
      <trkpt lat="44.92301" lon="0.94555">
        <ele>181.823</ele>
        <time>2017-03-29T17:35:12Z</time>
      </trkpt>
      <trkpt lat="44.92323" lon="0.94538">
        <ele>183.391</ele>
        <time>2017-03-29T17:35:32Z</time>
      </trkpt>
      <trkpt lat="44.92391" lon="0.9455">
        <ele>185.781</ele>
        <time>2017-03-29T17:35:52Z</time>
      </trkpt>
      <trkpt lat="44.92484" lon="0.94555">
        <ele>186.819</ele>
        <time>2017-03-29T17:36:12Z</time>
      </trkpt>
      <trkpt lat="44.92536" lon="0.94571">
        <ele>188.308</ele>
        <time>2017-03-29T17:36:32Z</time>
      </trkpt>
      <trkpt lat="44.92532" lon="0.94613">
        <ele>188.835</ele>
        <time>2017-03-29T17:36:52Z</time>
      </trkpt>
      <trkpt lat="44.92559" lon="0.94761">
        <ele>186.68</ele>
        <time>2017-03-29T17:37:12Z</time>
      </trkpt>
      <trkpt lat="44.92587" lon="0.94937">
        <ele>184.59</ele>
        <time>2017-03-29T17:37:32Z</time>
      </trkpt>
      <trkpt lat="44.92512" lon="0.95197">
        <ele>171.822</ele>
        <time>2017-03-29T17:37:52Z</time>
      </trkpt>
      <trkpt lat="44.9254" lon="0.95368">
        <ele>173.374</ele>
        <time>2017-03-29T17:38:12Z</time>
      </trkpt>
      <trkpt lat="44.9255" lon="0.95529">
        <ele>169.585</ele>
        <time>2017-03-29T17:38:32Z</time>
      </trkpt>
      <trkpt lat="44.92682" lon="0.95772">
        <ele>152.921</ele>
        <time>2017-03-29T17:38:52Z</time>
      </trkpt>
      <trkpt lat="44.92709" lon="0.95882">
        <ele>149.513</ele>
        <time>2017-03-29T17:39:12Z</time>
      </trkpt>
      <trkpt lat="44.92786" lon="0.95875">
        <ele>143.433</ele>
        <time>2017-03-29T17:39:32Z</time>
      </trkpt>
      <trkpt lat="44.9281" lon="0.95916">
        <ele>140.123</ele>
        <time>2017-03-29T17:39:52Z</time>
      </trkpt>
      <trkpt lat="44.92852" lon="0.96032">
        <ele>133.515</ele>
        <time>2017-03-29T17:40:12Z</time>
      </trkpt>
      <trkpt lat="44.92861" lon="0.96086">
        <ele>131.108</ele>
        <time>2017-03-29T17:40:32Z</time>
      </trkpt>
      <trkpt lat="44.92892" lon="0.96131">
        <ele>134.299</ele>
        <time>2020-11-25T09:00:40Z</time>
      </trkpt>
      <trkpt lat="44.92899" lon="0.96317">
        <ele>144.544</ele>
        <time>2020-11-25T09:01:00Z</time>
      </trkpt>
      <trkpt lat="44.92814" lon="0.9634">
        <ele>146.994</ele>
        <time>2017-03-29T17:43:12Z</time>
      </trkpt>
      <trkpt lat="44.92741" lon="0.96415">
        <ele>147.766</ele>
        <time>2017-03-29T17:43:32Z</time>
      </trkpt>
      <trkpt lat="44.92667" lon="0.96502">
        <ele>147.198</ele>
        <time>2017-03-29T17:43:52Z</time>
      </trkpt>
      <trkpt lat="44.92622" lon="0.9658">
        <ele>147.419</ele>
        <time>2017-03-29T17:44:12Z</time>
      </trkpt>
      <trkpt lat="44.92626" lon="0.96659">
        <ele>142.025</ele>
        <time>2017-03-29T17:44:32Z</time>
      </trkpt>
      <trkpt lat="44.92614" lon="0.96679">
        <ele>140.067</ele>
        <time>2017-03-29T17:44:52Z</time>
      </trkpt>
      <trkpt lat="44.92618" lon="0.96701">
        <ele>140.384</ele>
        <time>2020-11-25T09:03:20Z</time>
      </trkpt>
      <trkpt lat="44.92618" lon="0.96746">
        <ele>133.107</ele>
        <time>2020-11-25T09:03:40Z</time>
      </trkpt>
      <trkpt lat="44.92609" lon="0.96781">
        <ele>124.017</ele>
        <time>2020-11-25T09:04:00Z</time>
      </trkpt>
      <trkpt lat="44.92599" lon="0.96799">
        <ele>117.708</ele>
        <time>2020-11-25T09:04:20Z</time>
      </trkpt>
      <trkpt lat="44.92592" lon="0.96839">
        <ele>108.274</ele>
        <time>2020-11-25T09:04:40Z</time>
      </trkpt>
      <trkpt lat="44.92591" lon="0.96875">
        <ele>106.319</ele>
        <time>2017-03-29T17:48:12Z</time>
      </trkpt>
      <trkpt lat="44.92598" lon="0.96942">
        <ele>109.429</ele>
        <time>2017-03-29T17:48:32Z</time>
      </trkpt>
      <trkpt lat="44.92608" lon="0.96966">
        <ele>109.171</ele>
        <time>2017-03-29T17:48:52Z</time>
      </trkpt>
      <trkpt lat="44.92663" lon="0.96995">
        <ele>111.483</ele>
        <time>2017-03-29T17:49:12Z</time>
      </trkpt>
      <trkpt lat="44.92704" lon="0.97">
        <ele>113.334</ele>
        <time>2017-03-29T17:49:32Z</time>
      </trkpt>
      <trkpt lat="44.92755" lon="0.96999">
        <ele>114.17</ele>
        <time>2017-03-29T17:49:52Z</time>
      </trkpt>
      <trkpt lat="44.92813" lon="0.96975">
        <ele>109.672</ele>
        <time>2017-03-29T17:50:12Z</time>
      </trkpt>
      <trkpt lat="44.92846" lon="0.96939">
        <ele>109.525</ele>
        <time>2017-03-29T17:50:32Z</time>
      </trkpt>
      <trkpt lat="44.92888" lon="0.96859">
        <ele>109.626</ele>
        <time>2017-03-29T17:50:52Z</time>
      </trkpt>
      <trkpt lat="44.93036" lon="0.96681">
        <ele>121.508</ele>
        <time>2017-03-29T17:51:12Z</time>
      </trkpt>
      <trkpt lat="44.93062" lon="0.96729">
        <ele>117.808</ele>
        <time>2017-03-29T17:51:32Z</time>
      </trkpt>
      <trkpt lat="44.93029" lon="0.9683">
        <ele>120.658</ele>
        <time>2017-03-29T17:51:52Z</time>
      </trkpt>
      <trkpt lat="44.92968" lon="0.96936">
        <ele>123.053</ele>
        <time>2017-03-29T17:52:12Z</time>
      </trkpt>
      <trkpt lat="44.92962" lon="0.96996">
        <ele>125.873</ele>
        <time>2017-03-29T17:52:32Z</time>
      </trkpt>
      <trkpt lat="44.92971" lon="0.97026">
        <ele>128.835</ele>
        <time>2017-03-29T17:52:52Z</time>
      </trkpt>
      <trkpt lat="44.93024" lon="0.9708">
        <ele>136.567</ele>
        <time>2017-03-29T17:53:12Z</time>
      </trkpt>
      <trkpt lat="44.93008" lon="0.97172">
        <ele>134.958</ele>
        <time>2017-03-29T17:53:32Z</time>
      </trkpt>
      <trkpt lat="44.93013" lon="0.97238">
        <ele>137.344</ele>
        <time>2017-03-29T17:53:52Z</time>
      </trkpt>
      <trkpt lat="44.92991" lon="0.97332">
        <ele>137.766</ele>
        <time>2017-03-29T17:54:12Z</time>
      </trkpt>
      <trkpt lat="44.92961" lon="0.974">
        <ele>140.343</ele>
        <time>2017-03-29T17:54:32Z</time>
      </trkpt>
      <trkpt lat="44.92942" lon="0.97477">
        <ele>140.964</ele>
        <time>2017-03-29T17:54:52Z</time>
      </trkpt>
      <trkpt lat="44.92989" lon="0.9749">
        <ele>139.71</ele>
        <time>2017-03-29T17:55:12Z</time>
      </trkpt>
      <trkpt lat="44.93017" lon="0.97481">
        <ele>137.708</ele>
        <time>2017-03-29T17:55:32Z</time>
      </trkpt>
      <trkpt lat="44.9304" lon="0.97545">
        <ele>131.68</ele>
        <time>2017-03-29T17:55:52Z</time>
      </trkpt>
      <trkpt lat="44.93119" lon="0.97577">
        <ele>123.785</ele>
        <time>2017-03-29T17:56:12Z</time>
      </trkpt>
      <trkpt lat="44.93181" lon="0.97625">
        <ele>123.045</ele>
        <time>2017-03-29T17:56:32Z</time>
      </trkpt>
      <trkpt lat="44.932" lon="0.97596">
        <ele>124.567</ele>
        <time>2017-03-29T17:56:52Z</time>
      </trkpt>
      <trkpt lat="44.93266" lon="0.9766">
        <ele>121.389</ele>
        <time>2017-03-29T17:57:12Z</time>
      </trkpt>
      <trkpt lat="44.93335" lon="0.97715">
        <ele>126.85</ele>
        <time>2017-03-29T17:57:32Z</time>
      </trkpt>
      <trkpt lat="44.93344" lon="0.97734">
        <ele>125.666</ele>
        <time>2017-03-29T17:57:52Z</time>
      </trkpt>
      <trkpt lat="44.93383" lon="0.97782">
        <ele>119.098</ele>
        <time>2017-03-29T17:58:12Z</time>
      </trkpt>
      <trkpt lat="44.93405" lon="0.97852">
        <ele>111.515</ele>
        <time>2017-03-29T17:58:32Z</time>
      </trkpt>
      <trkpt lat="44.93438" lon="0.97859">
        <ele>103.865</ele>
        <time>2017-03-29T17:58:52Z</time>
      </trkpt>
      <trkpt lat="44.93471" lon="0.97844">
        <ele>95.511</ele>
        <time>2017-03-29T17:59:12Z</time>
      </trkpt>
      <trkpt lat="44.93466" lon="0.97859">
        <ele>96.008</ele>
        <time>2017-03-29T17:59:32Z</time>
      </trkpt>
      <trkpt lat="44.93488" lon="0.97851">
        <ele>88.987</ele>
        <time>2017-03-29T17:59:52Z</time>
      </trkpt>
      <trkpt lat="44.93504" lon="0.97827">
        <ele>86.072</ele>
        <time>2017-03-29T18:00:12Z</time>
      </trkpt>
      <trkpt lat="44.93502" lon="0.9786">
        <ele>83.812</ele>
        <time>2017-03-29T18:00:32Z</time>
      </trkpt>
      <trkpt lat="44.9348" lon="0.97904">
        <ele>86.764</ele>
        <time>2017-03-29T18:00:52Z</time>
      </trkpt>
      <trkpt lat="44.93454" lon="0.97937">
        <ele>85.686</ele>
        <time>2017-03-29T18:01:12Z</time>
      </trkpt>
      <trkpt lat="44.9345" lon="0.97964">
        <ele>81.877</ele>
        <time>2017-03-29T18:01:32Z</time>
      </trkpt>
      <trkpt lat="44.93459" lon="0.97986">
        <ele>80.023</ele>
        <time>2017-03-29T18:01:52Z</time>
      </trkpt>
      <trkpt lat="44.93509" lon="0.9801">
        <ele>85.015</ele>
        <time>2017-03-29T18:02:12Z</time>
      </trkpt>
      <trkpt lat="44.93513" lon="0.98043">
        <ele>89.684</ele>
        <time>2017-03-29T18:02:32Z</time>
      </trkpt>
      <trkpt lat="44.93548" lon="0.981">
        <ele>99.207</ele>
        <time>2017-03-29T18:02:52Z</time>
      </trkpt>
      <trkpt lat="44.93577" lon="0.98124">
        <ele>103.517</ele>
        <time>2017-03-29T18:03:12Z</time>
      </trkpt>
      <trkpt lat="44.93621" lon="0.98181">
        <ele>107.608</ele>
        <time>2017-03-29T18:03:32Z</time>
      </trkpt>
      <trkpt lat="44.93621" lon="0.98202">
        <ele>107.144</ele>
        <time>2017-03-29T18:03:52Z</time>
      </trkpt>
      <trkpt lat="44.93596" lon="0.98238">
        <ele>107.919</ele>
        <time>2017-03-29T18:04:12Z</time>
      </trkpt>
      <trkpt lat="44.93587" lon="0.98261">
        <ele>110.989</ele>
        <time>2017-03-29T18:04:32Z</time>
      </trkpt>
      <trkpt lat="44.93583" lon="0.98303">
        <ele>113.831</ele>
        <time>2017-03-29T18:04:52Z</time>
      </trkpt>
      <trkpt lat="44.93577" lon="0.98342">
        <ele>116.843</ele>
        <time>2017-03-29T18:05:12Z</time>
      </trkpt>
      <trkpt lat="44.93578" lon="0.98374">
        <ele>119.444</ele>
        <time>2017-03-29T18:05:32Z</time>
      </trkpt>
      <trkpt lat="44.93568" lon="0.98478">
        <ele>128.44</ele>
        <time>2017-03-29T18:05:52Z</time>
      </trkpt>
      <trkpt lat="44.93586" lon="0.98571">
        <ele>126.962</ele>
        <time>2017-03-29T18:06:12Z</time>
      </trkpt>
      <trkpt lat="44.936" lon="0.98594">
        <ele>126.297</ele>
        <time>2017-03-29T18:06:32Z</time>
      </trkpt>
      <trkpt lat="44.93713" lon="0.98629">
        <ele>131.523</ele>
        <time>2017-03-29T18:06:52Z</time>
      </trkpt>
      <trkpt lat="44.93729" lon="0.98644">
        <ele>133.225</ele>
        <time>2017-03-29T18:07:12Z</time>
      </trkpt>
      <trkpt lat="44.93726" lon="0.98814">
        <ele>153.708</ele>
        <time>2017-03-29T18:07:32Z</time>
      </trkpt>
      <trkpt lat="44.93717" lon="0.9883">
        <ele>154.215</ele>
        <time>2017-03-29T18:07:52Z</time>
      </trkpt>
      <trkpt lat="44.9372" lon="0.98859">
        <ele>155.04</ele>
        <time>2017-03-29T18:08:12Z</time>
      </trkpt>
      <trkpt lat="44.93809" lon="0.98829">
        <ele>157.32</ele>
        <time>2017-03-29T18:08:32Z</time>
      </trkpt>
      <trkpt lat="44.93875" lon="0.98878">
        <ele>158.552</ele>
        <time>2017-03-29T18:08:52Z</time>
      </trkpt>
      <trkpt lat="44.93902" lon="0.9889">
        <ele>161.084</ele>
        <time>2017-03-29T18:09:12Z</time>
      </trkpt>
      <trkpt lat="44.93888" lon="0.98953">
        <ele>162.655</ele>
        <time>2017-03-29T18:09:32Z</time>
      </trkpt>
      <trkpt lat="44.93887" lon="0.98991">
        <ele>161.191</ele>
        <time>2017-03-29T18:09:52Z</time>
      </trkpt>
      <trkpt lat="44.93878" lon="0.99015">
        <ele>158.223</ele>
        <time>2017-03-29T18:10:12Z</time>
      </trkpt>
      <trkpt lat="44.93912" lon="0.99121">
        <ele>148.522</ele>
        <time>2017-03-29T18:10:32Z</time>
      </trkpt>
      <trkpt lat="44.93894" lon="0.99237">
        <ele>134.362</ele>
        <time>2017-03-29T18:10:52Z</time>
      </trkpt>
      <trkpt lat="44.93896" lon="0.99327">
        <ele>132.308</ele>
        <time>2017-03-29T18:11:12Z</time>
      </trkpt>
      <trkpt lat="44.93893" lon="0.99389">
        <ele>129.008</ele>
        <time>2017-03-29T18:11:32Z</time>
      </trkpt>
      <trkpt lat="44.93884" lon="0.9945">
        <ele>130.868</ele>
        <time>2017-03-29T18:11:52Z</time>
      </trkpt>
      <trkpt lat="44.9384" lon="0.99607">
        <ele>137.953</ele>
        <time>2017-03-29T18:12:12Z</time>
      </trkpt>
      <trkpt lat="44.93784" lon="0.99621">
        <ele>129.863</ele>
        <time>2017-03-29T18:12:32Z</time>
      </trkpt>
      <trkpt lat="44.93766" lon="0.99684">
        <ele>134.135</ele>
        <time>2017-03-29T18:12:52Z</time>
      </trkpt>
      <trkpt lat="44.93752" lon="0.99776">
        <ele>137.157</ele>
        <time>2017-03-29T18:13:12Z</time>
      </trkpt>
      <trkpt lat="44.93771" lon="0.99719">
        <ele>136.118</ele>
        <time>2017-03-29T18:13:32Z</time>
      </trkpt>
      <trkpt lat="44.93835" lon="0.99684">
        <ele>144.414</ele>
        <time>2017-03-29T18:13:52Z</time>
      </trkpt>
      <trkpt lat="44.93938" lon="0.99838">
        <ele>134.476</ele>
        <time>2017-03-29T18:14:12Z</time>
      </trkpt>
      <trkpt lat="44.93974" lon="0.9983">
        <ele>135.184</ele>
        <time>2017-03-29T18:14:32Z</time>
      </trkpt>
      <trkpt lat="44.94061" lon="0.99778">
        <ele>133.507</ele>
        <time>2017-03-29T18:14:52Z</time>
      </trkpt>
      <trkpt lat="44.94158" lon="0.99746">
        <ele>118.317</ele>
        <time>2017-03-29T18:15:12Z</time>
      </trkpt>
      <trkpt lat="44.94271" lon="0.99757">
        <ele>100.308</ele>
        <time>2017-03-29T18:15:32Z</time>
      </trkpt>
      <trkpt lat="44.94293" lon="0.99797">
        <ele>93.164</ele>
        <time>2017-03-29T18:15:52Z</time>
      </trkpt>
      <trkpt lat="44.9431" lon="0.99803">
        <ele>89.379</ele>
        <time>2017-03-29T18:16:12Z</time>
      </trkpt>
      <trkpt lat="44.94352" lon="0.99851">
        <ele>85.119</ele>
        <time>2017-03-29T18:16:32Z</time>
      </trkpt>
      <trkpt lat="44.94378" lon="0.99956">
        <ele>70.381</ele>
        <time>2020-03-06T15:44:47Z</time>
      </trkpt>
      <trkpt lat="44.94313" lon="1.00004">
        <ele>93.543</ele>
        <time>2020-03-06T15:45:07Z</time>
      </trkpt>
      <trkpt lat="44.94234" lon="1.00079">
        <ele>101.454</ele>
        <time>2020-03-06T15:45:27Z</time>
      </trkpt>
      <trkpt lat="44.94154" lon="1.00183">
        <ele>86.72</ele>
        <time>2020-03-06T15:45:47Z</time>
      </trkpt>
      <trkpt lat="44.94082" lon="1.00272">
        <ele>72.652</ele>
        <time>2020-03-06T15:46:07Z</time>
      </trkpt>
      <trkpt lat="44.94028" lon="1.00415">
        <ele>63.088</ele>
        <time>2020-03-06T15:46:27Z</time>
      </trkpt>
      <trkpt lat="44.93965" lon="1.00637">
        <ele>62.924</ele>
        <time>2020-03-06T15:46:47Z</time>
      </trkpt>
      <trkpt lat="44.94056" lon="1.00728">
        <ele>64.226</ele>
        <time>2017-03-29T18:20:12Z</time>
      </trkpt>
      <trkpt lat="44.93953" lon="1.0087">
        <ele>64.008</ele>
        <time>2017-03-29T18:20:32Z</time>
      </trkpt>
      <trkpt lat="44.93889" lon="1.00894">
        <ele>59.044</ele>
        <time>2017-03-29T18:20:52Z</time>
      </trkpt>
      <trkpt lat="44.93847" lon="1.00931">
        <ele>59.399</ele>
        <time>2017-03-29T18:21:12Z</time>
      </trkpt>
      <trkpt lat="44.93725" lon="1.01083">
        <ele>59.289</ele>
        <time>2017-03-29T18:21:32Z</time>
      </trkpt>
      <trkpt lat="44.93693" lon="1.01094">
        <ele>60.181</ele>
        <time>2017-03-29T18:21:52Z</time>
      </trkpt>
      <trkpt lat="44.93659" lon="1.01127">
        <ele>61.373</ele>
        <time>2020-03-06T15:49:07Z</time>
      </trkpt>
      <trkpt lat="44.93706" lon="1.01231">
        <ele>73.754</ele>
        <time>2020-03-06T15:49:27Z</time>
      </trkpt>
      <trkpt lat="44.93668" lon="1.01265">
        <ele>75.42</ele>
        <time>2020-03-06T15:49:47Z</time>
      </trkpt>
      <trkpt lat="44.93677" lon="1.01287">
        <ele>82.462</ele>
        <time>2020-03-06T15:50:07Z</time>
      </trkpt>
      <trkpt lat="44.93663" lon="1.01295">
        <ele>80.158</ele>
        <time>2020-03-06T15:50:27Z</time>
      </trkpt>
      <trkpt lat="44.93608" lon="1.01351">
        <ele>73.952</ele>
        <time>2020-03-06T15:50:47Z</time>
      </trkpt>
      <trkpt lat="44.93598" lon="1.0142">
        <ele>74.617</ele>
        <time>2020-03-06T15:51:07Z</time>
      </trkpt>
      <trkpt lat="44.93603" lon="1.01506">
        <ele>80.308</ele>
        <time>2017-03-29T18:24:32Z</time>
      </trkpt>
      <trkpt lat="44.93603" lon="1.01506">
        <ele>80.308</ele>
        <time>2017-03-29T18:24:32Z</time>
      </trkpt>
      <trkpt lat="44.93603" lon="1.01506">
        <ele>80.308</ele>
        <time>2017-03-29T18:24:32Z</time>
      </trkpt>
      <trkpt lat="44.93603" lon="1.01506">
        <ele>80.308</ele>
        <time>2017-03-29T18:24:32Z</time>
      </trkpt>
      <trkpt lat="44.93603" lon="1.01506">
        <ele>80.308</ele>
        <time>2017-03-29T18:24:32Z</time>
      </trkpt>
      <trkpt lat="44.93603" lon="1.01506">
        <ele>80.308</ele>
        <time>2017-03-29T18:24:32Z</time>
      </trkpt>
      <trkpt lat="44.93607" lon="1.01558">
        <ele>78.881</ele>
        <time>2020-03-06T15:51:47Z</time>
      </trkpt>
      <trkpt lat="44.93616" lon="1.01619">
        <ele>81.546</ele>
        <time>2020-03-06T15:52:07Z</time>
      </trkpt>
      <trkpt lat="44.9362" lon="1.01688">
        <ele>83.886</ele>
        <time>2020-03-06T13:33:57Z</time>
      </trkpt>
      <trkpt lat="44.9362" lon="1.01688">
        <ele>83.888</ele>
        <time>2020-03-06T13:33:57Z</time>
      </trkpt>
      <trkpt lat="44.93622" lon="1.01765">
        <ele>81.49</ele>
        <time>2020-03-06T13:34:17Z</time>
      </trkpt>
      <trkpt lat="44.93613" lon="1.01834">
        <ele>75.591</ele>
        <time>2015-08-04T09:13:15Z</time>
      </trkpt>
      <trkpt lat="44.93641" lon="1.01955">
        <ele>74.497</ele>
        <time>2015-08-04T09:13:35Z</time>
      </trkpt>
      <trkpt lat="44.93663" lon="1.01985">
        <ele>78.899</ele>
        <time>2015-08-04T09:13:55Z</time>
      </trkpt>
      <trkpt lat="44.93718" lon="1.02103">
        <ele>80.246</ele>
        <time>2015-08-04T09:14:15Z</time>
      </trkpt>
      <trkpt lat="44.93689" lon="1.02087">
        <ele>75.688</ele>
        <time>2015-08-04T09:14:35Z</time>
      </trkpt>
      <trkpt lat="44.9363" lon="1.02102">
        <ele>71.916</ele>
        <time>2015-08-04T09:14:55Z</time>
      </trkpt>
      <trkpt lat="44.93607" lon="1.02137">
        <ele>73.108</ele>
        <time>2015-08-04T09:15:15Z</time>
      </trkpt>
      <trkpt lat="44.93704" lon="1.02637">
        <ele>81.34</ele>
        <time>2015-08-04T09:15:35Z</time>
      </trkpt>
      <trkpt lat="44.93746" lon="1.02755">
        <ele>84.995</ele>
        <time>2015-08-04T09:15:55Z</time>
      </trkpt>
      <trkpt lat="44.93798" lon="1.02836">
        <ele>86.795</ele>
        <time>2015-08-04T09:16:15Z</time>
      </trkpt>
      <trkpt lat="44.93867" lon="1.02905">
        <ele>89.247</ele>
        <time>2015-08-04T09:16:35Z</time>
      </trkpt>
      <trkpt lat="44.93982" lon="1.02968">
        <ele>91.939</ele>
        <time>2015-08-04T09:16:55Z</time>
      </trkpt>
      <trkpt lat="44.94019" lon="1.03003">
        <ele>91.46</ele>
        <time>2015-08-04T09:17:15Z</time>
      </trkpt>
      <trkpt lat="44.94033" lon="1.03097">
        <ele>105.266</ele>
        <time>2020-11-25T09:46:40Z</time>
      </trkpt>
      <trkpt lat="44.9402" lon="1.03186">
        <ele>107.948</ele>
        <time>2020-11-25T09:47:00Z</time>
      </trkpt>
      <trkpt lat="44.9397" lon="1.03333">
        <ele>125.282</ele>
        <time>2015-08-04T09:19:15Z</time>
      </trkpt>
      <trkpt lat="44.93932" lon="1.03385">
        <ele>131.343</ele>
        <time>2015-08-04T09:19:35Z</time>
      </trkpt>
      <trkpt lat="44.93888" lon="1.03425">
        <ele>136.317</ele>
        <time>2015-08-04T09:19:55Z</time>
      </trkpt>
      <trkpt lat="44.93765" lon="1.0347">
        <ele>143.408</ele>
        <time>2015-08-04T09:20:15Z</time>
      </trkpt>
      <trkpt lat="44.9372" lon="1.03474">
        <ele>145.494</ele>
        <time>2015-08-04T09:20:35Z</time>
      </trkpt>
      <trkpt lat="44.93662" lon="1.03497">
        <ele>152.639</ele>
        <time>2015-08-04T09:20:55Z</time>
      </trkpt>
      <trkpt lat="44.93625" lon="1.03503">
        <ele>157.499</ele>
        <time>2015-08-04T09:21:15Z</time>
      </trkpt>
      <trkpt lat="44.93592" lon="1.0352">
        <ele>160.011</ele>
        <time>2015-08-04T09:21:35Z</time>
      </trkpt>
      <trkpt lat="44.93483" lon="1.03545">
        <ele>167.563</ele>
        <time>2015-08-04T09:21:55Z</time>
      </trkpt>
      <trkpt lat="44.93382" lon="1.03632">
        <ele>178.054</ele>
        <time>2015-08-04T09:22:15Z</time>
      </trkpt>
      <trkpt lat="44.9334" lon="1.03724">
        <ele>185.93</ele>
        <time>2015-08-04T09:22:35Z</time>
      </trkpt>
      <trkpt lat="44.93413" lon="1.03764">
        <ele>194.182</ele>
        <time>2015-08-04T09:22:55Z</time>
      </trkpt>
      <trkpt lat="44.93423" lon="1.03786">
        <ele>197.962</ele>
        <time>2015-08-04T09:23:15Z</time>
      </trkpt>
      <trkpt lat="44.93396" lon="1.03926">
        <ele>205.683</ele>
        <time>2015-08-04T09:23:35Z</time>
      </trkpt>
      <trkpt lat="44.93377" lon="1.03993">
        <ele>211.111</ele>
        <time>2015-08-04T09:23:55Z</time>
      </trkpt>
      <trkpt lat="44.93377" lon="1.041">
        <ele>203.308</ele>
        <time>2015-08-04T09:24:15Z</time>
      </trkpt>
      <trkpt lat="44.93345" lon="1.04122">
        <ele>202.252</ele>
        <time>2015-08-04T09:24:35Z</time>
      </trkpt>
      <trkpt lat="44.9333" lon="1.042">
        <ele>193.587</ele>
        <time>2015-08-04T09:24:55Z</time>
      </trkpt>
      <trkpt lat="44.93328" lon="1.04361">
        <ele>190.627</ele>
        <time>2015-08-04T09:25:15Z</time>
      </trkpt>
      <trkpt lat="44.93337" lon="1.04412">
        <ele>193.649</ele>
        <time>2015-08-04T09:25:35Z</time>
      </trkpt>
      <trkpt lat="44.93376" lon="1.04481">
        <ele>194.751</ele>
        <time>2015-08-04T09:25:55Z</time>
      </trkpt>
      <trkpt lat="44.93384" lon="1.04537">
        <ele>200.522</ele>
        <time>2015-08-04T09:26:15Z</time>
      </trkpt>
      <trkpt lat="44.93367" lon="1.04629">
        <ele>206.168</ele>
        <time>2015-08-04T09:26:35Z</time>
      </trkpt>
      <trkpt lat="44.93354" lon="1.04753">
        <ele>202.26</ele>
        <time>2015-08-04T09:26:55Z</time>
      </trkpt>
      <trkpt lat="44.93357" lon="1.04826">
        <ele>202.566</ele>
        <time>2015-08-04T09:27:15Z</time>
      </trkpt>
      <trkpt lat="44.93287" lon="1.04873">
        <ele>202.529</ele>
        <time>2015-08-04T09:27:35Z</time>
      </trkpt>
      <trkpt lat="44.93233" lon="1.0495">
        <ele>205.521</ele>
        <time>2015-08-04T09:27:55Z</time>
      </trkpt>
      <trkpt lat="44.93211" lon="1.05011">
        <ele>214.408</ele>
        <time>2015-08-04T09:28:15Z</time>
      </trkpt>
      <trkpt lat="44.93152" lon="1.05019">
        <ele>220.482</ele>
        <time>2015-08-04T09:28:35Z</time>
      </trkpt>
      <trkpt lat="44.93058" lon="1.05098">
        <ele>226.757</ele>
        <time>2015-08-04T09:28:55Z</time>
      </trkpt>
      <trkpt lat="44.92981" lon="1.05194">
        <ele>225.257</ele>
        <time>2015-08-04T09:29:15Z</time>
      </trkpt>
      <trkpt lat="44.92951" lon="1.05259">
        <ele>222.759</ele>
        <time>2015-08-04T09:29:35Z</time>
      </trkpt>
      <trkpt lat="44.92945" lon="1.05295">
        <ele>221.171</ele>
        <time>2015-08-04T09:29:55Z</time>
      </trkpt>
      <trkpt lat="44.92946" lon="1.05374">
        <ele>215.462</ele>
        <time>2015-08-04T09:30:15Z</time>
      </trkpt>
      <trkpt lat="44.92938" lon="1.05422">
        <ele>209.998</ele>
        <time>2015-08-04T09:30:35Z</time>
      </trkpt>
      <trkpt lat="44.92939" lon="1.05511">
        <ele>211.63</ele>
        <time>2015-08-04T09:30:55Z</time>
      </trkpt>
      <trkpt lat="44.92909" lon="1.05573">
        <ele>213.948</ele>
        <time>2015-08-04T09:31:15Z</time>
      </trkpt>
      <trkpt lat="44.92917" lon="1.05596">
        <ele>214.561</ele>
        <time>2015-08-04T09:31:35Z</time>
      </trkpt>
      <trkpt lat="44.92912" lon="1.05669">
        <ele>213.217</ele>
        <time>2015-08-04T09:31:55Z</time>
      </trkpt>
      <trkpt lat="44.92918" lon="1.05699">
        <ele>217.808</ele>
        <time>2015-08-04T09:32:15Z</time>
      </trkpt>
      <trkpt lat="44.93026" lon="1.05714">
        <ele>200.83</ele>
        <time>2015-08-04T09:32:35Z</time>
      </trkpt>
      <trkpt lat="44.93045" lon="1.05691">
        <ele>197.045</ele>
        <time>2015-08-04T09:32:55Z</time>
      </trkpt>
      <trkpt lat="44.93161" lon="1.05715">
        <ele>180.965</ele>
        <time>2015-08-04T09:33:15Z</time>
      </trkpt>
      <trkpt lat="44.93205" lon="1.05749">
        <ele>178.647</ele>
        <time>2015-08-04T09:33:35Z</time>
      </trkpt>
      <trkpt lat="44.93276" lon="1.05776">
        <ele>166.559</ele>
        <time>2015-08-04T09:33:55Z</time>
      </trkpt>
      <trkpt lat="44.93303" lon="1.058">
        <ele>161.64</ele>
        <time>2015-08-04T09:34:15Z</time>
      </trkpt>
      <trkpt lat="44.93345" lon="1.05846">
        <ele>152.116</ele>
        <time>2015-08-04T09:34:35Z</time>
      </trkpt>
      <trkpt lat="44.93422" lon="1.05856">
        <ele>148.418</ele>
        <time>2015-08-04T09:34:55Z</time>
      </trkpt>
      <trkpt lat="44.93463" lon="1.05874">
        <ele>147.514</ele>
        <time>2015-08-04T09:35:15Z</time>
      </trkpt>
      <trkpt lat="44.93507" lon="1.05901">
        <ele>145.754</ele>
        <time>2015-08-04T09:35:35Z</time>
      </trkpt>
      <trkpt lat="44.93516" lon="1.05949">
        <ele>140.209</ele>
        <time>2015-08-04T09:35:55Z</time>
      </trkpt>
      <trkpt lat="44.9352" lon="1.06043">
        <ele>134.008</ele>
        <time>2015-08-04T09:36:15Z</time>
      </trkpt>
      <trkpt lat="44.93534" lon="1.06122">
        <ele>129.427</ele>
        <time>2015-08-04T09:36:35Z</time>
      </trkpt>
      <trkpt lat="44.93557" lon="1.06193">
        <ele>123.192</ele>
        <time>2015-08-04T09:36:55Z</time>
      </trkpt>
      <trkpt lat="44.93582" lon="1.06211">
        <ele>121.232</ele>
        <time>2015-08-04T09:37:15Z</time>
      </trkpt>
      <trkpt lat="44.93599" lon="1.06262">
        <ele>116.514</ele>
        <time>2015-08-04T09:37:35Z</time>
      </trkpt>
      <trkpt lat="44.9362" lon="1.06284">
        <ele>114.526</ele>
        <time>2015-08-04T09:37:55Z</time>
      </trkpt>
      <trkpt lat="44.93659" lon="1.0631">
        <ele>115.447</ele>
        <time>2015-08-04T09:38:15Z</time>
      </trkpt>
      <trkpt lat="44.93704" lon="1.06357">
        <ele>109.213</ele>
        <time>2015-08-04T09:38:35Z</time>
      </trkpt>
      <trkpt lat="44.93772" lon="1.06334">
        <ele>110.275</ele>
        <time>2015-08-04T09:38:55Z</time>
      </trkpt>
      <trkpt lat="44.93799" lon="1.06316">
        <ele>112.184</ele>
        <time>2015-08-04T09:39:15Z</time>
      </trkpt>
      <trkpt lat="44.93843" lon="1.0629">
        <ele>107.207</ele>
        <time>2015-08-04T09:39:35Z</time>
      </trkpt>
      <trkpt lat="44.93845" lon="1.06298">
        <ele>105.117</ele>
        <time>2015-08-04T09:39:55Z</time>
      </trkpt>
      <trkpt lat="44.93822" lon="1.06316">
        <ele>106.508</ele>
        <time>2015-08-04T09:40:15Z</time>
      </trkpt>
      <trkpt lat="44.93808" lon="1.06337">
        <ele>103.914</ele>
        <time>2015-08-04T09:40:35Z</time>
      </trkpt>
      <trkpt lat="44.93894" lon="1.06537">
        <ele>105.939</ele>
        <time>2015-08-04T09:40:55Z</time>
      </trkpt>
      <trkpt lat="44.93614" lon="1.06629">
        <ele>100.319</ele>
        <time>2015-08-04T09:41:15Z</time>
      </trkpt>
      <trkpt lat="44.93536" lon="1.06713">
        <ele>101.991</ele>
        <time>2020-03-06T14:02:57Z</time>
      </trkpt>
      <trkpt lat="44.93534" lon="1.06741">
        <ele>103.393</ele>
        <time>2020-03-06T14:03:17Z</time>
      </trkpt>
      <trkpt lat="44.93569" lon="1.06877">
        <ele>116.564</ele>
        <time>2020-03-06T14:03:37Z</time>
      </trkpt>
      <trkpt lat="44.93594" lon="1.06929">
        <ele>124.12</ele>
        <time>2015-08-04T09:42:35Z</time>
      </trkpt>
      <trkpt lat="44.93606" lon="1.07">
        <ele>130.452</ele>
        <time>2015-08-04T09:42:55Z</time>
      </trkpt>
      <trkpt lat="44.93605" lon="1.07055">
        <ele>135.279</ele>
        <time>2015-08-04T09:43:15Z</time>
      </trkpt>
      <trkpt lat="44.93617" lon="1.07056">
        <ele>136.405</ele>
        <time>2015-08-04T09:43:35Z</time>
      </trkpt>
      <trkpt lat="44.93647" lon="1.06884">
        <ele>140.025</ele>
        <time>2015-08-04T09:43:55Z</time>
      </trkpt>
      <trkpt lat="44.93705" lon="1.06846">
        <ele>151.208</ele>
        <time>2015-08-04T09:44:15Z</time>
      </trkpt>
      <trkpt lat="44.93806" lon="1.06835">
        <ele>164.373</ele>
        <time>2015-08-04T09:44:35Z</time>
      </trkpt>
      <trkpt lat="44.93789" lon="1.06884">
        <ele>167.838</ele>
        <time>2015-08-04T09:44:55Z</time>
      </trkpt>
      <trkpt lat="44.93851" lon="1.06964">
        <ele>182.648</ele>
        <time>2015-08-04T09:45:15Z</time>
      </trkpt>
      <trkpt lat="44.93868" lon="1.06995">
        <ele>184.57</ele>
        <time>2015-08-04T09:45:35Z</time>
      </trkpt>
      <trkpt lat="44.93893" lon="1.07004">
        <ele>186.222</ele>
        <time>2015-08-04T09:45:55Z</time>
      </trkpt>
      <trkpt lat="44.939" lon="1.07077">
        <ele>188.623</ele>
        <time>2015-08-04T09:46:15Z</time>
      </trkpt>
      <trkpt lat="44.93938" lon="1.07133">
        <ele>185.959</ele>
        <time>2015-08-04T09:46:35Z</time>
      </trkpt>
      <trkpt lat="44.93969" lon="1.07199">
        <ele>195.511</ele>
        <time>2015-08-04T09:46:55Z</time>
      </trkpt>
      <trkpt lat="44.94041" lon="1.07237">
        <ele>196.988</ele>
        <time>2015-08-04T09:47:15Z</time>
      </trkpt>
      <trkpt lat="44.93995" lon="1.07347">
        <ele>208.224</ele>
        <time>2015-08-04T09:47:35Z</time>
      </trkpt>
      <trkpt lat="44.93994" lon="1.07383">
        <ele>210.426</ele>
        <time>2015-08-04T09:47:55Z</time>
      </trkpt>
      <trkpt lat="44.94022" lon="1.07419">
        <ele>211.908</ele>
        <time>2015-08-04T09:48:15Z</time>
      </trkpt>
      <trkpt lat="44.94006" lon="1.07494">
        <ele>210.634</ele>
        <time>2015-08-04T09:48:35Z</time>
      </trkpt>
      <trkpt lat="44.93973" lon="1.07548">
        <ele>213.759</ele>
        <time>2015-08-04T09:48:55Z</time>
      </trkpt>
      <trkpt lat="44.9399" lon="1.07594">
        <ele>213.389</ele>
        <time>2015-08-04T09:49:15Z</time>
      </trkpt>
      <trkpt lat="44.94016" lon="1.07786">
        <ele>214.211</ele>
        <time>2015-08-04T09:49:35Z</time>
      </trkpt>
      <trkpt lat="44.94017" lon="1.07864">
        <ele>212.173</ele>
        <time>2015-08-04T09:49:55Z</time>
      </trkpt>
      <trkpt lat="44.94004" lon="1.07903">
        <ele>212.044</ele>
        <time>2015-08-04T09:50:15Z</time>
      </trkpt>
      <trkpt lat="44.93948" lon="1.07953">
        <ele>208.15</ele>
        <time>2015-08-04T09:50:35Z</time>
      </trkpt>
      <trkpt lat="44.93929" lon="1.07988">
        <ele>206.382</ele>
        <time>2015-08-04T09:50:55Z</time>
      </trkpt>
      <trkpt lat="44.93901" lon="1.08066">
        <ele>205.336</ele>
        <time>2015-08-04T09:51:15Z</time>
      </trkpt>
      <trkpt lat="44.9388" lon="1.08098">
        <ele>204.517</ele>
        <time>2015-08-04T09:51:35Z</time>
      </trkpt>
      <trkpt lat="44.93908" lon="1.08155">
        <ele>207.718</ele>
        <time>2015-08-04T09:51:55Z</time>
      </trkpt>
      <trkpt lat="44.9387" lon="1.08352">
        <ele>211.008</ele>
        <time>2015-08-04T09:52:15Z</time>
      </trkpt>
      <trkpt lat="44.93809" lon="1.08467">
        <ele>215.629</ele>
        <time>2015-08-04T09:52:35Z</time>
      </trkpt>
      <trkpt lat="44.93654" lon="1.08572">
        <ele>211.164</ele>
        <time>2015-08-04T09:52:55Z</time>
      </trkpt>
    </trkseg>
  </trk>
  <trk>
    <name><![CDATA[Sarlat]]></name>
    <extensions>
      <line xmlns="http://www.topografix.com/GPX/gpx_style/0/2">
        <color>ee00ff</color>
        <width>4</width>
      </line>
    </extensions>
    <trkseg>
      <trkpt lat="44.93654" lon="1.08572">
        <ele>211.164</ele>
        <time>2015-08-04T09:52:55Z</time>
      </trkpt>
      <trkpt lat="44.93654" lon="1.08572">
        <ele>211.164</ele>
        <time>2015-08-04T09:52:55Z</time>
      </trkpt>
      <trkpt lat="44.93654" lon="1.08572">
        <ele>211.164</ele>
        <time>2015-08-04T09:52:55Z</time>
      </trkpt>
      <trkpt lat="44.93654" lon="1.08572">
        <ele>211.164</ele>
        <time>2015-08-04T09:52:55Z</time>
      </trkpt>
      <trkpt lat="44.93654" lon="1.08572">
        <ele>211.164</ele>
        <time>2015-08-04T09:52:55Z</time>
      </trkpt>
      <trkpt lat="44.93654" lon="1.08572">
        <ele>211.164</ele>
        <time>2015-08-04T09:52:55Z</time>
      </trkpt>
      <trkpt lat="44.93654" lon="1.08572">
        <ele>211.164</ele>
        <time>2015-08-04T09:52:55Z</time>
      </trkpt>
      <trkpt lat="44.93654" lon="1.08572">
        <ele>211.164</ele>
        <time>2015-08-04T09:52:55Z</time>
      </trkpt>
      <trkpt lat="44.936" lon="1.08633">
        <ele>207.164</ele>
        <time>2015-08-04T09:53:15Z</time>
      </trkpt>
      <trkpt lat="44.93548" lon="1.0873">
        <ele>202.526</ele>
        <time>2015-08-04T09:53:35Z</time>
      </trkpt>
      <trkpt lat="44.93503" lon="1.08911">
        <ele>198.398</ele>
        <time>2020-03-06T14:15:17Z</time>
      </trkpt>
      <trkpt lat="44.93479" lon="1.08972">
        <ele>205.069</ele>
        <time>2020-03-06T14:15:37Z</time>
      </trkpt>
      <trkpt lat="44.93528" lon="1.09002">
        <ele>199.185</ele>
        <time>2020-03-06T14:15:57Z</time>
      </trkpt>
      <trkpt lat="44.93554" lon="1.08996">
        <ele>195.267</ele>
        <time>2020-11-25T10:23:00Z</time>
      </trkpt>
      <trkpt lat="44.93576" lon="1.09075">
        <ele>193.165</ele>
        <time>2020-11-25T10:23:20Z</time>
      </trkpt>
      <trkpt lat="44.9358" lon="1.09592">
        <ele>172.968</ele>
        <time>2020-11-25T10:23:40Z</time>
      </trkpt>
      <trkpt lat="44.93551" lon="1.09699">
        <ele>169.114</ele>
        <time>2020-11-25T10:24:00Z</time>
      </trkpt>
      <trkpt lat="44.93555" lon="1.09798">
        <ele>180.508</ele>
        <time>2020-11-25T10:24:20Z</time>
      </trkpt>
      <trkpt lat="44.93598" lon="1.09852">
        <ele>186.062</ele>
        <time>2020-11-25T10:24:40Z</time>
      </trkpt>
      <trkpt lat="44.93596" lon="1.09896">
        <ele>192.557</ele>
        <time>2020-11-25T10:25:00Z</time>
      </trkpt>
      <trkpt lat="44.93609" lon="1.10012">
        <ele>195.247</ele>
        <time>2020-11-25T10:25:20Z</time>
      </trkpt>
      <trkpt lat="44.93541" lon="1.10005">
        <ele>202.189</ele>
        <time>2020-11-25T10:25:40Z</time>
      </trkpt>
      <trkpt lat="44.935" lon="1.09991">
        <ele>202.391</ele>
        <time>2020-11-25T10:26:00Z</time>
      </trkpt>
      <trkpt lat="44.93444" lon="1.10013">
        <ele>204.012</ele>
        <time>2020-11-25T10:26:20Z</time>
      </trkpt>
      <trkpt lat="44.93412" lon="1.10001">
        <ele>206.048</ele>
        <time>2020-11-25T10:26:40Z</time>
      </trkpt>
      <trkpt lat="44.93448" lon="1.10083">
        <ele>199.63</ele>
        <time>2020-11-25T10:27:00Z</time>
      </trkpt>
      <trkpt lat="44.93571" lon="1.10098">
        <ele>193.938</ele>
        <time>2020-11-25T10:27:20Z</time>
      </trkpt>
      <trkpt lat="44.93689" lon="1.10092">
        <ele>189.07</ele>
        <time>2020-11-25T10:27:40Z</time>
      </trkpt>
      <trkpt lat="44.93744" lon="1.10066">
        <ele>192.517</ele>
        <time>2020-03-06T14:23:17Z</time>
      </trkpt>
      <trkpt lat="44.93849" lon="1.10026">
        <ele>188.608</ele>
        <time>2020-03-06T14:23:37Z</time>
      </trkpt>
      <trkpt lat="44.93939" lon="1.10023">
        <ele>185.129</ele>
        <time>2020-03-06T14:23:57Z</time>
      </trkpt>
      <trkpt lat="44.93964" lon="1.10028">
        <ele>183.354</ele>
        <time>2020-03-06T14:24:17Z</time>
      </trkpt>
      <trkpt lat="44.93991" lon="1.10037">
        <ele>179.954</ele>
        <time>2020-03-06T14:24:37Z</time>
      </trkpt>
      <trkpt lat="44.94007" lon="1.10052">
        <ele>176.126</ele>
        <time>2020-03-06T14:24:57Z</time>
      </trkpt>
      <trkpt lat="44.94003" lon="1.10101">
        <ele>170.678</ele>
        <time>2020-03-06T14:25:17Z</time>
      </trkpt>
      <trkpt lat="44.93933" lon="1.10168">
        <ele>167.879</ele>
        <time>2020-03-06T14:25:37Z</time>
      </trkpt>
      <trkpt lat="44.93922" lon="1.10195">
        <ele>166.535</ele>
        <time>2020-03-06T14:25:57Z</time>
      </trkpt>
      <trkpt lat="44.93918" lon="1.10239">
        <ele>163.697</ele>
        <time>2020-03-06T14:26:17Z</time>
      </trkpt>
      <trkpt lat="44.93894" lon="1.10269">
        <ele>165.516</ele>
        <time>2020-03-06T14:26:37Z</time>
      </trkpt>
      <trkpt lat="44.93953" lon="1.10286">
        <ele>154.076</ele>
        <time>2020-03-06T14:26:57Z</time>
      </trkpt>
      <trkpt lat="44.93955" lon="1.10309">
        <ele>151.613</ele>
        <time>2020-03-06T14:27:17Z</time>
      </trkpt>
      <trkpt lat="44.93932" lon="1.10361">
        <ele>148.008</ele>
        <time>2020-03-06T14:27:37Z</time>
      </trkpt>
      <trkpt lat="44.93869" lon="1.10415">
        <ele>142.397</ele>
        <time>2020-03-06T14:27:57Z</time>
      </trkpt>
      <trkpt lat="44.93932" lon="1.1045">
        <ele>137.392</ele>
        <time>2020-03-06T14:28:17Z</time>
      </trkpt>
      <trkpt lat="44.93974" lon="1.1046">
        <ele>134.072</ele>
        <time>2020-03-06T14:28:37Z</time>
      </trkpt>
      <trkpt lat="44.93964" lon="1.10558">
        <ele>137.384</ele>
        <time>2020-03-06T14:28:57Z</time>
      </trkpt>
      <trkpt lat="44.93969" lon="1.10615">
        <ele>138.586</ele>
        <time>2020-03-06T14:29:17Z</time>
      </trkpt>
      <trkpt lat="44.93959" lon="1.10645">
        <ele>141.227</ele>
        <time>2020-03-06T14:29:37Z</time>
      </trkpt>
      <trkpt lat="44.93911" lon="1.10666">
        <ele>146.673</ele>
        <time>2020-03-06T14:29:57Z</time>
      </trkpt>
      <trkpt lat="44.93851" lon="1.1061">
        <ele>154.545</ele>
        <time>2015-08-04T10:06:15Z</time>
      </trkpt>
      <trkpt lat="44.93828" lon="1.106">
        <ele>158.324</ele>
        <time>2015-08-04T10:06:35Z</time>
      </trkpt>
      <trkpt lat="44.93819" lon="1.10611">
        <ele>160.504</ele>
        <time>2015-08-04T10:06:55Z</time>
      </trkpt>
      <trkpt lat="44.93816" lon="1.10644">
        <ele>163.414</ele>
        <time>2015-08-04T10:07:15Z</time>
      </trkpt>
      <trkpt lat="44.93755" lon="1.10705">
        <ele>171.108</ele>
        <time>2015-08-04T10:07:35Z</time>
      </trkpt>
      <trkpt lat="44.93731" lon="1.10757">
        <ele>172.918</ele>
        <time>2015-08-04T10:07:55Z</time>
      </trkpt>
      <trkpt lat="44.93715" lon="1.10777">
        <ele>174.013</ele>
        <time>2015-08-04T10:08:15Z</time>
      </trkpt>
      <trkpt lat="44.93692" lon="1.10818">
        <ele>174.583</ele>
        <time>2015-08-04T10:08:35Z</time>
      </trkpt>
      <trkpt lat="44.93655" lon="1.10858">
        <ele>174.415</ele>
        <time>2015-08-04T10:08:55Z</time>
      </trkpt>
      <trkpt lat="44.93604" lon="1.10855">
        <ele>181.937</ele>
        <time>2015-08-04T10:09:15Z</time>
      </trkpt>
      <trkpt lat="44.9356" lon="1.10914">
        <ele>182.018</ele>
        <time>2015-08-04T10:09:35Z</time>
      </trkpt>
      <trkpt lat="44.93477" lon="1.10931">
        <ele>183.254</ele>
        <time>2015-08-04T10:09:55Z</time>
      </trkpt>
      <trkpt lat="44.93415" lon="1.10955">
        <ele>186.696</ele>
        <time>2015-08-04T10:10:15Z</time>
      </trkpt>
      <trkpt lat="44.93349" lon="1.11005">
        <ele>192.799</ele>
        <time>2015-08-04T10:10:35Z</time>
      </trkpt>
      <trkpt lat="44.93171" lon="1.11183">
        <ele>209.407</ele>
        <time>2015-08-04T10:10:55Z</time>
      </trkpt>
      <trkpt lat="44.93136" lon="1.11189">
        <ele>216.527</ele>
        <time>2015-08-04T10:11:15Z</time>
      </trkpt>
      <trkpt lat="44.9312" lon="1.11114">
        <ele>217.608</ele>
        <time>2015-08-04T10:11:35Z</time>
      </trkpt>
      <trkpt lat="44.93092" lon="1.11073">
        <ele>219.735</ele>
        <time>2015-08-04T10:11:55Z</time>
      </trkpt>
      <trkpt lat="44.93026" lon="1.11009">
        <ele>226.28</ele>
        <time>2015-08-04T10:12:15Z</time>
      </trkpt>
      <trkpt lat="44.9301" lon="1.10958">
        <ele>226.45</ele>
        <time>2015-08-04T10:12:35Z</time>
      </trkpt>
      <trkpt lat="44.92973" lon="1.10816">
        <ele>215.242</ele>
        <time>2015-08-04T10:12:55Z</time>
      </trkpt>
      <trkpt lat="44.92965" lon="1.10763">
        <ele>211.794</ele>
        <time>2015-08-04T10:13:15Z</time>
      </trkpt>
      <trkpt lat="44.92951" lon="1.10789">
        <ele>211.445</ele>
        <time>2015-08-04T10:13:35Z</time>
      </trkpt>
      <trkpt lat="44.92913" lon="1.10813">
        <ele>210.941</ele>
        <time>2015-08-04T10:13:55Z</time>
      </trkpt>
      <trkpt lat="44.92855" lon="1.10904">
        <ele>216.763</ele>
        <time>2015-08-04T10:14:15Z</time>
      </trkpt>
      <trkpt lat="44.92831" lon="1.10904">
        <ele>217.396</ele>
        <time>2015-08-04T10:14:35Z</time>
      </trkpt>
      <trkpt lat="44.92751" lon="1.10825">
        <ele>215.431</ele>
        <time>2015-08-04T10:14:55Z</time>
      </trkpt>
      <trkpt lat="44.92681" lon="1.10767">
        <ele>212.524</ele>
        <time>2015-08-04T10:15:15Z</time>
      </trkpt>
      <trkpt lat="44.92621" lon="1.10705">
        <ele>204.908</ele>
        <time>2015-08-04T10:15:35Z</time>
      </trkpt>
      <trkpt lat="44.92601" lon="1.1072">
        <ele>204.065</ele>
        <time>2015-08-04T10:15:55Z</time>
      </trkpt>
      <trkpt lat="44.92553" lon="1.10718">
        <ele>198.98</ele>
        <time>2015-08-04T10:16:15Z</time>
      </trkpt>
      <trkpt lat="44.92442" lon="1.10724">
        <ele>184.68</ele>
        <time>2015-08-04T10:16:35Z</time>
      </trkpt>
      <trkpt lat="44.92365" lon="1.10702">
        <ele>176.162</ele>
        <time>2015-08-04T10:16:55Z</time>
      </trkpt>
      <trkpt lat="44.92179" lon="1.10728">
        <ele>161.344</ele>
        <time>2015-08-04T10:17:15Z</time>
      </trkpt>
      <trkpt lat="44.92107" lon="1.10763">
        <ele>153.895</ele>
        <time>2015-08-04T10:17:35Z</time>
      </trkpt>
      <trkpt lat="44.92026" lon="1.10841">
        <ele>145.951</ele>
        <time>2015-08-04T10:17:55Z</time>
      </trkpt>
      <trkpt lat="44.91958" lon="1.10821">
        <ele>139.373</ele>
        <time>2015-08-04T10:18:15Z</time>
      </trkpt>
      <trkpt lat="44.91925" lon="1.10827">
        <ele>133.969</ele>
        <time>2015-08-04T10:18:35Z</time>
      </trkpt>
      <trkpt lat="44.91889" lon="1.10856">
        <ele>126.104</ele>
        <time>2015-08-04T10:18:55Z</time>
      </trkpt>
      <trkpt lat="44.91901" lon="1.10888">
        <ele>131.124</ele>
        <time>2015-08-04T10:19:15Z</time>
      </trkpt>
      <trkpt lat="44.91887" lon="1.111">
        <ele>135.008</ele>
        <time>2015-08-04T10:19:35Z</time>
      </trkpt>
      <trkpt lat="44.91888" lon="1.11154">
        <ele>135.872</ele>
        <time>2015-08-04T10:19:55Z</time>
      </trkpt>
      <trkpt lat="44.91927" lon="1.1131">
        <ele>136.477</ele>
        <time>2015-08-04T10:20:15Z</time>
      </trkpt>
      <trkpt lat="44.91926" lon="1.1136">
        <ele>132.027</ele>
        <time>2015-08-04T10:20:35Z</time>
      </trkpt>
      <trkpt lat="44.91908" lon="1.11503">
        <ele>136.949</ele>
        <time>2015-08-04T10:20:55Z</time>
      </trkpt>
      <trkpt lat="44.91877" lon="1.11662">
        <ele>134.661</ele>
        <time>2015-08-04T10:21:15Z</time>
      </trkpt>
      <trkpt lat="44.91895" lon="1.11731">
        <ele>136.552</ele>
        <time>2015-08-04T10:21:35Z</time>
      </trkpt>
      <trkpt lat="44.91857" lon="1.11795">
        <ele>132.788</ele>
        <time>2015-08-04T10:21:55Z</time>
      </trkpt>
      <trkpt lat="44.91877" lon="1.11823">
        <ele>134.82</ele>
        <time>2015-08-04T10:22:15Z</time>
      </trkpt>
      <trkpt lat="44.91864" lon="1.1187">
        <ele>145.438</ele>
        <time>2015-08-04T10:22:35Z</time>
      </trkpt>
      <trkpt lat="44.91949" lon="1.1192">
        <ele>143.37</ele>
        <time>2015-08-04T10:22:55Z</time>
      </trkpt>
      <trkpt lat="44.91989" lon="1.11979">
        <ele>137.717</ele>
        <time>2015-08-04T10:23:15Z</time>
      </trkpt>
      <trkpt lat="44.92001" lon="1.12043">
        <ele>139.708</ele>
        <time>2020-03-06T14:47:37Z</time>
      </trkpt>
      <trkpt lat="44.92049" lon="1.12114">
        <ele>146.829</ele>
        <time>2020-03-06T14:47:57Z</time>
      </trkpt>
      <trkpt lat="44.92051" lon="1.12144">
        <ele>149.874</ele>
        <time>2015-08-04T10:24:15Z</time>
      </trkpt>
      <trkpt lat="44.92017" lon="1.12176">
        <ele>159.654</ele>
        <time>2015-08-04T10:24:35Z</time>
      </trkpt>
      <trkpt lat="44.92003" lon="1.12267">
        <ele>168.466</ele>
        <time>2015-08-04T10:24:55Z</time>
      </trkpt>
      <trkpt lat="44.91968" lon="1.12312">
        <ele>173.268</ele>
        <time>2015-08-04T10:25:15Z</time>
      </trkpt>
      <trkpt lat="44.91948" lon="1.12376">
        <ele>180.389</ele>
        <time>2015-08-04T10:25:35Z</time>
      </trkpt>
      <trkpt lat="44.91971" lon="1.12392">
        <ele>176.265</ele>
        <time>2015-08-04T10:25:55Z</time>
      </trkpt>
      <trkpt lat="44.92052" lon="1.12377">
        <ele>180.787</ele>
        <time>2015-08-04T10:26:15Z</time>
      </trkpt>
      <trkpt lat="44.92079" lon="1.12426">
        <ele>189.233</ele>
        <time>2020-03-06T14:50:37Z</time>
      </trkpt>
      <trkpt lat="44.921" lon="1.12439">
        <ele>188.823</ele>
        <time>2020-03-06T14:50:57Z</time>
      </trkpt>
      <trkpt lat="44.92124" lon="1.12496">
        <ele>186.815</ele>
        <time>2015-08-04T10:26:55Z</time>
      </trkpt>
      <trkpt lat="44.92134" lon="1.1255">
        <ele>187.908</ele>
        <time>2015-08-04T10:27:15Z</time>
      </trkpt>
      <trkpt lat="44.92165" lon="1.12618">
        <ele>187.419</ele>
        <time>2015-08-04T10:27:35Z</time>
      </trkpt>
      <trkpt lat="44.92167" lon="1.12733">
        <ele>179.794</ele>
        <time>2015-08-04T10:27:55Z</time>
      </trkpt>
      <trkpt lat="44.9214" lon="1.12799">
        <ele>176.474</ele>
        <time>2015-08-04T10:28:15Z</time>
      </trkpt>
      <trkpt lat="44.92094" lon="1.12855">
        <ele>175.836</ele>
        <time>2015-08-04T10:28:35Z</time>
      </trkpt>
      <trkpt lat="44.9204" lon="1.13011">
        <ele>178.688</ele>
        <time>2015-08-04T10:28:55Z</time>
      </trkpt>
      <trkpt lat="44.92048" lon="1.13021">
        <ele>180.319</ele>
        <time>2015-08-04T10:29:15Z</time>
      </trkpt>
      <trkpt lat="44.92141" lon="1.1298">
        <ele>184.095</ele>
        <time>2015-08-04T10:29:35Z</time>
      </trkpt>
      <trkpt lat="44.92183" lon="1.13062">
        <ele>196.667</ele>
        <time>2015-08-04T10:29:55Z</time>
      </trkpt>
      <trkpt lat="44.92209" lon="1.13073">
        <ele>195.349</ele>
        <time>2015-08-04T10:30:15Z</time>
      </trkpt>
      <trkpt lat="44.92263" lon="1.13068">
        <ele>193.602</ele>
        <time>2015-08-04T10:30:35Z</time>
      </trkpt>
      <trkpt lat="44.92283" lon="1.13167">
        <ele>208.022</ele>
        <time>2015-08-04T10:30:55Z</time>
      </trkpt>
      <trkpt lat="44.92307" lon="1.13256">
        <ele>216.108</ele>
        <time>2015-08-04T10:31:15Z</time>
      </trkpt>
      <trkpt lat="44.92282" lon="1.13284">
        <ele>218.73</ele>
        <time>2015-08-04T10:31:35Z</time>
      </trkpt>
      <trkpt lat="44.92268" lon="1.13366">
        <ele>219.095</ele>
        <time>2015-08-04T10:31:55Z</time>
      </trkpt>
      <trkpt lat="44.92278" lon="1.13411">
        <ele>215.415</ele>
        <time>2015-08-04T10:32:15Z</time>
      </trkpt>
      <trkpt lat="44.92268" lon="1.13506">
        <ele>218.397</ele>
        <time>2015-08-04T10:32:35Z</time>
      </trkpt>
      <trkpt lat="44.92229" lon="1.13568">
        <ele>216.879</ele>
        <time>2015-08-04T10:32:55Z</time>
      </trkpt>
      <trkpt lat="44.92186" lon="1.13589">
        <ele>212.31</ele>
        <time>2015-08-04T10:33:15Z</time>
      </trkpt>
      <trkpt lat="44.92185" lon="1.13604">
        <ele>209.696</ele>
        <time>2015-08-04T10:33:35Z</time>
      </trkpt>
      <trkpt lat="44.92194" lon="1.1365">
        <ele>208.488</ele>
        <time>2015-08-04T10:33:55Z</time>
      </trkpt>
      <trkpt lat="44.92196" lon="1.13688">
        <ele>210.448</ele>
        <time>2015-08-04T10:34:15Z</time>
      </trkpt>
      <trkpt lat="44.92211" lon="1.13724">
        <ele>211.361</ele>
        <time>2015-08-04T10:34:35Z</time>
      </trkpt>
      <trkpt lat="44.92191" lon="1.13784">
        <ele>214.917</ele>
        <time>2015-08-04T10:34:55Z</time>
      </trkpt>
      <trkpt lat="44.92195" lon="1.13853">
        <ele>222.108</ele>
        <time>2015-08-04T10:35:15Z</time>
      </trkpt>
      <trkpt lat="44.92219" lon="1.13921">
        <ele>226.31</ele>
        <time>2015-08-04T10:35:35Z</time>
      </trkpt>
      <trkpt lat="44.92209" lon="1.13964">
        <ele>228.655</ele>
        <time>2015-08-04T10:35:55Z</time>
      </trkpt>
      <trkpt lat="44.9223" lon="1.14019">
        <ele>227.825</ele>
        <time>2020-03-06T15:00:37Z</time>
      </trkpt>
      <trkpt lat="44.92162" lon="1.14019">
        <ele>232.497</ele>
        <time>2015-08-04T10:36:35Z</time>
      </trkpt>
      <trkpt lat="44.92101" lon="1.14063">
        <ele>234.459</ele>
        <time>2015-08-04T10:36:55Z</time>
      </trkpt>
      <trkpt lat="44.92083" lon="1.14062">
        <ele>235.87</ele>
        <time>2015-08-04T10:37:15Z</time>
      </trkpt>
      <trkpt lat="44.92054" lon="1.14047">
        <ele>239.846</ele>
        <time>2015-08-04T10:37:35Z</time>
      </trkpt>
      <trkpt lat="44.92004" lon="1.1407">
        <ele>244.858</ele>
        <time>2015-08-04T10:37:55Z</time>
      </trkpt>
      <trkpt lat="44.91924" lon="1.14135">
        <ele>250.798</ele>
        <time>2015-08-04T10:38:15Z</time>
      </trkpt>
      <trkpt lat="44.91843" lon="1.14203">
        <ele>246.615</ele>
        <time>2015-08-04T10:38:35Z</time>
      </trkpt>
      <trkpt lat="44.91819" lon="1.1424">
        <ele>245.826</ele>
        <time>2015-08-04T10:38:55Z</time>
      </trkpt>
      <trkpt lat="44.91781" lon="1.14283">
        <ele>248.108</ele>
        <time>2015-08-04T10:39:15Z</time>
      </trkpt>
      <trkpt lat="44.91782" lon="1.14337">
        <ele>248.175</ele>
        <time>2015-08-04T10:39:35Z</time>
      </trkpt>
      <trkpt lat="44.91792" lon="1.14336">
        <ele>246.71</ele>
        <time>2015-08-04T10:39:55Z</time>
      </trkpt>
      <trkpt lat="44.91793" lon="1.14368">
        <ele>244.06</ele>
        <time>2015-08-04T10:40:15Z</time>
      </trkpt>
      <trkpt lat="44.91806" lon="1.1439">
        <ele>239.832</ele>
        <time>2015-08-04T10:40:35Z</time>
      </trkpt>
      <trkpt lat="44.91807" lon="1.1441">
        <ele>236.984</ele>
        <time>2015-08-04T10:40:55Z</time>
      </trkpt>
      <trkpt lat="44.91791" lon="1.1443">
        <ele>236.845</ele>
        <time>2015-08-04T10:41:15Z</time>
      </trkpt>
      <trkpt lat="44.9176" lon="1.14451">
        <ele>239.341</ele>
        <time>2015-08-04T10:41:35Z</time>
      </trkpt>
      <trkpt lat="44.91751" lon="1.14489">
        <ele>237.383</ele>
        <time>2015-08-04T10:41:55Z</time>
      </trkpt>
      <trkpt lat="44.9175" lon="1.14546">
        <ele>237.872</ele>
        <time>2015-08-04T10:42:15Z</time>
      </trkpt>
      <trkpt lat="44.91758" lon="1.14632">
        <ele>235.913</ele>
        <time>2015-08-04T10:42:35Z</time>
      </trkpt>
      <trkpt lat="44.91769" lon="1.14822">
        <ele>236.714</ele>
        <time>2015-08-04T10:42:55Z</time>
      </trkpt>
      <trkpt lat="44.91767" lon="1.14901">
        <ele>234.508</ele>
        <time>2015-08-04T10:43:15Z</time>
      </trkpt>
      <trkpt lat="44.91758" lon="1.14979">
        <ele>232.843</ele>
        <time>2015-08-04T10:43:35Z</time>
      </trkpt>
      <trkpt lat="44.91774" lon="1.15031">
        <ele>229.688</ele>
        <time>2015-08-04T10:43:55Z</time>
      </trkpt>
      <trkpt lat="44.91825" lon="1.15144">
        <ele>226.528</ele>
        <time>2015-08-04T10:44:15Z</time>
      </trkpt>
      <trkpt lat="44.9185" lon="1.15239">
        <ele>220.92</ele>
        <time>2015-08-04T10:44:35Z</time>
      </trkpt>
      <trkpt lat="44.91885" lon="1.15311">
        <ele>213.832</ele>
        <time>2015-08-04T10:44:55Z</time>
      </trkpt>
      <trkpt lat="44.91909" lon="1.15383">
        <ele>207.763</ele>
        <time>2015-08-04T10:45:15Z</time>
      </trkpt>
      <trkpt lat="44.92099" lon="1.15774">
        <ele>220.219</ele>
        <time>2015-08-04T10:45:35Z</time>
      </trkpt>
      <trkpt lat="44.9211" lon="1.15812">
        <ele>218.351</ele>
        <time>2015-08-04T10:45:55Z</time>
      </trkpt>
      <trkpt lat="44.9212" lon="1.15885">
        <ele>216.276</ele>
        <time>2015-08-04T10:46:15Z</time>
      </trkpt>
      <trkpt lat="44.9214" lon="1.15956">
        <ele>215.79</ele>
        <time>2015-08-04T10:46:35Z</time>
      </trkpt>
      <trkpt lat="44.92212" lon="1.1602">
        <ele>217.819</ele>
        <time>2015-08-04T10:46:55Z</time>
      </trkpt>
      <trkpt lat="44.92212" lon="1.16071">
        <ele>218.808</ele>
        <time>2020-03-06T15:11:37Z</time>
      </trkpt>
      <trkpt lat="44.92237" lon="1.16083">
        <ele>222.573</ele>
        <time>2020-03-06T15:11:57Z</time>
      </trkpt>
      <trkpt lat="44.92255" lon="1.16249">
        <ele>225.128</ele>
        <time>2015-08-04T10:47:35Z</time>
      </trkpt>
      <trkpt lat="44.92282" lon="1.16342">
        <ele>225.458</ele>
        <time>2015-08-04T10:47:55Z</time>
      </trkpt>
      <trkpt lat="44.92344" lon="1.16539">
        <ele>233.37</ele>
        <time>2015-08-04T10:48:15Z</time>
      </trkpt>
      <trkpt lat="44.92373" lon="1.16601">
        <ele>236.442</ele>
        <time>2015-08-04T10:48:35Z</time>
      </trkpt>
      <trkpt lat="44.92375" lon="1.16642">
        <ele>235.443</ele>
        <time>2015-08-04T10:48:55Z</time>
      </trkpt>
      <trkpt lat="44.92386" lon="1.16646">
        <ele>238.119</ele>
        <time>2015-08-04T10:49:15Z</time>
      </trkpt>
      <trkpt lat="44.92395" lon="1.16622">
        <ele>240.541</ele>
        <time>2015-08-04T10:49:35Z</time>
      </trkpt>
      <trkpt lat="44.92435" lon="1.16629">
        <ele>243.366</ele>
        <time>2015-08-04T10:49:55Z</time>
      </trkpt>
      <trkpt lat="44.92458" lon="1.16614">
        <ele>241.629</ele>
        <time>2015-08-04T10:50:15Z</time>
      </trkpt>
      <trkpt lat="44.92485" lon="1.1666">
        <ele>243.221</ele>
        <time>2015-08-04T10:50:35Z</time>
      </trkpt>
      <trkpt lat="44.92508" lon="1.16743">
        <ele>247.808</ele>
        <time>2015-08-04T10:50:55Z</time>
      </trkpt>
      <trkpt lat="44.92603" lon="1.1687">
        <ele>239.212</ele>
        <time>2015-08-04T10:51:15Z</time>
      </trkpt>
      <trkpt lat="44.92607" lon="1.16995">
        <ele>239.837</ele>
        <time>2015-08-04T10:51:35Z</time>
      </trkpt>
      <trkpt lat="44.92629" lon="1.17042">
        <ele>241.327</ele>
        <time>2015-08-04T10:51:55Z</time>
      </trkpt>
      <trkpt lat="44.92651" lon="1.17106">
        <ele>242.719</ele>
        <time>2015-08-04T10:52:15Z</time>
      </trkpt>
      <trkpt lat="44.92702" lon="1.17197">
        <ele>244.261</ele>
        <time>2015-08-04T10:52:35Z</time>
      </trkpt>
      <trkpt lat="44.92724" lon="1.17251">
        <ele>239.882</ele>
        <time>2015-08-04T10:52:55Z</time>
      </trkpt>
      <trkpt lat="44.92707" lon="1.17317">
        <ele>239.778</ele>
        <time>2015-08-04T10:53:15Z</time>
      </trkpt>
      <trkpt lat="44.92721" lon="1.17386">
        <ele>240.15</ele>
        <time>2015-08-04T10:53:35Z</time>
      </trkpt>
      <trkpt lat="44.92722" lon="1.17435">
        <ele>243.779</ele>
        <time>2015-08-04T10:53:55Z</time>
      </trkpt>
      <trkpt lat="44.92767" lon="1.17473">
        <ele>245.505</ele>
        <time>2015-08-04T10:54:15Z</time>
      </trkpt>
      <trkpt lat="44.92868" lon="1.17497">
        <ele>253.225</ele>
        <time>2015-08-04T10:54:35Z</time>
      </trkpt>
      <trkpt lat="44.92781" lon="1.17581">
        <ele>257.108</ele>
        <time>2015-08-04T10:54:55Z</time>
      </trkpt>
      <trkpt lat="44.92728" lon="1.17606">
        <ele>257.763</ele>
        <time>2015-08-04T10:55:15Z</time>
      </trkpt>
      <trkpt lat="44.92689" lon="1.17638">
        <ele>259.758</ele>
        <time>2015-08-04T10:55:35Z</time>
      </trkpt>
      <trkpt lat="44.92654" lon="1.17632">
        <ele>259.298</ele>
        <time>2015-08-04T10:55:55Z</time>
      </trkpt>
      <trkpt lat="44.92613" lon="1.17638">
        <ele>263.73</ele>
        <time>2015-08-04T10:56:15Z</time>
      </trkpt>
      <trkpt lat="44.92445" lon="1.17637">
        <ele>276.922</ele>
        <time>2015-08-04T10:56:35Z</time>
      </trkpt>
      <trkpt lat="44.92431" lon="1.1772">
        <ele>279.943</ele>
        <time>2015-08-04T10:56:55Z</time>
      </trkpt>
      <trkpt lat="44.92439" lon="1.17782">
        <ele>284.219</ele>
        <time>2015-08-04T10:57:15Z</time>
      </trkpt>
      <trkpt lat="44.92435" lon="1.17875">
        <ele>301.341</ele>
        <time>2015-08-04T10:57:35Z</time>
      </trkpt>
      <trkpt lat="44.92437" lon="1.17963">
        <ele>309.193</ele>
        <time>2015-08-04T10:57:55Z</time>
      </trkpt>
      <trkpt lat="44.92451" lon="1.18061">
        <ele>312.465</ele>
        <time>2015-08-04T10:58:15Z</time>
      </trkpt>
      <trkpt lat="44.92463" lon="1.1809">
        <ele>312.121</ele>
        <time>2015-08-04T10:58:35Z</time>
      </trkpt>
      <trkpt lat="44.92499" lon="1.18124">
        <ele>311.008</ele>
        <time>2015-08-04T10:58:55Z</time>
      </trkpt>
      <trkpt lat="44.92523" lon="1.18142">
        <ele>309.035</ele>
        <time>2015-08-04T10:59:15Z</time>
      </trkpt>
      <trkpt lat="44.92515" lon="1.1822">
        <ele>305.58</ele>
        <time>2015-08-04T10:59:35Z</time>
      </trkpt>
      <trkpt lat="44.92497" lon="1.18358">
        <ele>303.83</ele>
        <time>2015-08-04T10:59:55Z</time>
      </trkpt>
      <trkpt lat="44.92469" lon="1.18496">
        <ele>306.142</ele>
        <time>2015-08-04T11:00:15Z</time>
      </trkpt>
      <trkpt lat="44.92465" lon="1.18546">
        <ele>308.134</ele>
        <time>2015-08-04T11:00:35Z</time>
      </trkpt>
      <trkpt lat="44.92455" lon="1.18586">
        <ele>308.985</ele>
        <time>2015-08-04T11:00:55Z</time>
      </trkpt>
      <trkpt lat="44.9245" lon="1.18625">
        <ele>308.251</ele>
        <time>2015-08-04T11:01:15Z</time>
      </trkpt>
      <trkpt lat="44.92452" lon="1.18665">
        <ele>304.623</ele>
        <time>2015-08-04T11:01:35Z</time>
      </trkpt>
      <trkpt lat="44.92447" lon="1.18695">
        <ele>304.273</ele>
        <time>2015-08-04T11:01:55Z</time>
      </trkpt>
      <trkpt lat="44.92445" lon="1.18737">
        <ele>302.785</ele>
        <time>2015-08-04T11:02:15Z</time>
      </trkpt>
      <trkpt lat="44.92413" lon="1.18842">
        <ele>293.313</ele>
        <time>2020-03-06T15:27:17Z</time>
      </trkpt>
      <trkpt lat="44.92382" lon="1.18914">
        <ele>291.808</ele>
        <time>2015-08-04T11:03:15Z</time>
      </trkpt>
      <trkpt lat="44.92392" lon="1.18947">
        <ele>295.753</ele>
        <time>2015-08-04T11:03:35Z</time>
      </trkpt>
      <trkpt lat="44.92378" lon="1.18986">
        <ele>294.678</ele>
        <time>2015-08-04T11:03:55Z</time>
      </trkpt>
      <trkpt lat="44.92406" lon="1.19407">
        <ele>314.458</ele>
        <time>2020-03-06T15:28:37Z</time>
      </trkpt>
      <trkpt lat="44.92432" lon="1.19502">
        <ele>314.14</ele>
        <time>2015-08-04T11:04:35Z</time>
      </trkpt>
      <trkpt lat="44.92467" lon="1.19566">
        <ele>319.732</ele>
        <time>2015-08-04T11:04:55Z</time>
      </trkpt>
      <trkpt lat="44.9243" lon="1.19926">
        <ele>315.013</ele>
        <time>2015-08-04T11:05:15Z</time>
      </trkpt>
      <trkpt lat="44.92379" lon="1.19996">
        <ele>304.119</ele>
        <time>2015-08-04T11:05:35Z</time>
      </trkpt>
      <trkpt lat="44.92407" lon="1.20045">
        <ele>309.571</ele>
        <time>2015-08-04T11:05:55Z</time>
      </trkpt>
      <trkpt lat="44.92449" lon="1.20085">
        <ele>312.231</ele>
        <time>2015-08-04T11:06:15Z</time>
      </trkpt>
      <trkpt lat="44.92506" lon="1.20171">
        <ele>305.861</ele>
        <time>2015-08-04T11:06:35Z</time>
      </trkpt>
      <trkpt lat="44.92402" lon="1.2042">
        <ele>280.007</ele>
        <time>2015-08-04T11:06:55Z</time>
      </trkpt>
      <trkpt lat="44.92346" lon="1.20467">
        <ele>266.108</ele>
        <time>2015-08-04T11:07:15Z</time>
      </trkpt>
      <trkpt lat="44.92324" lon="1.20514">
        <ele>259.279</ele>
        <time>2015-08-04T11:07:35Z</time>
      </trkpt>
      <trkpt lat="44.92277" lon="1.20642">
        <ele>247.924</ele>
        <time>2015-08-04T11:07:55Z</time>
      </trkpt>
      <trkpt lat="44.92181" lon="1.20682">
        <ele>244.544</ele>
        <time>2015-08-04T11:08:15Z</time>
      </trkpt>
      <trkpt lat="44.9214" lon="1.20717">
        <ele>247.156</ele>
        <time>2015-08-04T11:08:35Z</time>
      </trkpt>
      <trkpt lat="44.92025" lon="1.20721">
        <ele>245.268</ele>
        <time>2015-08-04T11:08:55Z</time>
      </trkpt>
      <trkpt lat="44.91985" lon="1.20746">
        <ele>247.679</ele>
        <time>2015-08-04T11:09:15Z</time>
      </trkpt>
      <trkpt lat="44.91827" lon="1.20913">
        <ele>250.135</ele>
        <time>2015-08-04T11:09:35Z</time>
      </trkpt>
      <trkpt lat="44.91789" lon="1.20935">
        <ele>251.177</ele>
        <time>2015-08-04T11:09:55Z</time>
      </trkpt>
      <trkpt lat="44.9168" lon="1.20943">
        <ele>255.234</ele>
        <time>2015-08-04T11:10:15Z</time>
      </trkpt>
      <trkpt lat="44.91638" lon="1.20976">
        <ele>259.555</ele>
        <time>2015-08-04T11:10:35Z</time>
      </trkpt>
      <trkpt lat="44.91496" lon="1.2115">
        <ele>256.81</ele>
        <time>2015-08-04T11:10:55Z</time>
      </trkpt>
      <trkpt lat="44.91422" lon="1.21181">
        <ele>256.908</ele>
        <time>2015-08-04T11:11:15Z</time>
      </trkpt>
      <trkpt lat="44.91355" lon="1.21192">
        <ele>262.649</ele>
        <time>2015-08-04T11:11:35Z</time>
      </trkpt>
      <trkpt lat="44.91222" lon="1.21248">
        <ele>273.774</ele>
        <time>2015-08-04T11:11:55Z</time>
      </trkpt>
      <trkpt lat="44.91132" lon="1.21309">
        <ele>283.424</ele>
        <time>2015-08-04T11:12:15Z</time>
      </trkpt>
      <trkpt lat="44.91151" lon="1.21421">
        <ele>281.536</ele>
        <time>2015-08-04T11:12:35Z</time>
      </trkpt>
      <trkpt lat="44.91087" lon="1.21449">
        <ele>279.938</ele>
        <time>2015-08-04T11:12:55Z</time>
      </trkpt>
      <trkpt lat="44.91062" lon="1.21413">
        <ele>282.979</ele>
        <time>2015-08-04T11:13:15Z</time>
      </trkpt>
      <trkpt lat="44.91025" lon="1.21451">
        <ele>276.725</ele>
        <time>2015-08-04T11:13:35Z</time>
      </trkpt>
      <trkpt lat="44.9098" lon="1.21511">
        <ele>266.767</ele>
        <time>2015-08-04T11:13:55Z</time>
      </trkpt>
      <trkpt lat="44.90952" lon="1.2151">
        <ele>261.511</ele>
        <time>2015-08-04T11:14:15Z</time>
      </trkpt>
      <trkpt lat="44.90912" lon="1.21531">
        <ele>256.621</ele>
        <time>2015-08-04T11:14:35Z</time>
      </trkpt>
      <trkpt lat="44.90864" lon="1.2152">
        <ele>245.603</ele>
        <time>2015-08-04T11:14:55Z</time>
      </trkpt>
      <trkpt lat="44.90834" lon="1.21531">
        <ele>240.008</ele>
        <time>2015-08-04T11:15:15Z</time>
      </trkpt>
      <trkpt lat="44.90796" lon="1.21574">
        <ele>237.557</ele>
        <time>2015-08-04T11:15:35Z</time>
      </trkpt>
      <trkpt lat="44.90772" lon="1.21574">
        <ele>233.862</ele>
        <time>2015-08-04T11:15:55Z</time>
      </trkpt>
      <trkpt lat="44.90681" lon="1.21512">
        <ele>209.672</ele>
        <time>2015-08-04T11:16:15Z</time>
      </trkpt>
      <trkpt lat="44.90601" lon="1.21467">
        <ele>201.264</ele>
        <time>2015-08-04T11:16:35Z</time>
      </trkpt>
      <trkpt lat="44.90521" lon="1.2147">
        <ele>193.086</ele>
        <time>2015-08-04T11:16:55Z</time>
      </trkpt>
      <trkpt lat="44.90464" lon="1.21505">
        <ele>190.587</ele>
        <time>2015-08-04T11:17:15Z</time>
      </trkpt>
      <trkpt lat="44.90341" lon="1.21466">
        <ele>181.153</ele>
        <time>2015-08-04T11:17:35Z</time>
      </trkpt>
      <trkpt lat="44.90281" lon="1.21414">
        <ele>172.315</ele>
        <time>2015-08-04T11:17:55Z</time>
      </trkpt>
      <trkpt lat="44.90223" lon="1.21423">
        <ele>166.138</ele>
        <time>2015-08-04T11:18:15Z</time>
      </trkpt>
      <trkpt lat="44.90163" lon="1.21437">
        <ele>163.47</ele>
        <time>2015-08-04T11:18:35Z</time>
      </trkpt>
      <trkpt lat="44.9012" lon="1.21418">
        <ele>162.817</ele>
        <time>2015-08-04T11:18:55Z</time>
      </trkpt>
      <trkpt lat="44.90054" lon="1.21431">
        <ele>163.008</ele>
        <time>2015-08-04T11:19:15Z</time>
      </trkpt>
      <trkpt lat="44.90015" lon="1.21415">
        <ele>160.989</ele>
        <time>2015-08-04T11:19:35Z</time>
      </trkpt>
      <trkpt lat="44.89961" lon="1.21426">
        <ele>161.114</ele>
        <time>2015-08-04T11:19:55Z</time>
      </trkpt>
      <trkpt lat="44.89914" lon="1.21457">
        <ele>163.954</ele>
        <time>2015-08-04T11:20:15Z</time>
      </trkpt>
      <trkpt lat="44.89827" lon="1.21406">
        <ele>157.316</ele>
        <time>2015-08-04T11:20:35Z</time>
      </trkpt>
      <trkpt lat="44.89793" lon="1.21429">
        <ele>155.318</ele>
        <time>2015-08-04T11:20:55Z</time>
      </trkpt>
      <trkpt lat="44.89758" lon="1.21475">
        <ele>153.659</ele>
        <time>2015-08-04T11:21:15Z</time>
      </trkpt>
      <trkpt lat="44.89728" lon="1.2145">
        <ele>153.585</ele>
        <time>2015-08-04T11:21:35Z</time>
      </trkpt>
      <trkpt lat="44.89585" lon="1.21494">
        <ele>150.217</ele>
        <time>2015-08-04T11:21:55Z</time>
      </trkpt>
      <trkpt lat="44.89599" lon="1.21562">
        <ele>151.041</ele>
        <time>2015-08-04T11:22:15Z</time>
      </trkpt>
      <trkpt lat="44.89532" lon="1.21647">
        <ele>150.281</ele>
        <time>2015-08-04T11:22:35Z</time>
      </trkpt>
      <trkpt lat="44.8951" lon="1.21641">
        <ele>149.109</ele>
        <time>2015-08-04T11:22:55Z</time>
      </trkpt>
      <trkpt lat="44.89454" lon="1.21691">
        <ele>149.308</ele>
        <time>2015-08-04T11:23:15Z</time>
      </trkpt>
      <trkpt lat="44.89282" lon="1.21674">
        <ele>150.24</ele>
        <time>2015-08-04T11:23:35Z</time>
      </trkpt>
      <trkpt lat="44.89282" lon="1.21674">
        <ele>150.24</ele>
        <time>2015-08-04T11:23:35Z</time>
      </trkpt>
      <trkpt lat="44.89208" lon="1.21626">
        <ele>151.695</ele>
        <time>2015-08-04T11:23:55Z</time>
      </trkpt>
      <trkpt lat="44.89125" lon="1.2161">
        <ele>152.065</ele>
        <time>2015-08-04T11:24:15Z</time>
      </trkpt>
      <trkpt lat="44.89072" lon="1.21689">
        <ele>153.2</ele>
      </trkpt>
      <trkpt lat="44.89059" lon="1.2187">
        <ele>154.5</ele>
      </trkpt>
      <trkpt lat="44.89142" lon="1.21989">
        <ele>162.9</ele>
      </trkpt>
      <trkpt lat="44.89219" lon="1.22249">
        <ele>173.4</ele>
      </trkpt>
      <trkpt lat="44.89283" lon="1.22378">
        <ele>179.8</ele>
      </trkpt>
      <trkpt lat="44.89332" lon="1.22436">
        <ele>181.7</ele>
      </trkpt>
      <trkpt lat="44.89377" lon="1.22628">
        <ele>197.8</ele>
      </trkpt>
      <trkpt lat="44.89361" lon="1.22787">
        <ele>209</ele>
      </trkpt>
    </trkseg>
  </trk>
  <trk>
    <name><![CDATA[Carlux]]></name>
    <trkseg>
      <trkpt lat="44.89364" lon="1.2279">
        <ele>209.4</ele>
      </trkpt>
      <trkpt lat="44.89364" lon="1.2279">
        <ele>209.4</ele>
      </trkpt>
      <trkpt lat="44.89364" lon="1.2279">
        <ele>209.4</ele>
      </trkpt>
      <trkpt lat="44.89364" lon="1.2279">
        <ele>209.4</ele>
      </trkpt>
      <trkpt lat="44.89364" lon="1.2279">
        <ele>209.4</ele>
      </trkpt>
      <trkpt lat="44.89364" lon="1.2279">
        <ele>209.4</ele>
      </trkpt>
      <trkpt lat="44.89364" lon="1.2279">
        <ele>209.4</ele>
      </trkpt>
      <trkpt lat="44.89364" lon="1.2279">
        <ele>209.4</ele>
      </trkpt>
      <trkpt lat="44.89381" lon="1.22626">
        <ele>197.3</ele>
      </trkpt>
      <trkpt lat="44.89329" lon="1.22428">
        <ele>181.1</ele>
      </trkpt>
      <trkpt lat="44.89286" lon="1.22375">
        <ele>179.5</ele>
      </trkpt>
      <trkpt lat="44.89222" lon="1.22245">
        <ele>173.4</ele>
      </trkpt>
      <trkpt lat="44.89143" lon="1.21996">
        <ele>163</ele>
      </trkpt>
      <trkpt lat="44.89057" lon="1.2188">
        <ele>151.829</ele>
        <time>2020-03-06T15:50:57Z</time>
      </trkpt>
      <trkpt lat="44.88997" lon="1.21867">
        <ele>154.344</ele>
        <time>2015-08-04T11:25:55Z</time>
      </trkpt>
      <trkpt lat="44.88964" lon="1.22022">
        <ele>167.454</ele>
        <time>2015-08-04T11:26:15Z</time>
      </trkpt>
      <trkpt lat="44.88935" lon="1.22079">
        <ele>175.526</ele>
        <time>2020-03-06T15:51:57Z</time>
      </trkpt>
      <trkpt lat="44.88923" lon="1.22119">
        <ele>177.418</ele>
        <time>2020-03-06T15:52:17Z</time>
      </trkpt>
      <trkpt lat="44.88921" lon="1.22153">
        <ele>179.819</ele>
        <time>2020-03-06T15:52:37Z</time>
      </trkpt>
      <trkpt lat="44.88916" lon="1.22188">
        <ele>184.845</ele>
        <time>2020-03-06T15:52:57Z</time>
      </trkpt>
      <trkpt lat="44.88937" lon="1.22251">
        <ele>192.337</ele>
        <time>2015-08-04T11:27:15Z</time>
      </trkpt>
      <trkpt lat="44.88913" lon="1.22348">
        <ele>193.235</ele>
        <time>2015-08-04T11:27:35Z</time>
      </trkpt>
      <trkpt lat="44.8893" lon="1.22502">
        <ele>204.086</ele>
        <time>2015-08-04T11:27:55Z</time>
      </trkpt>
      <trkpt lat="44.88924" lon="1.22536">
        <ele>205.114</ele>
        <time>2015-08-04T11:28:15Z</time>
      </trkpt>
      <trkpt lat="44.88849" lon="1.22573">
        <ele>210.008</ele>
        <time>2015-08-04T11:28:35Z</time>
      </trkpt>
      <trkpt lat="44.88829" lon="1.22598">
        <ele>211.569</ele>
        <time>2015-08-04T11:28:55Z</time>
      </trkpt>
      <trkpt lat="44.88821" lon="1.22644">
        <ele>213.644</ele>
        <time>2015-08-04T11:29:15Z</time>
      </trkpt>
      <trkpt lat="44.88823" lon="1.22701">
        <ele>216.174</ele>
        <time>2015-08-04T11:29:35Z</time>
      </trkpt>
      <trkpt lat="44.88842" lon="1.22769">
        <ele>223.946</ele>
        <time>2015-08-04T11:29:55Z</time>
      </trkpt>
      <trkpt lat="44.88819" lon="1.22853">
        <ele>231.698</ele>
        <time>2015-08-04T11:30:15Z</time>
      </trkpt>
      <trkpt lat="44.88784" lon="1.22898">
        <ele>234.879</ele>
        <time>2015-08-04T11:30:35Z</time>
      </trkpt>
      <trkpt lat="44.88708" lon="1.22952">
        <ele>241.855</ele>
        <time>2015-08-04T11:30:55Z</time>
      </trkpt>
      <trkpt lat="44.88699" lon="1.2301">
        <ele>247.547</ele>
        <time>2015-08-04T11:31:15Z</time>
      </trkpt>
      <trkpt lat="44.88723" lon="1.23031">
        <ele>252.452</ele>
        <time>2015-08-04T11:31:35Z</time>
      </trkpt>
      <trkpt lat="44.88698" lon="1.23099">
        <ele>252.653</ele>
        <time>2015-08-04T11:31:55Z</time>
      </trkpt>
      <trkpt lat="44.88681" lon="1.23172">
        <ele>248.608</ele>
        <time>2015-08-04T11:32:15Z</time>
      </trkpt>
      <trkpt lat="44.88721" lon="1.23255">
        <ele>247.608</ele>
        <time>2015-08-04T11:32:35Z</time>
      </trkpt>
      <trkpt lat="44.88724" lon="1.23379">
        <ele>249.581</ele>
        <time>2015-08-04T11:32:55Z</time>
      </trkpt>
      <trkpt lat="44.88741" lon="1.23484">
        <ele>245.096</ele>
        <time>2015-08-04T11:33:15Z</time>
      </trkpt>
      <trkpt lat="44.88762" lon="1.23495">
        <ele>244.096</ele>
        <time>2015-08-04T11:33:35Z</time>
      </trkpt>
      <trkpt lat="44.8884" lon="1.23469">
        <ele>241.818</ele>
        <time>2015-08-04T11:33:55Z</time>
      </trkpt>
      <trkpt lat="44.8886" lon="1.23454">
        <ele>242.17</ele>
        <time>2015-08-04T11:34:15Z</time>
      </trkpt>
      <trkpt lat="44.8893" lon="1.23463">
        <ele>241.411</ele>
        <time>2015-08-04T11:34:35Z</time>
      </trkpt>
      <trkpt lat="44.88969" lon="1.2354">
        <ele>241.817</ele>
        <time>2015-08-04T11:34:55Z</time>
      </trkpt>
      <trkpt lat="44.88984" lon="1.2364">
        <ele>242.039</ele>
        <time>2015-08-04T11:35:15Z</time>
      </trkpt>
      <trkpt lat="44.89011" lon="1.23709">
        <ele>242.369</ele>
        <time>2015-08-04T11:35:35Z</time>
      </trkpt>
      <trkpt lat="44.89017" lon="1.23746">
        <ele>238.804</ele>
        <time>2015-08-04T11:35:55Z</time>
      </trkpt>
      <trkpt lat="44.89086" lon="1.23771">
        <ele>234.824</ele>
        <time>2015-08-04T11:36:15Z</time>
      </trkpt>
      <trkpt lat="44.8919" lon="1.23757">
        <ele>225.508</ele>
        <time>2015-08-04T11:36:35Z</time>
      </trkpt>
      <trkpt lat="44.89221" lon="1.2375">
        <ele>225.162</ele>
        <time>2015-08-04T11:36:55Z</time>
      </trkpt>
      <trkpt lat="44.89277" lon="1.23723">
        <ele>225.017</ele>
        <time>2015-08-04T11:37:15Z</time>
      </trkpt>
      <trkpt lat="44.89347" lon="1.23746">
        <ele>207.967</ele>
        <time>2015-08-04T11:37:35Z</time>
      </trkpt>
      <trkpt lat="44.89387" lon="1.23772">
        <ele>206.799</ele>
        <time>2015-08-04T11:37:55Z</time>
      </trkpt>
      <trkpt lat="44.89432" lon="1.23799">
        <ele>209.311</ele>
        <time>2015-08-04T11:38:15Z</time>
      </trkpt>
      <trkpt lat="44.89465" lon="1.23838">
        <ele>206.232</ele>
        <time>2015-08-04T11:38:35Z</time>
      </trkpt>
      <trkpt lat="44.89475" lon="1.23907">
        <ele>206.828</ele>
        <time>2015-08-04T11:38:55Z</time>
      </trkpt>
      <trkpt lat="44.89516" lon="1.2402">
        <ele>216.25</ele>
        <time>2015-08-04T11:39:15Z</time>
      </trkpt>
      <trkpt lat="44.89527" lon="1.24134">
        <ele>221.629</ele>
        <time>2015-08-04T11:39:35Z</time>
      </trkpt>
      <trkpt lat="44.89481" lon="1.242">
        <ele>227.8</ele>
        <time>2015-08-04T11:39:55Z</time>
      </trkpt>
      <trkpt lat="44.8944" lon="1.24317">
        <ele>234.62</ele>
        <time>2015-08-04T11:40:15Z</time>
      </trkpt>
      <trkpt lat="44.89444" lon="1.24424">
        <ele>233.008</ele>
        <time>2015-08-04T11:40:35Z</time>
      </trkpt>
      <trkpt lat="44.89456" lon="1.24484">
        <ele>235.598</ele>
        <time>2015-08-04T11:40:55Z</time>
      </trkpt>
      <trkpt lat="44.89462" lon="1.2456">
        <ele>238.553</ele>
        <time>2015-08-04T11:41:15Z</time>
      </trkpt>
      <trkpt lat="44.89515" lon="1.24603">
        <ele>249.313</ele>
        <time>2015-08-04T11:41:35Z</time>
      </trkpt>
      <trkpt lat="44.89494" lon="1.2468">
        <ele>246.915</ele>
        <time>2015-08-04T11:41:55Z</time>
      </trkpt>
      <trkpt lat="44.89479" lon="1.24764">
        <ele>242.387</ele>
        <time>2015-08-04T11:42:15Z</time>
      </trkpt>
      <trkpt lat="44.89411" lon="1.25044">
        <ele>240.848</ele>
        <time>2015-08-04T11:42:35Z</time>
      </trkpt>
      <trkpt lat="44.89145" lon="1.24939">
        <ele>240.764</ele>
        <time>2015-08-04T11:42:55Z</time>
      </trkpt>
      <trkpt lat="44.88968" lon="1.24852">
        <ele>230.816</ele>
        <time>2015-08-04T11:43:15Z</time>
      </trkpt>
      <trkpt lat="44.88876" lon="1.24821">
        <ele>231.584</ele>
        <time>2015-08-04T11:43:35Z</time>
      </trkpt>
      <trkpt lat="44.88792" lon="1.24803">
        <ele>230.407</ele>
        <time>2015-08-04T11:43:55Z</time>
      </trkpt>
      <trkpt lat="44.8838" lon="1.24963">
        <ele>249.017</ele>
        <time>2015-08-04T11:44:15Z</time>
      </trkpt>
      <trkpt lat="44.88421" lon="1.25065">
        <ele>243.208</ele>
        <time>2015-08-04T11:44:35Z</time>
      </trkpt>
      <trkpt lat="44.88431" lon="1.25122">
        <ele>241.184</ele>
        <time>2015-08-04T11:44:55Z</time>
      </trkpt>
      <trkpt lat="44.88452" lon="1.25167">
        <ele>239.589</ele>
        <time>2015-08-04T11:45:15Z</time>
      </trkpt>
      <trkpt lat="44.88455" lon="1.25192">
        <ele>238.149</ele>
        <time>2015-08-04T11:45:35Z</time>
      </trkpt>
      <trkpt lat="44.88466" lon="1.25216">
        <ele>236.531</ele>
        <time>2015-08-04T11:45:55Z</time>
      </trkpt>
      <trkpt lat="44.88511" lon="1.25241">
        <ele>233.763</ele>
        <time>2015-08-04T11:46:15Z</time>
      </trkpt>
      <trkpt lat="44.88536" lon="1.25257">
        <ele>233.514</ele>
        <time>2015-08-04T11:46:35Z</time>
      </trkpt>
      <trkpt lat="44.88546" lon="1.25272">
        <ele>233.13</ele>
        <time>2015-08-04T11:46:55Z</time>
      </trkpt>
      <trkpt lat="44.88552" lon="1.25312">
        <ele>230.912</ele>
        <time>2015-08-04T11:47:15Z</time>
      </trkpt>
      <trkpt lat="44.88587" lon="1.2536">
        <ele>228.855</ele>
        <time>2015-08-04T11:47:35Z</time>
      </trkpt>
      <trkpt lat="44.8859" lon="1.25397">
        <ele>225.607</ele>
        <time>2015-08-04T11:47:55Z</time>
      </trkpt>
      <trkpt lat="44.88581" lon="1.25425">
        <ele>224.517</ele>
        <time>2015-08-04T11:48:15Z</time>
      </trkpt>
      <trkpt lat="44.88559" lon="1.25444">
        <ele>223.908</ele>
        <time>2015-08-04T11:48:35Z</time>
      </trkpt>
      <trkpt lat="44.88555" lon="1.25459">
        <ele>223.021</ele>
        <time>2015-08-04T11:48:55Z</time>
      </trkpt>
      <trkpt lat="44.88528" lon="1.25501">
        <ele>217.836</ele>
        <time>2015-08-04T11:49:15Z</time>
      </trkpt>
      <trkpt lat="44.88528" lon="1.25537">
        <ele>213.316</ele>
        <time>2015-08-04T11:49:35Z</time>
      </trkpt>
      <trkpt lat="44.88503" lon="1.25567">
        <ele>209.398</ele>
        <time>2015-08-04T11:49:55Z</time>
      </trkpt>
      <trkpt lat="44.88466" lon="1.25677">
        <ele>194.32</ele>
        <time>2015-08-04T11:50:15Z</time>
      </trkpt>
      <trkpt lat="44.88472" lon="1.25755">
        <ele>190.871</ele>
        <time>2015-08-04T11:50:35Z</time>
      </trkpt>
      <trkpt lat="44.88464" lon="1.25885">
        <ele>192.367</ele>
        <time>2015-08-04T11:50:55Z</time>
      </trkpt>
      <trkpt lat="44.88465" lon="1.25915">
        <ele>191.599</ele>
        <time>2015-08-04T11:51:15Z</time>
      </trkpt>
      <trkpt lat="44.88463" lon="1.25949">
        <ele>189.479</ele>
        <time>2015-08-04T11:51:35Z</time>
      </trkpt>
      <trkpt lat="44.88416" lon="1.26058">
        <ele>179.805</ele>
        <time>2015-08-04T11:51:55Z</time>
      </trkpt>
      <trkpt lat="44.88379" lon="1.26089">
        <ele>178.125</ele>
        <time>2015-08-04T11:52:15Z</time>
      </trkpt>
      <trkpt lat="44.88322" lon="1.26154">
        <ele>176.708</ele>
        <time>2015-08-04T11:52:35Z</time>
      </trkpt>
      <trkpt lat="44.88302" lon="1.26156">
        <ele>177.663</ele>
        <time>2015-08-04T11:52:55Z</time>
      </trkpt>
      <trkpt lat="44.88265" lon="1.26124">
        <ele>179.938</ele>
        <time>2015-08-04T11:53:15Z</time>
      </trkpt>
      <trkpt lat="44.88245" lon="1.26122">
        <ele>179.988</ele>
        <time>2015-08-04T11:53:35Z</time>
      </trkpt>
      <trkpt lat="44.88196" lon="1.26132">
        <ele>183.94</ele>
        <time>2015-08-04T11:53:55Z</time>
      </trkpt>
      <trkpt lat="44.8816" lon="1.26134">
        <ele>183.522</ele>
        <time>2015-08-04T11:54:15Z</time>
      </trkpt>
      <trkpt lat="44.88125" lon="1.26149">
        <ele>182.543</ele>
        <time>2015-08-04T11:54:35Z</time>
      </trkpt>
      <trkpt lat="44.88096" lon="1.26155">
        <ele>180.999</ele>
        <time>2015-08-04T11:54:55Z</time>
      </trkpt>
      <trkpt lat="44.88087" lon="1.26143">
        <ele>180.931</ele>
        <time>2015-08-04T11:55:15Z</time>
      </trkpt>
      <trkpt lat="44.88064" lon="1.26143">
        <ele>181.464</ele>
        <time>2015-08-04T11:55:35Z</time>
      </trkpt>
      <trkpt lat="44.88045" lon="1.26182">
        <ele>179.206</ele>
        <time>2015-08-04T11:55:55Z</time>
      </trkpt>
      <trkpt lat="44.88004" lon="1.26222">
        <ele>178.816</ele>
        <time>2015-08-04T11:56:15Z</time>
      </trkpt>
      <trkpt lat="44.87954" lon="1.26258">
        <ele>179.108</ele>
        <time>2015-08-04T11:56:35Z</time>
      </trkpt>
      <trkpt lat="44.87939" lon="1.26293">
        <ele>176.462</ele>
        <time>2015-08-04T11:56:55Z</time>
      </trkpt>
      <trkpt lat="44.87933" lon="1.2633">
        <ele>174.357</ele>
        <time>2015-08-04T11:57:15Z</time>
      </trkpt>
      <trkpt lat="44.87918" lon="1.26353">
        <ele>175.487</ele>
        <time>2015-08-04T11:57:35Z</time>
      </trkpt>
      <trkpt lat="44.87907" lon="1.26428">
        <ele>166.779</ele>
        <time>2015-08-04T11:57:55Z</time>
      </trkpt>
      <trkpt lat="44.8785" lon="1.26497">
        <ele>164.171</ele>
        <time>2015-08-04T11:58:15Z</time>
      </trkpt>
      <trkpt lat="44.87836" lon="1.26503">
        <ele>165.362</ele>
        <time>2015-08-04T11:58:35Z</time>
      </trkpt>
      <trkpt lat="44.87819" lon="1.2654">
        <ele>162.848</ele>
        <time>2015-08-04T11:58:55Z</time>
      </trkpt>
      <trkpt lat="44.87736" lon="1.26582">
        <ele>159.38</ele>
        <time>2015-08-04T11:59:15Z</time>
      </trkpt>
      <trkpt lat="44.87705" lon="1.26613">
        <ele>155.189</ele>
        <time>2015-08-04T11:59:35Z</time>
      </trkpt>
      <trkpt lat="44.87701" lon="1.26667">
        <ele>150.006</ele>
        <time>2015-08-04T11:59:55Z</time>
      </trkpt>
      <trkpt lat="44.87691" lon="1.2672">
        <ele>148.026</ele>
        <time>2015-08-04T12:00:15Z</time>
      </trkpt>
      <trkpt lat="44.87666" lon="1.26776">
        <ele>147.008</ele>
        <time>2015-08-04T12:00:35Z</time>
      </trkpt>
      <trkpt lat="44.87638" lon="1.26815">
        <ele>145.184</ele>
        <time>2015-08-04T12:00:55Z</time>
      </trkpt>
      <trkpt lat="44.8761" lon="1.26867">
        <ele>142.129</ele>
        <time>2015-08-04T12:01:15Z</time>
      </trkpt>
      <trkpt lat="44.87586" lon="1.26895">
        <ele>141.829</ele>
        <time>2015-08-04T12:01:35Z</time>
      </trkpt>
      <trkpt lat="44.87564" lon="1.26936">
        <ele>138.951</ele>
        <time>2015-08-04T12:01:55Z</time>
      </trkpt>
      <trkpt lat="44.87468" lon="1.26922">
        <ele>138.683</ele>
        <time>2015-08-04T12:02:15Z</time>
      </trkpt>
      <trkpt lat="44.87379" lon="1.26936">
        <ele>131.984</ele>
        <time>2015-08-04T12:02:35Z</time>
      </trkpt>
      <trkpt lat="44.87366" lon="1.26932">
        <ele>132.05</ele>
        <time>2015-08-04T12:02:55Z</time>
      </trkpt>
      <trkpt lat="44.8729" lon="1.26972">
        <ele>135.152</ele>
        <time>2015-08-04T12:03:15Z</time>
      </trkpt>
      <trkpt lat="44.87265" lon="1.27017">
        <ele>136.777</ele>
        <time>2015-08-04T12:03:35Z</time>
      </trkpt>
      <trkpt lat="44.87249" lon="1.27067">
        <ele>137.661</ele>
        <time>2015-08-04T12:03:55Z</time>
      </trkpt>
      <trkpt lat="44.87247" lon="1.27099">
        <ele>138.627</ele>
        <time>2015-08-04T12:04:15Z</time>
      </trkpt>
      <trkpt lat="44.87258" lon="1.27182">
        <ele>135.208</ele>
        <time>2015-08-04T12:04:35Z</time>
      </trkpt>
      <trkpt lat="44.87276" lon="1.27225">
        <ele>134.523</ele>
        <time>2015-08-04T12:04:55Z</time>
      </trkpt>
      <trkpt lat="44.87291" lon="1.2728">
        <ele>130.618</ele>
        <time>2015-08-04T12:05:15Z</time>
      </trkpt>
      <trkpt lat="44.87335" lon="1.27349">
        <ele>125.258</ele>
        <time>2015-08-04T12:05:35Z</time>
      </trkpt>
      <trkpt lat="44.87378" lon="1.27376">
        <ele>123.91</ele>
        <time>2015-08-04T12:05:55Z</time>
      </trkpt>
      <trkpt lat="44.87403" lon="1.27445">
        <ele>129.632</ele>
        <time>2015-08-04T12:06:15Z</time>
      </trkpt>
      <trkpt lat="44.87423" lon="1.27523">
        <ele>124.773</ele>
        <time>2015-08-04T12:06:35Z</time>
      </trkpt>
      <trkpt lat="44.87421" lon="1.27593">
        <ele>121.629</ele>
        <time>2015-08-04T12:06:55Z</time>
      </trkpt>
      <trkpt lat="44.87437" lon="1.27642">
        <ele>119.111</ele>
        <time>2015-08-04T12:07:15Z</time>
      </trkpt>
      <trkpt lat="44.87427" lon="1.27738">
        <ele>116.279</ele>
        <time>2015-08-04T12:07:35Z</time>
      </trkpt>
      <trkpt lat="44.874" lon="1.27771">
        <ele>118.105</ele>
        <time>2015-08-04T12:07:55Z</time>
      </trkpt>
      <trkpt lat="44.8746" lon="1.27786">
        <ele>110.625</ele>
        <time>2015-08-04T12:08:15Z</time>
      </trkpt>
      <trkpt lat="44.87524" lon="1.2779">
        <ele>114.908</ele>
        <time>2015-08-04T12:08:35Z</time>
      </trkpt>
      <trkpt lat="44.8755" lon="1.27804">
        <ele>120.153</ele>
        <time>2015-08-04T12:08:55Z</time>
      </trkpt>
      <trkpt lat="44.87616" lon="1.2788">
        <ele>125.598</ele>
        <time>2015-08-04T12:09:15Z</time>
      </trkpt>
      <trkpt lat="44.87662" lon="1.27864">
        <ele>124.948</ele>
        <time>2015-08-04T12:09:35Z</time>
      </trkpt>
      <trkpt lat="44.87713" lon="1.27878">
        <ele>127.92</ele>
        <time>2015-08-04T12:09:55Z</time>
      </trkpt>
      <trkpt lat="44.87751" lon="1.27901">
        <ele>130.942</ele>
        <time>2015-08-04T12:10:15Z</time>
      </trkpt>
      <trkpt lat="44.87776" lon="1.27929">
        <ele>133.443</ele>
        <time>2015-08-04T12:10:35Z</time>
      </trkpt>
      <trkpt lat="44.87816" lon="1.27962">
        <ele>140.889</ele>
        <time>2015-08-04T12:10:55Z</time>
      </trkpt>
      <trkpt lat="44.87868" lon="1.27996">
        <ele>143.511</ele>
        <time>2015-08-04T12:11:15Z</time>
      </trkpt>
      <trkpt lat="44.87897" lon="1.28035">
        <ele>140.737</ele>
        <time>2020-03-06T16:37:37Z</time>
      </trkpt>
      <trkpt lat="44.87919" lon="1.28078">
        <ele>139.749</ele>
        <time>2015-08-04T12:11:55Z</time>
      </trkpt>
      <trkpt lat="44.87942" lon="1.2815">
        <ele>132.613</ele>
        <time>2015-08-04T12:12:15Z</time>
      </trkpt>
      <trkpt lat="44.87945" lon="1.28188">
        <ele>127.708</ele>
        <time>2015-08-04T12:12:35Z</time>
      </trkpt>
      <trkpt lat="44.87933" lon="1.28205">
        <ele>126.019</ele>
        <time>2015-08-04T12:12:55Z</time>
      </trkpt>
      <trkpt lat="44.87925" lon="1.28239">
        <ele>122.554</ele>
        <time>2015-08-04T12:13:15Z</time>
      </trkpt>
      <trkpt lat="44.87889" lon="1.28274">
        <ele>119.984</ele>
        <time>2015-08-04T12:13:35Z</time>
      </trkpt>
      <trkpt lat="44.8787" lon="1.28296">
        <ele>117.036</ele>
        <time>2015-08-04T12:13:55Z</time>
      </trkpt>
      <trkpt lat="44.87855" lon="1.28348">
        <ele>111.818</ele>
        <time>2015-08-04T12:14:15Z</time>
      </trkpt>
      <trkpt lat="44.87844" lon="1.28352">
        <ele>110.199</ele>
        <time>2015-08-04T12:14:35Z</time>
      </trkpt>
      <trkpt lat="44.87837" lon="1.28402">
        <ele>101.315</ele>
        <time>2015-08-04T12:14:55Z</time>
      </trkpt>
      <trkpt lat="44.8784" lon="1.28448">
        <ele>100.337</ele>
        <time>2015-08-04T12:15:15Z</time>
      </trkpt>
      <trkpt lat="44.87764" lon="1.28565">
        <ele>99.851</ele>
        <time>2015-08-04T12:15:35Z</time>
      </trkpt>
      <trkpt lat="44.87734" lon="1.28591">
        <ele>102.701</ele>
        <time>2015-08-04T12:15:55Z</time>
      </trkpt>
      <trkpt lat="44.87789" lon="1.28635">
        <ele>104.611</ele>
        <time>2015-08-04T12:16:15Z</time>
      </trkpt>
      <trkpt lat="44.87813" lon="1.28672">
        <ele>106.108</ele>
        <time>2015-08-04T12:16:35Z</time>
      </trkpt>
      <trkpt lat="44.87831" lon="1.28754">
        <ele>104.771</ele>
        <time>2015-08-04T12:16:55Z</time>
      </trkpt>
      <trkpt lat="44.87911" lon="1.28896">
        <ele>103.936</ele>
        <time>2015-08-04T12:17:15Z</time>
      </trkpt>
      <trkpt lat="44.87945" lon="1.28964">
        <ele>102.026</ele>
        <time>2015-08-04T12:17:35Z</time>
      </trkpt>
      <trkpt lat="44.87943" lon="1.28991">
        <ele>104.578</ele>
        <time>2015-08-04T12:17:55Z</time>
      </trkpt>
      <trkpt lat="44.87894" lon="1.29071">
        <ele>106.34</ele>
        <time>2015-08-04T12:18:15Z</time>
      </trkpt>
      <trkpt lat="44.87891" lon="1.29086">
        <ele>104.621</ele>
        <time>2015-08-04T12:18:35Z</time>
      </trkpt>
      <trkpt lat="44.87899" lon="1.29166">
        <ele>102.077</ele>
        <time>2015-08-04T12:18:55Z</time>
      </trkpt>
      <trkpt lat="44.87868" lon="1.29215">
        <ele>104.579</ele>
        <time>2015-08-04T12:19:15Z</time>
      </trkpt>
      <trkpt lat="44.87822" lon="1.29273">
        <ele>106.821</ele>
        <time>2015-08-04T12:19:35Z</time>
      </trkpt>
      <trkpt lat="44.878" lon="1.29349">
        <ele>107.441</ele>
        <time>2015-08-04T12:19:55Z</time>
      </trkpt>
      <trkpt lat="44.87825" lon="1.29359">
        <ele>106.305</ele>
        <time>2015-08-04T12:20:15Z</time>
      </trkpt>
      <trkpt lat="44.87882" lon="1.29387">
        <ele>106.708</ele>
        <time>2015-08-04T12:20:35Z</time>
      </trkpt>
      <trkpt lat="44.87926" lon="1.29379">
        <ele>108.848</ele>
        <time>2015-08-04T12:20:55Z</time>
      </trkpt>
      <trkpt lat="44.87907" lon="1.29601">
        <ele>114.353</ele>
        <time>2015-08-04T12:21:15Z</time>
      </trkpt>
      <trkpt lat="44.87891" lon="1.2979">
        <ele>126.873</ele>
        <time>2015-08-04T12:21:35Z</time>
      </trkpt>
      <trkpt lat="44.87895" lon="1.29882">
        <ele>130.545</ele>
        <time>2015-08-04T12:21:55Z</time>
      </trkpt>
      <trkpt lat="44.87904" lon="1.2995">
        <ele>136.937</ele>
        <time>2015-08-04T12:22:15Z</time>
      </trkpt>
      <trkpt lat="44.87898" lon="1.30007">
        <ele>145.088</ele>
        <time>2015-08-04T12:22:35Z</time>
      </trkpt>
      <trkpt lat="44.87896" lon="1.30117">
        <ele>151.264</ele>
        <time>2015-08-04T12:22:55Z</time>
      </trkpt>
      <trkpt lat="44.87906" lon="1.30144">
        <ele>151.856</ele>
        <time>2015-08-04T12:23:15Z</time>
      </trkpt>
      <trkpt lat="44.87937" lon="1.30181">
        <ele>153.951</ele>
        <time>2015-08-04T12:23:35Z</time>
      </trkpt>
      <trkpt lat="44.87961" lon="1.30222">
        <ele>157.501</ele>
        <time>2015-08-04T12:23:55Z</time>
      </trkpt>
      <trkpt lat="44.87939" lon="1.30244">
        <ele>157.411</ele>
        <time>2015-08-04T12:24:15Z</time>
      </trkpt>
      <trkpt lat="44.87928" lon="1.30277">
        <ele>157.008</ele>
        <time>2015-08-04T12:24:35Z</time>
      </trkpt>
      <trkpt lat="44.87923" lon="1.30307">
        <ele>155.931</ele>
        <time>2015-08-04T12:24:55Z</time>
      </trkpt>
      <trkpt lat="44.87891" lon="1.30403">
        <ele>145.766</ele>
        <time>2015-08-04T12:25:15Z</time>
      </trkpt>
      <trkpt lat="44.87889" lon="1.30447">
        <ele>141.526</ele>
        <time>2015-08-04T12:25:35Z</time>
      </trkpt>
      <trkpt lat="44.87864" lon="1.30502">
        <ele>131.058</ele>
        <time>2015-08-04T12:25:55Z</time>
      </trkpt>
      <trkpt lat="44.8786" lon="1.3052">
        <ele>128.93</ele>
        <time>2015-08-04T12:26:15Z</time>
      </trkpt>
      <trkpt lat="44.87837" lon="1.30565">
        <ele>132.391</ele>
        <time>2015-08-04T12:26:35Z</time>
      </trkpt>
      <trkpt lat="44.87842" lon="1.30648">
        <ele>136.987</ele>
        <time>2015-08-04T12:26:55Z</time>
      </trkpt>
      <trkpt lat="44.87863" lon="1.30727">
        <ele>132.239</ele>
        <time>2015-08-04T12:27:15Z</time>
      </trkpt>
      <trkpt lat="44.8788" lon="1.30769">
        <ele>134.867</ele>
        <time>2015-08-04T12:27:35Z</time>
      </trkpt>
      <trkpt lat="44.87884" lon="1.30806">
        <ele>135.981</ele>
        <time>2015-08-04T12:27:55Z</time>
      </trkpt>
      <trkpt lat="44.87852" lon="1.30994">
        <ele>150.519</ele>
        <time>2015-08-04T12:28:15Z</time>
      </trkpt>
      <trkpt lat="44.8784" lon="1.31059">
        <ele>159.808</ele>
        <time>2015-08-04T12:28:35Z</time>
      </trkpt>
      <trkpt lat="44.87833" lon="1.31114">
        <ele>165.672</ele>
        <time>2015-08-04T12:28:55Z</time>
      </trkpt>
      <trkpt lat="44.87839" lon="1.31138">
        <ele>168.367</ele>
        <time>2015-08-04T12:29:15Z</time>
      </trkpt>
      <trkpt lat="44.87876" lon="1.31178">
        <ele>166.187</ele>
        <time>2015-08-04T12:29:35Z</time>
      </trkpt>
      <trkpt lat="44.87881" lon="1.31203">
        <ele>165.599</ele>
        <time>2015-08-04T12:29:55Z</time>
      </trkpt>
      <trkpt lat="44.87877" lon="1.31223">
        <ele>165.381</ele>
        <time>2015-08-04T12:30:15Z</time>
      </trkpt>
      <trkpt lat="44.87751" lon="1.31357">
        <ele>174.852</ele>
        <time>2015-08-04T12:30:35Z</time>
      </trkpt>
      <trkpt lat="44.87673" lon="1.31415">
        <ele>186.748</ele>
        <time>2015-08-04T12:30:55Z</time>
      </trkpt>
      <trkpt lat="44.87622" lon="1.31531">
        <ele>185.77</ele>
        <time>2015-08-04T12:31:15Z</time>
      </trkpt>
      <trkpt lat="44.87608" lon="1.31631">
        <ele>190.293</ele>
        <time>2015-08-04T12:31:35Z</time>
      </trkpt>
      <trkpt lat="44.87616" lon="1.31847">
        <ele>204.765</ele>
        <time>2015-08-04T12:31:55Z</time>
      </trkpt>
      <trkpt lat="44.87588" lon="1.31977">
        <ele>212.021</ele>
        <time>2015-08-04T12:32:15Z</time>
      </trkpt>
      <trkpt lat="44.87674" lon="1.32206">
        <ele>221.608</ele>
        <time>2015-08-04T12:32:35Z</time>
      </trkpt>
      <trkpt lat="44.8772" lon="1.3229">
        <ele>228.145</ele>
        <time>2015-08-04T12:32:55Z</time>
      </trkpt>
      <trkpt lat="44.87754" lon="1.32389">
        <ele>231.08</ele>
        <time>2015-08-04T12:33:15Z</time>
      </trkpt>
      <trkpt lat="44.87787" lon="1.32432">
        <ele>235.23</ele>
        <time>2015-08-04T12:33:35Z</time>
      </trkpt>
      <trkpt lat="44.87898" lon="1.32521">
        <ele>234.382</ele>
        <time>2015-08-04T12:33:55Z</time>
      </trkpt>
      <trkpt lat="44.88018" lon="1.32632">
        <ele>240.134</ele>
        <time>2015-08-04T12:34:15Z</time>
      </trkpt>
      <trkpt lat="44.88036" lon="1.32744">
        <ele>241.685</ele>
        <time>2015-08-04T12:34:35Z</time>
      </trkpt>
      <trkpt lat="44.88059" lon="1.32841">
        <ele>243.451</ele>
        <time>2015-08-04T12:34:55Z</time>
      </trkpt>
      <trkpt lat="44.88066" lon="1.32938">
        <ele>243.913</ele>
        <time>2015-08-04T12:35:15Z</time>
      </trkpt>
      <trkpt lat="44.88078" lon="1.33061">
        <ele>243.737</ele>
        <time>2015-08-04T12:35:35Z</time>
      </trkpt>
      <trkpt lat="44.88051" lon="1.33239">
        <ele>239.049</ele>
        <time>2015-08-04T12:35:55Z</time>
      </trkpt>
      <trkpt lat="44.8808" lon="1.33332">
        <ele>234.113</ele>
        <time>2015-08-04T12:36:15Z</time>
      </trkpt>
      <trkpt lat="44.88126" lon="1.33371">
        <ele>229.008</ele>
        <time>2015-08-04T12:36:35Z</time>
      </trkpt>
      <trkpt lat="44.88144" lon="1.33409">
        <ele>222.279</ele>
        <time>2015-08-04T12:36:55Z</time>
      </trkpt>
      <trkpt lat="44.88149" lon="1.33487">
        <ele>215.674</ele>
        <time>2015-08-04T12:37:15Z</time>
      </trkpt>
      <trkpt lat="44.88166" lon="1.33533">
        <ele>211.184</ele>
        <time>2015-08-04T12:37:35Z</time>
      </trkpt>
      <trkpt lat="44.88213" lon="1.33584">
        <ele>203.066</ele>
        <time>2015-08-04T12:37:55Z</time>
      </trkpt>
      <trkpt lat="44.88241" lon="1.33638">
        <ele>202.048</ele>
        <time>2015-08-04T12:38:15Z</time>
      </trkpt>
      <trkpt lat="44.8826" lon="1.33713">
        <ele>196.529</ele>
        <time>2015-08-04T12:38:35Z</time>
      </trkpt>
      <trkpt lat="44.88281" lon="1.33762">
        <ele>193.955</ele>
        <time>2015-08-04T12:38:55Z</time>
      </trkpt>
      <trkpt lat="44.88283" lon="1.33804">
        <ele>192.137</ele>
        <time>2015-08-04T12:39:15Z</time>
      </trkpt>
      <trkpt lat="44.88334" lon="1.3387">
        <ele>184.334</ele>
        <time>2015-08-04T12:39:35Z</time>
      </trkpt>
      <trkpt lat="44.88352" lon="1.33913">
        <ele>182.755</ele>
        <time>2015-08-04T12:39:55Z</time>
      </trkpt>
      <trkpt lat="44.88341" lon="1.34009">
        <ele>182.41</ele>
        <time>2015-08-04T12:40:15Z</time>
      </trkpt>
      <trkpt lat="44.88306" lon="1.34065">
        <ele>179.408</ele>
        <time>2015-08-04T12:40:35Z</time>
      </trkpt>
      <trkpt lat="44.8832" lon="1.34128">
        <ele>183.679</ele>
        <time>2015-08-04T12:40:55Z</time>
      </trkpt>
      <trkpt lat="44.88318" lon="1.34181">
        <ele>182.434</ele>
        <time>2015-08-04T12:41:15Z</time>
      </trkpt>
      <trkpt lat="44.88333" lon="1.34268">
        <ele>180.394</ele>
        <time>2015-08-04T12:41:35Z</time>
      </trkpt>
      <trkpt lat="44.88337" lon="1.34484">
        <ele>182.636</ele>
        <time>2015-08-04T12:41:55Z</time>
      </trkpt>
      <trkpt lat="44.88286" lon="1.34655">
        <ele>178.518</ele>
        <time>2015-08-04T12:42:15Z</time>
      </trkpt>
      <trkpt lat="44.88252" lon="1.34683">
        <ele>174.739</ele>
        <time>2015-08-04T12:42:35Z</time>
      </trkpt>
      <trkpt lat="44.88217" lon="1.34742">
        <ele>166.135</ele>
        <time>2015-08-04T12:42:55Z</time>
      </trkpt>
      <trkpt lat="44.88202" lon="1.34781">
        <ele>164.347</ele>
        <time>2015-08-04T12:43:15Z</time>
      </trkpt>
      <trkpt lat="44.88119" lon="1.34887">
        <ele>141.222</ele>
        <time>2015-08-04T12:43:35Z</time>
      </trkpt>
      <trkpt lat="44.88115" lon="1.34933">
        <ele>135.462</ele>
        <time>2015-08-04T12:43:55Z</time>
      </trkpt>
      <trkpt lat="44.88217" lon="1.35024">
        <ele>132.108</ele>
        <time>2015-08-04T12:44:15Z</time>
      </trkpt>
      <trkpt lat="44.88221" lon="1.35052">
        <ele>130.108</ele>
        <time>2015-08-04T12:44:35Z</time>
      </trkpt>
      <trkpt lat="44.88214" lon="1.35092">
        <ele>130.698</ele>
        <time>2015-08-04T12:44:55Z</time>
      </trkpt>
      <trkpt lat="44.88191" lon="1.35118">
        <ele>133.373</ele>
        <time>2015-08-04T12:45:15Z</time>
      </trkpt>
      <trkpt lat="44.88215" lon="1.35139">
        <ele>137.393</ele>
        <time>2015-08-04T12:45:35Z</time>
      </trkpt>
      <trkpt lat="44.88226" lon="1.352">
        <ele>150.715</ele>
        <time>2015-08-04T12:45:55Z</time>
      </trkpt>
      <trkpt lat="44.88268" lon="1.35217">
        <ele>156.617</ele>
        <time>2020-03-06T17:12:17Z</time>
      </trkpt>
      <trkpt lat="44.88314" lon="1.35173">
        <ele>149.898</ele>
        <time>2020-03-06T17:12:37Z</time>
      </trkpt>
      <trkpt lat="44.88392" lon="1.35173">
        <ele>154.334</ele>
        <time>2020-03-06T17:12:57Z</time>
      </trkpt>
      <trkpt lat="44.8842" lon="1.35241">
        <ele>162.996</ele>
        <time>2020-03-06T17:13:17Z</time>
      </trkpt>
      <trkpt lat="44.88418" lon="1.35337">
        <ele>170.186</ele>
        <time>2015-08-04T12:47:15Z</time>
      </trkpt>
    </trkseg>
  </trk>
  <trk>
    <name><![CDATA[Pinsac]]></name>
    <extensions>
      <line xmlns="http://www.topografix.com/GPX/gpx_style/0/2">
        <color>00ff11</color>
        <width>4</width>
      </line>
    </extensions>
    <trkseg>
      <trkpt lat="44.88418" lon="1.35337">
        <ele>170.186</ele>
        <time>2015-08-04T12:47:15Z</time>
      </trkpt>
      <trkpt lat="44.88418" lon="1.35337">
        <ele>170.186</ele>
        <time>2015-08-04T12:47:15Z</time>
      </trkpt>
      <trkpt lat="44.88418" lon="1.35337">
        <ele>170.186</ele>
        <time>2015-08-04T12:47:15Z</time>
      </trkpt>
      <trkpt lat="44.88418" lon="1.35337">
        <ele>170.186</ele>
        <time>2015-08-04T12:47:15Z</time>
      </trkpt>
      <trkpt lat="44.88418" lon="1.35337">
        <ele>170.186</ele>
        <time>2015-08-04T12:47:15Z</time>
      </trkpt>
      <trkpt lat="44.88418" lon="1.35337">
        <ele>170.186</ele>
        <time>2015-08-04T12:47:15Z</time>
      </trkpt>
      <trkpt lat="44.88418" lon="1.35337">
        <ele>170.186</ele>
        <time>2015-08-04T12:47:15Z</time>
      </trkpt>
      <trkpt lat="44.88717" lon="1.35604">
        <ele>155.26</ele>
        <time>2015-08-04T12:47:35Z</time>
      </trkpt>
      <trkpt lat="44.88798" lon="1.35585">
        <ele>165.326</ele>
        <time>2015-08-04T12:47:55Z</time>
      </trkpt>
      <trkpt lat="44.88807" lon="1.35657">
        <ele>171.308</ele>
        <time>2015-08-04T12:48:15Z</time>
      </trkpt>
      <trkpt lat="44.88827" lon="1.35711">
        <ele>173.414</ele>
        <time>2015-08-04T12:48:35Z</time>
      </trkpt>
      <trkpt lat="44.88851" lon="1.35844">
        <ele>180.289</ele>
        <time>2015-08-04T12:48:55Z</time>
      </trkpt>
      <trkpt lat="44.88879" lon="1.35874">
        <ele>185.479</ele>
        <time>2015-08-04T12:49:15Z</time>
      </trkpt>
      <trkpt lat="44.88897" lon="1.3592">
        <ele>190.041</ele>
        <time>2015-08-04T12:49:35Z</time>
      </trkpt>
      <trkpt lat="44.88954" lon="1.35942">
        <ele>196.113</ele>
        <time>2015-08-04T12:49:55Z</time>
      </trkpt>
      <trkpt lat="44.88998" lon="1.35967">
        <ele>200.544</ele>
        <time>2015-08-04T12:50:15Z</time>
      </trkpt>
      <trkpt lat="44.89029" lon="1.36001">
        <ele>205.15</ele>
        <time>2015-08-04T12:50:35Z</time>
      </trkpt>
      <trkpt lat="44.88963" lon="1.36067">
        <ele>202.022</ele>
        <time>2015-08-04T12:50:55Z</time>
      </trkpt>
      <trkpt lat="44.88932" lon="1.36133">
        <ele>199.332</ele>
        <time>2015-08-04T12:51:15Z</time>
      </trkpt>
      <trkpt lat="44.8889" lon="1.36183">
        <ele>195.792</ele>
        <time>2015-08-04T12:51:35Z</time>
      </trkpt>
      <trkpt lat="44.88862" lon="1.36254">
        <ele>200.211</ele>
        <time>2015-08-04T12:51:55Z</time>
      </trkpt>
      <trkpt lat="44.8884" lon="1.3633">
        <ele>201.308</ele>
        <time>2015-08-04T12:52:15Z</time>
      </trkpt>
      <trkpt lat="44.88777" lon="1.36474">
        <ele>201.229</ele>
        <time>2015-08-04T12:52:35Z</time>
      </trkpt>
      <trkpt lat="44.88768" lon="1.36466">
        <ele>201.924</ele>
        <time>2015-08-04T12:52:55Z</time>
      </trkpt>
      <trkpt lat="44.88763" lon="1.3656">
        <ele>203.834</ele>
        <time>2015-08-04T12:53:15Z</time>
      </trkpt>
      <trkpt lat="44.88765" lon="1.3664">
        <ele>210.666</ele>
        <time>2015-08-04T12:53:35Z</time>
      </trkpt>
      <trkpt lat="44.88783" lon="1.36778">
        <ele>211.748</ele>
        <time>2015-08-04T12:53:55Z</time>
      </trkpt>
      <trkpt lat="44.88783" lon="1.36832">
        <ele>219.559</ele>
        <time>2015-08-04T12:54:15Z</time>
      </trkpt>
      <trkpt lat="44.88827" lon="1.3694">
        <ele>212.015</ele>
        <time>2015-08-04T12:54:35Z</time>
      </trkpt>
      <trkpt lat="44.8885" lon="1.36974">
        <ele>207.937</ele>
        <time>2015-08-04T12:54:55Z</time>
      </trkpt>
      <trkpt lat="44.88914" lon="1.37031">
        <ele>199.869</ele>
        <time>2015-08-04T12:55:15Z</time>
      </trkpt>
      <trkpt lat="44.88956" lon="1.37089">
        <ele>191.604</ele>
        <time>2015-08-04T12:55:35Z</time>
      </trkpt>
      <trkpt lat="44.88988" lon="1.37158">
        <ele>182.024</ele>
        <time>2015-08-04T12:55:55Z</time>
      </trkpt>
      <trkpt lat="44.89009" lon="1.3725">
        <ele>174.408</ele>
        <time>2015-08-04T12:56:15Z</time>
      </trkpt>
      <trkpt lat="44.89041" lon="1.37302">
        <ele>163.162</ele>
        <time>2015-08-04T12:56:35Z</time>
      </trkpt>
      <trkpt lat="44.89068" lon="1.37301">
        <ele>161.577</ele>
        <time>2015-08-04T12:56:55Z</time>
      </trkpt>
      <trkpt lat="44.89091" lon="1.37322">
        <ele>160.577</ele>
        <time>2015-08-04T12:57:15Z</time>
      </trkpt>
      <trkpt lat="44.89106" lon="1.37373">
        <ele>155.949</ele>
        <time>2015-08-04T12:57:35Z</time>
      </trkpt>
      <trkpt lat="44.89129" lon="1.37418">
        <ele>152.241</ele>
        <time>2015-08-04T12:57:55Z</time>
      </trkpt>
      <trkpt lat="44.89158" lon="1.37452">
        <ele>145.932</ele>
        <time>2015-08-04T12:58:15Z</time>
      </trkpt>
      <trkpt lat="44.89203" lon="1.37465">
        <ele>146.048</ele>
        <time>2015-08-04T12:58:35Z</time>
      </trkpt>
      <trkpt lat="44.8922" lon="1.37521">
        <ele>141.96</ele>
        <time>2015-08-04T12:58:55Z</time>
      </trkpt>
      <trkpt lat="44.89238" lon="1.37554">
        <ele>144.084</ele>
        <time>2015-08-04T12:59:15Z</time>
      </trkpt>
      <trkpt lat="44.89258" lon="1.37581">
        <ele>145.607</ele>
        <time>2015-08-04T12:59:35Z</time>
      </trkpt>
      <trkpt lat="44.89279" lon="1.37591">
        <ele>144.217</ele>
        <time>2015-08-04T12:59:55Z</time>
      </trkpt>
      <trkpt lat="44.89276" lon="1.37652">
        <ele>140.808</ele>
        <time>2015-08-04T13:00:15Z</time>
      </trkpt>
      <trkpt lat="44.89262" lon="1.37786">
        <ele>124.284</ele>
        <time>2015-08-04T13:00:35Z</time>
      </trkpt>
      <trkpt lat="44.892" lon="1.37965">
        <ele>104.289</ele>
        <time>2015-08-04T13:00:55Z</time>
      </trkpt>
      <trkpt lat="44.892" lon="1.37996">
        <ele>100.329</ele>
        <time>2015-08-04T13:01:15Z</time>
      </trkpt>
      <trkpt lat="44.89241" lon="1.38047">
        <ele>91.351</ele>
        <time>2015-08-04T13:01:35Z</time>
      </trkpt>
      <trkpt lat="44.89249" lon="1.38076">
        <ele>91.773</ele>
        <time>2015-08-04T13:01:55Z</time>
      </trkpt>
      <trkpt lat="44.89286" lon="1.38114">
        <ele>97.144</ele>
        <time>2015-08-04T13:02:15Z</time>
      </trkpt>
      <trkpt lat="44.89307" lon="1.38168">
        <ele>102.15</ele>
        <time>2015-08-04T13:02:35Z</time>
      </trkpt>
      <trkpt lat="44.89427" lon="1.3829">
        <ele>105.962</ele>
        <time>2015-08-04T13:02:55Z</time>
      </trkpt>
      <trkpt lat="44.89459" lon="1.38347">
        <ele>105.275</ele>
        <time>2015-08-04T13:03:15Z</time>
      </trkpt>
      <trkpt lat="44.89513" lon="1.38408">
        <ele>108.728</ele>
        <time>2015-08-04T13:03:35Z</time>
      </trkpt>
      <trkpt lat="44.8956" lon="1.38476">
        <ele>108.12</ele>
        <time>2015-08-04T13:03:55Z</time>
      </trkpt>
      <trkpt lat="44.89632" lon="1.38522">
        <ele>113.308</ele>
        <time>2015-08-04T13:04:15Z</time>
      </trkpt>
      <trkpt lat="44.8971" lon="1.38552">
        <ele>117.933</ele>
        <time>2015-08-04T13:04:35Z</time>
      </trkpt>
      <trkpt lat="44.89813" lon="1.38636">
        <ele>112.298</ele>
        <time>2015-08-04T13:04:55Z</time>
      </trkpt>
      <trkpt lat="44.89898" lon="1.38717">
        <ele>107.888</ele>
        <time>2015-08-04T13:05:15Z</time>
      </trkpt>
      <trkpt lat="44.89994" lon="1.38768">
        <ele>112.01</ele>
        <time>2015-08-04T13:05:35Z</time>
      </trkpt>
      <trkpt lat="44.9011" lon="1.38738">
        <ele>121.332</ele>
        <time>2015-08-04T13:05:55Z</time>
      </trkpt>
      <trkpt lat="44.9015" lon="1.38757">
        <ele>121.613</ele>
        <time>2015-08-04T13:06:15Z</time>
      </trkpt>
      <trkpt lat="44.90239" lon="1.38858">
        <ele>122.029</ele>
        <time>2015-08-04T13:06:35Z</time>
      </trkpt>
      <trkpt lat="44.902" lon="1.38975">
        <ele>130.311</ele>
        <time>2015-08-04T13:06:55Z</time>
      </trkpt>
      <trkpt lat="44.90187" lon="1.39034">
        <ele>135.887</ele>
        <time>2015-08-04T13:07:15Z</time>
      </trkpt>
      <trkpt lat="44.9016" lon="1.39114">
        <ele>142.242</ele>
        <time>2015-08-04T13:07:35Z</time>
      </trkpt>
      <trkpt lat="44.90163" lon="1.39177">
        <ele>145.226</ele>
        <time>2015-08-04T13:07:55Z</time>
      </trkpt>
      <trkpt lat="44.90132" lon="1.39258">
        <ele>149.208</ele>
        <time>2015-08-04T13:08:15Z</time>
      </trkpt>
      <trkpt lat="44.9009" lon="1.39395">
        <ele>157.764</ele>
        <time>2015-08-04T13:08:35Z</time>
      </trkpt>
      <trkpt lat="44.90105" lon="1.39554">
        <ele>162.899</ele>
        <time>2015-08-04T13:08:55Z</time>
      </trkpt>
      <trkpt lat="44.90148" lon="1.39664">
        <ele>167.789</ele>
        <time>2015-08-04T13:09:15Z</time>
      </trkpt>
      <trkpt lat="44.90229" lon="1.39805">
        <ele>181.531</ele>
        <time>2015-08-04T13:09:35Z</time>
      </trkpt>
      <trkpt lat="44.90248" lon="1.39887">
        <ele>185.173</ele>
        <time>2015-08-04T13:09:55Z</time>
      </trkpt>
      <trkpt lat="44.90263" lon="1.40044">
        <ele>192.184</ele>
        <time>2015-08-04T13:10:15Z</time>
      </trkpt>
      <trkpt lat="44.90281" lon="1.40103">
        <ele>198.66</ele>
        <time>2015-08-04T13:10:35Z</time>
      </trkpt>
      <trkpt lat="44.90343" lon="1.40175">
        <ele>211.482</ele>
        <time>2015-08-04T13:10:55Z</time>
      </trkpt>
      <trkpt lat="44.90358" lon="1.40227">
        <ele>216.045</ele>
        <time>2015-08-04T13:11:15Z</time>
      </trkpt>
      <trkpt lat="44.90355" lon="1.40319">
        <ele>227.247</ele>
        <time>2015-08-04T13:11:35Z</time>
      </trkpt>
      <trkpt lat="44.90377" lon="1.40436">
        <ele>237.711</ele>
        <time>2015-08-04T13:11:55Z</time>
      </trkpt>
      <trkpt lat="44.90391" lon="1.40458">
        <ele>242.008</ele>
        <time>2015-08-04T13:12:15Z</time>
      </trkpt>
      <trkpt lat="44.90395" lon="1.40494">
        <ele>245.11</ele>
        <time>2015-08-04T13:12:35Z</time>
      </trkpt>
      <trkpt lat="44.90414" lon="1.40502">
        <ele>249.535</ele>
        <time>2015-08-04T13:12:55Z</time>
      </trkpt>
      <trkpt lat="44.90435" lon="1.40496">
        <ele>252.115</ele>
        <time>2015-08-04T13:13:15Z</time>
      </trkpt>
      <trkpt lat="44.9047" lon="1.40502">
        <ele>256.697</ele>
        <time>2015-08-04T13:13:35Z</time>
      </trkpt>
      <trkpt lat="44.90479" lon="1.40513">
        <ele>258.529</ele>
        <time>2015-08-04T13:13:55Z</time>
      </trkpt>
      <trkpt lat="44.90482" lon="1.40537">
        <ele>259.92</ele>
        <time>2015-08-04T13:14:15Z</time>
      </trkpt>
      <trkpt lat="44.90427" lon="1.40572">
        <ele>258.836</ele>
        <time>2015-08-04T13:14:35Z</time>
      </trkpt>
      <trkpt lat="44.90414" lon="1.40592">
        <ele>261.578</ele>
        <time>2015-08-04T13:14:55Z</time>
      </trkpt>
      <trkpt lat="44.90394" lon="1.40635">
        <ele>268.778</ele>
        <time>2015-08-04T13:15:15Z</time>
      </trkpt>
      <trkpt lat="44.90379" lon="1.40657">
        <ele>270.333</ele>
        <time>2015-08-04T13:15:35Z</time>
      </trkpt>
      <trkpt lat="44.90372" lon="1.40683">
        <ele>273.226</ele>
        <time>2015-08-04T13:15:55Z</time>
      </trkpt>
      <trkpt lat="44.9034" lon="1.40669">
        <ele>273.508</ele>
        <time>2015-08-04T13:16:15Z</time>
      </trkpt>
      <trkpt lat="44.90333" lon="1.40643">
        <ele>269.933</ele>
        <time>2015-08-04T13:16:35Z</time>
      </trkpt>
      <trkpt lat="44.90275" lon="1.40593">
        <ele>274.928</ele>
        <time>2015-08-04T13:16:55Z</time>
      </trkpt>
      <trkpt lat="44.90213" lon="1.40565">
        <ele>287.478</ele>
        <time>2015-08-04T13:17:15Z</time>
      </trkpt>
      <trkpt lat="44.90155" lon="1.40573">
        <ele>289.38</ele>
        <time>2015-08-04T13:17:35Z</time>
      </trkpt>
      <trkpt lat="44.90093" lon="1.40588">
        <ele>290.782</ele>
        <time>2015-08-04T13:17:55Z</time>
      </trkpt>
      <trkpt lat="44.90032" lon="1.4053">
        <ele>288.253</ele>
        <time>2015-08-04T13:18:15Z</time>
      </trkpt>
      <trkpt lat="44.89994" lon="1.40585">
        <ele>290.779</ele>
        <time>2015-08-04T13:18:35Z</time>
      </trkpt>
      <trkpt lat="44.89973" lon="1.40597">
        <ele>290.011</ele>
        <time>2015-08-04T13:18:55Z</time>
      </trkpt>
      <trkpt lat="44.89961" lon="1.40624">
        <ele>290.982</ele>
        <time>2015-08-04T13:19:15Z</time>
      </trkpt>
      <trkpt lat="44.89961" lon="1.40624">
        <ele>290.982</ele>
        <time>2015-08-04T13:19:15Z</time>
      </trkpt>
      <trkpt lat="44.90022" lon="1.40663">
        <ele>295.043</ele>
        <time>2015-08-04T13:19:35Z</time>
      </trkpt>
      <trkpt lat="44.90098" lon="1.40728">
        <ele>303.817</ele>
        <time>2015-08-04T13:19:55Z</time>
      </trkpt>
      <trkpt lat="44.90141" lon="1.40795">
        <ele>308.308</ele>
        <time>2015-08-04T13:20:15Z</time>
      </trkpt>
      <trkpt lat="44.90285" lon="1.4097">
        <ele>313.624</ele>
        <time>2015-08-04T13:20:35Z</time>
      </trkpt>
      <trkpt lat="44.90395" lon="1.41029">
        <ele>310.719</ele>
        <time>2015-08-04T13:20:55Z</time>
      </trkpt>
      <trkpt lat="44.90406" lon="1.41106">
        <ele>304.949</ele>
        <time>2015-08-04T13:21:15Z</time>
      </trkpt>
      <trkpt lat="44.90451" lon="1.41119">
        <ele>303.031</ele>
        <time>2015-08-04T13:21:35Z</time>
      </trkpt>
      <trkpt lat="44.90526" lon="1.4109">
        <ele>297.853</ele>
        <time>2015-08-04T13:21:55Z</time>
      </trkpt>
      <trkpt lat="44.90653" lon="1.41076">
        <ele>296.114</ele>
        <time>2015-08-04T13:22:15Z</time>
      </trkpt>
      <trkpt lat="44.9073" lon="1.41086">
        <ele>294.79</ele>
        <time>2015-08-04T13:22:35Z</time>
      </trkpt>
      <trkpt lat="44.90819" lon="1.41066">
        <ele>295.232</ele>
        <time>2015-08-04T13:22:55Z</time>
      </trkpt>
      <trkpt lat="44.90894" lon="1.41076">
        <ele>296.861</ele>
        <time>2015-08-04T13:23:15Z</time>
      </trkpt>
      <trkpt lat="44.90895" lon="1.41134">
        <ele>295.421</ele>
        <time>2015-08-04T13:23:35Z</time>
      </trkpt>
      <trkpt lat="44.9091" lon="1.4117">
        <ele>291.313</ele>
        <time>2015-08-04T13:23:55Z</time>
      </trkpt>
      <trkpt lat="44.90896" lon="1.41223">
        <ele>283.908</ele>
        <time>2015-08-04T13:24:15Z</time>
      </trkpt>
      <trkpt lat="44.90884" lon="1.41305">
        <ele>273.092</ele>
        <time>2015-08-04T13:24:35Z</time>
      </trkpt>
      <trkpt lat="44.9088" lon="1.4137">
        <ele>263.367</ele>
        <time>2015-08-04T13:24:55Z</time>
      </trkpt>
      <trkpt lat="44.90906" lon="1.41427">
        <ele>254.457</ele>
        <time>2015-08-04T13:25:15Z</time>
      </trkpt>
      <trkpt lat="44.9091" lon="1.41479">
        <ele>244.579</ele>
        <time>2015-08-04T13:25:35Z</time>
      </trkpt>
      <trkpt lat="44.90942" lon="1.41558">
        <ele>233.541</ele>
        <time>2015-08-04T13:25:55Z</time>
      </trkpt>
      <trkpt lat="44.90938" lon="1.41581">
        <ele>230.212</ele>
        <time>2015-08-04T13:26:15Z</time>
      </trkpt>
      <trkpt lat="44.90945" lon="1.41623">
        <ele>227.318</ele>
        <time>2015-08-04T13:26:35Z</time>
      </trkpt>
      <trkpt lat="44.90942" lon="1.41667">
        <ele>225.95</ele>
        <time>2015-08-04T13:26:55Z</time>
      </trkpt>
      <trkpt lat="44.90804" lon="1.41713">
        <ele>222.175</ele>
        <time>2015-08-04T13:27:15Z</time>
      </trkpt>
      <trkpt lat="44.90775" lon="1.41738">
        <ele>216.728</ele>
        <time>2015-08-04T13:27:35Z</time>
      </trkpt>
      <trkpt lat="44.90749" lon="1.41781">
        <ele>213.12</ele>
        <time>2015-08-04T13:27:55Z</time>
      </trkpt>
      <trkpt lat="44.9074" lon="1.41803">
        <ele>212.708</ele>
        <time>2015-08-04T13:28:15Z</time>
      </trkpt>
      <trkpt lat="44.90735" lon="1.41841">
        <ele>209.263</ele>
        <time>2015-08-04T13:28:35Z</time>
      </trkpt>
      <trkpt lat="44.9074" lon="1.41901">
        <ele>209.018</ele>
        <time>2015-08-04T13:28:55Z</time>
      </trkpt>
      <trkpt lat="44.90693" lon="1.41974">
        <ele>207.168</ele>
        <time>2015-08-04T13:29:15Z</time>
      </trkpt>
      <trkpt lat="44.9064" lon="1.42085">
        <ele>201.08</ele>
        <time>2015-08-04T13:29:35Z</time>
      </trkpt>
      <trkpt lat="44.9063" lon="1.42124">
        <ele>198.732</ele>
        <time>2015-08-04T13:29:55Z</time>
      </trkpt>
      <trkpt lat="44.90627" lon="1.42272">
        <ele>195.113</ele>
        <time>2015-08-04T13:30:15Z</time>
      </trkpt>
      <trkpt lat="44.90619" lon="1.42397">
        <ele>190.569</ele>
        <time>2015-08-04T13:30:35Z</time>
      </trkpt>
      <trkpt lat="44.90622" lon="1.42511">
        <ele>184.461</ele>
        <time>2015-08-04T13:30:55Z</time>
      </trkpt>
      <trkpt lat="44.90642" lon="1.42644">
        <ele>177.862</ele>
        <time>2015-08-04T13:31:15Z</time>
      </trkpt>
      <trkpt lat="44.90649" lon="1.42754">
        <ele>179.383</ele>
        <time>2015-08-04T13:31:35Z</time>
      </trkpt>
      <trkpt lat="44.90678" lon="1.42815">
        <ele>175.111</ele>
        <time>2015-08-04T13:31:55Z</time>
      </trkpt>
      <trkpt lat="44.90708" lon="1.42871">
        <ele>168.508</ele>
        <time>2015-08-04T13:32:15Z</time>
      </trkpt>
      <trkpt lat="44.90711" lon="1.42903">
        <ele>167.362</ele>
        <time>2015-08-04T13:32:35Z</time>
      </trkpt>
      <trkpt lat="44.90699" lon="1.42958">
        <ele>167.547</ele>
        <time>2015-08-04T13:32:55Z</time>
      </trkpt>
      <trkpt lat="44.90665" lon="1.43003">
        <ele>168.337</ele>
        <time>2015-08-04T13:33:15Z</time>
      </trkpt>
      <trkpt lat="44.90631" lon="1.43054">
        <ele>166.169</ele>
        <time>2015-08-04T13:33:35Z</time>
      </trkpt>
      <trkpt lat="44.90609" lon="1.43151">
        <ele>162.911</ele>
        <time>2015-08-04T13:33:55Z</time>
      </trkpt>
      <trkpt lat="44.90559" lon="1.43257">
        <ele>160.922</ele>
        <time>2015-08-04T13:34:15Z</time>
      </trkpt>
      <trkpt lat="44.90554" lon="1.43315">
        <ele>160.658</ele>
        <time>2015-08-04T13:34:35Z</time>
      </trkpt>
      <trkpt lat="44.90559" lon="1.43356">
        <ele>161.85</ele>
        <time>2015-08-04T13:34:55Z</time>
      </trkpt>
      <trkpt lat="44.90633" lon="1.43492">
        <ele>152.284</ele>
        <time>2015-08-04T13:35:15Z</time>
      </trkpt>
      <trkpt lat="44.90646" lon="1.43525">
        <ele>150.507</ele>
        <time>2015-08-04T13:35:35Z</time>
      </trkpt>
      <trkpt lat="44.90676" lon="1.43686">
        <ele>147.417</ele>
        <time>2020-03-06T18:02:17Z</time>
      </trkpt>
      <trkpt lat="44.90674" lon="1.43778">
        <ele>146.708</ele>
        <time>2020-03-06T18:02:37Z</time>
      </trkpt>
      <trkpt lat="44.90622" lon="1.43918">
        <ele>139.074</ele>
        <time>2020-03-06T18:02:57Z</time>
      </trkpt>
      <trkpt lat="44.90623" lon="1.43944">
        <ele>142.699</ele>
        <time>2020-03-06T18:03:17Z</time>
      </trkpt>
      <trkpt lat="44.90589" lon="1.44014">
        <ele>140.669</ele>
        <time>2015-08-04T13:36:55Z</time>
      </trkpt>
      <trkpt lat="44.90573" lon="1.44038">
        <ele>140.911</ele>
        <time>2015-08-04T13:37:15Z</time>
      </trkpt>
      <trkpt lat="44.90454" lon="1.44065">
        <ele>133.273</ele>
        <time>2015-08-04T13:37:35Z</time>
      </trkpt>
      <trkpt lat="44.90365" lon="1.44113">
        <ele>130.244</ele>
        <time>2015-08-04T13:37:55Z</time>
      </trkpt>
      <trkpt lat="44.90305" lon="1.44182">
        <ele>127.69</ele>
        <time>2015-08-04T13:38:15Z</time>
      </trkpt>
      <trkpt lat="44.90282" lon="1.44219">
        <ele>127.722</ele>
        <time>2015-08-04T13:38:35Z</time>
      </trkpt>
      <trkpt lat="44.9021" lon="1.44269">
        <ele>122.522</ele>
        <time>2015-08-04T13:38:55Z</time>
      </trkpt>
      <trkpt lat="44.90172" lon="1.44338">
        <ele>124.562</ele>
        <time>2015-08-04T13:39:15Z</time>
      </trkpt>
      <trkpt lat="44.90163" lon="1.44396">
        <ele>123.308</ele>
        <time>2015-08-04T13:39:35Z</time>
      </trkpt>
      <trkpt lat="44.90141" lon="1.44469">
        <ele>117.608</ele>
        <time>2015-08-04T13:39:55Z</time>
      </trkpt>
      <trkpt lat="44.90136" lon="1.44528">
        <ele>115.998</ele>
        <time>2015-08-04T13:40:15Z</time>
      </trkpt>
      <trkpt lat="44.9017" lon="1.44668">
        <ele>112.653</ele>
        <time>2015-08-04T13:40:35Z</time>
      </trkpt>
      <trkpt lat="44.90163" lon="1.4472">
        <ele>108.423</ele>
        <time>2015-08-04T13:40:55Z</time>
      </trkpt>
      <trkpt lat="44.90144" lon="1.44774">
        <ele>105.535</ele>
        <time>2015-08-04T13:41:15Z</time>
      </trkpt>
      <trkpt lat="44.90122" lon="1.44799">
        <ele>104.347</ele>
        <time>2015-08-04T13:41:35Z</time>
      </trkpt>
      <trkpt lat="44.90106" lon="1.44828">
        <ele>103.488</ele>
        <time>2015-08-04T13:41:55Z</time>
      </trkpt>
      <trkpt lat="44.9011" lon="1.44874">
        <ele>107.114</ele>
        <time>2020-11-25T14:14:40Z</time>
      </trkpt>
      <trkpt lat="44.90188" lon="1.45003">
        <ele>103.016</ele>
        <time>2020-11-25T14:15:00Z</time>
      </trkpt>
      <trkpt lat="44.90258" lon="1.45167">
        <ele>102.711</ele>
        <time>2020-11-25T14:15:20Z</time>
      </trkpt>
      <trkpt lat="44.90295" lon="1.45226">
        <ele>107.621</ele>
        <time>2020-11-25T14:15:40Z</time>
      </trkpt>
      <trkpt lat="44.90347" lon="1.45383">
        <ele>105.803</ele>
        <time>2020-11-25T14:16:00Z</time>
      </trkpt>
      <trkpt lat="44.90355" lon="1.45507">
        <ele>100.208</ele>
        <time>2020-11-25T14:16:20Z</time>
      </trkpt>
      <trkpt lat="44.90335" lon="1.45564">
        <ele>97.567</ele>
        <time>2020-11-25T14:16:40Z</time>
      </trkpt>
      <trkpt lat="44.90297" lon="1.45554">
        <ele>92.742</ele>
        <time>2020-11-25T14:17:00Z</time>
      </trkpt>
      <trkpt lat="44.90273" lon="1.45689">
        <ele>94.862</ele>
        <time>2020-11-25T14:17:20Z</time>
      </trkpt>
      <trkpt lat="44.90227" lon="1.4578">
        <ele>91.264</ele>
        <time>2020-11-25T14:17:40Z</time>
      </trkpt>
      <trkpt lat="44.90163" lon="1.45933">
        <ele>91.836</ele>
        <time>2020-11-25T14:18:00Z</time>
      </trkpt>
      <trkpt lat="44.90106" lon="1.45966">
        <ele>90.357</ele>
        <time>2020-11-25T14:18:20Z</time>
      </trkpt>
      <trkpt lat="44.90024" lon="1.46101">
        <ele>92.213</ele>
        <time>2020-11-25T14:18:40Z</time>
      </trkpt>
      <trkpt lat="44.89997" lon="1.46184">
        <ele>95.945</ele>
        <time>2020-11-25T14:19:00Z</time>
      </trkpt>
      <trkpt lat="44.9006" lon="1.46214">
        <ele>99.527</ele>
        <time>2020-11-25T14:19:20Z</time>
      </trkpt>
      <trkpt lat="44.90083" lon="1.46354">
        <ele>113.268</ele>
        <time>2020-11-25T14:19:40Z</time>
      </trkpt>
      <trkpt lat="44.89998" lon="1.46371">
        <ele>108.414</ele>
        <time>2020-11-25T14:20:00Z</time>
      </trkpt>
      <trkpt lat="44.89917" lon="1.46411">
        <ele>103.708</ele>
        <time>2020-11-25T14:20:20Z</time>
      </trkpt>
      <trkpt lat="44.89881" lon="1.4645">
        <ele>104.528</ele>
        <time>2020-11-25T14:20:40Z</time>
      </trkpt>
      <trkpt lat="44.89816" lon="1.46582">
        <ele>108.623</ele>
        <time>2020-11-25T14:21:00Z</time>
      </trkpt>
      <trkpt lat="44.89774" lon="1.46845">
        <ele>115.373</ele>
        <time>2020-11-25T14:21:20Z</time>
      </trkpt>
      <trkpt lat="44.89788" lon="1.46891">
        <ele>117.015</ele>
        <time>2020-11-25T14:21:40Z</time>
      </trkpt>
      <trkpt lat="44.8972" lon="1.47039">
        <ele>116.067</ele>
        <time>2020-11-25T14:22:00Z</time>
      </trkpt>
      <trkpt lat="44.89661" lon="1.47123">
        <ele>117.138</ele>
        <time>2020-11-25T14:22:20Z</time>
      </trkpt>
      <trkpt lat="44.89588" lon="1.47312">
        <ele>109.844</ele>
        <time>2020-11-25T14:22:40Z</time>
      </trkpt>
      <trkpt lat="44.89478" lon="1.47511">
        <ele>98.416</ele>
        <time>2020-11-25T14:23:00Z</time>
      </trkpt>
      <trkpt lat="44.89473" lon="1.47561">
        <ele>96.838</ele>
        <time>2020-11-25T14:23:20Z</time>
      </trkpt>
      <trkpt lat="44.89443" lon="1.47605">
        <ele>96.87</ele>
        <time>2020-11-25T14:23:40Z</time>
      </trkpt>
      <trkpt lat="44.89406" lon="1.47592">
        <ele>96.717</ele>
        <time>2020-11-25T14:24:00Z</time>
      </trkpt>
      <trkpt lat="44.89335" lon="1.47618">
        <ele>95.308</ele>
        <time>2020-11-25T14:24:20Z</time>
      </trkpt>
      <trkpt lat="44.89304" lon="1.47654">
        <ele>95.059</ele>
        <time>2020-11-25T14:24:40Z</time>
      </trkpt>
      <trkpt lat="44.89251" lon="1.47603">
        <ele>92.844</ele>
        <time>2020-11-25T14:25:00Z</time>
      </trkpt>
      <trkpt lat="44.89208" lon="1.4758">
        <ele>88.984</ele>
        <time>2020-11-25T14:25:20Z</time>
      </trkpt>
      <trkpt lat="44.89187" lon="1.47512">
        <ele>90.496</ele>
        <time>2020-11-25T14:25:40Z</time>
      </trkpt>
      <trkpt lat="44.89165" lon="1.47384">
        <ele>92.738</ele>
        <time>2020-11-25T14:26:00Z</time>
      </trkpt>
      <trkpt lat="44.89117" lon="1.47223">
        <ele>91.279</ele>
        <time>2020-11-25T14:26:20Z</time>
      </trkpt>
      <trkpt lat="44.89084" lon="1.47231">
        <ele>88.765</ele>
        <time>2020-11-25T14:26:40Z</time>
      </trkpt>
      <trkpt lat="44.88945" lon="1.47185">
        <ele>86.767</ele>
        <time>2020-11-25T14:27:00Z</time>
      </trkpt>
      <trkpt lat="44.88891" lon="1.47328">
        <ele>89.292</ele>
        <time>2015-08-04T13:50:55Z</time>
      </trkpt>
      <trkpt lat="44.88879" lon="1.47494">
        <ele>90.173</ele>
        <time>2015-08-04T13:51:15Z</time>
      </trkpt>
      <trkpt lat="44.88842" lon="1.47756">
        <ele>90.02</ele>
        <time>2015-08-04T13:51:35Z</time>
      </trkpt>
      <trkpt lat="44.88792" lon="1.47924">
        <ele>90.608</ele>
        <time>2015-08-04T13:51:55Z</time>
      </trkpt>
      <trkpt lat="44.88727" lon="1.48097">
        <ele>90.355</ele>
        <time>2015-08-04T13:52:15Z</time>
      </trkpt>
      <trkpt lat="44.88573" lon="1.48371">
        <ele>90.96</ele>
        <time>2015-08-04T13:52:35Z</time>
      </trkpt>
      <trkpt lat="44.88485" lon="1.4848">
        <ele>91.34</ele>
        <time>2015-08-04T13:52:55Z</time>
      </trkpt>
      <trkpt lat="44.88496" lon="1.48519">
        <ele>93.452</ele>
        <time>2015-08-04T13:53:15Z</time>
      </trkpt>
      <trkpt lat="44.88492" lon="1.48552">
        <ele>95.784</ele>
        <time>2015-08-04T13:53:35Z</time>
      </trkpt>
      <trkpt lat="44.88523" lon="1.48516">
        <ele>95.745</ele>
        <time>2015-08-04T13:53:55Z</time>
      </trkpt>
      <trkpt lat="44.88511" lon="1.48581">
        <ele>101.151</ele>
        <time>2015-08-04T13:54:15Z</time>
      </trkpt>
      <trkpt lat="44.88431" lon="1.48623">
        <ele>101.423</ele>
        <time>2015-08-04T13:54:35Z</time>
      </trkpt>
      <trkpt lat="44.88376" lon="1.48669">
        <ele>103.779</ele>
        <time>2015-08-04T13:54:55Z</time>
      </trkpt>
      <trkpt lat="44.88168" lon="1.48891">
        <ele>133.305</ele>
        <time>2015-08-04T13:55:15Z</time>
      </trkpt>
      <trkpt lat="44.88106" lon="1.4897">
        <ele>139.225</ele>
        <time>2015-08-04T13:55:35Z</time>
      </trkpt>
      <trkpt lat="44.88039" lon="1.49029">
        <ele>140.508</ele>
        <time>2015-08-04T13:55:55Z</time>
      </trkpt>
      <trkpt lat="44.88015" lon="1.49084">
        <ele>141.823</ele>
        <time>2015-08-04T13:56:15Z</time>
      </trkpt>
      <trkpt lat="44.87998" lon="1.49102">
        <ele>134.938</ele>
        <time>2015-08-04T13:56:35Z</time>
      </trkpt>
      <trkpt lat="44.8801" lon="1.49144">
        <ele>140.518</ele>
        <time>2015-08-04T13:56:55Z</time>
      </trkpt>
      <trkpt lat="44.8801" lon="1.49221">
        <ele>143.53</ele>
        <time>2015-08-04T13:57:15Z</time>
      </trkpt>
      <trkpt lat="44.88002" lon="1.49263">
        <ele>143.052</ele>
        <time>2015-08-04T13:57:35Z</time>
      </trkpt>
      <trkpt lat="44.87975" lon="1.49338">
        <ele>137.683</ele>
        <time>2015-08-04T13:57:55Z</time>
      </trkpt>
      <trkpt lat="44.87986" lon="1.4944">
        <ele>143.199</ele>
        <time>2015-08-04T13:58:15Z</time>
      </trkpt>
      <trkpt lat="44.87971" lon="1.49496">
        <ele>137.611</ele>
        <time>2015-08-04T13:58:35Z</time>
      </trkpt>
      <trkpt lat="44.87965" lon="1.49576">
        <ele>136.978</ele>
        <time>2015-08-04T13:58:55Z</time>
      </trkpt>
      <trkpt lat="44.87982" lon="1.49659">
        <ele>139.533</ele>
        <time>2015-08-04T13:59:15Z</time>
      </trkpt>
      <trkpt lat="44.88009" lon="1.49736">
        <ele>143.826</ele>
        <time>2015-08-04T13:59:35Z</time>
      </trkpt>
      <trkpt lat="44.87958" lon="1.49733">
        <ele>137.508</ele>
        <time>2020-03-06T18:26:37Z</time>
      </trkpt>
      <trkpt lat="44.87919" lon="1.49645">
        <ele>135.153</ele>
        <time>2020-03-06T18:26:57Z</time>
      </trkpt>
      <trkpt lat="44.87892" lon="1.49611">
        <ele>136.478</ele>
        <time>2020-03-06T18:27:17Z</time>
      </trkpt>
      <trkpt lat="44.87853" lon="1.49619">
        <ele>146.968</ele>
        <time>2020-03-06T18:27:37Z</time>
      </trkpt>
      <trkpt lat="44.87811" lon="1.49673">
        <ele>158.93</ele>
        <time>2020-03-06T18:27:57Z</time>
      </trkpt>
      <trkpt lat="44.87791" lon="1.49526">
        <ele>173.082</ele>
        <time>2015-08-04T14:01:15Z</time>
      </trkpt>
      <trkpt lat="44.87762" lon="1.49602">
        <ele>177.123</ele>
        <time>2015-08-04T14:01:35Z</time>
      </trkpt>
      <trkpt lat="44.87714" lon="1.49658">
        <ele>180.359</ele>
        <time>2015-08-04T14:01:55Z</time>
      </trkpt>
      <trkpt lat="44.87629" lon="1.4977">
        <ele>187.531</ele>
        <time>2015-08-04T14:02:15Z</time>
      </trkpt>
      <trkpt lat="44.8748" lon="1.49865">
        <ele>192.654</ele>
        <time>2015-08-04T14:02:35Z</time>
      </trkpt>
      <trkpt lat="44.87481" lon="1.49939">
        <ele>195.056</ele>
        <time>2015-08-04T14:02:55Z</time>
      </trkpt>
      <trkpt lat="44.87473" lon="1.50011">
        <ele>198.611</ele>
        <time>2015-08-04T14:03:15Z</time>
      </trkpt>
      <trkpt lat="44.87459" lon="1.50063">
        <ele>200.508</ele>
        <time>2015-08-04T14:03:35Z</time>
      </trkpt>
      <trkpt lat="44.87431" lon="1.5009">
        <ele>200.111</ele>
        <time>2015-08-04T14:03:55Z</time>
      </trkpt>
      <trkpt lat="44.87403" lon="1.5008">
        <ele>198.236</ele>
        <time>2015-08-04T14:04:15Z</time>
      </trkpt>
      <trkpt lat="44.87367" lon="1.50091">
        <ele>196.626</ele>
        <time>2015-08-04T14:04:35Z</time>
      </trkpt>
      <trkpt lat="44.87353" lon="1.50148">
        <ele>202.398</ele>
        <time>2015-08-04T14:04:55Z</time>
      </trkpt>
      <trkpt lat="44.87278" lon="1.50182">
        <ele>204.24</ele>
        <time>2015-08-04T14:05:15Z</time>
      </trkpt>
      <trkpt lat="44.87233" lon="1.5022">
        <ele>207.641</ele>
        <time>2015-08-04T14:05:35Z</time>
      </trkpt>
      <trkpt lat="44.87209" lon="1.50255">
        <ele>208.067</ele>
        <time>2015-08-04T14:05:55Z</time>
      </trkpt>
      <trkpt lat="44.87196" lon="1.50293">
        <ele>204.539</ele>
        <time>2015-08-04T14:06:15Z</time>
      </trkpt>
      <trkpt lat="44.87077" lon="1.50364">
        <ele>183.636</ele>
        <time>2015-08-04T14:06:35Z</time>
      </trkpt>
      <trkpt lat="44.87015" lon="1.50323">
        <ele>183.817</ele>
        <time>2015-08-04T14:06:55Z</time>
      </trkpt>
      <trkpt lat="44.86949" lon="1.50316">
        <ele>170.318</ele>
        <time>2015-08-04T14:07:15Z</time>
      </trkpt>
      <trkpt lat="44.86913" lon="1.50327">
        <ele>168.008</ele>
        <time>2015-08-04T14:07:35Z</time>
      </trkpt>
      <trkpt lat="44.86861" lon="1.50373">
        <ele>161.699</ele>
        <time>2015-08-04T14:07:55Z</time>
      </trkpt>
      <trkpt lat="44.8679" lon="1.50414">
        <ele>152.834</ele>
        <time>2015-08-04T14:08:15Z</time>
      </trkpt>
      <trkpt lat="44.86753" lon="1.50432">
        <ele>150.934</ele>
        <time>2015-08-04T14:08:35Z</time>
      </trkpt>
      <trkpt lat="44.86631" lon="1.5037">
        <ele>135.066</ele>
        <time>2020-03-06T18:35:57Z</time>
      </trkpt>
      <trkpt lat="44.866" lon="1.50291">
        <ele>126.598</ele>
        <time>2020-03-06T18:36:17Z</time>
      </trkpt>
      <trkpt lat="44.86582" lon="1.50211">
        <ele>116.959</ele>
        <time>2020-03-06T18:36:37Z</time>
      </trkpt>
      <trkpt lat="44.86586" lon="1.50061">
        <ele>112.045</ele>
        <time>2015-08-04T14:10:15Z</time>
      </trkpt>
      <trkpt lat="44.86594" lon="1.50031">
        <ele>115.2</ele>
      </trkpt>
      <trkpt lat="44.866" lon="1.49859">
        <ele>100</ele>
      </trkpt>
      <trkpt lat="44.86596" lon="1.49796">
        <ele>95.5</ele>
      </trkpt>
      <trkpt lat="44.86587" lon="1.49724">
        <ele>96.6</ele>
      </trkpt>
    </trkseg>
  </trk>
  <trk>
    <name><![CDATA[Rocamadour]]></name>
    <extensions>
      <line xmlns="http://www.topografix.com/GPX/gpx_style/0/2">
        <color>00fbff</color>
        <width>4</width>
      </line>
    </extensions>
    <trkseg>
      <trkpt lat="44.86585" lon="1.49724">
        <ele>96.6</ele>
      </trkpt>
      <trkpt lat="44.86585" lon="1.49724">
        <ele>96.6</ele>
      </trkpt>
      <trkpt lat="44.86585" lon="1.49724">
        <ele>96.6</ele>
      </trkpt>
      <trkpt lat="44.86585" lon="1.49724">
        <ele>96.6</ele>
      </trkpt>
      <trkpt lat="44.86585" lon="1.49724">
        <ele>96.6</ele>
      </trkpt>
      <trkpt lat="44.86585" lon="1.49724">
        <ele>96.6</ele>
      </trkpt>
      <trkpt lat="44.86585" lon="1.49724">
        <ele>96.6</ele>
      </trkpt>
      <trkpt lat="44.86594" lon="1.49798">
        <ele>95.4</ele>
      </trkpt>
      <trkpt lat="44.86598" lon="1.49862">
        <ele>100.2</ele>
      </trkpt>
      <trkpt lat="44.86592" lon="1.50028">
        <ele>114.6</ele>
      </trkpt>
      <trkpt lat="44.86586" lon="1.50061">
        <ele>112.045</ele>
        <time>2015-08-04T14:10:15Z</time>
      </trkpt>
      <trkpt lat="44.86549" lon="1.50088">
        <ele>108.097</ele>
        <time>2015-08-04T14:10:35Z</time>
      </trkpt>
      <trkpt lat="44.86518" lon="1.50131">
        <ele>108.664</ele>
        <time>2015-08-04T14:10:55Z</time>
      </trkpt>
      <trkpt lat="44.86501" lon="1.50204">
        <ele>113.206</ele>
        <time>2015-08-04T14:11:15Z</time>
      </trkpt>
      <trkpt lat="44.8648" lon="1.50228">
        <ele>119.216</ele>
        <time>2015-08-04T14:11:35Z</time>
      </trkpt>
      <trkpt lat="44.8645" lon="1.50231">
        <ele>123.508</ele>
        <time>2015-08-04T14:11:55Z</time>
      </trkpt>
      <trkpt lat="44.86361" lon="1.50167">
        <ele>120.072</ele>
        <time>2015-08-04T14:12:15Z</time>
      </trkpt>
      <trkpt lat="44.8631" lon="1.50144">
        <ele>118.367</ele>
        <time>2015-08-04T14:12:35Z</time>
      </trkpt>
      <trkpt lat="44.86256" lon="1.50165">
        <ele>116.187</ele>
        <time>2015-08-04T14:12:55Z</time>
      </trkpt>
      <trkpt lat="44.86228" lon="1.5021">
        <ele>114.769</ele>
        <time>2015-08-04T14:13:15Z</time>
      </trkpt>
      <trkpt lat="44.86217" lon="1.50283">
        <ele>116.691</ele>
        <time>2015-08-04T14:13:35Z</time>
      </trkpt>
      <trkpt lat="44.8624" lon="1.50317">
        <ele>121.022</ele>
        <time>2015-08-04T14:13:55Z</time>
      </trkpt>
      <trkpt lat="44.86323" lon="1.50323">
        <ele>128.978</ele>
        <time>2015-08-04T14:14:15Z</time>
      </trkpt>
      <trkpt lat="44.86363" lon="1.50337">
        <ele>132.74</ele>
        <time>2015-08-04T14:14:35Z</time>
      </trkpt>
      <trkpt lat="44.86318" lon="1.5039">
        <ele>138.649</ele>
        <time>2015-08-04T14:14:55Z</time>
      </trkpt>
      <trkpt lat="44.863" lon="1.50423">
        <ele>142.602</ele>
        <time>2015-08-04T14:15:15Z</time>
      </trkpt>
      <trkpt lat="44.86261" lon="1.50467">
        <ele>145.222</ele>
        <time>2015-08-04T14:15:35Z</time>
      </trkpt>
      <trkpt lat="44.8616" lon="1.50644">
        <ele>145.908</ele>
        <time>2020-03-06T18:42:37Z</time>
      </trkpt>
      <trkpt lat="44.8615" lon="1.50709">
        <ele>149.84</ele>
        <time>2015-08-04T14:17:15Z</time>
      </trkpt>
      <trkpt lat="44.86161" lon="1.50871">
        <ele>161.275</ele>
        <time>2015-08-04T14:17:35Z</time>
      </trkpt>
      <trkpt lat="44.8615" lon="1.50921">
        <ele>162.285</ele>
        <time>2015-08-04T14:17:55Z</time>
      </trkpt>
      <trkpt lat="44.86097" lon="1.51014">
        <ele>160.757</ele>
        <time>2015-08-04T14:18:15Z</time>
      </trkpt>
      <trkpt lat="44.86064" lon="1.51094">
        <ele>158.669</ele>
        <time>2015-08-04T14:18:35Z</time>
      </trkpt>
      <trkpt lat="44.86049" lon="1.51246">
        <ele>151.23</ele>
        <time>2015-08-04T14:18:55Z</time>
      </trkpt>
      <trkpt lat="44.85997" lon="1.5133">
        <ele>155.426</ele>
        <time>2015-08-04T14:19:15Z</time>
      </trkpt>
      <trkpt lat="44.85931" lon="1.51443">
        <ele>157.478</ele>
        <time>2015-08-04T14:19:35Z</time>
      </trkpt>
      <trkpt lat="44.85912" lon="1.51429">
        <ele>153.795</ele>
        <time>2015-08-04T14:19:55Z</time>
      </trkpt>
      <trkpt lat="44.85892" lon="1.51443">
        <ele>154.849</ele>
        <time>2015-08-04T14:20:15Z</time>
      </trkpt>
      <trkpt lat="44.85806" lon="1.51409">
        <ele>140.523</ele>
        <time>2015-08-04T14:20:35Z</time>
      </trkpt>
      <trkpt lat="44.85725" lon="1.51362">
        <ele>135.008</ele>
        <time>2015-08-04T14:20:55Z</time>
      </trkpt>
      <trkpt lat="44.85704" lon="1.51361">
        <ele>135.055</ele>
        <time>2015-08-04T14:21:15Z</time>
      </trkpt>
      <trkpt lat="44.85696" lon="1.51428">
        <ele>136.06</ele>
        <time>2015-08-04T14:21:35Z</time>
      </trkpt>
      <trkpt lat="44.85675" lon="1.51471">
        <ele>135.38</ele>
        <time>2015-08-04T14:21:55Z</time>
      </trkpt>
      <trkpt lat="44.85669" lon="1.51492">
        <ele>135.112</ele>
        <time>2020-03-06T18:47:57Z</time>
      </trkpt>
      <trkpt lat="44.85595" lon="1.51457">
        <ele>136.074</ele>
        <time>2020-03-06T18:48:17Z</time>
      </trkpt>
      <trkpt lat="44.85562" lon="1.51489">
        <ele>134.965</ele>
        <time>2020-03-06T18:48:37Z</time>
      </trkpt>
      <trkpt lat="44.85562" lon="1.51542">
        <ele>136.091</ele>
        <time>2015-08-04T14:22:55Z</time>
      </trkpt>
      <trkpt lat="44.8555" lon="1.5155">
        <ele>135.583</ele>
        <time>2015-08-04T14:23:15Z</time>
      </trkpt>
      <trkpt lat="44.85527" lon="1.51744">
        <ele>132.082</ele>
        <time>2015-08-04T14:23:35Z</time>
      </trkpt>
      <trkpt lat="44.85519" lon="1.5177">
        <ele>131.643</ele>
        <time>2015-08-04T14:23:55Z</time>
      </trkpt>
      <trkpt lat="44.85516" lon="1.51861">
        <ele>133.417</ele>
        <time>2015-08-04T14:24:15Z</time>
      </trkpt>
      <trkpt lat="44.85526" lon="1.51904">
        <ele>134.408</ele>
        <time>2015-08-04T14:24:35Z</time>
      </trkpt>
      <trkpt lat="44.85529" lon="1.51955">
        <ele>134.784</ele>
        <time>2015-08-04T14:24:55Z</time>
      </trkpt>
      <trkpt lat="44.85512" lon="1.52003">
        <ele>131.279</ele>
        <time>2020-03-06T18:51:17Z</time>
      </trkpt>
      <trkpt lat="44.85512" lon="1.52089">
        <ele>126.819</ele>
        <time>2020-03-06T18:51:37Z</time>
      </trkpt>
      <trkpt lat="44.85532" lon="1.52103">
        <ele>127.941</ele>
        <time>2020-03-06T18:51:57Z</time>
      </trkpt>
      <trkpt lat="44.85532" lon="1.5211">
        <ele>127.643</ele>
        <time>2020-03-06T18:52:17Z</time>
      </trkpt>
      <trkpt lat="44.85505" lon="1.52113">
        <ele>123.544</ele>
        <time>2020-03-06T18:52:37Z</time>
      </trkpt>
      <trkpt lat="44.85484" lon="1.52101">
        <ele>122.72</ele>
        <time>2020-03-06T18:52:57Z</time>
      </trkpt>
      <trkpt lat="44.85469" lon="1.52146">
        <ele>109.192</ele>
        <time>2020-03-06T18:53:17Z</time>
      </trkpt>
      <trkpt lat="44.85439" lon="1.52183">
        <ele>101.473</ele>
        <time>2015-08-04T14:26:35Z</time>
      </trkpt>
      <trkpt lat="44.85439" lon="1.52183">
        <ele>101.473</ele>
        <time>2015-08-04T14:26:35Z</time>
      </trkpt>
      <trkpt lat="44.854" lon="1.52138">
        <ele>104.885</ele>
        <time>2015-08-04T14:26:55Z</time>
      </trkpt>
      <trkpt lat="44.85379" lon="1.52152">
        <ele>103.713</ele>
        <time>2015-08-04T14:27:15Z</time>
      </trkpt>
      <trkpt lat="44.8538" lon="1.52203">
        <ele>101.408</ele>
        <time>2015-08-04T14:27:35Z</time>
      </trkpt>
      <trkpt lat="44.85147" lon="1.52696">
        <ele>106.993</ele>
        <time>2015-08-04T14:27:55Z</time>
      </trkpt>
      <trkpt lat="44.85002" lon="1.52942">
        <ele>116.038</ele>
        <time>2015-08-04T14:28:15Z</time>
      </trkpt>
      <trkpt lat="44.84852" lon="1.53132">
        <ele>121.368</ele>
        <time>2015-08-04T14:28:35Z</time>
      </trkpt>
      <trkpt lat="44.84837" lon="1.53283">
        <ele>132.43</ele>
        <time>2015-08-04T14:28:55Z</time>
      </trkpt>
      <trkpt lat="44.84862" lon="1.53349">
        <ele>130.512</ele>
        <time>2015-08-04T14:29:15Z</time>
      </trkpt>
      <trkpt lat="44.85001" lon="1.53551">
        <ele>117.773</ele>
        <time>2015-08-04T14:29:35Z</time>
      </trkpt>
      <trkpt lat="44.85016" lon="1.53594">
        <ele>117.279</ele>
        <time>2015-08-04T14:29:55Z</time>
      </trkpt>
      <trkpt lat="44.85035" lon="1.53617">
        <ele>117.471</ele>
        <time>2015-08-04T14:30:15Z</time>
      </trkpt>
      <trkpt lat="44.85097" lon="1.53635">
        <ele>117.633</ele>
        <time>2015-08-04T14:30:35Z</time>
      </trkpt>
      <trkpt lat="44.85206" lon="1.53738">
        <ele>114.923</ele>
        <time>2015-08-04T14:30:55Z</time>
      </trkpt>
      <trkpt lat="44.85251" lon="1.53857">
        <ele>116.915</ele>
        <time>2015-08-04T14:31:15Z</time>
      </trkpt>
      <trkpt lat="44.85312" lon="1.53947">
        <ele>118.108</ele>
        <time>2015-08-04T14:31:35Z</time>
      </trkpt>
      <trkpt lat="44.85263" lon="1.54022">
        <ele>120.949</ele>
        <time>2015-08-04T14:31:55Z</time>
      </trkpt>
      <trkpt lat="44.85233" lon="1.54044">
        <ele>121.024</ele>
        <time>2015-08-04T14:32:15Z</time>
      </trkpt>
      <trkpt lat="44.85166" lon="1.5403">
        <ele>122.224</ele>
        <time>2015-08-04T14:32:35Z</time>
      </trkpt>
      <trkpt lat="44.8509" lon="1.53986">
        <ele>131.916</ele>
        <time>2015-08-04T14:32:55Z</time>
      </trkpt>
      <trkpt lat="44.85012" lon="1.54109">
        <ele>150.498</ele>
        <time>2015-08-04T14:33:15Z</time>
      </trkpt>
      <trkpt lat="44.84992" lon="1.54164">
        <ele>156.479</ele>
        <time>2015-08-04T14:33:35Z</time>
      </trkpt>
      <trkpt lat="44.84977" lon="1.54257">
        <ele>163.885</ele>
        <time>2015-08-04T14:33:55Z</time>
      </trkpt>
      <trkpt lat="44.84963" lon="1.54288">
        <ele>166.627</ele>
        <time>2015-08-04T14:34:15Z</time>
      </trkpt>
      <trkpt lat="44.84889" lon="1.54378">
        <ele>167.652</ele>
        <time>2015-08-04T14:34:35Z</time>
      </trkpt>
      <trkpt lat="44.84837" lon="1.54384">
        <ele>166.853</ele>
        <time>2015-08-04T14:34:55Z</time>
      </trkpt>
      <trkpt lat="44.8479" lon="1.54408">
        <ele>167.208</ele>
        <time>2015-08-04T14:35:15Z</time>
      </trkpt>
      <trkpt lat="44.84639" lon="1.54459">
        <ele>163.508</ele>
        <time>2015-08-04T14:35:35Z</time>
      </trkpt>
      <trkpt lat="44.84615" lon="1.54439">
        <ele>164.061</ele>
        <time>2015-08-04T14:35:55Z</time>
      </trkpt>
      <trkpt lat="44.84591" lon="1.54413">
        <ele>165.336</ele>
        <time>2015-08-04T14:36:15Z</time>
      </trkpt>
      <trkpt lat="44.845" lon="1.546">
        <ele>156.496</ele>
        <time>2015-08-04T14:36:35Z</time>
      </trkpt>
      <trkpt lat="44.84443" lon="1.54756">
        <ele>157.298</ele>
        <time>2015-08-04T14:36:55Z</time>
      </trkpt>
      <trkpt lat="44.84454" lon="1.54894">
        <ele>148.03</ele>
        <time>2015-08-04T14:37:15Z</time>
      </trkpt>
      <trkpt lat="44.84433" lon="1.54866">
        <ele>147.641</ele>
        <time>2015-08-04T14:37:35Z</time>
      </trkpt>
      <trkpt lat="44.84391" lon="1.54881">
        <ele>141.447</ele>
        <time>2015-08-04T14:37:55Z</time>
      </trkpt>
      <trkpt lat="44.84268" lon="1.54954">
        <ele>144.349</ele>
        <time>2015-08-04T14:38:15Z</time>
      </trkpt>
      <trkpt lat="44.84264" lon="1.54971">
        <ele>142.285</ele>
        <time>2015-08-04T14:38:35Z</time>
      </trkpt>
      <trkpt lat="44.84296" lon="1.55005">
        <ele>131.489</ele>
        <time>2015-08-04T14:38:55Z</time>
      </trkpt>
      <trkpt lat="44.84367" lon="1.55001">
        <ele>118.517</ele>
        <time>2015-08-04T14:39:15Z</time>
      </trkpt>
      <trkpt lat="44.84382" lon="1.5501">
        <ele>116.108</ele>
        <time>2015-08-04T14:39:35Z</time>
      </trkpt>
      <trkpt lat="44.84399" lon="1.54978">
        <ele>123.974</ele>
        <time>2015-08-04T14:39:55Z</time>
      </trkpt>
      <trkpt lat="44.84417" lon="1.54985">
        <ele>125.969</ele>
        <time>2015-08-04T14:40:15Z</time>
      </trkpt>
      <trkpt lat="44.84441" lon="1.55051">
        <ele>118.459</ele>
        <time>2015-08-04T14:40:35Z</time>
      </trkpt>
      <trkpt lat="44.84436" lon="1.55071">
        <ele>111.821</ele>
        <time>2015-08-04T14:40:55Z</time>
      </trkpt>
      <trkpt lat="44.84398" lon="1.55054">
        <ele>108.363</ele>
        <time>2015-08-04T14:41:15Z</time>
      </trkpt>
      <trkpt lat="44.8435" lon="1.55052">
        <ele>108.654</ele>
        <time>2015-08-04T14:41:35Z</time>
      </trkpt>
      <trkpt lat="44.84293" lon="1.55079">
        <ele>109.17</ele>
        <time>2015-08-04T14:41:55Z</time>
      </trkpt>
      <trkpt lat="44.84209" lon="1.55137">
        <ele>108.122</ele>
        <time>2015-08-04T14:42:15Z</time>
      </trkpt>
      <trkpt lat="44.8431" lon="1.55185">
        <ele>99.591</ele>
        <time>2015-08-04T14:42:35Z</time>
      </trkpt>
      <trkpt lat="44.84306" lon="1.5523">
        <ele>105.781</ele>
        <time>2015-08-04T14:42:55Z</time>
      </trkpt>
      <trkpt lat="44.84229" lon="1.55279">
        <ele>108.119</ele>
        <time>2015-08-04T14:43:15Z</time>
      </trkpt>
      <trkpt lat="44.84202" lon="1.55305">
        <ele>108.008</ele>
        <time>2015-08-04T14:43:35Z</time>
      </trkpt>
      <trkpt lat="44.84194" lon="1.55363">
        <ele>116.195</ele>
        <time>2015-08-04T14:43:55Z</time>
      </trkpt>
      <trkpt lat="44.84182" lon="1.55373">
        <ele>114.19</ele>
        <time>2015-08-04T14:44:15Z</time>
      </trkpt>
      <trkpt lat="44.84133" lon="1.55382">
        <ele>107.52</ele>
        <time>2015-08-04T14:44:35Z</time>
      </trkpt>
      <trkpt lat="44.84068" lon="1.5537">
        <ele>107.162</ele>
        <time>2015-08-04T14:44:55Z</time>
      </trkpt>
      <trkpt lat="44.8403" lon="1.55401">
        <ele>114.364</ele>
        <time>2015-08-04T14:45:15Z</time>
      </trkpt>
      <trkpt lat="44.83963" lon="1.55426">
        <ele>108.695</ele>
        <time>2015-08-04T14:45:35Z</time>
      </trkpt>
      <trkpt lat="44.8393" lon="1.55448">
        <ele>110.331</ele>
        <time>2015-08-04T14:45:55Z</time>
      </trkpt>
      <trkpt lat="44.83889" lon="1.55458">
        <ele>110.573</ele>
        <time>2015-08-04T14:46:15Z</time>
      </trkpt>
      <trkpt lat="44.83865" lon="1.55453">
        <ele>109.991</ele>
        <time>2015-08-04T14:46:35Z</time>
      </trkpt>
      <trkpt lat="44.83829" lon="1.55433">
        <ele>103.281</ele>
        <time>2015-08-04T14:46:55Z</time>
      </trkpt>
      <trkpt lat="44.83782" lon="1.55342">
        <ele>102.119</ele>
        <time>2015-08-04T14:47:15Z</time>
      </trkpt>
      <trkpt lat="44.8378" lon="1.55256">
        <ele>98.008</ele>
        <time>2015-08-04T14:47:35Z</time>
      </trkpt>
      <trkpt lat="44.83773" lon="1.55211">
        <ele>98.025</ele>
        <time>2015-08-04T14:47:55Z</time>
      </trkpt>
      <trkpt lat="44.83732" lon="1.55085">
        <ele>99.68</ele>
        <time>2015-08-04T14:48:15Z</time>
      </trkpt>
      <trkpt lat="44.83692" lon="1.55012">
        <ele>100.26</ele>
        <time>2015-08-04T14:48:35Z</time>
      </trkpt>
      <trkpt lat="44.83678" lon="1.54965">
        <ele>102.032</ele>
        <time>2015-08-04T14:48:55Z</time>
      </trkpt>
      <trkpt lat="44.83645" lon="1.54902">
        <ele>102.964</ele>
        <time>2015-08-04T14:49:15Z</time>
      </trkpt>
      <trkpt lat="44.83628" lon="1.54892">
        <ele>102.615</ele>
        <time>2015-08-04T14:49:35Z</time>
      </trkpt>
      <trkpt lat="44.83561" lon="1.54881">
        <ele>101.141</ele>
        <time>2015-08-04T14:49:55Z</time>
      </trkpt>
      <trkpt lat="44.8354" lon="1.54865">
        <ele>101.023</ele>
        <time>2015-08-04T14:50:15Z</time>
      </trkpt>
      <trkpt lat="44.83493" lon="1.54816">
        <ele>101.839</ele>
        <time>2015-08-04T14:50:35Z</time>
      </trkpt>
      <trkpt lat="44.83451" lon="1.5479">
        <ele>104.401</ele>
        <time>2015-08-04T14:50:55Z</time>
      </trkpt>
      <trkpt lat="44.83436" lon="1.54801">
        <ele>103.521</ele>
        <time>2015-08-04T14:51:15Z</time>
      </trkpt>
      <trkpt lat="44.8343" lon="1.54864">
        <ele>105.908</ele>
        <time>2015-08-04T14:51:35Z</time>
      </trkpt>
      <trkpt lat="44.83416" lon="1.54876">
        <ele>108.729</ele>
        <time>2015-08-04T14:51:55Z</time>
      </trkpt>
      <trkpt lat="44.83369" lon="1.54865">
        <ele>111.134</ele>
        <time>2015-08-04T14:52:15Z</time>
      </trkpt>
      <trkpt lat="44.8334" lon="1.5487">
        <ele>109.084</ele>
        <time>2015-08-04T14:52:35Z</time>
      </trkpt>
      <trkpt lat="44.83315" lon="1.54886">
        <ele>108.196</ele>
        <time>2015-08-04T14:52:55Z</time>
      </trkpt>
      <trkpt lat="44.83294" lon="1.54913">
        <ele>109.948</ele>
        <time>2015-08-04T14:53:15Z</time>
      </trkpt>
      <trkpt lat="44.83251" lon="1.55001">
        <ele>111.359</ele>
        <time>2015-08-04T14:53:35Z</time>
      </trkpt>
      <trkpt lat="44.832" lon="1.55085">
        <ele>110.955</ele>
        <time>2015-08-04T14:53:55Z</time>
      </trkpt>
      <trkpt lat="44.83129" lon="1.55174">
        <ele>113.247</ele>
        <time>2015-08-04T14:54:15Z</time>
      </trkpt>
      <trkpt lat="44.83092" lon="1.55244">
        <ele>119.981</ele>
        <time>2015-08-04T14:54:35Z</time>
      </trkpt>
      <trkpt lat="44.83065" lon="1.55274">
        <ele>122.061</ele>
        <time>2015-08-04T14:54:55Z</time>
      </trkpt>
      <trkpt lat="44.83035" lon="1.55287">
        <ele>119.317</ele>
        <time>2015-08-04T14:55:15Z</time>
      </trkpt>
      <trkpt lat="44.82992" lon="1.55276">
        <ele>118.308</ele>
        <time>2015-08-04T14:55:35Z</time>
      </trkpt>
      <trkpt lat="44.82922" lon="1.55247">
        <ele>120.094</ele>
        <time>2015-08-04T14:55:55Z</time>
      </trkpt>
      <trkpt lat="44.82903" lon="1.55227">
        <ele>121.359</ele>
        <time>2015-08-04T14:56:15Z</time>
      </trkpt>
      <trkpt lat="44.82885" lon="1.55196">
        <ele>122.589</ele>
        <time>2015-08-04T14:56:35Z</time>
      </trkpt>
      <trkpt lat="44.82869" lon="1.55112">
        <ele>120.941</ele>
        <time>2015-08-04T14:56:55Z</time>
      </trkpt>
      <trkpt lat="44.8285" lon="1.55058">
        <ele>117.863</ele>
        <time>2015-08-04T14:57:15Z</time>
      </trkpt>
      <trkpt lat="44.82834" lon="1.54993">
        <ele>109.954</ele>
        <time>2015-08-04T14:57:35Z</time>
      </trkpt>
      <trkpt lat="44.82826" lon="1.54982">
        <ele>108.24</ele>
        <time>2015-08-04T14:57:55Z</time>
      </trkpt>
      <trkpt lat="44.82804" lon="1.54988">
        <ele>108.162</ele>
        <time>2015-08-04T14:58:15Z</time>
      </trkpt>
      <trkpt lat="44.82771" lon="1.5501">
        <ele>109.758</ele>
        <time>2015-08-04T14:58:35Z</time>
      </trkpt>
      <trkpt lat="44.82739" lon="1.55037">
        <ele>112.652</ele>
        <time>2015-08-04T14:58:55Z</time>
      </trkpt>
      <trkpt lat="44.8272" lon="1.55045">
        <ele>111.217</ele>
        <time>2015-08-04T14:59:15Z</time>
      </trkpt>
      <trkpt lat="44.82701" lon="1.55066">
        <ele>111.008</ele>
        <time>2015-08-04T14:59:35Z</time>
      </trkpt>
      <trkpt lat="44.82677" lon="1.55051">
        <ele>107.841</ele>
        <time>2015-08-04T14:59:55Z</time>
      </trkpt>
      <trkpt lat="44.82632" lon="1.55068">
        <ele>113.466</ele>
        <time>2015-08-04T15:00:15Z</time>
      </trkpt>
      <trkpt lat="44.82577" lon="1.55076">
        <ele>112.876</ele>
        <time>2015-08-04T15:00:35Z</time>
      </trkpt>
      <trkpt lat="44.82507" lon="1.55078">
        <ele>120.148</ele>
        <time>2015-08-04T15:00:55Z</time>
      </trkpt>
      <trkpt lat="44.82492" lon="1.55067">
        <ele>122.12</ele>
        <time>2015-08-04T15:01:15Z</time>
      </trkpt>
      <trkpt lat="44.82462" lon="1.55014">
        <ele>117.491</ele>
        <time>2015-08-04T15:01:35Z</time>
      </trkpt>
      <trkpt lat="44.82443" lon="1.54989">
        <ele>115.317</ele>
        <time>2015-08-04T15:01:55Z</time>
      </trkpt>
      <trkpt lat="44.82419" lon="1.5494">
        <ele>114.189</ele>
        <time>2015-08-04T15:02:15Z</time>
      </trkpt>
      <trkpt lat="44.8236" lon="1.54848">
        <ele>112.534</ele>
        <time>2015-08-04T15:02:35Z</time>
      </trkpt>
      <trkpt lat="44.82339" lon="1.54827">
        <ele>113.255</ele>
        <time>2015-08-04T15:02:55Z</time>
      </trkpt>
      <trkpt lat="44.82295" lon="1.54799">
        <ele>116.01</ele>
        <time>2015-08-04T15:03:15Z</time>
      </trkpt>
      <trkpt lat="44.82261" lon="1.54763">
        <ele>114.008</ele>
        <time>2015-08-04T15:03:35Z</time>
      </trkpt>
      <trkpt lat="44.82245" lon="1.54755">
        <ele>112.879</ele>
        <time>2015-08-04T15:03:55Z</time>
      </trkpt>
      <trkpt lat="44.82224" lon="1.54755">
        <ele>112.674</ele>
        <time>2015-08-04T15:04:15Z</time>
      </trkpt>
      <trkpt lat="44.82198" lon="1.54771">
        <ele>110.864</ele>
        <time>2015-08-04T15:04:35Z</time>
      </trkpt>
      <trkpt lat="44.82176" lon="1.54806">
        <ele>109.386</ele>
        <time>2015-08-04T15:04:55Z</time>
      </trkpt>
      <trkpt lat="44.8216" lon="1.54912">
        <ele>108.568</ele>
        <time>2015-08-04T15:05:15Z</time>
      </trkpt>
      <trkpt lat="44.82153" lon="1.5504">
        <ele>118.699</ele>
        <time>2015-08-04T15:05:35Z</time>
      </trkpt>
      <trkpt lat="44.82101" lon="1.55184">
        <ele>114.185</ele>
        <time>2015-08-04T15:05:55Z</time>
      </trkpt>
      <trkpt lat="44.82004" lon="1.55304">
        <ele>122.147</ele>
        <time>2015-08-04T15:06:15Z</time>
      </trkpt>
      <trkpt lat="44.81926" lon="1.55319">
        <ele>114.899</ele>
        <time>2015-08-04T15:06:35Z</time>
      </trkpt>
      <trkpt lat="44.81848" lon="1.55341">
        <ele>112.007</ele>
        <time>2015-08-04T15:06:55Z</time>
      </trkpt>
      <trkpt lat="44.8182" lon="1.55361">
        <ele>110.027</ele>
        <time>2015-08-04T15:07:15Z</time>
      </trkpt>
      <trkpt lat="44.81819" lon="1.55402">
        <ele>111.408</ele>
        <time>2015-08-04T15:07:35Z</time>
      </trkpt>
      <trkpt lat="44.81807" lon="1.5545">
        <ele>121.295</ele>
        <time>2015-08-04T15:07:55Z</time>
      </trkpt>
      <trkpt lat="44.81761" lon="1.55485">
        <ele>119.04</ele>
        <time>2015-08-04T15:08:15Z</time>
      </trkpt>
      <trkpt lat="44.81707" lon="1.55516">
        <ele>119.47</ele>
        <time>2015-08-04T15:08:35Z</time>
      </trkpt>
      <trkpt lat="44.81676" lon="1.55525">
        <ele>118.072</ele>
        <time>2015-08-04T15:08:55Z</time>
      </trkpt>
      <trkpt lat="44.81624" lon="1.55527">
        <ele>120.424</ele>
        <time>2015-08-04T15:09:15Z</time>
      </trkpt>
      <trkpt lat="44.81582" lon="1.55512">
        <ele>117.815</ele>
        <time>2015-08-04T15:09:35Z</time>
      </trkpt>
      <trkpt lat="44.81563" lon="1.55489">
        <ele>112.721</ele>
        <time>2015-08-04T15:09:55Z</time>
      </trkpt>
      <trkpt lat="44.81543" lon="1.55476">
        <ele>113.063</ele>
        <time>2015-08-04T15:10:15Z</time>
      </trkpt>
      <trkpt lat="44.81496" lon="1.55474">
        <ele>112.765</ele>
        <time>2015-08-04T15:10:35Z</time>
      </trkpt>
      <trkpt lat="44.81444" lon="1.55507">
        <ele>109.568</ele>
        <time>2015-08-04T15:10:55Z</time>
      </trkpt>
      <trkpt lat="44.81421" lon="1.55552">
        <ele>112.814</ele>
        <time>2015-08-04T15:11:15Z</time>
      </trkpt>
      <trkpt lat="44.81381" lon="1.55764">
        <ele>111.008</ele>
        <time>2015-08-04T15:11:35Z</time>
      </trkpt>
      <trkpt lat="44.81333" lon="1.55894">
        <ele>108.512</ele>
        <time>2015-08-04T15:11:55Z</time>
      </trkpt>
      <trkpt lat="44.81296" lon="1.55969">
        <ele>112.277</ele>
        <time>2015-08-04T15:12:15Z</time>
      </trkpt>
      <trkpt lat="44.81217" lon="1.56043">
        <ele>113.757</ele>
        <time>2015-08-04T15:12:35Z</time>
      </trkpt>
      <trkpt lat="44.81188" lon="1.56078">
        <ele>117.659</ele>
        <time>2015-08-04T15:12:55Z</time>
      </trkpt>
      <trkpt lat="44.81166" lon="1.56087">
        <ele>119.481</ele>
        <time>2015-08-04T15:13:15Z</time>
      </trkpt>
      <trkpt lat="44.81149" lon="1.56077">
        <ele>118.212</ele>
        <time>2015-08-04T15:13:35Z</time>
      </trkpt>
      <trkpt lat="44.8111" lon="1.56108">
        <ele>120.218</ele>
        <time>2015-08-04T15:13:55Z</time>
      </trkpt>
      <trkpt lat="44.81082" lon="1.56099">
        <ele>117.56</ele>
        <time>2015-08-04T15:14:15Z</time>
      </trkpt>
      <trkpt lat="44.80976" lon="1.55983">
        <ele>112.473</ele>
        <time>2015-08-04T15:14:35Z</time>
      </trkpt>
      <trkpt lat="44.80948" lon="1.55972">
        <ele>113.685</ele>
        <time>2015-08-04T15:14:55Z</time>
      </trkpt>
      <trkpt lat="44.80919" lon="1.55985">
        <ele>114.113</ele>
        <time>2015-08-04T15:15:15Z</time>
      </trkpt>
      <trkpt lat="44.80904" lon="1.56024">
        <ele>114.408</ele>
        <time>2015-08-04T15:15:35Z</time>
      </trkpt>
      <trkpt lat="44.80887" lon="1.56108">
        <ele>113.763</ele>
        <time>2015-08-04T15:15:55Z</time>
      </trkpt>
      <trkpt lat="44.80898" lon="1.56211">
        <ele>123.228</ele>
        <time>2015-08-04T15:16:15Z</time>
      </trkpt>
      <trkpt lat="44.80891" lon="1.56267">
        <ele>119.998</ele>
        <time>2015-08-04T15:16:35Z</time>
      </trkpt>
      <trkpt lat="44.80875" lon="1.56311">
        <ele>124.54</ele>
        <time>2015-08-04T15:16:55Z</time>
      </trkpt>
      <trkpt lat="44.8083" lon="1.56352">
        <ele>132.882</ele>
        <time>2015-08-04T15:17:15Z</time>
      </trkpt>
      <trkpt lat="44.80797" lon="1.56351">
        <ele>132.463</ele>
        <time>2015-08-04T15:17:35Z</time>
      </trkpt>
      <trkpt lat="44.80746" lon="1.56315">
        <ele>125.539</ele>
        <time>2015-08-04T15:17:55Z</time>
      </trkpt>
      <trkpt lat="44.807" lon="1.56232">
        <ele>126.021</ele>
        <time>2015-08-04T15:18:15Z</time>
      </trkpt>
      <trkpt lat="44.80654" lon="1.56063">
        <ele>122.139</ele>
        <time>2015-08-04T15:18:35Z</time>
      </trkpt>
      <trkpt lat="44.80607" lon="1.56004">
        <ele>117.101</ele>
        <time>2015-08-04T15:18:55Z</time>
      </trkpt>
      <trkpt lat="44.8055" lon="1.55904">
        <ele>110.721</ele>
        <time>2015-08-04T15:19:15Z</time>
      </trkpt>
      <trkpt lat="44.80454" lon="1.5578">
        <ele>108.208</ele>
        <time>2015-08-04T15:19:35Z</time>
      </trkpt>
      <trkpt lat="44.80393" lon="1.5575">
        <ele>110.099</ele>
        <time>2015-08-04T15:19:55Z</time>
      </trkpt>
      <trkpt lat="44.80297" lon="1.55829">
        <ele>117.654</ele>
        <time>2015-08-04T15:20:15Z</time>
      </trkpt>
      <trkpt lat="44.80115" lon="1.55963">
        <ele>114.914</ele>
        <time>2015-08-04T15:20:35Z</time>
      </trkpt>
      <trkpt lat="44.80053" lon="1.55986">
        <ele>112.716</ele>
        <time>2015-08-04T15:20:55Z</time>
      </trkpt>
      <trkpt lat="44.80037" lon="1.56008">
        <ele>111.988</ele>
        <time>2015-08-04T15:21:15Z</time>
      </trkpt>
      <trkpt lat="44.8001" lon="1.56016">
        <ele>109.539</ele>
        <time>2015-08-04T15:21:35Z</time>
      </trkpt>
      <trkpt lat="44.79988" lon="1.56071">
        <ele>110.725</ele>
        <time>2015-08-04T15:21:55Z</time>
      </trkpt>
      <trkpt lat="44.79966" lon="1.56088">
        <ele>110.097</ele>
        <time>2015-08-04T15:22:15Z</time>
      </trkpt>
      <trkpt lat="44.79924" lon="1.56018">
        <ele>107.064</ele>
        <time>2015-08-04T15:22:35Z</time>
      </trkpt>
      <trkpt lat="44.79906" lon="1.56029">
        <ele>107.806</ele>
        <time>2015-08-04T15:22:55Z</time>
      </trkpt>
      <trkpt lat="44.79881" lon="1.56067">
        <ele>110.716</ele>
        <time>2015-08-04T15:23:15Z</time>
      </trkpt>
      <trkpt lat="44.79833" lon="1.56124">
        <ele>112.308</ele>
        <time>2015-08-04T15:23:35Z</time>
      </trkpt>
      <trkpt lat="44.79798" lon="1.56147">
        <ele>114.212</ele>
        <time>2015-08-04T15:23:55Z</time>
      </trkpt>
      <trkpt lat="44.79742" lon="1.56247">
        <ele>113.627</ele>
        <time>2015-08-04T15:24:15Z</time>
      </trkpt>
      <trkpt lat="44.79739" lon="1.56285">
        <ele>116.457</ele>
        <time>2015-08-04T15:24:35Z</time>
      </trkpt>
      <trkpt lat="44.79707" lon="1.56347">
        <ele>119.069</ele>
        <time>2015-08-04T15:24:55Z</time>
      </trkpt>
      <trkpt lat="44.79642" lon="1.56436">
        <ele>122.511</ele>
        <time>2015-08-04T15:25:15Z</time>
      </trkpt>
      <trkpt lat="44.7961" lon="1.56458">
        <ele>119.282</ele>
        <time>2015-08-04T15:25:35Z</time>
      </trkpt>
      <trkpt lat="44.7959" lon="1.56487">
        <ele>118.388</ele>
        <time>2015-08-04T15:25:55Z</time>
      </trkpt>
      <trkpt lat="44.79574" lon="1.56522">
        <ele>120.48</ele>
        <time>2015-08-04T15:26:15Z</time>
      </trkpt>
      <trkpt lat="44.7955" lon="1.56558">
        <ele>122.952</ele>
        <time>2015-08-04T15:26:35Z</time>
      </trkpt>
      <trkpt lat="44.7953" lon="1.56575">
        <ele>122.253</ele>
        <time>2015-08-04T15:26:55Z</time>
      </trkpt>
      <trkpt lat="44.79489" lon="1.5659">
        <ele>120.208</ele>
        <time>2015-08-04T15:27:15Z</time>
      </trkpt>
      <trkpt lat="44.79469" lon="1.56624">
        <ele>121.808</ele>
        <time>2015-08-04T15:27:35Z</time>
      </trkpt>
      <trkpt lat="44.79464" lon="1.56652">
        <ele>122.911</ele>
        <time>2015-08-04T15:27:55Z</time>
      </trkpt>
      <trkpt lat="44.79472" lon="1.5669">
        <ele>124.276</ele>
        <time>2015-08-04T15:28:15Z</time>
      </trkpt>
      <trkpt lat="44.79583" lon="1.56823">
        <ele>140.376</ele>
        <time>2015-08-04T15:28:35Z</time>
      </trkpt>
      <trkpt lat="44.79599" lon="1.56901">
        <ele>140.368</ele>
        <time>2015-08-04T15:28:55Z</time>
      </trkpt>
      <trkpt lat="44.79592" lon="1.56942">
        <ele>136.25</ele>
        <time>2015-08-04T15:29:15Z</time>
      </trkpt>
      <trkpt lat="44.79588" lon="1.56976">
        <ele>138.181</ele>
        <time>2015-08-04T15:29:35Z</time>
      </trkpt>
      <trkpt lat="44.79523" lon="1.57063">
        <ele>128.167</ele>
        <time>2015-08-04T15:29:55Z</time>
      </trkpt>
      <trkpt lat="44.79468" lon="1.57143">
        <ele>128.089</ele>
        <time>2015-08-04T15:30:15Z</time>
      </trkpt>
      <trkpt lat="44.79422" lon="1.57194">
        <ele>129.167</ele>
        <time>2015-08-04T15:30:35Z</time>
      </trkpt>
      <trkpt lat="44.79407" lon="1.57206">
        <ele>127.181</ele>
        <time>2015-08-04T15:30:55Z</time>
      </trkpt>
      <trkpt lat="44.79372" lon="1.57265">
        <ele>125.119</ele>
        <time>2015-08-04T15:31:15Z</time>
      </trkpt>
      <trkpt lat="44.79366" lon="1.5729">
        <ele>126.708</ele>
        <time>2015-08-04T15:31:35Z</time>
      </trkpt>
      <trkpt lat="44.79335" lon="1.57353">
        <ele>122.172</ele>
        <time>2015-08-04T15:31:55Z</time>
      </trkpt>
      <trkpt lat="44.79323" lon="1.5742">
        <ele>124.857</ele>
        <time>2015-08-04T15:32:15Z</time>
      </trkpt>
      <trkpt lat="44.79202" lon="1.57605">
        <ele>128.787</ele>
        <time>2015-08-04T15:32:35Z</time>
      </trkpt>
      <trkpt lat="44.79181" lon="1.57665">
        <ele>132.049</ele>
        <time>2015-08-04T15:32:55Z</time>
      </trkpt>
      <trkpt lat="44.79159" lon="1.57778">
        <ele>138.061</ele>
        <time>2015-08-04T15:33:15Z</time>
      </trkpt>
      <trkpt lat="44.79143" lon="1.57811">
        <ele>137.112</ele>
        <time>2015-08-04T15:33:35Z</time>
      </trkpt>
      <trkpt lat="44.7913" lon="1.57857">
        <ele>134.828</ele>
        <time>2015-08-04T15:33:55Z</time>
      </trkpt>
      <trkpt lat="44.79133" lon="1.57934">
        <ele>135.43</ele>
        <time>2015-08-04T15:34:15Z</time>
      </trkpt>
      <trkpt lat="44.79142" lon="1.58014">
        <ele>135.561</ele>
        <time>2015-08-04T15:34:35Z</time>
      </trkpt>
      <trkpt lat="44.79141" lon="1.58096">
        <ele>130.321</ele>
        <time>2015-08-04T15:34:55Z</time>
      </trkpt>
      <trkpt lat="44.79165" lon="1.58226">
        <ele>128.213</ele>
        <time>2015-08-04T15:35:15Z</time>
      </trkpt>
      <trkpt lat="44.79188" lon="1.58242">
        <ele>134.708</ele>
        <time>2015-08-04T15:35:35Z</time>
      </trkpt>
      <trkpt lat="44.79192" lon="1.58263">
        <ele>137.072</ele>
        <time>2015-08-04T15:35:55Z</time>
      </trkpt>
      <trkpt lat="44.79174" lon="1.5831">
        <ele>134.747</ele>
        <time>2015-08-04T15:36:15Z</time>
      </trkpt>
      <trkpt lat="44.79169" lon="1.58348">
        <ele>135.797</ele>
        <time>2015-08-04T15:36:35Z</time>
      </trkpt>
      <trkpt lat="44.79177" lon="1.58435">
        <ele>137.389</ele>
        <time>2015-08-04T15:36:55Z</time>
      </trkpt>
      <trkpt lat="44.792" lon="1.58523">
        <ele>138.891</ele>
        <time>2015-08-04T15:37:15Z</time>
      </trkpt>
      <trkpt lat="44.79232" lon="1.58588">
        <ele>142.042</ele>
        <time>2015-08-04T15:37:35Z</time>
      </trkpt>
      <trkpt lat="44.79245" lon="1.5863">
        <ele>141.878</ele>
        <time>2015-08-04T15:37:55Z</time>
      </trkpt>
      <trkpt lat="44.7926" lon="1.58722">
        <ele>142.14</ele>
        <time>2015-08-04T15:38:15Z</time>
      </trkpt>
      <trkpt lat="44.79273" lon="1.58853">
        <ele>149.336</ele>
        <time>2015-08-04T15:38:35Z</time>
      </trkpt>
      <trkpt lat="44.79274" lon="1.58953">
        <ele>148.517</ele>
        <time>2015-08-04T15:38:55Z</time>
      </trkpt>
      <trkpt lat="44.79283" lon="1.59021">
        <ele>154.518</ele>
        <time>2015-08-04T15:39:15Z</time>
      </trkpt>
      <trkpt lat="44.79276" lon="1.59102">
        <ele>155.308</ele>
        <time>2015-08-04T15:39:35Z</time>
      </trkpt>
      <trkpt lat="44.79286" lon="1.59154">
        <ele>155.269</ele>
        <time>2015-08-04T15:39:55Z</time>
      </trkpt>
      <trkpt lat="44.79263" lon="1.59252">
        <ele>156.274</ele>
        <time>2015-08-04T15:40:15Z</time>
      </trkpt>
      <trkpt lat="44.79258" lon="1.59325">
        <ele>155.094</ele>
        <time>2015-08-04T15:40:35Z</time>
      </trkpt>
      <trkpt lat="44.79267" lon="1.59416">
        <ele>156.576</ele>
        <time>2015-08-04T15:40:55Z</time>
      </trkpt>
      <trkpt lat="44.79318" lon="1.59539">
        <ele>149.428</ele>
        <time>2015-08-04T15:41:15Z</time>
      </trkpt>
      <trkpt lat="44.79353" lon="1.59579">
        <ele>143.119</ele>
        <time>2015-08-04T15:41:35Z</time>
      </trkpt>
      <trkpt lat="44.79412" lon="1.59623">
        <ele>140.655</ele>
        <time>2015-08-04T15:41:55Z</time>
      </trkpt>
      <trkpt lat="44.79458" lon="1.59574">
        <ele>138.557</ele>
        <time>2015-08-04T15:42:15Z</time>
      </trkpt>
      <trkpt lat="44.79516" lon="1.59605">
        <ele>145.553</ele>
        <time>2015-08-04T15:42:35Z</time>
      </trkpt>
      <trkpt lat="44.79567" lon="1.59648">
        <ele>148.604</ele>
        <time>2015-08-04T15:42:55Z</time>
      </trkpt>
      <trkpt lat="44.79619" lon="1.59712">
        <ele>155.214</ele>
        <time>2015-08-04T15:43:15Z</time>
      </trkpt>
      <trkpt lat="44.79626" lon="1.59782">
        <ele>150.408</ele>
        <time>2015-08-04T15:43:35Z</time>
      </trkpt>
      <trkpt lat="44.79598" lon="1.59869">
        <ele>148.581</ele>
        <time>2015-08-04T15:43:55Z</time>
      </trkpt>
      <trkpt lat="44.79519" lon="1.59932">
        <ele>147.716</ele>
        <time>2015-08-04T15:44:15Z</time>
      </trkpt>
      <trkpt lat="44.79469" lon="1.59959">
        <ele>139.496</ele>
        <time>2015-08-04T15:44:35Z</time>
      </trkpt>
      <trkpt lat="44.79453" lon="1.5998">
        <ele>138.228</ele>
        <time>2015-08-04T15:44:55Z</time>
      </trkpt>
      <trkpt lat="44.79434" lon="1.60024">
        <ele>137.83</ele>
        <time>2015-08-04T15:45:15Z</time>
      </trkpt>
      <trkpt lat="44.79428" lon="1.60115">
        <ele>141.731</ele>
        <time>2015-08-04T15:45:35Z</time>
      </trkpt>
      <trkpt lat="44.79452" lon="1.6015">
        <ele>140.677</ele>
        <time>2015-08-04T15:45:55Z</time>
      </trkpt>
      <trkpt lat="44.79504" lon="1.60268">
        <ele>140.279</ele>
        <time>2015-08-04T15:46:15Z</time>
      </trkpt>
      <trkpt lat="44.79567" lon="1.60378">
        <ele>146.634</ele>
        <time>2015-08-04T15:46:35Z</time>
      </trkpt>
      <trkpt lat="44.79579" lon="1.60428">
        <ele>143.555</ele>
        <time>2015-08-04T15:46:55Z</time>
      </trkpt>
      <trkpt lat="44.79562" lon="1.60513">
        <ele>139.71</ele>
        <time>2015-08-04T15:47:15Z</time>
      </trkpt>
      <trkpt lat="44.79509" lon="1.60631">
        <ele>140.508</ele>
        <time>2015-08-04T15:47:35Z</time>
      </trkpt>
      <trkpt lat="44.79493" lon="1.60699">
        <ele>138.999</ele>
        <time>2015-08-04T15:47:55Z</time>
      </trkpt>
      <trkpt lat="44.79497" lon="1.60751">
        <ele>136.754</ele>
        <time>2015-08-04T15:48:15Z</time>
      </trkpt>
      <trkpt lat="44.79517" lon="1.60788">
        <ele>138.684</ele>
        <time>2015-08-04T15:48:35Z</time>
      </trkpt>
      <trkpt lat="44.79593" lon="1.60853">
        <ele>149.036</ele>
        <time>2015-08-04T15:48:55Z</time>
      </trkpt>
      <trkpt lat="44.79657" lon="1.60925">
        <ele>148.798</ele>
        <time>2015-08-04T15:49:15Z</time>
      </trkpt>
      <trkpt lat="44.79718" lon="1.61009">
        <ele>148.719</ele>
        <time>2015-08-04T15:49:35Z</time>
      </trkpt>
      <trkpt lat="44.79724" lon="1.61041">
        <ele>146.265</ele>
        <time>2015-08-04T15:49:55Z</time>
      </trkpt>
      <trkpt lat="44.79685" lon="1.61231">
        <ele>143.477</ele>
        <time>2015-08-04T15:50:15Z</time>
      </trkpt>
      <trkpt lat="44.79651" lon="1.61285">
        <ele>143.053</ele>
        <time>2015-08-04T15:50:35Z</time>
      </trkpt>
      <trkpt lat="44.79627" lon="1.61344">
        <ele>143.604</ele>
        <time>2015-08-04T15:50:55Z</time>
      </trkpt>
      <trkpt lat="44.79616" lon="1.61407">
        <ele>142.814</ele>
        <time>2015-08-04T15:51:15Z</time>
      </trkpt>
      <trkpt lat="44.79638" lon="1.61479">
        <ele>147.108</ele>
        <time>2015-08-04T15:51:35Z</time>
      </trkpt>
      <trkpt lat="44.7972" lon="1.61699">
        <ele>140.331</ele>
        <time>2015-08-04T15:51:55Z</time>
      </trkpt>
      <trkpt lat="44.79854" lon="1.61852">
        <ele>142.636</ele>
        <time>2015-08-04T15:52:15Z</time>
      </trkpt>
      <trkpt lat="44.79929" lon="1.61877">
        <ele>154.826</ele>
        <time>2015-08-04T15:52:35Z</time>
      </trkpt>
      <trkpt lat="44.79929" lon="1.61877">
        <ele>154.826</ele>
        <time>2015-08-04T15:52:35Z</time>
      </trkpt>
      <trkpt lat="44.79963" lon="1.61909">
        <ele>150.818</ele>
        <time>2015-08-04T15:52:55Z</time>
      </trkpt>
      <trkpt lat="44.79988" lon="1.61917">
        <ele>149.66</ele>
        <time>2015-08-04T15:53:15Z</time>
      </trkpt>
      <trkpt lat="44.80058" lon="1.61953">
        <ele>155.691</ele>
        <time>2015-08-04T15:53:35Z</time>
      </trkpt>
      <trkpt lat="44.80085" lon="1.62008">
        <ele>148.417</ele>
        <time>2015-08-04T15:53:55Z</time>
      </trkpt>
      <trkpt lat="44.80133" lon="1.62068">
        <ele>153.179</ele>
        <time>2015-08-04T15:54:15Z</time>
      </trkpt>
      <trkpt lat="44.80178" lon="1.62138">
        <ele>151.428</ele>
        <time>2015-08-04T15:54:35Z</time>
      </trkpt>
      <trkpt lat="44.80204" lon="1.62241">
        <ele>143.389</ele>
        <time>2015-08-04T15:54:55Z</time>
      </trkpt>
      <trkpt lat="44.80224" lon="1.62269">
        <ele>145.917</ele>
        <time>2015-08-04T15:55:15Z</time>
      </trkpt>
      <trkpt lat="44.80248" lon="1.62281">
        <ele>150.208</ele>
        <time>2015-08-04T15:55:35Z</time>
      </trkpt>
      <trkpt lat="44.80247" lon="1.62235">
        <ele>159</ele>
      </trkpt>
      <trkpt lat="44.80142" lon="1.61971">
        <ele>181.2</ele>
      </trkpt>
      <trkpt lat="44.80259" lon="1.62106">
        <ele>197.3</ele>
      </trkpt>
      <trkpt lat="44.80369" lon="1.62289">
        <ele>214.5</ele>
      </trkpt>
      <trkpt lat="44.80408" lon="1.62381">
        <ele>228.6</ele>
      </trkpt>
      <trkpt lat="44.80411" lon="1.62514">
        <ele>237.4</ele>
      </trkpt>
      <trkpt lat="44.80408" lon="1.62617">
        <ele>249.5</ele>
      </trkpt>
      <trkpt lat="44.80392" lon="1.62675">
        <ele>252.1</ele>
      </trkpt>
      <trkpt lat="44.80401" lon="1.62718">
        <ele>256</ele>
      </trkpt>
      <trkpt lat="44.80454" lon="1.62711">
        <ele>257.5</ele>
      </trkpt>
      <trkpt lat="44.80452" lon="1.62791">
        <ele>257.4</ele>
      </trkpt>
    </trkseg>
  </trk>
  <trk>
    <name><![CDATA[Gramat]]></name>
    <trkseg>
      <trkpt lat="44.80443" lon="1.62768">
        <ele>257.7</ele>
      </trkpt>
      <trkpt lat="44.80443" lon="1.62768">
        <ele>257.7</ele>
      </trkpt>
      <trkpt lat="44.80443" lon="1.62768">
        <ele>257.7</ele>
      </trkpt>
      <trkpt lat="44.80443" lon="1.62768">
        <ele>257.7</ele>
      </trkpt>
      <trkpt lat="44.80443" lon="1.62768">
        <ele>257.7</ele>
      </trkpt>
      <trkpt lat="44.80443" lon="1.62768">
        <ele>257.7</ele>
      </trkpt>
      <trkpt lat="44.80443" lon="1.62768">
        <ele>257.7</ele>
      </trkpt>
      <trkpt lat="44.80444" lon="1.62721">
        <ele>257.4</ele>
      </trkpt>
      <trkpt lat="44.80397" lon="1.62725">
        <ele>256.2</ele>
      </trkpt>
      <trkpt lat="44.80391" lon="1.62671">
        <ele>251.8</ele>
      </trkpt>
      <trkpt lat="44.80399" lon="1.62611">
        <ele>246.2</ele>
      </trkpt>
      <trkpt lat="44.80402" lon="1.62391">
        <ele>225.1</ele>
      </trkpt>
      <trkpt lat="44.80361" lon="1.62284">
        <ele>211.5</ele>
      </trkpt>
      <trkpt lat="44.80246" lon="1.62095">
        <ele>193.1</ele>
      </trkpt>
      <trkpt lat="44.80193" lon="1.62022">
        <ele>190.2</ele>
      </trkpt>
      <trkpt lat="44.80248" lon="1.62281">
        <ele>150.208</ele>
        <time>2015-08-04T15:55:35Z</time>
      </trkpt>
      <trkpt lat="44.80255" lon="1.62367">
        <ele>149.628</ele>
        <time>2015-08-04T15:55:55Z</time>
      </trkpt>
      <trkpt lat="44.80238" lon="1.62426">
        <ele>146.613</ele>
        <time>2015-08-04T15:56:15Z</time>
      </trkpt>
      <trkpt lat="44.80174" lon="1.62506">
        <ele>146.663</ele>
        <time>2015-08-04T15:56:35Z</time>
      </trkpt>
      <trkpt lat="44.80125" lon="1.62584">
        <ele>147.675</ele>
        <time>2015-08-04T15:56:55Z</time>
      </trkpt>
      <trkpt lat="44.80098" lon="1.62675">
        <ele>150.767</ele>
        <time>2015-08-04T15:57:15Z</time>
      </trkpt>
      <trkpt lat="44.80074" lon="1.62905">
        <ele>153.348</ele>
        <time>2015-08-04T15:57:35Z</time>
      </trkpt>
      <trkpt lat="44.8005" lon="1.63003">
        <ele>151.154</ele>
        <time>2015-08-04T15:57:55Z</time>
      </trkpt>
      <trkpt lat="44.8001" lon="1.6313">
        <ele>150.016</ele>
        <time>2015-08-04T15:58:15Z</time>
      </trkpt>
      <trkpt lat="44.79976" lon="1.63193">
        <ele>145.798</ele>
        <time>2015-08-04T15:58:35Z</time>
      </trkpt>
      <trkpt lat="44.79977" lon="1.63237">
        <ele>147.915</ele>
        <time>2015-08-04T15:58:55Z</time>
      </trkpt>
      <trkpt lat="44.79962" lon="1.63293">
        <ele>151.226</ele>
        <time>2015-08-04T15:59:15Z</time>
      </trkpt>
      <trkpt lat="44.79938" lon="1.63459">
        <ele>154.108</ele>
        <time>2015-08-04T15:59:35Z</time>
      </trkpt>
      <trkpt lat="44.7991" lon="1.63558">
        <ele>155.315</ele>
        <time>2015-08-04T15:59:55Z</time>
      </trkpt>
      <trkpt lat="44.79879" lon="1.63586">
        <ele>152.53</ele>
        <time>2015-08-04T16:00:15Z</time>
      </trkpt>
      <trkpt lat="44.79823" lon="1.63614">
        <ele>152.14</ele>
        <time>2015-08-04T16:00:35Z</time>
      </trkpt>
      <trkpt lat="44.79774" lon="1.63617">
        <ele>157.212</ele>
        <time>2015-08-04T16:00:55Z</time>
      </trkpt>
      <trkpt lat="44.79726" lon="1.6359">
        <ele>150.654</ele>
        <time>2015-08-04T16:01:15Z</time>
      </trkpt>
      <trkpt lat="44.79681" lon="1.63581">
        <ele>151.025</ele>
        <time>2015-08-04T16:01:35Z</time>
      </trkpt>
      <trkpt lat="44.79614" lon="1.63621">
        <ele>151.471</ele>
        <time>2015-08-04T16:01:55Z</time>
      </trkpt>
      <trkpt lat="44.79574" lon="1.63684">
        <ele>154.013</ele>
        <time>2015-08-04T16:02:15Z</time>
      </trkpt>
      <trkpt lat="44.79505" lon="1.63939">
        <ele>159.357</ele>
        <time>2015-08-04T16:02:35Z</time>
      </trkpt>
      <trkpt lat="44.79473" lon="1.6401">
        <ele>152.6</ele>
        <time>2015-08-04T16:02:55Z</time>
      </trkpt>
      <trkpt lat="44.79474" lon="1.64066">
        <ele>153.82</ele>
        <time>2015-08-04T16:03:15Z</time>
      </trkpt>
      <trkpt lat="44.79498" lon="1.6416">
        <ele>157.708</ele>
        <time>2015-08-04T16:03:35Z</time>
      </trkpt>
      <trkpt lat="44.79576" lon="1.64281">
        <ele>157.621</ele>
        <time>2015-08-04T16:03:55Z</time>
      </trkpt>
      <trkpt lat="44.79598" lon="1.64293">
        <ele>157.116</ele>
        <time>2015-08-04T16:04:15Z</time>
      </trkpt>
      <trkpt lat="44.79642" lon="1.64273">
        <ele>161.366</ele>
        <time>2015-08-04T16:04:35Z</time>
      </trkpt>
      <trkpt lat="44.79698" lon="1.6423">
        <ele>169.748</ele>
        <time>2015-08-04T16:04:55Z</time>
      </trkpt>
      <trkpt lat="44.79818" lon="1.64227">
        <ele>162.03</ele>
        <time>2015-08-04T16:05:15Z</time>
      </trkpt>
      <trkpt lat="44.79851" lon="1.64195">
        <ele>168.041</ele>
        <time>2015-08-04T16:05:35Z</time>
      </trkpt>
      <trkpt lat="44.79878" lon="1.64193">
        <ele>169.277</ele>
        <time>2015-08-04T16:05:55Z</time>
      </trkpt>
      <trkpt lat="44.79902" lon="1.64227">
        <ele>165.969</ele>
        <time>2015-08-04T16:06:15Z</time>
      </trkpt>
      <trkpt lat="44.79933" lon="1.64335">
        <ele>162.735</ele>
        <time>2015-08-04T16:06:35Z</time>
      </trkpt>
      <trkpt lat="44.79919" lon="1.6439">
        <ele>159.586</ele>
        <time>2015-08-04T16:06:55Z</time>
      </trkpt>
      <trkpt lat="44.79937" lon="1.64494">
        <ele>166.714</ele>
        <time>2015-08-04T16:07:15Z</time>
      </trkpt>
      <trkpt lat="44.79946" lon="1.64587">
        <ele>165.408</ele>
        <time>2015-08-04T16:07:35Z</time>
      </trkpt>
      <trkpt lat="44.79947" lon="1.64662">
        <ele>164.849</ele>
        <time>2015-08-04T16:07:55Z</time>
      </trkpt>
      <trkpt lat="44.79982" lon="1.64794">
        <ele>168.384</ele>
        <time>2020-03-06T20:35:17Z</time>
      </trkpt>
      <trkpt lat="44.79982" lon="1.64851">
        <ele>170.274</ele>
        <time>2020-03-06T20:35:37Z</time>
      </trkpt>
      <trkpt lat="44.79946" lon="1.64958">
        <ele>171.236</ele>
        <time>2020-03-06T20:35:57Z</time>
      </trkpt>
      <trkpt lat="44.79968" lon="1.65026">
        <ele>174.228</ele>
        <time>2020-03-06T20:36:17Z</time>
      </trkpt>
      <trkpt lat="44.79947" lon="1.65045">
        <ele>168.919</ele>
        <time>2020-03-06T20:36:37Z</time>
      </trkpt>
      <trkpt lat="44.79963" lon="1.65103">
        <ele>170.025</ele>
        <time>2020-03-06T20:36:57Z</time>
      </trkpt>
      <trkpt lat="44.7999" lon="1.65138">
        <ele>173.817</ele>
        <time>2020-03-06T20:37:17Z</time>
      </trkpt>
      <trkpt lat="44.79977" lon="1.65244">
        <ele>177.859</ele>
        <time>2020-03-06T20:37:37Z</time>
      </trkpt>
      <trkpt lat="44.79961" lon="1.65253">
        <ele>179.903</ele>
        <time>2020-03-06T20:37:57Z</time>
      </trkpt>
      <trkpt lat="44.79916" lon="1.6527">
        <ele>187.123</ele>
        <time>2015-08-04T16:11:15Z</time>
      </trkpt>
      <trkpt lat="44.79877" lon="1.65327">
        <ele>192.808</ele>
        <time>2020-03-06T20:38:37Z</time>
      </trkpt>
      <trkpt lat="44.79858" lon="1.65385">
        <ele>197.061</ele>
        <time>2020-03-06T20:38:57Z</time>
      </trkpt>
      <trkpt lat="44.79853" lon="1.65435">
        <ele>195.656</ele>
        <time>2020-03-06T20:39:17Z</time>
      </trkpt>
      <trkpt lat="44.7986" lon="1.65457">
        <ele>191.756</ele>
        <time>2020-03-06T20:39:37Z</time>
      </trkpt>
      <trkpt lat="44.79876" lon="1.65486">
        <ele>191.398</ele>
        <time>2020-03-06T20:39:57Z</time>
      </trkpt>
      <trkpt lat="44.79876" lon="1.6553">
        <ele>187.17</ele>
        <time>2020-03-06T20:40:17Z</time>
      </trkpt>
      <trkpt lat="44.79855" lon="1.65538">
        <ele>196.491</ele>
        <time>2020-03-06T20:40:37Z</time>
      </trkpt>
      <trkpt lat="44.79839" lon="1.65574">
        <ele>206.787</ele>
        <time>2020-03-06T20:40:57Z</time>
      </trkpt>
      <trkpt lat="44.79845" lon="1.65635">
        <ele>198.949</ele>
        <time>2020-03-06T20:41:17Z</time>
      </trkpt>
      <trkpt lat="44.79866" lon="1.65647">
        <ele>193.137</ele>
        <time>2020-03-06T20:41:37Z</time>
      </trkpt>
      <trkpt lat="44.79903" lon="1.65629">
        <ele>184.149</ele>
        <time>2020-03-06T20:41:57Z</time>
      </trkpt>
      <trkpt lat="44.79957" lon="1.65663">
        <ele>181.413</ele>
        <time>2020-03-06T20:42:17Z</time>
      </trkpt>
      <trkpt lat="44.80008" lon="1.65663">
        <ele>184.808</ele>
        <time>2020-03-06T20:42:37Z</time>
      </trkpt>
      <trkpt lat="44.80042" lon="1.65709">
        <ele>191.919</ele>
        <time>2020-03-06T20:42:57Z</time>
      </trkpt>
      <trkpt lat="44.80066" lon="1.65777">
        <ele>196.754</ele>
        <time>2020-03-06T20:43:17Z</time>
      </trkpt>
      <trkpt lat="44.80066" lon="1.65819">
        <ele>195.154</ele>
        <time>2020-03-06T20:43:37Z</time>
      </trkpt>
      <trkpt lat="44.80061" lon="1.65857">
        <ele>189.716</ele>
        <time>2020-03-06T20:43:57Z</time>
      </trkpt>
      <trkpt lat="44.80031" lon="1.65891">
        <ele>184.788</ele>
        <time>2020-03-06T20:44:17Z</time>
      </trkpt>
      <trkpt lat="44.80018" lon="1.65945">
        <ele>189.779</ele>
        <time>2020-03-06T20:44:37Z</time>
      </trkpt>
      <trkpt lat="44.79981" lon="1.65969">
        <ele>189.445</ele>
        <time>2020-03-06T20:44:57Z</time>
      </trkpt>
      <trkpt lat="44.79954" lon="1.66107">
        <ele>188.667</ele>
        <time>2020-03-06T20:45:17Z</time>
      </trkpt>
      <trkpt lat="44.7992" lon="1.66137">
        <ele>187.456</ele>
        <time>2020-03-06T20:45:37Z</time>
      </trkpt>
      <trkpt lat="44.79829" lon="1.66127">
        <ele>188.959</ele>
        <time>2020-03-06T20:45:57Z</time>
      </trkpt>
      <trkpt lat="44.79737" lon="1.66151">
        <ele>191.014</ele>
        <time>2020-03-06T20:46:17Z</time>
      </trkpt>
      <trkpt lat="44.79677" lon="1.66213">
        <ele>196.308</ele>
        <time>2020-03-06T20:46:37Z</time>
      </trkpt>
      <trkpt lat="44.79615" lon="1.66251">
        <ele>193.711</ele>
        <time>2020-03-06T20:46:57Z</time>
      </trkpt>
      <trkpt lat="44.79555" lon="1.66307">
        <ele>200.446</ele>
        <time>2020-03-06T20:47:17Z</time>
      </trkpt>
      <trkpt lat="44.795" lon="1.66327">
        <ele>194.026</ele>
        <time>2020-03-06T20:47:37Z</time>
      </trkpt>
      <trkpt lat="44.79474" lon="1.66333">
        <ele>196.848</ele>
        <time>2020-03-06T20:47:57Z</time>
      </trkpt>
      <trkpt lat="44.79437" lon="1.66431">
        <ele>199.19</ele>
        <time>2020-03-06T20:48:17Z</time>
      </trkpt>
      <trkpt lat="44.79397" lon="1.66511">
        <ele>201.941</ele>
        <time>2020-03-06T20:48:37Z</time>
      </trkpt>
      <trkpt lat="44.7938" lon="1.66638">
        <ele>200.367</ele>
        <time>2020-03-06T20:48:57Z</time>
      </trkpt>
      <trkpt lat="44.79427" lon="1.66732">
        <ele>204.549</ele>
        <time>2020-03-06T20:49:17Z</time>
      </trkpt>
      <trkpt lat="44.79409" lon="1.66814">
        <ele>200.467</ele>
        <time>2020-03-06T20:49:37Z</time>
      </trkpt>
      <trkpt lat="44.79357" lon="1.66912">
        <ele>200.381</ele>
        <time>2020-03-06T20:49:57Z</time>
      </trkpt>
      <trkpt lat="44.79279" lon="1.66988">
        <ele>203.619</ele>
        <time>2020-03-06T20:50:17Z</time>
      </trkpt>
      <trkpt lat="44.79203" lon="1.67038">
        <ele>209.508</ele>
        <time>2020-03-06T20:50:37Z</time>
      </trkpt>
      <trkpt lat="44.7914" lon="1.67017">
        <ele>216.492</ele>
        <time>2020-03-06T20:50:57Z</time>
      </trkpt>
      <trkpt lat="44.79141" lon="1.67045">
        <ele>223.277</ele>
        <time>2020-03-06T20:51:17Z</time>
      </trkpt>
      <trkpt lat="44.79118" lon="1.67041">
        <ele>231.967</ele>
        <time>2020-03-06T20:51:37Z</time>
      </trkpt>
      <trkpt lat="44.79124" lon="1.67072">
        <ele>236.869</ele>
        <time>2020-03-06T20:51:57Z</time>
      </trkpt>
      <trkpt lat="44.79089" lon="1.67053">
        <ele>250.071</ele>
        <time>2020-03-06T20:52:17Z</time>
      </trkpt>
      <trkpt lat="44.79092" lon="1.67003">
        <ele>242.812</ele>
        <time>2020-03-06T20:52:37Z</time>
      </trkpt>
      <trkpt lat="44.791" lon="1.66957">
        <ele>227.788</ele>
        <time>2020-03-06T20:52:57Z</time>
      </trkpt>
      <trkpt lat="44.79096" lon="1.66935">
        <ele>226.89</ele>
        <time>2020-03-06T20:53:17Z</time>
      </trkpt>
      <trkpt lat="44.791" lon="1.66902">
        <ele>223.394</ele>
        <time>2020-03-06T20:53:37Z</time>
      </trkpt>
      <trkpt lat="44.7907" lon="1.66889">
        <ele>232.857</ele>
        <time>2020-03-06T20:53:57Z</time>
      </trkpt>
      <trkpt lat="44.79039" lon="1.66907">
        <ele>240.522</ele>
        <time>2020-03-06T20:54:17Z</time>
      </trkpt>
      <trkpt lat="44.79009" lon="1.66961">
        <ele>238.408</ele>
        <time>2020-03-06T20:54:37Z</time>
      </trkpt>
      <trkpt lat="44.79" lon="1.67018">
        <ele>237.045</ele>
        <time>2020-03-06T20:54:57Z</time>
      </trkpt>
      <trkpt lat="44.79" lon="1.67065">
        <ele>240.16</ele>
        <time>2020-03-06T20:55:17Z</time>
      </trkpt>
      <trkpt lat="44.78982" lon="1.67156">
        <ele>243.56</ele>
        <time>2020-03-06T20:55:37Z</time>
      </trkpt>
      <trkpt lat="44.78984" lon="1.67222">
        <ele>243.362</ele>
        <time>2020-03-06T20:55:57Z</time>
      </trkpt>
      <trkpt lat="44.7897" lon="1.67254">
        <ele>241.894</ele>
        <time>2020-03-06T20:56:17Z</time>
      </trkpt>
      <trkpt lat="44.78964" lon="1.67325">
        <ele>247.545</ele>
        <time>2020-03-06T20:56:37Z</time>
      </trkpt>
      <trkpt lat="44.78948" lon="1.67343">
        <ele>248.481</ele>
        <time>2020-03-06T20:56:57Z</time>
      </trkpt>
      <trkpt lat="44.78937" lon="1.67398">
        <ele>251.293</ele>
        <time>2020-03-06T20:57:17Z</time>
      </trkpt>
      <trkpt lat="44.78918" lon="1.67436">
        <ele>256.613</ele>
        <time>2020-03-06T20:57:37Z</time>
      </trkpt>
      <trkpt lat="44.78928" lon="1.67458">
        <ele>253.943</ele>
        <time>2020-03-06T20:57:57Z</time>
      </trkpt>
      <trkpt lat="44.78915" lon="1.67469">
        <ele>257.507</ele>
        <time>2020-03-06T20:58:17Z</time>
      </trkpt>
      <trkpt lat="44.78906" lon="1.67452">
        <ele>259.808</ele>
        <time>2020-03-06T20:58:37Z</time>
      </trkpt>
      <trkpt lat="44.78883" lon="1.67451">
        <ele>265.827</ele>
        <time>2020-03-06T20:58:57Z</time>
      </trkpt>
      <trkpt lat="44.78907" lon="1.6738">
        <ele>263.952</ele>
        <time>2020-03-06T20:59:17Z</time>
      </trkpt>
      <trkpt lat="44.78909" lon="1.67332">
        <ele>268.612</ele>
        <time>2020-03-06T20:59:37Z</time>
      </trkpt>
      <trkpt lat="44.78887" lon="1.67357">
        <ele>272.694</ele>
        <time>2020-03-06T20:59:57Z</time>
      </trkpt>
      <trkpt lat="44.78872" lon="1.67354">
        <ele>273.856</ele>
        <time>2020-03-06T21:00:17Z</time>
      </trkpt>
      <trkpt lat="44.78867" lon="1.6734">
        <ele>275.377</ele>
        <time>2020-03-06T21:00:37Z</time>
      </trkpt>
      <trkpt lat="44.7881" lon="1.67344">
        <ele>280.093</ele>
        <time>2020-03-06T21:00:57Z</time>
      </trkpt>
      <trkpt lat="44.7879" lon="1.67361">
        <ele>281.125</ele>
        <time>2020-03-06T21:01:17Z</time>
      </trkpt>
      <trkpt lat="44.78781" lon="1.67381">
        <ele>281.859</ele>
        <time>2015-08-04T16:34:55Z</time>
      </trkpt>
      <trkpt lat="44.78782" lon="1.67469">
        <ele>284.203</ele>
        <time>2015-08-04T16:35:15Z</time>
      </trkpt>
      <trkpt lat="44.78772" lon="1.67535">
        <ele>288.523</ele>
        <time>2015-08-04T16:35:35Z</time>
      </trkpt>
      <trkpt lat="44.78717" lon="1.67663">
        <ele>296.108</ele>
        <time>2015-08-04T16:35:55Z</time>
      </trkpt>
      <trkpt lat="44.78718" lon="1.67759">
        <ele>297.741</ele>
        <time>2015-08-04T16:36:15Z</time>
      </trkpt>
      <trkpt lat="44.78734" lon="1.67825">
        <ele>301.346</ele>
        <time>2015-08-04T16:36:35Z</time>
      </trkpt>
      <trkpt lat="44.78688" lon="1.67945">
        <ele>306.836</ele>
        <time>2015-08-04T16:36:55Z</time>
      </trkpt>
      <trkpt lat="44.78681" lon="1.68002">
        <ele>308.738</ele>
        <time>2015-08-04T16:37:15Z</time>
      </trkpt>
      <trkpt lat="44.78693" lon="1.68072">
        <ele>312.61</ele>
        <time>2015-08-04T16:37:35Z</time>
      </trkpt>
      <trkpt lat="44.78666" lon="1.68178">
        <ele>312.431</ele>
        <time>2015-08-04T16:37:55Z</time>
      </trkpt>
      <trkpt lat="44.78662" lon="1.68303">
        <ele>316.177</ele>
        <time>2015-08-04T16:38:15Z</time>
      </trkpt>
      <trkpt lat="44.78638" lon="1.6842">
        <ele>318.949</ele>
        <time>2015-08-04T16:38:35Z</time>
      </trkpt>
      <trkpt lat="44.78593" lon="1.6852">
        <ele>319.649</ele>
        <time>2015-08-04T16:38:55Z</time>
      </trkpt>
      <trkpt lat="44.78492" lon="1.68622">
        <ele>320.202</ele>
        <time>2015-08-04T16:39:15Z</time>
      </trkpt>
      <trkpt lat="44.78457" lon="1.68681">
        <ele>319.722</ele>
        <time>2015-08-04T16:39:35Z</time>
      </trkpt>
      <trkpt lat="44.78417" lon="1.68674">
        <ele>318.308</ele>
        <time>2015-08-04T16:39:55Z</time>
      </trkpt>
      <trkpt lat="44.78386" lon="1.68691">
        <ele>316.57</ele>
        <time>2015-08-04T16:40:15Z</time>
      </trkpt>
      <trkpt lat="44.78355" lon="1.68689">
        <ele>313.415</ele>
        <time>2015-08-04T16:40:35Z</time>
      </trkpt>
      <trkpt lat="44.78338" lon="1.68698">
        <ele>312.495</ele>
        <time>2015-08-04T16:40:55Z</time>
      </trkpt>
      <trkpt lat="44.78346" lon="1.68753">
        <ele>313.317</ele>
        <time>2015-08-04T16:41:15Z</time>
      </trkpt>
      <trkpt lat="44.78367" lon="1.68812">
        <ele>312.669</ele>
        <time>2015-08-04T16:41:35Z</time>
      </trkpt>
      <trkpt lat="44.7835" lon="1.68871">
        <ele>312.55</ele>
        <time>2015-08-04T16:41:55Z</time>
      </trkpt>
      <trkpt lat="44.78291" lon="1.68922">
        <ele>306.896</ele>
        <time>2015-08-04T16:42:15Z</time>
      </trkpt>
      <trkpt lat="44.78259" lon="1.6894">
        <ele>305.438</ele>
        <time>2015-08-04T16:42:35Z</time>
      </trkpt>
      <trkpt lat="44.78251" lon="1.68959">
        <ele>305.022</ele>
        <time>2015-08-04T16:42:55Z</time>
      </trkpt>
      <trkpt lat="44.78231" lon="1.6898">
        <ele>303.662</ele>
        <time>2015-08-04T16:43:15Z</time>
      </trkpt>
      <trkpt lat="44.78205" lon="1.68986">
        <ele>301.808</ele>
        <time>2015-08-04T16:43:35Z</time>
      </trkpt>
      <trkpt lat="44.78192" lon="1.69008">
        <ele>300.908</ele>
        <time>2015-08-04T16:43:55Z</time>
      </trkpt>
      <trkpt lat="44.78179" lon="1.69095">
        <ele>299.638</ele>
        <time>2015-08-04T16:44:15Z</time>
      </trkpt>
      <trkpt lat="44.78189" lon="1.6921">
        <ele>302.483</ele>
        <time>2015-08-04T16:44:35Z</time>
      </trkpt>
      <trkpt lat="44.78187" lon="1.69248">
        <ele>303.623</ele>
        <time>2015-08-04T16:44:55Z</time>
      </trkpt>
      <trkpt lat="44.78178" lon="1.6928">
        <ele>304.435</ele>
        <time>2015-08-04T16:45:15Z</time>
      </trkpt>
      <trkpt lat="44.78094" lon="1.69437">
        <ele>302.957</ele>
        <time>2015-08-04T16:45:35Z</time>
      </trkpt>
      <trkpt lat="44.78089" lon="1.69504">
        <ele>300.628</ele>
        <time>2015-08-04T16:45:55Z</time>
      </trkpt>
      <trkpt lat="44.78034" lon="1.69626">
        <ele>300.894</ele>
        <time>2015-08-04T16:46:15Z</time>
      </trkpt>
      <trkpt lat="44.77971" lon="1.69752">
        <ele>301.956</ele>
        <time>2015-08-04T16:46:35Z</time>
      </trkpt>
      <trkpt lat="44.77945" lon="1.69854">
        <ele>302.715</ele>
        <time>2015-08-04T16:46:55Z</time>
      </trkpt>
      <trkpt lat="44.77903" lon="1.6996">
        <ele>302.065</ele>
        <time>2015-08-04T16:47:15Z</time>
      </trkpt>
      <trkpt lat="44.77858" lon="1.70009">
        <ele>304.811</ele>
        <time>2015-08-04T16:47:35Z</time>
      </trkpt>
      <trkpt lat="44.77855" lon="1.70071">
        <ele>305.308</ele>
        <time>2020-03-06T21:14:37Z</time>
      </trkpt>
      <trkpt lat="44.77871" lon="1.70108">
        <ele>307.297</ele>
        <time>2020-03-06T21:14:57Z</time>
      </trkpt>
      <trkpt lat="44.7788" lon="1.70151">
        <ele>309.382</ele>
        <time>2020-03-06T21:15:17Z</time>
      </trkpt>
      <trkpt lat="44.779" lon="1.70166">
        <ele>308.352</ele>
        <time>2020-03-06T21:15:37Z</time>
      </trkpt>
      <trkpt lat="44.77926" lon="1.70217">
        <ele>307.554</ele>
        <time>2020-03-06T21:15:57Z</time>
      </trkpt>
      <trkpt lat="44.77955" lon="1.70342">
        <ele>305.626</ele>
        <time>2020-03-06T21:16:17Z</time>
      </trkpt>
      <trkpt lat="44.77954" lon="1.70481">
        <ele>305.447</ele>
        <time>2020-03-06T21:16:37Z</time>
      </trkpt>
      <trkpt lat="44.77978" lon="1.70556">
        <ele>302.693</ele>
        <time>2020-03-06T21:16:57Z</time>
      </trkpt>
      <trkpt lat="44.7799" lon="1.7064">
        <ele>301.375</ele>
        <time>2020-03-06T21:17:17Z</time>
      </trkpt>
      <trkpt lat="44.77976" lon="1.70709">
        <ele>301.594</ele>
        <time>2020-03-06T21:17:37Z</time>
      </trkpt>
      <trkpt lat="44.77986" lon="1.70749">
        <ele>300.657</ele>
        <time>2020-03-06T21:17:57Z</time>
      </trkpt>
      <trkpt lat="44.78004" lon="1.70829">
        <ele>297.622</ele>
        <time>2020-03-06T21:18:17Z</time>
      </trkpt>
      <trkpt lat="44.78014" lon="1.70928">
        <ele>302.008</ele>
        <time>2020-03-06T21:18:37Z</time>
      </trkpt>
      <trkpt lat="44.7803" lon="1.7093">
        <ele>300.715</ele>
        <time>2020-03-06T21:18:57Z</time>
      </trkpt>
      <trkpt lat="44.7803" lon="1.70878">
        <ele>298.09</ele>
        <time>2020-03-06T21:19:17Z</time>
      </trkpt>
      <trkpt lat="44.78043" lon="1.70872">
        <ele>295.52</ele>
        <time>2020-03-06T21:19:37Z</time>
      </trkpt>
      <trkpt lat="44.78089" lon="1.70904">
        <ele>291.892</ele>
        <time>2020-03-06T21:19:57Z</time>
      </trkpt>
      <trkpt lat="44.78156" lon="1.70913">
        <ele>282.754</ele>
        <time>2020-03-06T21:20:17Z</time>
      </trkpt>
      <trkpt lat="44.78142" lon="1.70958">
        <ele>280.965</ele>
        <time>2020-03-06T21:20:37Z</time>
      </trkpt>
      <trkpt lat="44.78152" lon="1.71033">
        <ele>277.911</ele>
        <time>2020-03-06T21:20:57Z</time>
      </trkpt>
      <trkpt lat="44.78147" lon="1.71106">
        <ele>285.713</ele>
        <time>2020-03-06T21:21:17Z</time>
      </trkpt>
      <trkpt lat="44.78177" lon="1.71228">
        <ele>281.662</ele>
        <time>2020-03-06T21:21:37Z</time>
      </trkpt>
      <trkpt lat="44.78162" lon="1.71275">
        <ele>281.083</ele>
        <time>2020-03-06T21:21:57Z</time>
      </trkpt>
      <trkpt lat="44.78037" lon="1.71402">
        <ele>286.911</ele>
        <time>2020-03-06T21:22:17Z</time>
      </trkpt>
      <trkpt lat="44.78062" lon="1.71528">
        <ele>299.208</ele>
        <time>2020-03-06T21:22:37Z</time>
      </trkpt>
      <trkpt lat="44.78005" lon="1.71597">
        <ele>299.832</ele>
        <time>2020-03-06T21:22:57Z</time>
      </trkpt>
      <trkpt lat="44.77915" lon="1.71807">
        <ele>293.737</ele>
        <time>2020-03-06T21:23:17Z</time>
      </trkpt>
      <trkpt lat="44.77874" lon="1.71938">
        <ele>292.267</ele>
        <time>2020-03-06T21:23:37Z</time>
      </trkpt>
      <trkpt lat="44.77914" lon="1.7205">
        <ele>297.399</ele>
        <time>2020-03-06T21:23:57Z</time>
      </trkpt>
      <trkpt lat="44.77882" lon="1.7214">
        <ele>301.181</ele>
        <time>2020-03-06T21:24:17Z</time>
      </trkpt>
      <trkpt lat="44.77813" lon="1.72221">
        <ele>296.082</ele>
        <time>2020-03-06T21:24:37Z</time>
      </trkpt>
      <trkpt lat="44.77789" lon="1.72221">
        <ele>293.158</ele>
        <time>2020-03-06T21:24:57Z</time>
      </trkpt>
      <trkpt lat="44.77751" lon="1.72288">
        <ele>293.86</ele>
        <time>2020-03-06T21:25:17Z</time>
      </trkpt>
      <trkpt lat="44.77655" lon="1.72267">
        <ele>289.266</ele>
        <time>2020-03-06T21:25:37Z</time>
      </trkpt>
      <trkpt lat="44.7765" lon="1.72378">
        <ele>286.829</ele>
        <time>2020-03-06T21:25:57Z</time>
      </trkpt>
    </trkseg>
  </trk>
  <trk>
    <name><![CDATA[Thémines]]></name>
    <extensions>
      <line xmlns="http://www.topografix.com/GPX/gpx_style/0/2">
        <color>ff000d</color>
        <width>4</width>
      </line>
    </extensions>
    <trkseg>
      <trkpt lat="44.7765" lon="1.72378">
        <ele>286.829</ele>
        <time>2020-03-06T21:25:57Z</time>
      </trkpt>
      <trkpt lat="44.7765" lon="1.72378">
        <ele>286.829</ele>
        <time>2020-03-06T21:25:57Z</time>
      </trkpt>
      <trkpt lat="44.7765" lon="1.72378">
        <ele>286.829</ele>
        <time>2020-03-06T21:25:57Z</time>
      </trkpt>
      <trkpt lat="44.7765" lon="1.72378">
        <ele>286.829</ele>
        <time>2020-03-06T21:25:57Z</time>
      </trkpt>
      <trkpt lat="44.7765" lon="1.72378">
        <ele>286.829</ele>
        <time>2020-03-06T21:25:57Z</time>
      </trkpt>
      <trkpt lat="44.7765" lon="1.72378">
        <ele>286.829</ele>
        <time>2020-03-06T21:25:57Z</time>
      </trkpt>
      <trkpt lat="44.7765" lon="1.72378">
        <ele>286.829</ele>
        <time>2020-03-06T21:25:57Z</time>
      </trkpt>
      <trkpt lat="44.77663" lon="1.725">
        <ele>285.321</ele>
        <time>2020-03-06T21:26:17Z</time>
      </trkpt>
      <trkpt lat="44.77654" lon="1.72537">
        <ele>287.208</ele>
        <time>2020-03-06T21:26:37Z</time>
      </trkpt>
      <trkpt lat="44.77492" lon="1.7267">
        <ele>289.922</ele>
        <time>2020-03-06T21:26:57Z</time>
      </trkpt>
      <trkpt lat="44.77445" lon="1.72736">
        <ele>288.047</ele>
        <time>2020-03-06T21:27:17Z</time>
      </trkpt>
      <trkpt lat="44.77431" lon="1.72777">
        <ele>288.067</ele>
        <time>2020-03-06T21:27:37Z</time>
      </trkpt>
      <trkpt lat="44.77445" lon="1.72799">
        <ele>289.579</ele>
        <time>2020-03-06T21:27:57Z</time>
      </trkpt>
      <trkpt lat="44.77452" lon="1.7293">
        <ele>299.331</ele>
        <time>2020-03-06T21:28:17Z</time>
      </trkpt>
      <trkpt lat="44.77446" lon="1.73009">
        <ele>302.832</ele>
        <time>2020-03-06T21:28:37Z</time>
      </trkpt>
      <trkpt lat="44.77398" lon="1.73039">
        <ele>296.668</ele>
        <time>2020-03-06T21:28:57Z</time>
      </trkpt>
      <trkpt lat="44.7735" lon="1.73106">
        <ele>293.88</ele>
        <time>2020-03-06T21:29:17Z</time>
      </trkpt>
      <trkpt lat="44.77305" lon="1.73127">
        <ele>291.542</ele>
        <time>2020-03-06T21:29:37Z</time>
      </trkpt>
      <trkpt lat="44.7725" lon="1.73131">
        <ele>291.522</ele>
        <time>2020-03-06T21:29:57Z</time>
      </trkpt>
      <trkpt lat="44.77193" lon="1.73129">
        <ele>296.514</ele>
        <time>2020-03-06T21:30:17Z</time>
      </trkpt>
      <trkpt lat="44.77139" lon="1.73163">
        <ele>294.908</ele>
        <time>2020-03-06T21:30:37Z</time>
      </trkpt>
      <trkpt lat="44.77085" lon="1.73174">
        <ele>299.89</ele>
        <time>2020-03-06T21:30:57Z</time>
      </trkpt>
      <trkpt lat="44.76976" lon="1.73307">
        <ele>292.255</ele>
        <time>2020-03-06T21:31:17Z</time>
      </trkpt>
      <trkpt lat="44.76933" lon="1.73369">
        <ele>287.525</ele>
        <time>2020-03-06T21:31:37Z</time>
      </trkpt>
      <trkpt lat="44.76864" lon="1.73438">
        <ele>294.187</ele>
        <time>2020-03-06T21:31:57Z</time>
      </trkpt>
      <trkpt lat="44.76823" lon="1.73451">
        <ele>295.659</ele>
        <time>2020-03-06T21:32:17Z</time>
      </trkpt>
      <trkpt lat="44.76759" lon="1.73556">
        <ele>293.01</ele>
        <time>2020-03-06T21:32:37Z</time>
      </trkpt>
      <trkpt lat="44.76549" lon="1.73653">
        <ele>299.416</ele>
        <time>2020-03-06T21:32:57Z</time>
      </trkpt>
      <trkpt lat="44.76508" lon="1.73743">
        <ele>306.098</ele>
        <time>2020-03-06T21:33:17Z</time>
      </trkpt>
      <trkpt lat="44.76461" lon="1.73809">
        <ele>305.336</ele>
        <time>2020-03-06T21:33:37Z</time>
      </trkpt>
      <trkpt lat="44.76433" lon="1.73906">
        <ele>306.017</ele>
        <time>2020-03-06T21:33:57Z</time>
      </trkpt>
      <trkpt lat="44.76403" lon="1.73966">
        <ele>306.618</ele>
        <time>2020-03-06T21:34:17Z</time>
      </trkpt>
      <trkpt lat="44.76327" lon="1.74007">
        <ele>301.908</ele>
        <time>2020-03-06T21:34:37Z</time>
      </trkpt>
      <trkpt lat="44.76202" lon="1.74065">
        <ele>308.069</ele>
        <time>2020-03-06T21:34:57Z</time>
      </trkpt>
      <trkpt lat="44.76112" lon="1.74146">
        <ele>309.654</ele>
        <time>2020-03-06T21:35:17Z</time>
      </trkpt>
      <trkpt lat="44.76084" lon="1.74153">
        <ele>308.184</ele>
        <time>2020-03-06T21:35:37Z</time>
      </trkpt>
      <trkpt lat="44.76023" lon="1.74204">
        <ele>304.156</ele>
        <time>2020-03-06T21:35:57Z</time>
      </trkpt>
      <trkpt lat="44.76002" lon="1.74292">
        <ele>304.368</ele>
        <time>2020-03-06T21:36:17Z</time>
      </trkpt>
      <trkpt lat="44.75999" lon="1.74348">
        <ele>306.429</ele>
        <time>2020-03-06T21:36:37Z</time>
      </trkpt>
      <trkpt lat="44.75899" lon="1.74487">
        <ele>307.595</ele>
        <time>2020-03-06T21:36:57Z</time>
      </trkpt>
      <trkpt lat="44.75795" lon="1.74603">
        <ele>313.267</ele>
        <time>2020-03-06T21:37:17Z</time>
      </trkpt>
      <trkpt lat="44.75699" lon="1.74642">
        <ele>317.093</ele>
        <time>2020-03-06T21:37:37Z</time>
      </trkpt>
      <trkpt lat="44.75667" lon="1.74642">
        <ele>316.965</ele>
        <time>2020-03-06T21:37:57Z</time>
      </trkpt>
      <trkpt lat="44.75644" lon="1.74668">
        <ele>315.221</ele>
        <time>2020-03-06T21:38:17Z</time>
      </trkpt>
      <trkpt lat="44.75594" lon="1.74846">
        <ele>311.608</ele>
        <time>2020-03-06T21:38:37Z</time>
      </trkpt>
      <trkpt lat="44.75588" lon="1.74908">
        <ele>311.365</ele>
        <time>2020-03-06T21:38:57Z</time>
      </trkpt>
      <trkpt lat="44.75565" lon="1.74953">
        <ele>306.93</ele>
        <time>2020-03-06T21:39:17Z</time>
      </trkpt>
      <trkpt lat="44.75493" lon="1.75013">
        <ele>307.79</ele>
        <time>2020-03-06T21:39:37Z</time>
      </trkpt>
      <trkpt lat="44.75454" lon="1.75062">
        <ele>314.432</ele>
        <time>2020-03-06T21:39:57Z</time>
      </trkpt>
      <trkpt lat="44.75412" lon="1.75071">
        <ele>312.944</ele>
        <time>2020-03-06T21:40:17Z</time>
      </trkpt>
      <trkpt lat="44.75387" lon="1.75095">
        <ele>313.545</ele>
        <time>2020-03-06T21:40:37Z</time>
      </trkpt>
      <trkpt lat="44.75339" lon="1.75065">
        <ele>313.481</ele>
        <time>2020-03-06T21:40:57Z</time>
      </trkpt>
      <trkpt lat="44.75286" lon="1.75002">
        <ele>310.423</ele>
        <time>2020-03-06T21:41:17Z</time>
      </trkpt>
      <trkpt lat="44.75208" lon="1.75047">
        <ele>314.943</ele>
        <time>2020-03-06T21:41:37Z</time>
      </trkpt>
      <trkpt lat="44.75152" lon="1.75095">
        <ele>313.364</ele>
        <time>2020-03-06T21:41:57Z</time>
      </trkpt>
      <trkpt lat="44.75097" lon="1.75088">
        <ele>305.91</ele>
        <time>2020-03-06T21:42:17Z</time>
      </trkpt>
      <trkpt lat="44.7501" lon="1.7505">
        <ele>305.108</ele>
        <time>2020-03-06T21:42:37Z</time>
      </trkpt>
      <trkpt lat="44.74967" lon="1.75077">
        <ele>304.65</ele>
        <time>2020-03-06T21:42:57Z</time>
      </trkpt>
      <trkpt lat="44.74935" lon="1.75123">
        <ele>305.435</ele>
        <time>2020-03-06T21:43:17Z</time>
      </trkpt>
      <trkpt lat="44.74908" lon="1.75221">
        <ele>305.165</ele>
        <time>2020-03-06T21:43:37Z</time>
      </trkpt>
      <trkpt lat="44.74893" lon="1.75296">
        <ele>305.077</ele>
        <time>2020-03-06T21:43:57Z</time>
      </trkpt>
      <trkpt lat="44.74811" lon="1.75331">
        <ele>307.499</ele>
        <time>2020-03-06T21:44:17Z</time>
      </trkpt>
      <trkpt lat="44.74806" lon="1.75365">
        <ele>305.87</ele>
        <time>2020-03-06T21:44:37Z</time>
      </trkpt>
      <trkpt lat="44.74812" lon="1.7544">
        <ele>304.516</ele>
        <time>2020-03-06T21:44:57Z</time>
      </trkpt>
      <trkpt lat="44.74768" lon="1.75532">
        <ele>310.278</ele>
        <time>2020-03-06T21:45:17Z</time>
      </trkpt>
      <trkpt lat="44.7474" lon="1.75618">
        <ele>311.371</ele>
        <time>2020-03-06T21:45:37Z</time>
      </trkpt>
      <trkpt lat="44.74739" lon="1.75659">
        <ele>312.441</ele>
        <time>2020-03-06T21:45:57Z</time>
      </trkpt>
      <trkpt lat="44.74727" lon="1.75708">
        <ele>313.315</ele>
        <time>2020-03-06T21:46:17Z</time>
      </trkpt>
      <trkpt lat="44.7475" lon="1.75749">
        <ele>312.008</ele>
        <time>2020-03-06T21:46:37Z</time>
      </trkpt>
      <trkpt lat="44.74747" lon="1.75852">
        <ele>314.853</ele>
        <time>2020-03-06T21:46:57Z</time>
      </trkpt>
      <trkpt lat="44.74794" lon="1.75869">
        <ele>311.318</ele>
        <time>2020-03-06T21:47:17Z</time>
      </trkpt>
      <trkpt lat="44.74847" lon="1.75927">
        <ele>306.078</ele>
        <time>2020-03-06T21:47:37Z</time>
      </trkpt>
      <trkpt lat="44.7489" lon="1.76017">
        <ele>302.51</ele>
        <time>2020-03-06T21:47:57Z</time>
      </trkpt>
      <trkpt lat="44.74972" lon="1.76127">
        <ele>312.042</ele>
        <time>2020-03-06T21:48:17Z</time>
      </trkpt>
      <trkpt lat="44.75031" lon="1.76195">
        <ele>312.493</ele>
        <time>2020-03-06T21:48:37Z</time>
      </trkpt>
      <trkpt lat="44.75053" lon="1.76249">
        <ele>312.939</ele>
        <time>2020-03-06T21:48:57Z</time>
      </trkpt>
      <trkpt lat="44.75068" lon="1.76335">
        <ele>313.351</ele>
        <time>2020-03-06T21:49:17Z</time>
      </trkpt>
      <trkpt lat="44.75068" lon="1.76446">
        <ele>311.042</ele>
        <time>2020-03-06T21:49:37Z</time>
      </trkpt>
      <trkpt lat="44.75079" lon="1.76685">
        <ele>313.822</ele>
        <time>2020-03-06T21:49:57Z</time>
      </trkpt>
      <trkpt lat="44.75077" lon="1.76886">
        <ele>325.014</ele>
        <time>2020-03-06T21:50:17Z</time>
      </trkpt>
      <trkpt lat="44.75042" lon="1.77009">
        <ele>331.308</ele>
        <time>2020-03-06T21:50:37Z</time>
      </trkpt>
      <trkpt lat="44.75038" lon="1.77095">
        <ele>335.37</ele>
        <time>2020-03-06T21:50:57Z</time>
      </trkpt>
      <trkpt lat="44.75044" lon="1.77187">
        <ele>335.345</ele>
        <time>2020-03-06T21:51:17Z</time>
      </trkpt>
      <trkpt lat="44.75033" lon="1.77268">
        <ele>338.125</ele>
        <time>2020-03-06T21:51:37Z</time>
      </trkpt>
      <trkpt lat="44.75038" lon="1.77294">
        <ele>338.717</ele>
        <time>2020-03-06T21:51:57Z</time>
      </trkpt>
      <trkpt lat="44.75059" lon="1.77313">
        <ele>338.929</ele>
        <time>2020-03-06T21:52:17Z</time>
      </trkpt>
      <trkpt lat="44.75056" lon="1.77348">
        <ele>340.53</ele>
        <time>2020-03-06T21:52:37Z</time>
      </trkpt>
      <trkpt lat="44.75021" lon="1.77513">
        <ele>342.226</ele>
        <time>2020-03-06T21:52:57Z</time>
      </trkpt>
      <trkpt lat="44.74984" lon="1.77616">
        <ele>342.398</ele>
        <time>2020-03-06T21:53:17Z</time>
      </trkpt>
      <trkpt lat="44.74945" lon="1.77691">
        <ele>343.025</ele>
        <time>2020-03-06T21:53:37Z</time>
      </trkpt>
      <trkpt lat="44.7492" lon="1.77708">
        <ele>344.726</ele>
        <time>2020-03-06T21:53:57Z</time>
      </trkpt>
      <trkpt lat="44.74885" lon="1.77788">
        <ele>346.108</ele>
        <time>2020-03-06T21:54:17Z</time>
      </trkpt>
      <trkpt lat="44.74839" lon="1.77798">
        <ele>345.208</ele>
        <time>2020-03-06T21:54:37Z</time>
      </trkpt>
      <trkpt lat="44.74807" lon="1.77848">
        <ele>345.528</ele>
        <time>2020-03-06T21:54:57Z</time>
      </trkpt>
      <trkpt lat="44.74789" lon="1.77856">
        <ele>346.883</ele>
        <time>2020-03-06T21:55:17Z</time>
      </trkpt>
      <trkpt lat="44.7475" lon="1.77934">
        <ele>347.833</ele>
        <time>2020-03-06T21:55:37Z</time>
      </trkpt>
      <trkpt lat="44.74701" lon="1.77936">
        <ele>347.165</ele>
        <time>2020-03-06T21:55:57Z</time>
      </trkpt>
      <trkpt lat="44.74635" lon="1.77934">
        <ele>348.417</ele>
        <time>2020-03-06T21:56:17Z</time>
      </trkpt>
      <trkpt lat="44.74562" lon="1.77912">
        <ele>349.738</ele>
        <time>2020-03-06T21:56:37Z</time>
      </trkpt>
      <trkpt lat="44.74504" lon="1.77929">
        <ele>342.814</ele>
        <time>2020-03-06T21:56:57Z</time>
      </trkpt>
      <trkpt lat="44.74436" lon="1.77968">
        <ele>340.986</ele>
        <time>2020-03-06T21:57:17Z</time>
      </trkpt>
      <trkpt lat="44.74423" lon="1.77998">
        <ele>342.967</ele>
        <time>2020-03-06T21:57:37Z</time>
      </trkpt>
      <trkpt lat="44.74426" lon="1.78064">
        <ele>344.381</ele>
        <time>2020-03-06T21:57:57Z</time>
      </trkpt>
      <trkpt lat="44.74353" lon="1.78043">
        <ele>344.019</ele>
        <time>2020-03-06T21:58:17Z</time>
      </trkpt>
      <trkpt lat="44.74273" lon="1.78067">
        <ele>345.008</ele>
        <time>2020-03-06T21:58:37Z</time>
      </trkpt>
      <trkpt lat="44.74231" lon="1.78131">
        <ele>343.222</ele>
        <time>2020-03-06T21:58:57Z</time>
      </trkpt>
      <trkpt lat="44.74192" lon="1.78273">
        <ele>346.837</ele>
        <time>2020-03-06T21:59:17Z</time>
      </trkpt>
      <trkpt lat="44.74175" lon="1.78367">
        <ele>342.027</ele>
        <time>2020-03-06T21:59:37Z</time>
      </trkpt>
      <trkpt lat="44.74175" lon="1.7841">
        <ele>345.929</ele>
        <time>2020-03-06T21:59:57Z</time>
      </trkpt>
      <trkpt lat="44.74163" lon="1.78498">
        <ele>349.821</ele>
        <time>2020-03-06T22:00:17Z</time>
      </trkpt>
      <trkpt lat="44.74163" lon="1.78586">
        <ele>345.862</ele>
        <time>2020-03-06T22:00:37Z</time>
      </trkpt>
      <trkpt lat="44.74158" lon="1.7865">
        <ele>345.368</ele>
        <time>2020-03-06T22:00:57Z</time>
      </trkpt>
      <trkpt lat="44.74173" lon="1.78691">
        <ele>345.14</ele>
        <time>2020-03-06T22:01:17Z</time>
      </trkpt>
      <trkpt lat="44.74256" lon="1.78732">
        <ele>338.998</ele>
        <time>2020-03-06T22:01:37Z</time>
      </trkpt>
      <trkpt lat="44.74294" lon="1.78719">
        <ele>335.715</ele>
        <time>2020-03-06T22:01:57Z</time>
      </trkpt>
      <trkpt lat="44.7441" lon="1.78783">
        <ele>332.426</ele>
        <time>2020-03-06T22:02:17Z</time>
      </trkpt>
      <trkpt lat="44.74414" lon="1.78822">
        <ele>333.608</ele>
        <time>2020-03-06T22:02:37Z</time>
      </trkpt>
      <trkpt lat="44.74396" lon="1.78903">
        <ele>335.865</ele>
        <time>2020-03-06T22:02:57Z</time>
      </trkpt>
      <trkpt lat="44.74402" lon="1.78957">
        <ele>338.99</ele>
        <time>2020-03-06T22:03:17Z</time>
      </trkpt>
      <trkpt lat="44.74495" lon="1.79174">
        <ele>346.65</ele>
        <time>2020-03-06T22:03:37Z</time>
      </trkpt>
      <trkpt lat="44.74597" lon="1.793">
        <ele>343.342</ele>
        <time>2020-03-06T22:03:57Z</time>
      </trkpt>
      <trkpt lat="44.74689" lon="1.7933">
        <ele>337.794</ele>
        <time>2020-03-06T22:04:17Z</time>
      </trkpt>
      <trkpt lat="44.74736" lon="1.79386">
        <ele>339.545</ele>
        <time>2020-03-06T22:04:37Z</time>
      </trkpt>
      <trkpt lat="44.74818" lon="1.79433">
        <ele>335.981</ele>
        <time>2020-03-06T22:04:57Z</time>
      </trkpt>
      <trkpt lat="44.74961" lon="1.79601">
        <ele>341.263</ele>
        <time>2020-03-06T22:05:17Z</time>
      </trkpt>
      <trkpt lat="44.74963" lon="1.79657">
        <ele>340.478</ele>
        <time>2020-03-06T22:05:37Z</time>
      </trkpt>
      <trkpt lat="44.74974" lon="1.79727">
        <ele>337.733</ele>
        <time>2020-03-06T22:05:57Z</time>
      </trkpt>
      <trkpt lat="44.74937" lon="1.79734">
        <ele>336.726</ele>
        <time>2020-03-06T22:06:17Z</time>
      </trkpt>
      <trkpt lat="44.74886" lon="1.79803">
        <ele>335.908</ele>
        <time>2015-08-04T17:28:15Z</time>
      </trkpt>
      <trkpt lat="44.74864" lon="1.79799">
        <ele>335.353</ele>
        <time>2015-08-04T17:28:35Z</time>
      </trkpt>
      <trkpt lat="44.74806" lon="1.79939">
        <ele>330.298</ele>
        <time>2015-08-04T17:28:55Z</time>
      </trkpt>
      <trkpt lat="44.74907" lon="1.80103">
        <ele>328.628</ele>
        <time>2020-03-06T22:07:37Z</time>
      </trkpt>
      <trkpt lat="44.74788" lon="1.80225">
        <ele>328.34</ele>
        <time>2015-08-04T17:29:35Z</time>
      </trkpt>
      <trkpt lat="44.74778" lon="1.80274">
        <ele>328.042</ele>
        <time>2015-08-04T17:29:55Z</time>
      </trkpt>
      <trkpt lat="44.74786" lon="1.80289">
        <ele>328.793</ele>
        <time>2015-08-04T17:30:15Z</time>
      </trkpt>
      <trkpt lat="44.7478" lon="1.8032">
        <ele>329.129</ele>
        <time>2015-08-04T17:30:35Z</time>
      </trkpt>
      <trkpt lat="44.74781" lon="1.8034">
        <ele>328.871</ele>
        <time>2015-08-04T17:30:55Z</time>
      </trkpt>
      <trkpt lat="44.74813" lon="1.80384">
        <ele>327.467</ele>
        <time>2015-08-04T17:31:15Z</time>
      </trkpt>
      <trkpt lat="44.74854" lon="1.80415">
        <ele>329.481</ele>
        <time>2015-08-04T17:31:35Z</time>
      </trkpt>
      <trkpt lat="44.7487" lon="1.8048">
        <ele>330.519</ele>
        <time>2015-08-04T17:31:55Z</time>
      </trkpt>
      <trkpt lat="44.74866" lon="1.80546">
        <ele>331.208</ele>
        <time>2015-08-04T17:32:15Z</time>
      </trkpt>
      <trkpt lat="44.74847" lon="1.80602">
        <ele>332.212</ele>
        <time>2015-08-04T17:32:35Z</time>
      </trkpt>
      <trkpt lat="44.74846" lon="1.8074">
        <ele>331.027</ele>
        <time>2015-08-04T17:32:55Z</time>
      </trkpt>
      <trkpt lat="44.74871" lon="1.8081">
        <ele>333.377</ele>
        <time>2015-08-04T17:33:15Z</time>
      </trkpt>
      <trkpt lat="44.74868" lon="1.80865">
        <ele>332.999</ele>
        <time>2015-08-04T17:33:35Z</time>
      </trkpt>
      <trkpt lat="44.74854" lon="1.80908">
        <ele>332.441</ele>
        <time>2015-08-04T17:33:55Z</time>
      </trkpt>
      <trkpt lat="44.74835" lon="1.81002">
        <ele>336.112</ele>
        <time>2015-08-04T17:34:15Z</time>
      </trkpt>
      <trkpt lat="44.74816" lon="1.80994">
        <ele>333.748</ele>
        <time>2015-08-04T17:34:35Z</time>
      </trkpt>
      <trkpt lat="44.7477" lon="1.81023">
        <ele>325.71</ele>
        <time>2015-08-04T17:34:55Z</time>
      </trkpt>
      <trkpt lat="44.74768" lon="1.81111">
        <ele>324.699</ele>
        <time>2015-08-04T17:35:15Z</time>
      </trkpt>
      <trkpt lat="44.74753" lon="1.81126">
        <ele>322.307</ele>
        <time>2015-08-04T17:35:35Z</time>
      </trkpt>
      <trkpt lat="44.74729" lon="1.81124">
        <ele>322.727</ele>
        <time>2015-08-04T17:35:55Z</time>
      </trkpt>
      <trkpt lat="44.74712" lon="1.81102">
        <ele>322.508</ele>
        <time>2015-08-04T17:36:15Z</time>
      </trkpt>
      <trkpt lat="44.74691" lon="1.81132">
        <ele>328.295</ele>
        <time>2015-08-04T17:36:35Z</time>
      </trkpt>
      <trkpt lat="44.74691" lon="1.81157">
        <ele>330.56</ele>
        <time>2015-08-04T17:36:55Z</time>
      </trkpt>
      <trkpt lat="44.74711" lon="1.81196">
        <ele>330.76</ele>
        <time>2015-08-04T17:37:15Z</time>
      </trkpt>
      <trkpt lat="44.74669" lon="1.81184">
        <ele>333.612</ele>
        <time>2015-08-04T17:37:35Z</time>
      </trkpt>
      <trkpt lat="44.74664" lon="1.81236">
        <ele>336.434</ele>
        <time>2015-08-04T17:37:55Z</time>
      </trkpt>
      <trkpt lat="44.74687" lon="1.81284">
        <ele>337.215</ele>
        <time>2015-08-04T17:38:15Z</time>
      </trkpt>
      <trkpt lat="44.74769" lon="1.81377">
        <ele>339.061</ele>
        <time>2015-08-04T17:38:35Z</time>
      </trkpt>
      <trkpt lat="44.74805" lon="1.81399">
        <ele>338.433</ele>
        <time>2015-08-04T17:38:55Z</time>
      </trkpt>
      <trkpt lat="44.74814" lon="1.81418">
        <ele>338.277</ele>
        <time>2015-08-04T17:39:15Z</time>
      </trkpt>
      <trkpt lat="44.74809" lon="1.81481">
        <ele>339.861</ele>
        <time>2015-08-04T17:39:35Z</time>
      </trkpt>
      <trkpt lat="44.74793" lon="1.81491">
        <ele>340.527</ele>
        <time>2015-08-04T17:39:55Z</time>
      </trkpt>
      <trkpt lat="44.74768" lon="1.81549">
        <ele>340.408</ele>
        <time>2015-08-04T17:40:15Z</time>
      </trkpt>
      <trkpt lat="44.74731" lon="1.81586">
        <ele>339.773</ele>
        <time>2015-08-04T17:40:35Z</time>
      </trkpt>
      <trkpt lat="44.74681" lon="1.81899">
        <ele>347.888</ele>
        <time>2015-08-04T17:40:55Z</time>
      </trkpt>
      <trkpt lat="44.7471" lon="1.8197">
        <ele>348.588</ele>
        <time>2015-08-04T17:41:15Z</time>
      </trkpt>
      <trkpt lat="44.74744" lon="1.82019">
        <ele>349.79</ele>
        <time>2015-08-04T17:41:35Z</time>
      </trkpt>
      <trkpt lat="44.74748" lon="1.82056">
        <ele>350.852</ele>
        <time>2015-08-04T17:41:55Z</time>
      </trkpt>
      <trkpt lat="44.74756" lon="1.82077">
        <ele>351.023</ele>
        <time>2015-08-04T17:42:15Z</time>
      </trkpt>
      <trkpt lat="44.74758" lon="1.82098">
        <ele>350.529</ele>
        <time>2015-08-04T17:42:35Z</time>
      </trkpt>
      <trkpt lat="44.74745" lon="1.82161">
        <ele>347.011</ele>
        <time>2015-08-04T17:42:55Z</time>
      </trkpt>
      <trkpt lat="44.7474" lon="1.82236">
        <ele>346.836</ele>
        <time>2015-08-04T17:43:15Z</time>
      </trkpt>
      <trkpt lat="44.74764" lon="1.8228">
        <ele>350.617</ele>
        <time>2015-08-04T17:43:35Z</time>
      </trkpt>
      <trkpt lat="44.74853" lon="1.82386">
        <ele>349.318</ele>
        <time>2015-08-04T17:43:55Z</time>
      </trkpt>
      <trkpt lat="44.74779" lon="1.82476">
        <ele>350.108</ele>
        <time>2015-08-04T17:44:15Z</time>
      </trkpt>
      <trkpt lat="44.74608" lon="1.82562">
        <ele>351.029</ele>
        <time>2015-08-04T17:44:35Z</time>
      </trkpt>
      <trkpt lat="44.74585" lon="1.82567">
        <ele>352.454</ele>
        <time>2015-08-04T17:44:55Z</time>
      </trkpt>
      <trkpt lat="44.74502" lon="1.82591">
        <ele>360.584</ele>
        <time>2015-08-04T17:45:15Z</time>
      </trkpt>
      <trkpt lat="44.74462" lon="1.82585">
        <ele>361.056</ele>
        <time>2015-08-04T17:45:35Z</time>
      </trkpt>
      <trkpt lat="44.74434" lon="1.82572">
        <ele>360.638</ele>
        <time>2015-08-04T17:45:55Z</time>
      </trkpt>
      <trkpt lat="44.74398" lon="1.8253">
        <ele>360.739</ele>
        <time>2015-08-04T17:46:15Z</time>
      </trkpt>
      <trkpt lat="44.74367" lon="1.82508">
        <ele>360.025</ele>
        <time>2015-08-04T17:46:35Z</time>
      </trkpt>
      <trkpt lat="44.74332" lon="1.82497">
        <ele>357.517</ele>
        <time>2015-08-04T17:46:55Z</time>
      </trkpt>
      <trkpt lat="44.74272" lon="1.82541">
        <ele>355.612</ele>
        <time>2015-08-04T17:47:15Z</time>
      </trkpt>
      <trkpt lat="44.74184" lon="1.8263">
        <ele>353.032</ele>
        <time>2015-08-04T17:47:35Z</time>
      </trkpt>
      <trkpt lat="44.74143" lon="1.82638">
        <ele>352.905</ele>
        <time>2015-08-04T17:47:55Z</time>
      </trkpt>
      <trkpt lat="44.74095" lon="1.82657">
        <ele>351.208</ele>
        <time>2015-08-04T17:48:15Z</time>
      </trkpt>
      <trkpt lat="44.74073" lon="1.82673">
        <ele>349.747</ele>
        <time>2015-08-04T17:48:35Z</time>
      </trkpt>
      <trkpt lat="44.74059" lon="1.82676">
        <ele>348.322</ele>
        <time>2015-08-04T17:48:55Z</time>
      </trkpt>
      <trkpt lat="44.74045" lon="1.82642">
        <ele>345.532</ele>
        <time>2015-08-04T17:49:15Z</time>
      </trkpt>
      <trkpt lat="44.74008" lon="1.82651">
        <ele>343.154</ele>
        <time>2015-08-04T17:49:35Z</time>
      </trkpt>
      <trkpt lat="44.73987" lon="1.82666">
        <ele>340.696</ele>
        <time>2015-08-04T17:49:55Z</time>
      </trkpt>
      <trkpt lat="44.73983" lon="1.82694">
        <ele>341.737</ele>
        <time>2015-08-04T17:50:15Z</time>
      </trkpt>
      <trkpt lat="44.73967" lon="1.82726">
        <ele>340.193</ele>
        <time>2015-08-04T17:50:35Z</time>
      </trkpt>
      <trkpt lat="44.73951" lon="1.82771">
        <ele>334.725</ele>
        <time>2015-08-04T17:50:55Z</time>
      </trkpt>
      <trkpt lat="44.73964" lon="1.828">
        <ele>331.559</ele>
        <time>2015-08-04T17:51:15Z</time>
      </trkpt>
      <trkpt lat="44.73964" lon="1.82826">
        <ele>327.203</ele>
        <time>2015-08-04T17:51:35Z</time>
      </trkpt>
    </trkseg>
  </trk>
  <trk>
    <name><![CDATA[Cardaillac]]></name>
    <extensions>
      <line xmlns="http://www.topografix.com/GPX/gpx_style/0/2">
        <color>ff00f7</color>
        <width>4</width>
      </line>
    </extensions>
    <trkseg>
      <trkpt lat="44.73964" lon="1.82826">
        <ele>327.203</ele>
        <time>2015-08-04T17:51:35Z</time>
      </trkpt>
      <trkpt lat="44.73964" lon="1.82826">
        <ele>327.203</ele>
        <time>2015-08-04T17:51:35Z</time>
      </trkpt>
      <trkpt lat="44.73964" lon="1.82826">
        <ele>327.203</ele>
        <time>2015-08-04T17:51:35Z</time>
      </trkpt>
      <trkpt lat="44.73964" lon="1.82826">
        <ele>327.203</ele>
        <time>2015-08-04T17:51:35Z</time>
      </trkpt>
      <trkpt lat="44.73964" lon="1.82826">
        <ele>327.203</ele>
        <time>2015-08-04T17:51:35Z</time>
      </trkpt>
      <trkpt lat="44.73964" lon="1.82826">
        <ele>327.203</ele>
        <time>2015-08-04T17:51:35Z</time>
      </trkpt>
      <trkpt lat="44.73972" lon="1.82861">
        <ele>324.023</ele>
        <time>2015-08-04T17:51:55Z</time>
      </trkpt>
      <trkpt lat="44.73965" lon="1.82882">
        <ele>322.708</ele>
        <time>2015-08-04T17:52:15Z</time>
      </trkpt>
      <trkpt lat="44.74024" lon="1.82992">
        <ele>324.261</ele>
        <time>2015-08-04T17:52:35Z</time>
      </trkpt>
      <trkpt lat="44.74053" lon="1.83074">
        <ele>320.536</ele>
        <time>2015-08-04T17:52:55Z</time>
      </trkpt>
      <trkpt lat="44.74152" lon="1.83248">
        <ele>315.056</ele>
        <time>2015-08-04T17:53:15Z</time>
      </trkpt>
      <trkpt lat="44.74152" lon="1.83289">
        <ele>312.548</ele>
        <time>2020-03-06T22:31:57Z</time>
      </trkpt>
      <trkpt lat="44.74167" lon="1.83341">
        <ele>312.03</ele>
        <time>2015-08-04T17:53:55Z</time>
      </trkpt>
      <trkpt lat="44.74161" lon="1.83442">
        <ele>315.081</ele>
        <time>2015-08-04T17:54:15Z</time>
      </trkpt>
      <trkpt lat="44.74056" lon="1.83557">
        <ele>339.997</ele>
        <time>2015-08-04T17:54:35Z</time>
      </trkpt>
      <trkpt lat="44.74038" lon="1.83619">
        <ele>339.249</ele>
        <time>2015-08-04T17:54:55Z</time>
      </trkpt>
      <trkpt lat="44.74047" lon="1.83634">
        <ele>337.653</ele>
        <time>2015-08-04T17:55:15Z</time>
      </trkpt>
      <trkpt lat="44.74053" lon="1.83692">
        <ele>334.404</ele>
        <time>2015-08-04T17:55:35Z</time>
      </trkpt>
      <trkpt lat="44.74108" lon="1.83735">
        <ele>328.514</ele>
        <time>2015-08-04T17:55:55Z</time>
      </trkpt>
      <trkpt lat="44.74169" lon="1.83775">
        <ele>332.808</ele>
        <time>2015-08-04T17:56:15Z</time>
      </trkpt>
      <trkpt lat="44.74165" lon="1.8383">
        <ele>333.121</ele>
        <time>2015-08-04T17:56:35Z</time>
      </trkpt>
      <trkpt lat="44.74144" lon="1.83882">
        <ele>334.596</ele>
        <time>2015-08-04T17:56:55Z</time>
      </trkpt>
      <trkpt lat="44.74154" lon="1.83925">
        <ele>330.126</ele>
        <time>2015-08-04T17:57:15Z</time>
      </trkpt>
      <trkpt lat="44.74154" lon="1.83961">
        <ele>326.818</ele>
        <time>2015-08-04T17:57:35Z</time>
      </trkpt>
      <trkpt lat="44.74157" lon="1.83977">
        <ele>324.49</ele>
        <time>2015-08-04T17:57:55Z</time>
      </trkpt>
      <trkpt lat="44.74147" lon="1.84025">
        <ele>325.991</ele>
        <time>2015-08-04T17:58:15Z</time>
      </trkpt>
      <trkpt lat="44.74176" lon="1.84071">
        <ele>322.417</ele>
        <time>2015-08-04T17:58:35Z</time>
      </trkpt>
      <trkpt lat="44.74249" lon="1.84149">
        <ele>324.529</ele>
        <time>2015-08-04T17:58:55Z</time>
      </trkpt>
      <trkpt lat="44.74279" lon="1.8417">
        <ele>318.191</ele>
        <time>2015-08-04T17:59:15Z</time>
      </trkpt>
      <trkpt lat="44.74321" lon="1.8419">
        <ele>319.581</ele>
        <time>2015-08-04T17:59:35Z</time>
      </trkpt>
      <trkpt lat="44.74373" lon="1.8424">
        <ele>322.219</ele>
        <time>2015-08-04T17:59:55Z</time>
      </trkpt>
      <trkpt lat="44.74426" lon="1.84308">
        <ele>323.408</ele>
        <time>2015-08-04T18:00:15Z</time>
      </trkpt>
      <trkpt lat="44.7444" lon="1.84336">
        <ele>324.345</ele>
        <time>2015-08-04T18:00:35Z</time>
      </trkpt>
      <trkpt lat="44.74479" lon="1.84434">
        <ele>334.77</ele>
        <time>2015-08-04T18:00:55Z</time>
      </trkpt>
      <trkpt lat="44.74476" lon="1.84493">
        <ele>333.63</ele>
        <time>2015-08-04T18:01:15Z</time>
      </trkpt>
      <trkpt lat="44.74488" lon="1.84547">
        <ele>331.332</ele>
        <time>2015-08-04T18:01:35Z</time>
      </trkpt>
      <trkpt lat="44.74341" lon="1.84617">
        <ele>333.994</ele>
        <time>2020-03-06T22:40:17Z</time>
      </trkpt>
      <trkpt lat="44.7444" lon="1.84644">
        <ele>335.755</ele>
        <time>2015-08-04T18:02:35Z</time>
      </trkpt>
      <trkpt lat="44.74498" lon="1.84862">
        <ele>345.121</ele>
        <time>2015-08-04T18:02:55Z</time>
      </trkpt>
      <trkpt lat="44.74532" lon="1.84915">
        <ele>343.983</ele>
        <time>2015-08-04T18:03:15Z</time>
      </trkpt>
      <trkpt lat="44.74492" lon="1.85057">
        <ele>347.489</ele>
        <time>2015-08-04T18:03:35Z</time>
      </trkpt>
      <trkpt lat="44.74425" lon="1.85229">
        <ele>348.506</ele>
        <time>2015-08-04T18:03:55Z</time>
      </trkpt>
      <trkpt lat="44.74365" lon="1.85309">
        <ele>348.926</ele>
        <time>2015-08-04T18:04:15Z</time>
      </trkpt>
      <trkpt lat="44.74288" lon="1.8544">
        <ele>348.808</ele>
        <time>2015-08-04T18:04:35Z</time>
      </trkpt>
      <trkpt lat="44.74271" lon="1.85499">
        <ele>348.254</ele>
        <time>2015-08-04T18:04:55Z</time>
      </trkpt>
      <trkpt lat="44.74246" lon="1.85505">
        <ele>349.079</ele>
        <time>2015-08-04T18:05:15Z</time>
      </trkpt>
      <trkpt lat="44.74219" lon="1.8553">
        <ele>348.849</ele>
        <time>2015-08-04T18:05:35Z</time>
      </trkpt>
      <trkpt lat="44.7419" lon="1.85581">
        <ele>345.461</ele>
        <time>2015-08-04T18:05:55Z</time>
      </trkpt>
      <trkpt lat="44.74161" lon="1.8565">
        <ele>342.093</ele>
        <time>2015-08-04T18:06:15Z</time>
      </trkpt>
      <trkpt lat="44.74004" lon="1.85719">
        <ele>350.494</ele>
        <time>2015-08-04T18:06:35Z</time>
      </trkpt>
      <trkpt lat="44.73992" lon="1.85727">
        <ele>352.15</ele>
        <time>2015-08-04T18:06:55Z</time>
      </trkpt>
      <trkpt lat="44.73893" lon="1.85869">
        <ele>361.082</ele>
        <time>2015-08-04T18:07:15Z</time>
      </trkpt>
      <trkpt lat="44.73866" lon="1.85889">
        <ele>364.314</ele>
        <time>2015-08-04T18:07:35Z</time>
      </trkpt>
      <trkpt lat="44.73797" lon="1.85924">
        <ele>361.954</ele>
        <time>2015-08-04T18:07:55Z</time>
      </trkpt>
      <trkpt lat="44.73746" lon="1.85942">
        <ele>365.209</ele>
        <time>2015-08-04T18:08:15Z</time>
      </trkpt>
      <trkpt lat="44.73706" lon="1.85976">
        <ele>369.608</ele>
        <time>2015-08-04T18:08:35Z</time>
      </trkpt>
      <trkpt lat="44.73626" lon="1.86087">
        <ele>368.247</ele>
        <time>2015-08-04T18:08:55Z</time>
      </trkpt>
      <trkpt lat="44.73626" lon="1.86107">
        <ele>368.952</ele>
        <time>2015-08-04T18:09:15Z</time>
      </trkpt>
      <trkpt lat="44.73615" lon="1.86116">
        <ele>368.582</ele>
        <time>2015-08-04T18:09:35Z</time>
      </trkpt>
      <trkpt lat="44.73592" lon="1.86164">
        <ele>368.344</ele>
        <time>2015-08-04T18:09:55Z</time>
      </trkpt>
      <trkpt lat="44.73657" lon="1.86224">
        <ele>366.936</ele>
        <time>2015-08-04T18:10:15Z</time>
      </trkpt>
      <trkpt lat="44.73676" lon="1.86246">
        <ele>366.197</ele>
        <time>2015-08-04T18:10:35Z</time>
      </trkpt>
      <trkpt lat="44.73692" lon="1.86299">
        <ele>365.153</ele>
        <time>2015-08-04T18:10:55Z</time>
      </trkpt>
      <trkpt lat="44.73702" lon="1.86353">
        <ele>365.065</ele>
        <time>2015-08-04T18:11:15Z</time>
      </trkpt>
      <trkpt lat="44.73695" lon="1.86397">
        <ele>364.071</ele>
        <time>2015-08-04T18:11:35Z</time>
      </trkpt>
      <trkpt lat="44.73688" lon="1.86477">
        <ele>365.841</ele>
        <time>2015-08-04T18:11:55Z</time>
      </trkpt>
      <trkpt lat="44.73678" lon="1.86521">
        <ele>367.115</ele>
        <time>2015-08-04T18:12:15Z</time>
      </trkpt>
      <trkpt lat="44.7366" lon="1.86642">
        <ele>375.908</ele>
        <time>2015-08-04T18:12:35Z</time>
      </trkpt>
      <trkpt lat="44.73635" lon="1.8686">
        <ele>377.653</ele>
        <time>2015-08-04T18:12:55Z</time>
      </trkpt>
      <trkpt lat="44.73582" lon="1.87232">
        <ele>396.138</ele>
        <time>2015-08-04T18:13:15Z</time>
      </trkpt>
      <trkpt lat="44.73579" lon="1.8727">
        <ele>397.188</ele>
        <time>2015-08-04T18:13:35Z</time>
      </trkpt>
      <trkpt lat="44.73565" lon="1.87395">
        <ele>401.31</ele>
        <time>2015-08-04T18:13:55Z</time>
      </trkpt>
      <trkpt lat="44.73563" lon="1.87446">
        <ele>402.282</ele>
        <time>2015-08-04T18:14:15Z</time>
      </trkpt>
      <trkpt lat="44.73554" lon="1.87488">
        <ele>401.543</ele>
        <time>2015-08-04T18:14:35Z</time>
      </trkpt>
      <trkpt lat="44.73505" lon="1.87427">
        <ele>408.649</ele>
        <time>2015-08-04T18:14:55Z</time>
      </trkpt>
      <trkpt lat="44.73478" lon="1.87412">
        <ele>410.481</ele>
        <time>2015-08-04T18:15:15Z</time>
      </trkpt>
      <trkpt lat="44.73409" lon="1.87396">
        <ele>414.376</ele>
        <time>2015-08-04T18:15:35Z</time>
      </trkpt>
      <trkpt lat="44.73365" lon="1.87407">
        <ele>415.99</ele>
        <time>2015-08-04T18:15:55Z</time>
      </trkpt>
      <trkpt lat="44.73232" lon="1.87497">
        <ele>411.219</ele>
        <time>2015-08-04T18:16:15Z</time>
      </trkpt>
      <trkpt lat="44.73083" lon="1.87604">
        <ele>408.008</ele>
        <time>2015-08-04T18:16:35Z</time>
      </trkpt>
      <trkpt lat="44.72975" lon="1.87665">
        <ele>403.253</ele>
        <time>2015-08-04T18:16:55Z</time>
      </trkpt>
      <trkpt lat="44.72838" lon="1.87752">
        <ele>394.378</ele>
        <time>2015-08-04T18:17:15Z</time>
      </trkpt>
      <trkpt lat="44.72741" lon="1.87739">
        <ele>385.228</ele>
        <time>2020-11-25T19:05:20Z</time>
      </trkpt>
      <trkpt lat="44.72655" lon="1.87751">
        <ele>376.31</ele>
        <time>2020-11-25T19:05:40Z</time>
      </trkpt>
      <trkpt lat="44.72537" lon="1.87675">
        <ele>365.162</ele>
        <time>2020-11-25T19:06:00Z</time>
      </trkpt>
      <trkpt lat="44.72434" lon="1.87633">
        <ele>357.173</ele>
        <time>2020-11-25T19:06:20Z</time>
      </trkpt>
      <trkpt lat="44.72362" lon="1.87727">
        <ele>354.079</ele>
        <time>2020-11-25T19:06:40Z</time>
      </trkpt>
      <trkpt lat="44.72384" lon="1.87759">
        <ele>354.851</ele>
        <time>2020-11-25T19:07:00Z</time>
      </trkpt>
      <trkpt lat="44.7227" lon="1.8791">
        <ele>348.356</ele>
        <time>2020-11-25T19:07:20Z</time>
      </trkpt>
      <trkpt lat="44.72178" lon="1.88074">
        <ele>353.659</ele>
        <time>2020-11-25T19:07:40Z</time>
      </trkpt>
      <trkpt lat="44.72159" lon="1.8808">
        <ele>353.414</ele>
        <time>2020-11-25T19:08:00Z</time>
      </trkpt>
      <trkpt lat="44.72118" lon="1.8817">
        <ele>355.508</ele>
        <time>2015-08-04T18:21:15Z</time>
      </trkpt>
      <trkpt lat="44.72122" lon="1.882">
        <ele>355.611</ele>
        <time>2020-03-06T22:59:17Z</time>
      </trkpt>
      <trkpt lat="44.7206" lon="1.88361">
        <ele>359.356</ele>
        <time>2020-03-06T22:59:37Z</time>
      </trkpt>
      <trkpt lat="44.72136" lon="1.88454">
        <ele>362.976</ele>
        <time>2015-08-04T18:22:35Z</time>
      </trkpt>
      <trkpt lat="44.72138" lon="1.88503">
        <ele>365.378</ele>
        <time>2015-08-04T18:22:55Z</time>
      </trkpt>
      <trkpt lat="44.72131" lon="1.88575">
        <ele>369.41</ele>
        <time>2015-08-04T18:23:15Z</time>
      </trkpt>
      <trkpt lat="44.72134" lon="1.88677">
        <ele>374.311</ele>
        <time>2015-08-04T18:23:35Z</time>
      </trkpt>
      <trkpt lat="44.72108" lon="1.88822">
        <ele>379.847</ele>
        <time>2015-08-04T18:23:55Z</time>
      </trkpt>
      <trkpt lat="44.71998" lon="1.89131">
        <ele>386.179</ele>
        <time>2015-08-04T18:24:15Z</time>
      </trkpt>
      <trkpt lat="44.71986" lon="1.89225">
        <ele>386.097</ele>
        <time>2015-08-04T18:24:35Z</time>
      </trkpt>
      <trkpt lat="44.71985" lon="1.89312">
        <ele>385.623</ele>
        <time>2015-08-04T18:24:55Z</time>
      </trkpt>
      <trkpt lat="44.71968" lon="1.89383">
        <ele>387.225</ele>
        <time>2015-08-04T18:25:15Z</time>
      </trkpt>
      <trkpt lat="44.7196" lon="1.89472">
        <ele>388.708</ele>
        <time>2015-08-04T18:25:35Z</time>
      </trkpt>
      <trkpt lat="44.71937" lon="1.89594">
        <ele>393.215</ele>
        <time>2015-08-04T18:25:55Z</time>
      </trkpt>
      <trkpt lat="44.7195" lon="1.89668">
        <ele>392.24</ele>
        <time>2015-08-04T18:26:15Z</time>
      </trkpt>
      <trkpt lat="44.7196" lon="1.89694">
        <ele>391.61</ele>
        <time>2015-08-04T18:26:35Z</time>
      </trkpt>
      <trkpt lat="44.71951" lon="1.89845">
        <ele>384.582</ele>
        <time>2015-08-04T18:26:55Z</time>
      </trkpt>
      <trkpt lat="44.71982" lon="1.89962">
        <ele>378.144</ele>
        <time>2015-08-04T18:27:15Z</time>
      </trkpt>
      <trkpt lat="44.71983" lon="1.90073">
        <ele>375.095</ele>
        <time>2015-08-04T18:27:35Z</time>
      </trkpt>
      <trkpt lat="44.71978" lon="1.90123">
        <ele>375.221</ele>
        <time>2015-08-04T18:27:55Z</time>
      </trkpt>
      <trkpt lat="44.71989" lon="1.90263">
        <ele>380.983</ele>
        <time>2015-08-04T18:28:15Z</time>
      </trkpt>
      <trkpt lat="44.72003" lon="1.90337">
        <ele>383.618</ele>
        <time>2015-08-04T18:28:35Z</time>
      </trkpt>
      <trkpt lat="44.72006" lon="1.90479">
        <ele>395.098</ele>
        <time>2015-08-04T18:28:55Z</time>
      </trkpt>
      <trkpt lat="44.72017" lon="1.90582">
        <ele>400.917</ele>
        <time>2015-08-04T18:29:15Z</time>
      </trkpt>
      <trkpt lat="44.72028" lon="1.90744">
        <ele>392.308</ele>
        <time>2015-08-04T18:29:35Z</time>
      </trkpt>
      <trkpt lat="44.72087" lon="1.90882">
        <ele>386.087</ele>
        <time>2015-08-04T18:29:55Z</time>
      </trkpt>
      <trkpt lat="44.72163" lon="1.91217">
        <ele>361.282</ele>
        <time>2015-08-04T18:30:15Z</time>
      </trkpt>
      <trkpt lat="44.7218" lon="1.91259">
        <ele>361.292</ele>
        <time>2015-08-04T18:30:35Z</time>
      </trkpt>
      <trkpt lat="44.72258" lon="1.91378">
        <ele>361.934</ele>
        <time>2015-08-04T18:30:55Z</time>
      </trkpt>
      <trkpt lat="44.72357" lon="1.91458">
        <ele>367.416</ele>
        <time>2015-08-04T18:31:15Z</time>
      </trkpt>
      <trkpt lat="44.72511" lon="1.91626">
        <ele>367.187</ele>
        <time>2015-08-04T18:31:35Z</time>
      </trkpt>
      <trkpt lat="44.72566" lon="1.91705">
        <ele>369.883</ele>
        <time>2015-08-04T18:31:55Z</time>
      </trkpt>
      <trkpt lat="44.72612" lon="1.91787">
        <ele>373.335</ele>
        <time>2015-08-04T18:32:15Z</time>
      </trkpt>
      <trkpt lat="44.72661" lon="1.91852">
        <ele>374.971</ele>
        <time>2015-08-04T18:32:35Z</time>
      </trkpt>
      <trkpt lat="44.72666" lon="1.91864">
        <ele>375.141</ele>
        <time>2015-08-04T18:32:55Z</time>
      </trkpt>
      <trkpt lat="44.727" lon="1.91908">
        <ele>376.015</ele>
        <time>2015-08-04T18:33:15Z</time>
      </trkpt>
      <trkpt lat="44.7285" lon="1.9225">
        <ele>380.608</ele>
        <time>2015-08-04T18:33:35Z</time>
      </trkpt>
      <trkpt lat="44.72796" lon="1.92552">
        <ele>380.213</ele>
        <time>2015-08-04T18:33:55Z</time>
      </trkpt>
      <trkpt lat="44.72794" lon="1.9257">
        <ele>379.928</ele>
        <time>2015-08-05T08:06:07Z</time>
      </trkpt>
      <trkpt lat="44.72794" lon="1.9257">
        <ele>379.958</ele>
        <time>2015-08-05T08:06:07Z</time>
      </trkpt>
      <trkpt lat="44.72782" lon="1.92748">
        <ele>375.97</ele>
        <time>2015-08-05T08:06:27Z</time>
      </trkpt>
      <trkpt lat="44.72663" lon="1.92739">
        <ele>371.772</ele>
        <time>2015-08-05T08:06:47Z</time>
      </trkpt>
      <trkpt lat="44.72609" lon="1.92782">
        <ele>374.243</ele>
        <time>2015-08-05T08:07:07Z</time>
      </trkpt>
      <trkpt lat="44.72487" lon="1.92695">
        <ele>374.559</ele>
        <time>2015-08-05T08:07:27Z</time>
      </trkpt>
      <trkpt lat="44.72397" lon="1.92896">
        <ele>377.621</ele>
        <time>2015-08-05T08:07:47Z</time>
      </trkpt>
      <trkpt lat="44.72368" lon="1.92937">
        <ele>378.197</ele>
        <time>2015-08-05T08:08:07Z</time>
      </trkpt>
      <trkpt lat="44.72366" lon="1.92968">
        <ele>377.023</ele>
        <time>2015-08-05T08:08:27Z</time>
      </trkpt>
      <trkpt lat="44.72334" lon="1.93052">
        <ele>380.925</ele>
        <time>2015-08-05T08:08:47Z</time>
      </trkpt>
      <trkpt lat="44.72321" lon="1.93203">
        <ele>384.108</ele>
        <time>2015-08-05T08:09:07Z</time>
      </trkpt>
      <trkpt lat="44.72278" lon="1.93366">
        <ele>385.895</ele>
        <time>2015-08-05T08:09:27Z</time>
      </trkpt>
      <trkpt lat="44.72267" lon="1.93449">
        <ele>386.07</ele>
        <time>2015-08-05T08:09:47Z</time>
      </trkpt>
      <trkpt lat="44.72266" lon="1.93492">
        <ele>386.04</ele>
        <time>2015-08-05T08:10:07Z</time>
      </trkpt>
      <trkpt lat="44.72251" lon="1.93546">
        <ele>386.052</ele>
        <time>2015-08-05T08:10:27Z</time>
      </trkpt>
      <trkpt lat="44.72196" lon="1.93668">
        <ele>390.044</ele>
        <time>2015-08-05T08:10:47Z</time>
      </trkpt>
      <trkpt lat="44.72161" lon="1.93763">
        <ele>398.285</ele>
        <time>2015-08-05T08:11:07Z</time>
      </trkpt>
      <trkpt lat="44.72143" lon="1.93831">
        <ele>403.021</ele>
        <time>2015-08-05T08:11:27Z</time>
      </trkpt>
      <trkpt lat="44.72141" lon="1.93917">
        <ele>406.163</ele>
        <time>2015-08-05T08:11:47Z</time>
      </trkpt>
      <trkpt lat="44.72114" lon="1.94013">
        <ele>409.781</ele>
        <time>2015-08-05T08:12:07Z</time>
      </trkpt>
      <trkpt lat="44.72061" lon="1.94227">
        <ele>418.861</ele>
        <time>2015-08-05T08:12:27Z</time>
      </trkpt>
      <trkpt lat="44.72008" lon="1.94303">
        <ele>424.917</ele>
        <time>2015-08-05T08:12:47Z</time>
      </trkpt>
      <trkpt lat="44.71969" lon="1.94402">
        <ele>430.308</ele>
        <time>2015-08-05T08:13:07Z</time>
      </trkpt>
      <trkpt lat="44.71932" lon="1.9446">
        <ele>435.944</ele>
        <time>2015-08-05T08:13:27Z</time>
      </trkpt>
      <trkpt lat="44.71904" lon="1.94491">
        <ele>438.889</ele>
        <time>2015-08-05T08:13:47Z</time>
      </trkpt>
      <trkpt lat="44.71764" lon="1.94591">
        <ele>455.469</ele>
        <time>2015-08-05T08:14:07Z</time>
      </trkpt>
      <trkpt lat="44.71708" lon="1.94573">
        <ele>465.441</ele>
        <time>2015-08-05T08:14:27Z</time>
      </trkpt>
      <trkpt lat="44.71562" lon="1.94601">
        <ele>485.623</ele>
        <time>2015-08-05T08:14:47Z</time>
      </trkpt>
      <trkpt lat="44.71548" lon="1.94623">
        <ele>486.174</ele>
        <time>2015-08-05T08:15:07Z</time>
      </trkpt>
      <trkpt lat="44.71546" lon="1.94645">
        <ele>485.91</ele>
        <time>2015-08-05T08:15:27Z</time>
      </trkpt>
      <trkpt lat="44.71576" lon="1.94723">
        <ele>487.652</ele>
        <time>2015-08-05T08:15:47Z</time>
      </trkpt>
      <trkpt lat="44.71576" lon="1.94789">
        <ele>492.575</ele>
        <time>2015-08-05T08:16:07Z</time>
      </trkpt>
      <trkpt lat="44.71544" lon="1.94808">
        <ele>504.528</ele>
        <time>2015-08-05T08:16:27Z</time>
      </trkpt>
      <trkpt lat="44.71514" lon="1.94815">
        <ele>510.02</ele>
        <time>2015-08-05T08:16:47Z</time>
      </trkpt>
      <trkpt lat="44.71501" lon="1.94806">
        <ele>512.808</ele>
        <time>2015-08-05T08:17:07Z</time>
      </trkpt>
      <trkpt lat="44.7149" lon="1.94791">
        <ele>514.173</ele>
        <time>2015-08-05T08:17:27Z</time>
      </trkpt>
      <trkpt lat="44.7147" lon="1.94794">
        <ele>517.478</ele>
        <time>2015-08-05T08:17:47Z</time>
      </trkpt>
      <trkpt lat="44.71456" lon="1.9482">
        <ele>519.638</ele>
        <time>2015-08-05T08:18:07Z</time>
      </trkpt>
      <trkpt lat="44.71418" lon="1.94821">
        <ele>526.63</ele>
        <time>2015-08-05T08:18:27Z</time>
      </trkpt>
      <trkpt lat="44.7139" lon="1.94837">
        <ele>533.632</ele>
        <time>2015-08-05T08:18:47Z</time>
      </trkpt>
      <trkpt lat="44.71346" lon="1.94873">
        <ele>542.063</ele>
        <time>2015-08-05T08:19:07Z</time>
      </trkpt>
      <trkpt lat="44.71303" lon="1.94893">
        <ele>545.319</ele>
        <time>2015-08-05T08:19:27Z</time>
      </trkpt>
      <trkpt lat="44.71282" lon="1.94911">
        <ele>546.831</ele>
        <time>2015-08-05T08:19:47Z</time>
      </trkpt>
      <trkpt lat="44.7126" lon="1.94948">
        <ele>547.784</ele>
        <time>2015-08-05T08:20:07Z</time>
      </trkpt>
      <trkpt lat="44.71257" lon="1.95009">
        <ele>548.207</ele>
        <time>2015-08-05T08:20:27Z</time>
      </trkpt>
      <trkpt lat="44.71232" lon="1.95089">
        <ele>548.417</ele>
        <time>2015-08-05T08:20:47Z</time>
      </trkpt>
      <trkpt lat="44.71221" lon="1.95117">
        <ele>549.108</ele>
        <time>2015-08-05T08:21:07Z</time>
      </trkpt>
      <trkpt lat="44.71213" lon="1.95197">
        <ele>551.734</ele>
        <time>2015-08-05T08:21:27Z</time>
      </trkpt>
      <trkpt lat="44.71203" lon="1.95193">
        <ele>551.389</ele>
        <time>2015-08-05T08:21:47Z</time>
      </trkpt>
      <trkpt lat="44.71213" lon="1.95274">
        <ele>550.519</ele>
        <time>2015-08-05T08:22:07Z</time>
      </trkpt>
      <trkpt lat="44.71204" lon="1.95355">
        <ele>553.651</ele>
        <time>2015-08-05T08:22:27Z</time>
      </trkpt>
      <trkpt lat="44.71183" lon="1.95443">
        <ele>552.043</ele>
        <time>2015-08-05T08:22:47Z</time>
      </trkpt>
      <trkpt lat="44.71146" lon="1.95397">
        <ele>546.074</ele>
        <time>2015-08-05T08:23:07Z</time>
      </trkpt>
      <trkpt lat="44.71132" lon="1.95357">
        <ele>541.08</ele>
        <time>2015-08-05T08:23:27Z</time>
      </trkpt>
      <trkpt lat="44.71025" lon="1.95279">
        <ele>547.392</ele>
        <time>2015-08-05T08:23:47Z</time>
      </trkpt>
      <trkpt lat="44.70952" lon="1.95263">
        <ele>543.597</ele>
        <time>2015-08-05T08:24:07Z</time>
      </trkpt>
      <trkpt lat="44.70896" lon="1.95269">
        <ele>541.423</ele>
        <time>2015-08-05T08:24:27Z</time>
      </trkpt>
      <trkpt lat="44.70825" lon="1.95265">
        <ele>537.825</ele>
        <time>2015-08-05T08:24:47Z</time>
      </trkpt>
      <trkpt lat="44.70681" lon="1.9538">
        <ele>531.908</ele>
        <time>2015-08-05T08:25:07Z</time>
      </trkpt>
      <trkpt lat="44.70629" lon="1.95397">
        <ele>529.055</ele>
        <time>2015-08-05T08:25:27Z</time>
      </trkpt>
      <trkpt lat="44.706" lon="1.95424">
        <ele>526.32</ele>
        <time>2015-08-05T08:25:47Z</time>
      </trkpt>
      <trkpt lat="44.70554" lon="1.95513">
        <ele>525.72</ele>
        <time>2015-08-05T08:26:07Z</time>
      </trkpt>
      <trkpt lat="44.7049" lon="1.95542">
        <ele>521.942</ele>
        <time>2015-08-05T08:26:27Z</time>
      </trkpt>
      <trkpt lat="44.7044" lon="1.956">
        <ele>518.524</ele>
        <time>2015-08-05T08:26:47Z</time>
      </trkpt>
      <trkpt lat="44.70377" lon="1.95736">
        <ele>510.725</ele>
        <time>2015-08-05T08:27:07Z</time>
      </trkpt>
      <trkpt lat="44.70422" lon="1.95773">
        <ele>513.471</ele>
        <time>2015-08-05T08:27:27Z</time>
      </trkpt>
      <trkpt lat="44.70433" lon="1.95871">
        <ele>506.193</ele>
        <time>2015-08-05T08:27:47Z</time>
      </trkpt>
      <trkpt lat="44.70441" lon="1.95909">
        <ele>506.068</ele>
        <time>2015-08-05T08:28:07Z</time>
      </trkpt>
      <trkpt lat="44.70383" lon="1.95991">
        <ele>499.342</ele>
        <time>2015-08-05T08:28:27Z</time>
      </trkpt>
      <trkpt lat="44.70276" lon="1.96179">
        <ele>496.726</ele>
        <time>2015-08-05T08:28:47Z</time>
      </trkpt>
      <trkpt lat="44.70177" lon="1.96189">
        <ele>494.808</ele>
        <time>2015-08-05T08:29:07Z</time>
      </trkpt>
      <trkpt lat="44.70097" lon="1.96192">
        <ele>494.192</ele>
        <time>2015-08-05T08:29:27Z</time>
      </trkpt>
      <trkpt lat="44.70069" lon="1.96241">
        <ele>500.637</ele>
        <time>2015-08-05T08:29:47Z</time>
      </trkpt>
      <trkpt lat="44.70066" lon="1.96285">
        <ele>505.387</ele>
        <time>2015-08-05T08:30:07Z</time>
      </trkpt>
      <trkpt lat="44.70101" lon="1.96325">
        <ele>509.799</ele>
        <time>2015-08-05T08:30:27Z</time>
      </trkpt>
      <trkpt lat="44.70148" lon="1.96362">
        <ele>511.921</ele>
        <time>2015-08-05T08:30:47Z</time>
      </trkpt>
      <trkpt lat="44.70173" lon="1.96402">
        <ele>515.532</ele>
        <time>2015-08-05T08:31:07Z</time>
      </trkpt>
      <trkpt lat="44.70206" lon="1.96382">
        <ele>520.728</ele>
        <time>2015-08-05T08:31:27Z</time>
      </trkpt>
      <trkpt lat="44.70238" lon="1.96404">
        <ele>524.79</ele>
        <time>2015-08-05T08:31:47Z</time>
      </trkpt>
      <trkpt lat="44.70251" lon="1.96429">
        <ele>527.456</ele>
        <time>2015-08-05T08:32:07Z</time>
      </trkpt>
      <trkpt lat="44.70261" lon="1.96526">
        <ele>537.059</ele>
        <time>2015-08-05T08:32:27Z</time>
      </trkpt>
      <trkpt lat="44.7027" lon="1.96547">
        <ele>540.514</ele>
        <time>2015-08-05T08:32:47Z</time>
      </trkpt>
      <trkpt lat="44.70309" lon="1.96558">
        <ele>545.708</ele>
        <time>2015-08-05T08:33:07Z</time>
      </trkpt>
      <trkpt lat="44.70312" lon="1.96602">
        <ele>550.291</ele>
        <time>2015-08-05T08:33:27Z</time>
      </trkpt>
      <trkpt lat="44.70292" lon="1.96623">
        <ele>547.786</ele>
        <time>2015-08-05T08:33:47Z</time>
      </trkpt>
      <trkpt lat="44.7029" lon="1.96639">
        <ele>546.896</ele>
        <time>2015-08-05T08:34:07Z</time>
      </trkpt>
      <trkpt lat="44.70302" lon="1.96659">
        <ele>545.768</ele>
        <time>2015-08-05T08:34:27Z</time>
      </trkpt>
      <trkpt lat="44.70303" lon="1.96773">
        <ele>541.75</ele>
        <time>2015-08-05T08:34:47Z</time>
      </trkpt>
      <trkpt lat="44.7029" lon="1.96842">
        <ele>537.721</ele>
        <time>2015-08-05T08:35:07Z</time>
      </trkpt>
      <trkpt lat="44.70271" lon="1.96907">
        <ele>532.127</ele>
        <time>2015-08-05T08:35:27Z</time>
      </trkpt>
      <trkpt lat="44.70248" lon="1.96961">
        <ele>529.549</ele>
        <time>2015-08-05T08:35:47Z</time>
      </trkpt>
      <trkpt lat="44.70252" lon="1.97073">
        <ele>526.992</ele>
        <time>2015-08-05T08:36:07Z</time>
      </trkpt>
      <trkpt lat="44.70255" lon="1.97129">
        <ele>524.473</ele>
        <time>2015-08-05T08:36:27Z</time>
      </trkpt>
      <trkpt lat="44.70232" lon="1.97206">
        <ele>526.32</ele>
        <time>2015-08-05T08:36:47Z</time>
      </trkpt>
      <trkpt lat="44.70308" lon="1.97231">
        <ele>533.908</ele>
        <time>2015-08-05T08:37:07Z</time>
      </trkpt>
      <trkpt lat="44.70261" lon="1.97267">
        <ele>533.955</ele>
        <time>2015-08-05T08:37:27Z</time>
      </trkpt>
      <trkpt lat="44.70233" lon="1.97332">
        <ele>536.34</ele>
        <time>2015-08-05T08:37:47Z</time>
      </trkpt>
      <trkpt lat="44.702" lon="1.97431">
        <ele>540.98</ele>
        <time>2015-08-05T08:38:07Z</time>
      </trkpt>
      <trkpt lat="44.70151" lon="1.97518">
        <ele>543.512</ele>
        <time>2015-08-05T08:38:27Z</time>
      </trkpt>
      <trkpt lat="44.70104" lon="1.9759">
        <ele>543.034</ele>
        <time>2015-08-05T08:38:47Z</time>
      </trkpt>
      <trkpt lat="44.70063" lon="1.97636">
        <ele>541.555</ele>
        <time>2015-08-05T08:39:07Z</time>
      </trkpt>
      <trkpt lat="44.70015" lon="1.97683">
        <ele>540.851</ele>
        <time>2015-08-05T08:39:27Z</time>
      </trkpt>
      <trkpt lat="44.69982" lon="1.97706">
        <ele>543.453</ele>
        <time>2015-08-05T08:39:47Z</time>
      </trkpt>
      <trkpt lat="44.69921" lon="1.97731">
        <ele>540.865</ele>
        <time>2015-08-05T08:40:07Z</time>
      </trkpt>
      <trkpt lat="44.69917" lon="1.97649">
        <ele>533.468</ele>
        <time>2015-08-05T08:40:27Z</time>
      </trkpt>
      <trkpt lat="44.69919" lon="1.97606">
        <ele>530.214</ele>
        <time>2015-08-05T08:40:47Z</time>
      </trkpt>
      <trkpt lat="44.69886" lon="1.97559">
        <ele>532.008</ele>
        <time>2015-08-05T08:41:07Z</time>
      </trkpt>
      <trkpt lat="44.69821" lon="1.97556">
        <ele>533.242</ele>
        <time>2020-03-06T16:08:37Z</time>
      </trkpt>
      <trkpt lat="44.69786" lon="1.97521">
        <ele>529.927</ele>
        <time>2020-03-06T16:08:57Z</time>
      </trkpt>
      <trkpt lat="44.69739" lon="1.97509">
        <ele>518.477</ele>
        <time>2020-03-06T16:09:17Z</time>
      </trkpt>
      <trkpt lat="44.69702" lon="1.97483">
        <ele>508.729</ele>
        <time>2020-03-06T16:09:37Z</time>
      </trkpt>
      <trkpt lat="44.69671" lon="1.97412">
        <ele>499.951</ele>
        <time>2020-03-06T16:09:57Z</time>
      </trkpt>
      <trkpt lat="44.69654" lon="1.97335">
        <ele>499.332</ele>
        <time>2020-03-06T16:10:17Z</time>
      </trkpt>
      <trkpt lat="44.69625" lon="1.97309">
        <ele>493.528</ele>
        <time>2015-08-05T08:42:47Z</time>
      </trkpt>
      <trkpt lat="44.69525" lon="1.97001">
        <ele>464.73</ele>
        <time>2015-08-05T08:43:07Z</time>
      </trkpt>
      <trkpt lat="44.69477" lon="1.96964">
        <ele>457.237</ele>
        <time>2015-08-05T08:43:27Z</time>
      </trkpt>
      <trkpt lat="44.69431" lon="1.96899">
        <ele>455.149</ele>
        <time>2015-08-05T08:43:47Z</time>
      </trkpt>
      <trkpt lat="44.6938" lon="1.96858">
        <ele>451.713</ele>
        <time>2015-08-05T08:44:07Z</time>
      </trkpt>
      <trkpt lat="44.69351" lon="1.96882">
        <ele>449.208</ele>
        <time>2015-08-05T08:44:27Z</time>
      </trkpt>
      <trkpt lat="44.69298" lon="1.96875">
        <ele>441.219</ele>
        <time>2015-08-05T08:44:47Z</time>
      </trkpt>
      <trkpt lat="44.69292" lon="1.96819">
        <ele>439.384</ele>
        <time>2015-08-05T08:45:07Z</time>
      </trkpt>
      <trkpt lat="44.69246" lon="1.96804">
        <ele>435.234</ele>
        <time>2015-08-05T08:45:27Z</time>
      </trkpt>
      <trkpt lat="44.69225" lon="1.96901">
        <ele>425.086</ele>
        <time>2015-08-05T08:45:47Z</time>
      </trkpt>
      <trkpt lat="44.69293" lon="1.97051">
        <ele>428.498</ele>
        <time>2015-08-05T08:46:07Z</time>
      </trkpt>
      <trkpt lat="44.69256" lon="1.97107">
        <ele>423.239</ele>
        <time>2015-08-05T08:46:27Z</time>
      </trkpt>
      <trkpt lat="44.69257" lon="1.97187">
        <ele>425.765</ele>
        <time>2020-03-06T16:14:37Z</time>
      </trkpt>
      <trkpt lat="44.69242" lon="1.97197">
        <ele>427.257</ele>
        <time>2020-03-06T16:14:57Z</time>
      </trkpt>
      <trkpt lat="44.69181" lon="1.97173">
        <ele>425.172</ele>
        <time>2020-03-06T16:15:17Z</time>
      </trkpt>
      <trkpt lat="44.69086" lon="1.97169">
        <ele>415.913</ele>
        <time>2015-08-05T08:47:07Z</time>
      </trkpt>
      <trkpt lat="44.69019" lon="1.97205">
        <ele>422.714</ele>
        <time>2015-08-05T08:47:27Z</time>
      </trkpt>
      <trkpt lat="44.68959" lon="1.97222">
        <ele>421.308</ele>
        <time>2015-08-05T08:47:47Z</time>
      </trkpt>
      <trkpt lat="44.68927" lon="1.97263">
        <ele>423.133</ele>
        <time>2015-08-05T08:48:07Z</time>
      </trkpt>
      <trkpt lat="44.68912" lon="1.97328">
        <ele>427.938</ele>
        <time>2015-08-05T08:48:27Z</time>
      </trkpt>
      <trkpt lat="44.68922" lon="1.97417">
        <ele>430.968</ele>
        <time>2015-08-05T08:48:47Z</time>
      </trkpt>
      <trkpt lat="44.68918" lon="1.97461">
        <ele>429.38</ele>
        <time>2015-08-05T08:49:07Z</time>
      </trkpt>
      <trkpt lat="44.68885" lon="1.97532">
        <ele>426.632</ele>
        <time>2015-08-05T08:49:27Z</time>
      </trkpt>
      <trkpt lat="44.68883" lon="1.976">
        <ele>432.453</ele>
        <time>2015-08-05T08:49:47Z</time>
      </trkpt>
      <trkpt lat="44.68913" lon="1.97657">
        <ele>435.689</ele>
        <time>2015-08-05T08:50:07Z</time>
      </trkpt>
      <trkpt lat="44.68902" lon="1.97724">
        <ele>434.071</ele>
        <time>2015-08-05T08:50:27Z</time>
      </trkpt>
      <trkpt lat="44.68876" lon="1.97792">
        <ele>433.724</ele>
        <time>2015-08-05T08:50:47Z</time>
      </trkpt>
      <trkpt lat="44.68798" lon="1.97952">
        <ele>428.604</ele>
        <time>2015-08-05T08:51:07Z</time>
      </trkpt>
      <trkpt lat="44.68772" lon="1.98003">
        <ele>428.514</ele>
        <time>2015-08-05T08:51:27Z</time>
      </trkpt>
      <trkpt lat="44.6875" lon="1.98075">
        <ele>428.408</ele>
        <time>2015-08-05T08:51:47Z</time>
      </trkpt>
      <trkpt lat="44.68711" lon="1.98137">
        <ele>421.828</ele>
        <time>2015-08-05T08:52:07Z</time>
      </trkpt>
      <trkpt lat="44.68695" lon="1.9819">
        <ele>418.493</ele>
        <time>2015-08-05T08:52:27Z</time>
      </trkpt>
      <trkpt lat="44.68696" lon="1.98297">
        <ele>416.583</ele>
        <time>2015-08-05T08:52:47Z</time>
      </trkpt>
      <trkpt lat="44.6866" lon="1.98227">
        <ele>412.615</ele>
        <time>2015-08-05T08:53:07Z</time>
      </trkpt>
      <trkpt lat="44.68637" lon="1.98205">
        <ele>411.127</ele>
        <time>2015-08-05T08:53:27Z</time>
      </trkpt>
      <trkpt lat="44.68613" lon="1.98205">
        <ele>406.328</ele>
        <time>2015-08-05T08:53:47Z</time>
      </trkpt>
      <trkpt lat="44.68551" lon="1.98238">
        <ele>399.114</ele>
        <time>2015-08-05T08:54:07Z</time>
      </trkpt>
      <trkpt lat="44.68477" lon="1.98238">
        <ele>391.446</ele>
        <time>2015-08-05T08:54:27Z</time>
      </trkpt>
      <trkpt lat="44.68416" lon="1.98205">
        <ele>383.612</ele>
        <time>2015-08-05T08:54:47Z</time>
      </trkpt>
      <trkpt lat="44.68325" lon="1.98216">
        <ele>371.732</ele>
        <time>2015-08-05T08:55:07Z</time>
      </trkpt>
      <trkpt lat="44.68268" lon="1.98197">
        <ele>366.105</ele>
        <time>2015-08-05T08:55:27Z</time>
      </trkpt>
      <trkpt lat="44.68244" lon="1.98194">
        <ele>365.308</ele>
        <time>2015-08-05T08:55:47Z</time>
      </trkpt>
      <trkpt lat="44.68209" lon="1.98168">
        <ele>358.797</ele>
        <time>2015-08-05T08:56:07Z</time>
      </trkpt>
      <trkpt lat="44.68161" lon="1.98195">
        <ele>353.492</ele>
        <time>2015-08-05T08:56:27Z</time>
      </trkpt>
      <trkpt lat="44.68137" lon="1.98272">
        <ele>349.162</ele>
        <time>2015-08-05T08:56:47Z</time>
      </trkpt>
      <trkpt lat="44.68137" lon="1.9831">
        <ele>346.544</ele>
        <time>2015-08-05T08:57:07Z</time>
      </trkpt>
      <trkpt lat="44.68147" lon="1.98337">
        <ele>344.936</ele>
        <time>2015-08-05T08:57:27Z</time>
      </trkpt>
      <trkpt lat="44.68183" lon="1.98349">
        <ele>344.947</ele>
        <time>2015-08-05T08:57:47Z</time>
      </trkpt>
      <trkpt lat="44.68183" lon="1.98383">
        <ele>342.873</ele>
        <time>2015-08-05T08:58:07Z</time>
      </trkpt>
      <trkpt lat="44.68159" lon="1.9841">
        <ele>341.495</ele>
        <time>2015-08-05T08:58:27Z</time>
      </trkpt>
      <trkpt lat="44.68141" lon="1.98457">
        <ele>343.075</ele>
        <time>2015-08-05T08:58:47Z</time>
      </trkpt>
      <trkpt lat="44.68082" lon="1.9846">
        <ele>343.328</ele>
        <time>2015-08-05T08:59:07Z</time>
      </trkpt>
      <trkpt lat="44.68024" lon="1.98478">
        <ele>344.22</ele>
        <time>2015-08-05T08:59:27Z</time>
      </trkpt>
      <trkpt lat="44.67999" lon="1.98477">
        <ele>342.708</ele>
        <time>2015-08-05T08:59:47Z</time>
      </trkpt>
      <trkpt lat="44.67976" lon="1.98493">
        <ele>344.793</ele>
        <time>2015-08-05T09:00:07Z</time>
      </trkpt>
      <trkpt lat="44.67918" lon="1.98512">
        <ele>341.188</ele>
        <time>2015-08-05T09:00:27Z</time>
      </trkpt>
      <trkpt lat="44.67898" lon="1.98528">
        <ele>339.388</ele>
        <time>2015-08-05T09:00:47Z</time>
      </trkpt>
      <trkpt lat="44.67905" lon="1.98562">
        <ele>342.33</ele>
        <time>2015-08-05T09:01:07Z</time>
      </trkpt>
      <trkpt lat="44.6793" lon="1.98587">
        <ele>346.392</ele>
        <time>2015-08-05T09:01:27Z</time>
      </trkpt>
      <trkpt lat="44.6795" lon="1.98622">
        <ele>347.713</ele>
        <time>2015-08-05T09:01:47Z</time>
      </trkpt>
      <trkpt lat="44.68019" lon="1.98677">
        <ele>355.049</ele>
        <time>2015-08-05T09:02:07Z</time>
      </trkpt>
      <trkpt lat="44.68033" lon="1.98696">
        <ele>356.131</ele>
        <time>2015-08-05T09:02:27Z</time>
      </trkpt>
      <trkpt lat="44.68027" lon="1.98743">
        <ele>353.435</ele>
        <time>2015-08-05T09:02:47Z</time>
      </trkpt>
      <trkpt lat="44.67986" lon="1.9879">
        <ele>346.386</ele>
        <time>2015-08-05T09:03:07Z</time>
      </trkpt>
      <trkpt lat="44.67973" lon="1.98813">
        <ele>344.014</ele>
        <time>2015-08-05T09:03:27Z</time>
      </trkpt>
      <trkpt lat="44.67981" lon="1.98901">
        <ele>348.108</ele>
        <time>2015-08-05T09:03:47Z</time>
      </trkpt>
      <trkpt lat="44.67988" lon="1.98942">
        <ele>350.499</ele>
        <time>2015-08-05T09:04:07Z</time>
      </trkpt>
      <trkpt lat="44.67994" lon="1.98979">
        <ele>349.684</ele>
        <time>2015-08-05T09:04:27Z</time>
      </trkpt>
      <trkpt lat="44.68007" lon="1.99009">
        <ele>349.344</ele>
        <time>2015-08-05T09:04:47Z</time>
      </trkpt>
      <trkpt lat="44.68042" lon="1.99036">
        <ele>356.516</ele>
        <time>2015-08-05T09:05:07Z</time>
      </trkpt>
      <trkpt lat="44.68095" lon="1.9908">
        <ele>360.988</ele>
        <time>2015-08-05T09:05:27Z</time>
      </trkpt>
      <trkpt lat="44.68124" lon="1.99094">
        <ele>369.089</ele>
        <time>2015-08-05T09:05:47Z</time>
      </trkpt>
      <trkpt lat="44.68146" lon="1.9917">
        <ele>366.335</ele>
        <time>2015-08-05T09:06:07Z</time>
      </trkpt>
      <trkpt lat="44.68176" lon="1.99213">
        <ele>367.747</ele>
        <time>2015-08-05T09:06:27Z</time>
      </trkpt>
      <trkpt lat="44.6822" lon="1.99233">
        <ele>372.633</ele>
        <time>2015-08-05T09:06:47Z</time>
      </trkpt>
      <trkpt lat="44.68235" lon="1.99292">
        <ele>362.623</ele>
        <time>2015-08-05T09:07:07Z</time>
      </trkpt>
      <trkpt lat="44.68228" lon="1.99332">
        <ele>353.915</ele>
        <time>2015-08-05T09:07:27Z</time>
      </trkpt>
      <trkpt lat="44.68265" lon="1.99339">
        <ele>355.008</ele>
        <time>2015-08-05T09:07:47Z</time>
      </trkpt>
      <trkpt lat="44.68288" lon="1.99365">
        <ele>345.559</ele>
        <time>2015-08-05T09:08:07Z</time>
      </trkpt>
      <trkpt lat="44.68322" lon="1.99376">
        <ele>336.824</ele>
        <time>2015-08-05T09:08:27Z</time>
      </trkpt>
      <trkpt lat="44.68328" lon="1.99416">
        <ele>327.444</ele>
        <time>2015-08-05T09:08:47Z</time>
      </trkpt>
      <trkpt lat="44.68325" lon="1.99438">
        <ele>325.516</ele>
        <time>2015-08-05T09:09:07Z</time>
      </trkpt>
      <trkpt lat="44.68313" lon="1.99466">
        <ele>325.458</ele>
        <time>2015-08-05T09:09:27Z</time>
      </trkpt>
      <trkpt lat="44.6829" lon="1.99474">
        <ele>324.489</ele>
        <time>2015-08-05T09:09:47Z</time>
      </trkpt>
      <trkpt lat="44.68273" lon="1.99526">
        <ele>324.575</ele>
        <time>2015-08-05T09:10:07Z</time>
      </trkpt>
      <trkpt lat="44.6826" lon="1.99553">
        <ele>330.497</ele>
        <time>2015-08-05T09:10:27Z</time>
      </trkpt>
      <trkpt lat="44.68194" lon="1.99565">
        <ele>328.415</ele>
        <time>2015-08-05T09:10:47Z</time>
      </trkpt>
      <trkpt lat="44.68173" lon="1.99565">
        <ele>329.265</ele>
        <time>2015-08-05T09:11:07Z</time>
      </trkpt>
      <trkpt lat="44.68137" lon="1.99585">
        <ele>340.811</ele>
        <time>2015-08-05T09:11:27Z</time>
      </trkpt>
      <trkpt lat="44.68118" lon="1.99581">
        <ele>343.408</ele>
        <time>2015-08-05T09:11:47Z</time>
      </trkpt>
      <trkpt lat="44.68075" lon="1.99532">
        <ele>348.777</ele>
        <time>2020-03-06T16:40:37Z</time>
      </trkpt>
      <trkpt lat="44.68054" lon="1.99483">
        <ele>344.762</ele>
        <time>2020-03-06T16:40:57Z</time>
      </trkpt>
      <trkpt lat="44.68033" lon="1.99464">
        <ele>347.692</ele>
        <time>2020-03-06T16:41:17Z</time>
      </trkpt>
      <trkpt lat="44.67983" lon="1.99445">
        <ele>357.944</ele>
        <time>2020-03-06T16:41:37Z</time>
      </trkpt>
      <trkpt lat="44.67966" lon="1.99436">
        <ele>360.066</ele>
        <time>2020-03-06T16:41:57Z</time>
      </trkpt>
      <trkpt lat="44.67945" lon="1.99454">
        <ele>366.217</ele>
        <time>2020-03-06T16:42:17Z</time>
      </trkpt>
      <trkpt lat="44.67937" lon="1.99495">
        <ele>367.143</ele>
        <time>2020-03-06T16:42:37Z</time>
      </trkpt>
      <trkpt lat="44.67962" lon="1.99518">
        <ele>367.485</ele>
        <time>2015-08-05T09:13:47Z</time>
      </trkpt>
      <trkpt lat="44.67977" lon="1.99541">
        <ele>367.3</ele>
      </trkpt>
      <trkpt lat="44.67994" lon="1.99569">
        <ele>370.9</ele>
      </trkpt>
      <trkpt lat="44.67988" lon="1.99575">
        <ele>371.1</ele>
      </trkpt>
    </trkseg>
  </trk>
  <trk>
    <name><![CDATA[Figeac]]></name>
    <extensions>
      <line xmlns="http://www.topografix.com/GPX/gpx_style/0/2">
        <color>0000FF</color>
        <width>4</width>
      </line>
    </extensions>
    <trkseg>
      <trkpt lat="44.67986" lon="1.99573">
        <ele>370.8</ele>
      </trkpt>
      <trkpt lat="44.67986" lon="1.99573">
        <ele>370.8</ele>
      </trkpt>
      <trkpt lat="44.67986" lon="1.99573">
        <ele>370.8</ele>
      </trkpt>
      <trkpt lat="44.67986" lon="1.99573">
        <ele>370.8</ele>
      </trkpt>
      <trkpt lat="44.67986" lon="1.99573">
        <ele>370.8</ele>
      </trkpt>
      <trkpt lat="44.67991" lon="1.99568">
        <ele>370.6</ele>
      </trkpt>
      <trkpt lat="44.67962" lon="1.99518">
        <ele>367.485</ele>
        <time>2015-08-05T09:13:47Z</time>
      </trkpt>
      <trkpt lat="44.67835" lon="1.99761">
        <ele>362.412</ele>
        <time>2015-08-05T09:14:07Z</time>
      </trkpt>
      <trkpt lat="44.67662" lon="1.99889">
        <ele>365.532</ele>
        <time>2015-08-05T09:14:27Z</time>
      </trkpt>
      <trkpt lat="44.67662" lon="1.99889">
        <ele>365.532</ele>
        <time>2015-08-05T09:14:27Z</time>
      </trkpt>
      <trkpt lat="44.67662" lon="1.99889">
        <ele>365.532</ele>
        <time>2015-08-05T09:14:27Z</time>
      </trkpt>
      <trkpt lat="44.67662" lon="1.99889">
        <ele>365.532</ele>
        <time>2015-08-05T09:14:27Z</time>
      </trkpt>
      <trkpt lat="44.6758" lon="2.00012">
        <ele>364.705</ele>
        <time>2015-08-05T09:14:47Z</time>
      </trkpt>
      <trkpt lat="44.674" lon="2.00083">
        <ele>356.008</ele>
        <time>2015-08-05T09:15:07Z</time>
      </trkpt>
      <trkpt lat="44.67369" lon="2.00185">
        <ele>361.757</ele>
        <time>2015-08-05T09:15:27Z</time>
      </trkpt>
      <trkpt lat="44.67257" lon="2.00405">
        <ele>368.522</ele>
        <time>2015-08-05T09:15:47Z</time>
      </trkpt>
      <trkpt lat="44.67185" lon="2.00459">
        <ele>370.062</ele>
        <time>2015-08-05T09:16:07Z</time>
      </trkpt>
      <trkpt lat="44.67152" lon="2.00494">
        <ele>370.084</ele>
        <time>2015-08-05T09:16:27Z</time>
      </trkpt>
      <trkpt lat="44.67148" lon="2.00609">
        <ele>371.326</ele>
        <time>2015-08-05T09:16:47Z</time>
      </trkpt>
      <trkpt lat="44.67099" lon="2.00659">
        <ele>362.377</ele>
        <time>2015-08-05T09:17:07Z</time>
      </trkpt>
      <trkpt lat="44.67098" lon="2.00679">
        <ele>361.973</ele>
        <time>2015-08-05T09:17:27Z</time>
      </trkpt>
      <trkpt lat="44.67122" lon="2.00742">
        <ele>365.625</ele>
        <time>2015-08-05T09:17:47Z</time>
      </trkpt>
      <trkpt lat="44.67105" lon="2.00774">
        <ele>364.428</ele>
        <time>2015-08-05T09:18:07Z</time>
      </trkpt>
      <trkpt lat="44.67038" lon="2.00803">
        <ele>359.389</ele>
        <time>2015-08-05T09:18:27Z</time>
      </trkpt>
      <trkpt lat="44.66954" lon="2.00805">
        <ele>363.617</ele>
        <time>2015-08-05T09:18:47Z</time>
      </trkpt>
      <trkpt lat="44.66921" lon="2.00827">
        <ele>366.108</ele>
        <time>2015-08-05T09:19:07Z</time>
      </trkpt>
      <trkpt lat="44.66894" lon="2.00869">
        <ele>367.848</ele>
        <time>2015-08-05T09:19:27Z</time>
      </trkpt>
      <trkpt lat="44.66847" lon="2.00914">
        <ele>363.783</ele>
        <time>2015-08-05T09:19:47Z</time>
      </trkpt>
      <trkpt lat="44.66819" lon="2.00981">
        <ele>368.053</ele>
        <time>2015-08-05T09:20:07Z</time>
      </trkpt>
      <trkpt lat="44.66803" lon="2.00979">
        <ele>366.935</ele>
        <time>2015-08-05T09:20:27Z</time>
      </trkpt>
      <trkpt lat="44.66748" lon="2.00905">
        <ele>357.277</ele>
        <time>2015-08-05T09:20:47Z</time>
      </trkpt>
      <trkpt lat="44.6672" lon="2.00906">
        <ele>356.938</ele>
        <time>2015-08-05T09:21:07Z</time>
      </trkpt>
      <trkpt lat="44.66651" lon="2.00959">
        <ele>354.844</ele>
        <time>2015-08-05T09:21:27Z</time>
      </trkpt>
      <trkpt lat="44.66629" lon="2.00982">
        <ele>354.026</ele>
        <time>2015-08-05T09:21:47Z</time>
      </trkpt>
      <trkpt lat="44.66598" lon="2.00976">
        <ele>349.051</ele>
        <time>2015-08-05T09:22:07Z</time>
      </trkpt>
      <trkpt lat="44.66487" lon="2.01006">
        <ele>348.601</ele>
        <time>2015-08-05T09:22:27Z</time>
      </trkpt>
      <trkpt lat="44.6644" lon="2.00975">
        <ele>344.911</ele>
        <time>2015-08-05T09:22:47Z</time>
      </trkpt>
      <trkpt lat="44.66417" lon="2.00962">
        <ele>344.808</ele>
        <time>2015-08-05T09:23:07Z</time>
      </trkpt>
      <trkpt lat="44.66334" lon="2.00827">
        <ele>358.821</ele>
        <time>2015-08-05T09:23:27Z</time>
      </trkpt>
      <trkpt lat="44.66256" lon="2.00756">
        <ele>371.116</ele>
        <time>2015-08-05T09:23:47Z</time>
      </trkpt>
      <trkpt lat="44.66215" lon="2.00712">
        <ele>373.746</ele>
        <time>2015-08-05T09:24:07Z</time>
      </trkpt>
      <trkpt lat="44.66161" lon="2.00693">
        <ele>379.548</ele>
        <time>2015-08-05T09:24:27Z</time>
      </trkpt>
      <trkpt lat="44.66134" lon="2.00711">
        <ele>381.72</ele>
        <time>2015-08-05T09:24:47Z</time>
      </trkpt>
      <trkpt lat="44.66093" lon="2.00768">
        <ele>379.181</ele>
        <time>2015-08-05T09:25:07Z</time>
      </trkpt>
      <trkpt lat="44.66061" lon="2.0083">
        <ele>376.067</ele>
        <time>2015-08-05T09:25:27Z</time>
      </trkpt>
      <trkpt lat="44.6605" lon="2.0085">
        <ele>373.699</ele>
        <time>2015-08-05T09:25:47Z</time>
      </trkpt>
      <trkpt lat="44.66034" lon="2.00923">
        <ele>370.956</ele>
        <time>2015-08-05T09:26:07Z</time>
      </trkpt>
      <trkpt lat="44.66008" lon="2.00971">
        <ele>370.459</ele>
        <time>2015-08-05T09:26:27Z</time>
      </trkpt>
      <trkpt lat="44.6593" lon="2.01011">
        <ele>371.014</ele>
        <time>2015-08-05T09:26:47Z</time>
      </trkpt>
      <trkpt lat="44.65859" lon="2.01034">
        <ele>373.808</ele>
        <time>2015-08-05T09:27:07Z</time>
      </trkpt>
      <trkpt lat="44.65866" lon="2.01068">
        <ele>380.611</ele>
        <time>2015-08-05T09:27:27Z</time>
      </trkpt>
      <trkpt lat="44.65841" lon="2.0122">
        <ele>387.256</ele>
        <time>2015-08-05T09:27:47Z</time>
      </trkpt>
      <trkpt lat="44.65821" lon="2.01209">
        <ele>386.146</ele>
        <time>2015-08-05T09:28:07Z</time>
      </trkpt>
      <trkpt lat="44.65701" lon="2.01208">
        <ele>377.658</ele>
        <time>2015-08-05T09:28:27Z</time>
      </trkpt>
      <trkpt lat="44.65693" lon="2.01284">
        <ele>379.91</ele>
        <time>2015-08-05T09:28:47Z</time>
      </trkpt>
      <trkpt lat="44.65704" lon="2.01377">
        <ele>380.911</ele>
        <time>2015-08-05T09:29:07Z</time>
      </trkpt>
      <trkpt lat="44.65783" lon="2.01403">
        <ele>374.797</ele>
        <time>2015-08-05T09:29:27Z</time>
      </trkpt>
      <trkpt lat="44.65839" lon="2.01399">
        <ele>373.819</ele>
        <time>2015-08-05T09:29:47Z</time>
      </trkpt>
      <trkpt lat="44.65833" lon="2.01411">
        <ele>370.759</ele>
        <time>2015-08-05T09:30:07Z</time>
      </trkpt>
      <trkpt lat="44.65756" lon="2.01477">
        <ele>357.803</ele>
        <time>2015-08-05T09:30:27Z</time>
      </trkpt>
      <trkpt lat="44.65726" lon="2.01511">
        <ele>352.423</ele>
        <time>2015-08-05T09:30:47Z</time>
      </trkpt>
      <trkpt lat="44.65672" lon="2.01521">
        <ele>344.708</ele>
        <time>2015-08-05T09:31:07Z</time>
      </trkpt>
      <trkpt lat="44.6557" lon="2.01489">
        <ele>336.221</ele>
        <time>2015-08-05T09:31:27Z</time>
      </trkpt>
      <trkpt lat="44.65515" lon="2.01527">
        <ele>322.756</ele>
        <time>2015-08-05T09:31:47Z</time>
      </trkpt>
      <trkpt lat="44.6545" lon="2.0159">
        <ele>313.576</ele>
        <time>2015-08-05T09:32:07Z</time>
      </trkpt>
      <trkpt lat="44.65339" lon="2.01643">
        <ele>303.418</ele>
        <time>2015-08-05T09:32:27Z</time>
      </trkpt>
      <trkpt lat="44.65302" lon="2.01646">
        <ele>301.02</ele>
        <time>2015-08-05T09:32:47Z</time>
      </trkpt>
      <trkpt lat="44.65277" lon="2.01638">
        <ele>302.041</ele>
        <time>2015-08-05T09:33:07Z</time>
      </trkpt>
      <trkpt lat="44.65225" lon="2.01648">
        <ele>292.187</ele>
        <time>2015-08-05T09:33:27Z</time>
      </trkpt>
      <trkpt lat="44.65124" lon="2.01652">
        <ele>280.969</ele>
        <time>2015-08-05T09:33:47Z</time>
      </trkpt>
      <trkpt lat="44.65015" lon="2.01669">
        <ele>272.497</ele>
        <time>2015-08-05T09:34:07Z</time>
      </trkpt>
      <trkpt lat="44.64998" lon="2.0169">
        <ele>270.423</ele>
        <time>2015-08-05T09:34:27Z</time>
      </trkpt>
      <trkpt lat="44.64985" lon="2.01731">
        <ele>269.125</ele>
        <time>2015-08-05T09:34:47Z</time>
      </trkpt>
      <trkpt lat="44.64957" lon="2.01767">
        <ele>267.508</ele>
        <time>2015-08-05T09:35:07Z</time>
      </trkpt>
      <trkpt lat="44.64954" lon="2.01782">
        <ele>267.555</ele>
        <time>2015-08-05T09:35:27Z</time>
      </trkpt>
      <trkpt lat="44.64913" lon="2.01862">
        <ele>264.67</ele>
        <time>2020-03-06T17:04:57Z</time>
      </trkpt>
      <trkpt lat="44.64829" lon="2.01986">
        <ele>265.83</ele>
        <time>2020-03-06T17:05:17Z</time>
      </trkpt>
      <trkpt lat="44.64776" lon="2.02046">
        <ele>269.162</ele>
        <time>2020-03-06T17:05:37Z</time>
      </trkpt>
      <trkpt lat="44.64692" lon="2.02076">
        <ele>259.794</ele>
        <time>2020-03-06T17:05:57Z</time>
      </trkpt>
      <trkpt lat="44.64655" lon="2.0208">
        <ele>260.325</ele>
        <time>2020-03-06T17:06:17Z</time>
      </trkpt>
      <trkpt lat="44.64554" lon="2.02142">
        <ele>257.161</ele>
        <time>2015-08-05T09:37:27Z</time>
      </trkpt>
      <trkpt lat="44.64524" lon="2.02178">
        <ele>257.373</ele>
        <time>2015-08-05T09:37:47Z</time>
      </trkpt>
      <trkpt lat="44.64473" lon="2.02219">
        <ele>255.981</ele>
        <time>2015-08-05T09:38:07Z</time>
      </trkpt>
      <trkpt lat="44.6445" lon="2.02229">
        <ele>257.361</ele>
        <time>2015-08-05T09:38:27Z</time>
      </trkpt>
      <trkpt lat="44.64374" lon="2.02291">
        <ele>257.517</ele>
        <time>2015-08-05T09:38:47Z</time>
      </trkpt>
      <trkpt lat="44.64278" lon="2.02359">
        <ele>259.808</ele>
        <time>2015-08-05T09:39:07Z</time>
      </trkpt>
      <trkpt lat="44.64248" lon="2.02378">
        <ele>263.654</ele>
        <time>2015-08-05T09:39:27Z</time>
      </trkpt>
      <trkpt lat="44.64222" lon="2.02399">
        <ele>261.959</ele>
        <time>2015-08-05T09:39:47Z</time>
      </trkpt>
      <trkpt lat="44.64168" lon="2.02497">
        <ele>261.949</ele>
        <time>2015-08-05T09:40:07Z</time>
      </trkpt>
      <trkpt lat="44.64123" lon="2.02542">
        <ele>258.631</ele>
        <time>2015-08-05T09:40:27Z</time>
      </trkpt>
      <trkpt lat="44.64072" lon="2.02614">
        <ele>256.343</ele>
        <time>2015-08-05T09:40:47Z</time>
      </trkpt>
      <trkpt lat="44.63975" lon="2.02697">
        <ele>252.814</ele>
        <time>2015-08-05T09:41:07Z</time>
      </trkpt>
      <trkpt lat="44.63786" lon="2.02823">
        <ele>254.75</ele>
        <time>2015-08-05T09:41:27Z</time>
      </trkpt>
      <trkpt lat="44.6376" lon="2.02825">
        <ele>256.142</ele>
        <time>2015-08-05T09:41:47Z</time>
      </trkpt>
      <trkpt lat="44.63721" lon="2.02803">
        <ele>251.548</ele>
        <time>2015-08-05T09:42:07Z</time>
      </trkpt>
      <trkpt lat="44.63615" lon="2.02794">
        <ele>248.861</ele>
        <time>2015-08-05T09:42:27Z</time>
      </trkpt>
      <trkpt lat="44.63585" lon="2.02783">
        <ele>246.117</ele>
        <time>2015-08-05T09:42:47Z</time>
      </trkpt>
      <trkpt lat="44.63467" lon="2.02829">
        <ele>240.608</ele>
        <time>2015-08-05T09:43:07Z</time>
      </trkpt>
      <trkpt lat="44.63454" lon="2.02846">
        <ele>240.24</ele>
        <time>2015-08-05T09:43:27Z</time>
      </trkpt>
      <trkpt lat="44.634" lon="2.02883">
        <ele>239.115</ele>
        <time>2015-08-05T09:43:47Z</time>
      </trkpt>
      <trkpt lat="44.63373" lon="2.02916">
        <ele>239.985</ele>
        <time>2015-08-05T09:44:07Z</time>
      </trkpt>
      <trkpt lat="44.63342" lon="2.02927">
        <ele>243.347</ele>
        <time>2015-08-05T09:44:27Z</time>
      </trkpt>
      <trkpt lat="44.63315" lon="2.02912">
        <ele>242.329</ele>
        <time>2015-08-05T09:44:47Z</time>
      </trkpt>
      <trkpt lat="44.63272" lon="2.02867">
        <ele>239.23</ele>
        <time>2015-08-05T09:45:07Z</time>
      </trkpt>
      <trkpt lat="44.63207" lon="2.02868">
        <ele>242.676</ele>
        <time>2015-08-05T09:45:27Z</time>
      </trkpt>
      <trkpt lat="44.63141" lon="2.02911">
        <ele>239.688</ele>
        <time>2015-08-05T09:45:47Z</time>
      </trkpt>
      <trkpt lat="44.63009" lon="2.02923">
        <ele>237.222</ele>
        <time>2015-08-05T09:46:07Z</time>
      </trkpt>
      <trkpt lat="44.62925" lon="2.02972">
        <ele>243.162</ele>
        <time>2015-08-05T09:46:27Z</time>
      </trkpt>
      <trkpt lat="44.62816" lon="2.02934">
        <ele>233.408</ele>
        <time>2015-08-05T09:46:47Z</time>
      </trkpt>
      <trkpt lat="44.62728" lon="2.03001">
        <ele>233.708</ele>
        <time>2015-08-05T09:47:07Z</time>
      </trkpt>
      <trkpt lat="44.62626" lon="2.02963">
        <ele>233.798</ele>
        <time>2015-08-05T09:47:27Z</time>
      </trkpt>
      <trkpt lat="44.62589" lon="2.02972">
        <ele>229.923</ele>
        <time>2015-08-05T09:47:47Z</time>
      </trkpt>
      <trkpt lat="44.62441" lon="2.03033">
        <ele>221.413</ele>
        <time>2015-08-05T09:48:07Z</time>
      </trkpt>
      <trkpt lat="44.62382" lon="2.0304">
        <ele>221.385</ele>
        <time>2015-08-05T09:48:27Z</time>
      </trkpt>
      <trkpt lat="44.62288" lon="2.03041">
        <ele>225.747</ele>
        <time>2015-08-05T09:48:47Z</time>
      </trkpt>
      <trkpt lat="44.62227" lon="2.03019">
        <ele>222.428</ele>
        <time>2015-08-05T09:49:07Z</time>
      </trkpt>
      <trkpt lat="44.62152" lon="2.0303">
        <ele>222.394</ele>
        <time>2015-08-05T09:49:27Z</time>
      </trkpt>
      <trkpt lat="44.62122" lon="2.0306">
        <ele>224.426</ele>
        <time>2015-08-05T09:49:47Z</time>
      </trkpt>
      <trkpt lat="44.62113" lon="2.03095">
        <ele>229.136</ele>
        <time>2015-08-05T09:50:07Z</time>
      </trkpt>
      <trkpt lat="44.6196" lon="2.03085">
        <ele>223.017</ele>
        <time>2015-08-05T09:50:27Z</time>
      </trkpt>
      <trkpt lat="44.61855" lon="2.03136">
        <ele>221.018</ele>
        <time>2015-08-05T09:50:47Z</time>
      </trkpt>
      <trkpt lat="44.61787" lon="2.03146">
        <ele>219.408</ele>
        <time>2015-08-05T09:51:07Z</time>
      </trkpt>
      <trkpt lat="44.61723" lon="2.03192">
        <ele>226.339</ele>
        <time>2015-08-05T09:51:27Z</time>
      </trkpt>
      <trkpt lat="44.61687" lon="2.0318">
        <ele>225.944</ele>
        <time>2015-08-05T09:51:47Z</time>
      </trkpt>
      <trkpt lat="44.6161" lon="2.03047">
        <ele>209.794</ele>
        <time>2015-08-05T09:52:07Z</time>
      </trkpt>
      <trkpt lat="44.61442" lon="2.0305">
        <ele>205.046</ele>
        <time>2015-08-05T09:52:27Z</time>
      </trkpt>
      <trkpt lat="44.61395" lon="2.03036">
        <ele>202.448</ele>
        <time>2015-08-05T09:52:47Z</time>
      </trkpt>
      <trkpt lat="44.61277" lon="2.03039">
        <ele>204.279</ele>
        <time>2015-08-05T09:53:07Z</time>
      </trkpt>
      <trkpt lat="44.6123" lon="2.03017">
        <ele>205.315</ele>
        <time>2015-08-05T09:53:27Z</time>
      </trkpt>
      <trkpt lat="44.61199" lon="2.03012">
        <ele>207.367</ele>
        <time>2015-08-05T09:53:47Z</time>
      </trkpt>
      <trkpt lat="44.61155" lon="2.02982">
        <ele>205.559</ele>
        <time>2015-08-05T09:54:07Z</time>
      </trkpt>
      <trkpt lat="44.61114" lon="2.02956">
        <ele>204.703</ele>
        <time>2015-08-05T09:54:27Z</time>
      </trkpt>
      <trkpt lat="44.61075" lon="2.02944">
        <ele>202.123</ele>
        <time>2015-08-05T09:54:47Z</time>
      </trkpt>
      <trkpt lat="44.61064" lon="2.02926">
        <ele>200.708</ele>
        <time>2015-08-05T09:55:07Z</time>
      </trkpt>
      <trkpt lat="44.61041" lon="2.02958">
        <ele>200.251</ele>
        <time>2015-08-05T09:55:27Z</time>
      </trkpt>
      <trkpt lat="44.61013" lon="2.03028">
        <ele>199.416</ele>
        <time>2015-08-05T09:55:47Z</time>
      </trkpt>
      <trkpt lat="44.61001" lon="2.03096">
        <ele>200.116</ele>
        <time>2015-08-05T09:56:07Z</time>
      </trkpt>
      <trkpt lat="44.60992" lon="2.03184">
        <ele>203.278</ele>
        <time>2015-08-05T09:56:27Z</time>
      </trkpt>
      <trkpt lat="44.60847" lon="2.03134">
        <ele>198.95</ele>
        <time>2015-08-05T09:56:47Z</time>
      </trkpt>
      <trkpt lat="44.60738" lon="2.03107">
        <ele>192.651</ele>
        <time>2020-03-06T17:26:17Z</time>
      </trkpt>
      <trkpt lat="44.60807" lon="2.02615">
        <ele>194.5</ele>
      </trkpt>
    </trkseg>
  </trk>
  <trk>
    <name><![CDATA[Montredon]]></name>
    <extensions>
      <line xmlns="http://www.topografix.com/GPX/gpx_style/0/2">
        <color>00ff2a</color>
        <width>4</width>
      </line>
    </extensions>
    <trkseg>
      <trkpt lat="44.60738" lon="2.03107">
        <ele>192.651</ele>
        <time>2020-03-06T17:26:17Z</time>
      </trkpt>
      <trkpt lat="44.60738" lon="2.03107">
        <ele>192.651</ele>
        <time>2020-03-06T17:26:17Z</time>
      </trkpt>
      <trkpt lat="44.60738" lon="2.03107">
        <ele>192.651</ele>
        <time>2020-03-06T17:26:17Z</time>
      </trkpt>
      <trkpt lat="44.60738" lon="2.03107">
        <ele>192.651</ele>
        <time>2020-03-06T17:26:17Z</time>
      </trkpt>
      <trkpt lat="44.60738" lon="2.03107">
        <ele>192.651</ele>
        <time>2020-03-06T17:26:17Z</time>
      </trkpt>
      <trkpt lat="44.60738" lon="2.03107">
        <ele>192.651</ele>
        <time>2020-03-06T17:26:17Z</time>
      </trkpt>
      <trkpt lat="44.60738" lon="2.03107">
        <ele>192.651</ele>
        <time>2020-03-06T17:26:17Z</time>
      </trkpt>
      <trkpt lat="44.60708" lon="2.03324">
        <ele>198.767</ele>
        <time>2020-03-06T17:26:37Z</time>
      </trkpt>
      <trkpt lat="44.60709" lon="2.03388">
        <ele>200.519</ele>
        <time>2020-03-06T17:26:57Z</time>
      </trkpt>
      <trkpt lat="44.60655" lon="2.03399">
        <ele>198.429</ele>
        <time>2020-11-25T21:15:20Z</time>
      </trkpt>
      <trkpt lat="44.60672" lon="2.03552">
        <ele>198.6</ele>
        <time>2020-11-25T21:15:40Z</time>
      </trkpt>
      <trkpt lat="44.60669" lon="2.03596">
        <ele>198.82</ele>
        <time>2020-11-25T21:16:00Z</time>
      </trkpt>
      <trkpt lat="44.6065" lon="2.03645">
        <ele>199.908</ele>
        <time>2020-11-25T21:16:20Z</time>
      </trkpt>
      <trkpt lat="44.60715" lon="2.0431">
        <ele>206.188</ele>
        <time>2020-11-25T21:16:40Z</time>
      </trkpt>
      <trkpt lat="44.60746" lon="2.04466">
        <ele>204.913</ele>
        <time>2020-11-25T21:17:00Z</time>
      </trkpt>
      <trkpt lat="44.6078" lon="2.04743">
        <ele>207.173</ele>
        <time>2020-11-25T21:17:20Z</time>
      </trkpt>
      <trkpt lat="44.60813" lon="2.04817">
        <ele>203.595</ele>
        <time>2020-11-25T21:17:40Z</time>
      </trkpt>
      <trkpt lat="44.6089" lon="2.04956">
        <ele>200.147</ele>
        <time>2020-11-25T21:18:00Z</time>
      </trkpt>
      <trkpt lat="44.60898" lon="2.0499">
        <ele>204.368</ele>
        <time>2020-11-25T21:18:20Z</time>
      </trkpt>
      <trkpt lat="44.60917" lon="2.05013">
        <ele>204.934</ele>
        <time>2020-11-25T21:18:40Z</time>
      </trkpt>
      <trkpt lat="44.60919" lon="2.05068">
        <ele>205.676</ele>
        <time>2020-11-25T21:19:00Z</time>
      </trkpt>
      <trkpt lat="44.60954" lon="2.051">
        <ele>207.633</ele>
        <time>2020-11-25T21:19:20Z</time>
      </trkpt>
      <trkpt lat="44.60993" lon="2.05084">
        <ele>207.823</ele>
        <time>2020-11-25T21:19:40Z</time>
      </trkpt>
      <trkpt lat="44.60976" lon="2.05138">
        <ele>212.515</ele>
        <time>2020-11-25T21:20:00Z</time>
      </trkpt>
      <trkpt lat="44.60977" lon="2.05196">
        <ele>218.408</ele>
        <time>2020-11-25T21:20:20Z</time>
      </trkpt>
      <trkpt lat="44.60993" lon="2.05266">
        <ele>230.099</ele>
        <time>2020-11-25T21:20:40Z</time>
      </trkpt>
      <trkpt lat="44.60986" lon="2.05352">
        <ele>241.634</ele>
        <time>2020-11-25T21:21:00Z</time>
      </trkpt>
      <trkpt lat="44.61028" lon="2.05535">
        <ele>269.384</ele>
        <time>2020-11-25T21:21:20Z</time>
      </trkpt>
      <trkpt lat="44.61037" lon="2.05562">
        <ele>271.686</ele>
        <time>2020-11-25T21:21:40Z</time>
      </trkpt>
      <trkpt lat="44.61043" lon="2.05604">
        <ele>273.918</ele>
        <time>2020-11-25T21:22:00Z</time>
      </trkpt>
      <trkpt lat="44.6104" lon="2.05697">
        <ele>278.699</ele>
        <time>2020-11-25T21:22:20Z</time>
      </trkpt>
      <trkpt lat="44.61065" lon="2.05801">
        <ele>294.485</ele>
        <time>2020-11-25T21:22:40Z</time>
      </trkpt>
      <trkpt lat="44.61066" lon="2.05907">
        <ele>298.617</ele>
        <time>2020-11-25T21:23:00Z</time>
      </trkpt>
      <trkpt lat="44.61034" lon="2.06118">
        <ele>307.568</ele>
        <time>2020-11-25T21:23:20Z</time>
      </trkpt>
      <trkpt lat="44.61052" lon="2.06229">
        <ele>313.642</ele>
        <time>2020-11-25T21:23:40Z</time>
      </trkpt>
      <trkpt lat="44.61063" lon="2.06326">
        <ele>320.326</ele>
        <time>2020-11-25T21:24:00Z</time>
      </trkpt>
      <trkpt lat="44.61093" lon="2.06473">
        <ele>328.008</ele>
        <time>2020-11-25T21:24:20Z</time>
      </trkpt>
      <trkpt lat="44.61082" lon="2.06759">
        <ele>336.312</ele>
        <time>2020-11-25T21:24:40Z</time>
      </trkpt>
      <trkpt lat="44.6106" lon="2.07071">
        <ele>361.097</ele>
        <time>2020-11-25T21:25:00Z</time>
      </trkpt>
      <trkpt lat="44.6103" lon="2.0719">
        <ele>363.147</ele>
        <time>2020-11-25T21:25:20Z</time>
      </trkpt>
      <trkpt lat="44.61006" lon="2.07237">
        <ele>362.549</ele>
        <time>2020-11-25T21:25:40Z</time>
      </trkpt>
      <trkpt lat="44.61005" lon="2.07281">
        <ele>362.311</ele>
        <time>2020-11-25T21:26:00Z</time>
      </trkpt>
      <trkpt lat="44.61036" lon="2.07556">
        <ele>371.792</ele>
        <time>2020-11-25T21:26:20Z</time>
      </trkpt>
      <trkpt lat="44.61036" lon="2.07637">
        <ele>376.398</ele>
        <time>2020-11-25T21:26:40Z</time>
      </trkpt>
      <trkpt lat="44.61179" lon="2.07845">
        <ele>379.02</ele>
        <time>2020-11-25T21:27:00Z</time>
      </trkpt>
      <trkpt lat="44.61218" lon="2.07881">
        <ele>379.835</ele>
        <time>2020-11-25T21:27:20Z</time>
      </trkpt>
      <trkpt lat="44.6124" lon="2.07915">
        <ele>379.786</ele>
        <time>2020-11-25T21:27:40Z</time>
      </trkpt>
      <trkpt lat="44.61128" lon="2.07945">
        <ele>377.614</ele>
        <time>2020-11-25T21:28:00Z</time>
      </trkpt>
      <trkpt lat="44.61134" lon="2.08007">
        <ele>375.508</ele>
        <time>2015-08-05T10:24:07Z</time>
      </trkpt>
      <trkpt lat="44.61215" lon="2.08148">
        <ele>373.679</ele>
        <time>2015-08-05T10:24:27Z</time>
      </trkpt>
      <trkpt lat="44.61226" lon="2.08191">
        <ele>375.284</ele>
        <time>2015-08-05T10:24:47Z</time>
      </trkpt>
      <trkpt lat="44.61217" lon="2.08248">
        <ele>377.054</ele>
        <time>2015-08-05T10:25:07Z</time>
      </trkpt>
      <trkpt lat="44.61198" lon="2.08325">
        <ele>376.416</ele>
        <time>2015-08-05T10:25:27Z</time>
      </trkpt>
      <trkpt lat="44.61188" lon="2.08445">
        <ele>380.898</ele>
        <time>2015-08-05T10:25:47Z</time>
      </trkpt>
      <trkpt lat="44.61198" lon="2.08512">
        <ele>378.969</ele>
        <time>2015-08-05T10:26:07Z</time>
      </trkpt>
      <trkpt lat="44.61216" lon="2.08536">
        <ele>378.965</ele>
        <time>2015-08-05T10:26:27Z</time>
      </trkpt>
      <trkpt lat="44.6121" lon="2.0858">
        <ele>377.397</ele>
        <time>2015-08-05T10:26:47Z</time>
      </trkpt>
      <trkpt lat="44.61173" lon="2.08633">
        <ele>373.548</ele>
        <time>2015-08-05T10:27:07Z</time>
      </trkpt>
      <trkpt lat="44.61155" lon="2.08671">
        <ele>372.761</ele>
        <time>2015-08-05T10:27:27Z</time>
      </trkpt>
      <trkpt lat="44.61235" lon="2.08691">
        <ele>380.017</ele>
        <time>2015-08-05T10:27:47Z</time>
      </trkpt>
      <trkpt lat="44.61295" lon="2.08694">
        <ele>379.808</ele>
        <time>2015-08-05T10:28:07Z</time>
      </trkpt>
      <trkpt lat="44.6132" lon="2.08734">
        <ele>378.39</ele>
        <time>2015-08-05T10:28:27Z</time>
      </trkpt>
      <trkpt lat="44.61386" lon="2.08695">
        <ele>382.755</ele>
        <time>2015-08-05T10:28:47Z</time>
      </trkpt>
      <trkpt lat="44.61399" lon="2.0874">
        <ele>380.045</ele>
        <time>2015-08-05T10:29:07Z</time>
      </trkpt>
      <trkpt lat="44.61424" lon="2.08867">
        <ele>383.097</ele>
        <time>2015-08-05T10:29:27Z</time>
      </trkpt>
      <trkpt lat="44.61434" lon="2.0889">
        <ele>384.069</ele>
        <time>2015-08-05T10:29:47Z</time>
      </trkpt>
      <trkpt lat="44.61452" lon="2.08904">
        <ele>384.81</ele>
        <time>2015-08-05T10:30:07Z</time>
      </trkpt>
      <trkpt lat="44.61513" lon="2.08995">
        <ele>377.746</ele>
        <time>2015-08-05T10:30:27Z</time>
      </trkpt>
      <trkpt lat="44.61517" lon="2.09026">
        <ele>375.168</ele>
        <time>2015-08-05T10:30:47Z</time>
      </trkpt>
      <trkpt lat="44.6147" lon="2.09591">
        <ele>363.093</ele>
        <time>2015-08-05T10:31:07Z</time>
      </trkpt>
      <trkpt lat="44.61482" lon="2.09642">
        <ele>358.865</ele>
        <time>2015-08-05T10:31:27Z</time>
      </trkpt>
      <trkpt lat="44.61655" lon="2.09886">
        <ele>349.121</ele>
        <time>2015-08-05T10:31:47Z</time>
      </trkpt>
      <trkpt lat="44.61745" lon="2.10085">
        <ele>343.908</ele>
        <time>2015-08-05T10:32:07Z</time>
      </trkpt>
      <trkpt lat="44.61774" lon="2.10188">
        <ele>342.855</ele>
        <time>2015-08-05T10:32:27Z</time>
      </trkpt>
      <trkpt lat="44.61839" lon="2.10453">
        <ele>340.72</ele>
        <time>2015-08-05T10:32:47Z</time>
      </trkpt>
      <trkpt lat="44.61939" lon="2.10596">
        <ele>350.35</ele>
        <time>2015-08-05T10:33:07Z</time>
      </trkpt>
      <trkpt lat="44.62" lon="2.10757">
        <ele>343.292</ele>
        <time>2015-08-05T10:33:27Z</time>
      </trkpt>
      <trkpt lat="44.61875" lon="2.10833">
        <ele>340.524</ele>
        <time>2015-08-05T10:33:47Z</time>
      </trkpt>
      <trkpt lat="44.61733" lon="2.10835">
        <ele>342.675</ele>
        <time>2020-03-06T18:01:17Z</time>
      </trkpt>
      <trkpt lat="44.61645" lon="2.10979">
        <ele>341.351</ele>
        <time>2015-08-05T10:34:27Z</time>
      </trkpt>
      <trkpt lat="44.61635" lon="2.10978">
        <ele>341.763</ele>
        <time>2015-08-05T10:34:47Z</time>
      </trkpt>
      <trkpt lat="44.6151" lon="2.11059">
        <ele>338.062</ele>
        <time>2015-08-05T10:35:07Z</time>
      </trkpt>
      <trkpt lat="44.61447" lon="2.1111">
        <ele>329.383</ele>
        <time>2015-08-05T10:35:27Z</time>
      </trkpt>
      <trkpt lat="44.61252" lon="2.11235">
        <ele>312.611</ele>
        <time>2015-08-05T10:35:47Z</time>
      </trkpt>
      <trkpt lat="44.61223" lon="2.1123">
        <ele>311.708</ele>
        <time>2015-08-05T10:36:07Z</time>
      </trkpt>
      <trkpt lat="44.61189" lon="2.11314">
        <ele>308.992</ele>
        <time>2015-08-05T10:36:27Z</time>
      </trkpt>
      <trkpt lat="44.61155" lon="2.11356">
        <ele>306.287</ele>
        <time>2015-08-05T10:36:47Z</time>
      </trkpt>
      <trkpt lat="44.61041" lon="2.11521">
        <ele>292.597</ele>
        <time>2015-08-05T10:37:07Z</time>
      </trkpt>
      <trkpt lat="44.60996" lon="2.1159">
        <ele>288.599</ele>
        <time>2015-08-05T10:37:27Z</time>
      </trkpt>
      <trkpt lat="44.60959" lon="2.11674">
        <ele>290.611</ele>
        <time>2015-08-05T10:37:47Z</time>
      </trkpt>
      <trkpt lat="44.60953" lon="2.11745">
        <ele>296.942</ele>
        <time>2015-08-05T10:38:07Z</time>
      </trkpt>
      <trkpt lat="44.60977" lon="2.11845">
        <ele>294.818</ele>
        <time>2015-08-05T10:38:27Z</time>
      </trkpt>
      <trkpt lat="44.60993" lon="2.1183">
        <ele>292.27</ele>
        <time>2015-08-05T10:38:47Z</time>
      </trkpt>
      <trkpt lat="44.61045" lon="2.11818">
        <ele>285.095</ele>
        <time>2015-08-05T10:39:07Z</time>
      </trkpt>
      <trkpt lat="44.61075" lon="2.11793">
        <ele>283.349</ele>
        <time>2015-08-05T10:39:27Z</time>
      </trkpt>
      <trkpt lat="44.61124" lon="2.11806">
        <ele>282.523</ele>
        <time>2015-08-05T10:39:47Z</time>
      </trkpt>
      <trkpt lat="44.6114" lon="2.11889">
        <ele>278.908</ele>
        <time>2015-08-05T10:40:07Z</time>
      </trkpt>
      <trkpt lat="44.61168" lon="2.11989">
        <ele>277.765</ele>
        <time>2020-11-25T21:44:40Z</time>
      </trkpt>
      <trkpt lat="44.61217" lon="2.11957">
        <ele>273.74</ele>
        <time>2020-11-25T21:45:00Z</time>
      </trkpt>
      <trkpt lat="44.61243" lon="2.11972">
        <ele>272.59</ele>
        <time>2020-11-25T21:45:20Z</time>
      </trkpt>
      <trkpt lat="44.61359" lon="2.11832">
        <ele>282.032</ele>
        <time>2020-11-25T21:45:40Z</time>
      </trkpt>
      <trkpt lat="44.61477" lon="2.11895">
        <ele>290.054</ele>
        <time>2020-11-25T21:46:00Z</time>
      </trkpt>
      <trkpt lat="44.61506" lon="2.11897">
        <ele>289.765</ele>
        <time>2020-11-25T21:46:20Z</time>
      </trkpt>
      <trkpt lat="44.61552" lon="2.12152">
        <ele>277.621</ele>
        <time>2020-11-25T21:46:40Z</time>
      </trkpt>
      <trkpt lat="44.61659" lon="2.12292">
        <ele>286.023</ele>
        <time>2020-11-25T21:47:00Z</time>
      </trkpt>
      <trkpt lat="44.61704" lon="2.12337">
        <ele>286.885</ele>
        <time>2020-11-25T21:47:20Z</time>
      </trkpt>
      <trkpt lat="44.61756" lon="2.12358">
        <ele>284.489</ele>
        <time>2020-11-25T21:47:40Z</time>
      </trkpt>
      <trkpt lat="44.61813" lon="2.12452">
        <ele>288.717</ele>
        <time>2020-11-25T21:48:00Z</time>
      </trkpt>
      <trkpt lat="44.61839" lon="2.12455">
        <ele>289.408</ele>
        <time>2020-11-25T21:48:20Z</time>
      </trkpt>
      <trkpt lat="44.61914" lon="2.12442">
        <ele>285.924</ele>
        <time>2020-11-25T21:48:40Z</time>
      </trkpt>
      <trkpt lat="44.61969" lon="2.12489">
        <ele>285.339</ele>
        <time>2020-11-25T21:49:00Z</time>
      </trkpt>
      <trkpt lat="44.62014" lon="2.12663">
        <ele>277.749</ele>
        <time>2020-11-25T21:49:20Z</time>
      </trkpt>
      <trkpt lat="44.6206" lon="2.12667">
        <ele>276.981</ele>
        <time>2020-11-25T21:49:40Z</time>
      </trkpt>
      <trkpt lat="44.62108" lon="2.12701">
        <ele>267.613</ele>
        <time>2020-11-25T21:50:00Z</time>
      </trkpt>
      <trkpt lat="44.62265" lon="2.12706">
        <ele>278.634</ele>
        <time>2020-11-25T21:50:20Z</time>
      </trkpt>
      <trkpt lat="44.6227" lon="2.1269">
        <ele>279.07</ele>
        <time>2020-11-25T21:50:40Z</time>
      </trkpt>
      <trkpt lat="44.62295" lon="2.12696">
        <ele>279.082</ele>
        <time>2020-11-25T21:51:00Z</time>
      </trkpt>
      <trkpt lat="44.6232" lon="2.12665">
        <ele>279.617</ele>
        <time>2020-11-25T21:51:20Z</time>
      </trkpt>
      <trkpt lat="44.62346" lon="2.12655">
        <ele>278.187</ele>
        <time>2020-11-25T21:51:40Z</time>
      </trkpt>
      <trkpt lat="44.62355" lon="2.12744">
        <ele>277.015</ele>
        <time>2020-11-25T21:52:00Z</time>
      </trkpt>
      <trkpt lat="44.6235" lon="2.13127">
        <ele>261.708</ele>
        <time>2020-11-25T21:52:20Z</time>
      </trkpt>
      <trkpt lat="44.62329" lon="2.13294">
        <ele>254.417</ele>
        <time>2020-11-25T21:52:40Z</time>
      </trkpt>
      <trkpt lat="44.62332" lon="2.13389">
        <ele>254.932</ele>
        <time>2020-11-25T21:53:00Z</time>
      </trkpt>
      <trkpt lat="44.62351" lon="2.13452">
        <ele>253.372</ele>
        <time>2020-11-25T21:53:20Z</time>
      </trkpt>
      <trkpt lat="44.62382" lon="2.13501">
        <ele>252.624</ele>
        <time>2020-11-25T21:53:40Z</time>
      </trkpt>
      <trkpt lat="44.62406" lon="2.13612">
        <ele>254.236</ele>
        <time>2020-11-25T21:54:00Z</time>
      </trkpt>
      <trkpt lat="44.62458" lon="2.13739">
        <ele>248.737</ele>
        <time>2015-08-05T10:53:27Z</time>
      </trkpt>
      <trkpt lat="44.62458" lon="2.13739">
        <ele>248.783</ele>
        <time>2015-08-05T10:53:27Z</time>
      </trkpt>
      <trkpt lat="44.62497" lon="2.13887">
        <ele>250.045</ele>
        <time>2015-08-05T10:53:47Z</time>
      </trkpt>
      <trkpt lat="44.62521" lon="2.14019">
        <ele>256.612</ele>
        <time>2015-08-05T10:54:07Z</time>
      </trkpt>
      <trkpt lat="44.62524" lon="2.14055">
        <ele>258.132</ele>
        <time>2015-08-05T10:54:27Z</time>
      </trkpt>
      <trkpt lat="44.62538" lon="2.14109">
        <ele>257.105</ele>
        <time>2015-08-05T10:54:47Z</time>
      </trkpt>
      <trkpt lat="44.62544" lon="2.14183">
        <ele>254.408</ele>
        <time>2015-08-05T10:55:07Z</time>
      </trkpt>
      <trkpt lat="44.62593" lon="2.14265">
        <ele>246.327</ele>
        <time>2015-08-05T10:55:27Z</time>
      </trkpt>
      <trkpt lat="44.62624" lon="2.14379">
        <ele>243.752</ele>
        <time>2015-08-05T10:55:47Z</time>
      </trkpt>
      <trkpt lat="44.62608" lon="2.14462">
        <ele>248.522</ele>
        <time>2015-08-05T10:56:07Z</time>
      </trkpt>
      <trkpt lat="44.62593" lon="2.1474">
        <ele>266.824</ele>
        <time>2015-08-05T10:56:27Z</time>
      </trkpt>
      <trkpt lat="44.62559" lon="2.14843">
        <ele>274.436</ele>
        <time>2015-08-05T10:56:47Z</time>
      </trkpt>
      <trkpt lat="44.62579" lon="2.14968">
        <ele>279.217</ele>
        <time>2015-08-05T10:57:07Z</time>
      </trkpt>
      <trkpt lat="44.62576" lon="2.15007">
        <ele>280.923</ele>
        <time>2015-08-05T10:57:27Z</time>
      </trkpt>
      <trkpt lat="44.6256" lon="2.14986">
        <ele>281.165</ele>
        <time>2015-08-05T10:57:47Z</time>
      </trkpt>
      <trkpt lat="44.62418" lon="2.14947">
        <ele>277.118</ele>
        <time>2015-08-05T10:58:07Z</time>
      </trkpt>
      <trkpt lat="44.62286" lon="2.14818">
        <ele>277.498</ele>
        <time>2015-08-05T10:58:27Z</time>
      </trkpt>
      <trkpt lat="44.62223" lon="2.14802">
        <ele>270.717</ele>
        <time>2015-08-05T10:58:47Z</time>
      </trkpt>
      <trkpt lat="44.6219" lon="2.14752">
        <ele>262.408</ele>
        <time>2015-08-05T10:59:07Z</time>
      </trkpt>
      <trkpt lat="44.62176" lon="2.14797">
        <ele>265.527</ele>
        <time>2015-08-05T10:59:27Z</time>
      </trkpt>
      <trkpt lat="44.62162" lon="2.14895">
        <ele>271.592</ele>
        <time>2015-08-05T10:59:47Z</time>
      </trkpt>
      <trkpt lat="44.6213" lon="2.15023">
        <ele>277.352</ele>
        <time>2015-08-05T11:00:07Z</time>
      </trkpt>
      <trkpt lat="44.6213" lon="2.15068">
        <ele>281.264</ele>
        <time>2015-08-05T11:00:27Z</time>
      </trkpt>
      <trkpt lat="44.62096" lon="2.15146">
        <ele>285.576</ele>
        <time>2015-08-05T11:00:47Z</time>
      </trkpt>
      <trkpt lat="44.62056" lon="2.15231">
        <ele>285.337</ele>
        <time>2015-08-05T11:01:07Z</time>
      </trkpt>
      <trkpt lat="44.62021" lon="2.15287">
        <ele>288.883</ele>
        <time>2015-08-05T11:01:27Z</time>
      </trkpt>
      <trkpt lat="44.62021" lon="2.15616">
        <ele>285.945</ele>
        <time>2015-08-05T11:01:47Z</time>
      </trkpt>
      <trkpt lat="44.61998" lon="2.1576">
        <ele>278.646</ele>
        <time>2015-08-05T11:02:07Z</time>
      </trkpt>
      <trkpt lat="44.61963" lon="2.15918">
        <ele>280.188</ele>
        <time>2015-08-05T11:02:27Z</time>
      </trkpt>
      <trkpt lat="44.61933" lon="2.15939">
        <ele>283.016</ele>
        <time>2015-08-05T11:02:47Z</time>
      </trkpt>
      <trkpt lat="44.61839" lon="2.16032">
        <ele>285.408</ele>
        <time>2015-08-05T11:03:07Z</time>
      </trkpt>
      <trkpt lat="44.61797" lon="2.16056">
        <ele>285.45</ele>
        <time>2015-08-05T11:03:27Z</time>
      </trkpt>
      <trkpt lat="44.61796" lon="2.16093">
        <ele>286.045</ele>
        <time>2015-08-05T11:03:47Z</time>
      </trkpt>
      <trkpt lat="44.61711" lon="2.16168">
        <ele>286.165</ele>
        <time>2015-08-05T11:04:07Z</time>
      </trkpt>
      <trkpt lat="44.61678" lon="2.16205">
        <ele>290.897</ele>
        <time>2015-08-05T11:04:27Z</time>
      </trkpt>
      <trkpt lat="44.61641" lon="2.16243">
        <ele>292.119</ele>
        <time>2015-08-05T11:04:47Z</time>
      </trkpt>
      <trkpt lat="44.61626" lon="2.16205">
        <ele>289.31</ele>
        <time>2015-08-05T11:05:07Z</time>
      </trkpt>
      <trkpt lat="44.61594" lon="2.16147">
        <ele>285.116</ele>
        <time>2015-08-05T11:05:27Z</time>
      </trkpt>
      <trkpt lat="44.61564" lon="2.1617">
        <ele>286.188</ele>
        <time>2015-08-05T11:05:47Z</time>
      </trkpt>
      <trkpt lat="44.61493" lon="2.16261">
        <ele>284.358</ele>
        <time>2015-08-05T11:06:07Z</time>
      </trkpt>
      <trkpt lat="44.61401" lon="2.16271">
        <ele>276.652</ele>
        <time>2015-08-05T11:06:27Z</time>
      </trkpt>
      <trkpt lat="44.61393" lon="2.16313">
        <ele>275.417</ele>
        <time>2015-08-05T11:06:47Z</time>
      </trkpt>
      <trkpt lat="44.61371" lon="2.16357">
        <ele>277.208</ele>
        <time>2020-03-06T18:34:17Z</time>
      </trkpt>
      <trkpt lat="44.61392" lon="2.16431">
        <ele>281.131</ele>
        <time>2015-08-05T11:07:47Z</time>
      </trkpt>
      <trkpt lat="44.61453" lon="2.16394">
        <ele>283.746</ele>
        <time>2015-08-05T11:08:07Z</time>
      </trkpt>
      <trkpt lat="44.61511" lon="2.16387">
        <ele>288.326</ele>
        <time>2015-08-05T11:08:27Z</time>
      </trkpt>
      <trkpt lat="44.61589" lon="2.16396">
        <ele>287.488</ele>
        <time>2015-08-05T11:08:47Z</time>
      </trkpt>
      <trkpt lat="44.61611" lon="2.16453">
        <ele>296.99</ele>
        <time>2015-08-05T11:09:07Z</time>
      </trkpt>
      <trkpt lat="44.61608" lon="2.16488">
        <ele>301.781</ele>
        <time>2015-08-05T11:09:27Z</time>
      </trkpt>
      <trkpt lat="44.61633" lon="2.1653">
        <ele>309.117</ele>
        <time>2015-08-05T11:09:47Z</time>
      </trkpt>
      <trkpt lat="44.61678" lon="2.16677">
        <ele>325.219</ele>
        <time>2015-08-05T11:10:07Z</time>
      </trkpt>
      <trkpt lat="44.61686" lon="2.16838">
        <ele>341.446</ele>
        <time>2015-08-05T11:10:27Z</time>
      </trkpt>
      <trkpt lat="44.61697" lon="2.16858">
        <ele>341.088</ele>
        <time>2015-08-05T11:10:47Z</time>
      </trkpt>
      <trkpt lat="44.61732" lon="2.16842">
        <ele>340.416</ele>
        <time>2015-08-05T11:11:07Z</time>
      </trkpt>
      <trkpt lat="44.61752" lon="2.16821">
        <ele>339.408</ele>
        <time>2015-08-05T11:11:27Z</time>
      </trkpt>
      <trkpt lat="44.61798" lon="2.16813">
        <ele>342.35</ele>
        <time>2015-08-05T11:11:47Z</time>
      </trkpt>
      <trkpt lat="44.61861" lon="2.16832">
        <ele>346.815</ele>
        <time>2015-08-05T11:12:07Z</time>
      </trkpt>
      <trkpt lat="44.61899" lon="2.16838">
        <ele>347.235</ele>
        <time>2015-08-05T11:12:27Z</time>
      </trkpt>
      <trkpt lat="44.6193" lon="2.1686">
        <ele>345.667</ele>
        <time>2015-08-05T11:12:47Z</time>
      </trkpt>
      <trkpt lat="44.61922" lon="2.16893">
        <ele>346.359</ele>
        <time>2015-08-05T11:13:07Z</time>
      </trkpt>
      <trkpt lat="44.61906" lon="2.17068">
        <ele>352.67</ele>
        <time>2015-08-05T11:13:27Z</time>
      </trkpt>
      <trkpt lat="44.61922" lon="2.17182">
        <ele>357.646</ele>
        <time>2015-08-05T11:13:47Z</time>
      </trkpt>
      <trkpt lat="44.61993" lon="2.1739">
        <ele>365.868</ele>
        <time>2015-08-05T11:14:07Z</time>
      </trkpt>
      <trkpt lat="44.61996" lon="2.17435">
        <ele>368.396</ele>
        <time>2015-08-05T11:14:27Z</time>
      </trkpt>
      <trkpt lat="44.61919" lon="2.176">
        <ele>377.431</ele>
        <time>2015-08-05T11:14:47Z</time>
      </trkpt>
      <trkpt lat="44.61896" lon="2.1761">
        <ele>377.224</ele>
        <time>2015-08-05T11:15:07Z</time>
      </trkpt>
      <trkpt lat="44.61886" lon="2.17672">
        <ele>377.708</ele>
        <time>2015-08-05T11:15:27Z</time>
      </trkpt>
      <trkpt lat="44.61871" lon="2.17694">
        <ele>376.445</ele>
        <time>2015-08-05T11:15:47Z</time>
      </trkpt>
      <trkpt lat="44.61871" lon="2.17724">
        <ele>375.78</ele>
        <time>2015-08-05T11:16:07Z</time>
      </trkpt>
      <trkpt lat="44.61846" lon="2.17768">
        <ele>374.97</ele>
        <time>2015-08-05T11:16:27Z</time>
      </trkpt>
      <trkpt lat="44.61829" lon="2.17778">
        <ele>375.292</ele>
        <time>2015-08-05T11:16:47Z</time>
      </trkpt>
      <trkpt lat="44.61788" lon="2.17776">
        <ele>378.854</ele>
        <time>2015-08-05T11:17:07Z</time>
      </trkpt>
      <trkpt lat="44.61715" lon="2.17915">
        <ele>390.495</ele>
        <time>2015-08-05T11:17:27Z</time>
      </trkpt>
      <trkpt lat="44.61682" lon="2.1801">
        <ele>390.581</ele>
        <time>2015-08-05T11:17:47Z</time>
      </trkpt>
      <trkpt lat="44.61683" lon="2.18036">
        <ele>388.113</ele>
        <time>2015-08-05T11:18:07Z</time>
      </trkpt>
      <trkpt lat="44.61801" lon="2.1814">
        <ele>385.766</ele>
        <time>2015-08-05T11:18:27Z</time>
      </trkpt>
      <trkpt lat="44.61884" lon="2.18152">
        <ele>382.029</ele>
        <time>2015-08-05T11:18:47Z</time>
      </trkpt>
      <trkpt lat="44.61915" lon="2.18168">
        <ele>379.021</ele>
        <time>2015-08-05T11:19:07Z</time>
      </trkpt>
      <trkpt lat="44.61934" lon="2.18201">
        <ele>379.608</ele>
        <time>2015-08-05T11:19:27Z</time>
      </trkpt>
      <trkpt lat="44.61919" lon="2.18284">
        <ele>375.622</ele>
        <time>2015-08-05T11:19:47Z</time>
      </trkpt>
      <trkpt lat="44.61912" lon="2.18594">
        <ele>360.017</ele>
        <time>2015-08-05T11:20:07Z</time>
      </trkpt>
      <trkpt lat="44.61914" lon="2.18666">
        <ele>363.997</ele>
        <time>2015-08-05T11:20:27Z</time>
      </trkpt>
      <trkpt lat="44.61896" lon="2.1873">
        <ele>366.569</ele>
        <time>2015-08-05T11:20:47Z</time>
      </trkpt>
      <trkpt lat="44.61863" lon="2.1877">
        <ele>372.551</ele>
        <time>2015-08-05T11:21:07Z</time>
      </trkpt>
      <trkpt lat="44.61834" lon="2.18781">
        <ele>374.692</ele>
        <time>2015-08-05T11:21:27Z</time>
      </trkpt>
      <trkpt lat="44.61749" lon="2.1878">
        <ele>389.638</ele>
        <time>2015-08-05T11:21:47Z</time>
      </trkpt>
      <trkpt lat="44.61723" lon="2.18798">
        <ele>395.37</ele>
        <time>2015-08-05T11:22:07Z</time>
      </trkpt>
      <trkpt lat="44.61694" lon="2.18855">
        <ele>392.857</ele>
        <time>2015-08-05T11:22:27Z</time>
      </trkpt>
      <trkpt lat="44.61771" lon="2.18996">
        <ele>411.5</ele>
        <time>2015-08-05T11:22:47Z</time>
      </trkpt>
      <trkpt lat="44.61835" lon="2.19049">
        <ele>415.62</ele>
        <time>2015-08-05T11:23:07Z</time>
      </trkpt>
      <trkpt lat="44.61829" lon="2.1909">
        <ele>415.608</ele>
        <time>2015-08-05T11:23:27Z</time>
      </trkpt>
      <trkpt lat="44.61789" lon="2.19183">
        <ele>405.861</ele>
        <time>2015-08-05T11:23:47Z</time>
      </trkpt>
      <trkpt lat="44.61748" lon="2.19238">
        <ele>397.816</ele>
        <time>2015-08-05T11:24:07Z</time>
      </trkpt>
      <trkpt lat="44.61706" lon="2.19267">
        <ele>396.846</ele>
        <time>2015-08-05T11:24:27Z</time>
      </trkpt>
    </trkseg>
  </trk>
  <trk>
    <name><![CDATA[Decazeville]]></name>
    <extensions>
      <line xmlns="http://www.topografix.com/GPX/gpx_style/0/2">
        <color>00d9ff</color>
        <width>4</width>
      </line>
    </extensions>
    <trkseg>
      <trkpt lat="44.61706" lon="2.19267">
        <ele>396.846</ele>
        <time>2015-08-05T11:24:27Z</time>
      </trkpt>
      <trkpt lat="44.61706" lon="2.19267">
        <ele>396.846</ele>
        <time>2015-08-05T11:24:27Z</time>
      </trkpt>
      <trkpt lat="44.61706" lon="2.19267">
        <ele>396.846</ele>
        <time>2015-08-05T11:24:27Z</time>
      </trkpt>
      <trkpt lat="44.61706" lon="2.19267">
        <ele>396.846</ele>
        <time>2015-08-05T11:24:27Z</time>
      </trkpt>
      <trkpt lat="44.61706" lon="2.19267">
        <ele>396.846</ele>
        <time>2015-08-05T11:24:27Z</time>
      </trkpt>
      <trkpt lat="44.61694" lon="2.19362">
        <ele>402.218</ele>
        <time>2015-08-05T11:24:47Z</time>
      </trkpt>
      <trkpt lat="44.61699" lon="2.1946">
        <ele>404.69</ele>
        <time>2015-08-05T11:25:07Z</time>
      </trkpt>
      <trkpt lat="44.61694" lon="2.19553">
        <ele>405.231</ele>
        <time>2015-08-05T11:25:27Z</time>
      </trkpt>
      <trkpt lat="44.61674" lon="2.19625">
        <ele>403.347</ele>
        <time>2015-08-05T11:25:47Z</time>
      </trkpt>
      <trkpt lat="44.61638" lon="2.19665">
        <ele>410.169</ele>
        <time>2015-08-05T11:26:07Z</time>
      </trkpt>
      <trkpt lat="44.61631" lon="2.19681">
        <ele>410.372</ele>
        <time>2015-08-05T11:26:27Z</time>
      </trkpt>
      <trkpt lat="44.61641" lon="2.19725">
        <ele>406.413</ele>
        <time>2015-08-05T11:26:47Z</time>
      </trkpt>
      <trkpt lat="44.61637" lon="2.19764">
        <ele>405.214</ele>
        <time>2015-08-05T11:27:07Z</time>
      </trkpt>
      <trkpt lat="44.61602" lon="2.19837">
        <ele>402.108</ele>
        <time>2015-08-05T11:27:27Z</time>
      </trkpt>
      <trkpt lat="44.61596" lon="2.19865">
        <ele>400.913</ele>
        <time>2015-08-05T11:27:47Z</time>
      </trkpt>
      <trkpt lat="44.61578" lon="2.19898">
        <ele>402.948</ele>
        <time>2015-08-05T11:28:07Z</time>
      </trkpt>
      <trkpt lat="44.61581" lon="2.19922">
        <ele>403.178</ele>
        <time>2015-08-05T11:28:27Z</time>
      </trkpt>
      <trkpt lat="44.61636" lon="2.19959">
        <ele>399.88</ele>
        <time>2015-08-05T11:28:47Z</time>
      </trkpt>
      <trkpt lat="44.61659" lon="2.19992">
        <ele>396.762</ele>
        <time>2015-08-05T11:29:07Z</time>
      </trkpt>
      <trkpt lat="44.61683" lon="2.20117">
        <ele>400.063</ele>
        <time>2015-08-05T11:29:27Z</time>
      </trkpt>
      <trkpt lat="44.61681" lon="2.20202">
        <ele>397.979</ele>
        <time>2015-08-05T11:29:47Z</time>
      </trkpt>
      <trkpt lat="44.61662" lon="2.20483">
        <ele>395.291</ele>
        <time>2015-08-05T11:30:07Z</time>
      </trkpt>
      <trkpt lat="44.61591" lon="2.20693">
        <ele>384.976</ele>
        <time>2015-08-05T11:30:27Z</time>
      </trkpt>
      <trkpt lat="44.61572" lon="2.20804">
        <ele>374.39</ele>
        <time>2015-08-05T11:30:47Z</time>
      </trkpt>
      <trkpt lat="44.61544" lon="2.20866">
        <ele>368.319</ele>
        <time>2015-08-05T11:31:07Z</time>
      </trkpt>
      <trkpt lat="44.61496" lon="2.20944">
        <ele>362.208</ele>
        <time>2015-08-05T11:31:27Z</time>
      </trkpt>
      <trkpt lat="44.61483" lon="2.21015">
        <ele>358.853</ele>
        <time>2015-08-05T11:31:47Z</time>
      </trkpt>
      <trkpt lat="44.61422" lon="2.2114">
        <ele>348.138</ele>
        <time>2015-08-05T11:32:07Z</time>
      </trkpt>
      <trkpt lat="44.61404" lon="2.21204">
        <ele>346.158</ele>
        <time>2015-08-05T11:32:27Z</time>
      </trkpt>
      <trkpt lat="44.6139" lon="2.21271">
        <ele>341.32</ele>
        <time>2015-08-05T11:32:47Z</time>
      </trkpt>
      <trkpt lat="44.61372" lon="2.2133">
        <ele>338.112</ele>
        <time>2020-03-06T18:59:57Z</time>
      </trkpt>
      <trkpt lat="44.61308" lon="2.21428">
        <ele>335.233</ele>
        <time>2020-03-06T19:00:17Z</time>
      </trkpt>
      <trkpt lat="44.61315" lon="2.21504">
        <ele>333.179</ele>
        <time>2020-03-06T19:00:37Z</time>
      </trkpt>
      <trkpt lat="44.61317" lon="2.21584">
        <ele>328.741</ele>
        <time>2020-03-06T19:00:57Z</time>
      </trkpt>
      <trkpt lat="44.61293" lon="2.21644">
        <ele>329.192</ele>
        <time>2015-08-05T11:35:07Z</time>
      </trkpt>
      <trkpt lat="44.61276" lon="2.21767">
        <ele>330.273</ele>
        <time>2015-08-05T11:35:27Z</time>
      </trkpt>
      <trkpt lat="44.61263" lon="2.21792">
        <ele>328.72</ele>
        <time>2015-08-05T11:35:47Z</time>
      </trkpt>
      <trkpt lat="44.61185" lon="2.21901">
        <ele>324.708</ele>
        <time>2015-08-05T11:36:07Z</time>
      </trkpt>
      <trkpt lat="44.61038" lon="2.22167">
        <ele>321.445</ele>
        <time>2015-08-05T11:36:27Z</time>
      </trkpt>
      <trkpt lat="44.61027" lon="2.22245">
        <ele>322.23</ele>
        <time>2015-08-05T11:36:47Z</time>
      </trkpt>
      <trkpt lat="44.61021" lon="2.22318">
        <ele>320.09</ele>
        <time>2015-08-05T11:37:07Z</time>
      </trkpt>
      <trkpt lat="44.6101" lon="2.22346">
        <ele>319.062</ele>
        <time>2015-08-05T11:37:27Z</time>
      </trkpt>
      <trkpt lat="44.61001" lon="2.22359">
        <ele>319.314</ele>
        <time>2015-08-05T11:37:47Z</time>
      </trkpt>
      <trkpt lat="44.60954" lon="2.22375">
        <ele>325.335</ele>
        <time>2015-08-05T11:38:07Z</time>
      </trkpt>
      <trkpt lat="44.60872" lon="2.22429">
        <ele>322.841</ele>
        <time>2015-08-05T11:38:27Z</time>
      </trkpt>
      <trkpt lat="44.60624" lon="2.22529">
        <ele>331.573</ele>
        <time>2015-08-05T11:38:47Z</time>
      </trkpt>
      <trkpt lat="44.60537" lon="2.22547">
        <ele>332.538</ele>
        <time>2015-08-05T11:39:07Z</time>
      </trkpt>
      <trkpt lat="44.60537" lon="2.22586">
        <ele>334.77</ele>
        <time>2015-08-05T11:39:27Z</time>
      </trkpt>
      <trkpt lat="44.60496" lon="2.22611">
        <ele>333.317</ele>
        <time>2015-08-05T11:39:47Z</time>
      </trkpt>
      <trkpt lat="44.60454" lon="2.22649">
        <ele>328.708</ele>
        <time>2015-08-05T11:40:07Z</time>
      </trkpt>
      <trkpt lat="44.60368" lon="2.22653">
        <ele>320.779</ele>
        <time>2015-08-05T11:40:27Z</time>
      </trkpt>
      <trkpt lat="44.60299" lon="2.22677">
        <ele>309.984</ele>
        <time>2015-08-05T11:40:47Z</time>
      </trkpt>
      <trkpt lat="44.60209" lon="2.22694">
        <ele>297.624</ele>
        <time>2015-08-05T11:41:07Z</time>
      </trkpt>
      <trkpt lat="44.60117" lon="2.22717">
        <ele>288.956</ele>
        <time>2015-08-05T11:41:27Z</time>
      </trkpt>
      <trkpt lat="44.60066" lon="2.22717">
        <ele>281.188</ele>
        <time>2015-08-05T11:41:47Z</time>
      </trkpt>
      <trkpt lat="44.60027" lon="2.22731">
        <ele>275.979</ele>
        <time>2015-08-05T11:42:07Z</time>
      </trkpt>
      <trkpt lat="44.59972" lon="2.22699">
        <ele>268.855</ele>
        <time>2015-08-05T11:42:27Z</time>
      </trkpt>
      <trkpt lat="44.5991" lon="2.2269">
        <ele>264.047</ele>
        <time>2015-08-05T11:42:47Z</time>
      </trkpt>
      <trkpt lat="44.59804" lon="2.2266">
        <ele>246.568</ele>
        <time>2015-08-05T11:44:07Z</time>
      </trkpt>
      <trkpt lat="44.59714" lon="2.22625">
        <ele>232.142</ele>
        <time>2015-08-05T11:44:27Z</time>
      </trkpt>
      <trkpt lat="44.59676" lon="2.2264">
        <ele>228.826</ele>
        <time>2015-08-05T11:44:47Z</time>
      </trkpt>
      <trkpt lat="44.59657" lon="2.22665">
        <ele>221.508</ele>
        <time>2015-08-05T11:45:07Z</time>
      </trkpt>
      <trkpt lat="44.59618" lon="2.22685">
        <ele>213.272</ele>
        <time>2015-08-05T11:45:27Z</time>
      </trkpt>
      <trkpt lat="44.59583" lon="2.22672">
        <ele>209.127</ele>
        <time>2015-08-05T11:45:47Z</time>
      </trkpt>
      <trkpt lat="44.59539" lon="2.2267">
        <ele>198.987</ele>
        <time>2015-08-05T11:46:07Z</time>
      </trkpt>
      <trkpt lat="44.5952" lon="2.22658">
        <ele>197.099</ele>
        <time>2015-08-05T11:46:27Z</time>
      </trkpt>
      <trkpt lat="44.59484" lon="2.22662">
        <ele>194.411</ele>
        <time>2015-08-05T11:46:47Z</time>
      </trkpt>
      <trkpt lat="44.59473" lon="2.22656">
        <ele>193.792</ele>
        <time>2015-08-05T11:47:07Z</time>
      </trkpt>
      <trkpt lat="44.59455" lon="2.22685">
        <ele>193.638</ele>
        <time>2015-08-05T11:47:27Z</time>
      </trkpt>
      <trkpt lat="44.59366" lon="2.22725">
        <ele>191.64</ele>
        <time>2015-08-05T11:47:47Z</time>
      </trkpt>
      <trkpt lat="44.59264" lon="2.22804">
        <ele>199.358</ele>
        <time>2015-08-05T11:48:07Z</time>
      </trkpt>
      <trkpt lat="44.59208" lon="2.22814">
        <ele>200.352</ele>
        <time>2015-08-05T11:48:27Z</time>
      </trkpt>
      <trkpt lat="44.59203" lon="2.22844">
        <ele>205.917</ele>
        <time>2015-08-05T11:48:47Z</time>
      </trkpt>
      <trkpt lat="44.59188" lon="2.22868">
        <ele>207.508</ele>
        <time>2015-08-05T11:49:07Z</time>
      </trkpt>
      <trkpt lat="44.59158" lon="2.22957">
        <ele>211.371</ele>
        <time>2015-08-05T11:49:27Z</time>
      </trkpt>
      <trkpt lat="44.59123" lon="2.23035">
        <ele>213.316</ele>
        <time>2015-08-05T11:49:47Z</time>
      </trkpt>
      <trkpt lat="44.59153" lon="2.23129">
        <ele>217.046</ele>
        <time>2015-08-05T11:50:07Z</time>
      </trkpt>
      <trkpt lat="44.59113" lon="2.23184">
        <ele>216.468</ele>
        <time>2015-08-05T11:50:27Z</time>
      </trkpt>
      <trkpt lat="44.591" lon="2.23223">
        <ele>213.79</ele>
        <time>2015-08-05T11:50:47Z</time>
      </trkpt>
      <trkpt lat="44.59001" lon="2.2324">
        <ele>200.771</ele>
        <time>2015-08-05T11:51:07Z</time>
      </trkpt>
      <trkpt lat="44.58925" lon="2.23232">
        <ele>194.857</ele>
        <time>2015-08-05T11:51:27Z</time>
      </trkpt>
      <trkpt lat="44.58898" lon="2.23185">
        <ele>193.869</ele>
        <time>2015-08-05T11:51:47Z</time>
      </trkpt>
      <trkpt lat="44.58827" lon="2.2314">
        <ele>189.618</ele>
        <time>2015-08-05T11:52:07Z</time>
      </trkpt>
      <trkpt lat="44.58803" lon="2.23117">
        <ele>188.198</ele>
        <time>2015-08-05T11:52:27Z</time>
      </trkpt>
      <trkpt lat="44.58774" lon="2.23095">
        <ele>189.117</ele>
        <time>2015-08-05T11:52:47Z</time>
      </trkpt>
      <trkpt lat="44.58748" lon="2.231">
        <ele>189.308</ele>
        <time>2015-08-05T11:53:07Z</time>
      </trkpt>
      <trkpt lat="44.58725" lon="2.23004">
        <ele>185.927</ele>
        <time>2015-08-05T11:53:27Z</time>
      </trkpt>
      <trkpt lat="44.58689" lon="2.22956">
        <ele>184.282</ele>
        <time>2015-08-05T11:53:47Z</time>
      </trkpt>
      <trkpt lat="44.58522" lon="2.22861">
        <ele>188.292</ele>
        <time>2015-08-05T11:54:07Z</time>
      </trkpt>
      <trkpt lat="44.58496" lon="2.22863">
        <ele>189.784</ele>
        <time>2015-08-05T11:54:27Z</time>
      </trkpt>
      <trkpt lat="44.58473" lon="2.22888">
        <ele>193.046</ele>
        <time>2015-08-05T11:54:47Z</time>
      </trkpt>
      <trkpt lat="44.58474" lon="2.22869">
        <ele>193.417</ele>
        <time>2015-08-05T11:55:07Z</time>
      </trkpt>
      <trkpt lat="44.58487" lon="2.22834">
        <ele>192.863</ele>
        <time>2015-08-05T11:55:27Z</time>
      </trkpt>
      <trkpt lat="44.58474" lon="2.22809">
        <ele>199.295</ele>
        <time>2015-08-05T11:55:47Z</time>
      </trkpt>
      <trkpt lat="44.58462" lon="2.22765">
        <ele>212.531</ele>
        <time>2015-08-05T11:56:07Z</time>
      </trkpt>
      <trkpt lat="44.58367" lon="2.22558">
        <ele>249.561</ele>
        <time>2015-08-05T11:56:27Z</time>
      </trkpt>
      <trkpt lat="44.58323" lon="2.2247">
        <ele>261.807</ele>
        <time>2015-08-05T11:56:47Z</time>
      </trkpt>
      <trkpt lat="44.58294" lon="2.22433">
        <ele>266.508</ele>
        <time>2015-08-05T11:57:07Z</time>
      </trkpt>
      <trkpt lat="44.58268" lon="2.22446">
        <ele>271.789</ele>
        <time>2020-11-25T22:56:40Z</time>
      </trkpt>
      <trkpt lat="44.58269" lon="2.22599">
        <ele>287.314</ele>
        <time>2020-11-25T22:57:00Z</time>
      </trkpt>
      <trkpt lat="44.58212" lon="2.22677">
        <ele>301.624</ele>
        <time>2015-08-05T12:01:07Z</time>
      </trkpt>
      <trkpt lat="44.58194" lon="2.22773">
        <ele>304.276</ele>
        <time>2015-08-05T12:01:27Z</time>
      </trkpt>
      <trkpt lat="44.5815" lon="2.22846">
        <ele>311.328</ele>
        <time>2015-08-05T12:01:47Z</time>
      </trkpt>
      <trkpt lat="44.58088" lon="2.22841">
        <ele>321.819</ele>
        <time>2015-08-05T12:02:07Z</time>
      </trkpt>
      <trkpt lat="44.58054" lon="2.22857">
        <ele>325.285</ele>
        <time>2015-08-05T12:02:27Z</time>
      </trkpt>
      <trkpt lat="44.58006" lon="2.22978">
        <ele>331.577</ele>
        <time>2015-08-05T12:02:47Z</time>
      </trkpt>
      <trkpt lat="44.57987" lon="2.23042">
        <ele>330.934</ele>
        <time>2015-08-05T12:03:07Z</time>
      </trkpt>
      <trkpt lat="44.57968" lon="2.2309">
        <ele>329.455</ele>
        <time>2015-08-05T12:03:27Z</time>
      </trkpt>
      <trkpt lat="44.57893" lon="2.23201">
        <ele>328.61</ele>
        <time>2015-08-05T12:03:47Z</time>
      </trkpt>
      <trkpt lat="44.57805" lon="2.23375">
        <ele>341.508</ele>
        <time>2015-08-05T12:04:07Z</time>
      </trkpt>
      <trkpt lat="44.57787" lon="2.23451">
        <ele>345.799</ele>
        <time>2015-08-05T12:04:27Z</time>
      </trkpt>
      <trkpt lat="44.57747" lon="2.23531">
        <ele>350.484</ele>
        <time>2015-08-05T12:04:47Z</time>
      </trkpt>
      <trkpt lat="44.57693" lon="2.23685">
        <ele>348.334</ele>
        <time>2015-08-05T12:05:07Z</time>
      </trkpt>
      <trkpt lat="44.57679" lon="2.23789">
        <ele>354.456</ele>
        <time>2015-08-05T12:05:27Z</time>
      </trkpt>
      <trkpt lat="44.57678" lon="2.23873">
        <ele>350.268</ele>
        <time>2015-08-05T12:05:47Z</time>
      </trkpt>
      <trkpt lat="44.57646" lon="2.23929">
        <ele>352.999</ele>
        <time>2015-08-05T12:06:07Z</time>
      </trkpt>
      <trkpt lat="44.57634" lon="2.23967">
        <ele>353.395</ele>
        <time>2015-08-05T12:06:27Z</time>
      </trkpt>
      <trkpt lat="44.57558" lon="2.23984">
        <ele>350.097</ele>
        <time>2015-08-05T12:06:47Z</time>
      </trkpt>
      <trkpt lat="44.57498" lon="2.24024">
        <ele>345.982</ele>
        <time>2015-08-05T12:07:07Z</time>
      </trkpt>
      <trkpt lat="44.57497" lon="2.24046">
        <ele>345.343</ele>
        <time>2015-08-05T12:07:27Z</time>
      </trkpt>
      <trkpt lat="44.57512" lon="2.24051">
        <ele>344.917</ele>
        <time>2015-08-05T12:07:47Z</time>
      </trkpt>
      <trkpt lat="44.57487" lon="2.24113">
        <ele>342.108</ele>
        <time>2015-08-05T12:08:07Z</time>
      </trkpt>
      <trkpt lat="44.57393" lon="2.24237">
        <ele>332.644</ele>
        <time>2015-08-05T12:08:27Z</time>
      </trkpt>
      <trkpt lat="44.57323" lon="2.24382">
        <ele>312.819</ele>
        <time>2015-08-05T12:08:47Z</time>
      </trkpt>
      <trkpt lat="44.5734" lon="2.24451">
        <ele>305.449</ele>
        <time>2015-08-05T12:09:07Z</time>
      </trkpt>
      <trkpt lat="44.57304" lon="2.24537">
        <ele>296.361</ele>
        <time>2015-08-05T12:09:27Z</time>
      </trkpt>
      <trkpt lat="44.57264" lon="2.24558">
        <ele>293.143</ele>
        <time>2015-08-05T12:09:47Z</time>
      </trkpt>
      <trkpt lat="44.57288" lon="2.24573">
        <ele>290.224</ele>
        <time>2015-08-05T12:10:07Z</time>
      </trkpt>
      <trkpt lat="44.57209" lon="2.2459">
        <ele>284.21</ele>
        <time>2015-08-05T12:10:27Z</time>
      </trkpt>
      <trkpt lat="44.57127" lon="2.24657">
        <ele>277.242</ele>
        <time>2015-08-05T12:10:47Z</time>
      </trkpt>
      <trkpt lat="44.57048" lon="2.24688">
        <ele>280.467</ele>
        <time>2015-08-05T12:11:07Z</time>
      </trkpt>
      <trkpt lat="44.56952" lon="2.24699">
        <ele>286.081</ele>
        <time>2015-08-05T12:11:27Z</time>
      </trkpt>
      <trkpt lat="44.569" lon="2.24682">
        <ele>292.919</ele>
        <time>2015-08-05T12:11:47Z</time>
      </trkpt>
      <trkpt lat="44.56849" lon="2.24657">
        <ele>295.208</ele>
        <time>2015-08-05T12:12:07Z</time>
      </trkpt>
      <trkpt lat="44.56825" lon="2.24659">
        <ele>295.012</ele>
        <time>2015-08-05T12:12:27Z</time>
      </trkpt>
      <trkpt lat="44.5677" lon="2.24618">
        <ele>290.217</ele>
        <time>2015-08-05T12:12:47Z</time>
      </trkpt>
      <trkpt lat="44.56716" lon="2.24614">
        <ele>290.727</ele>
        <time>2015-08-05T12:13:07Z</time>
      </trkpt>
      <trkpt lat="44.56707" lon="2.24598">
        <ele>288.879</ele>
        <time>2015-08-05T12:13:27Z</time>
      </trkpt>
      <trkpt lat="44.56706" lon="2.24559">
        <ele>283.031</ele>
        <time>2015-08-05T12:13:47Z</time>
      </trkpt>
      <trkpt lat="44.56641" lon="2.24563">
        <ele>273.862</ele>
        <time>2015-08-05T12:14:07Z</time>
      </trkpt>
      <trkpt lat="44.56605" lon="2.24583">
        <ele>266.098</ele>
        <time>2015-08-05T12:14:27Z</time>
      </trkpt>
      <trkpt lat="44.5659" lon="2.24644">
        <ele>262.64</ele>
        <time>2015-08-05T12:14:47Z</time>
      </trkpt>
      <trkpt lat="44.56534" lon="2.24674">
        <ele>248.981</ele>
        <time>2015-08-05T12:15:07Z</time>
      </trkpt>
      <trkpt lat="44.56515" lon="2.24657">
        <ele>245.661</ele>
        <time>2015-08-05T12:15:27Z</time>
      </trkpt>
      <trkpt lat="44.565" lon="2.24624">
        <ele>243.017</ele>
        <time>2015-08-05T12:15:47Z</time>
      </trkpt>
      <trkpt lat="44.56462" lon="2.24605">
        <ele>233.308</ele>
        <time>2015-08-05T12:16:07Z</time>
      </trkpt>
      <trkpt lat="44.56409" lon="2.24659">
        <ele>221.714</ele>
        <time>2015-08-05T12:16:27Z</time>
      </trkpt>
      <trkpt lat="44.56407" lon="2.24698">
        <ele>221.469</ele>
        <time>2015-08-05T12:16:47Z</time>
      </trkpt>
      <trkpt lat="44.56437" lon="2.24787">
        <ele>215.399</ele>
        <time>2015-08-05T12:17:07Z</time>
      </trkpt>
      <trkpt lat="44.56432" lon="2.24834">
        <ele>212.161</ele>
        <time>2015-08-05T12:17:27Z</time>
      </trkpt>
      <trkpt lat="44.56378" lon="2.24812">
        <ele>208.643</ele>
        <time>2015-08-05T12:17:47Z</time>
      </trkpt>
      <trkpt lat="44.56375" lon="2.24915">
        <ele>207.074</ele>
        <time>2015-08-05T12:18:07Z</time>
      </trkpt>
      <trkpt lat="44.56352" lon="2.25055">
        <ele>207.77</ele>
        <time>2015-08-05T12:18:27Z</time>
      </trkpt>
      <trkpt lat="44.56365" lon="2.2508">
        <ele>209.632</ele>
        <time>2015-08-05T12:18:47Z</time>
      </trkpt>
      <trkpt lat="44.56402" lon="2.25059">
        <ele>212.431</ele>
        <time>2015-08-05T12:19:07Z</time>
      </trkpt>
      <trkpt lat="44.56435" lon="2.25078">
        <ele>215.561</ele>
        <time>2015-08-05T12:19:27Z</time>
      </trkpt>
      <trkpt lat="44.56484" lon="2.25145">
        <ele>223.307</ele>
        <time>2015-08-05T12:19:47Z</time>
      </trkpt>
      <trkpt lat="44.56508" lon="2.25156">
        <ele>223.808</ele>
        <time>2015-08-05T12:20:07Z</time>
      </trkpt>
      <trkpt lat="44.56508" lon="2.25177">
        <ele>228.469</ele>
        <time>2015-08-05T12:20:27Z</time>
      </trkpt>
      <trkpt lat="44.56489" lon="2.25179">
        <ele>230.214</ele>
        <time>2015-08-05T12:20:47Z</time>
      </trkpt>
      <trkpt lat="44.56475" lon="2.25192">
        <ele>234.294</ele>
        <time>2015-08-05T12:21:07Z</time>
      </trkpt>
      <trkpt lat="44.56433" lon="2.252">
        <ele>236.526</ele>
        <time>2015-08-05T12:21:27Z</time>
      </trkpt>
      <trkpt lat="44.56444" lon="2.25312">
        <ele>250.978</ele>
        <time>2015-08-05T12:21:47Z</time>
      </trkpt>
      <trkpt lat="44.56461" lon="2.25337">
        <ele>252.629</ele>
        <time>2015-08-05T12:22:07Z</time>
      </trkpt>
      <trkpt lat="44.56458" lon="2.25405">
        <ele>259.265</ele>
        <time>2015-08-05T12:22:27Z</time>
      </trkpt>
      <trkpt lat="44.56461" lon="2.25461">
        <ele>262.817</ele>
        <time>2015-08-05T12:22:47Z</time>
      </trkpt>
      <trkpt lat="44.56506" lon="2.25535">
        <ele>268.996</ele>
        <time>2015-08-05T12:23:07Z</time>
      </trkpt>
      <trkpt lat="44.56503" lon="2.25623">
        <ele>277.831</ele>
        <time>2015-08-05T12:23:27Z</time>
      </trkpt>
      <trkpt lat="44.56463" lon="2.25647">
        <ele>283.924</ele>
        <time>2015-08-05T12:23:47Z</time>
      </trkpt>
      <trkpt lat="44.56472" lon="2.25771">
        <ele>303.508</ele>
        <time>2015-08-05T12:24:07Z</time>
      </trkpt>
      <trkpt lat="44.56461" lon="2.25818">
        <ele>304.615</ele>
        <time>2015-08-05T12:24:27Z</time>
      </trkpt>
      <trkpt lat="44.56465" lon="2.2589">
        <ele>307.34</ele>
        <time>2015-08-05T12:24:47Z</time>
      </trkpt>
      <trkpt lat="44.56439" lon="2.26022">
        <ele>316.55</ele>
        <time>2015-08-05T12:25:07Z</time>
      </trkpt>
      <trkpt lat="44.56375" lon="2.2622">
        <ele>336.212</ele>
        <time>2015-08-05T12:25:27Z</time>
      </trkpt>
      <trkpt lat="44.56352" lon="2.26269">
        <ele>344.694</ele>
        <time>2015-08-05T12:25:47Z</time>
      </trkpt>
      <trkpt lat="44.56326" lon="2.26366">
        <ele>352.085</ele>
        <time>2015-08-05T12:26:07Z</time>
      </trkpt>
    </trkseg>
  </trk>
  <trk>
    <name><![CDATA[Conques]]></name>
    <extensions>
      <line xmlns="http://www.topografix.com/GPX/gpx_style/0/2">
        <color>0000ff</color>
        <width>4</width>
      </line>
    </extensions>
    <trkseg>
      <trkpt lat="44.56326" lon="2.26366">
        <ele>352.085</ele>
        <time>2015-08-05T12:26:07Z</time>
      </trkpt>
      <trkpt lat="44.56326" lon="2.26366">
        <ele>352.085</ele>
        <time>2015-08-05T12:26:07Z</time>
      </trkpt>
      <trkpt lat="44.56326" lon="2.26366">
        <ele>352.085</ele>
        <time>2015-08-05T12:26:07Z</time>
      </trkpt>
      <trkpt lat="44.56326" lon="2.26366">
        <ele>352.085</ele>
        <time>2015-08-05T12:26:07Z</time>
      </trkpt>
      <trkpt lat="44.56326" lon="2.26366">
        <ele>352.085</ele>
        <time>2015-08-05T12:26:07Z</time>
      </trkpt>
      <trkpt lat="44.56329" lon="2.26417">
        <ele>352.041</ele>
        <time>2015-08-05T12:26:27Z</time>
      </trkpt>
      <trkpt lat="44.56313" lon="2.26451">
        <ele>353.193</ele>
        <time>2015-08-05T12:26:47Z</time>
      </trkpt>
      <trkpt lat="44.56313" lon="2.26574">
        <ele>356.383</ele>
        <time>2015-08-05T12:27:07Z</time>
      </trkpt>
      <trkpt lat="44.56482" lon="2.27118">
        <ele>344.925</ele>
        <time>2015-08-05T12:27:27Z</time>
      </trkpt>
      <trkpt lat="44.56504" lon="2.27216">
        <ele>344.017</ele>
        <time>2015-08-05T12:27:47Z</time>
      </trkpt>
      <trkpt lat="44.56504" lon="2.27289">
        <ele>339.808</ele>
        <time>2015-08-05T12:28:07Z</time>
      </trkpt>
      <trkpt lat="44.5647" lon="2.27429">
        <ele>333.354</ele>
        <time>2015-08-05T12:28:27Z</time>
      </trkpt>
      <trkpt lat="44.56427" lon="2.27495">
        <ele>333.029</ele>
        <time>2015-08-05T12:28:47Z</time>
      </trkpt>
      <trkpt lat="44.56415" lon="2.27579">
        <ele>333.019</ele>
        <time>2015-08-05T12:29:07Z</time>
      </trkpt>
      <trkpt lat="44.56344" lon="2.27807">
        <ele>338.241</ele>
        <time>2015-08-05T12:29:27Z</time>
      </trkpt>
      <trkpt lat="44.56364" lon="2.27825">
        <ele>336.613</ele>
        <time>2015-08-05T12:29:47Z</time>
      </trkpt>
      <trkpt lat="44.56368" lon="2.27887">
        <ele>340.254</ele>
        <time>2015-08-05T12:30:07Z</time>
      </trkpt>
      <trkpt lat="44.5635" lon="2.27982">
        <ele>350.14</ele>
        <time>2015-08-05T12:30:27Z</time>
      </trkpt>
      <trkpt lat="44.56347" lon="2.28032">
        <ele>350.172</ele>
        <time>2015-08-05T12:30:47Z</time>
      </trkpt>
      <trkpt lat="44.56373" lon="2.2821">
        <ele>364.666</ele>
        <time>2015-08-05T12:31:07Z</time>
      </trkpt>
      <trkpt lat="44.56373" lon="2.28359">
        <ele>377.529</ele>
        <time>2015-08-05T12:31:27Z</time>
      </trkpt>
      <trkpt lat="44.56404" lon="2.28409">
        <ele>385.721</ele>
        <time>2015-08-05T12:31:47Z</time>
      </trkpt>
      <trkpt lat="44.56367" lon="2.28414">
        <ele>386.708</ele>
        <time>2015-08-05T12:32:07Z</time>
      </trkpt>
      <trkpt lat="44.56327" lon="2.28462">
        <ele>395.052</ele>
        <time>2015-08-05T12:32:27Z</time>
      </trkpt>
      <trkpt lat="44.5624" lon="2.28615">
        <ele>407.557</ele>
        <time>2015-08-05T12:32:47Z</time>
      </trkpt>
      <trkpt lat="44.56218" lon="2.28692">
        <ele>408.717</ele>
        <time>2015-08-05T12:33:07Z</time>
      </trkpt>
      <trkpt lat="44.56216" lon="2.28761">
        <ele>413.949</ele>
        <time>2015-08-05T12:33:27Z</time>
      </trkpt>
      <trkpt lat="44.56256" lon="2.28812">
        <ele>426.151</ele>
        <time>2015-08-05T12:33:47Z</time>
      </trkpt>
      <trkpt lat="44.56272" lon="2.29005">
        <ele>432.032</ele>
        <time>2015-08-05T12:34:07Z</time>
      </trkpt>
      <trkpt lat="44.56153" lon="2.29184">
        <ele>429.078</ele>
        <time>2015-08-05T12:34:27Z</time>
      </trkpt>
      <trkpt lat="44.56124" lon="2.29256">
        <ele>425.96</ele>
        <time>2015-08-05T12:34:47Z</time>
      </trkpt>
      <trkpt lat="44.56092" lon="2.29314">
        <ele>426.586</ele>
        <time>2015-08-05T12:35:07Z</time>
      </trkpt>
      <trkpt lat="44.56088" lon="2.29491">
        <ele>437.36</ele>
        <time>2015-08-05T12:35:27Z</time>
      </trkpt>
      <trkpt lat="44.56111" lon="2.29524">
        <ele>437.426</ele>
        <time>2015-08-05T12:35:47Z</time>
      </trkpt>
      <trkpt lat="44.56117" lon="2.29555">
        <ele>437.208</ele>
        <time>2015-08-05T12:36:07Z</time>
      </trkpt>
      <trkpt lat="44.561" lon="2.2962">
        <ele>437.174</ele>
        <time>2015-08-05T12:36:27Z</time>
      </trkpt>
      <trkpt lat="44.55991" lon="2.29765">
        <ele>450.879</ele>
        <time>2015-08-05T12:36:47Z</time>
      </trkpt>
      <trkpt lat="44.55977" lon="2.29809">
        <ele>451.759</ele>
        <time>2015-08-05T12:37:07Z</time>
      </trkpt>
      <trkpt lat="44.55987" lon="2.29872">
        <ele>456.651</ele>
        <time>2015-08-05T12:37:27Z</time>
      </trkpt>
      <trkpt lat="44.55985" lon="2.299">
        <ele>459.583</ele>
        <time>2015-08-05T12:37:47Z</time>
      </trkpt>
      <trkpt lat="44.56016" lon="2.30049">
        <ele>474.234</ele>
        <time>2015-08-05T12:38:07Z</time>
      </trkpt>
      <trkpt lat="44.56015" lon="2.30062">
        <ele>474.71</ele>
        <time>2015-08-05T12:38:27Z</time>
      </trkpt>
      <trkpt lat="44.56034" lon="2.30149">
        <ele>483.642</ele>
        <time>2020-11-25T23:35:00Z</time>
      </trkpt>
      <trkpt lat="44.56104" lon="2.30151">
        <ele>489.265</ele>
        <time>2020-11-25T23:35:20Z</time>
      </trkpt>
      <trkpt lat="44.56135" lon="2.30131">
        <ele>485.668</ele>
        <time>2020-11-25T23:35:40Z</time>
      </trkpt>
      <trkpt lat="44.56152" lon="2.30142">
        <ele>486.014</ele>
        <time>2020-11-25T23:36:00Z</time>
      </trkpt>
      <trkpt lat="44.56155" lon="2.30173">
        <ele>489.208</ele>
        <time>2020-11-25T23:36:20Z</time>
      </trkpt>
      <trkpt lat="44.56137" lon="2.30213">
        <ele>497.152</ele>
        <time>2020-11-25T23:36:40Z</time>
      </trkpt>
      <trkpt lat="44.56075" lon="2.30277">
        <ele>500.987</ele>
        <time>2020-11-25T23:37:00Z</time>
      </trkpt>
      <trkpt lat="44.56052" lon="2.30326">
        <ele>504.597</ele>
        <time>2020-11-25T23:37:20Z</time>
      </trkpt>
      <trkpt lat="44.56041" lon="2.3039">
        <ele>504.959</ele>
        <time>2020-11-25T23:37:40Z</time>
      </trkpt>
      <trkpt lat="44.56028" lon="2.30415">
        <ele>505.931</ele>
        <time>2015-08-05T12:40:27Z</time>
      </trkpt>
      <trkpt lat="44.56013" lon="2.3047">
        <ele>503.872</ele>
        <time>2020-11-25T23:38:20Z</time>
      </trkpt>
      <trkpt lat="44.56006" lon="2.3061">
        <ele>506.618</ele>
        <time>2020-11-25T23:38:40Z</time>
      </trkpt>
      <trkpt lat="44.56018" lon="2.30663">
        <ele>502.57</ele>
        <time>2020-11-25T23:39:00Z</time>
      </trkpt>
      <trkpt lat="44.56028" lon="2.3078">
        <ele>506.939</ele>
        <time>2020-11-25T23:39:20Z</time>
      </trkpt>
      <trkpt lat="44.56003" lon="2.30932">
        <ele>503.201</ele>
        <time>2020-11-25T23:39:40Z</time>
      </trkpt>
      <trkpt lat="44.56023" lon="2.31049">
        <ele>513.721</ele>
        <time>2015-08-05T12:42:47Z</time>
      </trkpt>
      <trkpt lat="44.56055" lon="2.31109">
        <ele>520.808</ele>
        <time>2015-08-05T12:43:07Z</time>
      </trkpt>
      <trkpt lat="44.56087" lon="2.31227">
        <ele>525.489</ele>
        <time>2015-08-05T12:43:27Z</time>
      </trkpt>
      <trkpt lat="44.56105" lon="2.31272">
        <ele>528.784</ele>
        <time>2015-08-05T12:43:47Z</time>
      </trkpt>
      <trkpt lat="44.56137" lon="2.31317">
        <ele>530.344</ele>
        <time>2015-08-05T12:44:07Z</time>
      </trkpt>
      <trkpt lat="44.56172" lon="2.31346">
        <ele>535.046</ele>
        <time>2015-08-05T12:44:27Z</time>
      </trkpt>
      <trkpt lat="44.56183" lon="2.31367">
        <ele>535.948</ele>
        <time>2015-08-05T12:44:47Z</time>
      </trkpt>
      <trkpt lat="44.56185" lon="2.31449">
        <ele>531.769</ele>
        <time>2015-08-05T12:45:07Z</time>
      </trkpt>
      <trkpt lat="44.56217" lon="2.31643">
        <ele>538.785</ele>
        <time>2015-08-05T12:45:27Z</time>
      </trkpt>
      <trkpt lat="44.56218" lon="2.31706">
        <ele>542.927</ele>
        <time>2015-08-05T12:45:47Z</time>
      </trkpt>
      <trkpt lat="44.56229" lon="2.31764">
        <ele>551.397</ele>
        <time>2015-08-05T12:46:07Z</time>
      </trkpt>
      <trkpt lat="44.56231" lon="2.31812">
        <ele>552.323</ele>
        <time>2015-08-05T12:46:27Z</time>
      </trkpt>
      <trkpt lat="44.56248" lon="2.31927">
        <ele>549.325</ele>
        <time>2015-08-05T12:46:47Z</time>
      </trkpt>
      <trkpt lat="44.56262" lon="2.31979">
        <ele>551.208</ele>
        <time>2015-08-05T12:47:07Z</time>
      </trkpt>
      <trkpt lat="44.56319" lon="2.32109">
        <ele>559.925</ele>
        <time>2015-08-05T12:47:27Z</time>
      </trkpt>
      <trkpt lat="44.56353" lon="2.32205">
        <ele>564.22</ele>
        <time>2015-08-05T12:47:47Z</time>
      </trkpt>
      <trkpt lat="44.56368" lon="2.32314">
        <ele>565.56</ele>
        <time>2015-08-05T12:48:07Z</time>
      </trkpt>
      <trkpt lat="44.56387" lon="2.32362">
        <ele>574.122</ele>
        <time>2015-08-05T12:48:27Z</time>
      </trkpt>
      <trkpt lat="44.56434" lon="2.32388">
        <ele>580.844</ele>
        <time>2015-08-05T12:48:47Z</time>
      </trkpt>
      <trkpt lat="44.56453" lon="2.32429">
        <ele>578.155</ele>
        <time>2015-08-05T12:49:07Z</time>
      </trkpt>
      <trkpt lat="44.5653" lon="2.3248">
        <ele>574.931</ele>
        <time>2015-08-05T12:49:27Z</time>
      </trkpt>
      <trkpt lat="44.5658" lon="2.32558">
        <ele>568.223</ele>
        <time>2015-08-05T12:49:47Z</time>
      </trkpt>
      <trkpt lat="44.56573" lon="2.32477">
        <ele>573.346</ele>
        <time>2015-08-05T12:50:07Z</time>
      </trkpt>
      <trkpt lat="44.56554" lon="2.32412">
        <ele>575.588</ele>
        <time>2015-08-05T12:50:27Z</time>
      </trkpt>
      <trkpt lat="44.56565" lon="2.32374">
        <ele>578.016</ele>
        <time>2015-08-05T12:50:47Z</time>
      </trkpt>
      <trkpt lat="44.566" lon="2.32344">
        <ele>578.108</ele>
        <time>2015-08-05T12:51:07Z</time>
      </trkpt>
      <trkpt lat="44.56608" lon="2.32311">
        <ele>579.13</ele>
        <time>2015-08-05T12:51:27Z</time>
      </trkpt>
      <trkpt lat="44.56744" lon="2.32395">
        <ele>570.265</ele>
        <time>2015-08-05T12:51:47Z</time>
      </trkpt>
      <trkpt lat="44.56811" lon="2.32481">
        <ele>565.355</ele>
        <time>2015-08-05T12:52:07Z</time>
      </trkpt>
      <trkpt lat="44.56963" lon="2.32564">
        <ele>553.967</ele>
        <time>2015-08-05T12:52:27Z</time>
      </trkpt>
      <trkpt lat="44.57032" lon="2.3253">
        <ele>551.279</ele>
        <time>2015-08-05T12:52:47Z</time>
      </trkpt>
      <trkpt lat="44.57074" lon="2.32497">
        <ele>550.23</ele>
        <time>2015-08-05T12:53:07Z</time>
      </trkpt>
      <trkpt lat="44.57083" lon="2.32521">
        <ele>549.346</ele>
        <time>2015-08-05T12:53:27Z</time>
      </trkpt>
      <trkpt lat="44.57079" lon="2.3257">
        <ele>546.518</ele>
        <time>2015-08-05T12:53:47Z</time>
      </trkpt>
      <trkpt lat="44.57061" lon="2.32609">
        <ele>545.278</ele>
        <time>2015-08-05T12:54:07Z</time>
      </trkpt>
      <trkpt lat="44.57034" lon="2.32647">
        <ele>541.833</ele>
        <time>2015-08-05T12:54:27Z</time>
      </trkpt>
      <trkpt lat="44.57001" lon="2.32645">
        <ele>545.426</ele>
        <time>2015-08-05T12:54:47Z</time>
      </trkpt>
      <trkpt lat="44.56955" lon="2.32677">
        <ele>539.708</ele>
        <time>2015-08-05T12:55:07Z</time>
      </trkpt>
      <trkpt lat="44.56926" lon="2.32709">
        <ele>536.673</ele>
        <time>2015-08-05T12:55:27Z</time>
      </trkpt>
      <trkpt lat="44.56885" lon="2.32722">
        <ele>537.058</ele>
        <time>2015-08-05T12:55:47Z</time>
      </trkpt>
      <trkpt lat="44.5688" lon="2.32737">
        <ele>536.068</ele>
        <time>2015-08-05T12:56:07Z</time>
      </trkpt>
      <trkpt lat="44.56891" lon="2.32742">
        <ele>535.63</ele>
        <time>2015-08-05T12:56:27Z</time>
      </trkpt>
      <trkpt lat="44.56926" lon="2.32742">
        <ele>534.282</ele>
        <time>2015-08-05T12:56:47Z</time>
      </trkpt>
      <trkpt lat="44.56976" lon="2.32719">
        <ele>530.173</ele>
        <time>2015-08-05T12:57:07Z</time>
      </trkpt>
      <trkpt lat="44.57032" lon="2.32721">
        <ele>525.319</ele>
        <time>2015-08-05T12:57:27Z</time>
      </trkpt>
      <trkpt lat="44.571" lon="2.32756">
        <ele>515.611</ele>
        <time>2015-08-05T12:57:47Z</time>
      </trkpt>
      <trkpt lat="44.57222" lon="2.32746">
        <ele>497.611</ele>
        <time>2015-08-05T12:58:07Z</time>
      </trkpt>
      <trkpt lat="44.57239" lon="2.32731">
        <ele>495.021</ele>
        <time>2015-08-05T12:58:27Z</time>
      </trkpt>
      <trkpt lat="44.57288" lon="2.32627">
        <ele>491.903</ele>
        <time>2015-08-05T12:58:47Z</time>
      </trkpt>
      <trkpt lat="44.57349" lon="2.32556">
        <ele>484.008</ele>
        <time>2015-08-05T12:59:07Z</time>
      </trkpt>
      <trkpt lat="44.57363" lon="2.32509">
        <ele>483.057</ele>
        <time>2015-08-05T12:59:27Z</time>
      </trkpt>
      <trkpt lat="44.5737" lon="2.32468">
        <ele>480.142</ele>
        <time>2015-08-05T12:59:47Z</time>
      </trkpt>
      <trkpt lat="44.5739" lon="2.32393">
        <ele>468.392</ele>
        <time>2015-08-05T13:00:07Z</time>
      </trkpt>
      <trkpt lat="44.57419" lon="2.32354">
        <ele>466.094</ele>
        <time>2015-08-05T13:00:27Z</time>
      </trkpt>
      <trkpt lat="44.57468" lon="2.32341">
        <ele>467.076</ele>
        <time>2015-08-05T13:00:47Z</time>
      </trkpt>
      <trkpt lat="44.57513" lon="2.32339">
        <ele>471.737</ele>
        <time>2015-08-05T13:01:07Z</time>
      </trkpt>
      <trkpt lat="44.57575" lon="2.32415">
        <ele>484.273</ele>
        <time>2015-08-05T13:01:27Z</time>
      </trkpt>
      <trkpt lat="44.5761" lon="2.3241">
        <ele>486.985</ele>
        <time>2015-08-05T13:01:47Z</time>
      </trkpt>
      <trkpt lat="44.57665" lon="2.32439">
        <ele>486.212</ele>
        <time>2015-08-05T13:02:07Z</time>
      </trkpt>
      <trkpt lat="44.5773" lon="2.32447">
        <ele>490.932</ele>
        <time>2015-08-05T13:02:27Z</time>
      </trkpt>
      <trkpt lat="44.57755" lon="2.32401">
        <ele>486.405</ele>
        <time>2015-08-05T13:02:47Z</time>
      </trkpt>
      <trkpt lat="44.57829" lon="2.32379">
        <ele>490.208</ele>
        <time>2015-08-05T13:03:07Z</time>
      </trkpt>
      <trkpt lat="44.57864" lon="2.32324">
        <ele>498.047</ele>
        <time>2015-08-05T13:03:27Z</time>
      </trkpt>
      <trkpt lat="44.57863" lon="2.32276">
        <ele>496.212</ele>
        <time>2015-08-05T13:03:47Z</time>
      </trkpt>
      <trkpt lat="44.5787" lon="2.32262">
        <ele>496.482</ele>
        <time>2015-08-05T13:04:07Z</time>
      </trkpt>
      <trkpt lat="44.579" lon="2.32254">
        <ele>504.754</ele>
        <time>2015-08-05T13:04:27Z</time>
      </trkpt>
      <trkpt lat="44.57934" lon="2.32222">
        <ele>505.476</ele>
        <time>2015-08-05T13:04:47Z</time>
      </trkpt>
      <trkpt lat="44.57953" lon="2.32209">
        <ele>506.077</ele>
        <time>2015-08-05T13:05:07Z</time>
      </trkpt>
      <trkpt lat="44.57998" lon="2.32175">
        <ele>508.733</ele>
        <time>2015-08-05T13:05:27Z</time>
      </trkpt>
      <trkpt lat="44.58073" lon="2.32017">
        <ele>506.435</ele>
        <time>2015-08-05T13:05:47Z</time>
      </trkpt>
      <trkpt lat="44.58124" lon="2.31979">
        <ele>506.756</ele>
        <time>2015-08-05T13:06:07Z</time>
      </trkpt>
      <trkpt lat="44.58133" lon="2.32008">
        <ele>509.659</ele>
        <time>2015-08-05T13:06:27Z</time>
      </trkpt>
      <trkpt lat="44.58166" lon="2.32048">
        <ele>509.414</ele>
        <time>2015-08-05T13:06:47Z</time>
      </trkpt>
      <trkpt lat="44.58205" lon="2.32062">
        <ele>505.408</ele>
        <time>2015-08-05T13:07:07Z</time>
      </trkpt>
      <trkpt lat="44.58242" lon="2.32064">
        <ele>504.851</ele>
        <time>2015-08-05T13:07:27Z</time>
      </trkpt>
      <trkpt lat="44.58317" lon="2.32019">
        <ele>506.316</ele>
        <time>2015-08-05T13:07:47Z</time>
      </trkpt>
      <trkpt lat="44.58349" lon="2.31977">
        <ele>506.226</ele>
        <time>2015-08-05T13:08:07Z</time>
      </trkpt>
      <trkpt lat="44.58417" lon="2.31938">
        <ele>513.538</ele>
        <time>2015-08-05T13:08:27Z</time>
      </trkpt>
      <trkpt lat="44.58439" lon="2.31941">
        <ele>513.95</ele>
        <time>2015-08-05T13:08:47Z</time>
      </trkpt>
      <trkpt lat="44.58485" lon="2.31959">
        <ele>512.651</ele>
        <time>2015-08-05T13:09:07Z</time>
      </trkpt>
      <trkpt lat="44.58498" lon="2.31973">
        <ele>512.177</ele>
        <time>2015-08-05T13:09:27Z</time>
      </trkpt>
      <trkpt lat="44.58508" lon="2.3199">
        <ele>510.769</ele>
        <time>2015-08-05T13:09:47Z</time>
      </trkpt>
      <trkpt lat="44.58522" lon="2.32035">
        <ele>508.245</ele>
        <time>2015-08-05T13:10:07Z</time>
      </trkpt>
      <trkpt lat="44.58583" lon="2.32146">
        <ele>499.647</ele>
        <time>2015-08-05T13:10:27Z</time>
      </trkpt>
      <trkpt lat="44.58618" lon="2.32187">
        <ele>496.411</ele>
        <time>2015-08-05T13:10:47Z</time>
      </trkpt>
      <trkpt lat="44.58673" lon="2.32292">
        <ele>485.808</ele>
        <time>2015-08-05T13:11:07Z</time>
      </trkpt>
      <trkpt lat="44.58672" lon="2.32325">
        <ele>484.23</ele>
        <time>2015-08-05T13:11:27Z</time>
      </trkpt>
      <trkpt lat="44.58649" lon="2.32387">
        <ele>477.115</ele>
        <time>2015-08-05T13:11:47Z</time>
      </trkpt>
      <trkpt lat="44.58635" lon="2.32408">
        <ele>473.065</ele>
        <time>2015-08-05T13:12:07Z</time>
      </trkpt>
      <trkpt lat="44.58584" lon="2.32443">
        <ele>466.567</ele>
        <time>2015-08-05T13:12:27Z</time>
      </trkpt>
      <trkpt lat="44.58565" lon="2.32476">
        <ele>459.399</ele>
        <time>2015-08-05T13:12:47Z</time>
      </trkpt>
      <trkpt lat="44.58539" lon="2.325">
        <ele>461.74</ele>
        <time>2015-08-05T13:13:07Z</time>
      </trkpt>
      <trkpt lat="44.58535" lon="2.32513">
        <ele>462.826</ele>
        <time>2015-08-05T13:13:27Z</time>
      </trkpt>
      <trkpt lat="44.58573" lon="2.32521">
        <ele>455.158</ele>
        <time>2015-08-05T13:13:47Z</time>
      </trkpt>
      <trkpt lat="44.58605" lon="2.32563">
        <ele>458.542</ele>
        <time>2015-08-05T13:14:07Z</time>
      </trkpt>
      <trkpt lat="44.58632" lon="2.32628">
        <ele>462.722</ele>
        <time>2015-08-05T13:14:27Z</time>
      </trkpt>
      <trkpt lat="44.58637" lon="2.32676">
        <ele>457.714</ele>
        <time>2015-08-05T13:14:47Z</time>
      </trkpt>
      <trkpt lat="44.5862" lon="2.32756">
        <ele>459.708</ele>
        <time>2015-08-05T13:15:07Z</time>
      </trkpt>
      <trkpt lat="44.58631" lon="2.32774">
        <ele>456.55</ele>
        <time>2015-08-05T13:15:27Z</time>
      </trkpt>
      <trkpt lat="44.58651" lon="2.32784">
        <ele>452.315</ele>
        <time>2015-08-05T13:15:47Z</time>
      </trkpt>
      <trkpt lat="44.58711" lon="2.32838">
        <ele>447.085</ele>
        <time>2015-08-05T13:16:07Z</time>
      </trkpt>
      <trkpt lat="44.58723" lon="2.32863">
        <ele>447.077</ele>
        <time>2015-08-05T13:16:27Z</time>
      </trkpt>
      <trkpt lat="44.5878" lon="2.32919">
        <ele>437.679</ele>
        <time>2015-08-05T13:16:47Z</time>
      </trkpt>
      <trkpt lat="44.58791" lon="2.32938">
        <ele>436.63</ele>
        <time>2015-08-05T13:17:07Z</time>
      </trkpt>
      <trkpt lat="44.58799" lon="2.33015">
        <ele>440.476</ele>
        <time>2015-08-05T13:17:27Z</time>
      </trkpt>
      <trkpt lat="44.58825" lon="2.33049">
        <ele>433.748</ele>
        <time>2015-08-05T13:17:47Z</time>
      </trkpt>
      <trkpt lat="44.58852" lon="2.33073">
        <ele>428.026</ele>
        <time>2015-08-05T13:18:07Z</time>
      </trkpt>
      <trkpt lat="44.58852" lon="2.33088">
        <ele>431.047</ele>
        <time>2015-08-05T13:18:27Z</time>
      </trkpt>
      <trkpt lat="44.58857" lon="2.33105">
        <ele>432.911</ele>
        <time>2015-08-05T13:18:47Z</time>
      </trkpt>
      <trkpt lat="44.58873" lon="2.33122">
        <ele>428.308</ele>
        <time>2015-08-05T13:19:07Z</time>
      </trkpt>
      <trkpt lat="44.58911" lon="2.3319">
        <ele>422.468</ele>
        <time>2015-08-05T13:19:27Z</time>
      </trkpt>
      <trkpt lat="44.58943" lon="2.33282">
        <ele>415.613</ele>
        <time>2015-08-05T13:19:47Z</time>
      </trkpt>
      <trkpt lat="44.58974" lon="2.33316">
        <ele>403.863</ele>
        <time>2015-08-05T13:20:07Z</time>
      </trkpt>
      <trkpt lat="44.5901" lon="2.3332">
        <ele>392.985</ele>
        <time>2015-08-05T13:20:27Z</time>
      </trkpt>
      <trkpt lat="44.58993" lon="2.33373">
        <ele>401.517</ele>
        <time>2015-08-05T13:20:47Z</time>
      </trkpt>
      <trkpt lat="44.58959" lon="2.3344">
        <ele>404.648</ele>
        <time>2015-08-05T13:21:07Z</time>
      </trkpt>
      <trkpt lat="44.58959" lon="2.33492">
        <ele>397.794</ele>
        <time>2015-08-05T13:21:27Z</time>
      </trkpt>
      <trkpt lat="44.58973" lon="2.33486">
        <ele>395.526</ele>
        <time>2015-08-05T13:21:47Z</time>
      </trkpt>
      <trkpt lat="44.58993" lon="2.33452">
        <ele>395.115</ele>
        <time>2015-08-05T13:22:07Z</time>
      </trkpt>
      <trkpt lat="44.59067" lon="2.3338">
        <ele>390.665</ele>
        <time>2015-08-05T13:22:27Z</time>
      </trkpt>
      <trkpt lat="44.5905" lon="2.33426">
        <ele>397.111</ele>
        <time>2015-08-05T13:22:47Z</time>
      </trkpt>
      <trkpt lat="44.59024" lon="2.33457">
        <ele>396.908</ele>
        <time>2015-08-05T13:23:07Z</time>
      </trkpt>
      <trkpt lat="44.59003" lon="2.33497">
        <ele>395.697</ele>
        <time>2015-08-05T13:23:27Z</time>
      </trkpt>
      <trkpt lat="44.59003" lon="2.3352">
        <ele>398.782</ele>
        <time>2015-08-05T13:23:47Z</time>
      </trkpt>
      <trkpt lat="44.59016" lon="2.33521">
        <ele>403.192</ele>
        <time>2015-08-05T13:24:07Z</time>
      </trkpt>
      <trkpt lat="44.591" lon="2.33451">
        <ele>415.154</ele>
        <time>2015-08-05T13:24:27Z</time>
      </trkpt>
      <trkpt lat="44.59119" lon="2.33492">
        <ele>429.596</ele>
        <time>2015-08-05T13:24:47Z</time>
      </trkpt>
      <trkpt lat="44.59136" lon="2.33517">
        <ele>437.727</ele>
        <time>2015-08-05T13:25:07Z</time>
      </trkpt>
      <trkpt lat="44.59173" lon="2.33595">
        <ele>454.213</ele>
        <time>2015-08-05T13:25:27Z</time>
      </trkpt>
      <trkpt lat="44.59217" lon="2.33651">
        <ele>474.825</ele>
        <time>2015-08-05T13:25:47Z</time>
      </trkpt>
      <trkpt lat="44.59201" lon="2.33679">
        <ele>475.421</ele>
        <time>2015-08-05T13:26:07Z</time>
      </trkpt>
      <trkpt lat="44.59197" lon="2.33719">
        <ele>481.741</ele>
        <time>2015-08-05T13:26:27Z</time>
      </trkpt>
      <trkpt lat="44.59138" lon="2.33732">
        <ele>473.605</ele>
        <time>2015-08-05T13:26:47Z</time>
      </trkpt>
      <trkpt lat="44.59118" lon="2.33783">
        <ele>476.208</ele>
        <time>2015-08-05T13:27:07Z</time>
      </trkpt>
      <trkpt lat="44.59075" lon="2.33824">
        <ele>475.668</ele>
        <time>2015-08-05T13:27:27Z</time>
      </trkpt>
      <trkpt lat="44.5904" lon="2.33835">
        <ele>471.963</ele>
        <time>2015-08-05T13:27:47Z</time>
      </trkpt>
      <trkpt lat="44.58999" lon="2.33876">
        <ele>472.283</ele>
        <time>2015-08-05T13:28:07Z</time>
      </trkpt>
      <trkpt lat="44.5896" lon="2.33887">
        <ele>476.015</ele>
        <time>2015-08-05T13:28:27Z</time>
      </trkpt>
      <trkpt lat="44.58919" lon="2.33884">
        <ele>475.277</ele>
        <time>2015-08-05T13:28:47Z</time>
      </trkpt>
      <trkpt lat="44.58873" lon="2.3391">
        <ele>475.418</ele>
        <time>2015-08-05T13:29:07Z</time>
      </trkpt>
      <trkpt lat="44.58815" lon="2.33937">
        <ele>469.594</ele>
        <time>2015-08-05T13:29:27Z</time>
      </trkpt>
      <trkpt lat="44.58783" lon="2.34112">
        <ele>468.626</ele>
        <time>2015-08-05T13:29:47Z</time>
      </trkpt>
      <trkpt lat="44.58788" lon="2.34163">
        <ele>470.455</ele>
        <time>2015-08-05T13:30:07Z</time>
      </trkpt>
      <trkpt lat="44.58774" lon="2.34216">
        <ele>467.507</ele>
        <time>2015-08-05T13:30:27Z</time>
      </trkpt>
      <trkpt lat="44.58769" lon="2.34252">
        <ele>470.117</ele>
        <time>2015-08-05T13:30:47Z</time>
      </trkpt>
      <trkpt lat="44.58781" lon="2.34285">
        <ele>473.108</ele>
        <time>2015-08-05T13:31:07Z</time>
      </trkpt>
      <trkpt lat="44.58773" lon="2.34311">
        <ele>473.371</ele>
        <time>2015-08-05T13:31:27Z</time>
      </trkpt>
      <trkpt lat="44.58777" lon="2.34333">
        <ele>475.976</ele>
        <time>2015-08-05T13:31:47Z</time>
      </trkpt>
      <trkpt lat="44.58756" lon="2.34464">
        <ele>493.746</ele>
        <time>2015-08-05T13:32:07Z</time>
      </trkpt>
      <trkpt lat="44.58724" lon="2.3456">
        <ele>502.718</ele>
        <time>2015-08-05T13:32:27Z</time>
      </trkpt>
      <trkpt lat="44.58724" lon="2.34607">
        <ele>507.09</ele>
        <time>2015-08-05T13:32:47Z</time>
      </trkpt>
      <trkpt lat="44.58755" lon="2.34679">
        <ele>516.171</ele>
        <time>2015-08-05T13:33:07Z</time>
      </trkpt>
      <trkpt lat="44.58789" lon="2.3473">
        <ele>523.317</ele>
        <time>2015-08-05T13:33:27Z</time>
      </trkpt>
      <trkpt lat="44.58825" lon="2.34719">
        <ele>531.029</ele>
        <time>2015-08-05T13:33:47Z</time>
      </trkpt>
      <trkpt lat="44.58849" lon="2.34756">
        <ele>532.398</ele>
        <time>2015-08-05T13:34:07Z</time>
      </trkpt>
      <trkpt lat="44.58887" lon="2.34845">
        <ele>537.115</ele>
        <time>2015-08-05T13:34:27Z</time>
      </trkpt>
      <trkpt lat="44.58912" lon="2.34917">
        <ele>538.026</ele>
        <time>2015-08-05T13:34:47Z</time>
      </trkpt>
      <trkpt lat="44.58894" lon="2.35125">
        <ele>538.908</ele>
        <time>2015-08-05T13:35:07Z</time>
      </trkpt>
      <trkpt lat="44.58867" lon="2.3523">
        <ele>538.715</ele>
        <time>2015-08-05T13:35:27Z</time>
      </trkpt>
      <trkpt lat="44.58848" lon="2.35348">
        <ele>543.08</ele>
        <time>2015-08-05T13:35:47Z</time>
      </trkpt>
      <trkpt lat="44.5888" lon="2.35698">
        <ele>543.57</ele>
        <time>2015-08-05T13:36:07Z</time>
      </trkpt>
      <trkpt lat="44.58878" lon="2.35819">
        <ele>546.782</ele>
        <time>2015-08-05T13:36:27Z</time>
      </trkpt>
      <trkpt lat="44.58848" lon="2.36125">
        <ele>538.724</ele>
        <time>2015-08-05T13:36:47Z</time>
      </trkpt>
      <trkpt lat="44.58855" lon="2.3618">
        <ele>539.625</ele>
        <time>2015-08-05T13:37:07Z</time>
      </trkpt>
      <trkpt lat="44.58819" lon="2.36255">
        <ele>541.021</ele>
        <time>2015-08-05T13:37:27Z</time>
      </trkpt>
      <trkpt lat="44.58775" lon="2.36319">
        <ele>541.263</ele>
        <time>2015-08-05T13:37:47Z</time>
      </trkpt>
      <trkpt lat="44.58706" lon="2.36399">
        <ele>546.933</ele>
        <time>2015-08-05T13:38:07Z</time>
      </trkpt>
      <trkpt lat="44.587" lon="2.36423">
        <ele>546.923</ele>
        <time>2015-08-05T13:38:27Z</time>
      </trkpt>
      <trkpt lat="44.58721" lon="2.36411">
        <ele>544.515</ele>
        <time>2015-08-05T13:38:47Z</time>
      </trkpt>
      <trkpt lat="44.58811" lon="2.36412">
        <ele>530.008</ele>
        <time>2015-08-05T13:39:07Z</time>
      </trkpt>
      <trkpt lat="44.58938" lon="2.36472">
        <ele>516.849</ele>
        <time>2015-08-05T13:39:27Z</time>
      </trkpt>
      <trkpt lat="44.58973" lon="2.36476">
        <ele>512.914</ele>
        <time>2015-08-05T13:39:47Z</time>
      </trkpt>
      <trkpt lat="44.58945" lon="2.36492">
        <ele>511.064</ele>
        <time>2015-08-05T13:40:07Z</time>
      </trkpt>
      <trkpt lat="44.58898" lon="2.36493">
        <ele>515.596</ele>
        <time>2015-08-05T13:40:27Z</time>
      </trkpt>
      <trkpt lat="44.58892" lon="2.36514">
        <ele>511.658</ele>
        <time>2015-08-05T13:40:47Z</time>
      </trkpt>
      <trkpt lat="44.5894" lon="2.36569">
        <ele>500.569</ele>
        <time>2015-08-05T13:41:07Z</time>
      </trkpt>
      <trkpt lat="44.58928" lon="2.36618">
        <ele>503.015</ele>
        <time>2015-08-05T13:41:27Z</time>
      </trkpt>
      <trkpt lat="44.58945" lon="2.36623">
        <ele>501.497</ele>
        <time>2015-08-05T13:41:47Z</time>
      </trkpt>
      <trkpt lat="44.59046" lon="2.36586">
        <ele>479.037</ele>
        <time>2015-08-05T13:42:07Z</time>
      </trkpt>
      <trkpt lat="44.59065" lon="2.36595">
        <ele>474.449</ele>
        <time>2015-08-05T13:42:27Z</time>
      </trkpt>
      <trkpt lat="44.59072" lon="2.36636">
        <ele>477.213</ele>
        <time>2015-08-05T13:42:47Z</time>
      </trkpt>
      <trkpt lat="44.59091" lon="2.36678">
        <ele>471.508</ele>
        <time>2015-08-05T13:43:07Z</time>
      </trkpt>
      <trkpt lat="44.59088" lon="2.36701">
        <ele>473.689</ele>
        <time>2015-08-05T13:43:27Z</time>
      </trkpt>
      <trkpt lat="44.5901" lon="2.36793">
        <ele>482.164</ele>
        <time>2015-08-05T13:43:47Z</time>
      </trkpt>
      <trkpt lat="44.58978" lon="2.36821">
        <ele>490.824</ele>
        <time>2015-08-05T13:44:07Z</time>
      </trkpt>
      <trkpt lat="44.58972" lon="2.36859">
        <ele>488.276</ele>
        <time>2015-08-05T13:44:27Z</time>
      </trkpt>
      <trkpt lat="44.58998" lon="2.36875">
        <ele>485.838</ele>
        <time>2015-08-05T13:44:47Z</time>
      </trkpt>
      <trkpt lat="44.59039" lon="2.36904">
        <ele>478.399</ele>
        <time>2015-08-05T13:45:07Z</time>
      </trkpt>
      <trkpt lat="44.59058" lon="2.36943">
        <ele>475.435</ele>
        <time>2015-08-05T13:45:27Z</time>
      </trkpt>
      <trkpt lat="44.59052" lon="2.36978">
        <ele>479.347</ele>
        <time>2015-08-05T13:45:47Z</time>
      </trkpt>
      <trkpt lat="44.59015" lon="2.3703">
        <ele>485.031</ele>
        <time>2015-08-05T13:46:07Z</time>
      </trkpt>
      <trkpt lat="44.58942" lon="2.37075">
        <ele>486.261</ele>
        <time>2015-08-05T13:46:27Z</time>
      </trkpt>
      <trkpt lat="44.58893" lon="2.37092">
        <ele>490.807</ele>
        <time>2015-08-05T13:46:47Z</time>
      </trkpt>
      <trkpt lat="44.5885" lon="2.37116">
        <ele>494.208</ele>
        <time>2015-08-05T13:47:07Z</time>
      </trkpt>
      <trkpt lat="44.58822" lon="2.37157">
        <ele>495.399</ele>
        <time>2015-08-05T13:47:27Z</time>
      </trkpt>
      <trkpt lat="44.58931" lon="2.37135">
        <ele>480.884</ele>
        <time>2015-08-05T13:47:47Z</time>
      </trkpt>
      <trkpt lat="44.58966" lon="2.37136">
        <ele>478.864</ele>
        <time>2015-08-05T13:48:07Z</time>
      </trkpt>
      <trkpt lat="44.58991" lon="2.37147">
        <ele>481.176</ele>
        <time>2015-08-05T13:48:27Z</time>
      </trkpt>
      <trkpt lat="44.59025" lon="2.37146">
        <ele>477.818</ele>
        <time>2015-08-05T13:48:47Z</time>
      </trkpt>
      <trkpt lat="44.59053" lon="2.37164">
        <ele>479.719</ele>
        <time>2015-08-05T13:49:07Z</time>
      </trkpt>
      <trkpt lat="44.59094" lon="2.37145">
        <ele>483.575</ele>
        <time>2015-08-05T13:49:27Z</time>
      </trkpt>
      <trkpt lat="44.59171" lon="2.37053">
        <ele>486.637</ele>
        <time>2015-08-05T13:49:47Z</time>
      </trkpt>
      <trkpt lat="44.59206" lon="2.36971">
        <ele>483.953</ele>
        <time>2015-08-05T13:50:07Z</time>
      </trkpt>
      <trkpt lat="44.59226" lon="2.36967">
        <ele>489.604</ele>
        <time>2015-08-05T13:50:27Z</time>
      </trkpt>
      <trkpt lat="44.59244" lon="2.36975">
        <ele>493.714</ele>
        <time>2015-08-05T13:50:47Z</time>
      </trkpt>
      <trkpt lat="44.59275" lon="2.36946">
        <ele>492.008</ele>
        <time>2015-08-05T13:51:07Z</time>
      </trkpt>
      <trkpt lat="44.59306" lon="2.36964">
        <ele>495.771</ele>
        <time>2015-08-05T13:51:27Z</time>
      </trkpt>
      <trkpt lat="44.59328" lon="2.37067">
        <ele>501.756</ele>
        <time>2015-08-05T13:51:47Z</time>
      </trkpt>
      <trkpt lat="44.59312" lon="2.37175">
        <ele>509.466</ele>
        <time>2015-08-05T13:52:07Z</time>
      </trkpt>
      <trkpt lat="44.59288" lon="2.37277">
        <ele>519.128</ele>
        <time>2015-08-05T13:52:27Z</time>
      </trkpt>
      <trkpt lat="44.59262" lon="2.37352">
        <ele>527.19</ele>
        <time>2015-08-05T13:52:47Z</time>
      </trkpt>
      <trkpt lat="44.59255" lon="2.37451">
        <ele>533.481</ele>
        <time>2015-08-05T13:53:07Z</time>
      </trkpt>
      <trkpt lat="44.59264" lon="2.37486">
        <ele>536.057</ele>
        <time>2015-08-05T13:53:27Z</time>
      </trkpt>
      <trkpt lat="44.59306" lon="2.37509">
        <ele>534.029</ele>
        <time>2015-08-05T13:53:47Z</time>
      </trkpt>
      <trkpt lat="44.5934" lon="2.37564">
        <ele>537.614</ele>
        <time>2015-08-05T13:54:07Z</time>
      </trkpt>
      <trkpt lat="44.59376" lon="2.37602">
        <ele>540.954</ele>
        <time>2015-08-05T13:54:27Z</time>
      </trkpt>
      <trkpt lat="44.59379" lon="2.37666">
        <ele>545.609</ele>
        <time>2015-08-05T13:54:47Z</time>
      </trkpt>
      <trkpt lat="44.59391" lon="2.37681">
        <ele>545.608</ele>
        <time>2015-08-05T13:55:07Z</time>
      </trkpt>
      <trkpt lat="44.59351" lon="2.3773">
        <ele>542.887</ele>
        <time>2015-08-05T13:55:27Z</time>
      </trkpt>
      <trkpt lat="44.59309" lon="2.37766">
        <ele>545.422</ele>
        <time>2015-08-05T13:55:47Z</time>
      </trkpt>
      <trkpt lat="44.59296" lon="2.37789">
        <ele>547.162</ele>
        <time>2015-08-05T13:56:07Z</time>
      </trkpt>
      <trkpt lat="44.5928" lon="2.37843">
        <ele>544.994</ele>
        <time>2015-08-05T13:56:27Z</time>
      </trkpt>
      <trkpt lat="44.59264" lon="2.37868">
        <ele>543.686</ele>
        <time>2015-08-05T13:56:47Z</time>
      </trkpt>
      <trkpt lat="44.59228" lon="2.37898">
        <ele>544.097</ele>
        <time>2015-08-05T13:57:07Z</time>
      </trkpt>
      <trkpt lat="44.5921" lon="2.37918">
        <ele>543.693</ele>
        <time>2015-08-05T13:57:27Z</time>
      </trkpt>
      <trkpt lat="44.59242" lon="2.3802">
        <ele>541.545</ele>
        <time>2015-08-05T13:57:47Z</time>
      </trkpt>
      <trkpt lat="44.59268" lon="2.38191">
        <ele>528.292</ele>
        <time>2015-08-05T13:58:07Z</time>
      </trkpt>
      <trkpt lat="44.59305" lon="2.38328">
        <ele>530.873</ele>
        <time>2015-08-05T13:58:27Z</time>
      </trkpt>
      <trkpt lat="44.59307" lon="2.38377">
        <ele>528.92</ele>
        <time>2015-08-05T13:58:47Z</time>
      </trkpt>
      <trkpt lat="44.59334" lon="2.38445">
        <ele>521.008</ele>
        <time>2015-08-05T13:59:07Z</time>
      </trkpt>
      <trkpt lat="44.59371" lon="2.3849">
        <ele>514.535</ele>
        <time>2015-08-05T13:59:27Z</time>
      </trkpt>
      <trkpt lat="44.59409" lon="2.38546">
        <ele>506.17</ele>
        <time>2015-08-05T13:59:47Z</time>
      </trkpt>
      <trkpt lat="44.59399" lon="2.38587">
        <ele>503.03</ele>
        <time>2015-08-05T14:00:07Z</time>
      </trkpt>
      <trkpt lat="44.5939" lon="2.38636">
        <ele>500.322</ele>
        <time>2015-08-05T14:00:27Z</time>
      </trkpt>
      <trkpt lat="44.59369" lon="2.3869">
        <ele>490.414</ele>
        <time>2015-08-05T14:00:47Z</time>
      </trkpt>
      <trkpt lat="44.59358" lon="2.38705">
        <ele>485.445</ele>
        <time>2015-08-05T14:01:07Z</time>
      </trkpt>
      <trkpt lat="44.59344" lon="2.38746">
        <ele>475.371</ele>
        <time>2015-08-05T14:01:27Z</time>
      </trkpt>
      <trkpt lat="44.59348" lon="2.38768">
        <ele>473.963</ele>
        <time>2015-08-05T14:01:47Z</time>
      </trkpt>
      <trkpt lat="44.59324" lon="2.38764">
        <ele>466.865</ele>
        <time>2015-08-05T14:02:07Z</time>
      </trkpt>
      <trkpt lat="44.59322" lon="2.38784">
        <ele>464.768</ele>
        <time>2015-08-05T14:02:27Z</time>
      </trkpt>
      <trkpt lat="44.59388" lon="2.38826">
        <ele>464.114</ele>
        <time>2015-08-05T14:02:47Z</time>
      </trkpt>
      <trkpt lat="44.59495" lon="2.38916">
        <ele>430.808</ele>
        <time>2015-08-05T14:03:07Z</time>
      </trkpt>
      <trkpt lat="44.59535" lon="2.38908">
        <ele>421.112</ele>
        <time>2015-08-05T14:03:27Z</time>
      </trkpt>
      <trkpt lat="44.59554" lon="2.38862">
        <ele>411.137</ele>
        <time>2015-08-05T14:03:47Z</time>
      </trkpt>
      <trkpt lat="44.59559" lon="2.38822">
        <ele>409.627</ele>
        <time>2015-08-05T14:04:07Z</time>
      </trkpt>
      <trkpt lat="44.59572" lon="2.38766">
        <ele>401.399</ele>
        <time>2015-08-05T14:04:27Z</time>
      </trkpt>
      <trkpt lat="44.59591" lon="2.38711">
        <ele>387.361</ele>
        <time>2015-08-05T14:04:47Z</time>
      </trkpt>
      <trkpt lat="44.59603" lon="2.38687">
        <ele>383.472</ele>
        <time>2015-08-05T14:05:07Z</time>
      </trkpt>
      <trkpt lat="44.5962" lon="2.38675">
        <ele>375.238</ele>
        <time>2015-08-05T14:05:27Z</time>
      </trkpt>
      <trkpt lat="44.5961" lon="2.38717">
        <ele>372.62</ele>
        <time>2015-08-05T14:05:47Z</time>
      </trkpt>
      <trkpt lat="44.59623" lon="2.38697">
        <ele>370.864</ele>
        <time>2015-08-05T14:06:07Z</time>
      </trkpt>
      <trkpt lat="44.5962" lon="2.3874">
        <ele>365.906</ele>
        <time>2015-08-05T14:06:27Z</time>
      </trkpt>
      <trkpt lat="44.59637" lon="2.38734">
        <ele>356.916</ele>
        <time>2015-08-05T14:06:47Z</time>
      </trkpt>
      <trkpt lat="44.59627" lon="2.38772">
        <ele>357.808</ele>
        <time>2015-08-05T14:07:07Z</time>
      </trkpt>
      <trkpt lat="44.59636" lon="2.38805">
        <ele>347.372</ele>
        <time>2015-08-05T14:07:27Z</time>
      </trkpt>
      <trkpt lat="44.59639" lon="2.38842">
        <ele>339.357</ele>
        <time>2015-08-05T14:07:47Z</time>
      </trkpt>
      <trkpt lat="44.59651" lon="2.3886">
        <ele>328.597</ele>
        <time>2015-08-05T14:08:07Z</time>
      </trkpt>
      <trkpt lat="44.59658" lon="2.38923">
        <ele>316.199</ele>
        <time>2015-08-05T14:08:27Z</time>
      </trkpt>
      <trkpt lat="44.59676" lon="2.3897">
        <ele>306.431</ele>
        <time>2015-08-05T14:08:47Z</time>
      </trkpt>
      <trkpt lat="44.59703" lon="2.39033">
        <ele>283.652</ele>
        <time>2015-08-05T14:09:07Z</time>
      </trkpt>
      <trkpt lat="44.59724" lon="2.39024">
        <ele>273.828</ele>
        <time>2015-08-05T14:09:27Z</time>
      </trkpt>
      <trkpt lat="44.59734" lon="2.39062">
        <ele>264.87</ele>
        <time>2015-08-05T14:09:47Z</time>
      </trkpt>
      <trkpt lat="44.59756" lon="2.39077">
        <ele>256.662</ele>
        <time>2015-08-05T14:10:07Z</time>
      </trkpt>
      <trkpt lat="44.59773" lon="2.3911">
        <ele>250.583</ele>
        <time>2015-08-05T14:10:27Z</time>
      </trkpt>
      <trkpt lat="44.59803" lon="2.39142">
        <ele>241.911</ele>
        <time>2015-08-05T14:10:47Z</time>
      </trkpt>
      <trkpt lat="44.59824" lon="2.39217">
        <ele>226.708</ele>
        <time>2015-08-05T14:11:07Z</time>
      </trkpt>
      <trkpt lat="44.5981" lon="2.39316">
        <ele>237.072</ele>
        <time>2015-08-05T14:11:27Z</time>
      </trkpt>
      <trkpt lat="44.5982" lon="2.39351">
        <ele>244.627</ele>
        <time>2015-08-05T14:11:47Z</time>
      </trkpt>
      <trkpt lat="44.59813" lon="2.39394">
        <ele>249.517</ele>
        <time>2015-08-05T14:12:07Z</time>
      </trkpt>
      <trkpt lat="44.59823" lon="2.39468">
        <ele>254.919</ele>
        <time>2015-08-05T14:12:27Z</time>
      </trkpt>
      <trkpt lat="44.59869" lon="2.39558">
        <ele>272.051</ele>
        <time>2015-08-05T14:12:47Z</time>
      </trkpt>
      <trkpt lat="44.59886" lon="2.39567">
        <ele>277.842</ele>
        <time>2015-08-05T14:13:07Z</time>
      </trkpt>
      <trkpt lat="44.5989" lon="2.39624">
        <ele>275.878</ele>
        <time>2015-08-05T14:13:27Z</time>
      </trkpt>
      <trkpt lat="44.59904" lon="2.39721">
        <ele>287.78</ele>
        <time>2015-08-05T14:13:47Z</time>
      </trkpt>
      <trkpt lat="44.5992" lon="2.3972">
        <ele>294.488</ele>
        <time>2015-08-05T14:14:07Z</time>
      </trkpt>
      <trkpt lat="44.59943" lon="2.39751">
        <ele>299.924</ele>
        <time>2015-08-05T14:14:27Z</time>
      </trkpt>
      <trkpt lat="44.59951" lon="2.39833">
        <ele>311.726</ele>
        <time>2015-08-05T14:14:47Z</time>
      </trkpt>
      <trkpt lat="44.59942" lon="2.39911">
        <ele>321.008</ele>
        <time>2015-08-05T14:15:07Z</time>
      </trkpt>
      <trkpt lat="44.59931" lon="2.3994">
        <ele>318.354</ele>
        <time>2015-08-05T14:15:27Z</time>
      </trkpt>
      <trkpt lat="44.59929" lon="2.39969">
        <ele>318.479</ele>
        <time>2015-08-05T14:15:47Z</time>
      </trkpt>
      <trkpt lat="44.59948" lon="2.40012">
        <ele>327.399</ele>
        <time>2015-08-05T14:16:07Z</time>
      </trkpt>
    </trkseg>
  </trk>
  <trk>
    <name><![CDATA[Espeyrac]]></name>
    <extensions>
      <line xmlns="http://www.topografix.com/GPX/gpx_style/0/2">
        <color>ff000d</color>
        <width>4</width>
      </line>
    </extensions>
    <trkseg>
      <trkpt lat="44.59948" lon="2.40012">
        <ele>327.399</ele>
        <time>2015-08-05T14:16:07Z</time>
      </trkpt>
      <trkpt lat="44.59948" lon="2.40012">
        <ele>327.399</ele>
        <time>2015-08-05T14:16:07Z</time>
      </trkpt>
      <trkpt lat="44.59948" lon="2.40012">
        <ele>327.399</ele>
        <time>2015-08-05T14:16:07Z</time>
      </trkpt>
      <trkpt lat="44.59948" lon="2.40012">
        <ele>327.399</ele>
        <time>2015-08-05T14:16:07Z</time>
      </trkpt>
      <trkpt lat="44.59948" lon="2.40012">
        <ele>327.399</ele>
        <time>2015-08-05T14:16:07Z</time>
      </trkpt>
      <trkpt lat="44.59964" lon="2.40235">
        <ele>335.271</ele>
        <time>2015-08-05T14:16:27Z</time>
      </trkpt>
      <trkpt lat="44.59956" lon="2.40271">
        <ele>335.843</ele>
        <time>2015-08-05T14:16:47Z</time>
      </trkpt>
      <trkpt lat="44.59962" lon="2.40298">
        <ele>342.374</ele>
        <time>2015-08-05T14:17:07Z</time>
      </trkpt>
      <trkpt lat="44.59965" lon="2.40287">
        <ele>342.51</ele>
        <time>2015-08-05T14:17:27Z</time>
      </trkpt>
      <trkpt lat="44.59981" lon="2.40398">
        <ele>354.692</ele>
        <time>2015-08-05T14:17:47Z</time>
      </trkpt>
      <trkpt lat="44.60017" lon="2.40514">
        <ele>364.572</ele>
        <time>2015-08-05T14:18:07Z</time>
      </trkpt>
      <trkpt lat="44.6005" lon="2.40576">
        <ele>377.513</ele>
        <time>2015-08-05T14:18:27Z</time>
      </trkpt>
      <trkpt lat="44.60083" lon="2.40602">
        <ele>386.314</ele>
        <time>2015-08-05T14:18:47Z</time>
      </trkpt>
      <trkpt lat="44.60127" lon="2.40602">
        <ele>401.808</ele>
        <time>2015-08-05T14:19:07Z</time>
      </trkpt>
      <trkpt lat="44.60152" lon="2.40564">
        <ele>414.023</ele>
        <time>2015-08-05T14:19:27Z</time>
      </trkpt>
      <trkpt lat="44.60163" lon="2.40529">
        <ele>420.868</ele>
        <time>2015-08-05T14:19:47Z</time>
      </trkpt>
      <trkpt lat="44.60166" lon="2.40443">
        <ele>428.838</ele>
        <time>2015-08-05T14:20:07Z</time>
      </trkpt>
      <trkpt lat="44.60141" lon="2.40373">
        <ele>426.73</ele>
        <time>2015-08-05T14:20:27Z</time>
      </trkpt>
      <trkpt lat="44.60143" lon="2.40338">
        <ele>428.182</ele>
        <time>2015-08-05T14:20:47Z</time>
      </trkpt>
      <trkpt lat="44.60167" lon="2.40272">
        <ele>437.863</ele>
        <time>2015-08-05T14:21:07Z</time>
      </trkpt>
      <trkpt lat="44.60188" lon="2.40255">
        <ele>450.449</ele>
        <time>2015-08-05T14:21:27Z</time>
      </trkpt>
      <trkpt lat="44.6019" lon="2.40298">
        <ele>451.121</ele>
        <time>2015-08-05T14:21:47Z</time>
      </trkpt>
      <trkpt lat="44.60205" lon="2.40336">
        <ele>451.723</ele>
        <time>2015-08-05T14:22:07Z</time>
      </trkpt>
      <trkpt lat="44.60237" lon="2.40352">
        <ele>463.983</ele>
        <time>2015-08-05T14:22:27Z</time>
      </trkpt>
      <trkpt lat="44.60316" lon="2.40457">
        <ele>487.811</ele>
        <time>2015-08-05T14:22:47Z</time>
      </trkpt>
      <trkpt lat="44.60362" lon="2.40533">
        <ele>500.908</ele>
        <time>2015-08-05T14:23:07Z</time>
      </trkpt>
      <trkpt lat="44.60472" lon="2.40749">
        <ele>533.028</ele>
        <time>2015-08-05T14:23:27Z</time>
      </trkpt>
      <trkpt lat="44.60469" lon="2.40797">
        <ele>538.383</ele>
        <time>2015-08-05T14:23:47Z</time>
      </trkpt>
      <trkpt lat="44.60498" lon="2.40803">
        <ele>540.753</ele>
        <time>2015-08-05T14:24:07Z</time>
      </trkpt>
      <trkpt lat="44.60526" lon="2.40885">
        <ele>547.715</ele>
        <time>2015-08-05T14:24:27Z</time>
      </trkpt>
      <trkpt lat="44.60537" lon="2.40977">
        <ele>545.617</ele>
        <time>2015-08-05T14:24:47Z</time>
      </trkpt>
      <trkpt lat="44.60565" lon="2.41144">
        <ele>545.138</ele>
        <time>2015-08-05T14:25:07Z</time>
      </trkpt>
      <trkpt lat="44.60619" lon="2.41199">
        <ele>553.424</ele>
        <time>2015-08-05T14:25:27Z</time>
      </trkpt>
      <trkpt lat="44.60643" lon="2.41255">
        <ele>558.076</ele>
        <time>2015-08-05T14:25:47Z</time>
      </trkpt>
      <trkpt lat="44.6064" lon="2.41303">
        <ele>559.955</ele>
        <time>2015-08-05T14:26:07Z</time>
      </trkpt>
      <trkpt lat="44.60594" lon="2.41374">
        <ele>561.607</ele>
        <time>2015-08-05T14:26:27Z</time>
      </trkpt>
      <trkpt lat="44.6049" lon="2.41492">
        <ele>559.617</ele>
        <time>2015-08-05T14:26:47Z</time>
      </trkpt>
      <trkpt lat="44.60443" lon="2.41573">
        <ele>562.108</ele>
        <time>2015-08-05T14:27:07Z</time>
      </trkpt>
      <trkpt lat="44.60442" lon="2.41656">
        <ele>559.611</ele>
        <time>2015-08-05T14:27:27Z</time>
      </trkpt>
      <trkpt lat="44.60467" lon="2.41714">
        <ele>561.656</ele>
        <time>2015-08-05T14:27:47Z</time>
      </trkpt>
      <trkpt lat="44.60502" lon="2.41823">
        <ele>557.726</ele>
        <time>2015-08-05T14:28:07Z</time>
      </trkpt>
      <trkpt lat="44.60567" lon="2.4183">
        <ele>563.188</ele>
        <time>2015-08-05T14:28:27Z</time>
      </trkpt>
      <trkpt lat="44.60598" lon="2.4188">
        <ele>563.12</ele>
        <time>2015-08-05T14:28:47Z</time>
      </trkpt>
      <trkpt lat="44.60611" lon="2.41953">
        <ele>569.241</ele>
        <time>2015-08-05T14:29:07Z</time>
      </trkpt>
      <trkpt lat="44.60629" lon="2.41987">
        <ele>572.957</ele>
        <time>2015-08-05T14:29:27Z</time>
      </trkpt>
      <trkpt lat="44.60659" lon="2.42071">
        <ele>574.849</ele>
        <time>2015-08-05T14:29:47Z</time>
      </trkpt>
      <trkpt lat="44.60684" lon="2.42091">
        <ele>572.451</ele>
        <time>2015-08-05T14:30:07Z</time>
      </trkpt>
      <trkpt lat="44.6074" lon="2.42096">
        <ele>574.001</ele>
        <time>2015-08-05T14:30:27Z</time>
      </trkpt>
      <trkpt lat="44.60752" lon="2.42118">
        <ele>574.411</ele>
        <time>2015-08-05T14:30:47Z</time>
      </trkpt>
      <trkpt lat="44.60743" lon="2.42183">
        <ele>572.808</ele>
        <time>2015-08-05T14:31:07Z</time>
      </trkpt>
      <trkpt lat="44.60752" lon="2.42219">
        <ele>574.141</ele>
        <time>2015-08-05T14:31:27Z</time>
      </trkpt>
      <trkpt lat="44.60924" lon="2.42442">
        <ele>563.386</ele>
        <time>2015-08-05T14:31:47Z</time>
      </trkpt>
      <trkpt lat="44.60942" lon="2.4251">
        <ele>562.186</ele>
        <time>2015-08-05T14:32:07Z</time>
      </trkpt>
      <trkpt lat="44.60939" lon="2.42656">
        <ele>565.238</ele>
        <time>2015-08-05T14:32:27Z</time>
      </trkpt>
      <trkpt lat="44.60954" lon="2.42758">
        <ele>571.21</ele>
        <time>2015-08-05T14:32:47Z</time>
      </trkpt>
      <trkpt lat="44.60978" lon="2.42833">
        <ele>569.121</ele>
        <time>2015-08-05T14:33:07Z</time>
      </trkpt>
      <trkpt lat="44.60998" lon="2.42901">
        <ele>564.987</ele>
        <time>2020-03-06T21:59:37Z</time>
      </trkpt>
      <trkpt lat="44.61151" lon="2.42983">
        <ele>565.879</ele>
        <time>2020-03-06T21:59:57Z</time>
      </trkpt>
      <trkpt lat="44.61176" lon="2.4303">
        <ele>565.569</ele>
        <time>2015-08-05T14:34:07Z</time>
      </trkpt>
      <trkpt lat="44.61165" lon="2.43083">
        <ele>569.704</ele>
        <time>2015-08-05T14:34:27Z</time>
      </trkpt>
      <trkpt lat="44.61087" lon="2.43179">
        <ele>571.524</ele>
        <time>2015-08-05T14:34:47Z</time>
      </trkpt>
      <trkpt lat="44.61063" lon="2.43257">
        <ele>567.508</ele>
        <time>2015-08-05T14:35:07Z</time>
      </trkpt>
      <trkpt lat="44.61065" lon="2.43345">
        <ele>568.362</ele>
        <time>2015-08-05T14:35:27Z</time>
      </trkpt>
      <trkpt lat="44.61101" lon="2.43446">
        <ele>571.977</ele>
        <time>2015-08-05T14:35:47Z</time>
      </trkpt>
      <trkpt lat="44.61108" lon="2.43602">
        <ele>576.397</ele>
        <time>2015-08-05T14:36:07Z</time>
      </trkpt>
      <trkpt lat="44.61076" lon="2.43678">
        <ele>580.489</ele>
        <time>2015-08-05T14:36:27Z</time>
      </trkpt>
      <trkpt lat="44.61009" lon="2.43706">
        <ele>578.481</ele>
        <time>2015-08-05T14:36:47Z</time>
      </trkpt>
      <trkpt lat="44.60988" lon="2.43741">
        <ele>576.922</ele>
        <time>2015-08-05T14:37:07Z</time>
      </trkpt>
      <trkpt lat="44.60984" lon="2.43808">
        <ele>583.018</ele>
        <time>2015-08-05T14:37:27Z</time>
      </trkpt>
      <trkpt lat="44.60946" lon="2.4387">
        <ele>584.56</ele>
        <time>2015-08-05T14:37:47Z</time>
      </trkpt>
      <trkpt lat="44.6096" lon="2.43931">
        <ele>586.747</ele>
        <time>2015-08-05T14:38:07Z</time>
      </trkpt>
      <trkpt lat="44.60962" lon="2.43974">
        <ele>588.029</ele>
        <time>2015-08-05T14:38:27Z</time>
      </trkpt>
      <trkpt lat="44.60938" lon="2.44052">
        <ele>587.821</ele>
        <time>2015-08-05T14:38:47Z</time>
      </trkpt>
      <trkpt lat="44.60933" lon="2.44101">
        <ele>586.108</ele>
        <time>2015-08-05T14:39:07Z</time>
      </trkpt>
      <trkpt lat="44.60966" lon="2.44167">
        <ele>588.84</ele>
        <time>2015-08-05T14:39:27Z</time>
      </trkpt>
      <trkpt lat="44.60967" lon="2.44208">
        <ele>590.685</ele>
        <time>2015-08-05T14:39:47Z</time>
      </trkpt>
      <trkpt lat="44.60922" lon="2.4432">
        <ele>593.925</ele>
        <time>2015-08-05T14:40:07Z</time>
      </trkpt>
      <trkpt lat="44.60912" lon="2.44415">
        <ele>594.817</ele>
        <time>2015-08-05T14:40:27Z</time>
      </trkpt>
      <trkpt lat="44.6096" lon="2.44462">
        <ele>598.449</ele>
        <time>2015-08-05T14:40:47Z</time>
      </trkpt>
      <trkpt lat="44.60965" lon="2.44506">
        <ele>597.57</ele>
        <time>2015-08-05T14:41:07Z</time>
      </trkpt>
      <trkpt lat="44.60941" lon="2.44586">
        <ele>598.846</ele>
        <time>2015-08-05T14:41:27Z</time>
      </trkpt>
      <trkpt lat="44.60934" lon="2.44645">
        <ele>602.348</ele>
        <time>2015-08-05T14:41:47Z</time>
      </trkpt>
      <trkpt lat="44.60869" lon="2.44784">
        <ele>603.674</ele>
        <time>2015-08-05T14:42:07Z</time>
      </trkpt>
      <trkpt lat="44.60863" lon="2.44839">
        <ele>603.356</ele>
        <time>2015-08-05T14:42:27Z</time>
      </trkpt>
      <trkpt lat="44.60887" lon="2.44848">
        <ele>607.221</ele>
        <time>2015-08-05T14:42:47Z</time>
      </trkpt>
      <trkpt lat="44.6091" lon="2.44846">
        <ele>609.808</ele>
        <time>2015-08-05T14:43:07Z</time>
      </trkpt>
      <trkpt lat="44.60941" lon="2.449">
        <ele>611.363</ele>
        <time>2015-08-05T14:43:27Z</time>
      </trkpt>
      <trkpt lat="44.61008" lon="2.44946">
        <ele>610.258</ele>
        <time>2015-08-05T14:43:47Z</time>
      </trkpt>
      <trkpt lat="44.61032" lon="2.45">
        <ele>608.268</ele>
        <time>2015-08-05T14:44:07Z</time>
      </trkpt>
      <trkpt lat="44.61052" lon="2.45078">
        <ele>607.07</ele>
        <time>2015-08-05T14:44:27Z</time>
      </trkpt>
      <trkpt lat="44.61094" lon="2.45183">
        <ele>608.242</ele>
        <time>2015-08-05T14:44:47Z</time>
      </trkpt>
      <trkpt lat="44.61197" lon="2.45311">
        <ele>611.973</ele>
        <time>2015-08-05T14:45:07Z</time>
      </trkpt>
      <trkpt lat="44.61231" lon="2.4536">
        <ele>612.329</ele>
        <time>2015-08-05T14:45:27Z</time>
      </trkpt>
      <trkpt lat="44.61291" lon="2.45505">
        <ele>606.341</ele>
        <time>2015-08-05T14:45:47Z</time>
      </trkpt>
      <trkpt lat="44.61302" lon="2.4552">
        <ele>605.672</ele>
        <time>2015-08-05T14:46:07Z</time>
      </trkpt>
      <trkpt lat="44.61293" lon="2.45561">
        <ele>606.113</ele>
        <time>2015-08-05T14:46:27Z</time>
      </trkpt>
      <trkpt lat="44.61252" lon="2.45632">
        <ele>612.414</ele>
        <time>2015-08-05T14:46:47Z</time>
      </trkpt>
      <trkpt lat="44.61171" lon="2.45726">
        <ele>618.308</ele>
        <time>2015-08-05T14:47:07Z</time>
      </trkpt>
      <trkpt lat="44.61153" lon="2.45775">
        <ele>620.463</ele>
        <time>2015-08-05T14:47:27Z</time>
      </trkpt>
      <trkpt lat="44.61147" lon="2.45815">
        <ele>622.288</ele>
        <time>2015-08-05T14:47:47Z</time>
      </trkpt>
      <trkpt lat="44.61097" lon="2.45957">
        <ele>620.858</ele>
        <time>2015-08-05T14:48:07Z</time>
      </trkpt>
      <trkpt lat="44.61095" lon="2.45992">
        <ele>620.66</ele>
        <time>2015-08-05T14:48:27Z</time>
      </trkpt>
      <trkpt lat="44.60943" lon="2.46043">
        <ele>624.032</ele>
        <time>2015-08-05T14:48:47Z</time>
      </trkpt>
      <trkpt lat="44.60824" lon="2.46103">
        <ele>624.013</ele>
        <time>2015-08-05T14:49:07Z</time>
      </trkpt>
      <trkpt lat="44.60701" lon="2.46139">
        <ele>624.279</ele>
        <time>2015-08-05T14:49:27Z</time>
      </trkpt>
      <trkpt lat="44.60698" lon="2.46203">
        <ele>622.791</ele>
        <time>2015-08-05T14:49:47Z</time>
      </trkpt>
      <trkpt lat="44.60681" lon="2.46296">
        <ele>618.973</ele>
        <time>2015-08-05T14:50:07Z</time>
      </trkpt>
      <trkpt lat="44.60662" lon="2.46388">
        <ele>611.785</ele>
        <time>2015-08-05T14:50:27Z</time>
      </trkpt>
      <trkpt lat="44.60659" lon="2.46444">
        <ele>609.713</ele>
        <time>2015-08-05T14:50:47Z</time>
      </trkpt>
      <trkpt lat="44.60659" lon="2.4654">
        <ele>609.008</ele>
        <time>2015-08-05T14:51:07Z</time>
      </trkpt>
      <trkpt lat="44.60646" lon="2.46601">
        <ele>608.353</ele>
        <time>2015-08-05T14:51:27Z</time>
      </trkpt>
      <trkpt lat="44.60595" lon="2.46756">
        <ele>605.578</ele>
        <time>2015-08-05T14:51:47Z</time>
      </trkpt>
      <trkpt lat="44.60587" lon="2.46834">
        <ele>604.078</ele>
        <time>2015-08-05T14:52:07Z</time>
      </trkpt>
      <trkpt lat="44.60589" lon="2.46868">
        <ele>602.87</ele>
        <time>2015-08-05T14:52:27Z</time>
      </trkpt>
      <trkpt lat="44.60546" lon="2.46995">
        <ele>604.042</ele>
        <time>2015-08-05T14:52:47Z</time>
      </trkpt>
      <trkpt lat="44.60518" lon="2.47125">
        <ele>615.443</ele>
        <time>2015-08-05T14:53:07Z</time>
      </trkpt>
      <trkpt lat="44.6052" lon="2.47194">
        <ele>616.299</ele>
        <time>2015-08-05T14:53:27Z</time>
      </trkpt>
      <trkpt lat="44.60537" lon="2.47318">
        <ele>608.871</ele>
        <time>2015-08-05T14:53:47Z</time>
      </trkpt>
      <trkpt lat="44.60543" lon="2.47397">
        <ele>598.986</ele>
        <time>2015-08-05T14:54:07Z</time>
      </trkpt>
      <trkpt lat="44.60527" lon="2.47461">
        <ele>596.96</ele>
        <time>2015-08-05T14:54:27Z</time>
      </trkpt>
      <trkpt lat="44.60538" lon="2.4752">
        <ele>592.926</ele>
        <time>2015-08-05T14:54:47Z</time>
      </trkpt>
      <trkpt lat="44.6056" lon="2.47663">
        <ele>584.708</ele>
        <time>2015-08-05T14:55:07Z</time>
      </trkpt>
      <trkpt lat="44.60607" lon="2.47747">
        <ele>581.364</ele>
        <time>2015-08-05T14:55:27Z</time>
      </trkpt>
      <trkpt lat="44.60624" lon="2.47791">
        <ele>580.829</ele>
        <time>2015-08-05T14:55:47Z</time>
      </trkpt>
      <trkpt lat="44.60629" lon="2.47826">
        <ele>581.049</ele>
        <time>2015-08-05T14:56:07Z</time>
      </trkpt>
      <trkpt lat="44.60617" lon="2.47876">
        <ele>579.811</ele>
        <time>2015-08-05T14:56:27Z</time>
      </trkpt>
      <trkpt lat="44.60598" lon="2.47913">
        <ele>576.953</ele>
        <time>2015-08-05T14:56:47Z</time>
      </trkpt>
      <trkpt lat="44.60564" lon="2.47951">
        <ele>570.634</ele>
        <time>2015-08-05T14:57:07Z</time>
      </trkpt>
      <trkpt lat="44.60554" lon="2.47979">
        <ele>565.08</ele>
        <time>2015-08-05T14:57:27Z</time>
      </trkpt>
      <trkpt lat="44.60556" lon="2.48052">
        <ele>549.772</ele>
        <time>2015-08-05T14:57:47Z</time>
      </trkpt>
      <trkpt lat="44.60507" lon="2.48206">
        <ele>528.468</ele>
        <time>2015-08-05T14:58:07Z</time>
      </trkpt>
      <trkpt lat="44.60473" lon="2.48246">
        <ele>517.742</ele>
        <time>2015-08-05T14:58:27Z</time>
      </trkpt>
      <trkpt lat="44.60455" lon="2.48279">
        <ele>512.226</ele>
        <time>2015-08-05T14:58:47Z</time>
      </trkpt>
      <trkpt lat="44.60446" lon="2.48345">
        <ele>508.408</ele>
        <time>2015-08-05T14:59:07Z</time>
      </trkpt>
      <trkpt lat="44.60449" lon="2.48389">
        <ele>504.682</ele>
        <time>2015-08-05T14:59:27Z</time>
      </trkpt>
      <trkpt lat="44.60488" lon="2.48424">
        <ele>505.677</ele>
        <time>2015-08-05T14:59:47Z</time>
      </trkpt>
      <trkpt lat="44.60536" lon="2.48527">
        <ele>506.757</ele>
        <time>2015-08-05T15:00:07Z</time>
      </trkpt>
      <trkpt lat="44.60511" lon="2.48604">
        <ele>508.419</ele>
        <time>2015-08-05T15:00:27Z</time>
      </trkpt>
      <trkpt lat="44.60487" lon="2.48656">
        <ele>504.891</ele>
        <time>2015-08-05T15:00:47Z</time>
      </trkpt>
      <trkpt lat="44.60527" lon="2.48713">
        <ele>505.022</ele>
        <time>2015-08-05T15:01:07Z</time>
      </trkpt>
      <trkpt lat="44.60527" lon="2.48713">
        <ele>505.022</ele>
        <time>2015-08-05T15:01:07Z</time>
      </trkpt>
      <trkpt lat="44.60516" lon="2.48836">
        <ele>496.448</ele>
        <time>2015-08-05T15:01:27Z</time>
      </trkpt>
      <trkpt lat="44.60413" lon="2.49137">
        <ele>475.64</ele>
        <time>2015-08-05T15:01:47Z</time>
      </trkpt>
      <trkpt lat="44.60413" lon="2.4916">
        <ele>474.241</ele>
        <time>2015-08-05T15:02:07Z</time>
      </trkpt>
      <trkpt lat="44.60443" lon="2.49227">
        <ele>465.381</ele>
        <time>2015-08-05T15:02:27Z</time>
      </trkpt>
      <trkpt lat="44.60494" lon="2.49351">
        <ele>451.909</ele>
        <time>2015-08-05T15:02:47Z</time>
      </trkpt>
      <trkpt lat="44.60497" lon="2.49401">
        <ele>448.808</ele>
        <time>2015-08-05T15:03:07Z</time>
      </trkpt>
      <trkpt lat="44.60493" lon="2.49435">
        <ele>443.26</ele>
        <time>2015-08-05T15:03:27Z</time>
      </trkpt>
      <trkpt lat="44.6051" lon="2.49481">
        <ele>435.545</ele>
        <time>2015-08-05T15:03:47Z</time>
      </trkpt>
      <trkpt lat="44.60507" lon="2.49558">
        <ele>423.045</ele>
        <time>2015-08-05T15:04:07Z</time>
      </trkpt>
      <trkpt lat="44.60511" lon="2.49601">
        <ele>420.447</ele>
        <time>2015-08-05T15:04:27Z</time>
      </trkpt>
      <trkpt lat="44.60513" lon="2.49657">
        <ele>419.399</ele>
        <time>2015-08-05T15:04:47Z</time>
      </trkpt>
      <trkpt lat="44.60481" lon="2.4975">
        <ele>429.45</ele>
        <time>2015-08-05T15:05:07Z</time>
      </trkpt>
      <trkpt lat="44.60486" lon="2.49925">
        <ele>432.186</ele>
        <time>2015-08-05T15:05:27Z</time>
      </trkpt>
      <trkpt lat="44.60509" lon="2.49974">
        <ele>431.798</ele>
        <time>2015-08-05T15:05:47Z</time>
      </trkpt>
      <trkpt lat="44.60615" lon="2.5005">
        <ele>420.634</ele>
        <time>2015-08-05T15:06:07Z</time>
      </trkpt>
      <trkpt lat="44.60637" lon="2.50094">
        <ele>414.655</ele>
        <time>2020-03-06T22:32:37Z</time>
      </trkpt>
      <trkpt lat="44.60631" lon="2.5022">
        <ele>411.71</ele>
        <time>2020-03-06T22:32:57Z</time>
      </trkpt>
      <trkpt lat="44.60685" lon="2.50253">
        <ele>409.708</ele>
        <time>2015-08-05T15:07:07Z</time>
      </trkpt>
      <trkpt lat="44.60685" lon="2.5035">
        <ele>410.379</ele>
        <time>2015-08-05T15:07:27Z</time>
      </trkpt>
      <trkpt lat="44.60735" lon="2.50358">
        <ele>415.124</ele>
        <time>2015-08-05T15:07:47Z</time>
      </trkpt>
      <trkpt lat="44.60814" lon="2.5043">
        <ele>413.374</ele>
        <time>2015-08-05T15:08:07Z</time>
      </trkpt>
      <trkpt lat="44.60829" lon="2.50456">
        <ele>412.686</ele>
        <time>2015-08-05T15:08:27Z</time>
      </trkpt>
      <trkpt lat="44.60878" lon="2.50673">
        <ele>404.128</ele>
        <time>2015-08-05T15:08:47Z</time>
      </trkpt>
      <trkpt lat="44.60867" lon="2.50697">
        <ele>403.119</ele>
        <time>2015-08-05T15:09:07Z</time>
      </trkpt>
      <trkpt lat="44.60865" lon="2.50739">
        <ele>401.675</ele>
        <time>2015-08-05T15:09:27Z</time>
      </trkpt>
      <trkpt lat="44.6088" lon="2.50812">
        <ele>395.127</ele>
        <time>2015-08-05T15:09:47Z</time>
      </trkpt>
      <trkpt lat="44.6091" lon="2.50896">
        <ele>385.395</ele>
        <time>2015-08-05T15:10:07Z</time>
      </trkpt>
      <trkpt lat="44.6091" lon="2.50918">
        <ele>383.449</ele>
        <time>2015-08-05T15:10:27Z</time>
      </trkpt>
      <trkpt lat="44.60945" lon="2.50887">
        <ele>379.823</ele>
        <time>2015-08-05T15:10:47Z</time>
      </trkpt>
      <trkpt lat="44.60965" lon="2.50852">
        <ele>373.308</ele>
        <time>2015-08-05T15:11:07Z</time>
      </trkpt>
      <trkpt lat="44.60983" lon="2.50832">
        <ele>367.985</ele>
        <time>2015-08-05T15:11:27Z</time>
      </trkpt>
      <trkpt lat="44.60999" lon="2.50831">
        <ele>364.33</ele>
        <time>2015-08-05T15:11:47Z</time>
      </trkpt>
      <trkpt lat="44.61038" lon="2.50845">
        <ele>364.65</ele>
        <time>2015-08-05T15:12:07Z</time>
      </trkpt>
      <trkpt lat="44.61087" lon="2.50904">
        <ele>373.582</ele>
        <time>2015-08-05T15:12:27Z</time>
      </trkpt>
      <trkpt lat="44.61144" lon="2.50955">
        <ele>380.764</ele>
        <time>2015-08-05T15:12:47Z</time>
      </trkpt>
      <trkpt lat="44.61169" lon="2.50998">
        <ele>384.515</ele>
        <time>2015-08-05T15:13:07Z</time>
      </trkpt>
      <trkpt lat="44.61193" lon="2.51014">
        <ele>388.211</ele>
        <time>2015-08-05T15:13:27Z</time>
      </trkpt>
      <trkpt lat="44.6122" lon="2.51054">
        <ele>389.893</ele>
        <time>2015-08-05T15:13:47Z</time>
      </trkpt>
      <trkpt lat="44.61253" lon="2.51062">
        <ele>394.459</ele>
        <time>2015-08-05T15:14:07Z</time>
      </trkpt>
      <trkpt lat="44.61261" lon="2.51042">
        <ele>395.503</ele>
        <time>2015-08-05T15:14:27Z</time>
      </trkpt>
      <trkpt lat="44.61277" lon="2.51062">
        <ele>398.123</ele>
        <time>2015-08-05T15:14:47Z</time>
      </trkpt>
    </trkseg>
  </trk>
  <trk>
    <name><![CDATA[Campuac]]></name>
    <extensions>
      <line xmlns="http://www.topografix.com/GPX/gpx_style/0/2">
        <color>ee00ff</color>
        <width>4</width>
      </line>
    </extensions>
    <trkseg>
      <trkpt lat="44.61277" lon="2.51062">
        <ele>398.123</ele>
        <time>2015-08-05T15:14:47Z</time>
      </trkpt>
      <trkpt lat="44.61277" lon="2.51062">
        <ele>398.123</ele>
        <time>2015-08-05T15:14:47Z</time>
      </trkpt>
      <trkpt lat="44.61277" lon="2.51062">
        <ele>398.123</ele>
        <time>2015-08-05T15:14:47Z</time>
      </trkpt>
      <trkpt lat="44.61277" lon="2.51062">
        <ele>398.123</ele>
        <time>2015-08-05T15:14:47Z</time>
      </trkpt>
      <trkpt lat="44.61277" lon="2.51062">
        <ele>398.123</ele>
        <time>2015-08-05T15:14:47Z</time>
      </trkpt>
      <trkpt lat="44.61239" lon="2.5118">
        <ele>396.508</ele>
        <time>2015-08-05T15:15:07Z</time>
      </trkpt>
      <trkpt lat="44.6124" lon="2.51211">
        <ele>396.941</ele>
        <time>2015-08-05T15:15:27Z</time>
      </trkpt>
      <trkpt lat="44.6125" lon="2.51267">
        <ele>397.916</ele>
        <time>2015-08-05T15:15:47Z</time>
      </trkpt>
      <trkpt lat="44.61264" lon="2.51306">
        <ele>401.516</ele>
        <time>2015-08-05T15:16:07Z</time>
      </trkpt>
      <trkpt lat="44.61245" lon="2.51338">
        <ele>396.688</ele>
        <time>2015-08-05T15:16:27Z</time>
      </trkpt>
      <trkpt lat="44.6122" lon="2.5139">
        <ele>392.32</ele>
        <time>2015-08-05T15:16:47Z</time>
      </trkpt>
      <trkpt lat="44.61237" lon="2.51434">
        <ele>397.161</ele>
        <time>2015-08-05T15:17:07Z</time>
      </trkpt>
      <trkpt lat="44.61231" lon="2.51471">
        <ele>397.037</ele>
        <time>2015-08-05T15:17:27Z</time>
      </trkpt>
      <trkpt lat="44.61234" lon="2.51507">
        <ele>398.789</ele>
        <time>2015-08-05T15:17:47Z</time>
      </trkpt>
      <trkpt lat="44.61219" lon="2.51543">
        <ele>402.178</ele>
        <time>2015-08-05T15:18:07Z</time>
      </trkpt>
      <trkpt lat="44.61203" lon="2.51545">
        <ele>405.133</ele>
        <time>2015-08-05T15:18:27Z</time>
      </trkpt>
      <trkpt lat="44.61201" lon="2.51525">
        <ele>402.726</ele>
        <time>2015-08-05T15:18:47Z</time>
      </trkpt>
      <trkpt lat="44.61208" lon="2.51489">
        <ele>399.208</ele>
        <time>2015-08-05T15:19:07Z</time>
      </trkpt>
      <trkpt lat="44.61181" lon="2.51455">
        <ele>405.623</ele>
        <time>2015-08-05T15:19:27Z</time>
      </trkpt>
      <trkpt lat="44.61141" lon="2.5143">
        <ele>415.078</ele>
        <time>2015-08-05T15:19:47Z</time>
      </trkpt>
      <trkpt lat="44.61132" lon="2.51372">
        <ele>411.468</ele>
        <time>2015-08-05T15:20:07Z</time>
      </trkpt>
      <trkpt lat="44.61118" lon="2.51352">
        <ele>409.16</ele>
        <time>2015-08-05T15:20:27Z</time>
      </trkpt>
      <trkpt lat="44.61055" lon="2.51361">
        <ele>410.952</ele>
        <time>2015-08-05T15:20:47Z</time>
      </trkpt>
      <trkpt lat="44.61053" lon="2.51408">
        <ele>417.763</ele>
        <time>2015-08-05T15:21:07Z</time>
      </trkpt>
      <trkpt lat="44.6104" lon="2.51431">
        <ele>421.089</ele>
        <time>2015-08-05T15:21:27Z</time>
      </trkpt>
      <trkpt lat="44.61045" lon="2.51516">
        <ele>437.431</ele>
        <time>2015-08-05T15:21:47Z</time>
      </trkpt>
      <trkpt lat="44.60976" lon="2.51549">
        <ele>442.348</ele>
        <time>2015-08-05T15:22:07Z</time>
      </trkpt>
      <trkpt lat="44.60965" lon="2.51568">
        <ele>447.361</ele>
        <time>2015-08-05T15:22:27Z</time>
      </trkpt>
      <trkpt lat="44.60948" lon="2.51567">
        <ele>447.117</ele>
        <time>2015-08-05T15:22:47Z</time>
      </trkpt>
      <trkpt lat="44.60919" lon="2.51574">
        <ele>446.908</ele>
        <time>2015-08-05T15:23:07Z</time>
      </trkpt>
      <trkpt lat="44.60921" lon="2.51618">
        <ele>453.56</ele>
        <time>2015-08-05T15:23:27Z</time>
      </trkpt>
      <trkpt lat="44.60917" lon="2.51646">
        <ele>457.625</ele>
        <time>2015-08-05T15:23:47Z</time>
      </trkpt>
      <trkpt lat="44.60905" lon="2.51655">
        <ele>459.835</ele>
        <time>2015-08-05T15:24:07Z</time>
      </trkpt>
      <trkpt lat="44.60879" lon="2.51629">
        <ele>453.037</ele>
        <time>2015-08-05T15:24:27Z</time>
      </trkpt>
      <trkpt lat="44.60831" lon="2.51629">
        <ele>452.269</ele>
        <time>2015-08-05T15:24:47Z</time>
      </trkpt>
      <trkpt lat="44.60799" lon="2.51608">
        <ele>448.45</ele>
        <time>2015-08-05T15:25:07Z</time>
      </trkpt>
      <trkpt lat="44.60783" lon="2.51578">
        <ele>444.036</ele>
        <time>2015-08-05T15:25:27Z</time>
      </trkpt>
      <trkpt lat="44.60762" lon="2.51567">
        <ele>442.088</ele>
        <time>2015-08-05T15:25:47Z</time>
      </trkpt>
      <trkpt lat="44.60732" lon="2.51568">
        <ele>441.966</ele>
        <time>2015-08-05T15:26:07Z</time>
      </trkpt>
      <trkpt lat="44.60688" lon="2.51591">
        <ele>443.929</ele>
        <time>2015-08-05T15:26:27Z</time>
      </trkpt>
      <trkpt lat="44.6067" lon="2.51608">
        <ele>445.721</ele>
        <time>2015-08-05T15:26:47Z</time>
      </trkpt>
      <trkpt lat="44.60657" lon="2.5161">
        <ele>445.108</ele>
        <time>2015-08-05T15:27:07Z</time>
      </trkpt>
      <trkpt lat="44.60645" lon="2.51623">
        <ele>445.262</ele>
        <time>2015-08-05T15:27:27Z</time>
      </trkpt>
      <trkpt lat="44.60619" lon="2.51633">
        <ele>441.067</ele>
        <time>2015-08-05T15:27:47Z</time>
      </trkpt>
      <trkpt lat="44.60634" lon="2.51685">
        <ele>447.227</ele>
        <time>2015-08-05T15:28:07Z</time>
      </trkpt>
      <trkpt lat="44.60596" lon="2.51737">
        <ele>448.659</ele>
        <time>2015-08-05T15:28:27Z</time>
      </trkpt>
      <trkpt lat="44.60547" lon="2.51784">
        <ele>447.461</ele>
        <time>2015-08-05T15:28:47Z</time>
      </trkpt>
      <trkpt lat="44.60543" lon="2.51827">
        <ele>449.412</ele>
        <time>2015-08-05T15:29:07Z</time>
      </trkpt>
      <trkpt lat="44.60596" lon="2.51861">
        <ele>464.898</ele>
        <time>2015-08-05T15:29:27Z</time>
      </trkpt>
      <trkpt lat="44.60602" lon="2.5188">
        <ele>467.29</ele>
        <time>2015-08-05T15:29:47Z</time>
      </trkpt>
      <trkpt lat="44.60563" lon="2.5191">
        <ele>465.719</ele>
        <time>2015-08-05T15:30:07Z</time>
      </trkpt>
      <trkpt lat="44.60542" lon="2.51946">
        <ele>473.809</ele>
        <time>2015-08-05T15:30:27Z</time>
      </trkpt>
      <trkpt lat="44.605" lon="2.51945">
        <ele>468.219</ele>
        <time>2015-08-05T15:30:47Z</time>
      </trkpt>
      <trkpt lat="44.60471" lon="2.51994">
        <ele>478.308</ele>
        <time>2015-08-05T15:31:07Z</time>
      </trkpt>
      <trkpt lat="44.60405" lon="2.5207">
        <ele>481.317</ele>
        <time>2015-08-05T15:31:27Z</time>
      </trkpt>
      <trkpt lat="44.60362" lon="2.521">
        <ele>477.872</ele>
        <time>2015-08-05T15:31:47Z</time>
      </trkpt>
      <trkpt lat="44.60339" lon="2.52148">
        <ele>475.482</ele>
        <time>2015-08-05T15:32:07Z</time>
      </trkpt>
      <trkpt lat="44.60367" lon="2.52192">
        <ele>480.754</ele>
        <time>2015-08-05T15:32:27Z</time>
      </trkpt>
      <trkpt lat="44.60381" lon="2.52248">
        <ele>477.626</ele>
        <time>2015-08-05T15:32:47Z</time>
      </trkpt>
      <trkpt lat="44.60402" lon="2.52279">
        <ele>481.687</ele>
        <time>2015-08-05T15:33:07Z</time>
      </trkpt>
      <trkpt lat="44.60413" lon="2.52316">
        <ele>483.643</ele>
        <time>2015-08-05T15:33:27Z</time>
      </trkpt>
      <trkpt lat="44.60435" lon="2.52351">
        <ele>487.665</ele>
        <time>2015-08-05T15:33:47Z</time>
      </trkpt>
      <trkpt lat="44.60434" lon="2.5237">
        <ele>488.112</ele>
        <time>2015-08-05T15:34:07Z</time>
      </trkpt>
      <trkpt lat="44.60402" lon="2.52402">
        <ele>485.132</ele>
        <time>2015-08-05T15:34:27Z</time>
      </trkpt>
      <trkpt lat="44.60384" lon="2.52454">
        <ele>495.205</ele>
        <time>2015-08-05T15:34:47Z</time>
      </trkpt>
      <trkpt lat="44.6032" lon="2.52471">
        <ele>486.208</ele>
        <time>2015-08-05T15:35:07Z</time>
      </trkpt>
      <trkpt lat="44.60287" lon="2.52502">
        <ele>491.837</ele>
        <time>2015-08-05T15:35:27Z</time>
      </trkpt>
      <trkpt lat="44.60257" lon="2.52518">
        <ele>488.142</ele>
        <time>2015-08-05T15:35:47Z</time>
      </trkpt>
      <trkpt lat="44.60239" lon="2.52538">
        <ele>488.482</ele>
        <time>2015-08-05T15:36:07Z</time>
      </trkpt>
      <trkpt lat="44.60207" lon="2.52562">
        <ele>486.534</ele>
        <time>2015-08-05T15:36:27Z</time>
      </trkpt>
      <trkpt lat="44.6017" lon="2.52651">
        <ele>494.616</ele>
        <time>2015-08-05T15:36:47Z</time>
      </trkpt>
      <trkpt lat="44.60145" lon="2.52678">
        <ele>500.517</ele>
        <time>2015-08-05T15:37:07Z</time>
      </trkpt>
      <trkpt lat="44.60108" lon="2.52666">
        <ele>496.813</ele>
        <time>2015-08-05T15:37:27Z</time>
      </trkpt>
      <trkpt lat="44.60034" lon="2.5277">
        <ele>505.625</ele>
        <time>2015-08-05T15:37:47Z</time>
      </trkpt>
      <trkpt lat="44.59999" lon="2.52778">
        <ele>507.153</ele>
        <time>2015-08-05T15:38:07Z</time>
      </trkpt>
      <trkpt lat="44.59979" lon="2.52792">
        <ele>510.404</ele>
        <time>2015-08-05T15:38:27Z</time>
      </trkpt>
      <trkpt lat="44.59974" lon="2.52811">
        <ele>513.914</ele>
        <time>2015-08-05T15:38:47Z</time>
      </trkpt>
      <trkpt lat="44.60026" lon="2.52847">
        <ele>522.208</ele>
        <time>2015-08-05T15:39:07Z</time>
      </trkpt>
      <trkpt lat="44.60115" lon="2.52794">
        <ele>526.391</ele>
        <time>2015-08-05T15:39:27Z</time>
      </trkpt>
      <trkpt lat="44.60219" lon="2.52827">
        <ele>548.446</ele>
        <time>2015-08-05T15:39:47Z</time>
      </trkpt>
      <trkpt lat="44.6022" lon="2.52839">
        <ele>552.436</ele>
        <time>2015-08-05T15:40:07Z</time>
      </trkpt>
      <trkpt lat="44.60183" lon="2.5285">
        <ele>549.118</ele>
        <time>2015-08-05T15:40:27Z</time>
      </trkpt>
      <trkpt lat="44.60142" lon="2.52875">
        <ele>550.82</ele>
        <time>2015-08-05T15:40:47Z</time>
      </trkpt>
      <trkpt lat="44.601" lon="2.52924">
        <ele>556.131</ele>
        <time>2015-08-05T15:41:07Z</time>
      </trkpt>
      <trkpt lat="44.60078" lon="2.52941">
        <ele>558.027</ele>
        <time>2015-08-05T15:41:27Z</time>
      </trkpt>
      <trkpt lat="44.6002" lon="2.53016">
        <ele>566.849</ele>
        <time>2015-08-05T15:41:47Z</time>
      </trkpt>
      <trkpt lat="44.60003" lon="2.53069">
        <ele>573.265</ele>
        <time>2015-08-05T15:42:07Z</time>
      </trkpt>
      <trkpt lat="44.59975" lon="2.53295">
        <ele>593.668</ele>
        <time>2015-08-05T15:42:27Z</time>
      </trkpt>
      <trkpt lat="44.59953" lon="2.53326">
        <ele>592.514</ele>
        <time>2015-08-05T15:42:47Z</time>
      </trkpt>
      <trkpt lat="44.59927" lon="2.53334">
        <ele>589.108</ele>
        <time>2015-08-05T15:43:07Z</time>
      </trkpt>
      <trkpt lat="44.59891" lon="2.53359">
        <ele>587.982</ele>
        <time>2015-08-05T15:43:27Z</time>
      </trkpt>
      <trkpt lat="44.59881" lon="2.53371">
        <ele>588.517</ele>
        <time>2015-08-05T15:43:47Z</time>
      </trkpt>
      <trkpt lat="44.59866" lon="2.53377">
        <ele>587.037</ele>
        <time>2015-08-05T15:44:07Z</time>
      </trkpt>
      <trkpt lat="44.59851" lon="2.53408">
        <ele>590.139</ele>
        <time>2015-08-05T15:44:27Z</time>
      </trkpt>
      <trkpt lat="44.59842" lon="2.53438">
        <ele>593.881</ele>
        <time>2015-08-05T15:44:47Z</time>
      </trkpt>
      <trkpt lat="44.59786" lon="2.53469">
        <ele>586.782</ele>
        <time>2015-08-05T15:45:07Z</time>
      </trkpt>
      <trkpt lat="44.59762" lon="2.53487">
        <ele>584.568</ele>
        <time>2015-08-05T15:45:27Z</time>
      </trkpt>
      <trkpt lat="44.59723" lon="2.53483">
        <ele>577.49</ele>
        <time>2015-08-05T15:45:47Z</time>
      </trkpt>
      <trkpt lat="44.59695" lon="2.53473">
        <ele>572.251</ele>
        <time>2015-08-05T15:46:07Z</time>
      </trkpt>
      <trkpt lat="44.59653" lon="2.5347">
        <ele>568.501</ele>
        <time>2015-08-05T15:46:27Z</time>
      </trkpt>
      <trkpt lat="44.59615" lon="2.53487">
        <ele>566.411</ele>
        <time>2015-08-05T15:46:47Z</time>
      </trkpt>
      <trkpt lat="44.59604" lon="2.53558">
        <ele>575.608</ele>
        <time>2015-08-05T15:47:07Z</time>
      </trkpt>
      <trkpt lat="44.59577" lon="2.53554">
        <ele>571.351</ele>
        <time>2015-08-05T15:47:27Z</time>
      </trkpt>
      <trkpt lat="44.59528" lon="2.53567">
        <ele>569.556</ele>
        <time>2015-08-05T15:47:47Z</time>
      </trkpt>
      <trkpt lat="44.59493" lon="2.53555">
        <ele>567.216</ele>
        <time>2015-08-05T15:48:07Z</time>
      </trkpt>
      <trkpt lat="44.59438" lon="2.53506">
        <ele>563.278</ele>
        <time>2015-08-05T15:48:27Z</time>
      </trkpt>
      <trkpt lat="44.59418" lon="2.53497">
        <ele>561.55</ele>
        <time>2015-08-05T15:48:47Z</time>
      </trkpt>
      <trkpt lat="44.59396" lon="2.53497">
        <ele>559.981</ele>
        <time>2015-08-05T15:49:07Z</time>
      </trkpt>
      <trkpt lat="44.59367" lon="2.53511">
        <ele>558.017</ele>
        <time>2015-08-05T15:49:27Z</time>
      </trkpt>
      <trkpt lat="44.5934" lon="2.53516">
        <ele>552.929</ele>
        <time>2015-08-05T15:49:47Z</time>
      </trkpt>
      <trkpt lat="44.59298" lon="2.53531">
        <ele>546.135</ele>
        <time>2015-08-05T15:50:07Z</time>
      </trkpt>
      <trkpt lat="44.59285" lon="2.53558">
        <ele>543.786</ele>
        <time>2015-08-05T15:50:27Z</time>
      </trkpt>
      <trkpt lat="44.59284" lon="2.5365">
        <ele>536.714</ele>
        <time>2015-08-05T15:50:47Z</time>
      </trkpt>
      <trkpt lat="44.59291" lon="2.5367">
        <ele>537.008</ele>
        <time>2015-08-05T15:51:07Z</time>
      </trkpt>
      <trkpt lat="44.5935" lon="2.53738">
        <ele>538.329</ele>
        <time>2015-08-05T15:51:27Z</time>
      </trkpt>
      <trkpt lat="44.5936" lon="2.53763">
        <ele>537.424</ele>
        <time>2015-08-05T15:51:47Z</time>
      </trkpt>
      <trkpt lat="44.59361" lon="2.53787">
        <ele>535.384</ele>
        <time>2015-08-05T15:52:07Z</time>
      </trkpt>
      <trkpt lat="44.59349" lon="2.53816">
        <ele>533.826</ele>
        <time>2015-08-05T15:52:27Z</time>
      </trkpt>
      <trkpt lat="44.59368" lon="2.53849">
        <ele>537.338</ele>
        <time>2015-08-05T15:52:47Z</time>
      </trkpt>
      <trkpt lat="44.5936" lon="2.53872">
        <ele>539.099</ele>
        <time>2015-08-05T15:53:07Z</time>
      </trkpt>
      <trkpt lat="44.59341" lon="2.53882">
        <ele>541.615</ele>
        <time>2015-08-05T15:53:27Z</time>
      </trkpt>
      <trkpt lat="44.5932" lon="2.53877">
        <ele>542.187</ele>
        <time>2015-08-05T15:53:47Z</time>
      </trkpt>
      <trkpt lat="44.5928" lon="2.53885">
        <ele>545.682</ele>
        <time>2015-08-05T15:54:07Z</time>
      </trkpt>
      <trkpt lat="44.59253" lon="2.5387">
        <ele>537.443</ele>
        <time>2015-08-05T15:54:27Z</time>
      </trkpt>
      <trkpt lat="44.5922" lon="2.53877">
        <ele>535.517</ele>
        <time>2015-08-05T15:54:47Z</time>
      </trkpt>
      <trkpt lat="44.59105" lon="2.53977">
        <ele>545.308</ele>
        <time>2015-08-05T15:55:07Z</time>
      </trkpt>
      <trkpt lat="44.59104" lon="2.5409">
        <ele>551.184</ele>
        <time>2015-08-05T15:55:27Z</time>
      </trkpt>
      <trkpt lat="44.59135" lon="2.54105">
        <ele>558.529</ele>
        <time>2015-08-05T15:55:47Z</time>
      </trkpt>
      <trkpt lat="44.59146" lon="2.54134">
        <ele>559.799</ele>
        <time>2015-08-05T15:56:07Z</time>
      </trkpt>
      <trkpt lat="44.59151" lon="2.5417">
        <ele>562.581</ele>
        <time>2015-08-05T15:56:27Z</time>
      </trkpt>
      <trkpt lat="44.59113" lon="2.54172">
        <ele>557.773</ele>
        <time>2015-08-05T15:56:47Z</time>
      </trkpt>
      <trkpt lat="44.59094" lon="2.54193">
        <ele>559.114</ele>
        <time>2015-08-05T15:57:07Z</time>
      </trkpt>
      <trkpt lat="44.59087" lon="2.54223">
        <ele>563.42</ele>
        <time>2015-08-05T15:57:27Z</time>
      </trkpt>
      <trkpt lat="44.59097" lon="2.54256">
        <ele>567.592</ele>
        <time>2015-08-05T15:57:47Z</time>
      </trkpt>
      <trkpt lat="44.5912" lon="2.54252">
        <ele>568.548</ele>
        <time>2015-08-05T15:58:07Z</time>
      </trkpt>
      <trkpt lat="44.59121" lon="2.54293">
        <ele>571.161</ele>
        <time>2015-08-05T15:58:27Z</time>
      </trkpt>
      <trkpt lat="44.59138" lon="2.54343">
        <ele>576.017</ele>
        <time>2015-08-05T15:58:47Z</time>
      </trkpt>
      <trkpt lat="44.59147" lon="2.54412">
        <ele>584.108</ele>
        <time>2015-08-05T15:59:07Z</time>
      </trkpt>
      <trkpt lat="44.59182" lon="2.54431">
        <ele>588.47</ele>
        <time>2015-08-05T15:59:27Z</time>
      </trkpt>
      <trkpt lat="44.59155" lon="2.54464">
        <ele>591.365</ele>
        <time>2015-08-05T15:59:47Z</time>
      </trkpt>
      <trkpt lat="44.59129" lon="2.54522">
        <ele>600.125</ele>
        <time>2015-08-05T16:00:07Z</time>
      </trkpt>
      <trkpt lat="44.59061" lon="2.54555">
        <ele>602.167</ele>
        <time>2015-08-05T16:00:27Z</time>
      </trkpt>
      <trkpt lat="44.5899" lon="2.54634">
        <ele>608.869</ele>
        <time>2015-08-05T16:00:47Z</time>
      </trkpt>
      <trkpt lat="44.58965" lon="2.54644">
        <ele>609.55</ele>
        <time>2015-08-05T16:01:07Z</time>
      </trkpt>
      <trkpt lat="44.5895" lon="2.54727">
        <ele>619.316</ele>
        <time>2015-08-05T16:01:27Z</time>
      </trkpt>
      <trkpt lat="44.58955" lon="2.54795">
        <ele>625.938</ele>
        <time>2015-08-05T16:01:47Z</time>
      </trkpt>
      <trkpt lat="44.58763" lon="2.5487">
        <ele>612.549</ele>
        <time>2015-08-05T16:02:07Z</time>
      </trkpt>
      <trkpt lat="44.58693" lon="2.54914">
        <ele>610.802</ele>
        <time>2015-08-05T16:02:27Z</time>
      </trkpt>
      <trkpt lat="44.58687" lon="2.54935">
        <ele>612.422</ele>
        <time>2015-08-05T16:02:47Z</time>
      </trkpt>
      <trkpt lat="44.58633" lon="2.54973">
        <ele>617.008</ele>
        <time>2015-08-05T16:03:07Z</time>
      </trkpt>
      <trkpt lat="44.58626" lon="2.54988">
        <ele>619.96</ele>
        <time>2015-08-05T16:03:27Z</time>
      </trkpt>
      <trkpt lat="44.5854" lon="2.54972">
        <ele>612.975</ele>
        <time>2015-08-05T16:03:47Z</time>
      </trkpt>
      <trkpt lat="44.58519" lon="2.54941">
        <ele>609.585</ele>
        <time>2015-08-05T16:04:07Z</time>
      </trkpt>
      <trkpt lat="44.58475" lon="2.54947">
        <ele>608.357</ele>
        <time>2015-08-05T16:04:27Z</time>
      </trkpt>
      <trkpt lat="44.58445" lon="2.54964">
        <ele>610.139</ele>
        <time>2015-08-05T16:04:47Z</time>
      </trkpt>
      <trkpt lat="44.5843" lon="2.55021">
        <ele>614.53</ele>
        <time>2015-08-05T16:05:07Z</time>
      </trkpt>
      <trkpt lat="44.58372" lon="2.55136">
        <ele>615.426</ele>
        <time>2015-08-05T16:05:27Z</time>
      </trkpt>
      <trkpt lat="44.58357" lon="2.55193">
        <ele>617.398</ele>
        <time>2015-08-05T16:05:47Z</time>
      </trkpt>
      <trkpt lat="44.58286" lon="2.55209">
        <ele>620.547</ele>
        <time>2015-08-05T16:06:07Z</time>
      </trkpt>
      <trkpt lat="44.58238" lon="2.55167">
        <ele>618.929</ele>
        <time>2015-08-05T16:06:27Z</time>
      </trkpt>
      <trkpt lat="44.58205" lon="2.55155">
        <ele>618.321</ele>
        <time>2015-08-05T16:06:47Z</time>
      </trkpt>
      <trkpt lat="44.58165" lon="2.55154">
        <ele>614.508</ele>
        <time>2015-08-05T16:07:07Z</time>
      </trkpt>
      <trkpt lat="44.58065" lon="2.55226">
        <ele>613.05</ele>
        <time>2015-08-05T16:07:27Z</time>
      </trkpt>
      <trkpt lat="44.58024" lon="2.55193">
        <ele>610.455</ele>
        <time>2015-08-05T16:07:47Z</time>
      </trkpt>
      <trkpt lat="44.57962" lon="2.55156">
        <ele>616.095</ele>
        <time>2015-08-05T16:08:07Z</time>
      </trkpt>
      <trkpt lat="44.57874" lon="2.55173">
        <ele>615.427</ele>
        <time>2015-08-05T16:08:27Z</time>
      </trkpt>
      <trkpt lat="44.57816" lon="2.55193">
        <ele>619.279</ele>
        <time>2015-08-05T16:08:47Z</time>
      </trkpt>
      <trkpt lat="44.57741" lon="2.55159">
        <ele>619.66</ele>
        <time>2015-08-05T16:09:07Z</time>
      </trkpt>
      <trkpt lat="44.57724" lon="2.55193">
        <ele>621.086</ele>
        <time>2015-08-05T16:09:27Z</time>
      </trkpt>
      <trkpt lat="44.57703" lon="2.55287">
        <ele>620.638</ele>
        <time>2015-08-05T16:09:47Z</time>
      </trkpt>
      <trkpt lat="44.57682" lon="2.55307">
        <ele>619.193</ele>
        <time>2015-08-05T16:10:07Z</time>
      </trkpt>
      <trkpt lat="44.5766" lon="2.55394">
        <ele>616.765</ele>
        <time>2015-08-05T16:10:27Z</time>
      </trkpt>
      <trkpt lat="44.57653" lon="2.55464">
        <ele>613.821</ele>
        <time>2015-08-05T16:10:47Z</time>
      </trkpt>
      <trkpt lat="44.57668" lon="2.5552">
        <ele>617.308</ele>
        <time>2015-08-05T16:11:07Z</time>
      </trkpt>
      <trkpt lat="44.5767" lon="2.55577">
        <ele>617.165</ele>
        <time>2015-08-05T16:11:27Z</time>
      </trkpt>
      <trkpt lat="44.57685" lon="2.55663">
        <ele>618.01</ele>
        <time>2015-08-05T16:11:47Z</time>
      </trkpt>
      <trkpt lat="44.57643" lon="2.55769">
        <ele>621.78</ele>
        <time>2015-08-05T16:12:07Z</time>
      </trkpt>
      <trkpt lat="44.57598" lon="2.55798">
        <ele>620.192</ele>
        <time>2015-08-05T16:12:27Z</time>
      </trkpt>
      <trkpt lat="44.57591" lon="2.55832">
        <ele>622.464</ele>
        <time>2015-08-05T16:12:47Z</time>
      </trkpt>
      <trkpt lat="44.57597" lon="2.55867">
        <ele>622.755</ele>
        <time>2015-08-05T16:13:07Z</time>
      </trkpt>
      <trkpt lat="44.57656" lon="2.55907">
        <ele>624.481</ele>
        <time>2015-08-05T16:13:27Z</time>
      </trkpt>
      <trkpt lat="44.57631" lon="2.5599">
        <ele>620.653</ele>
        <time>2015-08-05T16:13:47Z</time>
      </trkpt>
      <trkpt lat="44.57599" lon="2.56042">
        <ele>615.559</ele>
        <time>2015-08-05T16:14:07Z</time>
      </trkpt>
      <trkpt lat="44.57555" lon="2.56079">
        <ele>609.903</ele>
        <time>2015-08-05T16:14:27Z</time>
      </trkpt>
      <trkpt lat="44.57537" lon="2.56153">
        <ele>611.223</ele>
        <time>2015-08-05T16:14:47Z</time>
      </trkpt>
      <trkpt lat="44.57507" lon="2.56222">
        <ele>612.008</ele>
        <time>2015-08-05T16:15:07Z</time>
      </trkpt>
      <trkpt lat="44.57465" lon="2.56282">
        <ele>618.651</ele>
        <time>2015-08-05T16:15:27Z</time>
      </trkpt>
      <trkpt lat="44.57439" lon="2.5635">
        <ele>623.676</ele>
        <time>2015-08-05T16:15:47Z</time>
      </trkpt>
      <trkpt lat="44.57391" lon="2.56393">
        <ele>624.566</ele>
        <time>2015-08-05T16:16:07Z</time>
      </trkpt>
      <trkpt lat="44.5737" lon="2.56534">
        <ele>632.948</ele>
        <time>2015-08-05T16:16:27Z</time>
      </trkpt>
      <trkpt lat="44.57339" lon="2.56638">
        <ele>631.09</ele>
        <time>2015-08-05T16:16:47Z</time>
      </trkpt>
      <trkpt lat="44.57296" lon="2.56622">
        <ele>632.191</ele>
        <time>2015-08-05T16:17:07Z</time>
      </trkpt>
      <trkpt lat="44.57272" lon="2.56653">
        <ele>636.347</ele>
        <time>2015-08-05T16:17:27Z</time>
      </trkpt>
      <trkpt lat="44.57227" lon="2.56688">
        <ele>642.849</ele>
        <time>2015-08-05T16:17:47Z</time>
      </trkpt>
      <trkpt lat="44.57147" lon="2.56696">
        <ele>643.747</ele>
        <time>2015-08-05T16:18:07Z</time>
      </trkpt>
      <trkpt lat="44.57121" lon="2.5665">
        <ele>644.629</ele>
        <time>2015-08-05T16:18:27Z</time>
      </trkpt>
      <trkpt lat="44.57116" lon="2.56758">
        <ele>645.221</ele>
        <time>2015-08-05T16:18:47Z</time>
      </trkpt>
      <trkpt lat="44.57097" lon="2.56849">
        <ele>649.608</ele>
        <time>2015-08-05T16:19:07Z</time>
      </trkpt>
      <trkpt lat="44.57057" lon="2.56915">
        <ele>651.02</ele>
        <time>2015-08-05T16:19:27Z</time>
      </trkpt>
      <trkpt lat="44.57035" lon="2.5696">
        <ele>651.045</ele>
        <time>2015-08-05T16:19:47Z</time>
      </trkpt>
      <trkpt lat="44.57068" lon="2.57036">
        <ele>651.485</ele>
        <time>2015-08-05T16:20:07Z</time>
      </trkpt>
      <trkpt lat="44.57094" lon="2.57069">
        <ele>653.077</ele>
        <time>2015-08-05T16:20:27Z</time>
      </trkpt>
      <trkpt lat="44.57197" lon="2.57165">
        <ele>654.179</ele>
        <time>2015-08-05T16:20:47Z</time>
      </trkpt>
      <trkpt lat="44.57216" lon="2.57261">
        <ele>654.52</ele>
        <time>2015-08-05T16:21:07Z</time>
      </trkpt>
      <trkpt lat="44.57277" lon="2.5737">
        <ele>660.946</ele>
        <time>2015-08-05T16:21:27Z</time>
      </trkpt>
      <trkpt lat="44.57311" lon="2.5746">
        <ele>658.128</ele>
        <time>2015-08-05T16:21:47Z</time>
      </trkpt>
      <trkpt lat="44.57395" lon="2.57619">
        <ele>656.611</ele>
        <time>2015-08-05T16:22:07Z</time>
      </trkpt>
      <trkpt lat="44.57404" lon="2.57675">
        <ele>657.721</ele>
        <time>2015-08-05T16:22:27Z</time>
      </trkpt>
      <trkpt lat="44.57245" lon="2.58071">
        <ele>652.503</ele>
        <time>2015-08-05T16:22:47Z</time>
      </trkpt>
      <trkpt lat="44.57177" lon="2.58318">
        <ele>652.308</ele>
        <time>2015-08-05T16:23:07Z</time>
      </trkpt>
      <trkpt lat="44.57165" lon="2.58442">
        <ele>656.037</ele>
        <time>2015-08-05T16:23:27Z</time>
      </trkpt>
      <trkpt lat="44.57082" lon="2.58632">
        <ele>648.812</ele>
        <time>2015-08-05T16:23:47Z</time>
      </trkpt>
      <trkpt lat="44.57066" lon="2.58764">
        <ele>646.042</ele>
        <time>2015-08-05T16:24:07Z</time>
      </trkpt>
      <trkpt lat="44.57032" lon="2.58808">
        <ele>644.814</ele>
        <time>2015-08-05T16:24:27Z</time>
      </trkpt>
      <trkpt lat="44.5695" lon="2.58863">
        <ele>652.746</ele>
        <time>2015-08-05T16:24:47Z</time>
      </trkpt>
      <trkpt lat="44.56924" lon="2.589">
        <ele>654.057</ele>
        <time>2015-08-05T16:25:07Z</time>
      </trkpt>
    </trkseg>
  </trk>
  <trk>
    <name><![CDATA[Estaing]]></name>
    <trkseg>
      <trkpt lat="44.56924" lon="2.589">
        <ele>654.057</ele>
        <time>2015-08-05T16:25:07Z</time>
      </trkpt>
      <trkpt lat="44.56924" lon="2.589">
        <ele>654.057</ele>
        <time>2015-08-05T16:25:07Z</time>
      </trkpt>
      <trkpt lat="44.56924" lon="2.589">
        <ele>654.057</ele>
        <time>2015-08-05T16:25:07Z</time>
      </trkpt>
      <trkpt lat="44.56924" lon="2.589">
        <ele>654.057</ele>
        <time>2015-08-05T16:25:07Z</time>
      </trkpt>
      <trkpt lat="44.56895" lon="2.589">
        <ele>653.273</ele>
        <time>2015-08-05T16:25:27Z</time>
      </trkpt>
      <trkpt lat="44.56899" lon="2.58962">
        <ele>653.135</ele>
        <time>2015-08-05T16:25:47Z</time>
      </trkpt>
      <trkpt lat="44.56881" lon="2.59011">
        <ele>654.789</ele>
        <time>2015-08-05T16:26:07Z</time>
      </trkpt>
      <trkpt lat="44.56875" lon="2.59059">
        <ele>655.406</ele>
        <time>2015-08-05T16:26:27Z</time>
      </trkpt>
      <trkpt lat="44.56772" lon="2.59147">
        <ele>652.026</ele>
        <time>2015-08-05T16:26:47Z</time>
      </trkpt>
      <trkpt lat="44.56681" lon="2.59242">
        <ele>649.408</ele>
        <time>2015-08-05T16:27:07Z</time>
      </trkpt>
      <trkpt lat="44.56537" lon="2.59447">
        <ele>629.054</ele>
        <time>2015-08-05T16:27:27Z</time>
      </trkpt>
      <trkpt lat="44.5654" lon="2.59557">
        <ele>623.359</ele>
        <time>2015-08-05T16:27:47Z</time>
      </trkpt>
      <trkpt lat="44.56561" lon="2.59583">
        <ele>625.079</ele>
        <time>2015-08-05T16:28:07Z</time>
      </trkpt>
      <trkpt lat="44.56592" lon="2.59588">
        <ele>623.721</ele>
        <time>2015-08-05T16:28:27Z</time>
      </trkpt>
      <trkpt lat="44.5661" lon="2.59552">
        <ele>624.233</ele>
        <time>2015-08-05T16:28:47Z</time>
      </trkpt>
      <trkpt lat="44.56631" lon="2.59551">
        <ele>624.354</ele>
        <time>2015-08-05T16:29:07Z</time>
      </trkpt>
      <trkpt lat="44.56641" lon="2.59608">
        <ele>620.37</ele>
        <time>2015-08-05T16:29:27Z</time>
      </trkpt>
      <trkpt lat="44.56608" lon="2.59647">
        <ele>619.312</ele>
        <time>2015-08-05T16:29:47Z</time>
      </trkpt>
      <trkpt lat="44.56576" lon="2.59704">
        <ele>618.988</ele>
        <time>2015-08-05T16:30:07Z</time>
      </trkpt>
      <trkpt lat="44.56458" lon="2.59675">
        <ele>617.324</ele>
        <time>2015-08-05T16:30:27Z</time>
      </trkpt>
      <trkpt lat="44.5641" lon="2.59707">
        <ele>618.426</ele>
        <time>2015-08-05T16:30:47Z</time>
      </trkpt>
      <trkpt lat="44.56377" lon="2.59789">
        <ele>616.708</ele>
        <time>2015-08-05T16:31:07Z</time>
      </trkpt>
      <trkpt lat="44.56373" lon="2.5983">
        <ele>618.314</ele>
        <time>2015-08-05T16:31:27Z</time>
      </trkpt>
      <trkpt lat="44.56321" lon="2.59888">
        <ele>615.179</ele>
        <time>2015-08-05T16:31:47Z</time>
      </trkpt>
      <trkpt lat="44.5626" lon="2.59928">
        <ele>614.169</ele>
        <time>2015-08-05T16:32:07Z</time>
      </trkpt>
      <trkpt lat="44.56199" lon="2.59937">
        <ele>621.181</ele>
        <time>2015-08-05T16:32:27Z</time>
      </trkpt>
      <trkpt lat="44.56136" lon="2.59861">
        <ele>626.383</ele>
        <time>2015-08-05T16:32:47Z</time>
      </trkpt>
      <trkpt lat="44.56101" lon="2.59839">
        <ele>627.094</ele>
        <time>2015-08-05T16:33:07Z</time>
      </trkpt>
      <trkpt lat="44.56028" lon="2.5984">
        <ele>628.89</ele>
        <time>2015-08-05T16:33:27Z</time>
      </trkpt>
      <trkpt lat="44.5592" lon="2.59782">
        <ele>623.812</ele>
        <time>2020-11-26T03:31:00Z</time>
      </trkpt>
      <trkpt lat="44.55853" lon="2.59708">
        <ele>619.576</ele>
        <time>2020-11-26T03:31:20Z</time>
      </trkpt>
      <trkpt lat="44.55807" lon="2.59606">
        <ele>616.59</ele>
        <time>2020-11-26T03:31:40Z</time>
      </trkpt>
      <trkpt lat="44.55786" lon="2.59608">
        <ele>613.819</ele>
        <time>2020-11-26T03:32:00Z</time>
      </trkpt>
      <trkpt lat="44.5578" lon="2.59698">
        <ele>609.408</ele>
        <time>2020-11-26T03:32:20Z</time>
      </trkpt>
      <trkpt lat="44.55689" lon="2.5981">
        <ele>600.763</ele>
        <time>2020-11-26T03:32:40Z</time>
      </trkpt>
      <trkpt lat="44.55592" lon="2.59827">
        <ele>596.238</ele>
        <time>2015-08-05T16:34:07Z</time>
      </trkpt>
      <trkpt lat="44.55385" lon="2.59942">
        <ele>586.458</ele>
        <time>2020-03-07T00:00:37Z</time>
      </trkpt>
      <trkpt lat="44.55295" lon="2.60038">
        <ele>579.66</ele>
        <time>2015-08-05T16:35:07Z</time>
      </trkpt>
      <trkpt lat="44.55277" lon="2.60059">
        <ele>576.672</ele>
        <time>2015-08-05T16:35:27Z</time>
      </trkpt>
      <trkpt lat="44.55223" lon="2.60096">
        <ele>567.763</ele>
        <time>2015-08-05T16:35:47Z</time>
      </trkpt>
      <trkpt lat="44.5516" lon="2.60176">
        <ele>560.319</ele>
        <time>2015-08-05T16:36:07Z</time>
      </trkpt>
      <trkpt lat="44.55149" lon="2.60203">
        <ele>560.811</ele>
        <time>2015-08-05T16:36:27Z</time>
      </trkpt>
      <trkpt lat="44.55169" lon="2.60302">
        <ele>560.921</ele>
        <time>2015-08-05T16:36:47Z</time>
      </trkpt>
      <trkpt lat="44.55124" lon="2.60411">
        <ele>552.741</ele>
        <time>2015-08-05T16:37:07Z</time>
      </trkpt>
      <trkpt lat="44.55122" lon="2.60593">
        <ele>538.105</ele>
        <time>2015-08-05T16:37:27Z</time>
      </trkpt>
      <trkpt lat="44.55117" lon="2.60635">
        <ele>533.608</ele>
        <time>2015-08-05T16:37:47Z</time>
      </trkpt>
      <trkpt lat="44.55073" lon="2.60705">
        <ele>534.558</ele>
        <time>2015-08-05T16:38:07Z</time>
      </trkpt>
      <trkpt lat="44.551" lon="2.60724">
        <ele>530.653</ele>
        <time>2015-08-05T16:38:27Z</time>
      </trkpt>
      <trkpt lat="44.55123" lon="2.6082">
        <ele>534.843</ele>
        <time>2015-08-05T16:38:47Z</time>
      </trkpt>
      <trkpt lat="44.55135" lon="2.60854">
        <ele>535.985</ele>
        <time>2015-08-05T16:39:07Z</time>
      </trkpt>
      <trkpt lat="44.55146" lon="2.60895">
        <ele>537.777</ele>
        <time>2015-08-05T16:39:27Z</time>
      </trkpt>
      <trkpt lat="44.55164" lon="2.60944">
        <ele>540.448</ele>
        <time>2015-08-05T16:39:47Z</time>
      </trkpt>
      <trkpt lat="44.55165" lon="2.61038">
        <ele>547.774</ele>
        <time>2015-08-05T16:40:07Z</time>
      </trkpt>
      <trkpt lat="44.55154" lon="2.61084">
        <ele>549.866</ele>
        <time>2015-08-05T16:40:27Z</time>
      </trkpt>
      <trkpt lat="44.55124" lon="2.61115">
        <ele>552.942</ele>
        <time>2015-08-05T16:40:47Z</time>
      </trkpt>
      <trkpt lat="44.55119" lon="2.61112">
        <ele>553.422</ele>
        <time>2015-08-05T16:41:07Z</time>
      </trkpt>
      <trkpt lat="44.55108" lon="2.61127">
        <ele>552.714</ele>
        <time>2015-08-05T16:41:27Z</time>
      </trkpt>
      <trkpt lat="44.55051" lon="2.61119">
        <ele>549.708</ele>
        <time>2015-08-05T16:41:47Z</time>
      </trkpt>
      <trkpt lat="44.54995" lon="2.61115">
        <ele>549.72</ele>
        <time>2015-08-05T16:42:07Z</time>
      </trkpt>
      <trkpt lat="44.54986" lon="2.6117">
        <ele>541.085</ele>
        <time>2015-08-05T16:42:27Z</time>
      </trkpt>
      <trkpt lat="44.5495" lon="2.61234">
        <ele>536.275</ele>
        <time>2015-08-05T16:42:47Z</time>
      </trkpt>
      <trkpt lat="44.5492" lon="2.61248">
        <ele>536.117</ele>
        <time>2015-08-05T16:43:07Z</time>
      </trkpt>
      <trkpt lat="44.54883" lon="2.61275">
        <ele>526.659</ele>
        <time>2015-08-05T16:43:27Z</time>
      </trkpt>
      <trkpt lat="44.54856" lon="2.61288">
        <ele>516.61</ele>
        <time>2015-08-05T16:43:47Z</time>
      </trkpt>
      <trkpt lat="44.54823" lon="2.61283">
        <ele>511.916</ele>
        <time>2015-08-05T16:44:07Z</time>
      </trkpt>
      <trkpt lat="44.54777" lon="2.61212">
        <ele>507.538</ele>
        <time>2015-08-05T16:44:27Z</time>
      </trkpt>
      <trkpt lat="44.54766" lon="2.61186">
        <ele>509.477</ele>
        <time>2015-08-05T16:44:47Z</time>
      </trkpt>
      <trkpt lat="44.5477" lon="2.61211">
        <ele>507.761</ele>
        <time>2015-08-05T16:45:07Z</time>
      </trkpt>
      <trkpt lat="44.54786" lon="2.61278">
        <ele>507.227</ele>
        <time>2015-08-05T16:45:27Z</time>
      </trkpt>
      <trkpt lat="44.54789" lon="2.61321">
        <ele>503.808</ele>
        <time>2015-08-05T16:45:47Z</time>
      </trkpt>
      <trkpt lat="44.5483" lon="2.61379">
        <ele>501.523</ele>
        <time>2015-08-05T16:46:07Z</time>
      </trkpt>
      <trkpt lat="44.54812" lon="2.61378">
        <ele>502.868</ele>
        <time>2015-08-05T16:46:27Z</time>
      </trkpt>
      <trkpt lat="44.54796" lon="2.61371">
        <ele>504.448</ele>
        <time>2015-08-05T16:46:47Z</time>
      </trkpt>
      <trkpt lat="44.54764" lon="2.61367">
        <ele>509.16</ele>
        <time>2015-08-05T16:47:07Z</time>
      </trkpt>
      <trkpt lat="44.54765" lon="2.61411">
        <ele>513.722</ele>
        <time>2015-08-05T16:47:27Z</time>
      </trkpt>
      <trkpt lat="44.54772" lon="2.61445">
        <ele>512.973</ele>
        <time>2015-08-05T16:47:47Z</time>
      </trkpt>
      <trkpt lat="44.54724" lon="2.61483">
        <ele>509.779</ele>
        <time>2015-08-05T16:48:07Z</time>
      </trkpt>
      <trkpt lat="44.54719" lon="2.61502">
        <ele>505.711</ele>
        <time>2015-08-05T16:48:27Z</time>
      </trkpt>
      <trkpt lat="44.54727" lon="2.61518">
        <ele>502.374</ele>
        <time>2015-08-05T16:48:47Z</time>
      </trkpt>
      <trkpt lat="44.5477" lon="2.61535">
        <ele>503.156</ele>
        <time>2015-08-05T16:49:07Z</time>
      </trkpt>
      <trkpt lat="44.54786" lon="2.61556">
        <ele>503.321</ele>
        <time>2015-08-05T16:49:27Z</time>
      </trkpt>
      <trkpt lat="44.54804" lon="2.61651">
        <ele>488.808</ele>
        <time>2015-08-05T16:49:47Z</time>
      </trkpt>
      <trkpt lat="44.54792" lon="2.61634">
        <ele>491.413</ele>
        <time>2015-08-05T16:50:07Z</time>
      </trkpt>
      <trkpt lat="44.54779" lon="2.61606">
        <ele>495.998</ele>
        <time>2015-08-05T16:50:27Z</time>
      </trkpt>
      <trkpt lat="44.54762" lon="2.61587">
        <ele>496.648</ele>
        <time>2015-08-05T16:50:47Z</time>
      </trkpt>
      <trkpt lat="44.5475" lon="2.61586">
        <ele>495.62</ele>
        <time>2015-08-05T16:51:07Z</time>
      </trkpt>
      <trkpt lat="44.54744" lon="2.61599">
        <ele>492.952</ele>
        <time>2015-08-05T16:51:27Z</time>
      </trkpt>
      <trkpt lat="44.54722" lon="2.61613">
        <ele>489.713</ele>
        <time>2015-08-05T16:51:47Z</time>
      </trkpt>
      <trkpt lat="44.54703" lon="2.6165">
        <ele>483.789</ele>
        <time>2015-08-05T16:52:07Z</time>
      </trkpt>
      <trkpt lat="44.54701" lon="2.61669">
        <ele>479.581</ele>
        <time>2015-08-05T16:52:27Z</time>
      </trkpt>
      <trkpt lat="44.54679" lon="2.61694">
        <ele>477.979</ele>
        <time>2015-08-05T16:52:47Z</time>
      </trkpt>
      <trkpt lat="44.54688" lon="2.61712">
        <ele>472.905</ele>
        <time>2015-08-05T16:53:07Z</time>
      </trkpt>
      <trkpt lat="44.54695" lon="2.61751">
        <ele>464.825</ele>
        <time>2015-08-05T16:53:27Z</time>
      </trkpt>
      <trkpt lat="44.54696" lon="2.61784">
        <ele>459.208</ele>
        <time>2015-08-05T16:53:47Z</time>
      </trkpt>
      <trkpt lat="44.5471" lon="2.61807">
        <ele>457.673</ele>
        <time>2015-08-05T16:54:07Z</time>
      </trkpt>
      <trkpt lat="44.54729" lon="2.61868">
        <ele>462.828</ele>
        <time>2015-08-05T16:54:27Z</time>
      </trkpt>
      <trkpt lat="44.54754" lon="2.61841">
        <ele>464.088</ele>
        <time>2015-08-05T16:54:47Z</time>
      </trkpt>
      <trkpt lat="44.54775" lon="2.61868">
        <ele>468.39</ele>
        <time>2015-08-05T16:55:07Z</time>
      </trkpt>
      <trkpt lat="44.54801" lon="2.61886">
        <ele>472.562</ele>
        <time>2015-08-05T16:55:27Z</time>
      </trkpt>
      <trkpt lat="44.54814" lon="2.61927">
        <ele>475.923</ele>
        <time>2015-08-05T16:55:47Z</time>
      </trkpt>
      <trkpt lat="44.54782" lon="2.62028">
        <ele>487.719</ele>
        <time>2015-08-05T16:56:07Z</time>
      </trkpt>
      <trkpt lat="44.54769" lon="2.62086">
        <ele>490.221</ele>
        <time>2015-08-05T16:56:27Z</time>
      </trkpt>
      <trkpt lat="44.54731" lon="2.62081">
        <ele>493.118</ele>
        <time>2015-08-05T16:56:47Z</time>
      </trkpt>
      <trkpt lat="44.54696" lon="2.62105">
        <ele>496.298</ele>
        <time>2015-08-05T16:57:07Z</time>
      </trkpt>
      <trkpt lat="44.54575" lon="2.62108">
        <ele>511.817</ele>
        <time>2015-08-05T16:57:27Z</time>
      </trkpt>
      <trkpt lat="44.54555" lon="2.62129">
        <ele>515.308</ele>
        <time>2015-08-05T16:57:47Z</time>
      </trkpt>
      <trkpt lat="44.5453" lon="2.62178">
        <ele>516.547</ele>
        <time>2015-08-05T16:58:07Z</time>
      </trkpt>
      <trkpt lat="44.54504" lon="2.62331">
        <ele>531.862</ele>
        <time>2015-08-05T16:58:27Z</time>
      </trkpt>
      <trkpt lat="44.54471" lon="2.62407">
        <ele>538.552</ele>
        <time>2015-08-05T16:58:47Z</time>
      </trkpt>
      <trkpt lat="44.54471" lon="2.62485">
        <ele>542.944</ele>
        <time>2015-08-05T16:59:07Z</time>
      </trkpt>
      <trkpt lat="44.54417" lon="2.62646">
        <ele>541.596</ele>
        <time>2015-08-05T16:59:27Z</time>
      </trkpt>
      <trkpt lat="44.54379" lon="2.62701">
        <ele>542.757</ele>
        <time>2015-08-05T16:59:47Z</time>
      </trkpt>
      <trkpt lat="44.54375" lon="2.62772">
        <ele>547.273</ele>
        <time>2015-08-05T17:00:07Z</time>
      </trkpt>
      <trkpt lat="44.54439" lon="2.62866">
        <ele>554.485</ele>
        <time>2015-08-05T17:00:27Z</time>
      </trkpt>
      <trkpt lat="44.5445" lon="2.62983">
        <ele>552.059</ele>
        <time>2015-08-05T17:00:47Z</time>
      </trkpt>
      <trkpt lat="44.54411" lon="2.63037">
        <ele>550.703</ele>
        <time>2015-08-05T17:01:07Z</time>
      </trkpt>
      <trkpt lat="44.54406" lon="2.63077">
        <ele>550.523</ele>
        <time>2015-08-05T17:01:27Z</time>
      </trkpt>
      <trkpt lat="44.54425" lon="2.63098">
        <ele>548.508</ele>
        <time>2015-08-05T17:01:47Z</time>
      </trkpt>
      <trkpt lat="44.54441" lon="2.63154">
        <ele>544.521</ele>
        <time>2015-08-05T17:02:07Z</time>
      </trkpt>
      <trkpt lat="44.54471" lon="2.63239">
        <ele>545.976</ele>
        <time>2015-08-05T17:02:27Z</time>
      </trkpt>
      <trkpt lat="44.54539" lon="2.63358">
        <ele>548.576</ele>
        <time>2015-08-05T17:02:47Z</time>
      </trkpt>
      <trkpt lat="44.54558" lon="2.63416">
        <ele>552.848</ele>
        <time>2015-08-05T17:03:07Z</time>
      </trkpt>
      <trkpt lat="44.54534" lon="2.63524">
        <ele>550.11</ele>
        <time>2015-08-05T17:03:27Z</time>
      </trkpt>
      <trkpt lat="44.54516" lon="2.63553">
        <ele>549.631</ele>
        <time>2015-08-05T17:03:47Z</time>
      </trkpt>
      <trkpt lat="44.54484" lon="2.63644">
        <ele>548.327</ele>
        <time>2015-08-05T17:04:07Z</time>
      </trkpt>
      <trkpt lat="44.54459" lon="2.63673">
        <ele>547.329</ele>
        <time>2015-08-05T17:04:27Z</time>
      </trkpt>
      <trkpt lat="44.54447" lon="2.63762">
        <ele>546.815</ele>
        <time>2015-08-05T17:04:47Z</time>
      </trkpt>
      <trkpt lat="44.54402" lon="2.63763">
        <ele>538.265</ele>
        <time>2015-08-05T17:05:07Z</time>
      </trkpt>
      <trkpt lat="44.54368" lon="2.63797">
        <ele>537.111</ele>
        <time>2015-08-05T17:05:27Z</time>
      </trkpt>
      <trkpt lat="44.54356" lon="2.63827">
        <ele>535.508</ele>
        <time>2015-08-05T17:05:47Z</time>
      </trkpt>
      <trkpt lat="44.54357" lon="2.63891">
        <ele>527.997</ele>
        <time>2015-08-05T17:06:07Z</time>
      </trkpt>
      <trkpt lat="44.54294" lon="2.63955">
        <ele>520.862</ele>
        <time>2015-08-05T17:06:27Z</time>
      </trkpt>
      <trkpt lat="44.5424" lon="2.6406">
        <ele>514.582</ele>
        <time>2015-08-05T17:06:47Z</time>
      </trkpt>
      <trkpt lat="44.54243" lon="2.64108">
        <ele>515.054</ele>
        <time>2015-08-05T17:07:07Z</time>
      </trkpt>
      <trkpt lat="44.54226" lon="2.64163">
        <ele>512.196</ele>
        <time>2015-08-05T17:07:27Z</time>
      </trkpt>
      <trkpt lat="44.54202" lon="2.64199">
        <ele>512.427</ele>
        <time>2015-08-05T17:07:47Z</time>
      </trkpt>
      <trkpt lat="44.54158" lon="2.64322">
        <ele>513.593</ele>
        <time>2015-08-05T17:08:07Z</time>
      </trkpt>
      <trkpt lat="44.54095" lon="2.64346">
        <ele>522.025</ele>
        <time>2015-08-05T17:08:27Z</time>
      </trkpt>
      <trkpt lat="44.54081" lon="2.64375">
        <ele>528.592</ele>
        <time>2015-08-05T17:08:47Z</time>
      </trkpt>
      <trkpt lat="44.5409" lon="2.64429">
        <ele>536.873</ele>
        <time>2015-08-05T17:09:07Z</time>
      </trkpt>
      <trkpt lat="44.54133" lon="2.64499">
        <ele>532.42</ele>
        <time>2015-08-05T17:09:27Z</time>
      </trkpt>
      <trkpt lat="44.54092" lon="2.64624">
        <ele>537.108</ele>
        <time>2015-08-05T17:09:47Z</time>
      </trkpt>
      <trkpt lat="44.54037" lon="2.64681">
        <ele>535.535</ele>
        <time>2015-08-05T17:10:07Z</time>
      </trkpt>
      <trkpt lat="44.53991" lon="2.64681">
        <ele>540.39</ele>
        <time>2015-08-05T17:10:27Z</time>
      </trkpt>
      <trkpt lat="44.53928" lon="2.64713">
        <ele>545.56</ele>
        <time>2015-08-05T17:10:47Z</time>
      </trkpt>
      <trkpt lat="44.5391" lon="2.64745">
        <ele>545.382</ele>
        <time>2015-08-05T17:11:07Z</time>
      </trkpt>
      <trkpt lat="44.53865" lon="2.64791">
        <ele>544.764</ele>
        <time>2015-08-05T17:11:27Z</time>
      </trkpt>
      <trkpt lat="44.53847" lon="2.64846">
        <ele>547.045</ele>
        <time>2015-08-05T17:11:47Z</time>
      </trkpt>
      <trkpt lat="44.53859" lon="2.649">
        <ele>547.161</ele>
        <time>2015-08-05T17:12:07Z</time>
      </trkpt>
      <trkpt lat="44.53843" lon="2.64965">
        <ele>547.673</ele>
        <time>2015-08-05T17:12:27Z</time>
      </trkpt>
      <trkpt lat="44.53848" lon="2.65015">
        <ele>547.282</ele>
        <time>2015-08-05T17:12:47Z</time>
      </trkpt>
      <trkpt lat="44.53891" lon="2.65187">
        <ele>553.843</ele>
        <time>2015-08-05T17:13:07Z</time>
      </trkpt>
      <trkpt lat="44.53923" lon="2.65285">
        <ele>557.617</ele>
        <time>2015-08-05T17:13:27Z</time>
      </trkpt>
      <trkpt lat="44.53948" lon="2.65389">
        <ele>558.908</ele>
        <time>2015-08-05T17:13:47Z</time>
      </trkpt>
      <trkpt lat="44.53948" lon="2.65446">
        <ele>559.164</ele>
        <time>2015-08-05T17:14:07Z</time>
      </trkpt>
      <trkpt lat="44.53935" lon="2.65495">
        <ele>558.479</ele>
        <time>2015-08-05T17:14:27Z</time>
      </trkpt>
      <trkpt lat="44.53938" lon="2.65562">
        <ele>555.989</ele>
        <time>2015-08-05T17:14:47Z</time>
      </trkpt>
      <trkpt lat="44.53894" lon="2.65797">
        <ele>547.051</ele>
        <time>2015-08-05T17:15:07Z</time>
      </trkpt>
      <trkpt lat="44.53878" lon="2.65837">
        <ele>545.293</ele>
        <time>2015-08-05T17:15:27Z</time>
      </trkpt>
      <trkpt lat="44.53872" lon="2.65892">
        <ele>544.324</ele>
        <time>2015-08-05T17:15:47Z</time>
      </trkpt>
      <trkpt lat="44.53906" lon="2.65955">
        <ele>541.23</ele>
        <time>2015-08-05T17:16:07Z</time>
      </trkpt>
      <trkpt lat="44.53958" lon="2.66016">
        <ele>540.162</ele>
        <time>2015-08-05T17:16:27Z</time>
      </trkpt>
      <trkpt lat="44.53994" lon="2.66084">
        <ele>533.947</ele>
        <time>2015-08-05T17:16:47Z</time>
      </trkpt>
      <trkpt lat="44.54028" lon="2.66105">
        <ele>533.029</ele>
        <time>2015-08-05T17:17:07Z</time>
      </trkpt>
      <trkpt lat="44.54057" lon="2.66112">
        <ele>531.821</ele>
        <time>2015-08-05T17:17:27Z</time>
      </trkpt>
      <trkpt lat="44.5408" lon="2.66228">
        <ele>530.208</ele>
        <time>2015-08-05T17:17:47Z</time>
      </trkpt>
      <trkpt lat="44.54118" lon="2.66295">
        <ele>529.77</ele>
        <time>2015-08-05T17:18:07Z</time>
      </trkpt>
      <trkpt lat="44.54137" lon="2.66334">
        <ele>528.055</ele>
        <time>2015-08-05T17:18:27Z</time>
      </trkpt>
      <trkpt lat="44.5421" lon="2.66403">
        <ele>522.515</ele>
        <time>2015-08-05T17:18:47Z</time>
      </trkpt>
      <trkpt lat="44.54231" lon="2.66494">
        <ele>517.587</ele>
        <time>2015-08-05T17:19:07Z</time>
      </trkpt>
      <trkpt lat="44.54237" lon="2.66591">
        <ele>508.939</ele>
        <time>2015-08-05T17:19:27Z</time>
      </trkpt>
      <trkpt lat="44.54253" lon="2.66651">
        <ele>501.91</ele>
        <time>2015-08-05T17:19:47Z</time>
      </trkpt>
      <trkpt lat="44.5425" lon="2.66697">
        <ele>501.826</ele>
        <time>2015-08-05T17:20:07Z</time>
      </trkpt>
      <trkpt lat="44.54266" lon="2.66764">
        <ele>497.048</ele>
        <time>2015-08-05T17:20:27Z</time>
      </trkpt>
      <trkpt lat="44.54311" lon="2.66797">
        <ele>484.829</ele>
        <time>2015-08-05T17:20:47Z</time>
      </trkpt>
      <trkpt lat="44.54333" lon="2.66823">
        <ele>482.3</ele>
        <time>2015-08-05T17:21:07Z</time>
      </trkpt>
      <trkpt lat="44.54365" lon="2.66849">
        <ele>483.12</ele>
        <time>2015-08-05T17:21:27Z</time>
      </trkpt>
      <trkpt lat="44.54384" lon="2.66922">
        <ele>475.008</ele>
        <time>2015-08-05T17:21:47Z</time>
      </trkpt>
      <trkpt lat="44.54378" lon="2.67027">
        <ele>466.948</ele>
        <time>2015-08-05T17:22:07Z</time>
      </trkpt>
      <trkpt lat="44.54451" lon="2.67125">
        <ele>474.733</ele>
        <time>2015-08-05T17:22:27Z</time>
      </trkpt>
      <trkpt lat="44.54514" lon="2.67259">
        <ele>471.583</ele>
        <time>2015-08-05T17:22:47Z</time>
      </trkpt>
      <trkpt lat="44.54585" lon="2.67384">
        <ele>462.835</ele>
        <time>2015-08-05T17:23:07Z</time>
      </trkpt>
      <trkpt lat="44.54614" lon="2.67414">
        <ele>461.927</ele>
        <time>2015-08-05T17:23:27Z</time>
      </trkpt>
      <trkpt lat="44.54629" lon="2.67408">
        <ele>457.518</ele>
        <time>2015-08-05T17:23:47Z</time>
      </trkpt>
      <trkpt lat="44.54701" lon="2.67401">
        <ele>447.954</ele>
        <time>2015-08-05T17:24:07Z</time>
      </trkpt>
      <trkpt lat="44.54741" lon="2.67383">
        <ele>440.546</ele>
        <time>2015-08-05T17:24:27Z</time>
      </trkpt>
      <trkpt lat="44.54916" lon="2.67337">
        <ele>418.943</ele>
        <time>2015-08-05T17:24:47Z</time>
      </trkpt>
      <trkpt lat="44.54954" lon="2.6729">
        <ele>404.364</ele>
        <time>2015-08-05T17:25:07Z</time>
      </trkpt>
      <trkpt lat="44.54989" lon="2.67255">
        <ele>392.51</ele>
        <time>2015-08-05T17:25:27Z</time>
      </trkpt>
      <trkpt lat="44.55018" lon="2.67238">
        <ele>379.908</ele>
        <time>2015-08-05T17:25:47Z</time>
      </trkpt>
      <trkpt lat="44.55043" lon="2.67234">
        <ele>369.58</ele>
        <time>2015-08-05T17:26:07Z</time>
      </trkpt>
      <trkpt lat="44.55091" lon="2.67261">
        <ele>363.475</ele>
        <time>2015-08-05T17:26:27Z</time>
      </trkpt>
      <trkpt lat="44.55176" lon="2.67284">
        <ele>341.165</ele>
        <time>2015-08-05T17:26:47Z</time>
      </trkpt>
      <trkpt lat="44.55222" lon="2.67285">
        <ele>329.967</ele>
        <time>2015-08-05T17:27:07Z</time>
      </trkpt>
    </trkseg>
  </trk>
  <trk>
    <name><![CDATA[Espalion]]></name>
    <extensions>
      <line xmlns="http://www.topografix.com/GPX/gpx_style/0/2">
        <color>00ff08</color>
        <width>4</width>
      </line>
    </extensions>
    <trkseg>
      <trkpt lat="44.55222" lon="2.67285">
        <ele>329.967</ele>
        <time>2015-08-05T17:27:07Z</time>
      </trkpt>
      <trkpt lat="44.55222" lon="2.67285">
        <ele>329.967</ele>
        <time>2015-08-05T17:27:07Z</time>
      </trkpt>
      <trkpt lat="44.55222" lon="2.67285">
        <ele>329.967</ele>
        <time>2015-08-05T17:27:07Z</time>
      </trkpt>
      <trkpt lat="44.55222" lon="2.67285">
        <ele>329.967</ele>
        <time>2015-08-05T17:27:07Z</time>
      </trkpt>
      <trkpt lat="44.55232" lon="2.6723">
        <ele>321.449</ele>
        <time>2015-08-05T17:27:27Z</time>
      </trkpt>
      <trkpt lat="44.55245" lon="2.67225">
        <ele>318.14</ele>
        <time>2015-08-05T17:27:47Z</time>
      </trkpt>
      <trkpt lat="44.55243" lon="2.67363">
        <ele>322.726</ele>
        <time>2015-08-05T17:28:07Z</time>
      </trkpt>
      <trkpt lat="44.55197" lon="2.67442">
        <ele>334.688</ele>
        <time>2015-08-05T17:28:27Z</time>
      </trkpt>
      <trkpt lat="44.55132" lon="2.67515">
        <ele>335.175</ele>
        <time>2015-08-05T17:28:47Z</time>
      </trkpt>
      <trkpt lat="44.55097" lon="2.67603">
        <ele>334.628</ele>
        <time>2015-08-05T17:29:07Z</time>
      </trkpt>
      <trkpt lat="44.55081" lon="2.67676">
        <ele>333.42</ele>
        <time>2015-08-05T17:29:27Z</time>
      </trkpt>
      <trkpt lat="44.55017" lon="2.67769">
        <ele>329.108</ele>
        <time>2015-08-05T17:29:47Z</time>
      </trkpt>
      <trkpt lat="44.54912" lon="2.67869">
        <ele>333.663</ele>
        <time>2015-08-05T17:30:07Z</time>
      </trkpt>
      <trkpt lat="44.54874" lon="2.67956">
        <ele>334.468</ele>
        <time>2015-08-05T17:30:27Z</time>
      </trkpt>
      <trkpt lat="44.54865" lon="2.68002">
        <ele>331.248</ele>
        <time>2015-08-05T17:30:47Z</time>
      </trkpt>
      <trkpt lat="44.54847" lon="2.68039">
        <ele>340.47</ele>
        <time>2015-08-05T17:31:07Z</time>
      </trkpt>
      <trkpt lat="44.54838" lon="2.68129">
        <ele>351.722</ele>
        <time>2015-08-05T17:31:27Z</time>
      </trkpt>
      <trkpt lat="44.5488" lon="2.68318">
        <ele>356.253</ele>
        <time>2015-08-05T17:31:47Z</time>
      </trkpt>
      <trkpt lat="44.54889" lon="2.68469">
        <ele>368.819</ele>
        <time>2015-08-05T17:32:07Z</time>
      </trkpt>
      <trkpt lat="44.54886" lon="2.68543">
        <ele>369.471</ele>
        <time>2015-08-05T17:32:27Z</time>
      </trkpt>
      <trkpt lat="44.54889" lon="2.68572">
        <ele>366.891</ele>
        <time>2015-08-05T17:32:47Z</time>
      </trkpt>
      <trkpt lat="44.54879" lon="2.68636">
        <ele>357.981</ele>
        <time>2015-08-05T17:33:07Z</time>
      </trkpt>
      <trkpt lat="44.54831" lon="2.6864">
        <ele>355.619</ele>
        <time>2015-08-05T17:33:27Z</time>
      </trkpt>
      <trkpt lat="44.54754" lon="2.6851">
        <ele>346.208</ele>
        <time>2015-08-05T17:33:47Z</time>
      </trkpt>
      <trkpt lat="44.54746" lon="2.68472">
        <ele>348.675</ele>
        <time>2015-08-05T17:34:07Z</time>
      </trkpt>
      <trkpt lat="44.54729" lon="2.68441">
        <ele>344.88</ele>
        <time>2015-08-05T17:34:27Z</time>
      </trkpt>
      <trkpt lat="44.54702" lon="2.68349">
        <ele>342.01</ele>
        <time>2015-08-05T17:34:47Z</time>
      </trkpt>
      <trkpt lat="44.54664" lon="2.68296">
        <ele>332.742</ele>
        <time>2015-08-05T17:35:07Z</time>
      </trkpt>
      <trkpt lat="44.5462" lon="2.6818">
        <ele>344.464</ele>
        <time>2015-08-05T17:35:27Z</time>
      </trkpt>
      <trkpt lat="44.54559" lon="2.68159">
        <ele>342.385</ele>
        <time>2015-08-05T17:35:47Z</time>
      </trkpt>
      <trkpt lat="44.54421" lon="2.68179">
        <ele>324.091</ele>
        <time>2015-08-05T17:36:07Z</time>
      </trkpt>
      <trkpt lat="44.54382" lon="2.68121">
        <ele>327.553</ele>
        <time>2015-08-05T17:36:27Z</time>
      </trkpt>
      <trkpt lat="44.54345" lon="2.68061">
        <ele>330.947</ele>
        <time>2015-08-05T17:36:47Z</time>
      </trkpt>
      <trkpt lat="44.5431" lon="2.6805">
        <ele>330.929</ele>
        <time>2015-08-05T17:37:07Z</time>
      </trkpt>
      <trkpt lat="44.54274" lon="2.68049">
        <ele>330.721</ele>
        <time>2015-08-05T17:37:27Z</time>
      </trkpt>
      <trkpt lat="44.54273" lon="2.68079">
        <ele>325.508</ele>
        <time>2015-08-05T17:37:47Z</time>
      </trkpt>
      <trkpt lat="44.54298" lon="2.68118">
        <ele>323.73</ele>
        <time>2015-08-05T17:38:07Z</time>
      </trkpt>
      <trkpt lat="44.54326" lon="2.68151">
        <ele>323.915</ele>
        <time>2015-08-05T17:38:27Z</time>
      </trkpt>
      <trkpt lat="44.54318" lon="2.68205">
        <ele>331.075</ele>
        <time>2015-08-05T17:38:47Z</time>
      </trkpt>
      <trkpt lat="44.54328" lon="2.68259">
        <ele>335.297</ele>
        <time>2015-08-05T17:39:07Z</time>
      </trkpt>
      <trkpt lat="44.5431" lon="2.68318">
        <ele>336.459</ele>
        <time>2015-08-05T17:39:27Z</time>
      </trkpt>
      <trkpt lat="44.54284" lon="2.68307">
        <ele>336.21</ele>
        <time>2015-08-05T17:39:47Z</time>
      </trkpt>
      <trkpt lat="44.54252" lon="2.68302">
        <ele>334.046</ele>
        <time>2015-08-05T17:40:07Z</time>
      </trkpt>
      <trkpt lat="44.54237" lon="2.68356">
        <ele>336.598</ele>
        <time>2015-08-05T17:40:27Z</time>
      </trkpt>
      <trkpt lat="44.54118" lon="2.68484">
        <ele>341.242</ele>
        <time>2015-08-05T17:40:47Z</time>
      </trkpt>
      <trkpt lat="44.54095" lon="2.68536">
        <ele>343.022</ele>
        <time>2015-08-05T17:41:07Z</time>
      </trkpt>
      <trkpt lat="44.54026" lon="2.68642">
        <ele>343.114</ele>
        <time>2015-08-05T17:41:27Z</time>
      </trkpt>
      <trkpt lat="44.53867" lon="2.6876">
        <ele>347.108</ele>
        <time>2015-08-05T17:41:47Z</time>
      </trkpt>
      <trkpt lat="44.5377" lon="2.6892">
        <ele>347.78</ele>
        <time>2015-08-05T17:42:07Z</time>
      </trkpt>
      <trkpt lat="44.5375" lon="2.68937">
        <ele>349.055</ele>
        <time>2015-08-05T17:42:27Z</time>
      </trkpt>
      <trkpt lat="44.53776" lon="2.68961">
        <ele>348.195</ele>
        <time>2015-08-05T17:42:47Z</time>
      </trkpt>
      <trkpt lat="44.5401" lon="2.69102">
        <ele>343.657</ele>
        <time>2015-08-05T17:43:07Z</time>
      </trkpt>
      <trkpt lat="44.54075" lon="2.69175">
        <ele>346.769</ele>
        <time>2015-08-05T17:43:27Z</time>
      </trkpt>
      <trkpt lat="44.54038" lon="2.69503">
        <ele>351.72</ele>
        <time>2015-08-05T17:43:47Z</time>
      </trkpt>
      <trkpt lat="44.53824" lon="2.70061">
        <ele>363.526</ele>
        <time>2015-08-05T17:44:07Z</time>
      </trkpt>
      <trkpt lat="44.53861" lon="2.70119">
        <ele>365.748</ele>
        <time>2015-08-05T17:44:27Z</time>
      </trkpt>
      <trkpt lat="44.53931" lon="2.70203">
        <ele>360.297</ele>
        <time>2015-08-05T17:44:47Z</time>
      </trkpt>
      <trkpt lat="44.53947" lon="2.70242">
        <ele>358.823</ele>
        <time>2015-08-05T17:45:07Z</time>
      </trkpt>
      <trkpt lat="44.53942" lon="2.70306">
        <ele>361.925</ele>
        <time>2015-08-05T17:45:27Z</time>
      </trkpt>
      <trkpt lat="44.53963" lon="2.70343">
        <ele>364.308</ele>
        <time>2015-08-05T17:45:47Z</time>
      </trkpt>
      <trkpt lat="44.54006" lon="2.70373">
        <ele>367.985</ele>
        <time>2015-08-05T17:46:07Z</time>
      </trkpt>
      <trkpt lat="44.54071" lon="2.70373">
        <ele>369.49</ele>
        <time>2015-08-05T17:46:27Z</time>
      </trkpt>
      <trkpt lat="44.54153" lon="2.70381">
        <ele>373.25</ele>
        <time>2015-08-05T17:46:47Z</time>
      </trkpt>
      <trkpt lat="44.54133" lon="2.70491">
        <ele>378.662</ele>
        <time>2015-08-05T17:47:07Z</time>
      </trkpt>
      <trkpt lat="44.54132" lon="2.70528">
        <ele>381.324</ele>
        <time>2015-08-05T17:47:27Z</time>
      </trkpt>
      <trkpt lat="44.54119" lon="2.70558">
        <ele>383.955</ele>
        <time>2015-08-05T17:47:47Z</time>
      </trkpt>
      <trkpt lat="44.54089" lon="2.70565">
        <ele>390.531</ele>
        <time>2015-08-05T17:48:07Z</time>
      </trkpt>
      <trkpt lat="44.54078" lon="2.70587">
        <ele>394.213</ele>
        <time>2015-08-05T17:48:27Z</time>
      </trkpt>
      <trkpt lat="44.5406" lon="2.70592">
        <ele>397.387</ele>
        <time>2015-08-05T17:48:47Z</time>
      </trkpt>
      <trkpt lat="44.54069" lon="2.70657">
        <ele>405.942</ele>
        <time>2015-08-05T17:49:07Z</time>
      </trkpt>
      <trkpt lat="44.54066" lon="2.70722">
        <ele>418.626</ele>
        <time>2015-08-05T17:49:27Z</time>
      </trkpt>
      <trkpt lat="44.54083" lon="2.70763">
        <ele>420.508</ele>
        <time>2015-08-05T17:49:47Z</time>
      </trkpt>
      <trkpt lat="44.54093" lon="2.7081">
        <ele>424.254</ele>
        <time>2015-08-05T17:50:07Z</time>
      </trkpt>
      <trkpt lat="44.54092" lon="2.70874">
        <ele>430.319</ele>
        <time>2015-08-05T17:50:27Z</time>
      </trkpt>
      <trkpt lat="44.54066" lon="2.70923">
        <ele>438.979</ele>
        <time>2015-08-05T17:50:47Z</time>
      </trkpt>
      <trkpt lat="44.54062" lon="2.70972">
        <ele>439.681</ele>
        <time>2015-08-05T17:51:07Z</time>
      </trkpt>
      <trkpt lat="44.54055" lon="2.70993">
        <ele>443.623</ele>
        <time>2015-08-05T17:51:27Z</time>
      </trkpt>
      <trkpt lat="44.54049" lon="2.70938">
        <ele>446.244</ele>
        <time>2015-08-05T17:51:47Z</time>
      </trkpt>
      <trkpt lat="44.54029" lon="2.70868">
        <ele>452.07</ele>
        <time>2015-08-05T17:52:07Z</time>
      </trkpt>
      <trkpt lat="44.54014" lon="2.70837">
        <ele>456.942</ele>
        <time>2015-08-05T17:52:27Z</time>
      </trkpt>
      <trkpt lat="44.53985" lon="2.70799">
        <ele>461.966</ele>
        <time>2015-08-05T17:52:47Z</time>
      </trkpt>
      <trkpt lat="44.53957" lon="2.70791">
        <ele>464.029</ele>
        <time>2015-08-05T17:53:07Z</time>
      </trkpt>
      <trkpt lat="44.53945" lon="2.70915">
        <ele>477.021</ele>
        <time>2015-08-05T17:53:27Z</time>
      </trkpt>
      <trkpt lat="44.53918" lon="2.70971">
        <ele>480.808</ele>
        <time>2015-08-05T17:53:47Z</time>
      </trkpt>
      <trkpt lat="44.53803" lon="2.71099">
        <ele>487.422</ele>
        <time>2015-08-05T17:54:07Z</time>
      </trkpt>
      <trkpt lat="44.53768" lon="2.71122">
        <ele>486.257</ele>
        <time>2015-08-05T17:54:27Z</time>
      </trkpt>
      <trkpt lat="44.53714" lon="2.7112">
        <ele>485.457</ele>
        <time>2015-08-05T17:54:47Z</time>
      </trkpt>
      <trkpt lat="44.5368" lon="2.71092">
        <ele>483.059</ele>
        <time>2015-08-05T17:55:07Z</time>
      </trkpt>
      <trkpt lat="44.53448" lon="2.71088">
        <ele>486.261</ele>
        <time>2015-08-05T17:55:27Z</time>
      </trkpt>
      <trkpt lat="44.5342" lon="2.71066">
        <ele>490.172</ele>
        <time>2015-08-05T17:55:47Z</time>
      </trkpt>
      <trkpt lat="44.53336" lon="2.7102">
        <ele>487.668</ele>
        <time>2015-08-05T17:56:07Z</time>
      </trkpt>
      <trkpt lat="44.53312" lon="2.70975">
        <ele>486.19</ele>
        <time>2015-08-05T17:56:27Z</time>
      </trkpt>
      <trkpt lat="44.53283" lon="2.70971">
        <ele>486.883</ele>
        <time>2015-08-05T17:56:47Z</time>
      </trkpt>
      <trkpt lat="44.5327" lon="2.71044">
        <ele>486.325</ele>
        <time>2015-08-05T17:57:07Z</time>
      </trkpt>
      <trkpt lat="44.53246" lon="2.71093">
        <ele>483.317</ele>
        <time>2015-08-05T17:57:27Z</time>
      </trkpt>
      <trkpt lat="44.53232" lon="2.7116">
        <ele>478.408</ele>
        <time>2015-08-05T17:57:47Z</time>
      </trkpt>
      <trkpt lat="44.53204" lon="2.71147">
        <ele>478.494</ele>
        <time>2015-08-05T17:58:07Z</time>
      </trkpt>
      <trkpt lat="44.53184" lon="2.71177">
        <ele>476.069</ele>
        <time>2015-08-05T17:58:27Z</time>
      </trkpt>
      <trkpt lat="44.53156" lon="2.7119">
        <ele>476.089</ele>
        <time>2015-08-05T17:58:47Z</time>
      </trkpt>
      <trkpt lat="44.53134" lon="2.71249">
        <ele>477.361</ele>
        <time>2015-08-05T17:59:07Z</time>
      </trkpt>
      <trkpt lat="44.53086" lon="2.71269">
        <ele>482.863</ele>
        <time>2015-08-05T17:59:27Z</time>
      </trkpt>
      <trkpt lat="44.53046" lon="2.71421">
        <ele>487.294</ele>
        <time>2015-08-05T17:59:47Z</time>
      </trkpt>
      <trkpt lat="44.53006" lon="2.71492">
        <ele>483.28</ele>
        <time>2015-08-05T18:00:07Z</time>
      </trkpt>
      <trkpt lat="44.52997" lon="2.71628">
        <ele>481.252</ele>
        <time>2015-08-05T18:00:27Z</time>
      </trkpt>
      <trkpt lat="44.5298" lon="2.71697">
        <ele>484.195</ele>
        <time>2015-08-05T18:00:47Z</time>
      </trkpt>
      <trkpt lat="44.52929" lon="2.71807">
        <ele>486.149</ele>
        <time>2015-08-05T18:01:07Z</time>
      </trkpt>
      <trkpt lat="44.52874" lon="2.7189">
        <ele>491.723</ele>
        <time>2015-08-05T18:01:27Z</time>
      </trkpt>
      <trkpt lat="44.52881" lon="2.7201">
        <ele>483.808</ele>
        <time>2015-08-05T18:01:47Z</time>
      </trkpt>
      <trkpt lat="44.529" lon="2.72062">
        <ele>484.755</ele>
        <time>2015-08-05T18:02:07Z</time>
      </trkpt>
      <trkpt lat="44.52911" lon="2.72152">
        <ele>488.56</ele>
        <time>2015-08-05T18:02:27Z</time>
      </trkpt>
      <trkpt lat="44.52935" lon="2.72184">
        <ele>484.11</ele>
        <time>2015-08-05T18:02:47Z</time>
      </trkpt>
      <trkpt lat="44.52951" lon="2.72232">
        <ele>484.372</ele>
        <time>2015-08-05T18:03:07Z</time>
      </trkpt>
      <trkpt lat="44.52934" lon="2.72348">
        <ele>478.974</ele>
        <time>2015-08-05T18:03:27Z</time>
      </trkpt>
      <trkpt lat="44.52933" lon="2.7238">
        <ele>480.715</ele>
        <time>2015-08-05T18:03:47Z</time>
      </trkpt>
      <trkpt lat="44.5288" lon="2.72501">
        <ele>452.421</ele>
        <time>2015-08-05T18:04:07Z</time>
      </trkpt>
      <trkpt lat="44.52871" lon="2.72541">
        <ele>446.663</ele>
        <time>2020-11-26T05:03:00Z</time>
      </trkpt>
      <trkpt lat="44.52852" lon="2.72562">
        <ele>440.448</ele>
        <time>2020-11-26T05:03:20Z</time>
      </trkpt>
      <trkpt lat="44.52821" lon="2.72541">
        <ele>435.761</ele>
        <time>2020-11-26T05:03:40Z</time>
      </trkpt>
      <trkpt lat="44.52831" lon="2.72597">
        <ele>431.717</ele>
        <time>2020-11-26T05:04:00Z</time>
      </trkpt>
      <trkpt lat="44.52874" lon="2.7263">
        <ele>427.108</ele>
        <time>2020-11-26T05:04:20Z</time>
      </trkpt>
      <trkpt lat="44.52834" lon="2.72708">
        <ele>414.58</ele>
        <time>2020-11-26T05:04:40Z</time>
      </trkpt>
      <trkpt lat="44.52793" lon="2.72747">
        <ele>407.665</ele>
        <time>2020-11-26T05:05:00Z</time>
      </trkpt>
      <trkpt lat="44.52789" lon="2.72771">
        <ele>404.075</ele>
        <time>2020-11-26T05:05:20Z</time>
      </trkpt>
      <trkpt lat="44.52778" lon="2.72703">
        <ele>406.147</ele>
        <time>2020-11-26T05:05:40Z</time>
      </trkpt>
      <trkpt lat="44.5277" lon="2.72769">
        <ele>399.989</ele>
        <time>2020-11-26T05:06:00Z</time>
      </trkpt>
      <trkpt lat="44.52783" lon="2.72808">
        <ele>395.05</ele>
        <time>2020-11-26T05:06:20Z</time>
      </trkpt>
      <trkpt lat="44.52841" lon="2.72807">
        <ele>392.416</ele>
        <time>2020-11-26T05:06:40Z</time>
      </trkpt>
      <trkpt lat="44.52913" lon="2.72774">
        <ele>382.568</ele>
        <time>2020-11-26T05:07:00Z</time>
      </trkpt>
      <trkpt lat="44.52967" lon="2.72797">
        <ele>374.894</ele>
        <time>2020-11-26T05:07:20Z</time>
      </trkpt>
      <trkpt lat="44.52984" lon="2.72835">
        <ele>367.357</ele>
        <time>2020-11-26T05:07:40Z</time>
      </trkpt>
      <trkpt lat="44.53015" lon="2.72808">
        <ele>374.822</ele>
        <time>2020-11-26T05:08:00Z</time>
      </trkpt>
      <trkpt lat="44.5306" lon="2.72824">
        <ele>368.608</ele>
        <time>2020-11-26T05:08:20Z</time>
      </trkpt>
      <trkpt lat="44.53115" lon="2.72794">
        <ele>366.725</ele>
        <time>2020-11-26T05:08:40Z</time>
      </trkpt>
      <trkpt lat="44.53115" lon="2.72807">
        <ele>361.61</ele>
        <time>2020-11-26T05:09:00Z</time>
      </trkpt>
      <trkpt lat="44.53066" lon="2.72861">
        <ele>353.34</ele>
        <time>2020-11-26T05:09:20Z</time>
      </trkpt>
      <trkpt lat="44.5302" lon="2.72982">
        <ele>336.392</ele>
        <time>2020-11-26T05:09:40Z</time>
      </trkpt>
      <trkpt lat="44.52942" lon="2.73079">
        <ele>330.384</ele>
        <time>2020-11-26T05:10:00Z</time>
      </trkpt>
      <trkpt lat="44.52838" lon="2.73072">
        <ele>331.425</ele>
        <time>2020-11-26T05:10:20Z</time>
      </trkpt>
      <trkpt lat="44.52832" lon="2.73043">
        <ele>332.991</ele>
        <time>2020-11-26T05:10:40Z</time>
      </trkpt>
      <trkpt lat="44.52757" lon="2.72972">
        <ele>335.853</ele>
        <time>2020-11-26T05:11:00Z</time>
      </trkpt>
      <trkpt lat="44.52731" lon="2.72914">
        <ele>343.561</ele>
        <time>2020-11-26T05:11:20Z</time>
      </trkpt>
      <trkpt lat="44.52684" lon="2.72897">
        <ele>339.321</ele>
        <time>2020-11-26T05:11:40Z</time>
      </trkpt>
      <trkpt lat="44.52636" lon="2.72831">
        <ele>338.013</ele>
        <time>2020-11-26T05:12:00Z</time>
      </trkpt>
      <trkpt lat="44.52597" lon="2.728">
        <ele>336.408</ele>
        <time>2020-11-26T05:12:20Z</time>
      </trkpt>
      <trkpt lat="44.52585" lon="2.72821">
        <ele>336.032</ele>
        <time>2015-08-05T18:10:27Z</time>
      </trkpt>
      <trkpt lat="44.52607" lon="2.72921">
        <ele>336.627</ele>
        <time>2015-08-05T18:10:47Z</time>
      </trkpt>
      <trkpt lat="44.52612" lon="2.72984">
        <ele>342.687</ele>
        <time>2015-08-05T18:11:07Z</time>
      </trkpt>
      <trkpt lat="44.52636" lon="2.73071">
        <ele>345.789</ele>
        <time>2015-08-05T18:11:27Z</time>
      </trkpt>
      <trkpt lat="44.52683" lon="2.7315">
        <ele>341.441</ele>
        <time>2015-08-05T18:11:47Z</time>
      </trkpt>
      <trkpt lat="44.52735" lon="2.73256">
        <ele>342.832</ele>
        <time>2015-08-05T18:12:07Z</time>
      </trkpt>
      <trkpt lat="44.5275" lon="2.73359">
        <ele>338.228</ele>
        <time>2015-08-05T18:12:27Z</time>
      </trkpt>
      <trkpt lat="44.52769" lon="2.73444">
        <ele>338.01</ele>
        <time>2015-08-05T18:12:47Z</time>
      </trkpt>
      <trkpt lat="44.52795" lon="2.73483">
        <ele>336.682</ele>
        <time>2015-08-05T18:13:07Z</time>
      </trkpt>
      <trkpt lat="44.52834" lon="2.73558">
        <ele>331.143</ele>
        <time>2015-08-05T18:13:27Z</time>
      </trkpt>
      <trkpt lat="44.52803" lon="2.73732">
        <ele>336.617</ele>
        <time>2015-08-05T18:13:47Z</time>
      </trkpt>
      <trkpt lat="44.52773" lon="2.73856">
        <ele>340.508</ele>
        <time>2015-08-05T18:14:07Z</time>
      </trkpt>
      <trkpt lat="44.52709" lon="2.74009">
        <ele>342.314</ele>
        <time>2015-08-05T18:14:27Z</time>
      </trkpt>
      <trkpt lat="44.52666" lon="2.74062">
        <ele>348.539</ele>
        <time>2015-08-05T18:14:47Z</time>
      </trkpt>
      <trkpt lat="44.52647" lon="2.74137">
        <ele>351.479</ele>
        <time>2015-08-05T18:15:07Z</time>
      </trkpt>
      <trkpt lat="44.5253" lon="2.74283">
        <ele>355.671</ele>
        <time>2015-08-05T18:15:27Z</time>
      </trkpt>
      <trkpt lat="44.52482" lon="2.74364">
        <ele>353.813</ele>
        <time>2015-08-05T18:15:47Z</time>
      </trkpt>
      <trkpt lat="44.52446" lon="2.74569">
        <ele>356.924</ele>
        <time>2015-08-05T18:16:07Z</time>
      </trkpt>
      <trkpt lat="44.52434" lon="2.74698">
        <ele>359.36</ele>
        <time>2015-08-05T18:16:27Z</time>
      </trkpt>
      <trkpt lat="44.52393" lon="2.74864">
        <ele>358.932</ele>
        <time>2015-08-05T18:16:47Z</time>
      </trkpt>
      <trkpt lat="44.52499" lon="2.74893">
        <ele>354.987</ele>
        <time>2015-08-05T18:17:07Z</time>
      </trkpt>
      <trkpt lat="44.52631" lon="2.74991">
        <ele>350.442</ele>
        <time>2015-08-05T18:17:27Z</time>
      </trkpt>
      <trkpt lat="44.52641" lon="2.75011">
        <ele>347.226</ele>
        <time>2015-08-05T18:17:47Z</time>
      </trkpt>
      <trkpt lat="44.52642" lon="2.75038">
        <ele>343.108</ele>
        <time>2015-08-05T18:18:07Z</time>
      </trkpt>
      <trkpt lat="44.52607" lon="2.75095">
        <ele>343.034</ele>
        <time>2015-08-05T18:18:27Z</time>
      </trkpt>
      <trkpt lat="44.52577" lon="2.75153">
        <ele>342.089</ele>
        <time>2015-08-05T18:18:47Z</time>
      </trkpt>
      <trkpt lat="44.52573" lon="2.75174">
        <ele>342.159</ele>
        <time>2015-08-05T18:19:07Z</time>
      </trkpt>
      <trkpt lat="44.52663" lon="2.75227">
        <ele>332.221</ele>
        <time>2015-08-05T18:19:27Z</time>
      </trkpt>
      <trkpt lat="44.52643" lon="2.75334">
        <ele>333.033</ele>
        <time>2015-08-05T18:19:47Z</time>
      </trkpt>
      <trkpt lat="44.52606" lon="2.75472">
        <ele>332.454</ele>
        <time>2015-08-05T18:20:07Z</time>
      </trkpt>
      <trkpt lat="44.52563" lon="2.75599">
        <ele>334.76</ele>
        <time>2015-08-05T18:20:27Z</time>
      </trkpt>
      <trkpt lat="44.5253" lon="2.7568">
        <ele>333.232</ele>
        <time>2015-08-05T18:20:47Z</time>
      </trkpt>
      <trkpt lat="44.52493" lon="2.75703">
        <ele>333.315</ele>
        <time>2015-08-05T18:21:07Z</time>
      </trkpt>
      <trkpt lat="44.52576" lon="2.7578">
        <ele>334.865</ele>
        <time>2015-08-05T18:21:27Z</time>
      </trkpt>
      <trkpt lat="44.5251" lon="2.75875">
        <ele>334.211</ele>
        <time>2015-08-05T18:21:47Z</time>
      </trkpt>
      <trkpt lat="44.52471" lon="2.75922">
        <ele>334.808</ele>
        <time>2015-08-05T18:22:07Z</time>
      </trkpt>
      <trkpt lat="44.52432" lon="2.75993">
        <ele>335.027</ele>
        <time>2015-08-05T18:22:27Z</time>
      </trkpt>
      <trkpt lat="44.52402" lon="2.76023">
        <ele>334.692</ele>
        <time>2015-08-05T18:22:47Z</time>
      </trkpt>
      <trkpt lat="44.52311" lon="2.76187">
        <ele>335.662</ele>
        <time>2015-08-05T18:23:27Z</time>
      </trkpt>
      <trkpt lat="44.52244" lon="2.76286">
        <ele>342.664</ele>
        <time>2020-03-06T17:17:23Z</time>
      </trkpt>
    </trkseg>
  </trk>
  <trk>
    <name><![CDATA[St-Côme-d'Olt]]></name>
    <extensions>
      <line xmlns="http://www.topografix.com/GPX/gpx_style/0/2">
        <color>00ffee</color>
        <width>4</width>
      </line>
    </extensions>
    <trkseg>
      <trkpt lat="44.52244" lon="2.76286">
        <ele>342.664</ele>
        <time>2020-03-06T17:17:23Z</time>
      </trkpt>
      <trkpt lat="44.52244" lon="2.76286">
        <ele>342.664</ele>
        <time>2020-03-06T17:17:23Z</time>
      </trkpt>
      <trkpt lat="44.52244" lon="2.76286">
        <ele>342.664</ele>
        <time>2020-03-06T17:17:23Z</time>
      </trkpt>
      <trkpt lat="44.52244" lon="2.76286">
        <ele>342.664</ele>
        <time>2020-03-06T17:17:23Z</time>
      </trkpt>
      <trkpt lat="44.52244" lon="2.76286">
        <ele>342.664</ele>
        <time>2020-03-06T17:17:23Z</time>
      </trkpt>
      <trkpt lat="44.52244" lon="2.76286">
        <ele>342.676</ele>
        <time>2020-03-06T17:17:23Z</time>
      </trkpt>
      <trkpt lat="44.52216" lon="2.76336">
        <ele>345.247</ele>
        <time>2020-03-06T17:17:43Z</time>
      </trkpt>
      <trkpt lat="44.522" lon="2.7633">
        <ele>346.773</ele>
        <time>2020-03-06T17:18:03Z</time>
      </trkpt>
      <trkpt lat="44.52118" lon="2.7643">
        <ele>343.375</ele>
        <time>2015-08-05T16:04:17Z</time>
      </trkpt>
      <trkpt lat="44.52114" lon="2.76505">
        <ele>339.549</ele>
        <time>2015-08-05T16:04:37Z</time>
      </trkpt>
      <trkpt lat="44.5217" lon="2.76733">
        <ele>345.202</ele>
        <time>2015-08-05T16:04:57Z</time>
      </trkpt>
      <trkpt lat="44.52227" lon="2.76837">
        <ele>340.222</ele>
        <time>2015-08-05T16:05:17Z</time>
      </trkpt>
      <trkpt lat="44.52267" lon="2.76977">
        <ele>334.008</ele>
        <time>2015-08-05T16:05:37Z</time>
      </trkpt>
      <trkpt lat="44.52271" lon="2.77045">
        <ele>337.64</ele>
        <time>2015-08-05T16:05:57Z</time>
      </trkpt>
      <trkpt lat="44.52289" lon="2.77113">
        <ele>339.585</ele>
        <time>2015-08-05T16:06:17Z</time>
      </trkpt>
      <trkpt lat="44.52263" lon="2.772">
        <ele>338.665</ele>
        <time>2015-08-05T16:06:37Z</time>
      </trkpt>
      <trkpt lat="44.52191" lon="2.77304">
        <ele>338.037</ele>
        <time>2015-08-05T16:06:57Z</time>
      </trkpt>
      <trkpt lat="44.52143" lon="2.77321">
        <ele>341.349</ele>
        <time>2015-08-05T16:07:17Z</time>
      </trkpt>
      <trkpt lat="44.52127" lon="2.77308">
        <ele>341.51</ele>
        <time>2015-08-05T16:07:37Z</time>
      </trkpt>
      <trkpt lat="44.52101" lon="2.77309">
        <ele>340.976</ele>
        <time>2015-08-05T16:07:57Z</time>
      </trkpt>
      <trkpt lat="44.52002" lon="2.77223">
        <ele>337.038</ele>
        <time>2015-08-05T16:08:17Z</time>
      </trkpt>
      <trkpt lat="44.51815" lon="2.77221">
        <ele>340.336</ele>
        <time>2015-08-05T16:08:37Z</time>
      </trkpt>
      <trkpt lat="44.51782" lon="2.77181">
        <ele>344.517</ele>
        <time>2015-08-05T16:08:57Z</time>
      </trkpt>
      <trkpt lat="44.51762" lon="2.77227">
        <ele>346.118</ele>
        <time>2015-08-05T16:09:17Z</time>
      </trkpt>
      <trkpt lat="44.51723" lon="2.77264">
        <ele>349.308</ele>
        <time>2015-08-05T16:09:37Z</time>
      </trkpt>
      <trkpt lat="44.51707" lon="2.77379">
        <ele>358.149</ele>
        <time>2015-08-05T16:09:57Z</time>
      </trkpt>
      <trkpt lat="44.51681" lon="2.77428">
        <ele>363.124</ele>
        <time>2015-08-05T16:10:17Z</time>
      </trkpt>
      <trkpt lat="44.5168" lon="2.77478">
        <ele>367.814</ele>
        <time>2015-08-05T16:10:37Z</time>
      </trkpt>
      <trkpt lat="44.51658" lon="2.77533">
        <ele>375.166</ele>
        <time>2015-08-05T16:10:57Z</time>
      </trkpt>
      <trkpt lat="44.51605" lon="2.77574">
        <ele>392.568</ele>
        <time>2015-08-05T16:11:17Z</time>
      </trkpt>
      <trkpt lat="44.51593" lon="2.77576">
        <ele>397.189</ele>
        <time>2015-08-05T16:11:37Z</time>
      </trkpt>
      <trkpt lat="44.51572" lon="2.77563">
        <ele>403.515</ele>
        <time>2015-08-05T16:11:57Z</time>
      </trkpt>
      <trkpt lat="44.51579" lon="2.77611">
        <ele>412.437</ele>
        <time>2015-08-05T16:12:17Z</time>
      </trkpt>
      <trkpt lat="44.51568" lon="2.77622">
        <ele>419.015</ele>
        <time>2015-08-05T16:12:37Z</time>
      </trkpt>
      <trkpt lat="44.51547" lon="2.77595">
        <ele>421.165</ele>
        <time>2015-08-05T16:12:57Z</time>
      </trkpt>
      <trkpt lat="44.51528" lon="2.77584">
        <ele>428.111</ele>
        <time>2015-08-05T16:13:17Z</time>
      </trkpt>
      <trkpt lat="44.51504" lon="2.77592">
        <ele>434.008</ele>
        <time>2015-08-05T16:13:37Z</time>
      </trkpt>
      <trkpt lat="44.51491" lon="2.77607">
        <ele>437.747</ele>
        <time>2015-08-05T16:13:57Z</time>
      </trkpt>
      <trkpt lat="44.51481" lon="2.77648">
        <ele>444.752</ele>
        <time>2015-08-05T16:14:17Z</time>
      </trkpt>
      <trkpt lat="44.51522" lon="2.77634">
        <ele>442.222</ele>
        <time>2015-08-05T16:14:37Z</time>
      </trkpt>
      <trkpt lat="44.51531" lon="2.77693">
        <ele>458.264</ele>
        <time>2015-08-05T16:14:57Z</time>
      </trkpt>
      <trkpt lat="44.51532" lon="2.77755">
        <ele>469.396</ele>
        <time>2015-08-05T16:15:17Z</time>
      </trkpt>
      <trkpt lat="44.51524" lon="2.77815">
        <ele>476.577</ele>
        <time>2015-08-05T16:15:37Z</time>
      </trkpt>
      <trkpt lat="44.51506" lon="2.77875">
        <ele>478.793</ele>
        <time>2015-08-05T16:15:57Z</time>
      </trkpt>
      <trkpt lat="44.51516" lon="2.77924">
        <ele>480.385</ele>
        <time>2015-08-05T16:16:17Z</time>
      </trkpt>
      <trkpt lat="44.5153" lon="2.77957">
        <ele>480.589</ele>
        <time>2015-08-05T16:16:37Z</time>
      </trkpt>
      <trkpt lat="44.51537" lon="2.77996">
        <ele>479.406</ele>
        <time>2015-08-05T16:16:57Z</time>
      </trkpt>
      <trkpt lat="44.51556" lon="2.78019">
        <ele>479.926</ele>
        <time>2015-08-05T16:17:17Z</time>
      </trkpt>
      <trkpt lat="44.51576" lon="2.78021">
        <ele>477.808</ele>
        <time>2015-08-05T16:17:37Z</time>
      </trkpt>
      <trkpt lat="44.51599" lon="2.78035">
        <ele>475.544</ele>
        <time>2015-08-05T16:17:57Z</time>
      </trkpt>
      <trkpt lat="44.51619" lon="2.78054">
        <ele>474.119</ele>
        <time>2015-08-05T16:18:17Z</time>
      </trkpt>
      <trkpt lat="44.51644" lon="2.7808">
        <ele>468.669</ele>
        <time>2015-08-05T16:18:37Z</time>
      </trkpt>
      <trkpt lat="44.51624" lon="2.78097">
        <ele>472.251</ele>
        <time>2015-08-05T16:18:57Z</time>
      </trkpt>
      <trkpt lat="44.51593" lon="2.78091">
        <ele>475.633</ele>
        <time>2015-08-05T16:19:17Z</time>
      </trkpt>
      <trkpt lat="44.51571" lon="2.78107">
        <ele>476.344</ele>
        <time>2015-08-05T16:19:37Z</time>
      </trkpt>
      <trkpt lat="44.51466" lon="2.78169">
        <ele>467.97</ele>
        <time>2015-08-05T16:19:57Z</time>
      </trkpt>
      <trkpt lat="44.51483" lon="2.78219">
        <ele>464.962</ele>
        <time>2015-08-05T16:20:17Z</time>
      </trkpt>
      <trkpt lat="44.51471" lon="2.78252">
        <ele>466.069</ele>
        <time>2015-08-05T16:20:37Z</time>
      </trkpt>
      <trkpt lat="44.51444" lon="2.78273">
        <ele>467.404</ele>
        <time>2015-08-05T16:20:57Z</time>
      </trkpt>
      <trkpt lat="44.51415" lon="2.78319">
        <ele>463.824</ele>
        <time>2015-08-05T16:21:17Z</time>
      </trkpt>
      <trkpt lat="44.51387" lon="2.78349">
        <ele>456.008</ele>
        <time>2015-08-05T16:21:37Z</time>
      </trkpt>
      <trkpt lat="44.5131" lon="2.78367">
        <ele>450.132</ele>
        <time>2020-03-06T17:36:03Z</time>
      </trkpt>
      <trkpt lat="44.51238" lon="2.78369">
        <ele>449.877</ele>
        <time>2015-08-05T16:21:57Z</time>
      </trkpt>
      <trkpt lat="44.5122" lon="2.78403">
        <ele>445.077</ele>
        <time>2015-08-05T16:22:17Z</time>
      </trkpt>
      <trkpt lat="44.51202" lon="2.7842">
        <ele>444.779</ele>
        <time>2015-08-05T16:22:37Z</time>
      </trkpt>
      <trkpt lat="44.512" lon="2.78433">
        <ele>442.371</ele>
        <time>2015-08-05T16:22:57Z</time>
      </trkpt>
      <trkpt lat="44.51211" lon="2.78435">
        <ele>439.552</ele>
        <time>2015-08-05T16:23:17Z</time>
      </trkpt>
      <trkpt lat="44.51189" lon="2.78455">
        <ele>439.048</ele>
        <time>2015-08-05T16:23:37Z</time>
      </trkpt>
      <trkpt lat="44.51134" lon="2.78456">
        <ele>442.22</ele>
        <time>2015-08-05T16:23:57Z</time>
      </trkpt>
      <trkpt lat="44.51086" lon="2.78552">
        <ele>446.844</ele>
        <time>2015-08-05T16:24:17Z</time>
      </trkpt>
      <trkpt lat="44.51042" lon="2.78576">
        <ele>449.105</ele>
        <time>2015-08-05T16:24:37Z</time>
      </trkpt>
      <trkpt lat="44.51027" lon="2.78597">
        <ele>450.915</ele>
        <time>2015-08-05T16:24:57Z</time>
      </trkpt>
      <trkpt lat="44.51012" lon="2.78608">
        <ele>450.308</ele>
        <time>2015-08-05T16:25:17Z</time>
      </trkpt>
      <trkpt lat="44.50969" lon="2.78651">
        <ele>449.25</ele>
        <time>2015-08-05T16:25:37Z</time>
      </trkpt>
      <trkpt lat="44.50906" lon="2.78684">
        <ele>452.295</ele>
        <time>2015-08-05T16:25:57Z</time>
      </trkpt>
      <trkpt lat="44.50827" lon="2.78687">
        <ele>463.445</ele>
        <time>2015-08-05T16:26:17Z</time>
      </trkpt>
      <trkpt lat="44.50784" lon="2.78667">
        <ele>469.047</ele>
        <time>2015-08-05T16:26:37Z</time>
      </trkpt>
      <trkpt lat="44.50697" lon="2.78647">
        <ele>476.419</ele>
        <time>2015-08-05T16:26:57Z</time>
      </trkpt>
      <trkpt lat="44.50641" lon="2.78597">
        <ele>483.75</ele>
        <time>2015-08-05T16:27:17Z</time>
      </trkpt>
      <trkpt lat="44.50595" lon="2.78483">
        <ele>483.366</ele>
        <time>2015-08-05T16:27:37Z</time>
      </trkpt>
      <trkpt lat="44.50525" lon="2.78506">
        <ele>483.728</ele>
        <time>2015-08-05T16:27:57Z</time>
      </trkpt>
      <trkpt lat="44.50511" lon="2.78523">
        <ele>485.663</ele>
        <time>2015-08-05T16:28:17Z</time>
      </trkpt>
      <trkpt lat="44.50486" lon="2.78592">
        <ele>495.444</ele>
        <time>2015-08-05T16:28:37Z</time>
      </trkpt>
      <trkpt lat="44.50469" lon="2.78631">
        <ele>502.518</ele>
        <time>2015-08-05T16:28:57Z</time>
      </trkpt>
      <trkpt lat="44.50457" lon="2.7867">
        <ele>506.708</ele>
        <time>2015-08-05T16:29:17Z</time>
      </trkpt>
      <trkpt lat="44.50437" lon="2.78821">
        <ele>512.312</ele>
        <time>2015-08-05T16:29:37Z</time>
      </trkpt>
      <trkpt lat="44.50394" lon="2.78946">
        <ele>519.447</ele>
        <time>2015-08-05T16:29:57Z</time>
      </trkpt>
      <trkpt lat="44.50362" lon="2.79048">
        <ele>522.047</ele>
        <time>2015-08-05T16:30:17Z</time>
      </trkpt>
      <trkpt lat="44.5033" lon="2.79186">
        <ele>522.489</ele>
        <time>2015-08-05T16:30:37Z</time>
      </trkpt>
      <trkpt lat="44.50341" lon="2.79208">
        <ele>521.181</ele>
        <time>2015-08-05T16:30:57Z</time>
      </trkpt>
      <trkpt lat="44.50345" lon="2.79236">
        <ele>517.972</ele>
        <time>2015-08-05T16:31:17Z</time>
      </trkpt>
      <trkpt lat="44.50356" lon="2.79235">
        <ele>514.988</ele>
        <time>2015-08-05T16:31:37Z</time>
      </trkpt>
      <trkpt lat="44.50396" lon="2.79146">
        <ele>510.14</ele>
        <time>2015-08-05T16:31:57Z</time>
      </trkpt>
      <trkpt lat="44.50433" lon="2.79097">
        <ele>511.423</ele>
        <time>2015-08-05T16:32:17Z</time>
      </trkpt>
      <trkpt lat="44.50477" lon="2.79071">
        <ele>506.083</ele>
        <time>2015-08-05T16:32:37Z</time>
      </trkpt>
      <trkpt lat="44.50481" lon="2.79077">
        <ele>503.511</ele>
        <time>2015-08-05T16:32:57Z</time>
      </trkpt>
      <trkpt lat="44.50455" lon="2.7911">
        <ele>501.608</ele>
        <time>2015-08-05T16:33:17Z</time>
      </trkpt>
      <trkpt lat="44.50442" lon="2.79146">
        <ele>494.358</ele>
        <time>2015-08-05T16:33:37Z</time>
      </trkpt>
      <trkpt lat="44.50445" lon="2.79209">
        <ele>480.863</ele>
        <time>2015-08-05T16:33:57Z</time>
      </trkpt>
      <trkpt lat="44.50462" lon="2.79284">
        <ele>467.843</ele>
        <time>2015-08-05T16:34:17Z</time>
      </trkpt>
      <trkpt lat="44.5047" lon="2.79305">
        <ele>460.965</ele>
        <time>2015-08-05T16:34:37Z</time>
      </trkpt>
      <trkpt lat="44.50481" lon="2.79347">
        <ele>450.957</ele>
        <time>2015-08-05T16:34:57Z</time>
      </trkpt>
      <trkpt lat="44.50464" lon="2.79414">
        <ele>447.978</ele>
        <time>2015-08-05T16:35:17Z</time>
      </trkpt>
      <trkpt lat="44.50463" lon="2.79465">
        <ele>442.264</ele>
        <time>2015-08-05T16:35:37Z</time>
      </trkpt>
      <trkpt lat="44.50489" lon="2.79527">
        <ele>431.096</ele>
        <time>2015-08-05T16:35:57Z</time>
      </trkpt>
      <trkpt lat="44.50571" lon="2.79616">
        <ele>426.469</ele>
        <time>2015-08-05T16:36:17Z</time>
      </trkpt>
      <trkpt lat="44.50616" lon="2.797">
        <ele>421.104</ele>
        <time>2015-08-05T16:36:37Z</time>
      </trkpt>
      <trkpt lat="44.50633" lon="2.79772">
        <ele>415.024</ele>
        <time>2015-08-05T16:36:57Z</time>
      </trkpt>
      <trkpt lat="44.50632" lon="2.79869">
        <ele>401.408</ele>
        <time>2015-08-05T16:37:17Z</time>
      </trkpt>
      <trkpt lat="44.50605" lon="2.79947">
        <ele>396.612</ele>
        <time>2015-08-05T16:37:37Z</time>
      </trkpt>
      <trkpt lat="44.50612" lon="2.79995">
        <ele>389.097</ele>
        <time>2015-08-05T16:37:57Z</time>
      </trkpt>
      <trkpt lat="44.50627" lon="2.80031">
        <ele>385.147</ele>
        <time>2015-08-05T16:38:17Z</time>
      </trkpt>
      <trkpt lat="44.50659" lon="2.80032">
        <ele>379.369</ele>
        <time>2015-08-05T16:38:37Z</time>
      </trkpt>
      <trkpt lat="44.5068" lon="2.80171">
        <ele>359.821</ele>
        <time>2015-08-05T16:38:57Z</time>
      </trkpt>
      <trkpt lat="44.50674" lon="2.80214">
        <ele>354.092</ele>
        <time>2015-08-05T16:39:17Z</time>
      </trkpt>
      <trkpt lat="44.50668" lon="2.8025">
        <ele>352.028</ele>
        <time>2015-08-05T16:39:37Z</time>
      </trkpt>
      <trkpt lat="44.50716" lon="2.8034">
        <ele>352.48</ele>
        <time>2015-08-05T16:39:57Z</time>
      </trkpt>
      <trkpt lat="44.50726" lon="2.80376">
        <ele>352.651</ele>
        <time>2015-08-05T16:40:17Z</time>
      </trkpt>
      <trkpt lat="44.50719" lon="2.80501">
        <ele>360.401</ele>
        <time>2015-08-05T16:40:37Z</time>
      </trkpt>
      <trkpt lat="44.50731" lon="2.80563">
        <ele>358.811</ele>
        <time>2015-08-05T16:40:57Z</time>
      </trkpt>
      <trkpt lat="44.50833" lon="2.80792">
        <ele>350.008</ele>
        <time>2015-08-05T16:41:17Z</time>
      </trkpt>
      <trkpt lat="44.50862" lon="2.80827">
        <ele>349.221</ele>
        <time>2015-08-05T16:41:37Z</time>
      </trkpt>
      <trkpt lat="44.50905" lon="2.80853">
        <ele>349.016</ele>
        <time>2015-08-05T16:41:57Z</time>
      </trkpt>
      <trkpt lat="44.51025" lon="2.80974">
        <ele>348.956</ele>
        <time>2015-08-05T16:42:17Z</time>
      </trkpt>
      <trkpt lat="44.51196" lon="2.81495">
        <ele>350.038</ele>
        <time>2015-08-05T16:42:37Z</time>
      </trkpt>
      <trkpt lat="44.51227" lon="2.81617">
        <ele>349.01</ele>
        <time>2015-08-05T16:42:57Z</time>
      </trkpt>
      <trkpt lat="44.5136" lon="2.81661">
        <ele>353.851</ele>
        <time>2015-08-05T16:43:17Z</time>
      </trkpt>
      <trkpt lat="44.51408" lon="2.81653">
        <ele>362.957</ele>
        <time>2015-08-05T16:43:37Z</time>
      </trkpt>
      <trkpt lat="44.51438" lon="2.81548">
        <ele>370.619</ele>
        <time>2015-08-05T16:43:57Z</time>
      </trkpt>
      <trkpt lat="44.51464" lon="2.81495">
        <ele>372.243</ele>
        <time>2020-03-06T17:58:43Z</time>
      </trkpt>
      <trkpt lat="44.51489" lon="2.81512">
        <ele>374.664</ele>
        <time>2020-03-06T17:59:03Z</time>
      </trkpt>
      <trkpt lat="44.51498" lon="2.81494">
        <ele>374.81</ele>
        <time>2020-03-06T17:59:23Z</time>
      </trkpt>
      <trkpt lat="44.51514" lon="2.81494">
        <ele>376.008</ele>
        <time>2020-03-06T17:59:43Z</time>
      </trkpt>
      <trkpt lat="44.51519" lon="2.81522">
        <ele>377.26</ele>
        <time>2020-03-06T18:00:03Z</time>
      </trkpt>
      <trkpt lat="44.51551" lon="2.81537">
        <ele>377.785</ele>
        <time>2020-03-06T18:00:23Z</time>
      </trkpt>
      <trkpt lat="44.51554" lon="2.81557">
        <ele>377.085</ele>
        <time>2015-08-05T16:45:17Z</time>
      </trkpt>
      <trkpt lat="44.51569" lon="2.81592">
        <ele>375.567</ele>
        <time>2015-08-05T16:45:37Z</time>
      </trkpt>
      <trkpt lat="44.51621" lon="2.81651">
        <ele>369.229</ele>
        <time>2015-08-05T16:45:57Z</time>
      </trkpt>
      <trkpt lat="44.5165" lon="2.81657">
        <ele>367.37</ele>
        <time>2015-08-05T16:46:17Z</time>
      </trkpt>
      <trkpt lat="44.51652" lon="2.81717">
        <ele>367.046</ele>
        <time>2015-08-05T16:46:37Z</time>
      </trkpt>
      <trkpt lat="44.51694" lon="2.81725">
        <ele>370.288</ele>
        <time>2015-08-05T16:46:57Z</time>
      </trkpt>
      <trkpt lat="44.51743" lon="2.81797">
        <ele>376.691</ele>
        <time>2015-08-05T16:47:17Z</time>
      </trkpt>
      <trkpt lat="44.51783" lon="2.81929">
        <ele>382.881</ele>
        <time>2015-08-05T16:47:37Z</time>
      </trkpt>
    </trkseg>
  </trk>
  <trk>
    <name><![CDATA[St-Chely-d'Aubrac]]></name>
    <extensions>
      <line xmlns="http://www.topografix.com/GPX/gpx_style/0/2">
        <color>0000FF</color>
        <width>4</width>
      </line>
    </extensions>
    <trkseg>
      <trkpt lat="44.51783" lon="2.81929">
        <ele>382.881</ele>
        <time>2015-08-05T16:47:37Z</time>
      </trkpt>
      <trkpt lat="44.51783" lon="2.81929">
        <ele>382.881</ele>
        <time>2015-08-05T16:47:37Z</time>
      </trkpt>
      <trkpt lat="44.51783" lon="2.81929">
        <ele>382.881</ele>
        <time>2015-08-05T16:47:37Z</time>
      </trkpt>
      <trkpt lat="44.51783" lon="2.81929">
        <ele>382.881</ele>
        <time>2015-08-05T16:47:37Z</time>
      </trkpt>
      <trkpt lat="44.51774" lon="2.82008">
        <ele>386.119</ele>
        <time>2015-08-05T16:47:57Z</time>
      </trkpt>
      <trkpt lat="44.51793" lon="2.82027">
        <ele>390.208</ele>
        <time>2015-08-05T16:48:17Z</time>
      </trkpt>
      <trkpt lat="44.51866" lon="2.82056">
        <ele>400.245</ele>
        <time>2015-08-05T16:48:37Z</time>
      </trkpt>
      <trkpt lat="44.51902" lon="2.82095">
        <ele>404.32</ele>
        <time>2015-08-05T16:48:57Z</time>
      </trkpt>
      <trkpt lat="44.51968" lon="2.8223">
        <ele>410.83</ele>
        <time>2015-08-05T16:49:17Z</time>
      </trkpt>
      <trkpt lat="44.52033" lon="2.82283">
        <ele>415.492</ele>
        <time>2015-08-05T16:49:37Z</time>
      </trkpt>
      <trkpt lat="44.52133" lon="2.82414">
        <ele>421.484</ele>
        <time>2015-08-05T16:49:57Z</time>
      </trkpt>
      <trkpt lat="44.52102" lon="2.82544">
        <ele>422.335</ele>
        <time>2020-11-26T06:14:20Z</time>
      </trkpt>
      <trkpt lat="44.52246" lon="2.82571">
        <ele>431.851</ele>
        <time>2015-08-05T16:50:57Z</time>
      </trkpt>
      <trkpt lat="44.52277" lon="2.82595">
        <ele>437.813</ele>
        <time>2015-08-05T16:51:17Z</time>
      </trkpt>
      <trkpt lat="44.52312" lon="2.82604">
        <ele>437.265</ele>
        <time>2015-08-05T16:51:37Z</time>
      </trkpt>
      <trkpt lat="44.52344" lon="2.82643">
        <ele>443.968</ele>
        <time>2015-08-05T16:51:57Z</time>
      </trkpt>
      <trkpt lat="44.52377" lon="2.82678">
        <ele>450.514</ele>
        <time>2015-08-05T16:52:17Z</time>
      </trkpt>
      <trkpt lat="44.52396" lon="2.82711">
        <ele>455.808</ele>
        <time>2015-08-05T16:52:37Z</time>
      </trkpt>
      <trkpt lat="44.52408" lon="2.8276">
        <ele>461.352</ele>
        <time>2015-08-05T16:52:57Z</time>
      </trkpt>
      <trkpt lat="44.52404" lon="2.82806">
        <ele>466.267</ele>
        <time>2015-08-05T16:53:17Z</time>
      </trkpt>
      <trkpt lat="44.52395" lon="2.82835">
        <ele>465.917</ele>
        <time>2015-08-05T16:53:37Z</time>
      </trkpt>
      <trkpt lat="44.52424" lon="2.82856">
        <ele>471.569</ele>
        <time>2015-08-05T16:53:57Z</time>
      </trkpt>
      <trkpt lat="44.52425" lon="2.82891">
        <ele>473.921</ele>
        <time>2015-08-05T16:54:17Z</time>
      </trkpt>
      <trkpt lat="44.52449" lon="2.83014">
        <ele>485.712</ele>
        <time>2015-08-05T16:54:37Z</time>
      </trkpt>
      <trkpt lat="44.52469" lon="2.83072">
        <ele>491.878</ele>
        <time>2015-08-05T16:54:57Z</time>
      </trkpt>
      <trkpt lat="44.52505" lon="2.83086">
        <ele>499.88</ele>
        <time>2015-08-05T16:55:17Z</time>
      </trkpt>
      <trkpt lat="44.52527" lon="2.83149">
        <ele>504.834</ele>
        <time>2015-08-05T16:55:37Z</time>
      </trkpt>
      <trkpt lat="44.52532" lon="2.83177">
        <ele>505.855</ele>
        <time>2015-08-05T16:55:57Z</time>
      </trkpt>
      <trkpt lat="44.52547" lon="2.83198">
        <ele>507.51</ele>
        <time>2015-08-05T16:56:17Z</time>
      </trkpt>
      <trkpt lat="44.52585" lon="2.83353">
        <ele>515.608</ele>
        <time>2015-08-05T16:56:37Z</time>
      </trkpt>
      <trkpt lat="44.52648" lon="2.83338">
        <ele>517.749</ele>
        <time>2015-08-05T16:56:57Z</time>
      </trkpt>
      <trkpt lat="44.5271" lon="2.83267">
        <ele>517.084</ele>
        <time>2015-08-05T16:57:17Z</time>
      </trkpt>
      <trkpt lat="44.52725" lon="2.83211">
        <ele>519.054</ele>
        <time>2015-08-05T16:57:37Z</time>
      </trkpt>
      <trkpt lat="44.52807" lon="2.83144">
        <ele>515.276</ele>
        <time>2015-08-05T16:57:57Z</time>
      </trkpt>
      <trkpt lat="44.52829" lon="2.83145">
        <ele>515.948</ele>
        <time>2015-08-05T16:58:17Z</time>
      </trkpt>
      <trkpt lat="44.52864" lon="2.83184">
        <ele>517.259</ele>
        <time>2015-08-05T16:58:37Z</time>
      </trkpt>
      <trkpt lat="44.52848" lon="2.83232">
        <ele>518.715</ele>
        <time>2015-08-05T16:58:57Z</time>
      </trkpt>
      <trkpt lat="44.52874" lon="2.83303">
        <ele>515.327</ele>
        <time>2015-08-05T16:59:17Z</time>
      </trkpt>
      <trkpt lat="44.52887" lon="2.83349">
        <ele>508.626</ele>
        <time>2015-08-05T16:59:37Z</time>
      </trkpt>
      <trkpt lat="44.52919" lon="2.83382">
        <ele>508.647</ele>
        <time>2015-08-05T16:59:57Z</time>
      </trkpt>
      <trkpt lat="44.52939" lon="2.83418">
        <ele>504.311</ele>
        <time>2015-08-05T17:00:17Z</time>
      </trkpt>
      <trkpt lat="44.52949" lon="2.83471">
        <ele>498.708</ele>
        <time>2015-08-05T17:00:37Z</time>
      </trkpt>
      <trkpt lat="44.52951" lon="2.83519">
        <ele>500.858</ele>
        <time>2015-08-05T17:00:57Z</time>
      </trkpt>
      <trkpt lat="44.52967" lon="2.83556">
        <ele>499.883</ele>
        <time>2015-08-05T17:01:17Z</time>
      </trkpt>
      <trkpt lat="44.52975" lon="2.83666">
        <ele>492.623</ele>
        <time>2015-08-05T17:01:37Z</time>
      </trkpt>
      <trkpt lat="44.52969" lon="2.83686">
        <ele>490.245</ele>
        <time>2015-08-05T17:01:57Z</time>
      </trkpt>
      <trkpt lat="44.53001" lon="2.83748">
        <ele>491.127</ele>
        <time>2015-08-05T17:02:17Z</time>
      </trkpt>
      <trkpt lat="44.52982" lon="2.83755">
        <ele>490.548</ele>
        <time>2015-08-05T17:02:37Z</time>
      </trkpt>
      <trkpt lat="44.52946" lon="2.83745">
        <ele>487.914</ele>
        <time>2015-08-05T17:02:57Z</time>
      </trkpt>
      <trkpt lat="44.5293" lon="2.83752">
        <ele>488.276</ele>
        <time>2015-08-05T17:03:17Z</time>
      </trkpt>
      <trkpt lat="44.52923" lon="2.83767">
        <ele>489.934</ele>
        <time>2015-08-05T17:03:37Z</time>
      </trkpt>
      <trkpt lat="44.52922" lon="2.83787">
        <ele>492.555</ele>
        <time>2015-08-05T17:03:57Z</time>
      </trkpt>
      <trkpt lat="44.52943" lon="2.83829">
        <ele>499.21</ele>
        <time>2015-08-05T17:04:17Z</time>
      </trkpt>
      <trkpt lat="44.52946" lon="2.83902">
        <ele>504.008</ele>
        <time>2015-08-05T17:04:37Z</time>
      </trkpt>
      <trkpt lat="44.52959" lon="2.83927">
        <ele>504.169</ele>
        <time>2015-08-05T17:04:57Z</time>
      </trkpt>
      <trkpt lat="44.53013" lon="2.83947">
        <ele>509.444</ele>
        <time>2015-08-05T17:05:17Z</time>
      </trkpt>
      <trkpt lat="44.5306" lon="2.83972">
        <ele>513.174</ele>
        <time>2015-08-05T17:05:37Z</time>
      </trkpt>
      <trkpt lat="44.53098" lon="2.84046">
        <ele>518.776</ele>
        <time>2015-08-05T17:05:57Z</time>
      </trkpt>
      <trkpt lat="44.53111" lon="2.8408">
        <ele>521.668</ele>
        <time>2015-08-05T17:06:17Z</time>
      </trkpt>
      <trkpt lat="44.53114" lon="2.8417">
        <ele>517.989</ele>
        <time>2015-08-05T17:06:37Z</time>
      </trkpt>
      <trkpt lat="44.53132" lon="2.84203">
        <ele>516.875</ele>
        <time>2015-08-05T17:06:57Z</time>
      </trkpt>
      <trkpt lat="44.53128" lon="2.84231">
        <ele>512.457</ele>
        <time>2015-08-05T17:07:17Z</time>
      </trkpt>
      <trkpt lat="44.53101" lon="2.84267">
        <ele>507.853</ele>
        <time>2015-08-05T17:07:37Z</time>
      </trkpt>
      <trkpt lat="44.53095" lon="2.84316">
        <ele>501.604</ele>
        <time>2015-08-05T17:07:57Z</time>
      </trkpt>
      <trkpt lat="44.53059" lon="2.84375">
        <ele>495.014</ele>
        <time>2015-08-05T17:08:17Z</time>
      </trkpt>
      <trkpt lat="44.53013" lon="2.84444">
        <ele>480.808</ele>
        <time>2015-08-05T17:08:37Z</time>
      </trkpt>
      <trkpt lat="44.5298" lon="2.84442">
        <ele>482.441</ele>
        <time>2015-08-05T17:08:57Z</time>
      </trkpt>
      <trkpt lat="44.52934" lon="2.84497">
        <ele>466.926</ele>
        <time>2015-08-05T17:09:17Z</time>
      </trkpt>
      <trkpt lat="44.52904" lon="2.84577">
        <ele>456.516</ele>
        <time>2015-08-05T17:09:37Z</time>
      </trkpt>
      <trkpt lat="44.52875" lon="2.8462">
        <ele>452.298</ele>
        <time>2015-08-05T17:09:57Z</time>
      </trkpt>
      <trkpt lat="44.52864" lon="2.84617">
        <ele>450.45</ele>
        <time>2015-08-05T17:10:17Z</time>
      </trkpt>
      <trkpt lat="44.52861" lon="2.84597">
        <ele>450.471</ele>
        <time>2015-08-05T17:10:37Z</time>
      </trkpt>
      <trkpt lat="44.5285" lon="2.84593">
        <ele>449.057</ele>
        <time>2015-08-05T17:10:57Z</time>
      </trkpt>
      <trkpt lat="44.5283" lon="2.84652">
        <ele>443.359</ele>
        <time>2015-08-05T17:11:17Z</time>
      </trkpt>
      <trkpt lat="44.52831" lon="2.8468">
        <ele>441.137</ele>
        <time>2015-08-05T17:11:37Z</time>
      </trkpt>
      <trkpt lat="44.52868" lon="2.84711">
        <ele>438.049</ele>
        <time>2015-08-05T17:11:57Z</time>
      </trkpt>
      <trkpt lat="44.52909" lon="2.84637">
        <ele>446.813</ele>
        <time>2015-08-05T17:12:17Z</time>
      </trkpt>
      <trkpt lat="44.52956" lon="2.84579">
        <ele>447.008</ele>
        <time>2015-08-05T17:12:37Z</time>
      </trkpt>
      <trkpt lat="44.52995" lon="2.84551">
        <ele>453.319</ele>
        <time>2015-08-05T17:12:57Z</time>
      </trkpt>
      <trkpt lat="44.53002" lon="2.84564">
        <ele>452.314</ele>
        <time>2015-08-05T17:13:17Z</time>
      </trkpt>
      <trkpt lat="44.52998" lon="2.84639">
        <ele>431.494</ele>
        <time>2015-08-05T17:13:37Z</time>
      </trkpt>
      <trkpt lat="44.53037" lon="2.84677">
        <ele>431.766</ele>
        <time>2015-08-05T17:13:57Z</time>
      </trkpt>
      <trkpt lat="44.53093" lon="2.84759">
        <ele>431.388</ele>
        <time>2015-08-05T17:14:17Z</time>
      </trkpt>
      <trkpt lat="44.53132" lon="2.84827">
        <ele>422.479</ele>
        <time>2015-08-05T17:14:37Z</time>
      </trkpt>
      <trkpt lat="44.53175" lon="2.84836">
        <ele>427.245</ele>
        <time>2015-08-05T17:14:57Z</time>
      </trkpt>
      <trkpt lat="44.53173" lon="2.84914">
        <ele>429.347</ele>
        <time>2015-08-05T17:15:17Z</time>
      </trkpt>
      <trkpt lat="44.53149" lon="2.84968">
        <ele>429.588</ele>
        <time>2015-08-05T17:15:37Z</time>
      </trkpt>
      <trkpt lat="44.53148" lon="2.85028">
        <ele>438.024</ele>
        <time>2015-08-05T17:15:57Z</time>
      </trkpt>
      <trkpt lat="44.53173" lon="2.85091">
        <ele>447.926</ele>
        <time>2015-08-05T17:16:17Z</time>
      </trkpt>
      <trkpt lat="44.53219" lon="2.85139">
        <ele>452.508</ele>
        <time>2015-08-05T17:16:37Z</time>
      </trkpt>
      <trkpt lat="44.53246" lon="2.8518">
        <ele>455.014</ele>
        <time>2015-08-05T17:16:57Z</time>
      </trkpt>
      <trkpt lat="44.53268" lon="2.85227">
        <ele>453.139</ele>
        <time>2015-08-05T17:17:17Z</time>
      </trkpt>
      <trkpt lat="44.53277" lon="2.85332">
        <ele>465.759</ele>
        <time>2015-08-05T17:17:37Z</time>
      </trkpt>
      <trkpt lat="44.53295" lon="2.85411">
        <ele>471.851</ele>
        <time>2015-08-05T17:17:57Z</time>
      </trkpt>
      <trkpt lat="44.53327" lon="2.85424">
        <ele>468.863</ele>
        <time>2015-08-05T17:18:17Z</time>
      </trkpt>
      <trkpt lat="44.53373" lon="2.85382">
        <ele>463.194</ele>
        <time>2015-08-05T17:18:37Z</time>
      </trkpt>
      <trkpt lat="44.53372" lon="2.85349">
        <ele>463.03</ele>
        <time>2015-08-05T17:18:57Z</time>
      </trkpt>
      <trkpt lat="44.53358" lon="2.8533">
        <ele>460.642</ele>
        <time>2015-08-05T17:19:17Z</time>
      </trkpt>
      <trkpt lat="44.53373" lon="2.85281">
        <ele>471.256</ele>
        <time>2015-08-05T17:19:37Z</time>
      </trkpt>
      <trkpt lat="44.53354" lon="2.8523">
        <ele>472.659</ele>
        <time>2015-08-05T17:19:57Z</time>
      </trkpt>
      <trkpt lat="44.53346" lon="2.85173">
        <ele>480.814</ele>
        <time>2015-08-05T17:20:17Z</time>
      </trkpt>
      <trkpt lat="44.5338" lon="2.85175">
        <ele>492.908</ele>
        <time>2015-08-05T17:20:37Z</time>
      </trkpt>
      <trkpt lat="44.53376" lon="2.85157">
        <ele>496.091</ele>
        <time>2015-08-05T17:20:57Z</time>
      </trkpt>
      <trkpt lat="44.53338" lon="2.85086">
        <ele>501.286</ele>
        <time>2015-08-05T17:21:17Z</time>
      </trkpt>
      <trkpt lat="44.53324" lon="2.85022">
        <ele>503.946</ele>
        <time>2015-08-05T17:21:37Z</time>
      </trkpt>
      <trkpt lat="44.53333" lon="2.84963">
        <ele>507.018</ele>
        <time>2015-08-05T17:21:57Z</time>
      </trkpt>
      <trkpt lat="44.5337" lon="2.84919">
        <ele>518.62</ele>
        <time>2015-08-05T17:22:17Z</time>
      </trkpt>
      <trkpt lat="44.53373" lon="2.84927">
        <ele>521.041</ele>
        <time>2015-08-05T17:22:37Z</time>
      </trkpt>
      <trkpt lat="44.53372" lon="2.84961">
        <ele>524.147</ele>
        <time>2015-08-05T17:22:57Z</time>
      </trkpt>
      <trkpt lat="44.53379" lon="2.8497">
        <ele>528.049</ele>
        <time>2015-08-05T17:23:17Z</time>
      </trkpt>
      <trkpt lat="44.53409" lon="2.84932">
        <ele>535.034</ele>
        <time>2015-08-05T17:23:37Z</time>
      </trkpt>
      <trkpt lat="44.53431" lon="2.8492">
        <ele>540.255</ele>
        <time>2015-08-05T17:23:57Z</time>
      </trkpt>
      <trkpt lat="44.53444" lon="2.84925">
        <ele>543.41</ele>
        <time>2015-08-05T17:24:17Z</time>
      </trkpt>
      <trkpt lat="44.53445" lon="2.84962">
        <ele>545.008</ele>
        <time>2015-08-05T17:24:37Z</time>
      </trkpt>
      <trkpt lat="44.53468" lon="2.84983">
        <ele>547.079</ele>
        <time>2015-08-05T17:24:57Z</time>
      </trkpt>
      <trkpt lat="44.53496" lon="2.84994">
        <ele>552.454</ele>
        <time>2015-08-05T17:25:17Z</time>
      </trkpt>
      <trkpt lat="44.53549" lon="2.85">
        <ele>560.044</ele>
        <time>2015-08-05T17:25:37Z</time>
      </trkpt>
      <trkpt lat="44.53567" lon="2.85017">
        <ele>565.456</ele>
        <time>2015-08-05T17:25:57Z</time>
      </trkpt>
      <trkpt lat="44.53563" lon="2.85095">
        <ele>574.028</ele>
        <time>2015-08-05T17:26:17Z</time>
      </trkpt>
      <trkpt lat="44.53578" lon="2.85133">
        <ele>582.619</ele>
        <time>2015-08-05T17:26:37Z</time>
      </trkpt>
      <trkpt lat="44.53606" lon="2.85169">
        <ele>588.295</ele>
        <time>2015-08-05T17:26:57Z</time>
      </trkpt>
      <trkpt lat="44.53609" lon="2.85147">
        <ele>589.347</ele>
        <time>2015-08-05T17:27:17Z</time>
      </trkpt>
      <trkpt lat="44.53627" lon="2.85125">
        <ele>589.021</ele>
        <time>2015-08-05T17:27:37Z</time>
      </trkpt>
      <trkpt lat="44.53647" lon="2.85122">
        <ele>589.741</ele>
        <time>2015-08-05T17:27:57Z</time>
      </trkpt>
      <trkpt lat="44.53701" lon="2.85164">
        <ele>600.305</ele>
        <time>2015-08-05T17:28:17Z</time>
      </trkpt>
      <trkpt lat="44.53732" lon="2.85205">
        <ele>606.508</ele>
        <time>2015-08-05T17:28:37Z</time>
      </trkpt>
      <trkpt lat="44.53783" lon="2.85249">
        <ele>613.798</ele>
        <time>2015-08-05T17:28:57Z</time>
      </trkpt>
      <trkpt lat="44.53833" lon="2.85296">
        <ele>622.923</ele>
        <time>2015-08-05T17:29:17Z</time>
      </trkpt>
      <trkpt lat="44.53941" lon="2.85324">
        <ele>633.113</ele>
        <time>2015-08-05T17:29:37Z</time>
      </trkpt>
      <trkpt lat="44.54013" lon="2.85382">
        <ele>650.075</ele>
        <time>2015-08-05T17:29:57Z</time>
      </trkpt>
      <trkpt lat="44.54028" lon="2.85421">
        <ele>653.867</ele>
        <time>2015-08-05T17:30:17Z</time>
      </trkpt>
      <trkpt lat="44.54078" lon="2.85475">
        <ele>662.958</ele>
        <time>2015-08-05T17:30:37Z</time>
      </trkpt>
      <trkpt lat="44.54154" lon="2.85533">
        <ele>675.054</ele>
        <time>2015-08-05T17:30:57Z</time>
      </trkpt>
      <trkpt lat="44.54179" lon="2.85543">
        <ele>677.456</ele>
        <time>2015-08-05T17:31:17Z</time>
      </trkpt>
      <trkpt lat="44.54188" lon="2.8556">
        <ele>677.343</ele>
        <time>2015-08-05T17:31:37Z</time>
      </trkpt>
      <trkpt lat="44.54196" lon="2.85607">
        <ele>674.564</ele>
        <time>2015-08-05T17:31:57Z</time>
      </trkpt>
      <trkpt lat="44.54203" lon="2.85634">
        <ele>674.51</ele>
        <time>2015-08-05T17:32:17Z</time>
      </trkpt>
      <trkpt lat="44.54244" lon="2.85689">
        <ele>678.808</ele>
        <time>2015-08-05T17:32:37Z</time>
      </trkpt>
      <trkpt lat="44.54311" lon="2.85806">
        <ele>685.38</ele>
        <time>2015-08-05T17:32:57Z</time>
      </trkpt>
      <trkpt lat="44.54356" lon="2.85876">
        <ele>691.145</ele>
        <time>2015-08-05T17:33:17Z</time>
      </trkpt>
      <trkpt lat="44.5441" lon="2.85924">
        <ele>701.645</ele>
        <time>2015-08-05T17:33:37Z</time>
      </trkpt>
      <trkpt lat="44.54487" lon="2.85944">
        <ele>709.117</ele>
        <time>2015-08-05T17:33:57Z</time>
      </trkpt>
      <trkpt lat="44.54546" lon="2.8594">
        <ele>710.839</ele>
        <time>2015-08-05T17:34:17Z</time>
      </trkpt>
      <trkpt lat="44.54588" lon="2.85953">
        <ele>712.04</ele>
        <time>2015-08-05T17:34:37Z</time>
      </trkpt>
      <trkpt lat="44.54669" lon="2.85974">
        <ele>711.986</ele>
        <time>2015-08-05T17:34:57Z</time>
      </trkpt>
      <trkpt lat="44.54695" lon="2.86035">
        <ele>710.888</ele>
        <time>2015-08-05T17:35:17Z</time>
      </trkpt>
      <trkpt lat="44.54716" lon="2.86068">
        <ele>711.319</ele>
        <time>2015-08-05T17:35:37Z</time>
      </trkpt>
      <trkpt lat="44.54748" lon="2.86099">
        <ele>717.309</ele>
        <time>2015-08-05T17:35:57Z</time>
      </trkpt>
      <trkpt lat="44.54768" lon="2.86152">
        <ele>724.419</ele>
        <time>2015-08-05T17:36:17Z</time>
      </trkpt>
      <trkpt lat="44.54801" lon="2.86211">
        <ele>730.908</ele>
        <time>2015-08-05T17:36:37Z</time>
      </trkpt>
      <trkpt lat="44.54864" lon="2.86288">
        <ele>742.877</ele>
        <time>2015-08-05T17:36:57Z</time>
      </trkpt>
      <trkpt lat="44.54917" lon="2.86317">
        <ele>751.432</ele>
        <time>2015-08-05T17:37:17Z</time>
      </trkpt>
      <trkpt lat="44.54985" lon="2.86339">
        <ele>757.882</ele>
        <time>2015-08-05T17:37:37Z</time>
      </trkpt>
      <trkpt lat="44.5502" lon="2.86373">
        <ele>761.364</ele>
        <time>2015-08-05T17:37:57Z</time>
      </trkpt>
      <trkpt lat="44.55054" lon="2.86414">
        <ele>769.586</ele>
        <time>2015-08-05T17:38:17Z</time>
      </trkpt>
      <trkpt lat="44.55098" lon="2.86448">
        <ele>771.087</ele>
        <time>2015-08-05T17:38:37Z</time>
      </trkpt>
      <trkpt lat="44.55231" lon="2.86477">
        <ele>773.213</ele>
        <time>2015-08-05T17:38:57Z</time>
      </trkpt>
      <trkpt lat="44.55256" lon="2.86515">
        <ele>772.635</ele>
        <time>2015-08-05T17:39:17Z</time>
      </trkpt>
      <trkpt lat="44.55288" lon="2.86536">
        <ele>775.375</ele>
        <time>2015-08-05T17:39:37Z</time>
      </trkpt>
      <trkpt lat="44.55352" lon="2.8655">
        <ele>784.928</ele>
        <time>2015-08-05T17:39:57Z</time>
      </trkpt>
      <trkpt lat="44.55438" lon="2.86558">
        <ele>797.82</ele>
        <time>2015-08-05T17:40:17Z</time>
      </trkpt>
      <trkpt lat="44.55445" lon="2.86528">
        <ele>797.008</ele>
        <time>2015-08-05T17:40:37Z</time>
      </trkpt>
      <trkpt lat="44.55453" lon="2.86519">
        <ele>796.513</ele>
        <time>2015-08-05T17:40:57Z</time>
      </trkpt>
      <trkpt lat="44.55461" lon="2.86553">
        <ele>797.448</ele>
        <time>2015-08-05T17:41:17Z</time>
      </trkpt>
      <trkpt lat="44.55513" lon="2.86591">
        <ele>802.898</ele>
        <time>2015-08-05T17:41:37Z</time>
      </trkpt>
      <trkpt lat="44.55574" lon="2.86664">
        <ele>809.51</ele>
        <time>2015-08-05T17:41:57Z</time>
      </trkpt>
      <trkpt lat="44.55623" lon="2.867">
        <ele>815.422</ele>
        <time>2015-08-05T17:42:17Z</time>
      </trkpt>
      <trkpt lat="44.55671" lon="2.86744">
        <ele>818.943</ele>
        <time>2015-08-05T17:42:37Z</time>
      </trkpt>
      <trkpt lat="44.55682" lon="2.86771">
        <ele>819.649</ele>
        <time>2015-08-05T17:42:57Z</time>
      </trkpt>
      <trkpt lat="44.55737" lon="2.86845">
        <ele>825.931</ele>
        <time>2015-08-05T17:43:17Z</time>
      </trkpt>
      <trkpt lat="44.55846" lon="2.8706">
        <ele>826.479</ele>
        <time>2015-08-05T17:43:37Z</time>
      </trkpt>
      <trkpt lat="44.55861" lon="2.87113">
        <ele>824.905</ele>
        <time>2015-08-05T17:43:57Z</time>
      </trkpt>
      <trkpt lat="44.55869" lon="2.87167">
        <ele>825.325</ele>
        <time>2015-08-05T17:44:17Z</time>
      </trkpt>
      <trkpt lat="44.55872" lon="2.87236">
        <ele>826.208</ele>
        <time>2015-08-05T17:44:37Z</time>
      </trkpt>
      <trkpt lat="44.55864" lon="2.87314">
        <ele>824.753</ele>
        <time>2015-08-05T17:44:57Z</time>
      </trkpt>
      <trkpt lat="44.55868" lon="2.87365">
        <ele>826.618</ele>
        <time>2015-08-05T17:45:17Z</time>
      </trkpt>
      <trkpt lat="44.559" lon="2.87345">
        <ele>828.928</ele>
        <time>2015-08-05T17:45:37Z</time>
      </trkpt>
      <trkpt lat="44.55953" lon="2.87327">
        <ele>833.19</ele>
        <time>2015-08-05T17:45:57Z</time>
      </trkpt>
      <trkpt lat="44.5601" lon="2.8742">
        <ele>836.442</ele>
        <time>2015-08-05T17:46:17Z</time>
      </trkpt>
      <trkpt lat="44.56063" lon="2.87534">
        <ele>842.913</ele>
        <time>2015-08-05T17:46:37Z</time>
      </trkpt>
      <trkpt lat="44.5608" lon="2.87609">
        <ele>844.639</ele>
        <time>2015-08-05T17:46:57Z</time>
      </trkpt>
      <trkpt lat="44.56082" lon="2.87706">
        <ele>847.571</ele>
        <time>2015-08-05T17:47:17Z</time>
      </trkpt>
      <trkpt lat="44.56077" lon="2.87858">
        <ele>848.594</ele>
        <time>2015-08-05T17:47:37Z</time>
      </trkpt>
      <trkpt lat="44.56079" lon="2.87918">
        <ele>849.957</ele>
        <time>2015-08-05T17:47:57Z</time>
      </trkpt>
      <trkpt lat="44.56069" lon="2.8798">
        <ele>851.822</ele>
        <time>2015-08-05T17:48:17Z</time>
      </trkpt>
      <trkpt lat="44.55989" lon="2.88388">
        <ele>864.808</ele>
        <time>2015-08-05T17:48:37Z</time>
      </trkpt>
      <trkpt lat="44.55948" lon="2.88496">
        <ele>863.625</ele>
        <time>2015-08-05T17:48:57Z</time>
      </trkpt>
      <trkpt lat="44.55938" lon="2.88548">
        <ele>864.27</ele>
        <time>2015-08-05T17:49:17Z</time>
      </trkpt>
      <trkpt lat="44.55948" lon="2.88599">
        <ele>860.66</ele>
        <time>2015-08-05T17:49:37Z</time>
      </trkpt>
      <trkpt lat="44.55959" lon="2.88635">
        <ele>859.152</ele>
        <time>2015-08-05T17:49:57Z</time>
      </trkpt>
      <trkpt lat="44.55986" lon="2.88674">
        <ele>858.584</ele>
        <time>2015-08-05T17:50:17Z</time>
      </trkpt>
      <trkpt lat="44.56111" lon="2.88746">
        <ele>858.845</ele>
        <time>2015-08-05T17:50:37Z</time>
      </trkpt>
      <trkpt lat="44.5619" lon="2.88803">
        <ele>861.751</ele>
        <time>2015-08-05T17:50:57Z</time>
      </trkpt>
      <trkpt lat="44.5624" lon="2.88866">
        <ele>865.483</ele>
        <time>2015-08-05T17:51:17Z</time>
      </trkpt>
      <trkpt lat="44.56314" lon="2.88996">
        <ele>876.029</ele>
        <time>2015-08-05T17:51:37Z</time>
      </trkpt>
      <trkpt lat="44.5638" lon="2.8916">
        <ele>879.4</ele>
        <time>2015-08-05T17:51:57Z</time>
      </trkpt>
      <trkpt lat="44.56411" lon="2.89283">
        <ele>884.42</ele>
        <time>2015-08-05T17:52:17Z</time>
      </trkpt>
      <trkpt lat="44.56442" lon="2.89387">
        <ele>887.908</ele>
        <time>2015-08-05T17:52:37Z</time>
      </trkpt>
      <trkpt lat="44.56521" lon="2.89514">
        <ele>891.278</ele>
        <time>2015-08-05T17:52:57Z</time>
      </trkpt>
      <trkpt lat="44.56658" lon="2.89688">
        <ele>902.813</ele>
        <time>2015-08-05T17:53:17Z</time>
      </trkpt>
      <trkpt lat="44.56687" lon="2.89755">
        <ele>906.553</ele>
        <time>2015-08-05T17:53:37Z</time>
      </trkpt>
      <trkpt lat="44.56742" lon="2.89833">
        <ele>901.375</ele>
        <time>2015-08-05T17:53:57Z</time>
      </trkpt>
      <trkpt lat="44.56796" lon="2.8994">
        <ele>903.097</ele>
        <time>2015-08-05T17:54:17Z</time>
      </trkpt>
      <trkpt lat="44.56849" lon="2.89989">
        <ele>904.068</ele>
        <time>2015-08-05T17:54:37Z</time>
      </trkpt>
      <trkpt lat="44.56886" lon="2.90043">
        <ele>906.484</ele>
        <time>2015-08-05T17:54:57Z</time>
      </trkpt>
      <trkpt lat="44.56923" lon="2.90064">
        <ele>904.846</ele>
        <time>2015-08-05T17:55:17Z</time>
      </trkpt>
      <trkpt lat="44.56986" lon="2.90055">
        <ele>900.018</ele>
        <time>2015-08-05T17:55:37Z</time>
      </trkpt>
      <trkpt lat="44.57026" lon="2.90179">
        <ele>903.198</ele>
        <time>2015-08-05T17:55:57Z</time>
      </trkpt>
      <trkpt lat="44.57024" lon="2.90208">
        <ele>905.517</ele>
        <time>2015-08-05T17:56:17Z</time>
      </trkpt>
      <trkpt lat="44.57064" lon="2.90261">
        <ele>902.708</ele>
        <time>2015-08-05T17:56:37Z</time>
      </trkpt>
      <trkpt lat="44.571" lon="2.90334">
        <ele>904.737</ele>
        <time>2015-08-05T17:56:57Z</time>
      </trkpt>
      <trkpt lat="44.57114" lon="2.90388">
        <ele>909.652</ele>
        <time>2015-08-05T17:57:17Z</time>
      </trkpt>
      <trkpt lat="44.57149" lon="2.90463">
        <ele>911.032</ele>
        <time>2015-08-05T17:57:37Z</time>
      </trkpt>
      <trkpt lat="44.57183" lon="2.90483">
        <ele>911.834</ele>
        <time>2015-08-05T17:57:57Z</time>
      </trkpt>
      <trkpt lat="44.57191" lon="2.90467">
        <ele>909.536</ele>
        <time>2015-08-05T17:58:17Z</time>
      </trkpt>
      <trkpt lat="44.57216" lon="2.90464">
        <ele>910.697</ele>
        <time>2015-08-05T17:58:37Z</time>
      </trkpt>
      <trkpt lat="44.57268" lon="2.90374">
        <ele>912.733</ele>
        <time>2015-08-05T17:58:57Z</time>
      </trkpt>
      <trkpt lat="44.57291" lon="2.90437">
        <ele>916.775</ele>
        <time>2015-08-05T17:59:17Z</time>
      </trkpt>
      <trkpt lat="44.57332" lon="2.90461">
        <ele>919.222</ele>
        <time>2015-08-05T17:59:37Z</time>
      </trkpt>
      <trkpt lat="44.57413" lon="2.90533">
        <ele>921.862</ele>
        <time>2015-08-05T17:59:57Z</time>
      </trkpt>
      <trkpt lat="44.57474" lon="2.90555">
        <ele>921.708</ele>
        <time>2015-08-05T18:00:17Z</time>
      </trkpt>
      <trkpt lat="44.57526" lon="2.90605">
        <ele>923.608</ele>
        <time>2015-08-05T18:00:37Z</time>
      </trkpt>
      <trkpt lat="44.57542" lon="2.9065">
        <ele>923.258</ele>
        <time>2015-08-05T18:00:57Z</time>
      </trkpt>
      <trkpt lat="44.57565" lon="2.90631">
        <ele>920.163</ele>
        <time>2015-08-05T18:01:17Z</time>
      </trkpt>
      <trkpt lat="44.57589" lon="2.90629">
        <ele>916.533</ele>
        <time>2015-08-05T18:01:37Z</time>
      </trkpt>
      <trkpt lat="44.57615" lon="2.90778">
        <ele>904.675</ele>
        <time>2015-08-05T18:01:57Z</time>
      </trkpt>
      <trkpt lat="44.57607" lon="2.90816">
        <ele>903.137</ele>
        <time>2015-08-05T18:02:17Z</time>
      </trkpt>
      <trkpt lat="44.57605" lon="2.90939">
        <ele>892.548</ele>
        <time>2015-08-05T18:02:37Z</time>
      </trkpt>
      <trkpt lat="44.57599" lon="2.90997">
        <ele>887.944</ele>
        <time>2015-08-05T18:02:57Z</time>
      </trkpt>
      <trkpt lat="44.57581" lon="2.91037">
        <ele>896.996</ele>
        <time>2015-08-05T18:03:17Z</time>
      </trkpt>
      <trkpt lat="44.57583" lon="2.91059">
        <ele>902.075</ele>
        <time>2015-08-05T18:03:37Z</time>
      </trkpt>
      <trkpt lat="44.57629" lon="2.91092">
        <ele>895.528</ele>
        <time>2015-08-05T18:03:57Z</time>
      </trkpt>
      <trkpt lat="44.57647" lon="2.91117">
        <ele>895.52</ele>
        <time>2015-08-05T18:04:17Z</time>
      </trkpt>
      <trkpt lat="44.57672" lon="2.91137">
        <ele>891.408</ele>
        <time>2015-08-05T18:04:37Z</time>
      </trkpt>
      <trkpt lat="44.57713" lon="2.9118">
        <ele>886.873</ele>
        <time>2015-08-05T18:04:57Z</time>
      </trkpt>
      <trkpt lat="44.57747" lon="2.91235">
        <ele>888.048</ele>
        <time>2015-08-05T18:05:17Z</time>
      </trkpt>
      <trkpt lat="44.57765" lon="2.91283">
        <ele>890.538</ele>
        <time>2015-08-05T18:05:37Z</time>
      </trkpt>
      <trkpt lat="44.5781" lon="2.91319">
        <ele>878.31</ele>
        <time>2015-08-05T18:05:57Z</time>
      </trkpt>
      <trkpt lat="44.57818" lon="2.91373">
        <ele>883.042</ele>
        <time>2015-08-05T18:06:17Z</time>
      </trkpt>
      <trkpt lat="44.5784" lon="2.91428">
        <ele>873.993</ele>
        <time>2015-08-05T18:06:37Z</time>
      </trkpt>
      <trkpt lat="44.57831" lon="2.91544">
        <ele>877.589</ele>
        <time>2015-08-05T18:06:57Z</time>
      </trkpt>
      <trkpt lat="44.57829" lon="2.91621">
        <ele>873.391</ele>
        <time>2015-08-05T18:07:17Z</time>
      </trkpt>
      <trkpt lat="44.57814" lon="2.91756">
        <ele>871.091</ele>
        <time>2015-08-05T18:07:37Z</time>
      </trkpt>
      <trkpt lat="44.5779" lon="2.91828">
        <ele>878.281</ele>
        <time>2015-08-05T18:07:57Z</time>
      </trkpt>
      <trkpt lat="44.5779" lon="2.91863">
        <ele>878.119</ele>
        <time>2015-08-05T18:08:17Z</time>
      </trkpt>
      <trkpt lat="44.57808" lon="2.91875">
        <ele>875.008</ele>
        <time>2015-08-05T18:08:37Z</time>
      </trkpt>
      <trkpt lat="44.5787" lon="2.91863">
        <ele>877.065</ele>
        <time>2015-08-05T18:08:57Z</time>
      </trkpt>
      <trkpt lat="44.57898" lon="2.91831">
        <ele>873.23</ele>
        <time>2015-08-05T18:09:17Z</time>
      </trkpt>
      <trkpt lat="44.57958" lon="2.91817">
        <ele>877.41</ele>
        <time>2015-08-05T18:09:37Z</time>
      </trkpt>
      <trkpt lat="44.58017" lon="2.91794">
        <ele>878.592</ele>
        <time>2015-08-05T18:09:57Z</time>
      </trkpt>
      <trkpt lat="44.58104" lon="2.91777">
        <ele>876.624</ele>
        <time>2015-08-05T18:10:17Z</time>
      </trkpt>
      <trkpt lat="44.5818" lon="2.91819">
        <ele>884.415</ele>
        <time>2015-08-05T18:10:37Z</time>
      </trkpt>
      <trkpt lat="44.58308" lon="2.91866">
        <ele>873.731</ele>
        <time>2015-08-05T18:10:57Z</time>
      </trkpt>
      <trkpt lat="44.58381" lon="2.91927">
        <ele>878.223</ele>
        <time>2015-08-05T18:11:17Z</time>
      </trkpt>
      <trkpt lat="44.58573" lon="2.91973">
        <ele>857.484</ele>
        <time>2015-08-05T18:11:37Z</time>
      </trkpt>
      <trkpt lat="44.58625" lon="2.92047">
        <ele>855.007</ele>
        <time>2015-08-05T18:11:57Z</time>
      </trkpt>
      <trkpt lat="44.58669" lon="2.92085">
        <ele>850.017</ele>
        <time>2015-08-05T18:12:17Z</time>
      </trkpt>
      <trkpt lat="44.58648" lon="2.9203">
        <ele>842.108</ele>
        <time>2015-08-05T18:12:37Z</time>
      </trkpt>
      <trkpt lat="44.58656" lon="2.92027">
        <ele>838.794</ele>
        <time>2015-08-05T18:12:57Z</time>
      </trkpt>
      <trkpt lat="44.58687" lon="2.92069">
        <ele>840.829</ele>
        <time>2015-08-05T18:13:17Z</time>
      </trkpt>
      <trkpt lat="44.58727" lon="2.9209">
        <ele>834.349</ele>
        <time>2015-08-05T18:13:37Z</time>
      </trkpt>
      <trkpt lat="44.58738" lon="2.92106">
        <ele>833.491</ele>
        <time>2015-08-05T18:13:57Z</time>
      </trkpt>
      <trkpt lat="44.58747" lon="2.92133">
        <ele>837.273</ele>
        <time>2015-08-05T18:14:17Z</time>
      </trkpt>
      <trkpt lat="44.58815" lon="2.92191">
        <ele>818.424</ele>
        <time>2015-08-05T18:14:37Z</time>
      </trkpt>
      <trkpt lat="44.58847" lon="2.92207">
        <ele>811.98</ele>
        <time>2015-08-05T18:14:57Z</time>
      </trkpt>
      <trkpt lat="44.58872" lon="2.92226">
        <ele>806.182</ele>
        <time>2015-08-05T18:15:17Z</time>
      </trkpt>
      <trkpt lat="44.58862" lon="2.92197">
        <ele>809.3</ele>
      </trkpt>
      <trkpt lat="44.58883" lon="2.92217">
        <ele>807.3</ele>
      </trkpt>
      <trkpt lat="44.58892" lon="2.92219">
        <ele>805.1</ele>
      </trkpt>
      <trkpt lat="44.58892" lon="2.92207">
        <ele>803.7</ele>
      </trkpt>
      <trkpt lat="44.58885" lon="2.92164">
        <ele>800.3</ele>
      </trkpt>
      <trkpt lat="44.58906" lon="2.92137">
        <ele>796.3</ele>
      </trkpt>
      <trkpt lat="44.58949" lon="2.92152">
        <ele>799.2</ele>
      </trkpt>
      <trkpt lat="44.58971" lon="2.92129">
        <ele>802.6</ele>
      </trkpt>
      <trkpt lat="44.58982" lon="2.92137">
        <ele>804</ele>
      </trkpt>
      <trkpt lat="44.59016" lon="2.92116">
        <ele>811</ele>
      </trkpt>
      <trkpt lat="44.59038" lon="2.92112">
        <ele>816.1</ele>
      </trkpt>
      <trkpt lat="44.59041" lon="2.92139">
        <ele>814.8</ele>
      </trkpt>
    </trkseg>
  </trk>
  <trk>
    <name><![CDATA[Refuge de Rajas]]></name>
    <extensions>
      <line xmlns="http://www.topografix.com/GPX/gpx_style/0/2">
        <color>ff0040</color>
        <width>4</width>
      </line>
    </extensions>
    <trkseg>
      <trkpt lat="44.59038" lon="2.92135">
        <ele>814.6</ele>
      </trkpt>
      <trkpt lat="44.59038" lon="2.92135">
        <ele>814.6</ele>
      </trkpt>
      <trkpt lat="44.59038" lon="2.92135">
        <ele>814.6</ele>
      </trkpt>
      <trkpt lat="44.59038" lon="2.92135">
        <ele>814.6</ele>
      </trkpt>
      <trkpt lat="44.59035" lon="2.92108">
        <ele>815.7</ele>
      </trkpt>
      <trkpt lat="44.59016" lon="2.92112">
        <ele>811.2</ele>
      </trkpt>
      <trkpt lat="44.58995" lon="2.92136">
        <ele>805.8</ele>
      </trkpt>
      <trkpt lat="44.58981" lon="2.92139">
        <ele>803.7</ele>
      </trkpt>
      <trkpt lat="44.5897" lon="2.92129">
        <ele>802.5</ele>
      </trkpt>
      <trkpt lat="44.58959" lon="2.92147">
        <ele>800.5</ele>
      </trkpt>
      <trkpt lat="44.58948" lon="2.92153">
        <ele>799</ele>
      </trkpt>
      <trkpt lat="44.58905" lon="2.9214">
        <ele>796.4</ele>
      </trkpt>
      <trkpt lat="44.58883" lon="2.92164">
        <ele>800.5</ele>
      </trkpt>
      <trkpt lat="44.58891" lon="2.92205">
        <ele>803.7</ele>
      </trkpt>
      <trkpt lat="44.58891" lon="2.92217">
        <ele>805.2</ele>
      </trkpt>
      <trkpt lat="44.58883" lon="2.92214">
        <ele>806.8</ele>
      </trkpt>
      <trkpt lat="44.58859" lon="2.92194">
        <ele>809.3</ele>
      </trkpt>
      <trkpt lat="44.58872" lon="2.92226">
        <ele>806.178</ele>
        <time>2015-08-05T18:15:17Z</time>
      </trkpt>
      <trkpt lat="44.58876" lon="2.92272">
        <ele>815.326</ele>
        <time>2015-08-05T18:15:37Z</time>
      </trkpt>
      <trkpt lat="44.58908" lon="2.92383">
        <ele>829.059</ele>
        <time>2015-08-05T18:15:57Z</time>
      </trkpt>
      <trkpt lat="44.58911" lon="2.92416">
        <ele>837.303</ele>
        <time>2015-08-05T18:16:17Z</time>
      </trkpt>
      <trkpt lat="44.58927" lon="2.92452">
        <ele>836.923</ele>
        <time>2015-08-05T18:16:37Z</time>
      </trkpt>
      <trkpt lat="44.58946" lon="2.92579">
        <ele>847.408</ele>
        <time>2015-08-05T18:16:57Z</time>
      </trkpt>
      <trkpt lat="44.58959" lon="2.9262">
        <ele>846.911</ele>
        <time>2015-08-05T18:17:17Z</time>
      </trkpt>
      <trkpt lat="44.58965" lon="2.92672">
        <ele>849.826</ele>
        <time>2015-08-05T18:17:37Z</time>
      </trkpt>
      <trkpt lat="44.58963" lon="2.92852">
        <ele>867.846</ele>
        <time>2015-08-05T18:17:57Z</time>
      </trkpt>
      <trkpt lat="44.5899" lon="2.92912">
        <ele>863.713</ele>
        <time>2015-08-05T18:18:17Z</time>
      </trkpt>
      <trkpt lat="44.58992" lon="2.92945">
        <ele>867.013</ele>
        <time>2015-08-05T18:18:37Z</time>
      </trkpt>
      <trkpt lat="44.58977" lon="2.93038">
        <ele>869.967</ele>
        <time>2015-08-05T18:18:57Z</time>
      </trkpt>
      <trkpt lat="44.5898" lon="2.93095">
        <ele>869.384</ele>
        <time>2015-08-05T18:19:17Z</time>
      </trkpt>
      <trkpt lat="44.58979" lon="2.93212">
        <ele>877.862</ele>
        <time>2015-08-05T18:19:37Z</time>
      </trkpt>
      <trkpt lat="44.59005" lon="2.93324">
        <ele>891.724</ele>
        <time>2015-08-05T18:19:57Z</time>
      </trkpt>
      <trkpt lat="44.59022" lon="2.9351">
        <ele>897.204</ele>
        <time>2015-08-05T18:20:17Z</time>
      </trkpt>
      <trkpt lat="44.5904" lon="2.9358">
        <ele>904.014</ele>
        <time>2015-08-05T18:20:37Z</time>
      </trkpt>
      <trkpt lat="44.59055" lon="2.93611">
        <ele>907.008</ele>
        <time>2015-08-05T18:20:57Z</time>
      </trkpt>
      <trkpt lat="44.59058" lon="2.93665">
        <ele>912.238</ele>
        <time>2015-08-05T18:21:17Z</time>
      </trkpt>
      <trkpt lat="44.59038" lon="2.93805">
        <ele>934.123</ele>
        <time>2015-08-05T18:21:37Z</time>
      </trkpt>
      <trkpt lat="44.59037" lon="2.9384">
        <ele>938.683</ele>
        <time>2015-08-05T18:21:57Z</time>
      </trkpt>
      <trkpt lat="44.59031" lon="2.93869">
        <ele>945.34</ele>
        <time>2015-08-05T18:22:17Z</time>
      </trkpt>
      <trkpt lat="44.59025" lon="2.94016">
        <ele>964.21</ele>
        <time>2015-08-05T18:22:37Z</time>
      </trkpt>
      <trkpt lat="44.58975" lon="2.94123">
        <ele>981.854</ele>
        <time>2015-08-05T18:22:57Z</time>
      </trkpt>
      <trkpt lat="44.58935" lon="2.94241">
        <ele>997.351</ele>
        <time>2015-08-05T18:23:17Z</time>
      </trkpt>
      <trkpt lat="44.58913" lon="2.9432">
        <ele>1008.999</ele>
        <time>2015-08-05T18:23:37Z</time>
      </trkpt>
      <trkpt lat="44.58912" lon="2.9442">
        <ele>1011.935</ele>
        <time>2015-08-05T18:23:57Z</time>
      </trkpt>
      <trkpt lat="44.58921" lon="2.94446">
        <ele>1011.286</ele>
        <time>2015-08-05T18:24:17Z</time>
      </trkpt>
      <trkpt lat="44.58937" lon="2.94538">
        <ele>1018.414</ele>
        <time>2015-08-05T18:24:37Z</time>
      </trkpt>
      <trkpt lat="44.58967" lon="2.94616">
        <ele>1016.408</ele>
        <time>2015-08-05T18:24:57Z</time>
      </trkpt>
      <trkpt lat="44.58993" lon="2.94643">
        <ele>1016.319</ele>
        <time>2015-08-05T18:25:17Z</time>
      </trkpt>
      <trkpt lat="44.59016" lon="2.94684">
        <ele>1022.164</ele>
        <time>2015-08-05T18:25:37Z</time>
      </trkpt>
      <trkpt lat="44.59001" lon="2.94727">
        <ele>1031.524</ele>
        <time>2015-08-05T18:25:57Z</time>
      </trkpt>
      <trkpt lat="44.58963" lon="2.94748">
        <ele>1046.861</ele>
        <time>2015-08-05T18:26:17Z</time>
      </trkpt>
      <trkpt lat="44.58933" lon="2.9473">
        <ele>1050.711</ele>
        <time>2015-08-05T18:26:37Z</time>
      </trkpt>
      <trkpt lat="44.58863" lon="2.94717">
        <ele>1069.525</ele>
        <time>2015-08-05T18:26:57Z</time>
      </trkpt>
      <trkpt lat="44.58843" lon="2.94725">
        <ele>1072.122</ele>
        <time>2015-08-05T18:27:17Z</time>
      </trkpt>
      <trkpt lat="44.58834" lon="2.94803">
        <ele>1078.71</ele>
        <time>2015-08-05T18:27:37Z</time>
      </trkpt>
      <trkpt lat="44.5881" lon="2.94846">
        <ele>1078.423</ele>
        <time>2015-08-05T18:27:57Z</time>
      </trkpt>
      <trkpt lat="44.58781" lon="2.94874">
        <ele>1079.483</ele>
        <time>2015-08-05T18:28:17Z</time>
      </trkpt>
      <trkpt lat="44.58744" lon="2.9486">
        <ele>1082.311</ele>
        <time>2015-08-05T18:28:37Z</time>
      </trkpt>
      <trkpt lat="44.58705" lon="2.94868">
        <ele>1085.108</ele>
        <time>2015-08-05T18:28:57Z</time>
      </trkpt>
      <trkpt lat="44.58671" lon="2.949">
        <ele>1090.188</ele>
        <time>2015-08-05T18:29:17Z</time>
      </trkpt>
      <trkpt lat="44.58665" lon="2.94938">
        <ele>1092.653</ele>
        <time>2015-08-05T18:29:37Z</time>
      </trkpt>
      <trkpt lat="44.58625" lon="2.94951">
        <ele>1093.963</ele>
        <time>2015-08-05T18:29:57Z</time>
      </trkpt>
      <trkpt lat="44.58564" lon="2.94993">
        <ele>1099.32</ele>
        <time>2015-08-05T18:30:17Z</time>
      </trkpt>
      <trkpt lat="44.5854" lon="2.95045">
        <ele>1104.92</ele>
        <time>2015-08-05T18:30:37Z</time>
      </trkpt>
      <trkpt lat="44.58496" lon="2.9508">
        <ele>1106.394</ele>
        <time>2015-08-05T18:30:57Z</time>
      </trkpt>
      <trkpt lat="44.58518" lon="2.95114">
        <ele>1110.351</ele>
        <time>2015-08-05T18:31:17Z</time>
      </trkpt>
      <trkpt lat="44.58518" lon="2.95128">
        <ele>1111.629</ele>
        <time>2015-08-05T18:31:37Z</time>
      </trkpt>
      <trkpt lat="44.58535" lon="2.95149">
        <ele>1113.545</ele>
        <time>2015-08-05T18:31:57Z</time>
      </trkpt>
      <trkpt lat="44.58523" lon="2.9519">
        <ele>1116.447</ele>
        <time>2015-08-05T18:32:17Z</time>
      </trkpt>
      <trkpt lat="44.58502" lon="2.95214">
        <ele>1118.111</ele>
        <time>2015-08-05T18:32:37Z</time>
      </trkpt>
      <trkpt lat="44.58459" lon="2.95285">
        <ele>1123.808</ele>
        <time>2015-08-05T18:32:57Z</time>
      </trkpt>
      <trkpt lat="44.58509" lon="2.95376">
        <ele>1142.08</ele>
        <time>2015-08-05T18:33:17Z</time>
      </trkpt>
      <trkpt lat="44.58508" lon="2.95402">
        <ele>1146.175</ele>
        <time>2015-08-05T18:33:37Z</time>
      </trkpt>
      <trkpt lat="44.58492" lon="2.95421">
        <ele>1148.365</ele>
        <time>2015-08-05T18:33:57Z</time>
      </trkpt>
      <trkpt lat="44.58469" lon="2.95472">
        <ele>1156.632</ele>
        <time>2015-08-05T18:34:17Z</time>
      </trkpt>
      <trkpt lat="44.58539" lon="2.9548">
        <ele>1161.562</ele>
        <time>2015-08-05T18:34:37Z</time>
      </trkpt>
      <trkpt lat="44.58659" lon="2.95527">
        <ele>1171.176</ele>
        <time>2015-08-05T18:34:57Z</time>
      </trkpt>
      <trkpt lat="44.58673" lon="2.95554">
        <ele>1176.023</ele>
        <time>2015-08-05T18:35:17Z</time>
      </trkpt>
      <trkpt lat="44.58661" lon="2.95573">
        <ele>1177.581</ele>
        <time>2015-08-05T18:35:37Z</time>
      </trkpt>
      <trkpt lat="44.58603" lon="2.95583">
        <ele>1179.014</ele>
        <time>2015-08-05T18:35:57Z</time>
      </trkpt>
      <trkpt lat="44.58561" lon="2.95621">
        <ele>1178.554</ele>
        <time>2015-08-05T18:36:17Z</time>
      </trkpt>
      <trkpt lat="44.58527" lon="2.95684">
        <ele>1185.509</ele>
        <time>2015-08-05T18:36:37Z</time>
      </trkpt>
      <trkpt lat="44.58479" lon="2.95863">
        <ele>1196.408</ele>
        <time>2015-08-05T18:36:57Z</time>
      </trkpt>
      <trkpt lat="44.5845" lon="2.95916">
        <ele>1198.287</ele>
        <time>2015-08-05T18:37:17Z</time>
      </trkpt>
      <trkpt lat="44.5829" lon="2.96799">
        <ele>1252.342</ele>
        <time>2015-08-05T18:37:37Z</time>
      </trkpt>
      <trkpt lat="44.58352" lon="2.97436">
        <ele>1271.952</ele>
        <time>2015-08-05T18:37:57Z</time>
      </trkpt>
      <trkpt lat="44.58636" lon="2.9782">
        <ele>1281.889</ele>
        <time>2015-08-05T18:38:17Z</time>
      </trkpt>
      <trkpt lat="44.58656" lon="2.97837">
        <ele>1283.119</ele>
        <time>2015-08-05T18:38:37Z</time>
      </trkpt>
      <trkpt lat="44.58733" lon="2.97961">
        <ele>1290.423</ele>
        <time>2015-08-05T18:38:57Z</time>
      </trkpt>
      <trkpt lat="44.5876" lon="2.97977">
        <ele>1291.88</ele>
        <time>2015-08-05T18:39:17Z</time>
      </trkpt>
      <trkpt lat="44.58888" lon="2.97976">
        <ele>1294.868</ele>
        <time>2015-08-05T18:39:37Z</time>
      </trkpt>
      <trkpt lat="44.5892" lon="2.97968">
        <ele>1295.749</ele>
        <time>2015-08-05T18:39:57Z</time>
      </trkpt>
      <trkpt lat="44.58962" lon="2.97968">
        <ele>1295.102</ele>
        <time>2015-08-05T18:40:17Z</time>
      </trkpt>
      <trkpt lat="44.59106" lon="2.97948">
        <ele>1300.722</ele>
        <time>2015-08-05T18:40:37Z</time>
      </trkpt>
      <trkpt lat="44.59195" lon="2.97948">
        <ele>1300.908</ele>
        <time>2015-08-05T18:40:57Z</time>
      </trkpt>
      <trkpt lat="44.59311" lon="2.97959">
        <ele>1305.62</ele>
        <time>2015-08-05T18:41:17Z</time>
      </trkpt>
      <trkpt lat="44.59388" lon="2.97984">
        <ele>1304.275</ele>
        <time>2015-08-05T18:41:37Z</time>
      </trkpt>
      <trkpt lat="44.59439" lon="2.98019">
        <ele>1303.575</ele>
        <time>2015-08-05T18:41:57Z</time>
      </trkpt>
      <trkpt lat="44.59532" lon="2.98076">
        <ele>1303.112</ele>
        <time>2015-08-05T18:42:17Z</time>
      </trkpt>
      <trkpt lat="44.59665" lon="2.98171">
        <ele>1300.912</ele>
        <time>2015-08-05T18:42:37Z</time>
      </trkpt>
      <trkpt lat="44.5973" lon="2.98239">
        <ele>1304.976</ele>
        <time>2015-08-05T18:42:57Z</time>
      </trkpt>
      <trkpt lat="44.59866" lon="2.98421">
        <ele>1307.723</ele>
        <time>2015-08-05T18:43:17Z</time>
      </trkpt>
      <trkpt lat="44.59891" lon="2.98476">
        <ele>1306.131</ele>
        <time>2015-08-05T18:43:37Z</time>
      </trkpt>
      <trkpt lat="44.59914" lon="2.98619">
        <ele>1309.716</ele>
        <time>2015-08-05T18:43:57Z</time>
      </trkpt>
      <trkpt lat="44.59948" lon="2.98769">
        <ele>1312.376</ele>
        <time>2015-08-05T18:44:17Z</time>
      </trkpt>
      <trkpt lat="44.59954" lon="2.98915">
        <ele>1310.713</ele>
        <time>2015-08-05T18:44:37Z</time>
      </trkpt>
      <trkpt lat="44.59965" lon="2.99031">
        <ele>1313.008</ele>
        <time>2015-08-05T18:44:57Z</time>
      </trkpt>
      <trkpt lat="44.59969" lon="2.99106">
        <ele>1313.197</ele>
        <time>2015-08-05T18:45:17Z</time>
      </trkpt>
      <trkpt lat="44.59712" lon="2.99482">
        <ele>1315.792</ele>
        <time>2015-08-05T18:45:37Z</time>
      </trkpt>
      <trkpt lat="44.59676" lon="2.99575">
        <ele>1315.992</ele>
        <time>2015-08-05T18:45:57Z</time>
      </trkpt>
      <trkpt lat="44.59664" lon="2.99668">
        <ele>1312.429</ele>
        <time>2015-08-05T18:46:17Z</time>
      </trkpt>
      <trkpt lat="44.59636" lon="2.99757">
        <ele>1315.229</ele>
        <time>2015-08-05T18:46:37Z</time>
      </trkpt>
      <trkpt lat="44.59531" lon="2.99964">
        <ele>1318.723</ele>
        <time>2015-08-05T18:46:57Z</time>
      </trkpt>
      <trkpt lat="44.59499" lon="3.00066">
        <ele>1319.37</ele>
        <time>2015-08-05T18:47:17Z</time>
      </trkpt>
      <trkpt lat="44.59485" lon="3.00153">
        <ele>1318.098</ele>
        <time>2015-08-05T18:47:37Z</time>
      </trkpt>
      <trkpt lat="44.59487" lon="3.00187">
        <ele>1318.558</ele>
        <time>2015-08-05T18:47:57Z</time>
      </trkpt>
      <trkpt lat="44.59462" lon="3.00416">
        <ele>1322.752</ele>
        <time>2015-08-05T18:48:17Z</time>
      </trkpt>
      <trkpt lat="44.59457" lon="3.00522">
        <ele>1316.117</ele>
        <time>2015-08-05T18:48:37Z</time>
      </trkpt>
      <trkpt lat="44.59429" lon="3.0057">
        <ele>1313.608</ele>
        <time>2015-08-05T18:48:57Z</time>
      </trkpt>
      <trkpt lat="44.5936" lon="3.00751">
        <ele>1316.091</ele>
        <time>2015-08-05T18:49:17Z</time>
      </trkpt>
      <trkpt lat="44.5929" lon="3.00855">
        <ele>1310.356</ele>
        <time>2015-08-05T18:49:37Z</time>
      </trkpt>
      <trkpt lat="44.59167" lon="3.01021">
        <ele>1300.096</ele>
        <time>2015-08-05T18:49:57Z</time>
      </trkpt>
      <trkpt lat="44.59149" lon="3.01072">
        <ele>1302.283</ele>
        <time>2015-08-05T18:50:17Z</time>
      </trkpt>
      <trkpt lat="44.59146" lon="3.01109">
        <ele>1303.923</ele>
        <time>2015-08-05T18:50:37Z</time>
      </trkpt>
      <trkpt lat="44.59136" lon="3.01126">
        <ele>1305.687</ele>
        <time>2015-08-05T18:50:57Z</time>
      </trkpt>
      <trkpt lat="44.59135" lon="3.01148">
        <ele>1306.124</ele>
        <time>2015-08-05T18:51:17Z</time>
      </trkpt>
      <trkpt lat="44.59159" lon="3.01198">
        <ele>1305.752</ele>
        <time>2015-08-05T18:51:37Z</time>
      </trkpt>
      <trkpt lat="44.59173" lon="3.01243">
        <ele>1308.058</ele>
        <time>2015-08-05T18:51:57Z</time>
      </trkpt>
      <trkpt lat="44.59212" lon="3.01274">
        <ele>1309.252</ele>
        <time>2015-08-05T18:52:17Z</time>
      </trkpt>
      <trkpt lat="44.59261" lon="3.01376">
        <ele>1315.117</ele>
        <time>2015-08-05T18:52:37Z</time>
      </trkpt>
      <trkpt lat="44.59279" lon="3.01427">
        <ele>1316.208</ele>
        <time>2015-08-05T18:52:57Z</time>
      </trkpt>
      <trkpt lat="44.59283" lon="3.01458">
        <ele>1317.351</ele>
        <time>2015-08-05T18:53:17Z</time>
      </trkpt>
      <trkpt lat="44.59283" lon="3.01547">
        <ele>1321.346</ele>
        <time>2015-08-05T18:53:37Z</time>
      </trkpt>
      <trkpt lat="44.59262" lon="3.01669">
        <ele>1321.666</ele>
        <time>2015-08-05T18:53:57Z</time>
      </trkpt>
      <trkpt lat="44.59242" lon="3.0171">
        <ele>1322.773</ele>
        <time>2015-08-05T18:54:17Z</time>
      </trkpt>
      <trkpt lat="44.59223" lon="3.01739">
        <ele>1322.473</ele>
        <time>2015-08-05T18:54:37Z</time>
      </trkpt>
      <trkpt lat="44.59201" lon="3.01754">
        <ele>1324.267</ele>
        <time>2015-08-05T18:54:57Z</time>
      </trkpt>
      <trkpt lat="44.59188" lon="3.01784">
        <ele>1324.424</ele>
        <time>2015-08-05T18:55:17Z</time>
      </trkpt>
      <trkpt lat="44.59154" lon="3.01825">
        <ele>1325.692</ele>
        <time>2015-08-05T18:55:37Z</time>
      </trkpt>
      <trkpt lat="44.59141" lon="3.01856">
        <ele>1327.632</ele>
        <time>2015-08-05T18:55:57Z</time>
      </trkpt>
      <trkpt lat="44.59133" lon="3.019">
        <ele>1330.092</ele>
        <time>2015-08-05T18:56:17Z</time>
      </trkpt>
      <trkpt lat="44.59137" lon="3.01934">
        <ele>1330.811</ele>
        <time>2015-08-05T18:56:37Z</time>
      </trkpt>
      <trkpt lat="44.5917" lon="3.01981">
        <ele>1331.908</ele>
        <time>2015-08-05T18:56:57Z</time>
      </trkpt>
      <trkpt lat="44.59177" lon="3.02018">
        <ele>1335.639</ele>
        <time>2015-08-05T18:57:17Z</time>
      </trkpt>
      <trkpt lat="44.59233" lon="3.02064">
        <ele>1335.234</ele>
        <time>2015-08-05T18:57:37Z</time>
      </trkpt>
      <trkpt lat="44.59213" lon="3.02137">
        <ele>1338.734</ele>
        <time>2015-08-05T18:57:57Z</time>
      </trkpt>
      <trkpt lat="44.59282" lon="3.02196">
        <ele>1339.211</ele>
        <time>2015-08-05T18:58:17Z</time>
      </trkpt>
      <trkpt lat="44.59364" lon="3.02272">
        <ele>1339.061</ele>
        <time>2015-08-05T18:58:37Z</time>
      </trkpt>
      <trkpt lat="44.59414" lon="3.02309">
        <ele>1340.055</ele>
        <time>2015-08-05T18:58:57Z</time>
      </trkpt>
      <trkpt lat="44.59511" lon="3.02353">
        <ele>1343.462</ele>
        <time>2015-08-05T18:59:17Z</time>
      </trkpt>
      <trkpt lat="44.59582" lon="3.02393">
        <ele>1341.58</ele>
        <time>2015-08-05T18:59:37Z</time>
      </trkpt>
      <trkpt lat="44.59697" lon="3.02446">
        <ele>1340.912</ele>
        <time>2015-08-05T18:59:57Z</time>
      </trkpt>
      <trkpt lat="44.59776" lon="3.02628">
        <ele>1336.432</ele>
        <time>2015-08-05T19:00:17Z</time>
      </trkpt>
      <trkpt lat="44.59856" lon="3.02838">
        <ele>1330.605</ele>
        <time>2015-08-05T19:00:37Z</time>
      </trkpt>
      <trkpt lat="44.59856" lon="3.02889">
        <ele>1328.208</ele>
        <time>2015-08-05T19:00:57Z</time>
      </trkpt>
      <trkpt lat="44.59825" lon="3.02956">
        <ele>1334.177</ele>
        <time>2015-08-05T19:01:17Z</time>
      </trkpt>
      <trkpt lat="44.59814" lon="3.03069">
        <ele>1337.242</ele>
        <time>2015-08-05T19:01:37Z</time>
      </trkpt>
      <trkpt lat="44.5977" lon="3.03189">
        <ele>1342.862</ele>
        <time>2015-08-05T19:01:57Z</time>
      </trkpt>
      <trkpt lat="44.59675" lon="3.03362">
        <ele>1348.079</ele>
        <time>2015-08-05T19:02:17Z</time>
      </trkpt>
      <trkpt lat="44.59482" lon="3.03957">
        <ele>1329.359</ele>
        <time>2015-08-05T19:02:37Z</time>
      </trkpt>
      <trkpt lat="44.59356" lon="3.04308">
        <ele>1323.453</ele>
        <time>2015-08-05T19:02:57Z</time>
      </trkpt>
      <trkpt lat="44.59289" lon="3.04461">
        <ele>1316.89</ele>
        <time>2015-08-05T19:03:17Z</time>
      </trkpt>
      <trkpt lat="44.59079" lon="3.05007">
        <ele>1342.598</ele>
        <time>2015-08-05T19:03:37Z</time>
      </trkpt>
      <trkpt lat="44.5869" lon="3.05581">
        <ele>1364.314</ele>
        <time>2015-08-05T19:03:57Z</time>
      </trkpt>
      <trkpt lat="44.58492" lon="3.05739">
        <ele>1370.354</ele>
        <time>2015-08-05T19:04:17Z</time>
      </trkpt>
      <trkpt lat="44.58403" lon="3.05791">
        <ele>1370.009</ele>
        <time>2015-08-05T19:04:37Z</time>
      </trkpt>
      <trkpt lat="44.57982" lon="3.06097">
        <ele>1365.208</ele>
        <time>2015-08-05T19:04:57Z</time>
      </trkpt>
      <trkpt lat="44.57953" lon="3.06128">
        <ele>1366.427</ele>
        <time>2015-08-05T19:05:17Z</time>
      </trkpt>
      <trkpt lat="44.57897" lon="3.06237">
        <ele>1370.362</ele>
        <time>2015-08-05T19:05:37Z</time>
      </trkpt>
      <trkpt lat="44.5783" lon="3.06382">
        <ele>1372.262</ele>
        <time>2015-08-05T19:05:57Z</time>
      </trkpt>
      <trkpt lat="44.57656" lon="3.06579">
        <ele>1384.849</ele>
        <time>2015-08-05T19:06:17Z</time>
      </trkpt>
      <trkpt lat="44.57656" lon="3.06583">
        <ele>1385.267</ele>
        <time>2019-07-07T15:20:50Z</time>
      </trkpt>
      <trkpt lat="44.57656" lon="3.06583">
        <ele>1385.267</ele>
        <time>2019-07-07T15:20:50Z</time>
      </trkpt>
      <trkpt lat="44.57656" lon="3.06583">
        <ele>1385.281</ele>
        <time>2019-07-07T15:21:10Z</time>
      </trkpt>
      <trkpt lat="44.57682" lon="3.06733">
        <ele>1389.019</ele>
        <time>2019-07-07T15:21:30Z</time>
      </trkpt>
      <trkpt lat="44.57665" lon="3.06887">
        <ele>1394.608</ele>
        <time>2019-07-07T15:21:50Z</time>
      </trkpt>
      <trkpt lat="44.57582" lon="3.06993">
        <ele>1405.27</ele>
        <time>2019-07-07T15:22:10Z</time>
      </trkpt>
      <trkpt lat="44.57524" lon="3.07131">
        <ele>1414.144</ele>
        <time>2019-07-07T15:22:30Z</time>
      </trkpt>
      <trkpt lat="44.57474" lon="3.0728">
        <ele>1426.848</ele>
        <time>2019-07-07T15:22:50Z</time>
      </trkpt>
      <trkpt lat="44.57663" lon="3.07369">
        <ele>1401.595</ele>
        <time>2019-07-07T15:23:10Z</time>
      </trkpt>
      <trkpt lat="44.57665" lon="3.07455">
        <ele>1404.129</ele>
        <time>2019-07-07T15:23:30Z</time>
      </trkpt>
      <trkpt lat="44.57689" lon="3.07496">
        <ele>1401.336</ele>
        <time>2019-07-07T15:23:50Z</time>
      </trkpt>
      <trkpt lat="44.57672" lon="3.07625">
        <ele>1406.545</ele>
        <time>2019-07-07T15:24:10Z</time>
      </trkpt>
      <trkpt lat="44.57718" lon="3.08092">
        <ele>1406.681</ele>
        <time>2019-07-07T15:24:30Z</time>
      </trkpt>
      <trkpt lat="44.57705" lon="3.08158">
        <ele>1405.076</ele>
        <time>2019-07-07T15:24:50Z</time>
      </trkpt>
      <trkpt lat="44.57747" lon="3.08201">
        <ele>1398.39</ele>
        <time>2019-07-07T15:25:10Z</time>
      </trkpt>
      <trkpt lat="44.57813" lon="3.08414">
        <ele>1393.019</ele>
        <time>2019-07-07T15:25:30Z</time>
      </trkpt>
      <trkpt lat="44.57887" lon="3.08688">
        <ele>1387.508</ele>
        <time>2019-07-07T15:25:50Z</time>
      </trkpt>
      <trkpt lat="44.57802" lon="3.08975">
        <ele>1371.181</ele>
        <time>2019-07-07T15:26:10Z</time>
      </trkpt>
      <trkpt lat="44.57692" lon="3.09077">
        <ele>1355.975</ele>
        <time>2019-07-07T15:26:30Z</time>
      </trkpt>
      <trkpt lat="44.57662" lon="3.09084">
        <ele>1351.869</ele>
        <time>2019-07-07T15:26:50Z</time>
      </trkpt>
      <trkpt lat="44.5761" lon="3.09261">
        <ele>1336.536</ele>
        <time>2019-07-07T15:27:10Z</time>
      </trkpt>
      <trkpt lat="44.5761" lon="3.09336">
        <ele>1332.72</ele>
        <time>2019-07-07T15:27:30Z</time>
      </trkpt>
    </trkseg>
  </trk>
  <trk>
    <name><![CDATA[Col du trébatut]]></name>
    <extensions>
      <line xmlns="http://www.topografix.com/GPX/gpx_style/0/2">
        <color>e100ff</color>
        <width>4</width>
      </line>
    </extensions>
    <trkseg>
      <trkpt lat="44.5761" lon="3.09336">
        <ele>1332.72</ele>
        <time>2019-07-07T15:27:30Z</time>
      </trkpt>
      <trkpt lat="44.5761" lon="3.09336">
        <ele>1332.72</ele>
        <time>2019-07-07T15:27:30Z</time>
      </trkpt>
      <trkpt lat="44.5761" lon="3.09336">
        <ele>1332.72</ele>
        <time>2019-07-07T15:27:30Z</time>
      </trkpt>
      <trkpt lat="44.5761" lon="3.09336">
        <ele>1332.72</ele>
        <time>2019-07-07T15:27:30Z</time>
      </trkpt>
      <trkpt lat="44.57598" lon="3.09347">
        <ele>1330.957</ele>
        <time>2019-07-07T15:27:50Z</time>
      </trkpt>
      <trkpt lat="44.57605" lon="3.09391">
        <ele>1329.446</ele>
        <time>2019-07-07T15:28:10Z</time>
      </trkpt>
      <trkpt lat="44.57578" lon="3.09479">
        <ele>1322.212</ele>
        <time>2019-07-07T15:28:30Z</time>
      </trkpt>
      <trkpt lat="44.57583" lon="3.09586">
        <ele>1320.814</ele>
        <time>2019-07-07T15:28:50Z</time>
      </trkpt>
      <trkpt lat="44.57598" lon="3.0965">
        <ele>1317.054</ele>
        <time>2019-07-07T15:29:10Z</time>
      </trkpt>
      <trkpt lat="44.57582" lon="3.09718">
        <ele>1313.209</ele>
        <time>2019-07-07T15:29:30Z</time>
      </trkpt>
      <trkpt lat="44.57588" lon="3.09796">
        <ele>1312.608</ele>
        <time>2019-07-07T15:29:50Z</time>
      </trkpt>
      <trkpt lat="44.57508" lon="3.10172">
        <ele>1340.495</ele>
        <time>2019-07-07T15:30:10Z</time>
      </trkpt>
      <trkpt lat="44.57386" lon="3.10598">
        <ele>1372.289</ele>
        <time>2019-07-07T15:30:30Z</time>
      </trkpt>
      <trkpt lat="44.57385" lon="3.10661">
        <ele>1376.953</ele>
        <time>2019-07-07T15:30:50Z</time>
      </trkpt>
      <trkpt lat="44.5741" lon="3.10729">
        <ele>1376.41</ele>
        <time>2019-07-07T15:31:10Z</time>
      </trkpt>
      <trkpt lat="44.5743" lon="3.10978">
        <ele>1366.184</ele>
        <time>2019-07-07T15:31:30Z</time>
      </trkpt>
      <trkpt lat="44.57448" lon="3.11094">
        <ele>1357.971</ele>
        <time>2019-07-07T15:31:50Z</time>
      </trkpt>
      <trkpt lat="44.57411" lon="3.11243">
        <ele>1347.34</ele>
        <time>2019-07-07T15:32:10Z</time>
      </trkpt>
      <trkpt lat="44.57369" lon="3.11367">
        <ele>1341.266</ele>
        <time>2019-07-07T15:32:30Z</time>
      </trkpt>
      <trkpt lat="44.57318" lon="3.1142">
        <ele>1340.711</ele>
        <time>2019-07-07T15:32:50Z</time>
      </trkpt>
      <trkpt lat="44.57245" lon="3.1156">
        <ele>1335.221</ele>
        <time>2019-07-07T15:33:10Z</time>
      </trkpt>
      <trkpt lat="44.572" lon="3.11697">
        <ele>1326.703</ele>
        <time>2019-07-07T15:33:30Z</time>
      </trkpt>
      <trkpt lat="44.57137" lon="3.11744">
        <ele>1327.508</ele>
        <time>2019-07-07T15:33:50Z</time>
      </trkpt>
      <trkpt lat="44.57141" lon="3.11785">
        <ele>1327.125</ele>
        <time>2019-07-07T15:34:10Z</time>
      </trkpt>
      <trkpt lat="44.57171" lon="3.11861">
        <ele>1326.759</ele>
        <time>2019-07-07T15:34:30Z</time>
      </trkpt>
      <trkpt lat="44.57194" lon="3.12094">
        <ele>1332.393</ele>
        <time>2019-07-07T15:34:50Z</time>
      </trkpt>
      <trkpt lat="44.57149" lon="3.12224">
        <ele>1340.83</ele>
        <time>2019-07-07T15:35:10Z</time>
      </trkpt>
      <trkpt lat="44.57132" lon="3.12364">
        <ele>1345.464</ele>
        <time>2019-07-07T15:35:30Z</time>
      </trkpt>
      <trkpt lat="44.57046" lon="3.12378">
        <ele>1349.171</ele>
        <time>2019-07-07T15:35:50Z</time>
      </trkpt>
      <trkpt lat="44.57028" lon="3.12403">
        <ele>1351.02</ele>
        <time>2019-07-07T15:36:10Z</time>
      </trkpt>
      <trkpt lat="44.57012" lon="3.12445">
        <ele>1353.496</ele>
        <time>2019-07-07T15:36:30Z</time>
      </trkpt>
      <trkpt lat="44.56932" lon="3.12546">
        <ele>1360.729</ele>
        <time>2019-07-07T15:36:50Z</time>
      </trkpt>
      <trkpt lat="44.56929" lon="3.12583">
        <ele>1365.3</ele>
        <time>2019-07-07T15:37:10Z</time>
      </trkpt>
      <trkpt lat="44.56917" lon="3.12634">
        <ele>1369.42</ele>
        <time>2019-07-07T15:37:30Z</time>
      </trkpt>
      <trkpt lat="44.56899" lon="3.1264">
        <ele>1370.808</ele>
        <time>2019-07-07T15:37:50Z</time>
      </trkpt>
      <trkpt lat="44.56899" lon="3.12684">
        <ele>1375.556</ele>
        <time>2019-07-07T15:38:10Z</time>
      </trkpt>
      <trkpt lat="44.56794" lon="3.12874">
        <ele>1392.35</ele>
        <time>2019-07-07T15:38:30Z</time>
      </trkpt>
      <trkpt lat="44.56704" lon="3.13102">
        <ele>1395.444</ele>
        <time>2019-07-07T15:38:50Z</time>
      </trkpt>
      <trkpt lat="44.56617" lon="3.13269">
        <ele>1395.121</ele>
        <time>2019-07-07T15:39:10Z</time>
      </trkpt>
      <trkpt lat="44.56543" lon="3.13375">
        <ele>1393.855</ele>
        <time>2019-07-07T15:39:30Z</time>
      </trkpt>
      <trkpt lat="44.56501" lon="3.13401">
        <ele>1391.112</ele>
        <time>2019-07-07T15:39:50Z</time>
      </trkpt>
      <trkpt lat="44.56505" lon="3.13463">
        <ele>1392.271</ele>
        <time>2019-07-07T15:40:10Z</time>
      </trkpt>
      <trkpt lat="44.56484" lon="3.1352">
        <ele>1391.657</ele>
        <time>2019-07-07T15:40:30Z</time>
      </trkpt>
      <trkpt lat="44.5649" lon="3.13606">
        <ele>1392.869</ele>
        <time>2019-07-07T15:40:50Z</time>
      </trkpt>
      <trkpt lat="44.56426" lon="3.13845">
        <ele>1393.804</ele>
        <time>2019-07-07T15:41:10Z</time>
      </trkpt>
      <trkpt lat="44.56403" lon="3.13909">
        <ele>1392.824</ele>
        <time>2019-07-07T15:41:30Z</time>
      </trkpt>
      <trkpt lat="44.56383" lon="3.14057">
        <ele>1391.908</ele>
        <time>2019-07-07T15:41:50Z</time>
      </trkpt>
      <trkpt lat="44.56351" lon="3.14149">
        <ele>1387.03</ele>
        <time>2019-07-07T15:42:10Z</time>
      </trkpt>
      <trkpt lat="44.56343" lon="3.14191">
        <ele>1386.794</ele>
        <time>2019-07-07T15:42:30Z</time>
      </trkpt>
      <trkpt lat="44.56265" lon="3.14325">
        <ele>1380.868</ele>
        <time>2019-07-07T15:42:50Z</time>
      </trkpt>
      <trkpt lat="44.56237" lon="3.14341">
        <ele>1378.735</ele>
        <time>2019-07-07T15:43:10Z</time>
      </trkpt>
      <trkpt lat="44.56217" lon="3.1439">
        <ele>1377.389</ele>
        <time>2019-07-07T15:43:30Z</time>
      </trkpt>
      <trkpt lat="44.56177" lon="3.14444">
        <ele>1378.376</ele>
        <time>2019-07-07T15:43:50Z</time>
      </trkpt>
      <trkpt lat="44.56146" lon="3.14539">
        <ele>1371.625</ele>
        <time>2019-07-07T15:44:10Z</time>
      </trkpt>
      <trkpt lat="44.56098" lon="3.14611">
        <ele>1366.911</ele>
        <time>2019-07-07T15:44:30Z</time>
      </trkpt>
      <trkpt lat="44.56053" lon="3.14751">
        <ele>1373.089</ele>
        <time>2019-07-07T15:44:50Z</time>
      </trkpt>
      <trkpt lat="44.56032" lon="3.14907">
        <ele>1374.706</ele>
        <time>2019-07-07T15:45:10Z</time>
      </trkpt>
      <trkpt lat="44.55961" lon="3.15073">
        <ele>1373.926</ele>
        <time>2019-07-07T15:45:30Z</time>
      </trkpt>
      <trkpt lat="44.55927" lon="3.15192">
        <ele>1371.908</ele>
        <time>2019-07-07T15:45:50Z</time>
      </trkpt>
      <trkpt lat="44.55857" lon="3.15416">
        <ele>1370.032</ele>
        <time>2019-07-07T15:46:10Z</time>
      </trkpt>
      <trkpt lat="44.55814" lon="3.15514">
        <ele>1369.266</ele>
        <time>2019-07-07T15:46:30Z</time>
      </trkpt>
      <trkpt lat="44.55815" lon="3.15621">
        <ele>1368.69</ele>
        <time>2019-07-07T15:46:50Z</time>
      </trkpt>
      <trkpt lat="44.55829" lon="3.15784">
        <ele>1366.777</ele>
        <time>2019-07-07T15:47:10Z</time>
      </trkpt>
      <trkpt lat="44.55778" lon="3.15846">
        <ele>1361.561</ele>
        <time>2019-07-07T15:47:30Z</time>
      </trkpt>
      <trkpt lat="44.55708" lon="3.15867">
        <ele>1360.668</ele>
        <time>2019-07-07T15:47:50Z</time>
      </trkpt>
      <trkpt lat="44.55646" lon="3.15837">
        <ele>1358.067</ele>
        <time>2019-07-07T15:48:10Z</time>
      </trkpt>
      <trkpt lat="44.55558" lon="3.15935">
        <ele>1353.023</ele>
        <time>2019-07-07T15:48:30Z</time>
      </trkpt>
      <trkpt lat="44.55324" lon="3.1612">
        <ele>1343.964</ele>
        <time>2019-07-07T15:48:50Z</time>
      </trkpt>
      <trkpt lat="44.55244" lon="3.16156">
        <ele>1342.706</ele>
        <time>2019-07-07T15:49:10Z</time>
      </trkpt>
      <trkpt lat="44.54892" lon="3.16372">
        <ele>1329.216</ele>
        <time>2019-07-07T15:49:30Z</time>
      </trkpt>
      <trkpt lat="44.54718" lon="3.16475">
        <ele>1314.708</ele>
        <time>2019-07-07T15:49:50Z</time>
      </trkpt>
      <trkpt lat="44.545" lon="3.16714">
        <ele>1281.66</ele>
        <time>2019-07-07T15:50:10Z</time>
      </trkpt>
      <trkpt lat="44.54421" lon="3.16815">
        <ele>1263.714</ele>
        <time>2019-07-07T15:50:30Z</time>
      </trkpt>
      <trkpt lat="44.54362" lon="3.16855">
        <ele>1252.728</ele>
        <time>2019-07-07T15:50:50Z</time>
      </trkpt>
      <trkpt lat="44.54185" lon="3.16886">
        <ele>1232.445</ele>
        <time>2019-07-07T15:51:10Z</time>
      </trkpt>
      <trkpt lat="44.53983" lon="3.16947">
        <ele>1219.659</ele>
        <time>2019-07-07T15:51:30Z</time>
      </trkpt>
      <trkpt lat="44.53897" lon="3.16916">
        <ele>1210.986</ele>
        <time>2019-07-07T15:51:50Z</time>
      </trkpt>
      <trkpt lat="44.5381" lon="3.16914">
        <ele>1197.885</ele>
        <time>2019-07-07T15:52:10Z</time>
      </trkpt>
      <trkpt lat="44.53739" lon="3.16923">
        <ele>1186.791</ele>
        <time>2019-07-07T15:52:30Z</time>
      </trkpt>
      <trkpt lat="44.53623" lon="3.16895">
        <ele>1169.583</ele>
        <time>2019-07-07T15:52:50Z</time>
      </trkpt>
      <trkpt lat="44.53593" lon="3.16862">
        <ele>1166.325</ele>
        <time>2019-07-07T15:53:10Z</time>
      </trkpt>
      <trkpt lat="44.53501" lon="3.1686">
        <ele>1160.217</ele>
        <time>2019-07-07T15:53:30Z</time>
      </trkpt>
      <trkpt lat="44.5336" lon="3.16914">
        <ele>1143.908</ele>
        <time>2019-07-07T15:53:50Z</time>
      </trkpt>
      <trkpt lat="44.53298" lon="3.16961">
        <ele>1140.662</ele>
        <time>2019-07-07T15:54:10Z</time>
      </trkpt>
      <trkpt lat="44.53242" lon="3.17026">
        <ele>1135.156</ele>
        <time>2019-07-07T15:54:30Z</time>
      </trkpt>
      <trkpt lat="44.53139" lon="3.17029">
        <ele>1126.84</ele>
        <time>2019-07-07T15:54:50Z</time>
      </trkpt>
      <trkpt lat="44.53054" lon="3.1704">
        <ele>1120.537</ele>
        <time>2019-07-07T15:55:10Z</time>
      </trkpt>
      <trkpt lat="44.52983" lon="3.17071">
        <ele>1116.431</ele>
        <time>2019-07-07T15:55:30Z</time>
      </trkpt>
      <trkpt lat="44.52922" lon="3.17042">
        <ele>1113.328</ele>
        <time>2019-07-07T15:55:50Z</time>
      </trkpt>
      <trkpt lat="44.52788" lon="3.17014">
        <ele>1101.237</ele>
        <time>2019-07-07T15:56:10Z</time>
      </trkpt>
      <trkpt lat="44.52774" lon="3.16963">
        <ele>1097.913</ele>
        <time>2019-07-07T15:56:30Z</time>
      </trkpt>
      <trkpt lat="44.52747" lon="3.16993">
        <ele>1097.022</ele>
        <time>2019-07-07T15:56:50Z</time>
      </trkpt>
      <trkpt lat="44.52629" lon="3.1709">
        <ele>1084.262</ele>
        <time>2019-07-07T15:57:10Z</time>
      </trkpt>
    </trkseg>
  </trk>
  <trk>
    <name><![CDATA[Saint Germain du Teil]]></name>
    <extensions>
      <line xmlns="http://www.topografix.com/GPX/gpx_style/0/2">
        <color>0000FF</color>
        <width>4</width>
      </line>
    </extensions>
    <trkseg>
      <trkpt lat="44.52629" lon="3.1709">
        <ele>1084.262</ele>
        <time>2019-07-07T15:57:10Z</time>
      </trkpt>
      <trkpt lat="44.52629" lon="3.1709">
        <ele>1084.262</ele>
        <time>2019-07-07T15:57:10Z</time>
      </trkpt>
      <trkpt lat="44.52629" lon="3.1709">
        <ele>1084.262</ele>
        <time>2019-07-07T15:57:10Z</time>
      </trkpt>
      <trkpt lat="44.52629" lon="3.1709">
        <ele>1084.262</ele>
        <time>2019-07-07T15:57:10Z</time>
      </trkpt>
      <trkpt lat="44.52548" lon="3.17118">
        <ele>1077.908</ele>
        <time>2019-07-07T15:57:30Z</time>
      </trkpt>
      <trkpt lat="44.52503" lon="3.17122">
        <ele>1076.008</ele>
        <time>2019-07-07T15:57:50Z</time>
      </trkpt>
      <trkpt lat="44.52432" lon="3.17169">
        <ele>1072.076</ele>
        <time>2019-07-07T15:58:10Z</time>
      </trkpt>
      <trkpt lat="44.52354" lon="3.17169">
        <ele>1073.47</ele>
        <time>2019-07-07T15:58:30Z</time>
      </trkpt>
      <trkpt lat="44.52278" lon="3.17117">
        <ele>1077.464</ele>
        <time>2019-07-07T15:58:50Z</time>
      </trkpt>
      <trkpt lat="44.52241" lon="3.1711">
        <ele>1079.571</ele>
        <time>2019-07-07T15:59:10Z</time>
      </trkpt>
      <trkpt lat="44.52163" lon="3.17069">
        <ele>1083.655</ele>
        <time>2019-07-07T15:59:30Z</time>
      </trkpt>
      <trkpt lat="44.5206" lon="3.1708">
        <ele>1084.872</ele>
        <time>2019-07-07T15:59:50Z</time>
      </trkpt>
      <trkpt lat="44.52022" lon="3.17076">
        <ele>1087.511</ele>
        <time>2019-07-07T16:00:10Z</time>
      </trkpt>
      <trkpt lat="44.51919" lon="3.17104">
        <ele>1091.367</ele>
        <time>2019-07-07T16:00:30Z</time>
      </trkpt>
      <trkpt lat="44.5181" lon="3.17117">
        <ele>1097.251</ele>
        <time>2019-07-07T16:00:50Z</time>
      </trkpt>
      <trkpt lat="44.51733" lon="3.17085">
        <ele>1099.901</ele>
        <time>2019-07-07T16:01:10Z</time>
      </trkpt>
      <trkpt lat="44.51657" lon="3.17106">
        <ele>1098.711</ele>
        <time>2019-07-07T16:01:30Z</time>
      </trkpt>
      <trkpt lat="44.51595" lon="3.17108">
        <ele>1100.008</ele>
        <time>2019-07-07T16:01:50Z</time>
      </trkpt>
      <trkpt lat="44.51539" lon="3.17134">
        <ele>1093.039</ele>
        <time>2019-07-07T16:02:10Z</time>
      </trkpt>
      <trkpt lat="44.51441" lon="3.17129">
        <ele>1083.633</ele>
        <time>2019-07-07T16:02:30Z</time>
      </trkpt>
      <trkpt lat="44.5141" lon="3.17103">
        <ele>1079.837</ele>
        <time>2019-07-07T16:02:50Z</time>
      </trkpt>
      <trkpt lat="44.51407" lon="3.17066">
        <ele>1079.474</ele>
        <time>2019-07-07T16:03:10Z</time>
      </trkpt>
      <trkpt lat="44.51383" lon="3.17036">
        <ele>1076.968</ele>
        <time>2019-07-07T16:03:30Z</time>
      </trkpt>
      <trkpt lat="44.51339" lon="3.17014">
        <ele>1071.615</ele>
        <time>2019-07-07T16:03:50Z</time>
      </trkpt>
      <trkpt lat="44.51289" lon="3.16951">
        <ele>1059.734</ele>
        <time>2019-07-07T16:04:10Z</time>
      </trkpt>
      <trkpt lat="44.51201" lon="3.16888">
        <ele>1039.56</ele>
        <time>2019-07-07T16:04:30Z</time>
      </trkpt>
      <trkpt lat="44.51147" lon="3.16873">
        <ele>1032.328</ele>
        <time>2019-07-07T16:04:50Z</time>
      </trkpt>
      <trkpt lat="44.51109" lon="3.16839">
        <ele>1023.989</ele>
        <time>2019-07-07T16:05:10Z</time>
      </trkpt>
      <trkpt lat="44.51084" lon="3.16834">
        <ele>1022.017</ele>
        <time>2019-07-07T16:05:30Z</time>
      </trkpt>
      <trkpt lat="44.5105" lon="3.16818">
        <ele>1016.908</ele>
        <time>2019-07-07T16:05:50Z</time>
      </trkpt>
      <trkpt lat="44.51014" lon="3.16808">
        <ele>1011.636</ele>
        <time>2019-07-07T16:06:10Z</time>
      </trkpt>
      <trkpt lat="44.50934" lon="3.16716">
        <ele>996.18</ele>
        <time>2019-07-07T16:06:30Z</time>
      </trkpt>
      <trkpt lat="44.50925" lon="3.16676">
        <ele>991.044</ele>
        <time>2019-07-07T16:06:50Z</time>
      </trkpt>
      <trkpt lat="44.50878" lon="3.16637">
        <ele>988.261</ele>
        <time>2019-07-07T16:07:10Z</time>
      </trkpt>
      <trkpt lat="44.50842" lon="3.16581">
        <ele>980.925</ele>
        <time>2019-07-07T16:07:30Z</time>
      </trkpt>
      <trkpt lat="44.50817" lon="3.16608">
        <ele>979.932</ele>
        <time>2019-07-07T16:07:50Z</time>
      </trkpt>
      <trkpt lat="44.50802" lon="3.16679">
        <ele>983.741</ele>
        <time>2019-07-07T16:08:10Z</time>
      </trkpt>
      <trkpt lat="44.50814" lon="3.16789">
        <ele>983.787</ele>
        <time>2019-07-07T16:08:30Z</time>
      </trkpt>
      <trkpt lat="44.50711" lon="3.16803">
        <ele>979.971</ele>
        <time>2019-07-07T16:08:50Z</time>
      </trkpt>
      <trkpt lat="44.50584" lon="3.16794">
        <ele>974.541</ele>
        <time>2019-07-07T16:09:10Z</time>
      </trkpt>
      <trkpt lat="44.50528" lon="3.16806">
        <ele>970.115</ele>
        <time>2019-07-07T16:09:30Z</time>
      </trkpt>
      <trkpt lat="44.50368" lon="3.16873">
        <ele>962.108</ele>
        <time>2019-07-07T16:09:50Z</time>
      </trkpt>
      <trkpt lat="44.50333" lon="3.1692">
        <ele>966.561</ele>
        <time>2019-07-07T16:10:10Z</time>
      </trkpt>
      <trkpt lat="44.50262" lon="3.16974">
        <ele>968.855</ele>
        <time>2019-07-07T16:10:30Z</time>
      </trkpt>
      <trkpt lat="44.50223" lon="3.16968">
        <ele>969.949</ele>
        <time>2019-07-07T16:10:50Z</time>
      </trkpt>
      <trkpt lat="44.50143" lon="3.16939">
        <ele>971.176</ele>
        <time>2019-07-07T16:11:10Z</time>
      </trkpt>
      <trkpt lat="44.49998" lon="3.16925">
        <ele>956.57</ele>
        <time>2019-07-07T16:11:30Z</time>
      </trkpt>
      <trkpt lat="44.49857" lon="3.16888">
        <ele>945.437</ele>
        <time>2019-07-07T16:11:50Z</time>
      </trkpt>
      <trkpt lat="44.49782" lon="3.16853">
        <ele>933.046</ele>
        <time>2019-07-07T16:12:10Z</time>
      </trkpt>
      <trkpt lat="44.49728" lon="3.16838">
        <ele>923.072</ele>
        <time>2019-07-07T16:12:30Z</time>
      </trkpt>
      <trkpt lat="44.49679" lon="3.16784">
        <ele>914.628</ele>
        <time>2019-07-07T16:12:50Z</time>
      </trkpt>
      <trkpt lat="44.49495" lon="3.16782">
        <ele>901.089</ele>
        <time>2019-07-07T16:13:10Z</time>
      </trkpt>
      <trkpt lat="44.49408" lon="3.16759">
        <ele>897.117</ele>
        <time>2019-07-07T16:13:30Z</time>
      </trkpt>
      <trkpt lat="44.49327" lon="3.16745">
        <ele>894.408</ele>
        <time>2019-07-07T16:13:50Z</time>
      </trkpt>
      <trkpt lat="44.49284" lon="3.16714">
        <ele>892.826</ele>
        <time>2019-07-07T16:14:10Z</time>
      </trkpt>
      <trkpt lat="44.49243" lon="3.16641">
        <ele>883.61</ele>
        <time>2019-07-07T16:14:30Z</time>
      </trkpt>
      <trkpt lat="44.49181" lon="3.16602">
        <ele>871.744</ele>
        <time>2019-07-07T16:14:50Z</time>
      </trkpt>
      <trkpt lat="44.49112" lon="3.16724">
        <ele>866.151</ele>
        <time>2019-07-07T16:15:10Z</time>
      </trkpt>
      <trkpt lat="44.4909" lon="3.16831">
        <ele>860.175</ele>
        <time>2019-07-07T16:15:30Z</time>
      </trkpt>
      <trkpt lat="44.49102" lon="3.16909">
        <ele>858.162</ele>
        <time>2019-07-07T16:15:50Z</time>
      </trkpt>
      <trkpt lat="44.49054" lon="3.16921">
        <ele>848.521</ele>
        <time>2019-07-07T16:16:10Z</time>
      </trkpt>
      <trkpt lat="44.4901" lon="3.16951">
        <ele>840.647</ele>
        <time>2019-07-07T16:16:30Z</time>
      </trkpt>
      <trkpt lat="44.49012" lon="3.17008">
        <ele>837.913</ele>
        <time>2019-07-07T16:16:50Z</time>
      </trkpt>
      <trkpt lat="44.48938" lon="3.17219">
        <ele>817.743</ele>
        <time>2019-07-07T16:17:10Z</time>
      </trkpt>
      <trkpt lat="44.48907" lon="3.17202">
        <ele>816.807</ele>
        <time>2019-07-07T16:17:30Z</time>
      </trkpt>
      <trkpt lat="44.48924" lon="3.17235">
        <ele>816.108</ele>
        <time>2019-07-07T16:17:50Z</time>
      </trkpt>
      <trkpt lat="44.48879" lon="3.17254">
        <ele>811.555</ele>
        <time>2019-07-07T16:18:10Z</time>
      </trkpt>
      <trkpt lat="44.48873" lon="3.17271">
        <ele>809.999</ele>
        <time>2019-07-07T16:18:30Z</time>
      </trkpt>
      <trkpt lat="44.48873" lon="3.1732">
        <ele>804.443</ele>
        <time>2019-07-07T16:18:50Z</time>
      </trkpt>
      <trkpt lat="44.48844" lon="3.17406">
        <ele>790.78</ele>
        <time>2019-07-07T16:19:10Z</time>
      </trkpt>
      <trkpt lat="44.4884" lon="3.17442">
        <ele>788.964</ele>
        <time>2019-07-07T16:19:30Z</time>
      </trkpt>
      <trkpt lat="44.48826" lon="3.17439">
        <ele>788.981</ele>
        <time>2019-07-07T16:19:50Z</time>
      </trkpt>
      <trkpt lat="44.48808" lon="3.17398">
        <ele>788.89</ele>
        <time>2019-07-07T16:20:10Z</time>
      </trkpt>
      <trkpt lat="44.48663" lon="3.17289">
        <ele>790.916</ele>
        <time>2019-07-07T16:20:30Z</time>
      </trkpt>
      <trkpt lat="44.48573" lon="3.17282">
        <ele>776.947</ele>
        <time>2019-07-07T16:20:50Z</time>
      </trkpt>
      <trkpt lat="44.48495" lon="3.1721">
        <ele>786.029</ele>
        <time>2019-07-07T16:21:10Z</time>
      </trkpt>
      <trkpt lat="44.48434" lon="3.17186">
        <ele>790.121</ele>
        <time>2019-07-07T16:21:30Z</time>
      </trkpt>
      <trkpt lat="44.48318" lon="3.17087">
        <ele>779.408</ele>
        <time>2019-07-07T16:21:50Z</time>
      </trkpt>
      <trkpt lat="44.48281" lon="3.17033">
        <ele>778.088</ele>
        <time>2019-07-07T16:22:10Z</time>
      </trkpt>
      <trkpt lat="44.48202" lon="3.17">
        <ele>782.892</ele>
        <time>2019-07-07T16:22:30Z</time>
      </trkpt>
      <trkpt lat="44.48132" lon="3.17023">
        <ele>787.086</ele>
        <time>2019-07-07T16:22:50Z</time>
      </trkpt>
      <trkpt lat="44.48104" lon="3.16987">
        <ele>791.933</ele>
        <time>2019-07-07T16:23:10Z</time>
      </trkpt>
      <trkpt lat="44.48077" lon="3.17011">
        <ele>791.677</ele>
        <time>2019-07-07T16:23:30Z</time>
      </trkpt>
      <trkpt lat="44.48038" lon="3.17056">
        <ele>792.974</ele>
        <time>2019-07-07T16:23:50Z</time>
      </trkpt>
      <trkpt lat="44.48035" lon="3.1708">
        <ele>793.883</ele>
        <time>2019-07-07T16:24:10Z</time>
      </trkpt>
      <trkpt lat="44.47995" lon="3.17072">
        <ele>797.169</ele>
        <time>2019-07-07T16:24:30Z</time>
      </trkpt>
      <trkpt lat="44.47984" lon="3.17075">
        <ele>797.431</ele>
        <time>2019-07-07T16:24:50Z</time>
      </trkpt>
      <trkpt lat="44.47953" lon="3.17056">
        <ele>797.761</ele>
        <time>2019-07-07T16:25:10Z</time>
      </trkpt>
      <trkpt lat="44.47865" lon="3.17068">
        <ele>798.807</ele>
        <time>2019-07-07T16:25:30Z</time>
      </trkpt>
    </trkseg>
  </trk>
  <trk>
    <name><![CDATA[Banassac Gare]]></name>
    <extensions>
      <line xmlns="http://www.topografix.com/GPX/gpx_style/0/2">
        <color>00ff33</color>
        <width>4</width>
      </line>
    </extensions>
    <trkseg>
      <trkpt lat="44.47865" lon="3.17068">
        <ele>798.807</ele>
        <time>2019-07-07T16:25:30Z</time>
      </trkpt>
      <trkpt lat="44.47865" lon="3.17068">
        <ele>798.807</ele>
        <time>2019-07-07T16:25:30Z</time>
      </trkpt>
      <trkpt lat="44.47865" lon="3.17068">
        <ele>798.807</ele>
        <time>2019-07-07T16:25:30Z</time>
      </trkpt>
      <trkpt lat="44.47794" lon="3.17162">
        <ele>806.608</ele>
        <time>2019-07-07T16:25:50Z</time>
      </trkpt>
      <trkpt lat="44.47722" lon="3.17182">
        <ele>805.977</ele>
        <time>2019-07-07T16:26:10Z</time>
      </trkpt>
      <trkpt lat="44.47642" lon="3.17173">
        <ele>802.891</ele>
        <time>2019-07-07T16:26:30Z</time>
      </trkpt>
      <trkpt lat="44.47593" lon="3.17158">
        <ele>798.365</ele>
        <time>2019-07-07T16:26:50Z</time>
      </trkpt>
      <trkpt lat="44.47566" lon="3.17115">
        <ele>798.042</ele>
        <time>2019-07-07T16:27:10Z</time>
      </trkpt>
      <trkpt lat="44.4744" lon="3.17003">
        <ele>790.416</ele>
        <time>2019-07-07T16:27:30Z</time>
      </trkpt>
      <trkpt lat="44.47337" lon="3.16941">
        <ele>783.083</ele>
        <time>2019-07-07T16:27:50Z</time>
      </trkpt>
      <trkpt lat="44.47245" lon="3.16885">
        <ele>775.892</ele>
        <time>2019-07-07T16:28:10Z</time>
      </trkpt>
      <trkpt lat="44.47108" lon="3.16853">
        <ele>772.158</ele>
        <time>2019-07-07T16:28:30Z</time>
      </trkpt>
      <trkpt lat="44.4702" lon="3.1682">
        <ele>768.383</ele>
        <time>2019-07-07T16:28:50Z</time>
      </trkpt>
      <trkpt lat="44.46925" lon="3.16767">
        <ele>768.425</ele>
        <time>2019-07-07T16:29:10Z</time>
      </trkpt>
      <trkpt lat="44.46874" lon="3.16751">
        <ele>769.517</ele>
        <time>2019-07-07T16:29:30Z</time>
      </trkpt>
      <trkpt lat="44.46866" lon="3.16738">
        <ele>770.608</ele>
        <time>2019-07-07T16:29:50Z</time>
      </trkpt>
      <trkpt lat="44.46825" lon="3.16726">
        <ele>773.972</ele>
        <time>2019-07-07T16:30:10Z</time>
      </trkpt>
      <trkpt lat="44.46773" lon="3.16745">
        <ele>771.936</ele>
        <time>2019-07-07T16:30:30Z</time>
      </trkpt>
      <trkpt lat="44.46744" lon="3.16794">
        <ele>773.71</ele>
        <time>2019-07-07T16:30:50Z</time>
      </trkpt>
      <trkpt lat="44.46714" lon="3.16868">
        <ele>776.437</ele>
        <time>2019-07-07T16:31:10Z</time>
      </trkpt>
      <trkpt lat="44.46674" lon="3.16904">
        <ele>781.471</ele>
        <time>2019-07-07T16:31:30Z</time>
      </trkpt>
      <trkpt lat="44.46646" lon="3.16917">
        <ele>782.228</ele>
        <time>2019-07-07T16:31:50Z</time>
      </trkpt>
      <trkpt lat="44.46593" lon="3.16922">
        <ele>796.567</ele>
        <time>2019-07-07T16:32:10Z</time>
      </trkpt>
      <trkpt lat="44.46592" lon="3.17016">
        <ele>794.933</ele>
        <time>2019-07-07T16:32:30Z</time>
      </trkpt>
      <trkpt lat="44.4657" lon="3.17046">
        <ele>798.293</ele>
        <time>2019-07-07T16:32:50Z</time>
      </trkpt>
      <trkpt lat="44.46512" lon="3.16997">
        <ele>817.365</ele>
        <time>2019-07-07T16:33:10Z</time>
      </trkpt>
      <trkpt lat="44.46476" lon="3.17018">
        <ele>822.121</ele>
        <time>2019-07-07T16:33:30Z</time>
      </trkpt>
      <trkpt lat="44.4642" lon="3.17076">
        <ele>827.008</ele>
        <time>2019-07-07T16:33:50Z</time>
      </trkpt>
      <trkpt lat="44.46353" lon="3.17117">
        <ele>840.213</ele>
        <time>2019-07-07T16:34:10Z</time>
      </trkpt>
      <trkpt lat="44.46302" lon="3.17115">
        <ele>846.567</ele>
        <time>2019-07-07T16:34:30Z</time>
      </trkpt>
      <trkpt lat="44.46265" lon="3.16967">
        <ele>858.161</ele>
        <time>2019-07-07T16:34:50Z</time>
      </trkpt>
      <trkpt lat="44.46342" lon="3.16887">
        <ele>863.378</ele>
        <time>2019-07-07T16:35:10Z</time>
      </trkpt>
      <trkpt lat="44.46345" lon="3.16863">
        <ele>859.782</ele>
        <time>2019-07-07T16:35:30Z</time>
      </trkpt>
      <trkpt lat="44.46248" lon="3.16842">
        <ele>846.899</ele>
        <time>2019-07-07T16:35:50Z</time>
      </trkpt>
      <trkpt lat="44.4605" lon="3.16728">
        <ele>818.458</ele>
        <time>2019-07-07T16:36:10Z</time>
      </trkpt>
      <trkpt lat="44.46018" lon="3.167">
        <ele>815.494</ele>
        <time>2019-07-07T16:36:30Z</time>
      </trkpt>
      <trkpt lat="44.4592" lon="3.16689">
        <ele>800.371</ele>
        <time>2019-07-07T16:36:50Z</time>
      </trkpt>
      <trkpt lat="44.45869" lon="3.16752">
        <ele>793.841</ele>
        <time>2019-07-07T16:37:10Z</time>
      </trkpt>
      <trkpt lat="44.45889" lon="3.16947">
        <ele>809.115</ele>
        <time>2019-07-07T16:37:30Z</time>
      </trkpt>
      <trkpt lat="44.45868" lon="3.17068">
        <ele>808.708</ele>
        <time>2019-07-07T16:37:50Z</time>
      </trkpt>
      <trkpt lat="44.4586" lon="3.17214">
        <ele>811.541</ele>
        <time>2019-07-07T16:38:10Z</time>
      </trkpt>
      <trkpt lat="44.45837" lon="3.17315">
        <ele>809.655</ele>
        <time>2019-07-07T16:38:30Z</time>
      </trkpt>
      <trkpt lat="44.45786" lon="3.17341">
        <ele>810.029</ele>
        <time>2019-07-07T16:38:50Z</time>
      </trkpt>
      <trkpt lat="44.45702" lon="3.17318">
        <ele>805.126</ele>
        <time>2019-07-07T16:39:10Z</time>
      </trkpt>
      <trkpt lat="44.45541" lon="3.17343">
        <ele>786.37</ele>
        <time>2019-07-07T16:39:30Z</time>
      </trkpt>
      <trkpt lat="44.45429" lon="3.17219">
        <ele>765.657</ele>
        <time>2019-07-07T16:39:50Z</time>
      </trkpt>
      <trkpt lat="44.45392" lon="3.17294">
        <ele>766.916</ele>
        <time>2019-07-07T16:40:10Z</time>
      </trkpt>
      <trkpt lat="44.45388" lon="3.17404">
        <ele>766.892</ele>
        <time>2019-07-07T16:40:30Z</time>
      </trkpt>
      <trkpt lat="44.45401" lon="3.17488">
        <ele>763.125</ele>
        <time>2019-07-07T16:40:50Z</time>
      </trkpt>
      <trkpt lat="44.45429" lon="3.17573">
        <ele>755.026</ele>
        <time>2019-07-07T16:41:10Z</time>
      </trkpt>
      <trkpt lat="44.45454" lon="3.17591">
        <ele>753.608</ele>
        <time>2019-07-07T16:41:30Z</time>
      </trkpt>
      <trkpt lat="44.45461" lon="3.17688">
        <ele>744.608</ele>
        <time>2019-07-07T16:41:50Z</time>
      </trkpt>
      <trkpt lat="44.45446" lon="3.17767">
        <ele>747.846</ele>
        <time>2019-07-07T16:42:10Z</time>
      </trkpt>
      <trkpt lat="44.45414" lon="3.17791">
        <ele>740.56</ele>
        <time>2019-07-07T16:42:30Z</time>
      </trkpt>
      <trkpt lat="44.45408" lon="3.17823">
        <ele>739.884</ele>
        <time>2019-07-07T16:42:50Z</time>
      </trkpt>
      <trkpt lat="44.45328" lon="3.17856">
        <ele>739.171</ele>
        <time>2019-07-07T16:43:10Z</time>
      </trkpt>
      <trkpt lat="44.45229" lon="3.17898">
        <ele>732.685</ele>
        <time>2019-07-07T16:43:30Z</time>
      </trkpt>
      <trkpt lat="44.45145" lon="3.17974">
        <ele>725.922</ele>
        <time>2019-07-07T16:43:50Z</time>
      </trkpt>
      <trkpt lat="44.45072" lon="3.18028">
        <ele>718.091</ele>
        <time>2019-07-07T16:44:10Z</time>
      </trkpt>
      <trkpt lat="44.44973" lon="3.18112">
        <ele>703.977</ele>
        <time>2019-07-07T16:44:30Z</time>
      </trkpt>
      <trkpt lat="44.44885" lon="3.18127">
        <ele>696.871</ele>
        <time>2019-07-07T16:44:50Z</time>
      </trkpt>
      <trkpt lat="44.44872" lon="3.18084">
        <ele>694.741</ele>
        <time>2019-07-07T16:45:10Z</time>
      </trkpt>
      <trkpt lat="44.44896" lon="3.17965">
        <ele>685.615</ele>
        <time>2019-07-07T16:45:30Z</time>
      </trkpt>
      <trkpt lat="44.44892" lon="3.17898">
        <ele>679.508</ele>
        <time>2019-07-07T16:45:50Z</time>
      </trkpt>
      <trkpt lat="44.44849" lon="3.17901">
        <ele>686.741</ele>
        <time>2019-07-07T16:46:10Z</time>
      </trkpt>
      <trkpt lat="44.44798" lon="3.17778">
        <ele>683.575</ele>
        <time>2019-07-07T16:46:30Z</time>
      </trkpt>
      <trkpt lat="44.44766" lon="3.17767">
        <ele>684.149</ele>
        <time>2019-07-07T16:46:50Z</time>
      </trkpt>
      <trkpt lat="44.44646" lon="3.1787">
        <ele>663.546</ele>
        <time>2019-07-07T16:47:10Z</time>
      </trkpt>
      <trkpt lat="44.44602" lon="3.17969">
        <ele>656.33</ele>
        <time>2019-07-07T16:47:30Z</time>
      </trkpt>
      <trkpt lat="44.4449" lon="3.18086">
        <ele>642.327</ele>
        <time>2019-07-07T16:47:50Z</time>
      </trkpt>
      <trkpt lat="44.44454" lon="3.18137">
        <ele>638.426</ele>
        <time>2019-07-07T16:48:10Z</time>
      </trkpt>
      <trkpt lat="44.44381" lon="3.18198">
        <ele>631.112</ele>
        <time>2019-07-07T16:48:30Z</time>
      </trkpt>
      <trkpt lat="44.4434" lon="3.18204">
        <ele>623.866</ele>
        <time>2019-07-07T16:48:50Z</time>
      </trkpt>
      <trkpt lat="44.44322" lon="3.1826">
        <ele>621.429</ele>
        <time>2019-07-07T16:49:10Z</time>
      </trkpt>
      <trkpt lat="44.44272" lon="3.18353">
        <ele>606.921</ele>
        <time>2019-07-07T16:49:30Z</time>
      </trkpt>
      <trkpt lat="44.44257" lon="3.184">
        <ele>599.208</ele>
        <time>2019-07-07T16:49:50Z</time>
      </trkpt>
      <trkpt lat="44.44241" lon="3.18424">
        <ele>593.41</ele>
        <time>2019-07-07T16:50:10Z</time>
      </trkpt>
      <trkpt lat="44.44232" lon="3.18482">
        <ele>588.434</ele>
        <time>2019-07-07T16:50:30Z</time>
      </trkpt>
      <trkpt lat="44.44253" lon="3.18523">
        <ele>589.958</ele>
        <time>2019-07-07T16:50:50Z</time>
      </trkpt>
      <trkpt lat="44.44268" lon="3.18619">
        <ele>584.585</ele>
        <time>2019-07-07T16:51:10Z</time>
      </trkpt>
      <trkpt lat="44.44306" lon="3.18658">
        <ele>587.879</ele>
        <time>2019-07-07T16:51:30Z</time>
      </trkpt>
      <trkpt lat="44.44321" lon="3.18736">
        <ele>582.096</ele>
        <time>2019-07-07T16:51:50Z</time>
      </trkpt>
      <trkpt lat="44.44312" lon="3.18764">
        <ele>580.265</ele>
        <time>2019-07-07T16:52:10Z</time>
      </trkpt>
      <trkpt lat="44.44286" lon="3.18774">
        <ele>574.831</ele>
        <time>2019-07-07T16:52:30Z</time>
      </trkpt>
      <trkpt lat="44.44313" lon="3.18884">
        <ele>582.485</ele>
        <time>2019-07-07T16:52:50Z</time>
      </trkpt>
      <trkpt lat="44.44376" lon="3.19011">
        <ele>588.089</ele>
        <time>2019-07-07T16:53:10Z</time>
      </trkpt>
      <trkpt lat="44.44414" lon="3.19108">
        <ele>584.817</ele>
        <time>2019-07-07T16:53:30Z</time>
      </trkpt>
      <trkpt lat="44.44449" lon="3.19211">
        <ele>585.408</ele>
        <time>2019-07-07T16:53:50Z</time>
      </trkpt>
      <trkpt lat="44.44494" lon="3.19314">
        <ele>588.032</ele>
        <time>2019-07-07T16:54:10Z</time>
      </trkpt>
      <trkpt lat="44.44416" lon="3.19289">
        <ele>574.996</ele>
        <time>2019-07-07T16:54:30Z</time>
      </trkpt>
      <trkpt lat="44.4428" lon="3.19334">
        <ele>543.16</ele>
        <time>2019-07-07T16:54:50Z</time>
      </trkpt>
      <trkpt lat="44.4418" lon="3.1934">
        <ele>531.657</ele>
        <time>2019-07-07T16:55:10Z</time>
      </trkpt>
      <trkpt lat="44.44142" lon="3.19323">
        <ele>529.741</ele>
        <time>2019-07-07T16:55:30Z</time>
      </trkpt>
      <trkpt lat="44.44182" lon="3.1939">
        <ele>526.558</ele>
        <time>2019-07-07T16:55:50Z</time>
      </trkpt>
      <trkpt lat="44.44285" lon="3.19513">
        <ele>529.027</ele>
        <time>2019-07-07T16:56:10Z</time>
      </trkpt>
      <trkpt lat="44.44338" lon="3.19612">
        <ele>534.063</ele>
        <time>2019-07-07T16:56:30Z</time>
      </trkpt>
      <trkpt lat="44.44411" lon="3.19684">
        <ele>539.2</ele>
      </trkpt>
      <trkpt lat="44.44474" lon="3.19711">
        <ele>538.5</ele>
      </trkpt>
      <trkpt lat="44.44543" lon="3.19708">
        <ele>537.1</ele>
      </trkpt>
      <trkpt lat="44.44598" lon="3.19669">
        <ele>538.8</ele>
      </trkpt>
      <trkpt lat="44.4466" lon="3.19623">
        <ele>537.7</ele>
      </trkpt>
      <trkpt lat="44.44717" lon="3.19575">
        <ele>536.6</ele>
      </trkpt>
      <trkpt lat="44.4476" lon="3.1956">
        <ele>533</ele>
      </trkpt>
    </trkseg>
  </trk>
  <trk>
    <name><![CDATA[Le Gazy]]></name>
    <extensions>
      <line xmlns="http://www.topografix.com/GPX/gpx_style/0/2">
        <color>00fbff</color>
        <width>4</width>
      </line>
    </extensions>
    <trkseg>
      <trkpt lat="44.44766" lon="3.19525">
        <ele>536.2</ele>
      </trkpt>
      <trkpt lat="44.44766" lon="3.19525">
        <ele>536.2</ele>
      </trkpt>
      <trkpt lat="44.44766" lon="3.19525">
        <ele>536.2</ele>
      </trkpt>
      <trkpt lat="44.44687" lon="3.19566">
        <ele>542.1</ele>
      </trkpt>
      <trkpt lat="44.44618" lon="3.1963">
        <ele>545.4</ele>
      </trkpt>
      <trkpt lat="44.44507" lon="3.19686">
        <ele>546.8</ele>
      </trkpt>
      <trkpt lat="44.44454" lon="3.19676">
        <ele>545.3</ele>
      </trkpt>
      <trkpt lat="44.44338" lon="3.19612">
        <ele>534.063</ele>
        <time>2019-07-07T16:56:30Z</time>
      </trkpt>
      <trkpt lat="44.44333" lon="3.19693">
        <ele>528.132</ele>
        <time>2019-07-07T16:56:50Z</time>
      </trkpt>
      <trkpt lat="44.44245" lon="3.19878">
        <ele>530.992</ele>
        <time>2019-07-07T16:57:10Z</time>
      </trkpt>
      <trkpt lat="44.44034" lon="3.19803">
        <ele>525.211</ele>
        <time>2019-07-07T16:57:30Z</time>
      </trkpt>
      <trkpt lat="44.4399" lon="3.19814">
        <ele>525.308</ele>
        <time>2019-07-07T16:57:50Z</time>
      </trkpt>
      <trkpt lat="44.43953" lon="3.1985">
        <ele>525.587</ele>
        <time>2019-07-07T16:58:10Z</time>
      </trkpt>
      <trkpt lat="44.43745" lon="3.19971">
        <ele>533.231</ele>
        <time>2019-07-07T16:58:30Z</time>
      </trkpt>
      <trkpt lat="44.43602" lon="3.20231">
        <ele>541.735</ele>
        <time>2019-07-07T16:58:50Z</time>
      </trkpt>
      <trkpt lat="44.4343" lon="3.20565">
        <ele>551.172</ele>
        <time>2019-07-07T16:59:10Z</time>
      </trkpt>
      <trkpt lat="44.43379" lon="3.20733">
        <ele>552.776</ele>
        <time>2019-07-07T16:59:30Z</time>
      </trkpt>
      <trkpt lat="44.43345" lon="3.20922">
        <ele>555.393</ele>
        <time>2019-07-07T16:59:50Z</time>
      </trkpt>
      <trkpt lat="44.43355" lon="3.21357">
        <ele>557.522</ele>
        <time>2019-07-07T17:00:10Z</time>
      </trkpt>
      <trkpt lat="44.43322" lon="3.21411">
        <ele>559.138</ele>
        <time>2019-07-07T17:00:30Z</time>
      </trkpt>
      <trkpt lat="44.43322" lon="3.21411">
        <ele>559.138</ele>
        <time>2019-07-07T17:00:30Z</time>
      </trkpt>
      <trkpt lat="44.43322" lon="3.21411">
        <ele>559.138</ele>
        <time>2019-07-07T17:00:30Z</time>
      </trkpt>
      <trkpt lat="44.43301" lon="3.21424">
        <ele>560.999</ele>
        <time>2019-07-07T17:00:50Z</time>
      </trkpt>
      <trkpt lat="44.43313" lon="3.21456">
        <ele>562.207</ele>
        <time>2019-07-07T17:01:10Z</time>
      </trkpt>
      <trkpt lat="44.43341" lon="3.21462">
        <ele>560.727</ele>
        <time>2019-07-07T17:01:30Z</time>
      </trkpt>
      <trkpt lat="44.43377" lon="3.21493">
        <ele>562.108</ele>
        <time>2019-07-07T17:01:50Z</time>
      </trkpt>
      <trkpt lat="44.43409" lon="3.21499">
        <ele>565.153</ele>
        <time>2019-07-07T17:02:10Z</time>
      </trkpt>
      <trkpt lat="44.43461" lon="3.21535">
        <ele>570.247</ele>
        <time>2019-07-07T17:02:30Z</time>
      </trkpt>
      <trkpt lat="44.43546" lon="3.2163">
        <ele>569.561</ele>
        <time>2019-07-07T17:02:50Z</time>
      </trkpt>
      <trkpt lat="44.43563" lon="3.21671">
        <ele>572.988</ele>
        <time>2019-07-07T17:03:10Z</time>
      </trkpt>
      <trkpt lat="44.43595" lon="3.21701">
        <ele>578.812</ele>
        <time>2019-07-07T17:03:30Z</time>
      </trkpt>
      <trkpt lat="44.43749" lon="3.21762">
        <ele>599.699</ele>
        <time>2019-07-07T17:03:50Z</time>
      </trkpt>
      <trkpt lat="44.43812" lon="3.21794">
        <ele>615.458</ele>
        <time>2019-07-07T17:04:10Z</time>
      </trkpt>
      <trkpt lat="44.43881" lon="3.21818">
        <ele>609.844</ele>
        <time>2019-07-07T17:04:30Z</time>
      </trkpt>
      <trkpt lat="44.43966" lon="3.2197">
        <ele>622.565</ele>
        <time>2019-07-07T17:04:50Z</time>
      </trkpt>
      <trkpt lat="44.43968" lon="3.22138">
        <ele>651.768</ele>
        <time>2019-07-07T17:05:10Z</time>
      </trkpt>
      <trkpt lat="44.43993" lon="3.22295">
        <ele>670.214</ele>
        <time>2019-07-07T17:05:30Z</time>
      </trkpt>
      <trkpt lat="44.43966" lon="3.22257">
        <ele>681.808</ele>
        <time>2019-07-07T17:05:50Z</time>
      </trkpt>
      <trkpt lat="44.43974" lon="3.22325">
        <ele>682.32</ele>
        <time>2019-07-07T17:06:10Z</time>
      </trkpt>
      <trkpt lat="44.43957" lon="3.2239">
        <ele>696.524</ele>
        <time>2019-07-07T17:06:30Z</time>
      </trkpt>
      <trkpt lat="44.4395" lon="3.22465">
        <ele>702.788</ele>
        <time>2019-07-07T17:06:50Z</time>
      </trkpt>
      <trkpt lat="44.43929" lon="3.22355">
        <ele>714.615</ele>
        <time>2019-07-07T17:07:10Z</time>
      </trkpt>
      <trkpt lat="44.43926" lon="3.22472">
        <ele>715.999</ele>
        <time>2019-07-07T17:07:30Z</time>
      </trkpt>
      <trkpt lat="44.4396" lon="3.2259">
        <ele>724.486</ele>
        <time>2019-07-07T17:07:50Z</time>
      </trkpt>
      <trkpt lat="44.43982" lon="3.22635">
        <ele>726.485</ele>
        <time>2019-07-07T17:08:10Z</time>
      </trkpt>
      <trkpt lat="44.43981" lon="3.2276">
        <ele>735.221</ele>
        <time>2019-07-07T17:08:30Z</time>
      </trkpt>
      <trkpt lat="44.43969" lon="3.2288">
        <ele>737.671</ele>
        <time>2019-07-07T17:08:50Z</time>
      </trkpt>
      <trkpt lat="44.43977" lon="3.23072">
        <ele>746.341</ele>
        <time>2019-07-07T17:09:10Z</time>
      </trkpt>
      <trkpt lat="44.43954" lon="3.23139">
        <ele>746.015</ele>
        <time>2019-07-07T17:09:30Z</time>
      </trkpt>
      <trkpt lat="44.43929" lon="3.23208">
        <ele>742.908</ele>
        <time>2019-07-07T17:09:50Z</time>
      </trkpt>
      <trkpt lat="44.4395" lon="3.23375">
        <ele>753.271</ele>
        <time>2019-07-07T17:10:10Z</time>
      </trkpt>
      <trkpt lat="44.43981" lon="3.23526">
        <ele>762.565</ele>
        <time>2019-07-07T17:10:30Z</time>
      </trkpt>
      <trkpt lat="44.43933" lon="3.23724">
        <ele>784.199</ele>
        <time>2019-07-07T17:10:50Z</time>
      </trkpt>
      <trkpt lat="44.43945" lon="3.23797">
        <ele>794.866</ele>
        <time>2019-07-07T17:11:10Z</time>
      </trkpt>
      <trkpt lat="44.43945" lon="3.23868">
        <ele>795.89</ele>
        <time>2019-07-07T17:11:30Z</time>
      </trkpt>
      <trkpt lat="44.4397" lon="3.23909">
        <ele>798.787</ele>
        <time>2019-07-07T17:11:50Z</time>
      </trkpt>
      <trkpt lat="44.43941" lon="3.23974">
        <ele>801.376</ele>
        <time>2019-07-07T17:12:10Z</time>
      </trkpt>
      <trkpt lat="44.43908" lon="3.24215">
        <ele>812.752</ele>
        <time>2019-07-07T17:12:30Z</time>
      </trkpt>
      <trkpt lat="44.43946" lon="3.24099">
        <ele>812.645</ele>
        <time>2019-07-07T17:12:50Z</time>
      </trkpt>
      <trkpt lat="44.44014" lon="3.24013">
        <ele>808.747</ele>
        <time>2019-07-07T17:13:10Z</time>
      </trkpt>
      <trkpt lat="44.44126" lon="3.23946">
        <ele>811.311</ele>
        <time>2019-07-07T17:13:30Z</time>
      </trkpt>
      <trkpt lat="44.44177" lon="3.23879">
        <ele>810.308</ele>
        <time>2019-07-07T17:13:50Z</time>
      </trkpt>
      <trkpt lat="44.44274" lon="3.2381">
        <ele>806.268</ele>
        <time>2019-07-07T17:14:10Z</time>
      </trkpt>
      <trkpt lat="44.44301" lon="3.23856">
        <ele>813.422</ele>
        <time>2019-07-07T17:14:30Z</time>
      </trkpt>
      <trkpt lat="44.44333" lon="3.23883">
        <ele>816.646</ele>
        <time>2019-07-07T17:14:50Z</time>
      </trkpt>
      <trkpt lat="44.4434" lon="3.23991">
        <ele>830.533</ele>
        <time>2019-07-07T17:15:10Z</time>
      </trkpt>
      <trkpt lat="44.44432" lon="3.24219">
        <ele>848.197</ele>
        <time>2019-07-07T17:15:30Z</time>
      </trkpt>
      <trkpt lat="44.44476" lon="3.24342">
        <ele>859.874</ele>
        <time>2019-07-07T17:15:50Z</time>
      </trkpt>
      <trkpt lat="44.44493" lon="3.24443">
        <ele>869.643</ele>
        <time>2019-07-07T17:16:10Z</time>
      </trkpt>
      <trkpt lat="44.4447" lon="3.24484">
        <ele>870.979</ele>
        <time>2019-07-07T17:16:30Z</time>
      </trkpt>
      <trkpt lat="44.44477" lon="3.24568">
        <ele>874.161</ele>
        <time>2019-07-07T17:16:50Z</time>
      </trkpt>
      <trkpt lat="44.44501" lon="3.24643">
        <ele>877.221</ele>
        <time>2019-07-07T17:17:10Z</time>
      </trkpt>
      <trkpt lat="44.44516" lon="3.24665">
        <ele>879.313</ele>
        <time>2019-07-07T17:17:30Z</time>
      </trkpt>
      <trkpt lat="44.44553" lon="3.24863">
        <ele>879.508</ele>
        <time>2019-07-07T17:17:50Z</time>
      </trkpt>
      <trkpt lat="44.4456" lon="3.24942">
        <ele>878.15</ele>
        <time>2019-07-07T17:18:10Z</time>
      </trkpt>
      <trkpt lat="44.44586" lon="3.25005">
        <ele>874.864</ele>
        <time>2019-07-07T17:18:30Z</time>
      </trkpt>
      <trkpt lat="44.44581" lon="3.25097">
        <ele>877.918</ele>
        <time>2019-07-07T17:18:50Z</time>
      </trkpt>
      <trkpt lat="44.44602" lon="3.252">
        <ele>871.745</ele>
        <time>2019-07-07T17:19:10Z</time>
      </trkpt>
      <trkpt lat="44.44624" lon="3.25246">
        <ele>868.159</ele>
        <time>2019-07-07T17:19:30Z</time>
      </trkpt>
      <trkpt lat="44.44633" lon="3.25321">
        <ele>870.996</ele>
        <time>2019-07-07T17:19:50Z</time>
      </trkpt>
      <trkpt lat="44.44656" lon="3.25347">
        <ele>869.325</ele>
        <time>2019-07-07T17:20:10Z</time>
      </trkpt>
      <trkpt lat="44.44674" lon="3.25383">
        <ele>870.721</ele>
        <time>2019-07-07T17:20:30Z</time>
      </trkpt>
      <trkpt lat="44.44748" lon="3.25491">
        <ele>867.338</ele>
        <time>2019-07-07T17:20:50Z</time>
      </trkpt>
      <trkpt lat="44.448" lon="3.25506">
        <ele>857.47</ele>
        <time>2019-07-07T17:21:10Z</time>
      </trkpt>
      <trkpt lat="44.44849" lon="3.25633">
        <ele>850.717</ele>
        <time>2019-07-07T17:21:30Z</time>
      </trkpt>
      <trkpt lat="44.44884" lon="3.2581">
        <ele>850.208</ele>
        <time>2019-07-07T17:21:50Z</time>
      </trkpt>
      <trkpt lat="44.44898" lon="3.25924">
        <ele>850.117</ele>
        <time>2019-07-07T17:22:10Z</time>
      </trkpt>
      <trkpt lat="44.44881" lon="3.26087">
        <ele>864.931</ele>
        <time>2019-07-07T17:22:30Z</time>
      </trkpt>
      <trkpt lat="44.45068" lon="3.26373">
        <ele>887.425</ele>
        <time>2019-07-07T17:22:50Z</time>
      </trkpt>
      <trkpt lat="44.4509" lon="3.26526">
        <ele>885.522</ele>
        <time>2019-07-07T17:23:10Z</time>
      </trkpt>
      <trkpt lat="44.45148" lon="3.26604">
        <ele>878.966</ele>
        <time>2019-07-07T17:23:30Z</time>
      </trkpt>
      <trkpt lat="44.45156" lon="3.2664">
        <ele>876.193</ele>
        <time>2019-07-07T17:23:50Z</time>
      </trkpt>
      <trkpt lat="44.45105" lon="3.26728">
        <ele>873.332</ele>
        <time>2019-07-07T17:24:10Z</time>
      </trkpt>
      <trkpt lat="44.45092" lon="3.26802">
        <ele>858.018</ele>
        <time>2019-07-07T17:24:30Z</time>
      </trkpt>
      <trkpt lat="44.45065" lon="3.26825">
        <ele>856.021</ele>
        <time>2019-07-07T17:24:50Z</time>
      </trkpt>
      <trkpt lat="44.45033" lon="3.2683">
        <ele>859.741</ele>
        <time>2019-07-07T17:25:10Z</time>
      </trkpt>
      <trkpt lat="44.45006" lon="3.26881">
        <ele>856.805</ele>
        <time>2019-07-07T17:25:30Z</time>
      </trkpt>
      <trkpt lat="44.44996" lon="3.2695">
        <ele>854.408</ele>
        <time>2019-07-07T17:25:50Z</time>
      </trkpt>
      <trkpt lat="44.45006" lon="3.2714">
        <ele>845.936</ele>
        <time>2019-07-07T17:26:10Z</time>
      </trkpt>
      <trkpt lat="44.44977" lon="3.27288">
        <ele>835.16</ele>
        <time>2019-07-07T17:26:30Z</time>
      </trkpt>
      <trkpt lat="44.44968" lon="3.27452">
        <ele>829.894</ele>
        <time>2019-07-07T17:26:50Z</time>
      </trkpt>
      <trkpt lat="44.44978" lon="3.27723">
        <ele>817.741</ele>
        <time>2019-07-07T17:27:10Z</time>
      </trkpt>
      <trkpt lat="44.44966" lon="3.27904">
        <ele>818.185</ele>
        <time>2019-07-07T17:27:30Z</time>
      </trkpt>
      <trkpt lat="44.44926" lon="3.27985">
        <ele>821.182</ele>
        <time>2019-07-07T17:27:50Z</time>
      </trkpt>
      <trkpt lat="44.44861" lon="3.28144">
        <ele>822.051</ele>
        <time>2019-07-07T17:28:10Z</time>
      </trkpt>
      <trkpt lat="44.4483" lon="3.28314">
        <ele>817.997</ele>
        <time>2019-07-07T17:28:30Z</time>
      </trkpt>
      <trkpt lat="44.44814" lon="3.28427">
        <ele>819.799</ele>
        <time>2019-07-07T17:28:50Z</time>
      </trkpt>
      <trkpt lat="44.44786" lon="3.28504">
        <ele>820.107</ele>
        <time>2019-07-07T17:29:10Z</time>
      </trkpt>
      <trkpt lat="44.44726" lon="3.28538">
        <ele>818.827</ele>
        <time>2019-07-07T17:29:30Z</time>
      </trkpt>
      <trkpt lat="44.44613" lon="3.28568">
        <ele>817.808</ele>
        <time>2019-07-07T17:29:50Z</time>
      </trkpt>
      <trkpt lat="44.44554" lon="3.28543">
        <ele>822.323</ele>
        <time>2019-07-07T17:30:10Z</time>
      </trkpt>
      <trkpt lat="44.44509" lon="3.28553">
        <ele>826.047</ele>
        <time>2019-07-07T17:30:30Z</time>
      </trkpt>
      <trkpt lat="44.4443" lon="3.28594">
        <ele>827.191</ele>
        <time>2019-07-07T17:30:50Z</time>
      </trkpt>
      <trkpt lat="44.44317" lon="3.28605">
        <ele>830.088</ele>
        <time>2019-07-07T17:31:10Z</time>
      </trkpt>
      <trkpt lat="44.44162" lon="3.28685">
        <ele>827.792</ele>
        <time>2019-07-07T17:31:30Z</time>
      </trkpt>
      <trkpt lat="44.4412" lon="3.28728">
        <ele>829.019</ele>
        <time>2019-07-07T17:31:50Z</time>
      </trkpt>
      <trkpt lat="44.44094" lon="3.28788">
        <ele>827.268</ele>
        <time>2019-07-07T17:32:10Z</time>
      </trkpt>
      <trkpt lat="44.44088" lon="3.28872">
        <ele>830.344</ele>
        <time>2019-07-07T17:32:30Z</time>
      </trkpt>
      <trkpt lat="44.4406" lon="3.28922">
        <ele>834.291</ele>
        <time>2019-07-07T17:32:50Z</time>
      </trkpt>
      <trkpt lat="44.44044" lon="3.28999">
        <ele>841.281</ele>
        <time>2019-07-07T17:33:10Z</time>
      </trkpt>
      <trkpt lat="44.44064" lon="3.291">
        <ele>841.019</ele>
        <time>2019-07-07T17:33:30Z</time>
      </trkpt>
      <trkpt lat="44.44045" lon="3.29195">
        <ele>840.908</ele>
        <time>2019-07-07T17:33:50Z</time>
      </trkpt>
      <trkpt lat="44.44053" lon="3.29244">
        <ele>844.593</ele>
        <time>2019-07-07T17:34:10Z</time>
      </trkpt>
      <trkpt lat="44.44028" lon="3.29361">
        <ele>844.067</ele>
        <time>2019-07-07T17:34:30Z</time>
      </trkpt>
      <trkpt lat="44.43941" lon="3.29354">
        <ele>851.931</ele>
        <time>2019-07-07T17:34:50Z</time>
      </trkpt>
      <trkpt lat="44.43894" lon="3.29375">
        <ele>853.418</ele>
        <time>2019-07-07T17:35:10Z</time>
      </trkpt>
      <trkpt lat="44.43873" lon="3.29436">
        <ele>848.642</ele>
        <time>2019-07-07T17:35:30Z</time>
      </trkpt>
      <trkpt lat="44.43852" lon="3.29537">
        <ele>852.169</ele>
        <time>2019-07-07T17:35:50Z</time>
      </trkpt>
      <trkpt lat="44.43826" lon="3.29588">
        <ele>857.518</ele>
        <time>2019-07-07T17:36:10Z</time>
      </trkpt>
      <trkpt lat="44.43758" lon="3.29595">
        <ele>860.374</ele>
        <time>2019-07-07T17:36:30Z</time>
      </trkpt>
      <trkpt lat="44.43705" lon="3.29632">
        <ele>857.565</ele>
        <time>2019-07-07T17:36:50Z</time>
      </trkpt>
      <trkpt lat="44.43699" lon="3.29711">
        <ele>856.768</ele>
        <time>2019-07-07T17:37:10Z</time>
      </trkpt>
      <trkpt lat="44.43734" lon="3.29819">
        <ele>846.314</ele>
        <time>2019-07-07T17:37:30Z</time>
      </trkpt>
      <trkpt lat="44.43794" lon="3.29907">
        <ele>839.008</ele>
        <time>2019-07-07T17:37:50Z</time>
      </trkpt>
      <trkpt lat="44.43834" lon="3.29933">
        <ele>837.22</ele>
        <time>2019-07-07T17:38:10Z</time>
      </trkpt>
      <trkpt lat="44.43884" lon="3.29987">
        <ele>839.564</ele>
        <time>2019-07-07T17:38:30Z</time>
      </trkpt>
      <trkpt lat="44.43886" lon="3.30079">
        <ele>844.878</ele>
        <time>2019-07-07T17:38:50Z</time>
      </trkpt>
      <trkpt lat="44.43944" lon="3.30292">
        <ele>853.495</ele>
        <time>2019-07-07T17:39:10Z</time>
      </trkpt>
    </trkseg>
  </trk>
  <trk>
    <name><![CDATA[Champerboux]]></name>
    <extensions>
      <line xmlns="http://www.topografix.com/GPX/gpx_style/0/2">
        <color>0000FF</color>
        <width>4</width>
      </line>
    </extensions>
    <trkseg>
      <trkpt lat="44.43944" lon="3.30292">
        <ele>853.495</ele>
        <time>2019-07-07T17:39:10Z</time>
      </trkpt>
      <trkpt lat="44.43944" lon="3.30292">
        <ele>853.495</ele>
        <time>2019-07-07T17:39:10Z</time>
      </trkpt>
      <trkpt lat="44.43944" lon="3.30292">
        <ele>853.495</ele>
        <time>2019-07-07T17:39:10Z</time>
      </trkpt>
      <trkpt lat="44.43938" lon="3.30383">
        <ele>860.899</ele>
        <time>2019-07-07T17:39:30Z</time>
      </trkpt>
      <trkpt lat="44.43949" lon="3.30421">
        <ele>864.186</ele>
        <time>2019-07-07T17:39:50Z</time>
      </trkpt>
      <trkpt lat="44.43968" lon="3.30449">
        <ele>864.085</ele>
        <time>2019-07-07T17:40:10Z</time>
      </trkpt>
      <trkpt lat="44.43946" lon="3.30514">
        <ele>866.461</ele>
        <time>2019-07-07T17:40:30Z</time>
      </trkpt>
      <trkpt lat="44.43949" lon="3.3057">
        <ele>867.339</ele>
        <time>2019-07-07T17:40:50Z</time>
      </trkpt>
      <trkpt lat="44.43925" lon="3.30716">
        <ele>874.701</ele>
        <time>2019-07-07T17:41:10Z</time>
      </trkpt>
      <trkpt lat="44.43894" lon="3.30733">
        <ele>877.921</ele>
        <time>2019-07-07T17:41:30Z</time>
      </trkpt>
      <trkpt lat="44.43865" lon="3.3074">
        <ele>882.208</ele>
        <time>2019-07-07T17:41:50Z</time>
      </trkpt>
      <trkpt lat="44.4381" lon="3.30768">
        <ele>883.587</ele>
        <time>2019-07-07T17:42:10Z</time>
      </trkpt>
      <trkpt lat="44.4378" lon="3.30886">
        <ele>881.131</ele>
        <time>2019-07-07T17:42:30Z</time>
      </trkpt>
      <trkpt lat="44.43718" lon="3.3111">
        <ele>889.015</ele>
        <time>2019-07-07T17:42:50Z</time>
      </trkpt>
      <trkpt lat="44.43691" lon="3.31157">
        <ele>889.562</ele>
        <time>2019-07-07T17:43:10Z</time>
      </trkpt>
      <trkpt lat="44.43631" lon="3.31317">
        <ele>882.376</ele>
        <time>2019-07-07T17:43:30Z</time>
      </trkpt>
      <trkpt lat="44.43597" lon="3.31383">
        <ele>876.873</ele>
        <time>2019-07-07T17:43:50Z</time>
      </trkpt>
      <trkpt lat="44.43571" lon="3.31403">
        <ele>874.132</ele>
        <time>2019-07-07T17:44:10Z</time>
      </trkpt>
      <trkpt lat="44.43577" lon="3.31439">
        <ele>873.468</ele>
        <time>2019-07-07T17:44:30Z</time>
      </trkpt>
      <trkpt lat="44.43577" lon="3.3162">
        <ele>872.769</ele>
        <time>2019-07-07T17:44:50Z</time>
      </trkpt>
      <trkpt lat="44.43595" lon="3.31654">
        <ele>871.104</ele>
        <time>2019-07-07T17:45:10Z</time>
      </trkpt>
      <trkpt lat="44.43647" lon="3.31659">
        <ele>866.624</ele>
        <time>2019-07-07T17:45:30Z</time>
      </trkpt>
      <trkpt lat="44.43691" lon="3.31696">
        <ele>861.308</ele>
        <time>2019-07-07T17:45:50Z</time>
      </trkpt>
      <trkpt lat="44.43713" lon="3.31738">
        <ele>858.79</ele>
        <time>2019-07-07T17:46:10Z</time>
      </trkpt>
      <trkpt lat="44.43758" lon="3.31786">
        <ele>856.114</ele>
        <time>2019-07-07T17:46:30Z</time>
      </trkpt>
      <trkpt lat="44.43774" lon="3.3184">
        <ele>853.338</ele>
        <time>2019-07-07T17:46:50Z</time>
      </trkpt>
      <trkpt lat="44.43778" lon="3.31908">
        <ele>852.655</ele>
        <time>2019-07-07T17:47:10Z</time>
      </trkpt>
      <trkpt lat="44.43797" lon="3.31945">
        <ele>851.099</ele>
        <time>2019-07-07T17:47:30Z</time>
      </trkpt>
      <trkpt lat="44.43848" lon="3.32018">
        <ele>845.836</ele>
        <time>2019-07-07T17:47:50Z</time>
      </trkpt>
      <trkpt lat="44.43905" lon="3.32109">
        <ele>843.795</ele>
        <time>2019-07-07T17:48:10Z</time>
      </trkpt>
      <trkpt lat="44.43942" lon="3.32145">
        <ele>838.921</ele>
        <time>2019-07-07T17:48:30Z</time>
      </trkpt>
      <trkpt lat="44.44032" lon="3.32167">
        <ele>833.973</ele>
        <time>2019-07-07T17:48:50Z</time>
      </trkpt>
      <trkpt lat="44.4413" lon="3.3224">
        <ele>829.085</ele>
        <time>2019-07-07T17:49:10Z</time>
      </trkpt>
      <trkpt lat="44.44076" lon="3.32332">
        <ele>826.913</ele>
        <time>2019-07-07T17:49:30Z</time>
      </trkpt>
      <trkpt lat="44.44025" lon="3.32526">
        <ele>835.908</ele>
        <time>2019-07-07T17:49:50Z</time>
      </trkpt>
      <trkpt lat="44.44017" lon="3.32604">
        <ele>849.051</ele>
        <time>2019-07-07T17:50:10Z</time>
      </trkpt>
      <trkpt lat="44.44004" lon="3.32655">
        <ele>851.755</ele>
        <time>2019-07-07T17:50:30Z</time>
      </trkpt>
      <trkpt lat="44.44001" lon="3.32759">
        <ele>852.329</ele>
        <time>2019-07-07T17:50:50Z</time>
      </trkpt>
      <trkpt lat="44.4402" lon="3.3283">
        <ele>851.096</ele>
        <time>2019-07-07T17:51:10Z</time>
      </trkpt>
      <trkpt lat="44.44016" lon="3.32903">
        <ele>845.37</ele>
        <time>2019-07-07T17:51:30Z</time>
      </trkpt>
      <trkpt lat="44.4398" lon="3.33028">
        <ele>833.577</ele>
        <time>2019-07-07T17:51:50Z</time>
      </trkpt>
      <trkpt lat="44.4398" lon="3.3306">
        <ele>832.736</ele>
        <time>2019-07-07T17:52:10Z</time>
      </trkpt>
      <trkpt lat="44.43906" lon="3.33234">
        <ele>840.742</ele>
        <time>2019-07-07T17:52:30Z</time>
      </trkpt>
      <trkpt lat="44.43873" lon="3.33262">
        <ele>843.561</ele>
        <time>2019-07-07T17:52:50Z</time>
      </trkpt>
      <trkpt lat="44.43861" lon="3.33329">
        <ele>841.421</ele>
        <time>2019-07-07T17:53:10Z</time>
      </trkpt>
      <trkpt lat="44.43801" lon="3.33387">
        <ele>847.613</ele>
        <time>2019-07-07T17:53:30Z</time>
      </trkpt>
      <trkpt lat="44.43754" lon="3.33456">
        <ele>853.508</ele>
        <time>2019-07-07T17:53:50Z</time>
      </trkpt>
      <trkpt lat="44.43658" lon="3.33611">
        <ele>865.71</ele>
        <time>2019-07-07T17:54:10Z</time>
      </trkpt>
      <trkpt lat="44.43554" lon="3.33695">
        <ele>873.114</ele>
        <time>2019-07-07T17:54:30Z</time>
      </trkpt>
      <trkpt lat="44.43461" lon="3.33675">
        <ele>873.938</ele>
        <time>2019-07-07T17:54:50Z</time>
      </trkpt>
      <trkpt lat="44.43423" lon="3.33686">
        <ele>874.025</ele>
        <time>2019-07-07T17:55:10Z</time>
      </trkpt>
      <trkpt lat="44.43361" lon="3.33768">
        <ele>877.389</ele>
        <time>2019-07-07T17:55:30Z</time>
      </trkpt>
      <trkpt lat="44.43291" lon="3.33897">
        <ele>878.316</ele>
        <time>2019-07-07T17:55:50Z</time>
      </trkpt>
      <trkpt lat="44.43275" lon="3.3397">
        <ele>881.795</ele>
        <time>2019-07-07T17:56:10Z</time>
      </trkpt>
      <trkpt lat="44.43282" lon="3.34028">
        <ele>883.721</ele>
        <time>2019-07-07T17:56:30Z</time>
      </trkpt>
      <trkpt lat="44.43246" lon="3.34157">
        <ele>885.533</ele>
        <time>2019-07-07T17:56:50Z</time>
      </trkpt>
      <trkpt lat="44.43175" lon="3.34248">
        <ele>893.023</ele>
        <time>2019-07-07T17:57:10Z</time>
      </trkpt>
      <trkpt lat="44.4307" lon="3.34327">
        <ele>896.115</ele>
        <time>2019-07-07T17:57:30Z</time>
      </trkpt>
      <trkpt lat="44.43043" lon="3.34409">
        <ele>897.408</ele>
        <time>2019-07-07T17:57:50Z</time>
      </trkpt>
      <trkpt lat="44.43039" lon="3.34504">
        <ele>898.237</ele>
        <time>2019-07-07T17:58:10Z</time>
      </trkpt>
      <trkpt lat="44.43023" lon="3.34596">
        <ele>902.141</ele>
        <time>2019-07-07T17:58:30Z</time>
      </trkpt>
      <trkpt lat="44.43025" lon="3.34631">
        <ele>903.555</ele>
        <time>2019-07-07T17:58:50Z</time>
      </trkpt>
      <trkpt lat="44.42985" lon="3.34667">
        <ele>903.082</ele>
        <time>2019-07-07T17:59:10Z</time>
      </trkpt>
      <trkpt lat="44.4289" lon="3.34762">
        <ele>911.356</ele>
        <time>2019-07-07T17:59:30Z</time>
      </trkpt>
      <trkpt lat="44.42834" lon="3.34859">
        <ele>915.863</ele>
        <time>2019-07-07T17:59:50Z</time>
      </trkpt>
      <trkpt lat="44.42783" lon="3.34885">
        <ele>916.052</ele>
        <time>2019-07-07T18:00:10Z</time>
      </trkpt>
      <trkpt lat="44.42647" lon="3.34883">
        <ele>919.538</ele>
        <time>2019-07-07T18:00:30Z</time>
      </trkpt>
      <trkpt lat="44.42527" lon="3.34863">
        <ele>922.194</ele>
        <time>2019-07-07T18:00:50Z</time>
      </trkpt>
      <trkpt lat="44.424" lon="3.34962">
        <ele>924.257</ele>
        <time>2019-07-07T18:01:10Z</time>
      </trkpt>
      <trkpt lat="44.42335" lon="3.35031">
        <ele>920.922</ele>
        <time>2019-07-07T18:01:30Z</time>
      </trkpt>
      <trkpt lat="44.42271" lon="3.35124">
        <ele>920.908</ele>
        <time>2019-07-07T18:01:50Z</time>
      </trkpt>
      <trkpt lat="44.42224" lon="3.35315">
        <ele>923.353</ele>
        <time>2019-07-07T18:02:10Z</time>
      </trkpt>
      <trkpt lat="44.42253" lon="3.35369">
        <ele>926.197</ele>
        <time>2019-07-07T18:02:30Z</time>
      </trkpt>
      <trkpt lat="44.42248" lon="3.35427">
        <ele>928.481</ele>
        <time>2019-07-07T18:02:50Z</time>
      </trkpt>
      <trkpt lat="44.42207" lon="3.35565">
        <ele>931.468</ele>
        <time>2019-07-07T18:03:10Z</time>
      </trkpt>
      <trkpt lat="44.42135" lon="3.3567">
        <ele>930.912</ele>
        <time>2019-07-07T18:03:30Z</time>
      </trkpt>
      <trkpt lat="44.42047" lon="3.3569">
        <ele>930.369</ele>
        <time>2019-07-07T18:03:50Z</time>
      </trkpt>
      <trkpt lat="44.42012" lon="3.35862">
        <ele>927.938</ele>
        <time>2019-07-07T18:04:10Z</time>
      </trkpt>
      <trkpt lat="44.41939" lon="3.36129">
        <ele>923.894</ele>
        <time>2019-07-07T18:04:30Z</time>
      </trkpt>
      <trkpt lat="44.41884" lon="3.36236">
        <ele>924.584</ele>
        <time>2019-07-07T18:04:50Z</time>
      </trkpt>
      <trkpt lat="44.41839" lon="3.3631">
        <ele>928.207</ele>
        <time>2019-07-07T18:05:10Z</time>
      </trkpt>
      <trkpt lat="44.41817" lon="3.36333">
        <ele>928.417</ele>
        <time>2019-07-07T18:05:30Z</time>
      </trkpt>
      <trkpt lat="44.41775" lon="3.36426">
        <ele>928.808</ele>
        <time>2019-07-07T18:05:50Z</time>
      </trkpt>
      <trkpt lat="44.41673" lon="3.36619">
        <ele>927.692</ele>
        <time>2019-07-07T18:06:10Z</time>
      </trkpt>
      <trkpt lat="44.4153" lon="3.36755">
        <ele>925.326</ele>
        <time>2019-07-07T18:06:30Z</time>
      </trkpt>
      <trkpt lat="44.41544" lon="3.3683">
        <ele>926.42</ele>
        <time>2019-07-07T18:06:50Z</time>
      </trkpt>
      <trkpt lat="44.41529" lon="3.36981">
        <ele>925.737</ele>
        <time>2019-07-07T18:07:10Z</time>
      </trkpt>
      <trkpt lat="44.41522" lon="3.37127">
        <ele>923.761</ele>
        <time>2019-07-07T18:07:30Z</time>
      </trkpt>
      <trkpt lat="44.41488" lon="3.37366">
        <ele>922.398</ele>
        <time>2019-07-07T18:07:50Z</time>
      </trkpt>
      <trkpt lat="44.41468" lon="3.37435">
        <ele>922.477</ele>
        <time>2019-07-07T18:08:10Z</time>
      </trkpt>
      <trkpt lat="44.41428" lon="3.37622">
        <ele>930.143</ele>
        <time>2019-07-07T18:08:30Z</time>
      </trkpt>
      <trkpt lat="44.41364" lon="3.37812">
        <ele>928.212</ele>
        <time>2019-07-07T18:08:50Z</time>
      </trkpt>
      <trkpt lat="44.41341" lon="3.38051">
        <ele>925.132</ele>
        <time>2019-07-07T18:09:10Z</time>
      </trkpt>
      <trkpt lat="44.41258" lon="3.38395">
        <ele>928.805</ele>
        <time>2019-07-07T18:09:30Z</time>
      </trkpt>
      <trkpt lat="44.41239" lon="3.38576">
        <ele>930.508</ele>
        <time>2019-07-07T18:09:50Z</time>
      </trkpt>
      <trkpt lat="44.41223" lon="3.38722">
        <ele>928.045</ele>
        <time>2019-07-07T18:10:10Z</time>
      </trkpt>
      <trkpt lat="44.41234" lon="3.38823">
        <ele>930.819</ele>
        <time>2019-07-07T18:10:30Z</time>
      </trkpt>
      <trkpt lat="44.41258" lon="3.39006">
        <ele>932.573</ele>
        <time>2019-07-07T18:10:50Z</time>
      </trkpt>
      <trkpt lat="44.41245" lon="3.39148">
        <ele>929.85</ele>
        <time>2019-07-07T18:11:10Z</time>
      </trkpt>
      <trkpt lat="44.41255" lon="3.39219">
        <ele>930.054</ele>
        <time>2019-07-07T18:11:30Z</time>
      </trkpt>
      <trkpt lat="44.41226" lon="3.39473">
        <ele>937.331</ele>
        <time>2019-07-07T18:11:50Z</time>
      </trkpt>
      <trkpt lat="44.41242" lon="3.39639">
        <ele>936.44</ele>
        <time>2019-07-07T18:12:10Z</time>
      </trkpt>
      <trkpt lat="44.41214" lon="3.39817">
        <ele>940.256</ele>
        <time>2019-07-07T18:12:30Z</time>
      </trkpt>
      <trkpt lat="44.41223" lon="3.39899">
        <ele>937.048</ele>
        <time>2019-07-07T18:12:50Z</time>
      </trkpt>
      <trkpt lat="44.41211" lon="3.40065">
        <ele>926.661</ele>
        <time>2019-07-07T18:13:10Z</time>
      </trkpt>
      <trkpt lat="44.41186" lon="3.40116">
        <ele>926.217</ele>
        <time>2019-07-07T18:13:30Z</time>
      </trkpt>
      <trkpt lat="44.41169" lon="3.40226">
        <ele>929.208</ele>
        <time>2019-07-07T18:13:50Z</time>
      </trkpt>
      <trkpt lat="44.41166" lon="3.40405">
        <ele>930.398</ele>
        <time>2019-07-07T18:14:10Z</time>
      </trkpt>
      <trkpt lat="44.41175" lon="3.40534">
        <ele>930.662</ele>
        <time>2019-07-07T18:14:30Z</time>
      </trkpt>
      <trkpt lat="44.41159" lon="3.40695">
        <ele>934.796</ele>
        <time>2019-07-07T18:14:50Z</time>
      </trkpt>
      <trkpt lat="44.41122" lon="3.40779">
        <ele>936.843</ele>
        <time>2019-07-07T18:15:10Z</time>
      </trkpt>
      <trkpt lat="44.4111" lon="3.40844">
        <ele>941.137</ele>
        <time>2019-07-07T18:15:30Z</time>
      </trkpt>
      <trkpt lat="44.41039" lon="3.40951">
        <ele>946.414</ele>
        <time>2019-07-07T18:15:50Z</time>
      </trkpt>
      <trkpt lat="44.40985" lon="3.41056">
        <ele>950.553</ele>
        <time>2019-07-07T18:16:10Z</time>
      </trkpt>
      <trkpt lat="44.40959" lon="3.4108">
        <ele>949.999</ele>
        <time>2019-07-07T18:16:30Z</time>
      </trkpt>
      <trkpt lat="44.40946" lon="3.41144">
        <ele>949.717</ele>
        <time>2019-07-07T18:16:50Z</time>
      </trkpt>
      <trkpt lat="44.40933" lon="3.41227">
        <ele>944.487</ele>
        <time>2019-07-07T18:17:10Z</time>
      </trkpt>
      <trkpt lat="44.40906" lon="3.41259">
        <ele>942.015</ele>
        <time>2019-07-07T18:17:30Z</time>
      </trkpt>
      <trkpt lat="44.40902" lon="3.41343">
        <ele>939.008</ele>
        <time>2019-07-07T18:17:50Z</time>
      </trkpt>
      <trkpt lat="44.40881" lon="3.41347">
        <ele>938.755</ele>
        <time>2019-07-07T18:18:10Z</time>
      </trkpt>
    </trkseg>
  </trk>
  <trk>
    <name><![CDATA[La Fage]]></name>
    <extensions>
      <line xmlns="http://www.topografix.com/GPX/gpx_style/0/2">
        <color>ff0019</color>
        <width>4</width>
      </line>
    </extensions>
    <trkseg>
      <trkpt lat="44.40882" lon="3.41345">
        <ele>938.708</ele>
        <time>2021-01-11T17:54:43Z</time>
      </trkpt>
      <trkpt lat="44.40882" lon="3.41345">
        <ele>938.708</ele>
        <time>2021-01-11T17:54:43Z</time>
      </trkpt>
      <trkpt lat="44.40882" lon="3.41345">
        <ele>938.708</ele>
        <time>2021-01-11T17:54:43Z</time>
      </trkpt>
      <trkpt lat="44.40802" lon="3.41577">
        <ele>940.121</ele>
        <time>2021-01-11T17:54:23Z</time>
      </trkpt>
      <trkpt lat="44.40753" lon="3.41594">
        <ele>940.229</ele>
        <time>2021-01-11T17:54:03Z</time>
      </trkpt>
      <trkpt lat="44.40698" lon="3.41645">
        <ele>943.266</ele>
        <time>2021-01-11T17:53:43Z</time>
      </trkpt>
      <trkpt lat="44.40673" lon="3.41705">
        <ele>947.569</ele>
        <time>2021-01-11T17:53:23Z</time>
      </trkpt>
      <trkpt lat="44.40778" lon="3.4168">
        <ele>955.877</ele>
        <time>2021-01-11T17:53:03Z</time>
      </trkpt>
      <trkpt lat="44.4079" lon="3.41688">
        <ele>958.185</ele>
        <time>2021-01-11T17:52:43Z</time>
      </trkpt>
      <trkpt lat="44.40784" lon="3.41705">
        <ele>959.753</ele>
        <time>2021-01-11T17:52:23Z</time>
      </trkpt>
      <trkpt lat="44.40753" lon="3.41723">
        <ele>959.354</ele>
        <time>2021-01-11T17:52:03Z</time>
      </trkpt>
      <trkpt lat="44.40716" lon="3.41766">
        <ele>962.924</ele>
        <time>2021-01-11T17:51:43Z</time>
      </trkpt>
      <trkpt lat="44.40661" lon="3.41929">
        <ele>974.15</ele>
        <time>2021-01-11T17:51:23Z</time>
      </trkpt>
      <trkpt lat="44.406" lon="3.42006">
        <ele>981.163</ele>
        <time>2021-01-11T17:51:03Z</time>
      </trkpt>
      <trkpt lat="44.40575" lon="3.4216">
        <ele>985.808</ele>
        <time>2021-01-11T17:50:43Z</time>
      </trkpt>
      <trkpt lat="44.40483" lon="3.42409">
        <ele>980.725</ele>
        <time>2021-01-11T17:50:23Z</time>
      </trkpt>
      <trkpt lat="44.40489" lon="3.42692">
        <ele>979.805</ele>
        <time>2021-01-11T17:50:03Z</time>
      </trkpt>
      <trkpt lat="44.40508" lon="3.42727">
        <ele>978.879</ele>
        <time>2021-01-11T17:49:43Z</time>
      </trkpt>
      <trkpt lat="44.4052" lon="3.42787">
        <ele>974.843</ele>
        <time>2021-01-11T17:49:23Z</time>
      </trkpt>
      <trkpt lat="44.40538" lon="3.42813">
        <ele>975.291</ele>
        <time>2021-01-11T17:49:03Z</time>
      </trkpt>
      <trkpt lat="44.40575" lon="3.43096">
        <ele>974.619</ele>
        <time>2021-01-11T17:48:43Z</time>
      </trkpt>
      <trkpt lat="44.40563" lon="3.43139">
        <ele>969.887</ele>
        <time>2021-01-11T17:48:23Z</time>
      </trkpt>
      <trkpt lat="44.40526" lon="3.43156">
        <ele>968.758</ele>
        <time>2021-01-11T17:48:03Z</time>
      </trkpt>
      <trkpt lat="44.40575" lon="3.43182">
        <ele>967.318</ele>
        <time>2021-01-11T17:47:43Z</time>
      </trkpt>
      <trkpt lat="44.40594" lon="3.43207">
        <ele>966.784</ele>
        <time>2021-01-11T17:47:23Z</time>
      </trkpt>
      <trkpt lat="44.40606" lon="3.43233">
        <ele>967.187</ele>
        <time>2021-01-11T17:47:03Z</time>
      </trkpt>
      <trkpt lat="44.40594" lon="3.43293">
        <ele>969.108</ele>
        <time>2021-01-11T17:46:43Z</time>
      </trkpt>
      <trkpt lat="44.40612" lon="3.43439">
        <ele>981.007</ele>
        <time>2021-01-11T17:46:23Z</time>
      </trkpt>
      <trkpt lat="44.40643" lon="3.43551">
        <ele>994.943</ele>
        <time>2021-01-11T17:46:03Z</time>
      </trkpt>
      <trkpt lat="44.40698" lon="3.43611">
        <ele>1002.213</ele>
        <time>2021-01-11T17:45:43Z</time>
      </trkpt>
      <trkpt lat="44.40808" lon="3.43825">
        <ele>1014.145</ele>
        <time>2021-01-11T17:45:23Z</time>
      </trkpt>
      <trkpt lat="44.40827" lon="3.4392">
        <ele>1017.043</ele>
        <time>2021-01-11T17:45:03Z</time>
      </trkpt>
      <trkpt lat="44.40821" lon="3.44074">
        <ele>1013.371</ele>
        <time>2021-01-11T17:44:43Z</time>
      </trkpt>
      <trkpt lat="44.40747" lon="3.44083">
        <ele>1008.989</ele>
        <time>2021-01-11T17:44:23Z</time>
      </trkpt>
      <trkpt lat="44.4071" lon="3.441">
        <ele>1007.99</ele>
        <time>2021-01-11T17:44:03Z</time>
      </trkpt>
      <trkpt lat="44.406" lon="3.44255">
        <ele>1006.44</ele>
        <time>2021-01-11T17:43:43Z</time>
      </trkpt>
      <trkpt lat="44.40563" lon="3.44358">
        <ele>1007.456</ele>
        <time>2021-01-11T17:43:23Z</time>
      </trkpt>
      <trkpt lat="44.40508" lon="3.44401">
        <ele>1009.859</ele>
        <time>2021-01-11T17:43:03Z</time>
      </trkpt>
      <trkpt lat="44.40502" lon="3.44512">
        <ele>1011.708</ele>
        <time>2021-01-11T17:42:43Z</time>
      </trkpt>
      <trkpt lat="44.40459" lon="3.44606">
        <ele>1012.51</ele>
        <time>2021-01-11T17:42:23Z</time>
      </trkpt>
      <trkpt lat="44.4044" lon="3.44684">
        <ele>1012.355</ele>
        <time>2021-01-11T17:42:03Z</time>
      </trkpt>
      <trkpt lat="44.40434" lon="3.44787">
        <ele>1014.234</ele>
        <time>2021-01-11T17:41:43Z</time>
      </trkpt>
      <trkpt lat="44.40471" lon="3.4483">
        <ele>1014.767</ele>
        <time>2021-01-11T17:41:23Z</time>
      </trkpt>
      <trkpt lat="44.40483" lon="3.44855">
        <ele>1016.055</ele>
        <time>2021-01-11T17:41:03Z</time>
      </trkpt>
      <trkpt lat="44.40483" lon="3.44898">
        <ele>1018.313</ele>
        <time>2021-01-11T17:40:43Z</time>
      </trkpt>
      <trkpt lat="44.40453" lon="3.4495">
        <ele>1020.721</ele>
        <time>2021-01-11T17:40:23Z</time>
      </trkpt>
      <trkpt lat="44.40446" lon="3.44984">
        <ele>1019.842</ele>
        <time>2021-01-11T17:40:03Z</time>
      </trkpt>
      <trkpt lat="44.40446" lon="3.45053">
        <ele>1020.652</ele>
        <time>2021-01-11T17:39:43Z</time>
      </trkpt>
      <trkpt lat="44.40465" lon="3.45121">
        <ele>1017.348</ele>
        <time>2021-01-11T17:39:23Z</time>
      </trkpt>
      <trkpt lat="44.40465" lon="3.45293">
        <ele>1022.861</ele>
        <time>2021-01-11T17:39:03Z</time>
      </trkpt>
      <trkpt lat="44.40496" lon="3.45559">
        <ele>1036.308</ele>
        <time>2021-01-11T17:38:43Z</time>
      </trkpt>
      <trkpt lat="44.40538" lon="3.458">
        <ele>1035.311</ele>
        <time>2021-01-11T17:38:23Z</time>
      </trkpt>
      <trkpt lat="44.40514" lon="3.46057">
        <ele>1031.056</ele>
        <time>2021-01-11T17:38:03Z</time>
      </trkpt>
      <trkpt lat="44.40545" lon="3.46109">
        <ele>1029.954</ele>
        <time>2021-01-11T17:37:43Z</time>
      </trkpt>
      <trkpt lat="44.40575" lon="3.46126">
        <ele>1029.15</ele>
        <time>2021-01-11T17:37:23Z</time>
      </trkpt>
      <trkpt lat="44.4063" lon="3.46254">
        <ele>1036.058</ele>
        <time>2021-01-11T17:37:03Z</time>
      </trkpt>
      <trkpt lat="44.40692" lon="3.46357">
        <ele>1038.116</ele>
        <time>2021-01-11T17:36:43Z</time>
      </trkpt>
      <trkpt lat="44.40704" lon="3.46392">
        <ele>1036.684</ele>
        <time>2021-01-11T17:36:23Z</time>
      </trkpt>
      <trkpt lat="44.40698" lon="3.4646">
        <ele>1036.625</ele>
        <time>2021-01-11T17:36:03Z</time>
      </trkpt>
      <trkpt lat="44.4071" lon="3.46572">
        <ele>1031.855</ele>
        <time>2021-01-11T17:35:43Z</time>
      </trkpt>
      <trkpt lat="44.40778" lon="3.46589">
        <ele>1025.081</ele>
        <time>2021-01-11T17:35:23Z</time>
      </trkpt>
      <trkpt lat="44.40839" lon="3.46649">
        <ele>1018.564</ele>
        <time>2021-01-11T17:35:03Z</time>
      </trkpt>
      <trkpt lat="44.40876" lon="3.46718">
        <ele>1019.208</ele>
        <time>2021-01-11T17:34:43Z</time>
      </trkpt>
      <trkpt lat="44.40876" lon="3.46761">
        <ele>1022.326</ele>
        <time>2021-01-11T17:34:23Z</time>
      </trkpt>
      <trkpt lat="44.40894" lon="3.46778">
        <ele>1022.642</ele>
        <time>2021-01-11T17:34:03Z</time>
      </trkpt>
      <trkpt lat="44.40949" lon="3.46752">
        <ele>1020.287</ele>
        <time>2021-01-11T17:33:43Z</time>
      </trkpt>
      <trkpt lat="44.41004" lon="3.46804">
        <ele>1025.033</ele>
        <time>2021-01-11T17:33:23Z</time>
      </trkpt>
      <trkpt lat="44.41207" lon="3.47113">
        <ele>1045.561</ele>
        <time>2021-01-11T17:33:03Z</time>
      </trkpt>
      <trkpt lat="44.41219" lon="3.47156">
        <ele>1043.719</ele>
        <time>2021-01-11T17:32:43Z</time>
      </trkpt>
      <trkpt lat="44.41231" lon="3.47242">
        <ele>1044.447</ele>
        <time>2021-01-11T17:32:23Z</time>
      </trkpt>
      <trkpt lat="44.41305" lon="3.47336">
        <ele>1044.138</ele>
        <time>2021-01-11T17:32:03Z</time>
      </trkpt>
      <trkpt lat="44.41391" lon="3.47396">
        <ele>1042.928</ele>
        <time>2021-01-11T17:31:43Z</time>
      </trkpt>
      <trkpt lat="44.41397" lon="3.47473">
        <ele>1042.144</ele>
        <time>2021-01-11T17:31:23Z</time>
      </trkpt>
      <trkpt lat="44.41286" lon="3.47636">
        <ele>1046.997</ele>
        <time>2021-01-11T17:31:03Z</time>
      </trkpt>
      <trkpt lat="44.41268" lon="3.47696">
        <ele>1044.608</ele>
        <time>2021-01-11T17:30:43Z</time>
      </trkpt>
      <trkpt lat="44.41286" lon="3.47808">
        <ele>1041.409</ele>
        <time>2021-01-11T17:30:23Z</time>
      </trkpt>
      <trkpt lat="44.41293" lon="3.4792">
        <ele>1038.854</ele>
        <time>2021-01-11T17:30:03Z</time>
      </trkpt>
      <trkpt lat="44.4128" lon="3.48005">
        <ele>1036.814</ele>
        <time>2021-01-11T17:29:43Z</time>
      </trkpt>
      <trkpt lat="44.41256" lon="3.48091">
        <ele>1032.338</ele>
        <time>2021-01-11T17:29:23Z</time>
      </trkpt>
      <trkpt lat="44.41164" lon="3.48177">
        <ele>1030.416</ele>
        <time>2021-01-11T17:29:03Z</time>
      </trkpt>
      <trkpt lat="44.41127" lon="3.48254">
        <ele>1027.144</ele>
        <time>2021-01-11T17:28:43Z</time>
      </trkpt>
      <trkpt lat="44.41115" lon="3.48332">
        <ele>1024.232</ele>
        <time>2021-01-11T17:28:23Z</time>
      </trkpt>
      <trkpt lat="44.40998" lon="3.48538">
        <ele>1028.043</ele>
        <time>2021-01-11T17:28:03Z</time>
      </trkpt>
      <trkpt lat="44.40943" lon="3.48675">
        <ele>1028.723</ele>
        <time>2021-01-11T17:27:43Z</time>
      </trkpt>
      <trkpt lat="44.40937" lon="3.48761">
        <ele>1028.149</ele>
        <time>2021-01-11T17:27:23Z</time>
      </trkpt>
      <trkpt lat="44.40949" lon="3.48872">
        <ele>1030.982</ele>
        <time>2021-01-11T17:27:03Z</time>
      </trkpt>
      <trkpt lat="44.40943" lon="3.48924">
        <ele>1032.208</ele>
        <time>2021-01-11T17:26:43Z</time>
      </trkpt>
      <trkpt lat="44.40968" lon="3.49035">
        <ele>1038.819</ele>
        <time>2021-01-11T17:26:23Z</time>
      </trkpt>
      <trkpt lat="44.40943" lon="3.49267">
        <ele>1043.681</ele>
        <time>2021-01-11T17:26:03Z</time>
      </trkpt>
      <trkpt lat="44.40943" lon="3.4949">
        <ele>1049.767</ele>
        <time>2021-01-11T17:25:43Z</time>
      </trkpt>
      <trkpt lat="44.40919" lon="3.4955">
        <ele>1050.246</ele>
        <time>2021-01-11T17:25:23Z</time>
      </trkpt>
      <trkpt lat="44.40827" lon="3.49894">
        <ele>1036.384</ele>
        <time>2021-01-11T17:25:03Z</time>
      </trkpt>
      <trkpt lat="44.40716" lon="3.50211">
        <ele>1026.922</ele>
        <time>2021-01-11T17:24:43Z</time>
      </trkpt>
      <trkpt lat="44.40545" lon="3.50572">
        <ele>1010.01</ele>
        <time>2021-01-11T17:24:23Z</time>
      </trkpt>
      <trkpt lat="44.40502" lon="3.50881">
        <ele>1002.211</ele>
        <time>2021-01-11T17:24:03Z</time>
      </trkpt>
      <trkpt lat="44.40459" lon="3.51044">
        <ele>999.151</ele>
        <time>2021-01-11T17:23:43Z</time>
      </trkpt>
      <trkpt lat="44.40459" lon="3.51112">
        <ele>996.037</ele>
        <time>2021-01-11T17:23:23Z</time>
      </trkpt>
      <trkpt lat="44.40496" lon="3.51207">
        <ele>993.22</ele>
        <time>2021-01-11T17:23:03Z</time>
      </trkpt>
      <trkpt lat="44.40502" lon="3.51258">
        <ele>992.008</ele>
        <time>2021-01-11T17:22:43Z</time>
      </trkpt>
      <trkpt lat="44.40502" lon="3.51361">
        <ele>989.209</ele>
        <time>2021-01-11T17:22:23Z</time>
      </trkpt>
      <trkpt lat="44.40606" lon="3.51404">
        <ele>998.781</ele>
        <time>2021-01-11T17:22:03Z</time>
      </trkpt>
      <trkpt lat="44.4063" lon="3.51396">
        <ele>1001.041</ele>
        <time>2021-01-11T17:21:43Z</time>
      </trkpt>
      <trkpt lat="44.40729" lon="3.5131">
        <ele>1007.463</ele>
        <time>2021-01-11T17:21:23Z</time>
      </trkpt>
      <trkpt lat="44.40833" lon="3.51267">
        <ele>1007.841</ele>
        <time>2021-01-11T17:21:03Z</time>
      </trkpt>
      <trkpt lat="44.41066" lon="3.51464">
        <ele>1023.639</ele>
        <time>2021-01-11T17:20:43Z</time>
      </trkpt>
      <trkpt lat="44.41066" lon="3.51516">
        <ele>1024.537</ele>
        <time>2021-01-11T17:20:23Z</time>
      </trkpt>
      <trkpt lat="44.41115" lon="3.5161">
        <ele>1025.018</ele>
        <time>2021-01-11T17:20:03Z</time>
      </trkpt>
      <trkpt lat="44.41158" lon="3.51645">
        <ele>1027.268</ele>
        <time>2021-01-11T17:19:43Z</time>
      </trkpt>
      <trkpt lat="44.41219" lon="3.5167">
        <ele>1027.064</ele>
        <time>2021-01-11T17:19:23Z</time>
      </trkpt>
      <trkpt lat="44.4128" lon="3.51756">
        <ele>1020.867</ele>
        <time>2021-01-11T17:19:03Z</time>
      </trkpt>
      <trkpt lat="44.41323" lon="3.52065">
        <ele>1022.008</ele>
        <time>2021-01-11T17:18:43Z</time>
      </trkpt>
      <trkpt lat="44.41348" lon="3.52151">
        <ele>1025.213</ele>
        <time>2021-01-11T17:18:23Z</time>
      </trkpt>
      <trkpt lat="44.41385" lon="3.52271">
        <ele>1028.176</ele>
        <time>2021-01-11T17:18:03Z</time>
      </trkpt>
      <trkpt lat="44.41483" lon="3.52486">
        <ele>1037.216</ele>
        <time>2021-01-11T17:17:43Z</time>
      </trkpt>
      <trkpt lat="44.41483" lon="3.52666">
        <ele>1040.763</ele>
        <time>2021-01-11T17:17:23Z</time>
      </trkpt>
      <trkpt lat="44.41532" lon="3.52846">
        <ele>1052.111</ele>
        <time>2021-01-11T17:17:03Z</time>
      </trkpt>
      <trkpt lat="44.41532" lon="3.53001">
        <ele>1063.849</ele>
        <time>2021-01-11T17:16:43Z</time>
      </trkpt>
      <trkpt lat="44.41544" lon="3.53275">
        <ele>1077.237</ele>
        <time>2021-01-11T17:16:23Z</time>
      </trkpt>
      <trkpt lat="44.41568" lon="3.53516">
        <ele>1087.938</ele>
        <time>2021-01-11T17:16:03Z</time>
      </trkpt>
      <trkpt lat="44.41556" lon="3.53541">
        <ele>1089.028</ele>
        <time>2021-01-11T17:15:43Z</time>
      </trkpt>
      <trkpt lat="44.41489" lon="3.53627">
        <ele>1091.584</ele>
        <time>2021-01-11T17:15:23Z</time>
      </trkpt>
      <trkpt lat="44.41507" lon="3.53636">
        <ele>1080.567</ele>
        <time>2021-01-11T17:15:03Z</time>
      </trkpt>
      <trkpt lat="44.41575" lon="3.53602">
        <ele>1076.208</ele>
        <time>2021-01-11T17:14:43Z</time>
      </trkpt>
      <trkpt lat="44.41618" lon="3.53602">
        <ele>1074.205</ele>
        <time>2021-01-11T17:14:23Z</time>
      </trkpt>
      <trkpt lat="44.41654" lon="3.53619">
        <ele>1073.632</ele>
        <time>2021-01-11T17:14:03Z</time>
      </trkpt>
      <trkpt lat="44.41746" lon="3.53713">
        <ele>1062.712</ele>
        <time>2021-01-11T17:13:43Z</time>
      </trkpt>
      <trkpt lat="44.4182" lon="3.53747">
        <ele>1066.018</ele>
        <time>2021-01-11T17:13:23Z</time>
      </trkpt>
      <trkpt lat="44.41857" lon="3.53816">
        <ele>1066.326</ele>
        <time>2021-01-11T17:13:03Z</time>
      </trkpt>
      <trkpt lat="44.41863" lon="3.54099">
        <ele>1046.634</ele>
        <time>2021-01-11T17:12:43Z</time>
      </trkpt>
      <trkpt lat="44.41844" lon="3.54245">
        <ele>1043.722</ele>
        <time>2021-01-11T17:12:23Z</time>
      </trkpt>
      <trkpt lat="44.41857" lon="3.54314">
        <ele>1041.653</ele>
        <time>2021-01-11T17:12:03Z</time>
      </trkpt>
      <trkpt lat="44.41881" lon="3.54365">
        <ele>1042.373</ele>
        <time>2021-01-11T17:11:43Z</time>
      </trkpt>
      <trkpt lat="44.41875" lon="3.54537">
        <ele>1054.319</ele>
        <time>2021-01-11T17:11:23Z</time>
      </trkpt>
      <trkpt lat="44.41949" lon="3.55061">
        <ele>1067.432</ele>
        <time>2021-01-11T17:11:03Z</time>
      </trkpt>
      <trkpt lat="44.41955" lon="3.55078">
        <ele>1068.508</ele>
        <time>2021-01-11T17:10:43Z</time>
      </trkpt>
      <trkpt lat="44.41973" lon="3.55189">
        <ele>1075.918</ele>
        <time>2021-01-11T17:10:23Z</time>
      </trkpt>
      <trkpt lat="44.41973" lon="3.55301">
        <ele>1077.144</ele>
        <time>2021-01-11T17:10:03Z</time>
      </trkpt>
      <trkpt lat="44.42004" lon="3.55516">
        <ele>1075.563</ele>
        <time>2021-01-11T17:09:43Z</time>
      </trkpt>
      <trkpt lat="44.42053" lon="3.55773">
        <ele>1085.085</ele>
        <time>2021-01-11T17:09:23Z</time>
      </trkpt>
      <trkpt lat="44.42249" lon="3.55653">
        <ele>1078.533</ele>
        <time>2021-01-11T17:09:03Z</time>
      </trkpt>
      <trkpt lat="44.42304" lon="3.55653">
        <ele>1076.681</ele>
        <time>2021-01-11T17:08:43Z</time>
      </trkpt>
      <trkpt lat="44.42414" lon="3.55696">
        <ele>1066.569</ele>
        <time>2021-01-11T17:08:23Z</time>
      </trkpt>
      <trkpt lat="44.42598" lon="3.55541">
        <ele>1045.91</ele>
        <time>2021-01-11T17:08:03Z</time>
      </trkpt>
      <trkpt lat="44.42703" lon="3.55438">
        <ele>1046.57</ele>
        <time>2021-01-11T17:07:43Z</time>
      </trkpt>
      <trkpt lat="44.42733" lon="3.5543">
        <ele>1048.346</ele>
        <time>2021-01-11T17:07:23Z</time>
      </trkpt>
      <trkpt lat="44.4277" lon="3.55447">
        <ele>1053.739</ele>
        <time>2021-01-11T17:07:03Z</time>
      </trkpt>
      <trkpt lat="44.42807" lon="3.55481">
        <ele>1060.208</ele>
        <time>2021-01-11T17:06:43Z</time>
      </trkpt>
      <trkpt lat="44.42923" lon="3.55455">
        <ele>1061.513</ele>
        <time>2021-01-11T17:06:23Z</time>
      </trkpt>
      <trkpt lat="44.42991" lon="3.55473">
        <ele>1056.849</ele>
        <time>2021-01-11T17:06:03Z</time>
      </trkpt>
      <trkpt lat="44.43021" lon="3.55507">
        <ele>1053.637</ele>
        <time>2021-01-11T17:05:43Z</time>
      </trkpt>
      <trkpt lat="44.43021" lon="3.55558">
        <ele>1054.884</ele>
        <time>2021-01-11T17:05:23Z</time>
      </trkpt>
      <trkpt lat="44.42972" lon="3.55764">
        <ele>1063.562</ele>
        <time>2021-01-11T17:05:03Z</time>
      </trkpt>
      <trkpt lat="44.42972" lon="3.55799">
        <ele>1062.32</ele>
        <time>2021-01-11T17:04:43Z</time>
      </trkpt>
      <trkpt lat="44.42978" lon="3.55833">
        <ele>1059.858</ele>
        <time>2021-01-11T17:04:23Z</time>
      </trkpt>
      <trkpt lat="44.43009" lon="3.55902">
        <ele>1053.969</ele>
        <time>2021-01-11T17:04:03Z</time>
      </trkpt>
      <trkpt lat="44.43046" lon="3.55936">
        <ele>1051.239</ele>
        <time>2021-01-11T17:03:43Z</time>
      </trkpt>
      <trkpt lat="44.43144" lon="3.55953">
        <ele>1050.075</ele>
        <time>2021-01-11T17:03:23Z</time>
      </trkpt>
      <trkpt lat="44.43162" lon="3.55902">
        <ele>1047.638</ele>
        <time>2021-01-11T17:03:03Z</time>
      </trkpt>
      <trkpt lat="44.43162" lon="3.55773">
        <ele>1026.708</ele>
        <time>2021-01-11T17:02:43Z</time>
      </trkpt>
      <trkpt lat="44.43273" lon="3.55722">
        <ele>1035.017</ele>
        <time>2021-01-11T17:02:23Z</time>
      </trkpt>
      <trkpt lat="44.43346" lon="3.55704">
        <ele>1036.289</ele>
        <time>2021-01-11T17:02:03Z</time>
      </trkpt>
      <trkpt lat="44.43524" lon="3.55807">
        <ele>1040.128</ele>
        <time>2021-01-11T17:01:43Z</time>
      </trkpt>
      <trkpt lat="44.43579" lon="3.55867">
        <ele>1050.635</ele>
        <time>2021-01-11T17:01:23Z</time>
      </trkpt>
      <trkpt lat="44.43653" lon="3.55902">
        <ele>1056.233</ele>
        <time>2021-01-11T17:01:03Z</time>
      </trkpt>
      <trkpt lat="44.43836" lon="3.56031">
        <ele>1073.931</ele>
        <time>2021-01-11T17:00:43Z</time>
      </trkpt>
      <trkpt lat="44.43928" lon="3.56048">
        <ele>1077.929</ele>
        <time>2021-01-11T17:00:23Z</time>
      </trkpt>
      <trkpt lat="44.44094" lon="3.56288">
        <ele>1121.27</ele>
        <time>2021-01-11T17:00:03Z</time>
      </trkpt>
      <trkpt lat="44.44124" lon="3.56305">
        <ele>1119.51</ele>
        <time>2021-01-11T16:59:43Z</time>
      </trkpt>
      <trkpt lat="44.44173" lon="3.56314">
        <ele>1109.266</ele>
        <time>2021-01-11T16:59:23Z</time>
      </trkpt>
      <trkpt lat="44.44186" lon="3.56348">
        <ele>1112.859</ele>
        <time>2021-01-11T16:59:03Z</time>
      </trkpt>
      <trkpt lat="44.44186" lon="3.56365">
        <ele>1114.708</ele>
        <time>2021-01-11T16:58:43Z</time>
      </trkpt>
      <trkpt lat="44.44075" lon="3.56511">
        <ele>1144.717</ele>
        <time>2021-01-11T16:58:23Z</time>
      </trkpt>
      <trkpt lat="44.43996" lon="3.5664">
        <ele>1152.37</ele>
        <time>2021-01-11T16:58:03Z</time>
      </trkpt>
      <trkpt lat="44.43732" lon="3.56923">
        <ele>1159.138</ele>
        <time>2021-01-11T16:57:43Z</time>
      </trkpt>
      <trkpt lat="44.43285" lon="3.57558">
        <ele>1159.446</ele>
        <time>2021-01-11T16:57:23Z</time>
      </trkpt>
      <trkpt lat="44.43199" lon="3.57704">
        <ele>1151.344</ele>
        <time>2021-01-11T16:57:03Z</time>
      </trkpt>
      <trkpt lat="44.43175" lon="3.57782">
        <ele>1143.512</ele>
        <time>2021-01-11T16:56:43Z</time>
      </trkpt>
      <trkpt lat="44.43125" lon="3.57867">
        <ele>1131.31</ele>
        <time>2021-01-11T16:56:23Z</time>
      </trkpt>
      <trkpt lat="44.43101" lon="3.57893">
        <ele>1126.061</ele>
        <time>2021-01-11T16:56:03Z</time>
      </trkpt>
      <trkpt lat="44.4304" lon="3.57927">
        <ele>1127.971</ele>
        <time>2021-01-11T16:55:43Z</time>
      </trkpt>
      <trkpt lat="44.4296" lon="3.57953">
        <ele>1125.437</ele>
        <time>2021-01-11T16:55:23Z</time>
      </trkpt>
      <trkpt lat="44.42923" lon="3.57979">
        <ele>1124.43</ele>
        <time>2021-01-11T16:55:03Z</time>
      </trkpt>
      <trkpt lat="44.42935" lon="3.5803">
        <ele>1127.008</ele>
        <time>2021-01-11T16:54:43Z</time>
      </trkpt>
      <trkpt lat="44.42954" lon="3.58065">
        <ele>1131.311</ele>
        <time>2021-01-11T16:54:23Z</time>
      </trkpt>
      <trkpt lat="44.4296" lon="3.58151">
        <ele>1139.047</ele>
        <time>2021-01-11T16:54:03Z</time>
      </trkpt>
      <trkpt lat="44.42972" lon="3.58176">
        <ele>1140.045</ele>
        <time>2021-01-11T16:53:43Z</time>
      </trkpt>
      <trkpt lat="44.42978" lon="3.58219">
        <ele>1140.484</ele>
        <time>2021-01-11T16:53:23Z</time>
      </trkpt>
      <trkpt lat="44.42954" lon="3.58382">
        <ele>1144.472</ele>
        <time>2021-01-11T16:53:03Z</time>
      </trkpt>
      <trkpt lat="44.42942" lon="3.58434">
        <ele>1139.92</ele>
        <time>2021-01-11T16:52:43Z</time>
      </trkpt>
      <trkpt lat="44.42874" lon="3.58451">
        <ele>1139.068</ele>
        <time>2021-01-11T16:52:23Z</time>
      </trkpt>
      <trkpt lat="44.42844" lon="3.58477">
        <ele>1137.419</ele>
        <time>2021-01-11T16:52:03Z</time>
      </trkpt>
      <trkpt lat="44.42795" lon="3.5858">
        <ele>1136.799</ele>
        <time>2021-01-11T16:51:43Z</time>
      </trkpt>
      <trkpt lat="44.42911" lon="3.58623">
        <ele>1132.355</ele>
        <time>2021-01-11T16:51:23Z</time>
      </trkpt>
      <trkpt lat="44.42966" lon="3.58708">
        <ele>1126.928</ele>
        <time>2021-01-11T16:51:03Z</time>
      </trkpt>
      <trkpt lat="44.42985" lon="3.58803">
        <ele>1122.908</ele>
        <time>2021-01-11T16:50:43Z</time>
      </trkpt>
      <trkpt lat="44.42997" lon="3.58691">
        <ele>1114.514</ele>
        <time>2021-01-11T16:50:23Z</time>
      </trkpt>
      <trkpt lat="44.43015" lon="3.58648">
        <ele>1111.568</ele>
        <time>2021-01-11T16:50:03Z</time>
      </trkpt>
      <trkpt lat="44.43034" lon="3.5864">
        <ele>1108.827</ele>
        <time>2021-01-11T16:49:43Z</time>
      </trkpt>
      <trkpt lat="44.43015" lon="3.58708">
        <ele>1107.614</ele>
        <time>2021-01-11T16:49:23Z</time>
      </trkpt>
      <trkpt lat="44.43027" lon="3.587">
        <ele>1103.132</ele>
        <time>2021-01-11T16:49:03Z</time>
      </trkpt>
      <trkpt lat="44.4304" lon="3.58717">
        <ele>1102.81</ele>
        <time>2021-01-11T16:48:43Z</time>
      </trkpt>
      <trkpt lat="44.4307" lon="3.58803">
        <ele>1119.418</ele>
        <time>2021-01-11T16:48:23Z</time>
      </trkpt>
      <trkpt lat="44.43089" lon="3.58794">
        <ele>1124.069</ele>
        <time>2021-01-11T16:48:03Z</time>
      </trkpt>
      <trkpt lat="44.43113" lon="3.58906">
        <ele>1140.919</ele>
        <time>2021-01-11T16:47:43Z</time>
      </trkpt>
      <trkpt lat="44.43107" lon="3.58957">
        <ele>1143.085</ele>
        <time>2021-01-11T16:47:23Z</time>
      </trkpt>
      <trkpt lat="44.43125" lon="3.59112">
        <ele>1155.688</ele>
        <time>2021-01-11T16:47:03Z</time>
      </trkpt>
      <trkpt lat="44.43156" lon="3.59172">
        <ele>1168.108</ele>
        <time>2021-01-11T16:46:43Z</time>
      </trkpt>
      <trkpt lat="44.43125" lon="3.59292">
        <ele>1175.414</ele>
        <time>2021-01-11T16:46:23Z</time>
      </trkpt>
      <trkpt lat="44.43138" lon="3.59318">
        <ele>1182.068</ele>
        <time>2021-01-11T16:46:03Z</time>
      </trkpt>
      <trkpt lat="44.43162" lon="3.59344">
        <ele>1190.127</ele>
        <time>2021-01-11T16:45:43Z</time>
      </trkpt>
      <trkpt lat="44.43181" lon="3.59429">
        <ele>1197.835</ele>
        <time>2021-01-11T16:45:23Z</time>
      </trkpt>
      <trkpt lat="44.43248" lon="3.59524">
        <ele>1201.953</ele>
        <time>2021-01-11T16:45:03Z</time>
      </trkpt>
      <trkpt lat="44.43266" lon="3.59541">
        <ele>1202.411</ele>
        <time>2021-01-11T16:44:43Z</time>
      </trkpt>
      <trkpt lat="44.4334" lon="3.59532">
        <ele>1212.859</ele>
        <time>2021-01-11T16:44:23Z</time>
      </trkpt>
    </trkseg>
  </trk>
  <trk>
    <name><![CDATA[Bagnols-les-Bains]]></name>
    <extensions>
      <line xmlns="http://www.topografix.com/GPX/gpx_style/0/2">
        <color>fb00ff</color>
        <width>4</width>
      </line>
    </extensions>
    <trkseg>
      <trkpt lat="44.4334" lon="3.59532">
        <ele>1212.859</ele>
        <time>2021-01-11T16:44:23Z</time>
      </trkpt>
      <trkpt lat="44.4334" lon="3.59532">
        <ele>1212.859</ele>
        <time>2021-01-11T16:44:23Z</time>
      </trkpt>
      <trkpt lat="44.43371" lon="3.59678">
        <ele>1206.12</ele>
        <time>2021-01-11T16:44:03Z</time>
      </trkpt>
      <trkpt lat="44.4342" lon="3.59756">
        <ele>1204.03</ele>
        <time>2021-01-11T16:43:43Z</time>
      </trkpt>
      <trkpt lat="44.43401" lon="3.59799">
        <ele>1202.896</ele>
        <time>2021-01-11T16:43:23Z</time>
      </trkpt>
      <trkpt lat="44.43383" lon="3.59807">
        <ele>1204.649</ele>
        <time>2021-01-11T16:43:03Z</time>
      </trkpt>
      <trkpt lat="44.43352" lon="3.5979">
        <ele>1203.108</ele>
        <time>2021-01-11T16:42:43Z</time>
      </trkpt>
      <trkpt lat="44.4334" lon="3.59824">
        <ele>1207.913</ele>
        <time>2021-01-11T16:42:23Z</time>
      </trkpt>
      <trkpt lat="44.43395" lon="3.59927">
        <ele>1221.649</ele>
        <time>2021-01-11T16:42:03Z</time>
      </trkpt>
      <trkpt lat="44.43303" lon="3.59919">
        <ele>1224.437</ele>
        <time>2021-01-11T16:41:43Z</time>
      </trkpt>
      <trkpt lat="44.43279" lon="3.59936">
        <ele>1227.711</ele>
        <time>2021-01-11T16:41:23Z</time>
      </trkpt>
      <trkpt lat="44.43236" lon="3.59979">
        <ele>1231.679</ele>
        <time>2021-01-11T16:41:03Z</time>
      </trkpt>
      <trkpt lat="44.43144" lon="3.60142">
        <ele>1240.967</ele>
        <time>2021-01-11T16:40:43Z</time>
      </trkpt>
      <trkpt lat="44.43113" lon="3.60245">
        <ele>1244.025</ele>
        <time>2021-01-11T16:40:23Z</time>
      </trkpt>
      <trkpt lat="44.43101" lon="3.60314">
        <ele>1246.466</ele>
        <time>2021-01-11T16:40:03Z</time>
      </trkpt>
      <trkpt lat="44.43015" lon="3.60631">
        <ele>1256.486</ele>
        <time>2021-01-11T16:39:43Z</time>
      </trkpt>
      <trkpt lat="44.43119" lon="3.60751">
        <ele>1270.222</ele>
        <time>2021-01-11T16:39:23Z</time>
      </trkpt>
      <trkpt lat="44.4323" lon="3.60837">
        <ele>1280.045</ele>
        <time>2021-01-11T16:39:03Z</time>
      </trkpt>
      <trkpt lat="44.43334" lon="3.60914">
        <ele>1294.208</ele>
        <time>2021-01-11T16:38:43Z</time>
      </trkpt>
      <trkpt lat="44.43444" lon="3.6094">
        <ele>1308.62</ele>
        <time>2021-01-11T16:38:23Z</time>
      </trkpt>
      <trkpt lat="44.43487" lon="3.60966">
        <ele>1315.473</ele>
        <time>2021-01-11T16:38:03Z</time>
      </trkpt>
      <trkpt lat="44.43953" lon="3.61352">
        <ele>1377.492</ele>
        <time>2021-01-11T16:37:43Z</time>
      </trkpt>
      <trkpt lat="44.44235" lon="3.61901">
        <ele>1406.879</ele>
        <time>2021-01-11T16:37:23Z</time>
      </trkpt>
      <trkpt lat="44.44265" lon="3.61979">
        <ele>1410.697</ele>
        <time>2021-01-11T16:37:03Z</time>
      </trkpt>
      <trkpt lat="44.44265" lon="3.62022">
        <ele>1411.325</ele>
        <time>2021-01-11T16:36:43Z</time>
      </trkpt>
      <trkpt lat="44.44376" lon="3.62125">
        <ele>1415.063</ele>
        <time>2021-01-11T16:36:23Z</time>
      </trkpt>
      <trkpt lat="44.44437" lon="3.6221">
        <ele>1416.724</ele>
        <time>2021-01-11T16:36:03Z</time>
      </trkpt>
      <trkpt lat="44.44498" lon="3.62313">
        <ele>1414.974</ele>
        <time>2021-01-11T16:35:43Z</time>
      </trkpt>
      <trkpt lat="44.44541" lon="3.62434">
        <ele>1414.49</ele>
        <time>2021-01-11T16:35:23Z</time>
      </trkpt>
      <trkpt lat="44.44615" lon="3.62605">
        <ele>1407.813</ele>
        <time>2021-01-11T16:35:03Z</time>
      </trkpt>
      <trkpt lat="44.447" lon="3.62725">
        <ele>1419.008</ele>
        <time>2021-01-11T16:34:43Z</time>
      </trkpt>
      <trkpt lat="44.44768" lon="3.62794">
        <ele>1424.126</ele>
        <time>2021-01-11T16:34:23Z</time>
      </trkpt>
      <trkpt lat="44.44817" lon="3.62794">
        <ele>1427.233</ele>
        <time>2021-01-11T16:34:03Z</time>
      </trkpt>
      <trkpt lat="44.44976" lon="3.62691">
        <ele>1436.078</ele>
        <time>2021-01-11T16:33:43Z</time>
      </trkpt>
      <trkpt lat="44.45093" lon="3.62648">
        <ele>1440.05</ele>
        <time>2021-01-11T16:33:23Z</time>
      </trkpt>
      <trkpt lat="44.45172" lon="3.62579">
        <ele>1445.438</ele>
        <time>2021-01-11T16:33:03Z</time>
      </trkpt>
      <trkpt lat="44.45258" lon="3.62605">
        <ele>1450.986</ele>
        <time>2021-01-11T16:32:43Z</time>
      </trkpt>
      <trkpt lat="44.45417" lon="3.62605">
        <ele>1453.074</ele>
        <time>2021-01-11T16:32:23Z</time>
      </trkpt>
      <trkpt lat="44.45638" lon="3.62631">
        <ele>1442.835</ele>
        <time>2021-01-11T16:32:03Z</time>
      </trkpt>
      <trkpt lat="44.45687" lon="3.62691">
        <ele>1440.985</ele>
        <time>2021-01-11T16:31:43Z</time>
      </trkpt>
      <trkpt lat="44.45705" lon="3.62751">
        <ele>1435.961</ele>
        <time>2021-01-11T16:31:23Z</time>
      </trkpt>
      <trkpt lat="44.4573" lon="3.6276">
        <ele>1435.284</ele>
        <time>2021-01-11T16:31:03Z</time>
      </trkpt>
      <trkpt lat="44.4576" lon="3.62803">
        <ele>1433.908</ele>
        <time>2021-01-11T16:30:43Z</time>
      </trkpt>
      <trkpt lat="44.45809" lon="3.62897">
        <ele>1431.317</ele>
        <time>2021-01-11T16:30:23Z</time>
      </trkpt>
      <trkpt lat="44.45889" lon="3.62966">
        <ele>1424.725</ele>
        <time>2021-01-11T16:30:03Z</time>
      </trkpt>
      <trkpt lat="44.45975" lon="3.62983">
        <ele>1420.083</ele>
        <time>2021-01-11T16:29:43Z</time>
      </trkpt>
      <trkpt lat="44.46171" lon="3.62991">
        <ele>1409.71</ele>
        <time>2021-01-11T16:29:23Z</time>
      </trkpt>
      <trkpt lat="44.46416" lon="3.6294">
        <ele>1394.648</ele>
        <time>2021-01-11T16:29:03Z</time>
      </trkpt>
      <trkpt lat="44.46594" lon="3.6294">
        <ele>1385.736</ele>
        <time>2021-01-11T16:28:43Z</time>
      </trkpt>
      <trkpt lat="44.46667" lon="3.62949">
        <ele>1386.094</ele>
        <time>2021-01-11T16:28:23Z</time>
      </trkpt>
      <trkpt lat="44.46845" lon="3.63017">
        <ele>1391.635</ele>
        <time>2021-01-11T16:28:03Z</time>
      </trkpt>
      <trkpt lat="44.46992" lon="3.63052">
        <ele>1387.615</ele>
        <time>2021-01-11T16:27:43Z</time>
      </trkpt>
      <trkpt lat="44.47022" lon="3.63086">
        <ele>1386.281</ele>
        <time>2021-01-11T16:27:23Z</time>
      </trkpt>
      <trkpt lat="44.47133" lon="3.63343">
        <ele>1373.284</ele>
        <time>2021-01-11T16:27:03Z</time>
      </trkpt>
      <trkpt lat="44.47151" lon="3.63361">
        <ele>1371.508</ele>
        <time>2021-01-11T16:26:43Z</time>
      </trkpt>
      <trkpt lat="44.47182" lon="3.63369">
        <ele>1372.417</ele>
        <time>2021-01-11T16:26:23Z</time>
      </trkpt>
      <trkpt lat="44.47243" lon="3.63343">
        <ele>1370.825</ele>
        <time>2021-01-11T16:26:03Z</time>
      </trkpt>
      <trkpt lat="44.47359" lon="3.63232">
        <ele>1372.983</ele>
        <time>2021-01-11T16:25:43Z</time>
      </trkpt>
      <trkpt lat="44.4742" lon="3.63189">
        <ele>1372.293</ele>
        <time>2021-01-11T16:25:23Z</time>
      </trkpt>
      <trkpt lat="44.4758" lon="3.63155">
        <ele>1364.911</ele>
        <time>2021-01-11T16:25:03Z</time>
      </trkpt>
      <trkpt lat="44.47672" lon="3.63009">
        <ele>1359.469</ele>
        <time>2021-01-11T16:24:43Z</time>
      </trkpt>
      <trkpt lat="44.47806" lon="3.62888">
        <ele>1348.037</ele>
        <time>2021-01-11T16:24:23Z</time>
      </trkpt>
      <trkpt lat="44.4788" lon="3.62777">
        <ele>1338.998</ele>
        <time>2021-01-11T16:24:03Z</time>
      </trkpt>
      <trkpt lat="44.47941" lon="3.62751">
        <ele>1339.128</ele>
        <time>2021-01-11T16:23:43Z</time>
      </trkpt>
      <trkpt lat="44.48125" lon="3.62743">
        <ele>1332.614</ele>
        <time>2021-01-11T16:23:23Z</time>
      </trkpt>
      <trkpt lat="44.48124" lon="3.62741">
        <ele>1334</ele>
      </trkpt>
      <trkpt lat="44.48149" lon="3.62742">
        <ele>1331.311</ele>
        <time>2019-11-14T12:20:41Z</time>
      </trkpt>
      <trkpt lat="44.48224" lon="3.6277">
        <ele>1333.108</ele>
        <time>2019-11-14T12:21:01Z</time>
      </trkpt>
      <trkpt lat="44.48397" lon="3.62937">
        <ele>1327.136</ele>
        <time>2019-11-14T12:21:21Z</time>
      </trkpt>
      <trkpt lat="44.48484" lon="3.62993">
        <ele>1322.265</ele>
        <time>2019-11-14T12:21:41Z</time>
      </trkpt>
      <trkpt lat="44.48518" lon="3.63015">
        <ele>1321.067</ele>
        <time>2019-11-14T12:22:01Z</time>
      </trkpt>
      <trkpt lat="44.48633" lon="3.63012">
        <ele>1313.064</ele>
        <time>2019-11-14T12:22:21Z</time>
      </trkpt>
      <trkpt lat="44.48691" lon="3.63021">
        <ele>1304.515</ele>
        <time>2019-11-14T12:22:41Z</time>
      </trkpt>
      <trkpt lat="44.48755" lon="3.63021">
        <ele>1288.266</ele>
        <time>2019-11-14T12:23:01Z</time>
      </trkpt>
      <trkpt lat="44.48835" lon="3.63045">
        <ele>1281.574</ele>
        <time>2019-11-14T12:23:21Z</time>
      </trkpt>
      <trkpt lat="44.48907" lon="3.63025">
        <ele>1261.762</ele>
        <time>2019-11-14T12:23:41Z</time>
      </trkpt>
      <trkpt lat="44.48962" lon="3.62982">
        <ele>1246.218</ele>
        <time>2019-11-14T12:24:01Z</time>
      </trkpt>
      <trkpt lat="44.49003" lon="3.62999">
        <ele>1241.498</ele>
        <time>2019-11-14T12:24:21Z</time>
      </trkpt>
      <trkpt lat="44.49171" lon="3.62969">
        <ele>1213.817</ele>
        <time>2019-11-14T12:24:41Z</time>
      </trkpt>
      <trkpt lat="44.493" lon="3.62922">
        <ele>1214.508</ele>
        <time>2019-11-14T12:25:01Z</time>
      </trkpt>
      <trkpt lat="44.49364" lon="3.62929">
        <ele>1213.475</ele>
        <time>2019-11-14T12:25:21Z</time>
      </trkpt>
      <trkpt lat="44.49473" lon="3.62901">
        <ele>1201.054</ele>
        <time>2019-11-14T12:25:41Z</time>
      </trkpt>
      <trkpt lat="44.49562" lon="3.62918">
        <ele>1186.086</ele>
        <time>2019-11-14T12:26:01Z</time>
      </trkpt>
      <trkpt lat="44.49614" lon="3.62993">
        <ele>1186.063</ele>
        <time>2019-11-14T12:26:21Z</time>
      </trkpt>
      <trkpt lat="44.49634" lon="3.63055">
        <ele>1181.844</ele>
        <time>2019-11-14T12:26:41Z</time>
      </trkpt>
      <trkpt lat="44.49709" lon="3.63197">
        <ele>1176.985</ele>
        <time>2019-11-14T12:27:01Z</time>
      </trkpt>
      <trkpt lat="44.49738" lon="3.63334">
        <ele>1176.273</ele>
        <time>2019-11-14T12:27:21Z</time>
      </trkpt>
      <trkpt lat="44.4973" lon="3.63409">
        <ele>1168.931</ele>
        <time>2019-11-14T12:27:41Z</time>
      </trkpt>
      <trkpt lat="44.49712" lon="3.63504">
        <ele>1156.643</ele>
        <time>2019-11-14T12:28:01Z</time>
      </trkpt>
      <trkpt lat="44.49759" lon="3.636">
        <ele>1153.964</ele>
        <time>2019-11-14T12:28:21Z</time>
      </trkpt>
      <trkpt lat="44.49768" lon="3.63675">
        <ele>1146.61</ele>
        <time>2019-11-14T12:28:41Z</time>
      </trkpt>
      <trkpt lat="44.49716" lon="3.63817">
        <ele>1126.308</ele>
        <time>2019-11-14T12:29:01Z</time>
      </trkpt>
      <trkpt lat="44.49721" lon="3.63935">
        <ele>1119.618</ele>
        <time>2019-11-14T12:29:21Z</time>
      </trkpt>
      <trkpt lat="44.49741" lon="3.64027">
        <ele>1111.517</ele>
        <time>2019-11-14T12:29:41Z</time>
      </trkpt>
      <trkpt lat="44.49781" lon="3.641">
        <ele>1109.389</ele>
        <time>2019-11-14T12:30:01Z</time>
      </trkpt>
      <trkpt lat="44.49781" lon="3.64158">
        <ele>1097.426</ele>
        <time>2019-11-14T12:30:21Z</time>
      </trkpt>
      <trkpt lat="44.49756" lon="3.64233">
        <ele>1085.137</ele>
        <time>2019-11-14T12:30:41Z</time>
      </trkpt>
      <trkpt lat="44.49776" lon="3.64422">
        <ele>1074.718</ele>
        <time>2019-11-14T12:31:01Z</time>
      </trkpt>
      <trkpt lat="44.4973" lon="3.64551">
        <ele>1064.956</ele>
        <time>2019-11-14T12:31:21Z</time>
      </trkpt>
      <trkpt lat="44.49715" lon="3.64628">
        <ele>1064.584</ele>
        <time>2019-11-14T12:31:41Z</time>
      </trkpt>
      <trkpt lat="44.49681" lon="3.64658">
        <ele>1060.185</ele>
        <time>2019-11-14T12:32:01Z</time>
      </trkpt>
      <trkpt lat="44.49644" lon="3.64686">
        <ele>1052.089</ele>
        <time>2019-11-14T12:32:21Z</time>
      </trkpt>
      <trkpt lat="44.49547" lon="3.64798">
        <ele>1036.817</ele>
        <time>2019-11-14T12:32:41Z</time>
      </trkpt>
      <trkpt lat="44.49576" lon="3.64903">
        <ele>1033.008</ele>
        <time>2019-11-14T12:33:01Z</time>
      </trkpt>
      <trkpt lat="44.49655" lon="3.65077">
        <ele>1027.382</ele>
        <time>2019-11-14T12:33:21Z</time>
      </trkpt>
      <trkpt lat="44.49658" lon="3.65139">
        <ele>1022.631</ele>
        <time>2019-11-14T12:33:41Z</time>
      </trkpt>
      <trkpt lat="44.49643" lon="3.65323">
        <ele>1016.373</ele>
        <time>2019-11-14T12:34:01Z</time>
      </trkpt>
      <trkpt lat="44.49641" lon="3.65467">
        <ele>1010.88</ele>
        <time>2019-11-14T12:34:21Z</time>
      </trkpt>
      <trkpt lat="44.49654" lon="3.65512">
        <ele>1010.711</ele>
        <time>2019-11-14T12:34:41Z</time>
      </trkpt>
      <trkpt lat="44.49719" lon="3.65536">
        <ele>1016.242</ele>
        <time>2019-11-14T12:35:01Z</time>
      </trkpt>
      <trkpt lat="44.49787" lon="3.65628">
        <ele>1004.55</ele>
        <time>2019-11-14T12:35:21Z</time>
      </trkpt>
      <trkpt lat="44.4986" lon="3.6566">
        <ele>1008.338</ele>
        <time>2019-11-14T12:35:41Z</time>
      </trkpt>
      <trkpt lat="44.49897" lon="3.65703">
        <ele>999.935</ele>
        <time>2019-11-14T12:36:01Z</time>
      </trkpt>
      <trkpt lat="44.4998" lon="3.65753">
        <ele>1001.086</ele>
        <time>2019-11-14T12:36:21Z</time>
      </trkpt>
      <trkpt lat="44.5007" lon="3.65763">
        <ele>1015.914</ele>
        <time>2019-11-14T12:36:41Z</time>
      </trkpt>
      <trkpt lat="44.50108" lon="3.65806">
        <ele>1012.808</ele>
        <time>2019-11-14T12:37:01Z</time>
      </trkpt>
      <trkpt lat="44.50177" lon="3.65967">
        <ele>997.987</ele>
        <time>2019-11-14T12:37:21Z</time>
      </trkpt>
      <trkpt lat="44.50206" lon="3.66104">
        <ele>986.166</ele>
        <time>2019-11-14T12:37:41Z</time>
      </trkpt>
      <trkpt lat="44.50205" lon="3.66167">
        <ele>982.518</ele>
        <time>2019-11-14T12:38:01Z</time>
      </trkpt>
      <trkpt lat="44.50225" lon="3.66233">
        <ele>983.095</ele>
        <time>2019-11-14T12:38:21Z</time>
      </trkpt>
      <trkpt lat="44.50226" lon="3.66295">
        <ele>973.926</ele>
        <time>2019-11-14T12:38:41Z</time>
      </trkpt>
      <trkpt lat="44.50295" lon="3.66328">
        <ele>978.367</ele>
        <time>2019-11-14T12:39:01Z</time>
      </trkpt>
      <trkpt lat="44.50339" lon="3.66377">
        <ele>965.785</ele>
        <time>2019-11-14T12:39:21Z</time>
      </trkpt>
      <trkpt lat="44.50361" lon="3.66439">
        <ele>960.423</ele>
        <time>2019-11-14T12:39:41Z</time>
      </trkpt>
      <trkpt lat="44.50405" lon="3.66478">
        <ele>958.894</ele>
        <time>2019-11-14T12:40:01Z</time>
      </trkpt>
      <trkpt lat="44.5044" lon="3.66501">
        <ele>955.057</ele>
        <time>2019-11-14T12:40:21Z</time>
      </trkpt>
      <trkpt lat="44.50483" lon="3.66388">
        <ele>953.122</ele>
        <time>2019-11-14T12:40:41Z</time>
      </trkpt>
      <trkpt lat="44.50532" lon="3.66422">
        <ele>940.708</ele>
        <time>2019-11-14T12:41:01Z</time>
      </trkpt>
      <trkpt lat="44.50548" lon="3.66426">
        <ele>937</ele>
      </trkpt>
      <trkpt lat="44.50551" lon="3.66445">
        <ele>934.5</ele>
      </trkpt>
      <trkpt lat="44.50537" lon="3.66534">
        <ele>928.2</ele>
      </trkpt>
      <trkpt lat="44.50506" lon="3.66563">
        <ele>929.4</ele>
      </trkpt>
      <trkpt lat="44.50483" lon="3.66606">
        <ele>927</ele>
      </trkpt>
      <trkpt lat="44.50461" lon="3.66633">
        <ele>926</ele>
      </trkpt>
      <trkpt lat="44.50457" lon="3.66647">
        <ele>923.7</ele>
      </trkpt>
      <trkpt lat="44.50472" lon="3.66686">
        <ele>916.9</ele>
      </trkpt>
      <trkpt lat="44.50437" lon="3.66724">
        <ele>918.4</ele>
      </trkpt>
      <trkpt lat="44.50464" lon="3.66786">
        <ele>919.6</ele>
      </trkpt>
    </trkseg>
  </trk>
  <trk>
    <name><![CDATA[gare bagnoles Chadenet]]></name>
    <extensions>
      <line xmlns="http://www.topografix.com/GPX/gpx_style/0/2">
        <color>0000FF</color>
        <width>4</width>
      </line>
    </extensions>
    <trkseg>
      <trkpt lat="44.52831" lon="3.62847">
        <ele>957.2</ele>
      </trkpt>
      <trkpt lat="44.52831" lon="3.62847">
        <ele>957.2</ele>
      </trkpt>
      <trkpt lat="44.53009" lon="3.63052">
        <ele>954.7</ele>
      </trkpt>
      <trkpt lat="44.5302" lon="3.63082">
        <ele>952.3</ele>
      </trkpt>
      <trkpt lat="44.53014" lon="3.63108">
        <ele>947.5</ele>
      </trkpt>
      <trkpt lat="44.52964" lon="3.63037">
        <ele>947.3</ele>
      </trkpt>
      <trkpt lat="44.52899" lon="3.62986">
        <ele>942.7</ele>
      </trkpt>
      <trkpt lat="44.52685" lon="3.62817">
        <ele>929.5</ele>
      </trkpt>
      <trkpt lat="44.52607" lon="3.62729">
        <ele>933.8</ele>
      </trkpt>
      <trkpt lat="44.52435" lon="3.62671">
        <ele>919</ele>
      </trkpt>
      <trkpt lat="44.52174" lon="3.62655">
        <ele>897</ele>
      </trkpt>
      <trkpt lat="44.52139" lon="3.62641">
        <ele>896</ele>
      </trkpt>
      <trkpt lat="44.52108" lon="3.62639">
        <ele>893.3</ele>
      </trkpt>
      <trkpt lat="44.52077" lon="3.6268">
        <ele>887.1</ele>
      </trkpt>
      <trkpt lat="44.52057" lon="3.62765">
        <ele>885.4</ele>
      </trkpt>
      <trkpt lat="44.52023" lon="3.62793">
        <ele>886.1</ele>
      </trkpt>
      <trkpt lat="44.5198" lon="3.62815">
        <ele>884.7</ele>
      </trkpt>
      <trkpt lat="44.51972" lon="3.62874">
        <ele>888.6</ele>
      </trkpt>
      <trkpt lat="44.5198" lon="3.62979">
        <ele>896.7</ele>
      </trkpt>
      <trkpt lat="44.51984" lon="3.63158">
        <ele>894.217</ele>
        <time>2019-11-14T12:52:41Z</time>
      </trkpt>
      <trkpt lat="44.51952" lon="3.63336">
        <ele>888.689</ele>
        <time>2019-11-14T12:52:21Z</time>
      </trkpt>
      <trkpt lat="44.51951" lon="3.63422">
        <ele>886.585</ele>
        <time>2019-11-14T12:52:01Z</time>
      </trkpt>
      <trkpt lat="44.51926" lon="3.63454">
        <ele>883.214</ele>
        <time>2019-11-14T12:51:41Z</time>
      </trkpt>
      <trkpt lat="44.5181" lon="3.63437">
        <ele>882.186</ele>
        <time>2019-11-14T12:51:21Z</time>
      </trkpt>
      <trkpt lat="44.51804" lon="3.63489">
        <ele>882.188</ele>
        <time>2019-11-14T12:51:01Z</time>
      </trkpt>
      <trkpt lat="44.51775" lon="3.63583">
        <ele>883.087</ele>
        <time>2019-11-14T12:50:41Z</time>
      </trkpt>
      <trkpt lat="44.51758" lon="3.63703">
        <ele>885.036</ele>
        <time>2019-11-14T12:50:21Z</time>
      </trkpt>
      <trkpt lat="44.51672" lon="3.64006">
        <ele>886.639</ele>
        <time>2019-11-14T12:50:01Z</time>
      </trkpt>
      <trkpt lat="44.51625" lon="3.64225">
        <ele>889.067</ele>
        <time>2019-11-14T12:49:41Z</time>
      </trkpt>
      <trkpt lat="44.51594" lon="3.64315">
        <ele>889.018</ele>
        <time>2019-11-14T12:49:21Z</time>
      </trkpt>
      <trkpt lat="44.51524" lon="3.64456">
        <ele>889.108</ele>
        <time>2019-11-14T12:49:01Z</time>
      </trkpt>
      <trkpt lat="44.51421" lon="3.64615">
        <ele>889.914</ele>
        <time>2019-11-14T12:48:41Z</time>
      </trkpt>
      <trkpt lat="44.51361" lon="3.64654">
        <ele>892.022</ele>
        <time>2019-11-14T12:48:21Z</time>
      </trkpt>
      <trkpt lat="44.51386" lon="3.64738">
        <ele>894.442</ele>
        <time>2019-11-14T12:48:01Z</time>
      </trkpt>
      <trkpt lat="44.51357" lon="3.64789">
        <ele>896.837</ele>
        <time>2019-11-14T12:47:41Z</time>
      </trkpt>
      <trkpt lat="44.51332" lon="3.64871">
        <ele>899.629</ele>
        <time>2019-11-14T12:47:21Z</time>
      </trkpt>
      <trkpt lat="44.51332" lon="3.64946">
        <ele>900.911</ele>
        <time>2019-11-14T12:47:01Z</time>
      </trkpt>
      <trkpt lat="44.51355" lon="3.64965">
        <ele>903.21</ele>
        <time>2019-11-14T12:46:41Z</time>
      </trkpt>
      <trkpt lat="44.51363" lon="3.65042">
        <ele>903.249</ele>
        <time>2019-11-14T12:46:21Z</time>
      </trkpt>
      <trkpt lat="44.51299" lon="3.65055">
        <ele>907.282</ele>
        <time>2019-11-14T12:46:01Z</time>
      </trkpt>
      <trkpt lat="44.51244" lon="3.65042">
        <ele>905.67</ele>
        <time>2019-11-14T12:45:41Z</time>
      </trkpt>
      <trkpt lat="44.51196" lon="3.65087">
        <ele>908.861</ele>
        <time>2019-11-14T12:45:21Z</time>
      </trkpt>
      <trkpt lat="44.51092" lon="3.65087">
        <ele>905.508</ele>
        <time>2019-11-14T12:45:01Z</time>
      </trkpt>
      <trkpt lat="44.51019" lon="3.65137">
        <ele>905.714</ele>
        <time>2019-11-14T12:44:41Z</time>
      </trkpt>
      <trkpt lat="44.50985" lon="3.65137">
        <ele>902.813</ele>
        <time>2019-11-14T12:44:21Z</time>
      </trkpt>
      <trkpt lat="44.50932" lon="3.65192">
        <ele>903.072</ele>
        <time>2019-11-14T12:44:01Z</time>
      </trkpt>
      <trkpt lat="44.5091" lon="3.65315">
        <ele>904.349</ele>
        <time>2019-11-14T12:43:41Z</time>
      </trkpt>
      <trkpt lat="44.50945" lon="3.65471">
        <ele>907.581</ele>
        <time>2019-11-14T12:43:21Z</time>
      </trkpt>
      <trkpt lat="44.5097" lon="3.65604">
        <ele>905.213</ele>
        <time>2019-11-14T12:43:01Z</time>
      </trkpt>
      <trkpt lat="44.50938" lon="3.65757">
        <ele>901.112</ele>
        <time>2019-11-14T12:42:41Z</time>
      </trkpt>
      <trkpt lat="44.50899" lon="3.66049">
        <ele>903.181</ele>
        <time>2019-11-14T12:42:21Z</time>
      </trkpt>
      <trkpt lat="44.5085" lon="3.66044">
        <ele>905.594</ele>
        <time>2019-11-14T12:42:01Z</time>
      </trkpt>
      <trkpt lat="44.50795" lon="3.66025">
        <ele>915.322</ele>
        <time>2019-11-14T12:41:41Z</time>
      </trkpt>
      <trkpt lat="44.50656" lon="3.66401">
        <ele>916.543</ele>
        <time>2019-11-14T12:41:21Z</time>
      </trkpt>
      <trkpt lat="44.50532" lon="3.66422">
        <ele>940.708</ele>
        <time>2019-11-14T12:41:01Z</time>
      </trkpt>
    </trkseg>
  </trk>
  <trk>
    <name><![CDATA[Génolhac]]></name>
    <extensions>
      <line xmlns="http://www.topografix.com/GPX/gpx_style/0/2">
        <color>00ff33</color>
        <width>4</width>
      </line>
    </extensions>
    <trkseg>
      <trkpt lat="44.34738" lon="3.95134">
        <ele>475.1</ele>
      </trkpt>
      <trkpt lat="44.34751" lon="3.95148">
        <ele>475.8</ele>
      </trkpt>
      <trkpt lat="44.34777" lon="3.95166">
        <ele>477.3</ele>
      </trkpt>
      <trkpt lat="44.34809" lon="3.95145">
        <ele>480</ele>
      </trkpt>
      <trkpt lat="44.34877" lon="3.95073">
        <ele>488.7</ele>
      </trkpt>
      <trkpt lat="44.34924" lon="3.95044">
        <ele>491.5</ele>
      </trkpt>
      <trkpt lat="44.3492" lon="3.95012">
        <ele>492.6</ele>
      </trkpt>
      <trkpt lat="44.34925" lon="3.95006">
        <ele>493</ele>
      </trkpt>
      <trkpt lat="44.34922" lon="3.94989">
        <ele>493.4</ele>
      </trkpt>
      <trkpt lat="44.34948" lon="3.94983">
        <ele>494.3</ele>
      </trkpt>
    </trkseg>
  </trk>
  <trk>
    <name><![CDATA[AUJAC]]></name>
    <extensions>
      <line xmlns="http://www.topografix.com/GPX/gpx_style/0/2">
        <color>00ffee</color>
        <width>4</width>
      </line>
    </extensions>
    <trkseg>
      <trkpt lat="44.35118" lon="4.01756">
        <ele>520.408</ele>
        <time>2017-01-24T19:56:23Z</time>
      </trkpt>
      <trkpt lat="44.35118" lon="4.01756">
        <ele>520.496</ele>
        <time>2017-01-24T19:56:43Z</time>
      </trkpt>
      <trkpt lat="44.35104" lon="4.01769">
        <ele>521.927</ele>
        <time>2017-01-24T19:57:03Z</time>
      </trkpt>
      <trkpt lat="44.35106" lon="4.01694">
        <ele>525.034</ele>
        <time>2017-01-24T19:57:23Z</time>
      </trkpt>
      <trkpt lat="44.35109" lon="4.01617">
        <ele>526.328</ele>
        <time>2017-01-24T19:57:43Z</time>
      </trkpt>
      <trkpt lat="44.35097" lon="4.015">
        <ele>524.098</ele>
        <time>2017-01-24T19:58:03Z</time>
      </trkpt>
      <trkpt lat="44.35002" lon="4.00999">
        <ele>510.192</ele>
        <time>2017-01-24T19:58:23Z</time>
      </trkpt>
      <trkpt lat="44.34972" lon="4.00948">
        <ele>510.673</ele>
        <time>2017-01-24T19:58:43Z</time>
      </trkpt>
      <trkpt lat="44.34945" lon="4.00875">
        <ele>513.55</ele>
        <time>2017-01-24T19:59:03Z</time>
      </trkpt>
      <trkpt lat="44.34906" lon="4.00798">
        <ele>509.453</ele>
        <time>2017-01-24T19:59:23Z</time>
      </trkpt>
      <trkpt lat="44.34918" lon="4.00615">
        <ele>503.404</ele>
        <time>2017-01-24T19:59:43Z</time>
      </trkpt>
      <trkpt lat="44.34967" lon="4.00503">
        <ele>497.314</ele>
        <time>2017-01-24T20:00:03Z</time>
      </trkpt>
      <trkpt lat="44.35011" lon="4.0035">
        <ele>484.708</ele>
        <time>2017-01-24T20:00:23Z</time>
      </trkpt>
      <trkpt lat="44.35032" lon="4.00243">
        <ele>475.12</ele>
        <time>2017-01-24T20:00:43Z</time>
      </trkpt>
      <trkpt lat="44.35108" lon="4.0003">
        <ele>456.051</ele>
        <time>2019-04-07T21:41:39Z</time>
      </trkpt>
      <trkpt lat="44.35173" lon="3.99994">
        <ele>444.648</ele>
        <time>2019-04-07T21:41:59Z</time>
      </trkpt>
      <trkpt lat="44.35202" lon="3.99958">
        <ele>431.452</ele>
        <time>2019-04-07T21:42:19Z</time>
      </trkpt>
      <trkpt lat="44.35244" lon="3.99926">
        <ele>418.482</ele>
        <time>2017-01-24T20:02:43Z</time>
      </trkpt>
      <trkpt lat="44.35275" lon="3.99912">
        <ele>404.976</ele>
        <time>2019-04-07T21:42:59Z</time>
      </trkpt>
      <trkpt lat="44.35302" lon="3.99864">
        <ele>391.537</ele>
        <time>2019-04-07T21:43:19Z</time>
      </trkpt>
      <trkpt lat="44.35322" lon="3.99855">
        <ele>383.054</ele>
        <time>2017-01-24T20:03:43Z</time>
      </trkpt>
      <trkpt lat="44.35338" lon="3.99828">
        <ele>378.469</ele>
        <time>2017-01-24T20:04:03Z</time>
      </trkpt>
      <trkpt lat="44.35389" lon="3.99804">
        <ele>370.104</ele>
        <time>2017-01-24T20:04:23Z</time>
      </trkpt>
      <trkpt lat="44.35414" lon="3.99762">
        <ele>366.124</ele>
        <time>2017-01-24T20:04:43Z</time>
      </trkpt>
      <trkpt lat="44.35435" lon="3.99745">
        <ele>362.008</ele>
        <time>2017-01-24T20:05:03Z</time>
      </trkpt>
      <trkpt lat="44.35441" lon="3.99717">
        <ele>360.221</ele>
        <time>2017-01-24T20:05:23Z</time>
      </trkpt>
      <trkpt lat="44.35548" lon="3.9965">
        <ele>337.582</ele>
        <time>2017-01-24T20:05:43Z</time>
      </trkpt>
      <trkpt lat="44.35589" lon="3.99638">
        <ele>333.159</ele>
        <time>2017-01-24T20:06:03Z</time>
      </trkpt>
      <trkpt lat="44.35599" lon="3.99623">
        <ele>331.663</ele>
        <time>2017-01-24T20:06:23Z</time>
      </trkpt>
      <trkpt lat="44.35617" lon="3.99613">
        <ele>330.483</ele>
        <time>2017-01-24T20:06:43Z</time>
      </trkpt>
      <trkpt lat="44.35624" lon="3.99586">
        <ele>329.267</ele>
        <time>2017-01-24T20:07:03Z</time>
      </trkpt>
      <trkpt lat="44.35625" lon="3.99585">
        <ele>329.168</ele>
        <time>2017-01-24T20:07:23Z</time>
      </trkpt>
      <trkpt lat="44.35638" lon="3.99585">
        <ele>328.175</ele>
        <time>2017-01-24T20:07:43Z</time>
      </trkpt>
      <trkpt lat="44.35707" lon="3.99649">
        <ele>327.094</ele>
        <time>2017-01-24T20:08:03Z</time>
      </trkpt>
      <trkpt lat="44.35731" lon="3.9966">
        <ele>337.257</ele>
        <time>2019-04-07T21:48:19Z</time>
      </trkpt>
      <trkpt lat="44.35745" lon="3.99593">
        <ele>340.722</ele>
        <time>2019-04-07T21:48:39Z</time>
      </trkpt>
      <trkpt lat="44.35691" lon="3.99423">
        <ele>335.408</ele>
        <time>2019-04-07T21:48:59Z</time>
      </trkpt>
      <trkpt lat="44.3569" lon="3.99352">
        <ele>341.094</ele>
        <time>2019-04-07T21:49:19Z</time>
      </trkpt>
      <trkpt lat="44.35649" lon="3.99238">
        <ele>349.315</ele>
        <time>2019-04-07T21:49:39Z</time>
      </trkpt>
      <trkpt lat="44.35649" lon="3.99187">
        <ele>357.992</ele>
        <time>2019-04-07T21:49:59Z</time>
      </trkpt>
      <trkpt lat="44.3562" lon="3.99096">
        <ele>368.646</ele>
        <time>2019-04-07T21:50:19Z</time>
      </trkpt>
      <trkpt lat="44.35552" lon="3.99028">
        <ele>375.046</ele>
        <time>2019-04-07T21:50:39Z</time>
      </trkpt>
      <trkpt lat="44.35522" lon="3.98941">
        <ele>389.58</ele>
        <time>2019-04-07T21:50:59Z</time>
      </trkpt>
      <trkpt lat="44.35435" lon="3.98877">
        <ele>399.491</ele>
        <time>2019-04-07T21:51:19Z</time>
      </trkpt>
      <trkpt lat="44.35408" lon="3.98804">
        <ele>406.088</ele>
        <time>2019-04-07T21:51:39Z</time>
      </trkpt>
      <trkpt lat="44.35444" lon="3.98694">
        <ele>421.075</ele>
        <time>2019-04-07T21:51:59Z</time>
      </trkpt>
      <trkpt lat="44.35416" lon="3.98621">
        <ele>430.728</ele>
        <time>2019-04-07T21:52:19Z</time>
      </trkpt>
      <trkpt lat="44.35384" lon="3.98491">
        <ele>452.22</ele>
        <time>2019-04-07T21:52:39Z</time>
      </trkpt>
      <trkpt lat="44.35415" lon="3.98505">
        <ele>452.408</ele>
        <time>2019-04-07T21:52:59Z</time>
      </trkpt>
      <trkpt lat="44.35474" lon="3.98507">
        <ele>456.442</ele>
        <time>2019-04-07T21:53:19Z</time>
      </trkpt>
      <trkpt lat="44.35511" lon="3.98561">
        <ele>453.843</ele>
        <time>2019-04-07T21:53:39Z</time>
      </trkpt>
      <trkpt lat="44.35539" lon="3.98572">
        <ele>455.76</ele>
        <time>2019-04-07T21:53:59Z</time>
      </trkpt>
      <trkpt lat="44.35561" lon="3.98536">
        <ele>463.184</ele>
        <time>2019-04-07T21:54:19Z</time>
      </trkpt>
      <trkpt lat="44.35576" lon="3.98522">
        <ele>466.194</ele>
        <time>2019-04-07T21:54:39Z</time>
      </trkpt>
      <trkpt lat="44.35587" lon="3.98486">
        <ele>471.078</ele>
        <time>2019-04-07T21:54:59Z</time>
      </trkpt>
      <trkpt lat="44.35605" lon="3.98464">
        <ele>473.229</ele>
        <time>2019-04-07T21:55:19Z</time>
      </trkpt>
      <trkpt lat="44.35702" lon="3.9853">
        <ele>479.816</ele>
        <time>2019-04-07T21:55:39Z</time>
      </trkpt>
      <trkpt lat="44.35754" lon="3.98537">
        <ele>487.193</ele>
        <time>2019-04-07T21:55:59Z</time>
      </trkpt>
      <trkpt lat="44.35795" lon="3.98593">
        <ele>483.365</ele>
        <time>2019-04-07T21:56:19Z</time>
      </trkpt>
      <trkpt lat="44.35901" lon="3.98647">
        <ele>498.921</ele>
        <time>2019-04-07T21:56:39Z</time>
      </trkpt>
      <trkpt lat="44.35941" lon="3.98636">
        <ele>504.808</ele>
        <time>2019-04-07T21:56:59Z</time>
      </trkpt>
      <trkpt lat="44.35962" lon="3.98586">
        <ele>504.334</ele>
        <time>2019-04-07T21:57:19Z</time>
      </trkpt>
      <trkpt lat="44.35945" lon="3.9853">
        <ele>517.465</ele>
        <time>2019-04-07T21:57:39Z</time>
      </trkpt>
      <trkpt lat="44.35944" lon="3.98429">
        <ele>542.852</ele>
        <time>2019-04-07T21:57:59Z</time>
      </trkpt>
      <trkpt lat="44.35882" lon="3.98358">
        <ele>540.456</ele>
        <time>2019-04-07T21:58:19Z</time>
      </trkpt>
      <trkpt lat="44.35878" lon="3.98353">
        <ele>540.236</ele>
        <time>2017-01-24T20:21:03Z</time>
      </trkpt>
      <trkpt lat="44.35847" lon="3.98297">
        <ele>539.18</ele>
        <time>2017-01-24T20:21:23Z</time>
      </trkpt>
      <trkpt lat="44.35829" lon="3.98284">
        <ele>536.871</ele>
        <time>2017-01-24T20:21:43Z</time>
      </trkpt>
      <trkpt lat="44.35772" lon="3.982">
        <ele>546.898</ele>
        <time>2017-01-24T20:22:03Z</time>
      </trkpt>
      <trkpt lat="44.35699" lon="3.98176">
        <ele>549.941</ele>
        <time>2017-01-24T20:22:23Z</time>
      </trkpt>
      <trkpt lat="44.35682" lon="3.98142">
        <ele>552.881</ele>
        <time>2017-01-24T20:22:43Z</time>
      </trkpt>
      <trkpt lat="44.35643" lon="3.98108">
        <ele>550.009</ele>
        <time>2017-01-24T20:23:03Z</time>
      </trkpt>
      <trkpt lat="44.35623" lon="3.98064">
        <ele>549.708</ele>
        <time>2017-01-24T20:23:23Z</time>
      </trkpt>
      <trkpt lat="44.35623" lon="3.98021">
        <ele>546.359</ele>
        <time>2017-01-24T20:23:43Z</time>
      </trkpt>
      <trkpt lat="44.35691" lon="3.97963">
        <ele>544.62</ele>
        <time>2017-01-24T20:24:03Z</time>
      </trkpt>
      <trkpt lat="44.35725" lon="3.97913">
        <ele>541.017</ele>
        <time>2017-01-24T20:24:23Z</time>
      </trkpt>
      <trkpt lat="44.35738" lon="3.97879">
        <ele>539.271</ele>
        <time>2017-01-24T20:24:43Z</time>
      </trkpt>
      <trkpt lat="44.35802" lon="3.97833">
        <ele>542.671</ele>
        <time>2017-01-24T20:25:03Z</time>
      </trkpt>
      <trkpt lat="44.35849" lon="3.97753">
        <ele>542.395</ele>
        <time>2017-01-24T20:25:23Z</time>
      </trkpt>
      <trkpt lat="44.35878" lon="3.97688">
        <ele>543.476</ele>
        <time>2017-01-24T20:25:43Z</time>
      </trkpt>
      <trkpt lat="44.35955" lon="3.97456">
        <ele>531.473</ele>
        <time>2017-01-24T20:26:03Z</time>
      </trkpt>
      <trkpt lat="44.35967" lon="3.97444">
        <ele>534.124</ele>
        <time>2017-01-24T20:26:23Z</time>
      </trkpt>
      <trkpt lat="44.35978" lon="3.97407">
        <ele>531.204</ele>
        <time>2017-01-24T20:26:43Z</time>
      </trkpt>
      <trkpt lat="44.36025" lon="3.97327">
        <ele>537.914</ele>
        <time>2017-01-24T20:27:03Z</time>
      </trkpt>
      <trkpt lat="44.35996" lon="3.97294">
        <ele>531.608</ele>
        <time>2017-01-24T20:27:23Z</time>
      </trkpt>
      <trkpt lat="44.35975" lon="3.97202">
        <ele>539.657</ele>
        <time>2017-01-24T20:27:43Z</time>
      </trkpt>
      <trkpt lat="44.35974" lon="3.97092">
        <ele>543.988</ele>
        <time>2017-01-24T20:28:03Z</time>
      </trkpt>
      <trkpt lat="44.35995" lon="3.96941">
        <ele>545.085</ele>
        <time>2017-01-24T20:28:23Z</time>
      </trkpt>
      <trkpt lat="44.35988" lon="3.96827">
        <ele>541.949</ele>
        <time>2017-01-24T20:28:43Z</time>
      </trkpt>
      <trkpt lat="44.35992" lon="3.96724">
        <ele>539.319</ele>
        <time>2017-01-24T20:29:03Z</time>
      </trkpt>
      <trkpt lat="44.36018" lon="3.96633">
        <ele>527.263</ele>
        <time>2017-01-24T20:29:23Z</time>
      </trkpt>
      <trkpt lat="44.36039" lon="3.96584">
        <ele>525.254</ele>
        <time>2017-01-24T20:29:43Z</time>
      </trkpt>
      <trkpt lat="44.36052" lon="3.96563">
        <ele>529.361</ele>
        <time>2019-04-07T22:07:39Z</time>
      </trkpt>
      <trkpt lat="44.36032" lon="3.96522">
        <ele>517.648</ele>
        <time>2019-04-07T22:07:59Z</time>
      </trkpt>
      <trkpt lat="44.36033" lon="3.9646">
        <ele>513.861</ele>
        <time>2019-04-07T22:08:19Z</time>
      </trkpt>
      <trkpt lat="44.36021" lon="3.96441">
        <ele>507.017</ele>
        <time>2019-04-07T22:08:39Z</time>
      </trkpt>
      <trkpt lat="44.36028" lon="3.96374">
        <ele>509.008</ele>
        <time>2017-01-24T20:31:03Z</time>
      </trkpt>
      <trkpt lat="44.36007" lon="3.96398">
        <ele>501.449</ele>
        <time>2017-01-24T20:31:23Z</time>
      </trkpt>
      <trkpt lat="44.36007" lon="3.96389">
        <ele>501.03</ele>
        <time>2017-01-24T20:31:43Z</time>
      </trkpt>
      <trkpt lat="44.36031" lon="3.96339">
        <ele>504.627</ele>
        <time>2017-01-24T20:32:03Z</time>
      </trkpt>
      <trkpt lat="44.36015" lon="3.96264">
        <ele>488.691</ele>
        <time>2017-01-24T20:32:23Z</time>
      </trkpt>
      <trkpt lat="44.36027" lon="3.96203">
        <ele>484.971</ele>
        <time>2017-01-24T20:32:43Z</time>
      </trkpt>
      <trkpt lat="44.36051" lon="3.9613">
        <ele>492.965</ele>
        <time>2017-01-24T20:33:03Z</time>
      </trkpt>
      <trkpt lat="44.36034" lon="3.96081">
        <ele>482.316</ele>
        <time>2017-01-24T20:33:23Z</time>
      </trkpt>
      <trkpt lat="44.36036" lon="3.96035">
        <ele>481.133</ele>
        <time>2017-01-24T20:33:43Z</time>
      </trkpt>
      <trkpt lat="44.36051" lon="3.95984">
        <ele>481.022</ele>
        <time>2017-01-24T20:34:03Z</time>
      </trkpt>
      <trkpt lat="44.36057" lon="3.95933">
        <ele>473.062</ele>
        <time>2017-01-24T20:34:23Z</time>
      </trkpt>
      <trkpt lat="44.3608" lon="3.95903">
        <ele>474.108</ele>
        <time>2017-01-24T20:34:43Z</time>
      </trkpt>
      <trkpt lat="44.36103" lon="3.95888">
        <ele>477.708</ele>
        <time>2017-01-24T20:35:03Z</time>
      </trkpt>
      <trkpt lat="44.36103" lon="3.9588">
        <ele>478.727</ele>
        <time>2017-01-24T20:35:23Z</time>
      </trkpt>
      <trkpt lat="44.36068" lon="3.95839">
        <ele>476.318</ele>
        <time>2017-01-24T20:35:43Z</time>
      </trkpt>
      <trkpt lat="44.36046" lon="3.95827">
        <ele>472.665</ele>
        <time>2017-01-24T20:36:03Z</time>
      </trkpt>
      <trkpt lat="44.36039" lon="3.95803">
        <ele>472.969</ele>
        <time>2017-01-24T20:36:23Z</time>
      </trkpt>
      <trkpt lat="44.36021" lon="3.9578">
        <ele>475.049</ele>
        <time>2017-01-24T20:36:43Z</time>
      </trkpt>
      <trkpt lat="44.36005" lon="3.95791">
        <ele>474.773</ele>
        <time>2017-01-24T20:37:03Z</time>
      </trkpt>
      <trkpt lat="44.35967" lon="3.95905">
        <ele>472.034</ele>
        <time>2017-01-24T20:37:23Z</time>
      </trkpt>
      <trkpt lat="44.35915" lon="3.95946">
        <ele>473.061</ele>
        <time>2017-01-24T20:37:43Z</time>
      </trkpt>
      <trkpt lat="44.35928" lon="3.95984">
        <ele>465.893</ele>
        <time>2017-01-24T20:38:03Z</time>
      </trkpt>
      <trkpt lat="44.35912" lon="3.96039">
        <ele>471.065</ele>
        <time>2017-01-24T20:38:23Z</time>
      </trkpt>
      <trkpt lat="44.35905" lon="3.96116">
        <ele>469.621</ele>
        <time>2017-01-24T20:38:43Z</time>
      </trkpt>
      <trkpt lat="44.35891" lon="3.96163">
        <ele>474.908</ele>
        <time>2017-01-24T20:39:03Z</time>
      </trkpt>
      <trkpt lat="44.35872" lon="3.96125">
        <ele>486.664</ele>
        <time>2017-01-24T20:39:23Z</time>
      </trkpt>
      <trkpt lat="44.35844" lon="3.96093">
        <ele>502.795</ele>
        <time>2017-01-24T20:39:43Z</time>
      </trkpt>
      <trkpt lat="44.3583" lon="3.96028">
        <ele>507.742</ele>
        <time>2017-01-24T20:40:03Z</time>
      </trkpt>
      <trkpt lat="44.35789" lon="3.95983">
        <ele>517.956</ele>
        <time>2017-01-24T20:40:23Z</time>
      </trkpt>
      <trkpt lat="44.35738" lon="3.9594">
        <ele>526.096</ele>
        <time>2017-01-24T20:40:43Z</time>
      </trkpt>
      <trkpt lat="44.35725" lon="3.95898">
        <ele>526.38</ele>
        <time>2017-01-24T20:41:03Z</time>
      </trkpt>
      <trkpt lat="44.3568" lon="3.95859">
        <ele>535.291</ele>
        <time>2017-01-24T20:41:23Z</time>
      </trkpt>
      <trkpt lat="44.35645" lon="3.95838">
        <ele>538.958</ele>
        <time>2017-01-24T20:41:43Z</time>
      </trkpt>
      <trkpt lat="44.35646" lon="3.95755">
        <ele>539.555</ele>
        <time>2017-01-24T20:42:03Z</time>
      </trkpt>
      <trkpt lat="44.35656" lon="3.95718">
        <ele>540.707</ele>
        <time>2017-01-24T20:42:23Z</time>
      </trkpt>
      <trkpt lat="44.35625" lon="3.95629">
        <ele>546.517</ele>
        <time>2017-01-24T20:42:43Z</time>
      </trkpt>
      <trkpt lat="44.35583" lon="3.9562">
        <ele>541.808</ele>
        <time>2017-01-24T20:43:03Z</time>
      </trkpt>
      <trkpt lat="44.35543" lon="3.95597">
        <ele>545.04</ele>
        <time>2017-01-24T20:43:23Z</time>
      </trkpt>
      <trkpt lat="44.35477" lon="3.95581">
        <ele>537.411</ele>
        <time>2017-01-24T20:43:43Z</time>
      </trkpt>
      <trkpt lat="44.35466" lon="3.9556">
        <ele>534.068</ele>
        <time>2017-01-24T20:44:03Z</time>
      </trkpt>
      <trkpt lat="44.35483" lon="3.95491">
        <ele>534.872</ele>
        <time>2017-01-24T20:44:23Z</time>
      </trkpt>
      <trkpt lat="44.35511" lon="3.95417">
        <ele>547.422</ele>
        <time>2017-01-24T20:44:43Z</time>
      </trkpt>
      <trkpt lat="44.35471" lon="3.95393">
        <ele>535.746</ele>
        <time>2017-01-24T20:45:03Z</time>
      </trkpt>
      <trkpt lat="44.35462" lon="3.95355">
        <ele>544.327</ele>
        <time>2017-01-24T20:45:23Z</time>
      </trkpt>
      <trkpt lat="44.354" lon="3.95351">
        <ele>542.194</ele>
        <time>2017-01-24T20:45:43Z</time>
      </trkpt>
      <trkpt lat="44.35351" lon="3.95355">
        <ele>544.692</ele>
        <time>2017-01-24T20:46:03Z</time>
      </trkpt>
      <trkpt lat="44.35319" lon="3.95342">
        <ele>550.473</ele>
        <time>2017-01-24T20:46:23Z</time>
      </trkpt>
      <trkpt lat="44.35264" lon="3.95351">
        <ele>545.32</ele>
        <time>2017-01-24T20:46:43Z</time>
      </trkpt>
      <trkpt lat="44.35232" lon="3.95311">
        <ele>542.108</ele>
        <time>2017-01-24T20:47:03Z</time>
      </trkpt>
      <trkpt lat="44.35186" lon="3.95354">
        <ele>542.054</ele>
        <time>2017-01-24T20:47:23Z</time>
      </trkpt>
      <trkpt lat="44.35114" lon="3.95369">
        <ele>538.535</ele>
        <time>2017-01-24T20:47:43Z</time>
      </trkpt>
      <trkpt lat="44.35133" lon="3.9528">
        <ele>525.162</ele>
        <time>2017-01-24T20:48:03Z</time>
      </trkpt>
      <trkpt lat="44.3514" lon="3.95198">
        <ele>517.646</ele>
        <time>2017-01-24T20:48:23Z</time>
      </trkpt>
      <trkpt lat="44.35152" lon="3.95156">
        <ele>515.936</ele>
        <time>2017-01-24T20:48:43Z</time>
      </trkpt>
      <trkpt lat="44.35141" lon="3.95083">
        <ele>503.61</ele>
        <time>2017-01-24T20:49:03Z</time>
      </trkpt>
      <trkpt lat="44.3516" lon="3.95046">
        <ele>502.851</ele>
        <time>2017-01-24T20:49:23Z</time>
      </trkpt>
      <trkpt lat="44.35151" lon="3.94991">
        <ele>495.418</ele>
        <time>2017-01-24T20:49:43Z</time>
      </trkpt>
      <trkpt lat="44.35129" lon="3.94968">
        <ele>494.589</ele>
        <time>2017-01-24T20:50:03Z</time>
      </trkpt>
      <trkpt lat="44.35107" lon="3.94962">
        <ele>495.706</ele>
        <time>2017-01-24T20:50:23Z</time>
      </trkpt>
      <trkpt lat="44.35093" lon="3.94972">
        <ele>496.326</ele>
        <time>2017-01-24T20:50:43Z</time>
      </trkpt>
      <trkpt lat="44.35085" lon="3.94959">
        <ele>497.808</ele>
        <time>2017-01-24T20:51:03Z</time>
      </trkpt>
      <trkpt lat="44.35048" lon="3.94961">
        <ele>498.183</ele>
        <time>2017-01-24T20:51:23Z</time>
      </trkpt>
      <trkpt lat="44.35044" lon="3.9494">
        <ele>499.714</ele>
        <time>2017-01-24T20:51:43Z</time>
      </trkpt>
      <trkpt lat="44.35018" lon="3.94946">
        <ele>498.261</ele>
        <time>2017-01-24T20:52:03Z</time>
      </trkpt>
      <trkpt lat="44.34964" lon="3.94984">
        <ele>494.7</ele>
      </trkpt>
      <trkpt lat="44.34949" lon="3.94983">
        <ele>494.3</ele>
      </trkpt>
    </trkseg>
  </trk>
  <trk>
    <name><![CDATA[Gournier]]></name>
    <extensions>
      <line xmlns="http://www.topografix.com/GPX/gpx_style/0/2">
        <color>0000FF</color>
        <width>4</width>
      </line>
    </extensions>
    <trkseg>
      <trkpt lat="44.35118" lon="4.01756">
        <ele>520.408</ele>
        <time>2017-01-24T19:56:23Z</time>
      </trkpt>
      <trkpt lat="44.35163" lon="4.01827">
        <ele>516.819</ele>
        <time>2017-01-24T19:56:03Z</time>
      </trkpt>
      <trkpt lat="44.35225" lon="4.01795">
        <ele>507.809</ele>
        <time>2017-01-24T19:55:43Z</time>
      </trkpt>
      <trkpt lat="44.35239" lon="4.01787">
        <ele>506.619</ele>
        <time>2017-01-24T19:55:23Z</time>
      </trkpt>
      <trkpt lat="44.35269" lon="4.01773">
        <ele>503.166</ele>
        <time>2017-01-24T19:55:03Z</time>
      </trkpt>
      <trkpt lat="44.35312" lon="4.01736">
        <ele>499.329</ele>
        <time>2017-01-24T19:54:43Z</time>
      </trkpt>
      <trkpt lat="44.3537" lon="4.0173">
        <ele>503.028</ele>
        <time>2017-01-24T19:54:23Z</time>
      </trkpt>
      <trkpt lat="44.35437" lon="4.01743">
        <ele>505.264</ele>
        <time>2017-01-24T19:54:03Z</time>
      </trkpt>
      <trkpt lat="44.35493" lon="4.01765">
        <ele>513.324</ele>
        <time>2017-01-24T19:53:43Z</time>
      </trkpt>
      <trkpt lat="44.35508" lon="4.0175">
        <ele>515.54</ele>
        <time>2017-01-24T19:53:23Z</time>
      </trkpt>
      <trkpt lat="44.35505" lon="4.01707">
        <ele>513.043</ele>
        <time>2017-01-24T19:53:03Z</time>
      </trkpt>
      <trkpt lat="44.35485" lon="4.01662">
        <ele>506.752</ele>
        <time>2017-01-24T19:52:43Z</time>
      </trkpt>
      <trkpt lat="44.35484" lon="4.01635">
        <ele>506.608</ele>
        <time>2017-01-24T19:52:23Z</time>
      </trkpt>
      <trkpt lat="44.35496" lon="4.01614">
        <ele>507.514</ele>
        <time>2017-01-24T19:52:03Z</time>
      </trkpt>
      <trkpt lat="44.35516" lon="4.01644">
        <ele>512.813</ele>
        <time>2017-01-24T19:51:43Z</time>
      </trkpt>
      <trkpt lat="44.35558" lon="4.01664">
        <ele>523.772</ele>
        <time>2017-01-24T19:51:23Z</time>
      </trkpt>
      <trkpt lat="44.35591" lon="4.01691">
        <ele>532.828</ele>
        <time>2017-01-24T19:51:03Z</time>
      </trkpt>
      <trkpt lat="44.35661" lon="4.01698">
        <ele>542.281</ele>
        <time>2017-01-24T19:50:43Z</time>
      </trkpt>
      <trkpt lat="44.35723" lon="4.01734">
        <ele>555.61</ele>
        <time>2017-01-24T19:50:23Z</time>
      </trkpt>
      <trkpt lat="44.35769" lon="4.01795">
        <ele>563.916</ele>
        <time>2017-01-24T19:50:03Z</time>
      </trkpt>
      <trkpt lat="44.35842" lon="4.01978">
        <ele>591.376</ele>
        <time>2017-01-24T19:49:43Z</time>
      </trkpt>
      <trkpt lat="44.3588" lon="4.02016">
        <ele>586.462</ele>
        <time>2017-01-24T19:49:23Z</time>
      </trkpt>
      <trkpt lat="44.35888" lon="4.02038">
        <ele>591.265</ele>
        <time>2017-01-24T19:49:03Z</time>
      </trkpt>
      <trkpt lat="44.35902" lon="4.02057">
        <ele>593.084</ele>
        <time>2017-01-24T19:48:43Z</time>
      </trkpt>
      <trkpt lat="44.35921" lon="4.02065">
        <ele>591.508</ele>
        <time>2017-01-24T19:48:23Z</time>
      </trkpt>
      <trkpt lat="44.35955" lon="4.02035">
        <ele>585.622</ele>
        <time>2017-01-24T19:48:03Z</time>
      </trkpt>
      <trkpt lat="44.3598" lon="4.02018">
        <ele>582.457</ele>
        <time>2017-01-24T19:47:43Z</time>
      </trkpt>
      <trkpt lat="44.36003" lon="4.02016">
        <ele>584.594</ele>
        <time>2017-01-24T19:47:23Z</time>
      </trkpt>
      <trkpt lat="44.36027" lon="4.02027">
        <ele>594.733</ele>
        <time>2017-01-24T19:47:03Z</time>
      </trkpt>
      <trkpt lat="44.36048" lon="4.02047">
        <ele>604.846</ele>
        <time>2017-01-24T19:46:43Z</time>
      </trkpt>
      <trkpt lat="44.36071" lon="4.02043">
        <ele>609.115</ele>
        <time>2017-01-24T19:46:23Z</time>
      </trkpt>
      <trkpt lat="44.36125" lon="4.01922">
        <ele>614.161</ele>
        <time>2017-01-24T19:46:03Z</time>
      </trkpt>
      <trkpt lat="44.36138" lon="4.01927">
        <ele>620.121</ele>
        <time>2017-01-24T19:45:43Z</time>
      </trkpt>
      <trkpt lat="44.36158" lon="4.01958">
        <ele>632.217</ele>
        <time>2017-01-24T19:45:23Z</time>
      </trkpt>
      <trkpt lat="44.36161" lon="4.01986">
        <ele>635.85</ele>
        <time>2017-01-24T19:45:03Z</time>
      </trkpt>
      <trkpt lat="44.36132" lon="4.02061">
        <ele>636.099</ele>
        <time>2017-01-24T19:44:43Z</time>
      </trkpt>
      <trkpt lat="44.36128" lon="4.02095">
        <ele>644.608</ele>
        <time>2017-01-24T19:44:23Z</time>
      </trkpt>
      <trkpt lat="44.36134" lon="4.02145">
        <ele>659.41</ele>
        <time>2017-01-24T19:44:03Z</time>
      </trkpt>
      <trkpt lat="44.36113" lon="4.02157">
        <ele>655.564</ele>
        <time>2017-01-24T19:43:43Z</time>
      </trkpt>
      <trkpt lat="44.36105" lon="4.02184">
        <ele>661.143</ele>
        <time>2017-01-24T19:43:23Z</time>
      </trkpt>
      <trkpt lat="44.36088" lon="4.02221">
        <ele>670.971</ele>
        <time>2017-01-24T19:43:03Z</time>
      </trkpt>
      <trkpt lat="44.36056" lon="4.02253">
        <ele>677.164</ele>
        <time>2017-01-24T19:42:43Z</time>
      </trkpt>
      <trkpt lat="44.36056" lon="4.02261">
        <ele>680.043</ele>
        <time>2017-01-24T19:42:23Z</time>
      </trkpt>
      <trkpt lat="44.36023" lon="4.02272">
        <ele>680.689</ele>
        <time>2017-01-24T19:42:03Z</time>
      </trkpt>
      <trkpt lat="44.36002" lon="4.02296">
        <ele>684.449</ele>
        <time>2017-01-24T19:41:43Z</time>
      </trkpt>
      <trkpt lat="44.36011" lon="4.02301">
        <ele>687.395</ele>
        <time>2017-01-24T19:41:23Z</time>
      </trkpt>
      <trkpt lat="44.36112" lon="4.02319">
        <ele>704.198</ele>
        <time>2017-01-24T19:41:03Z</time>
      </trkpt>
      <trkpt lat="44.36125" lon="4.02328">
        <ele>713.397</ele>
        <time>2017-01-24T19:40:43Z</time>
      </trkpt>
      <trkpt lat="44.36149" lon="4.02331">
        <ele>722.208</ele>
        <time>2017-01-24T19:40:23Z</time>
      </trkpt>
      <trkpt lat="44.36183" lon="4.02351">
        <ele>735.614</ele>
        <time>2017-01-24T19:40:03Z</time>
      </trkpt>
      <trkpt lat="44.36243" lon="4.02341">
        <ele>743.504</ele>
        <time>2017-01-24T19:39:43Z</time>
      </trkpt>
      <trkpt lat="44.3629" lon="4.02354">
        <ele>760.124</ele>
        <time>2017-01-24T19:39:23Z</time>
      </trkpt>
      <trkpt lat="44.36305" lon="4.02347">
        <ele>762.354</ele>
        <time>2017-01-24T19:39:03Z</time>
      </trkpt>
      <trkpt lat="44.36317" lon="4.02358">
        <ele>765.447</ele>
        <time>2017-01-24T19:38:43Z</time>
      </trkpt>
      <trkpt lat="44.36334" lon="4.02379">
        <ele>768.656</ele>
        <time>2017-01-24T19:38:23Z</time>
      </trkpt>
      <trkpt lat="44.36326" lon="4.02398">
        <ele>769.112</ele>
        <time>2017-01-24T19:38:03Z</time>
      </trkpt>
      <trkpt lat="44.36332" lon="4.02427">
        <ele>770.742</ele>
        <time>2017-01-24T19:37:43Z</time>
      </trkpt>
      <trkpt lat="44.36283" lon="4.0252">
        <ele>781.478</ele>
        <time>2017-01-24T19:37:23Z</time>
      </trkpt>
      <trkpt lat="44.36234" lon="4.0266">
        <ele>787.121</ele>
        <time>2017-01-24T19:37:03Z</time>
      </trkpt>
      <trkpt lat="44.36188" lon="4.02714">
        <ele>792.31</ele>
        <time>2017-01-24T19:36:43Z</time>
      </trkpt>
      <trkpt lat="44.36091" lon="4.0277">
        <ele>797.508</ele>
        <time>2017-01-24T19:36:23Z</time>
      </trkpt>
      <trkpt lat="44.36022" lon="4.02846">
        <ele>797.208</ele>
        <time>2017-01-24T19:36:03Z</time>
      </trkpt>
      <trkpt lat="44.3599" lon="4.02871">
        <ele>796.653</ele>
        <time>2017-01-24T19:35:43Z</time>
      </trkpt>
      <trkpt lat="44.35786" lon="4.02816">
        <ele>796.852</ele>
        <time>2017-01-24T19:35:23Z</time>
      </trkpt>
      <trkpt lat="44.35698" lon="4.02836">
        <ele>791.027</ele>
        <time>2017-01-24T19:35:03Z</time>
      </trkpt>
      <trkpt lat="44.35597" lon="4.02819">
        <ele>796.26</ele>
        <time>2017-01-24T19:34:43Z</time>
      </trkpt>
      <trkpt lat="44.35523" lon="4.02828">
        <ele>795.029</ele>
        <time>2017-01-24T19:34:23Z</time>
      </trkpt>
      <trkpt lat="44.35523" lon="4.02828">
        <ele>795.095</ele>
        <time>2017-01-24T19:34:03Z</time>
      </trkpt>
      <trkpt lat="44.35497" lon="4.02847">
        <ele>796.255</ele>
        <time>2017-01-24T19:33:43Z</time>
      </trkpt>
      <trkpt lat="44.35422" lon="4.02881">
        <ele>804.091</ele>
        <time>2017-01-24T19:33:23Z</time>
      </trkpt>
      <trkpt lat="44.35375" lon="4.02921">
        <ele>803.074</ele>
        <time>2017-01-24T19:33:03Z</time>
      </trkpt>
      <trkpt lat="44.35355" lon="4.0301">
        <ele>806.523</ele>
        <time>2017-01-24T19:32:43Z</time>
      </trkpt>
      <trkpt lat="44.35346" lon="4.03096">
        <ele>807.808</ele>
        <time>2017-01-24T19:32:23Z</time>
      </trkpt>
      <trkpt lat="44.35346" lon="4.03167">
        <ele>810.217</ele>
        <time>2017-01-24T19:32:03Z</time>
      </trkpt>
      <trkpt lat="44.35335" lon="4.03218">
        <ele>813.707</ele>
        <time>2017-01-24T19:31:43Z</time>
      </trkpt>
      <trkpt lat="44.35329" lon="4.03263">
        <ele>814.984</ele>
        <time>2017-01-24T19:31:23Z</time>
      </trkpt>
      <trkpt lat="44.35318" lon="4.03338">
        <ele>819.97</ele>
        <time>2017-01-24T19:31:03Z</time>
      </trkpt>
      <trkpt lat="44.35327" lon="4.03374">
        <ele>825.843</ele>
        <time>2017-01-24T19:30:43Z</time>
      </trkpt>
      <trkpt lat="44.3533" lon="4.03414">
        <ele>832.762</ele>
        <time>2017-01-24T19:30:23Z</time>
      </trkpt>
      <trkpt lat="44.3534" lon="4.03459">
        <ele>842.928</ele>
        <time>2017-01-24T19:30:03Z</time>
      </trkpt>
      <trkpt lat="44.35341" lon="4.03508">
        <ele>850.028</ele>
        <time>2017-01-24T19:29:43Z</time>
      </trkpt>
      <trkpt lat="44.35352" lon="4.0354">
        <ele>847.074</ele>
        <time>2017-01-24T19:29:23Z</time>
      </trkpt>
      <trkpt lat="44.35343" lon="4.0359">
        <ele>853.437</ele>
        <time>2017-01-24T19:29:03Z</time>
      </trkpt>
      <trkpt lat="44.35346" lon="4.03645">
        <ele>860.466</ele>
        <time>2017-01-24T19:28:43Z</time>
      </trkpt>
      <trkpt lat="44.35334" lon="4.03678">
        <ele>864.308</ele>
        <time>2017-01-24T19:28:23Z</time>
      </trkpt>
      <trkpt lat="44.35337" lon="4.0372">
        <ele>866.911</ele>
        <time>2017-01-24T19:28:03Z</time>
      </trkpt>
      <trkpt lat="44.35306" lon="4.03805">
        <ele>857.165</ele>
        <time>2017-01-24T19:27:43Z</time>
      </trkpt>
      <trkpt lat="44.3527" lon="4.03866">
        <ele>846.315</ele>
        <time>2017-01-24T19:27:23Z</time>
      </trkpt>
      <trkpt lat="44.35237" lon="4.03946">
        <ele>841.151</ele>
        <time>2017-01-24T19:27:03Z</time>
      </trkpt>
      <trkpt lat="44.3523" lon="4.0398">
        <ele>836.964</ele>
        <time>2017-01-24T19:26:43Z</time>
      </trkpt>
      <trkpt lat="44.35196" lon="4.04048">
        <ele>839.493</ele>
        <time>2017-01-24T19:26:23Z</time>
      </trkpt>
      <trkpt lat="44.35194" lon="4.04074">
        <ele>840.729</ele>
        <time>2017-01-24T19:26:03Z</time>
      </trkpt>
      <trkpt lat="44.35182" lon="4.04106">
        <ele>843.899</ele>
        <time>2017-01-24T19:25:43Z</time>
      </trkpt>
      <trkpt lat="44.35176" lon="4.04154">
        <ele>845.945</ele>
        <time>2017-01-24T19:25:23Z</time>
      </trkpt>
      <trkpt lat="44.35184" lon="4.04176">
        <ele>844.368</ele>
        <time>2017-01-24T19:25:03Z</time>
      </trkpt>
      <trkpt lat="44.35184" lon="4.04198">
        <ele>844.197</ele>
        <time>2017-01-24T19:24:43Z</time>
      </trkpt>
      <trkpt lat="44.35167" lon="4.04212">
        <ele>846.908</ele>
        <time>2017-01-24T19:24:23Z</time>
      </trkpt>
      <trkpt lat="44.35131" lon="4.04215">
        <ele>847.217</ele>
        <time>2017-01-24T19:24:03Z</time>
      </trkpt>
      <trkpt lat="44.35111" lon="4.04237">
        <ele>845.489</ele>
        <time>2017-01-24T19:23:43Z</time>
      </trkpt>
      <trkpt lat="44.35088" lon="4.04253">
        <ele>842.428</ele>
        <time>2017-01-24T19:23:23Z</time>
      </trkpt>
      <trkpt lat="44.35053" lon="4.04286">
        <ele>841.05</ele>
        <time>2017-01-24T19:23:03Z</time>
      </trkpt>
      <trkpt lat="44.3502" lon="4.04339">
        <ele>831.953</ele>
        <time>2017-01-24T19:22:43Z</time>
      </trkpt>
      <trkpt lat="44.34938" lon="4.04433">
        <ele>821.472</ele>
        <time>2017-01-24T19:22:23Z</time>
      </trkpt>
      <trkpt lat="44.34928" lon="4.0445">
        <ele>818.378</ele>
        <time>2017-01-24T19:22:03Z</time>
      </trkpt>
      <trkpt lat="44.34912" lon="4.04463">
        <ele>817.738</ele>
        <time>2017-01-24T19:21:43Z</time>
      </trkpt>
      <trkpt lat="44.34856" lon="4.04553">
        <ele>812.814</ele>
        <time>2017-01-24T19:21:23Z</time>
      </trkpt>
      <trkpt lat="44.3483" lon="4.04618">
        <ele>813.057</ele>
        <time>2017-01-24T19:21:03Z</time>
      </trkpt>
      <trkpt lat="44.34785" lon="4.04703">
        <ele>802.566</ele>
        <time>2017-01-24T19:20:43Z</time>
      </trkpt>
      <trkpt lat="44.34753" lon="4.04718">
        <ele>795.908</ele>
        <time>2017-01-24T19:20:23Z</time>
      </trkpt>
      <trkpt lat="44.34698" lon="4.0472">
        <ele>787.911</ele>
        <time>2017-01-24T19:20:03Z</time>
      </trkpt>
      <trkpt lat="44.34657" lon="4.04715">
        <ele>778.265</ele>
        <time>2017-01-24T19:19:43Z</time>
      </trkpt>
      <trkpt lat="44.34625" lon="4.04719">
        <ele>773.515</ele>
        <time>2017-01-24T19:19:23Z</time>
      </trkpt>
      <trkpt lat="44.34614" lon="4.04741">
        <ele>773.125</ele>
        <time>2017-01-24T19:19:03Z</time>
      </trkpt>
      <trkpt lat="44.34596" lon="4.04776">
        <ele>769.688</ele>
        <time>2017-01-24T19:18:43Z</time>
      </trkpt>
      <trkpt lat="44.34594" lon="4.04787">
        <ele>768.617</ele>
        <time>2017-01-24T19:18:23Z</time>
      </trkpt>
      <trkpt lat="44.34571" lon="4.04828">
        <ele>766.323</ele>
        <time>2017-01-24T19:18:03Z</time>
      </trkpt>
      <trkpt lat="44.34559" lon="4.04869">
        <ele>762.233</ele>
        <time>2017-01-24T19:17:43Z</time>
      </trkpt>
      <trkpt lat="44.34529" lon="4.04909">
        <ele>762.269</ele>
        <time>2017-01-24T19:17:23Z</time>
      </trkpt>
      <trkpt lat="44.34512" lon="4.04948">
        <ele>757.862</ele>
        <time>2017-01-24T19:17:03Z</time>
      </trkpt>
      <trkpt lat="44.34475" lon="4.04981">
        <ele>756.911</ele>
        <time>2017-01-24T19:16:43Z</time>
      </trkpt>
      <trkpt lat="44.34451" lon="4.05012">
        <ele>752.708</ele>
        <time>2017-01-24T19:16:23Z</time>
      </trkpt>
      <trkpt lat="44.34404" lon="4.05095">
        <ele>741.319</ele>
        <time>2017-01-24T19:16:03Z</time>
      </trkpt>
      <trkpt lat="44.34354" lon="4.05141">
        <ele>728.781</ele>
        <time>2017-01-24T19:15:43Z</time>
      </trkpt>
      <trkpt lat="44.34312" lon="4.052">
        <ele>720.867</ele>
        <time>2017-01-24T19:15:23Z</time>
      </trkpt>
      <trkpt lat="44.34285" lon="4.05278">
        <ele>721.576</ele>
        <time>2017-01-24T19:15:03Z</time>
      </trkpt>
      <trkpt lat="44.34153" lon="4.05396">
        <ele>678.059</ele>
        <time>2017-01-24T19:14:43Z</time>
      </trkpt>
      <trkpt lat="44.34123" lon="4.05397">
        <ele>668.138</ele>
        <time>2017-01-24T19:14:23Z</time>
      </trkpt>
      <trkpt lat="44.34107" lon="4.05412">
        <ele>663.134</ele>
        <time>2017-01-24T19:14:03Z</time>
      </trkpt>
      <trkpt lat="44.34094" lon="4.05471">
        <ele>655.854</ele>
        <time>2017-01-24T19:13:43Z</time>
      </trkpt>
      <trkpt lat="44.34052" lon="4.05577">
        <ele>628.25</ele>
        <time>2017-01-24T19:13:23Z</time>
      </trkpt>
      <trkpt lat="44.34086" lon="4.05594">
        <ele>630.843</ele>
        <time>2017-01-24T19:13:03Z</time>
      </trkpt>
      <trkpt lat="44.34108" lon="4.05633">
        <ele>629.122</ele>
        <time>2017-01-24T19:12:43Z</time>
      </trkpt>
      <trkpt lat="44.34125" lon="4.05678">
        <ele>627.008</ele>
        <time>2017-01-24T19:12:23Z</time>
      </trkpt>
      <trkpt lat="44.34164" lon="4.05711">
        <ele>628.727</ele>
        <time>2017-01-24T19:12:03Z</time>
      </trkpt>
      <trkpt lat="44.34187" lon="4.0575">
        <ele>624.461</ele>
        <time>2017-01-24T19:11:43Z</time>
      </trkpt>
      <trkpt lat="44.34205" lon="4.05762">
        <ele>625.677</ele>
        <time>2017-01-24T19:11:23Z</time>
      </trkpt>
      <trkpt lat="44.34258" lon="4.05765">
        <ele>625.778</ele>
        <time>2017-01-24T19:11:03Z</time>
      </trkpt>
      <trkpt lat="44.3429" lon="4.05756">
        <ele>625.531</ele>
        <time>2017-01-24T19:10:43Z</time>
      </trkpt>
      <trkpt lat="44.34348" lon="4.05764">
        <ele>628.57</ele>
        <time>2017-01-24T19:10:23Z</time>
      </trkpt>
      <trkpt lat="44.34378" lon="4.0586">
        <ele>615.166</ele>
        <time>2017-01-24T19:10:03Z</time>
      </trkpt>
      <trkpt lat="44.34382" lon="4.05894">
        <ele>611.696</ele>
        <time>2017-01-24T19:09:43Z</time>
      </trkpt>
      <trkpt lat="44.34439" lon="4.05963">
        <ele>611.392</ele>
        <time>2017-01-24T19:09:23Z</time>
      </trkpt>
      <trkpt lat="44.34498" lon="4.05978">
        <ele>607.365</ele>
        <time>2017-01-24T19:09:03Z</time>
      </trkpt>
      <trkpt lat="44.34511" lon="4.06005">
        <ele>601.594</ele>
        <time>2017-01-24T19:08:43Z</time>
      </trkpt>
      <trkpt lat="44.34628" lon="4.06024">
        <ele>590.308</ele>
        <time>2017-01-24T19:08:23Z</time>
      </trkpt>
      <trkpt lat="44.34651" lon="4.06041">
        <ele>584.221</ele>
        <time>2017-01-24T19:08:03Z</time>
      </trkpt>
      <trkpt lat="44.34664" lon="4.06035">
        <ele>584.565</ele>
        <time>2017-01-24T19:07:43Z</time>
      </trkpt>
      <trkpt lat="44.34694" lon="4.06045">
        <ele>576.693</ele>
        <time>2017-01-24T19:07:23Z</time>
      </trkpt>
      <trkpt lat="44.34723" lon="4.06041">
        <ele>573.097</ele>
        <time>2017-01-24T19:07:03Z</time>
      </trkpt>
      <trkpt lat="44.34746" lon="4.05974">
        <ele>571.59</ele>
        <time>2017-01-24T19:06:43Z</time>
      </trkpt>
      <trkpt lat="44.34763" lon="4.0594">
        <ele>567.269</ele>
        <time>2017-01-24T19:06:23Z</time>
      </trkpt>
      <trkpt lat="44.34768" lon="4.05922">
        <ele>567.655</ele>
        <time>2017-01-24T19:06:03Z</time>
      </trkpt>
      <trkpt lat="44.34767" lon="4.05897">
        <ele>571.355</ele>
        <time>2017-01-24T19:05:43Z</time>
      </trkpt>
      <trkpt lat="44.34773" lon="4.05895">
        <ele>569.051</ele>
        <time>2017-01-24T19:05:23Z</time>
      </trkpt>
      <trkpt lat="44.34782" lon="4.05934">
        <ele>561.094</ele>
        <time>2017-01-24T19:05:03Z</time>
      </trkpt>
      <trkpt lat="44.34779" lon="4.05968">
        <ele>560.523</ele>
        <time>2017-01-24T19:04:43Z</time>
      </trkpt>
      <trkpt lat="44.34783" lon="4.05985">
        <ele>559.408</ele>
        <time>2017-01-24T19:04:23Z</time>
      </trkpt>
      <trkpt lat="44.34792" lon="4.05967">
        <ele>555.526</ele>
        <time>2017-01-24T19:04:03Z</time>
      </trkpt>
      <trkpt lat="44.348" lon="4.0592">
        <ele>554.86</ele>
        <time>2017-01-24T19:03:43Z</time>
      </trkpt>
      <trkpt lat="44.34808" lon="4.05883">
        <ele>561.986</ele>
        <time>2017-01-24T19:03:23Z</time>
      </trkpt>
      <trkpt lat="44.34813" lon="4.05884">
        <ele>560.696</ele>
        <time>2017-01-24T19:03:03Z</time>
      </trkpt>
      <trkpt lat="44.34831" lon="4.05916">
        <ele>545.859</ele>
        <time>2017-01-24T19:02:43Z</time>
      </trkpt>
      <trkpt lat="44.34842" lon="4.05908">
        <ele>546.318</ele>
        <time>2017-01-24T19:02:23Z</time>
      </trkpt>
      <trkpt lat="44.34877" lon="4.05916">
        <ele>538.254</ele>
        <time>2017-01-24T19:02:03Z</time>
      </trkpt>
      <trkpt lat="44.34903" lon="4.05917">
        <ele>535.474</ele>
        <time>2017-01-24T19:01:43Z</time>
      </trkpt>
      <trkpt lat="44.34982" lon="4.05879">
        <ele>535.52</ele>
        <time>2017-01-24T19:01:23Z</time>
      </trkpt>
      <trkpt lat="44.35068" lon="4.0584">
        <ele>540.653</ele>
        <time>2017-01-24T19:01:03Z</time>
      </trkpt>
      <trkpt lat="44.35105" lon="4.05858">
        <ele>537.342</ele>
        <time>2017-01-24T19:00:43Z</time>
      </trkpt>
      <trkpt lat="44.35118" lon="4.05883">
        <ele>530.908</ele>
        <time>2017-01-24T19:00:23Z</time>
      </trkpt>
      <trkpt lat="44.35147" lon="4.05905">
        <ele>530.613</ele>
        <time>2017-01-24T19:00:03Z</time>
      </trkpt>
      <trkpt lat="44.35186" lon="4.0591">
        <ele>532.985</ele>
        <time>2017-01-24T18:59:43Z</time>
      </trkpt>
      <trkpt lat="44.35229" lon="4.05929">
        <ele>528.873</ele>
        <time>2017-01-24T18:59:23Z</time>
      </trkpt>
      <trkpt lat="44.35245" lon="4.05972">
        <ele>522.646</ele>
        <time>2017-01-24T18:59:03Z</time>
      </trkpt>
      <trkpt lat="44.35276" lon="4.06016">
        <ele>519.629</ele>
        <time>2017-01-24T18:58:43Z</time>
      </trkpt>
      <trkpt lat="44.35266" lon="4.0603">
        <ele>514.368</ele>
        <time>2017-01-24T18:58:23Z</time>
      </trkpt>
      <trkpt lat="44.35267" lon="4.06058">
        <ele>507.824</ele>
        <time>2017-01-24T18:58:03Z</time>
      </trkpt>
      <trkpt lat="44.35285" lon="4.0609">
        <ele>501.894</ele>
        <time>2017-01-24T18:57:43Z</time>
      </trkpt>
      <trkpt lat="44.35314" lon="4.06087">
        <ele>495.91</ele>
        <time>2020-09-09T02:59:08Z</time>
      </trkpt>
      <trkpt lat="44.35312" lon="4.06104">
        <ele>493.143</ele>
        <time>2020-09-09T02:58:48Z</time>
      </trkpt>
      <trkpt lat="44.35308" lon="4.06175">
        <ele>469.512</ele>
        <time>2020-09-09T02:58:28Z</time>
      </trkpt>
      <trkpt lat="44.35271" lon="4.06217">
        <ele>460.208</ele>
        <time>2020-09-09T02:58:08Z</time>
      </trkpt>
      <trkpt lat="44.352" lon="4.06245">
        <ele>447.126</ele>
        <time>2020-09-09T02:57:48Z</time>
      </trkpt>
      <trkpt lat="44.35162" lon="4.06166">
        <ele>457.733</ele>
        <time>2020-09-09T02:57:28Z</time>
      </trkpt>
      <trkpt lat="44.35102" lon="4.06084">
        <ele>466.778</ele>
        <time>2020-09-09T02:57:08Z</time>
      </trkpt>
      <trkpt lat="44.35105" lon="4.06146">
        <ele>464.28</ele>
        <time>2020-09-09T02:56:48Z</time>
      </trkpt>
      <trkpt lat="44.35093" lon="4.06233">
        <ele>452.933</ele>
        <time>2020-09-09T02:56:28Z</time>
      </trkpt>
      <trkpt lat="44.35033" lon="4.06327">
        <ele>460.992</ele>
        <time>2020-09-09T02:56:08Z</time>
      </trkpt>
      <trkpt lat="44.35026" lon="4.06377">
        <ele>445.798</ele>
        <time>2020-09-09T02:55:48Z</time>
      </trkpt>
      <trkpt lat="44.34937" lon="4.06433">
        <ele>452.618</ele>
        <time>2020-09-09T02:55:28Z</time>
      </trkpt>
      <trkpt lat="44.34902" lon="4.0645">
        <ele>462.644</ele>
        <time>2020-09-09T02:55:08Z</time>
      </trkpt>
      <trkpt lat="44.34884" lon="4.06465">
        <ele>462.057</ele>
        <time>2020-09-09T02:54:48Z</time>
      </trkpt>
      <trkpt lat="44.3488" lon="4.06512">
        <ele>446.596</ele>
        <time>2020-09-09T02:54:28Z</time>
      </trkpt>
      <trkpt lat="44.3489" lon="4.06553">
        <ele>441.508</ele>
        <time>2020-09-09T02:54:08Z</time>
      </trkpt>
      <trkpt lat="44.34859" lon="4.06581">
        <ele>443.119</ele>
        <time>2020-09-09T02:53:48Z</time>
      </trkpt>
      <trkpt lat="44.34844" lon="4.06571">
        <ele>444.409</ele>
        <time>2020-09-09T02:53:28Z</time>
      </trkpt>
      <trkpt lat="44.34838" lon="4.06628">
        <ele>429.519</ele>
        <time>2020-09-09T02:53:08Z</time>
      </trkpt>
      <trkpt lat="44.3481" lon="4.06674">
        <ele>425.843</ele>
        <time>2020-09-09T02:52:48Z</time>
      </trkpt>
      <trkpt lat="44.34751" lon="4.06672">
        <ele>434.446</ele>
        <time>2020-09-09T02:52:28Z</time>
      </trkpt>
      <trkpt lat="44.34723" lon="4.06685">
        <ele>437.295</ele>
        <time>2020-09-09T02:52:08Z</time>
      </trkpt>
      <trkpt lat="44.34692" lon="4.0674">
        <ele>436.741</ele>
        <time>2020-09-09T02:51:48Z</time>
      </trkpt>
      <trkpt lat="44.34709" lon="4.06766">
        <ele>433.011</ele>
        <time>2020-09-09T02:51:28Z</time>
      </trkpt>
      <trkpt lat="44.34712" lon="4.06835">
        <ele>442.597</ele>
        <time>2020-09-09T02:51:08Z</time>
      </trkpt>
      <trkpt lat="44.34727" lon="4.06895">
        <ele>446.17</ele>
        <time>2020-09-09T02:50:48Z</time>
      </trkpt>
      <trkpt lat="44.34776" lon="4.06932">
        <ele>450.059</ele>
        <time>2020-09-09T02:50:28Z</time>
      </trkpt>
      <trkpt lat="44.34764" lon="4.06958">
        <ele>452.908</ele>
        <time>2020-09-09T02:50:08Z</time>
      </trkpt>
      <trkpt lat="44.34751" lon="4.06977">
        <ele>456.41</ele>
        <time>2020-09-09T02:49:48Z</time>
      </trkpt>
      <trkpt lat="44.3476" lon="4.07003">
        <ele>460.064</ele>
        <time>2020-09-09T02:49:28Z</time>
      </trkpt>
      <trkpt lat="44.34734" lon="4.07022">
        <ele>467.743</ele>
        <time>2020-09-09T02:49:08Z</time>
      </trkpt>
      <trkpt lat="44.34727" lon="4.07046">
        <ele>468.232</ele>
        <time>2020-09-09T02:48:48Z</time>
      </trkpt>
      <trkpt lat="44.34679" lon="4.07128">
        <ele>465.885</ele>
        <time>2020-09-09T02:48:28Z</time>
      </trkpt>
      <trkpt lat="44.34648" lon="4.07199">
        <ele>472.394</ele>
        <time>2020-09-09T02:48:08Z</time>
      </trkpt>
      <trkpt lat="44.34636" lon="4.0725">
        <ele>470.15</ele>
        <time>2020-09-09T02:47:48Z</time>
      </trkpt>
      <trkpt lat="44.34641" lon="4.07322">
        <ele>466.16</ele>
        <time>2020-09-09T02:47:28Z</time>
      </trkpt>
      <trkpt lat="44.34559" lon="4.07294">
        <ele>469.086</ele>
        <time>2020-09-09T02:47:08Z</time>
      </trkpt>
      <trkpt lat="44.34469" lon="4.07302">
        <ele>467.239</ele>
        <time>2020-09-09T02:46:48Z</time>
      </trkpt>
      <trkpt lat="44.34393" lon="4.07337">
        <ele>450.248</ele>
        <time>2020-09-09T02:46:28Z</time>
      </trkpt>
      <trkpt lat="44.34424" lon="4.07364">
        <ele>447.608</ele>
        <time>2020-09-09T02:46:08Z</time>
      </trkpt>
      <trkpt lat="44.34392" lon="4.07397">
        <ele>442.021</ele>
        <time>2020-09-09T02:45:48Z</time>
      </trkpt>
      <trkpt lat="44.34405" lon="4.07412">
        <ele>439.201</ele>
        <time>2020-09-09T02:45:28Z</time>
      </trkpt>
      <trkpt lat="44.34434" lon="4.07421">
        <ele>428.439</ele>
        <time>2020-09-09T02:45:08Z</time>
      </trkpt>
      <trkpt lat="44.3438" lon="4.07455">
        <ele>421.987</ele>
        <time>2020-09-09T02:44:48Z</time>
      </trkpt>
      <trkpt lat="44.34362" lon="4.07461">
        <ele>420.59</ele>
        <time>2020-09-09T02:44:28Z</time>
      </trkpt>
      <trkpt lat="44.34378" lon="4.07477">
        <ele>418.749</ele>
        <time>2020-09-09T02:44:08Z</time>
      </trkpt>
      <trkpt lat="44.34413" lon="4.07481">
        <ele>417.475</ele>
        <time>2020-09-09T02:43:48Z</time>
      </trkpt>
      <trkpt lat="44.34508" lon="4.07412">
        <ele>435.875</ele>
        <time>2020-09-09T02:43:28Z</time>
      </trkpt>
      <trkpt lat="44.34547" lon="4.07434">
        <ele>431.331</ele>
        <time>2020-09-09T02:43:08Z</time>
      </trkpt>
      <trkpt lat="44.34555" lon="4.07481">
        <ele>427.184</ele>
        <time>2020-09-09T02:42:48Z</time>
      </trkpt>
      <trkpt lat="44.34585" lon="4.07562">
        <ele>428.353</ele>
        <time>2020-09-09T02:42:28Z</time>
      </trkpt>
      <trkpt lat="44.34588" lon="4.07601">
        <ele>420.008</ele>
        <time>2020-09-09T02:42:08Z</time>
      </trkpt>
      <trkpt lat="44.34608" lon="4.07689">
        <ele>409.217</ele>
        <time>2020-09-09T02:41:48Z</time>
      </trkpt>
      <trkpt lat="44.34633" lon="4.077">
        <ele>409.589</ele>
        <time>2020-09-09T02:41:28Z</time>
      </trkpt>
      <trkpt lat="44.34656" lon="4.07681">
        <ele>414.485</ele>
        <time>2020-09-09T02:41:08Z</time>
      </trkpt>
      <trkpt lat="44.34752" lon="4.07672">
        <ele>417.618</ele>
        <time>2020-09-09T02:40:48Z</time>
      </trkpt>
      <trkpt lat="44.34822" lon="4.07733">
        <ele>401.991</ele>
        <time>2020-09-09T02:40:28Z</time>
      </trkpt>
      <trkpt lat="44.34855" lon="4.07773">
        <ele>386.61</ele>
        <time>2020-09-09T02:40:08Z</time>
      </trkpt>
      <trkpt lat="44.34913" lon="4.07774">
        <ele>389.666</ele>
        <time>2020-09-09T02:39:48Z</time>
      </trkpt>
      <trkpt lat="44.34918" lon="4.07797">
        <ele>384.636</ele>
        <time>2020-09-09T02:39:28Z</time>
      </trkpt>
      <trkpt lat="44.34975" lon="4.07821">
        <ele>380.042</ele>
        <time>2020-09-09T02:39:08Z</time>
      </trkpt>
      <trkpt lat="44.35031" lon="4.07829">
        <ele>370.715</ele>
        <time>2020-09-09T02:38:48Z</time>
      </trkpt>
      <trkpt lat="44.35113" lon="4.07825">
        <ele>346.734</ele>
        <time>2020-09-09T02:38:28Z</time>
      </trkpt>
      <trkpt lat="44.35154" lon="4.07767">
        <ele>332.808</ele>
        <time>2020-09-09T02:38:08Z</time>
      </trkpt>
      <trkpt lat="44.35145" lon="4.07844">
        <ele>334.126</ele>
        <time>2020-09-09T02:37:48Z</time>
      </trkpt>
      <trkpt lat="44.3512" lon="4.07928">
        <ele>323.415</ele>
        <time>2020-09-09T02:37:28Z</time>
      </trkpt>
      <trkpt lat="44.35192" lon="4.07887">
        <ele>307.798</ele>
        <time>2020-09-09T02:37:08Z</time>
      </trkpt>
      <trkpt lat="44.3521" lon="4.07883">
        <ele>304.056</ele>
        <time>2020-09-09T02:36:48Z</time>
      </trkpt>
      <trkpt lat="44.35177" lon="4.0795">
        <ele>300.529</ele>
        <time>2020-09-09T02:36:28Z</time>
      </trkpt>
      <trkpt lat="44.35184" lon="4.07982">
        <ele>296.538</ele>
        <time>2020-09-09T02:36:08Z</time>
      </trkpt>
      <trkpt lat="44.35201" lon="4.08">
        <ele>287.734</ele>
        <time>2020-09-09T02:35:48Z</time>
      </trkpt>
      <trkpt lat="44.35228" lon="4.07971">
        <ele>291.224</ele>
        <time>2020-09-09T02:35:28Z</time>
      </trkpt>
      <trkpt lat="44.35245" lon="4.07976">
        <ele>288.27</ele>
        <time>2020-09-09T02:35:08Z</time>
      </trkpt>
      <trkpt lat="44.35254" lon="4.08021">
        <ele>286.333</ele>
        <time>2020-09-09T02:34:48Z</time>
      </trkpt>
      <trkpt lat="44.35242" lon="4.08058">
        <ele>283.892</ele>
        <time>2020-09-09T02:34:28Z</time>
      </trkpt>
      <trkpt lat="44.35244" lon="4.08103">
        <ele>282.308</ele>
        <time>2020-09-09T02:34:08Z</time>
      </trkpt>
      <trkpt lat="44.35272" lon="4.08111">
        <ele>294.12</ele>
        <time>2020-09-09T02:33:48Z</time>
      </trkpt>
      <trkpt lat="44.35313" lon="4.08092">
        <ele>302.428</ele>
        <time>2020-09-09T02:33:28Z</time>
      </trkpt>
      <trkpt lat="44.35348" lon="4.0809">
        <ele>313.975</ele>
        <time>2020-09-09T02:33:08Z</time>
      </trkpt>
      <trkpt lat="44.35343" lon="4.08122">
        <ele>315.353</ele>
        <time>2020-09-09T02:32:48Z</time>
      </trkpt>
      <trkpt lat="44.35381" lon="4.08131">
        <ele>317.816</ele>
        <time>2020-09-09T02:32:28Z</time>
      </trkpt>
      <trkpt lat="44.35409" lon="4.0812">
        <ele>320.245</ele>
        <time>2020-09-09T02:32:08Z</time>
      </trkpt>
      <trkpt lat="44.35412" lon="4.08086">
        <ele>326.681</ele>
        <time>2020-09-09T02:31:48Z</time>
      </trkpt>
      <trkpt lat="44.35436" lon="4.0809">
        <ele>327.231</ele>
        <time>2020-09-09T02:31:28Z</time>
      </trkpt>
      <trkpt lat="44.35478" lon="4.08081">
        <ele>336.917</ele>
        <time>2020-09-09T02:31:08Z</time>
      </trkpt>
      <trkpt lat="44.35576" lon="4.08">
        <ele>348.09</ele>
        <time>2020-09-09T02:30:48Z</time>
      </trkpt>
      <trkpt lat="44.35657" lon="4.07974">
        <ele>356.139</ele>
        <time>2020-09-09T02:30:28Z</time>
      </trkpt>
      <trkpt lat="44.35697" lon="4.07982">
        <ele>356.108</ele>
        <time>2020-09-09T02:30:08Z</time>
      </trkpt>
      <trkpt lat="44.35761" lon="4.07941">
        <ele>363.409</ele>
        <time>2020-09-09T02:29:48Z</time>
      </trkpt>
      <trkpt lat="44.35759" lon="4.08142">
        <ele>358.281</ele>
        <time>2020-09-09T02:29:28Z</time>
      </trkpt>
      <trkpt lat="44.35762" lon="4.08206">
        <ele>355.641</ele>
        <time>2020-09-09T02:29:08Z</time>
      </trkpt>
      <trkpt lat="44.35773" lon="4.08223">
        <ele>355.296</ele>
        <time>2020-09-09T02:28:48Z</time>
      </trkpt>
      <trkpt lat="44.35781" lon="4.08213">
        <ele>354.979</ele>
        <time>2020-09-09T02:28:28Z</time>
      </trkpt>
      <trkpt lat="44.35785" lon="4.0818">
        <ele>355.538</ele>
        <time>2020-09-09T02:28:08Z</time>
      </trkpt>
      <trkpt lat="44.35837" lon="4.08062">
        <ele>366.484</ele>
        <time>2020-09-09T02:27:48Z</time>
      </trkpt>
      <trkpt lat="44.35917" lon="4.07943">
        <ele>377.024</ele>
        <time>2020-09-09T02:27:28Z</time>
      </trkpt>
      <trkpt lat="44.3593" lon="4.07913">
        <ele>383.12</ele>
        <time>2020-09-09T02:27:08Z</time>
      </trkpt>
      <trkpt lat="44.35973" lon="4.07999">
        <ele>371.133</ele>
        <time>2020-09-09T02:26:48Z</time>
      </trkpt>
      <trkpt lat="44.36028" lon="4.08043">
        <ele>383.462</ele>
        <time>2020-09-09T02:26:28Z</time>
      </trkpt>
      <trkpt lat="44.36097" lon="4.08099">
        <ele>409.708</ele>
        <time>2020-09-09T02:26:08Z</time>
      </trkpt>
      <trkpt lat="44.36117" lon="4.0809">
        <ele>411.721</ele>
        <time>2020-09-09T02:25:48Z</time>
      </trkpt>
      <trkpt lat="44.36175" lon="4.08101">
        <ele>421.256</ele>
        <time>2020-09-09T02:25:28Z</time>
      </trkpt>
      <trkpt lat="44.36225" lon="4.08148">
        <ele>426.274</ele>
        <time>2020-09-09T02:25:08Z</time>
      </trkpt>
      <trkpt lat="44.36228" lon="4.08172">
        <ele>428.434</ele>
        <time>2020-09-09T02:24:48Z</time>
      </trkpt>
      <trkpt lat="44.36252" lon="4.08213">
        <ele>433.627</ele>
        <time>2020-09-09T02:24:28Z</time>
      </trkpt>
      <trkpt lat="44.36287" lon="4.08245">
        <ele>434.416</ele>
        <time>2020-09-09T02:24:08Z</time>
      </trkpt>
      <trkpt lat="44.36363" lon="4.08318">
        <ele>438.742</ele>
        <time>2020-09-09T02:23:48Z</time>
      </trkpt>
      <trkpt lat="44.36423" lon="4.08419">
        <ele>433.032</ele>
        <time>2020-09-09T02:23:28Z</time>
      </trkpt>
      <trkpt lat="44.36434" lon="4.08484">
        <ele>428.578</ele>
        <time>2020-09-09T02:23:08Z</time>
      </trkpt>
      <trkpt lat="44.36449" lon="4.08531">
        <ele>420.221</ele>
        <time>2020-09-09T02:22:48Z</time>
      </trkpt>
      <trkpt lat="44.36431" lon="4.08538">
        <ele>420.03</ele>
        <time>2020-09-09T02:22:28Z</time>
      </trkpt>
      <trkpt lat="44.36406" lon="4.08481">
        <ele>420.808</ele>
        <time>2020-09-09T02:22:08Z</time>
      </trkpt>
      <trkpt lat="44.36363" lon="4.08421">
        <ele>418.917</ele>
        <time>2020-09-09T02:21:48Z</time>
      </trkpt>
      <trkpt lat="44.36306" lon="4.08378">
        <ele>418.007</ele>
        <time>2020-09-09T02:21:28Z</time>
      </trkpt>
      <trkpt lat="44.3625" lon="4.08367">
        <ele>411.555</ele>
        <time>2020-09-09T02:21:08Z</time>
      </trkpt>
      <trkpt lat="44.36298" lon="4.08413">
        <ele>415.56</ele>
        <time>2020-09-09T02:20:48Z</time>
      </trkpt>
      <trkpt lat="44.36339" lon="4.08488">
        <ele>410.073</ele>
        <time>2020-09-09T02:20:28Z</time>
      </trkpt>
      <trkpt lat="44.36284" lon="4.08563">
        <ele>396.892</ele>
        <time>2020-09-09T02:20:08Z</time>
      </trkpt>
      <trkpt lat="44.36173" lon="4.08639">
        <ele>386.848</ele>
        <time>2020-09-09T02:19:48Z</time>
      </trkpt>
      <trkpt lat="44.3618" lon="4.08718">
        <ele>386.768</ele>
        <time>2020-09-09T02:19:28Z</time>
      </trkpt>
      <trkpt lat="44.36207" lon="4.08794">
        <ele>380.964</ele>
        <time>2020-09-09T02:19:08Z</time>
      </trkpt>
      <trkpt lat="44.36224" lon="4.08854">
        <ele>373.997</ele>
        <time>2020-09-09T02:18:48Z</time>
      </trkpt>
      <trkpt lat="44.36216" lon="4.08929">
        <ele>364.786</ele>
        <time>2020-09-09T02:18:28Z</time>
      </trkpt>
      <trkpt lat="44.36235" lon="4.09019">
        <ele>360.908</ele>
        <time>2020-09-09T02:18:08Z</time>
      </trkpt>
      <trkpt lat="44.36275" lon="4.09076">
        <ele>356.219</ele>
        <time>2020-09-09T02:17:48Z</time>
      </trkpt>
      <trkpt lat="44.363" lon="4.0902">
        <ele>356.609</ele>
        <time>2020-09-09T02:17:28Z</time>
      </trkpt>
      <trkpt lat="44.36339" lon="4.08972">
        <ele>357.719</ele>
        <time>2020-09-09T02:17:08Z</time>
      </trkpt>
      <trkpt lat="44.36414" lon="4.08929">
        <ele>356.192</ele>
        <time>2020-09-09T02:16:48Z</time>
      </trkpt>
      <trkpt lat="44.36339" lon="4.09009">
        <ele>350.985</ele>
        <time>2020-09-09T02:16:28Z</time>
      </trkpt>
      <trkpt lat="44.36323" lon="4.09084">
        <ele>342.334</ele>
        <time>2020-09-09T02:16:08Z</time>
      </trkpt>
      <trkpt lat="44.3633" lon="4.09153">
        <ele>335.55</ele>
        <time>2020-09-09T02:15:48Z</time>
      </trkpt>
      <trkpt lat="44.36322" lon="4.09218">
        <ele>332.19</ele>
        <time>2020-09-09T02:15:28Z</time>
      </trkpt>
      <trkpt lat="44.36351" lon="4.09291">
        <ele>320.356</ele>
        <time>2020-09-09T02:15:08Z</time>
      </trkpt>
      <trkpt lat="44.36346" lon="4.09314">
        <ele>320.399</ele>
        <time>2020-09-09T02:14:48Z</time>
      </trkpt>
      <trkpt lat="44.36327" lon="4.09317">
        <ele>323.858</ele>
        <time>2020-09-09T02:14:28Z</time>
      </trkpt>
      <trkpt lat="44.36404" lon="4.09472">
        <ele>292.708</ele>
        <time>2020-09-09T02:14:08Z</time>
      </trkpt>
      <trkpt lat="44.36438" lon="4.09452">
        <ele>290.918</ele>
        <time>2020-09-09T02:13:48Z</time>
      </trkpt>
      <trkpt lat="44.36474" lon="4.09469">
        <ele>286.717</ele>
        <time>2020-09-09T02:13:28Z</time>
      </trkpt>
      <trkpt lat="44.36558" lon="4.09424">
        <ele>284.036</ele>
        <time>2020-09-09T02:13:08Z</time>
      </trkpt>
      <trkpt lat="44.36583" lon="4.09441">
        <ele>284.235</ele>
        <time>2020-09-09T02:12:48Z</time>
      </trkpt>
    </trkseg>
  </trk>
  <trk>
    <name><![CDATA[Les vans]]></name>
    <extensions>
      <line xmlns="http://www.topografix.com/GPX/gpx_style/0/2">
        <color>ff0000</color>
        <width>4</width>
      </line>
    </extensions>
    <trkseg>
      <trkpt lat="44.36583" lon="4.09441">
        <ele>284.235</ele>
        <time>2020-09-09T02:12:48Z</time>
      </trkpt>
      <trkpt lat="44.36577" lon="4.09508">
        <ele>277.698</ele>
        <time>2020-09-09T02:12:28Z</time>
      </trkpt>
      <trkpt lat="44.36546" lon="4.09575">
        <ele>279.727</ele>
        <time>2020-09-09T02:12:08Z</time>
      </trkpt>
      <trkpt lat="44.36526" lon="4.09704">
        <ele>284.533</ele>
        <time>2020-09-09T02:11:48Z</time>
      </trkpt>
      <trkpt lat="44.36534" lon="4.09717">
        <ele>285.273</ele>
        <time>2020-09-09T02:11:28Z</time>
      </trkpt>
      <trkpt lat="44.36591" lon="4.09719">
        <ele>298.219</ele>
        <time>2020-09-09T02:11:08Z</time>
      </trkpt>
      <trkpt lat="44.36589" lon="4.09781">
        <ele>296.332</ele>
        <time>2020-09-09T02:10:48Z</time>
      </trkpt>
      <trkpt lat="44.36535" lon="4.09831">
        <ele>289.031</ele>
        <time>2020-09-09T02:10:28Z</time>
      </trkpt>
      <trkpt lat="44.36531" lon="4.09874">
        <ele>291.508</ele>
        <time>2020-09-09T02:10:08Z</time>
      </trkpt>
      <trkpt lat="44.36543" lon="4.09893">
        <ele>291.813</ele>
        <time>2020-09-09T02:09:48Z</time>
      </trkpt>
      <trkpt lat="44.36511" lon="4.09932">
        <ele>290.621</ele>
        <time>2020-09-09T02:09:28Z</time>
      </trkpt>
      <trkpt lat="44.36547" lon="4.0993">
        <ele>288.961</ele>
        <time>2020-09-09T02:09:08Z</time>
      </trkpt>
      <trkpt lat="44.36569" lon="4.09919">
        <ele>289.238</ele>
        <time>2020-09-09T02:08:48Z</time>
      </trkpt>
      <trkpt lat="44.36643" lon="4.09975">
        <ele>283.041</ele>
        <time>2020-09-09T02:08:28Z</time>
      </trkpt>
      <trkpt lat="44.36701" lon="4.10059">
        <ele>277.37</ele>
        <time>2020-09-09T02:08:08Z</time>
      </trkpt>
      <trkpt lat="44.36686" lon="4.10132">
        <ele>273.546</ele>
        <time>2020-09-09T02:07:48Z</time>
      </trkpt>
      <trkpt lat="44.36716" lon="4.10136">
        <ele>273.986</ele>
        <time>2020-09-09T02:07:28Z</time>
      </trkpt>
      <trkpt lat="44.36746" lon="4.10182">
        <ele>272.352</ele>
        <time>2020-09-09T02:07:08Z</time>
      </trkpt>
      <trkpt lat="44.36804" lon="4.1021">
        <ele>272.985</ele>
        <time>2020-09-09T02:06:48Z</time>
      </trkpt>
      <trkpt lat="44.36833" lon="4.10236">
        <ele>272.434</ele>
        <time>2020-09-09T02:06:28Z</time>
      </trkpt>
      <trkpt lat="44.36949" lon="4.10369">
        <ele>281.708</ele>
        <time>2020-09-09T02:06:08Z</time>
      </trkpt>
      <trkpt lat="44.3713" lon="4.10539">
        <ele>285.622</ele>
        <time>2020-09-09T02:05:48Z</time>
      </trkpt>
      <trkpt lat="44.37191" lon="4.1056">
        <ele>286.857</ele>
        <time>2020-09-09T02:05:28Z</time>
      </trkpt>
      <trkpt lat="44.37366" lon="4.10532">
        <ele>303.994</ele>
        <time>2020-09-09T02:05:08Z</time>
      </trkpt>
      <trkpt lat="44.37427" lon="4.10539">
        <ele>312.428</ele>
        <time>2020-09-09T02:04:48Z</time>
      </trkpt>
      <trkpt lat="44.37493" lon="4.1059">
        <ele>308.641</ele>
        <time>2020-09-09T02:04:28Z</time>
      </trkpt>
      <trkpt lat="44.37519" lon="4.1059">
        <ele>310.77</ele>
        <time>2020-09-09T02:04:08Z</time>
      </trkpt>
      <trkpt lat="44.37566" lon="4.10634">
        <ele>309.686</ele>
        <time>2020-09-09T02:03:48Z</time>
      </trkpt>
      <trkpt lat="44.37616" lon="4.10608">
        <ele>315.276</ele>
        <time>2020-09-09T02:03:28Z</time>
      </trkpt>
      <trkpt lat="44.3764" lon="4.10625">
        <ele>314.842</ele>
        <time>2020-09-09T02:03:08Z</time>
      </trkpt>
      <trkpt lat="44.37646" lon="4.1069">
        <ele>310.095</ele>
        <time>2020-09-09T02:02:48Z</time>
      </trkpt>
      <trkpt lat="44.37666" lon="4.10709">
        <ele>309.844</ele>
        <time>2020-09-09T02:02:28Z</time>
      </trkpt>
      <trkpt lat="44.37738" lon="4.10705">
        <ele>316.508</ele>
        <time>2020-09-09T02:02:08Z</time>
      </trkpt>
      <trkpt lat="44.37806" lon="4.10769">
        <ele>320.624</ele>
        <time>2020-09-09T02:01:48Z</time>
      </trkpt>
      <trkpt lat="44.37843" lon="4.10842">
        <ele>316.331</ele>
        <time>2020-09-09T02:01:28Z</time>
      </trkpt>
      <trkpt lat="44.37912" lon="4.10855">
        <ele>318.996</ele>
        <time>2020-09-09T02:01:08Z</time>
      </trkpt>
      <trkpt lat="44.37924" lon="4.10918">
        <ele>320.586</ele>
        <time>2020-09-09T02:00:48Z</time>
      </trkpt>
      <trkpt lat="44.37976" lon="4.1098">
        <ele>321.249</ele>
        <time>2020-09-09T02:00:28Z</time>
      </trkpt>
      <trkpt lat="44.37984" lon="4.1106">
        <ele>321.858</ele>
        <time>2020-09-09T02:00:08Z</time>
      </trkpt>
      <trkpt lat="44.38017" lon="4.11157">
        <ele>330.954</ele>
        <time>2020-09-09T01:59:48Z</time>
      </trkpt>
      <trkpt lat="44.38088" lon="4.1117">
        <ele>337.324</ele>
        <time>2020-09-09T01:59:28Z</time>
      </trkpt>
      <trkpt lat="44.38143" lon="4.11197">
        <ele>336.33</ele>
        <time>2020-09-09T01:59:08Z</time>
      </trkpt>
      <trkpt lat="44.38167" lon="4.11227">
        <ele>334.183</ele>
        <time>2020-09-09T01:58:48Z</time>
      </trkpt>
      <trkpt lat="44.38204" lon="4.11245">
        <ele>333.812</ele>
        <time>2020-09-09T01:58:28Z</time>
      </trkpt>
      <trkpt lat="44.38234" lon="4.1126">
        <ele>328.008</ele>
        <time>2020-09-09T01:58:08Z</time>
      </trkpt>
      <trkpt lat="44.38316" lon="4.11333">
        <ele>322.613</ele>
        <time>2020-09-09T01:57:48Z</time>
      </trkpt>
      <trkpt lat="44.38349" lon="4.11314">
        <ele>324.685</ele>
        <time>2020-09-09T01:57:28Z</time>
      </trkpt>
      <trkpt lat="44.38367" lon="4.1132">
        <ele>325.773</ele>
        <time>2020-09-09T01:57:08Z</time>
      </trkpt>
      <trkpt lat="44.38363" lon="4.11359">
        <ele>325.083</ele>
        <time>2020-09-09T01:56:48Z</time>
      </trkpt>
      <trkpt lat="44.38427" lon="4.11486">
        <ele>339.236</ele>
        <time>2020-09-09T01:56:28Z</time>
      </trkpt>
      <trkpt lat="44.38507" lon="4.1149">
        <ele>345.335</ele>
        <time>2020-09-09T01:56:08Z</time>
      </trkpt>
      <trkpt lat="44.38525" lon="4.11516">
        <ele>338.681</ele>
        <time>2020-09-09T01:55:48Z</time>
      </trkpt>
      <trkpt lat="44.38567" lon="4.11524">
        <ele>338.541</ele>
        <time>2020-09-09T01:55:28Z</time>
      </trkpt>
      <trkpt lat="44.38593" lon="4.11602">
        <ele>332.587</ele>
        <time>2020-09-09T01:55:08Z</time>
      </trkpt>
      <trkpt lat="44.38609" lon="4.11604">
        <ele>333.01</ele>
        <time>2020-09-09T01:54:48Z</time>
      </trkpt>
      <trkpt lat="44.38645" lon="4.11581">
        <ele>338.129</ele>
        <time>2020-09-09T01:54:28Z</time>
      </trkpt>
      <trkpt lat="44.38664" lon="4.11632">
        <ele>335.408</ele>
        <time>2020-09-09T01:54:08Z</time>
      </trkpt>
      <trkpt lat="44.38721" lon="4.11636">
        <ele>346.81</ele>
        <time>2020-09-09T01:53:48Z</time>
      </trkpt>
      <trkpt lat="44.38717" lon="4.11595">
        <ele>347.064</ele>
        <time>2020-09-09T01:53:28Z</time>
      </trkpt>
      <trkpt lat="44.38718" lon="4.11552">
        <ele>348.543</ele>
        <time>2020-09-09T01:53:08Z</time>
      </trkpt>
      <trkpt lat="44.38736" lon="4.11486">
        <ele>352.438</ele>
        <time>2020-09-09T01:52:48Z</time>
      </trkpt>
      <trkpt lat="44.38738" lon="4.11454">
        <ele>351.241</ele>
        <time>2020-09-09T01:52:28Z</time>
      </trkpt>
      <trkpt lat="44.38752" lon="4.11393">
        <ele>355.43</ele>
        <time>2020-09-09T01:52:08Z</time>
      </trkpt>
      <trkpt lat="44.38786" lon="4.11339">
        <ele>356.296</ele>
        <time>2020-09-09T01:51:48Z</time>
      </trkpt>
      <trkpt lat="44.38778" lon="4.1132">
        <ele>357.476</ele>
        <time>2020-09-09T01:51:28Z</time>
      </trkpt>
      <trkpt lat="44.3873" lon="4.11312">
        <ele>353.362</ele>
        <time>2020-09-09T01:51:08Z</time>
      </trkpt>
      <trkpt lat="44.38698" lon="4.11251">
        <ele>357.355</ele>
        <time>2020-09-09T01:50:48Z</time>
      </trkpt>
      <trkpt lat="44.38636" lon="4.11335">
        <ele>357.264</ele>
        <time>2020-09-09T01:50:28Z</time>
      </trkpt>
      <trkpt lat="44.38632" lon="4.11256">
        <ele>362.008</ele>
        <time>2020-09-09T01:50:08Z</time>
      </trkpt>
      <trkpt lat="44.38637" lon="4.11184">
        <ele>370.026</ele>
        <time>2020-09-09T01:49:48Z</time>
      </trkpt>
      <trkpt lat="44.38646" lon="4.1086">
        <ele>410.615</ele>
        <time>2020-09-09T01:49:28Z</time>
      </trkpt>
      <trkpt lat="44.38684" lon="4.10728">
        <ele>430.898</ele>
        <time>2020-09-09T01:49:08Z</time>
      </trkpt>
      <trkpt lat="44.38821" lon="4.10494">
        <ele>465.788</ele>
        <time>2020-09-09T01:48:48Z</time>
      </trkpt>
      <trkpt lat="44.3883" lon="4.10457">
        <ele>465.811</ele>
        <time>2020-09-09T01:48:28Z</time>
      </trkpt>
      <trkpt lat="44.3882" lon="4.10399">
        <ele>478.25</ele>
        <time>2020-09-09T01:48:08Z</time>
      </trkpt>
      <trkpt lat="44.38713" lon="4.10403">
        <ele>465.196</ele>
        <time>2020-09-09T01:47:48Z</time>
      </trkpt>
      <trkpt lat="44.38686" lon="4.10414">
        <ele>459.436</ele>
        <time>2020-09-09T01:47:28Z</time>
      </trkpt>
      <trkpt lat="44.38669" lon="4.1038">
        <ele>462.612</ele>
        <time>2020-09-09T01:47:08Z</time>
      </trkpt>
      <trkpt lat="44.38662" lon="4.10307">
        <ele>460.635</ele>
        <time>2020-09-09T01:46:48Z</time>
      </trkpt>
      <trkpt lat="44.38673" lon="4.10208">
        <ele>481.024</ele>
        <time>2020-09-09T01:46:28Z</time>
      </trkpt>
      <trkpt lat="44.38598" lon="4.10188">
        <ele>472.808</ele>
        <time>2020-09-09T01:46:08Z</time>
      </trkpt>
      <trkpt lat="44.38557" lon="4.10144">
        <ele>492.019</ele>
        <time>2020-09-09T01:45:48Z</time>
      </trkpt>
      <trkpt lat="44.38502" lon="4.10149">
        <ele>493.481</ele>
        <time>2020-09-09T01:45:28Z</time>
      </trkpt>
      <trkpt lat="44.38455" lon="4.10102">
        <ele>503.691</ele>
        <time>2020-09-09T01:45:08Z</time>
      </trkpt>
      <trkpt lat="44.38431" lon="4.10102">
        <ele>504.461</ele>
        <time>2020-09-09T01:44:48Z</time>
      </trkpt>
      <trkpt lat="44.38419" lon="4.10067">
        <ele>510.954</ele>
        <time>2020-09-09T01:44:28Z</time>
      </trkpt>
      <trkpt lat="44.38422" lon="4.10014">
        <ele>513.793</ele>
        <time>2020-09-09T01:44:08Z</time>
      </trkpt>
      <trkpt lat="44.38431" lon="4.10009">
        <ele>514.139</ele>
        <time>2020-09-09T01:43:48Z</time>
      </trkpt>
      <trkpt lat="44.38456" lon="4.10017">
        <ele>520.619</ele>
        <time>2017-01-24T17:54:43Z</time>
      </trkpt>
      <trkpt lat="44.3849" lon="4.10012">
        <ele>525.765</ele>
        <time>2017-01-24T17:54:23Z</time>
      </trkpt>
      <trkpt lat="44.38531" lon="4.09993">
        <ele>530.288</ele>
        <time>2017-01-24T17:54:03Z</time>
      </trkpt>
      <trkpt lat="44.38574" lon="4.09988">
        <ele>534.797</ele>
        <time>2017-01-24T17:53:43Z</time>
      </trkpt>
      <trkpt lat="44.38647" lon="4.09939">
        <ele>547.008</ele>
        <time>2017-01-24T17:53:23Z</time>
      </trkpt>
      <trkpt lat="44.387" lon="4.09892">
        <ele>553.111</ele>
        <time>2017-01-24T17:53:03Z</time>
      </trkpt>
      <trkpt lat="44.38743" lon="4.0983">
        <ele>567.483</ele>
        <time>2017-01-24T17:52:43Z</time>
      </trkpt>
      <trkpt lat="44.38765" lon="4.09816">
        <ele>574.123</ele>
        <time>2017-01-24T17:52:23Z</time>
      </trkpt>
      <trkpt lat="44.38796" lon="4.09816">
        <ele>579.438</ele>
        <time>2017-01-24T17:52:03Z</time>
      </trkpt>
      <trkpt lat="44.38837" lon="4.09847">
        <ele>584.181</ele>
        <time>2017-01-24T17:51:43Z</time>
      </trkpt>
      <trkpt lat="44.38856" lon="4.09828">
        <ele>587.62</ele>
        <time>2017-01-24T17:51:23Z</time>
      </trkpt>
      <trkpt lat="44.38902" lon="4.09726">
        <ele>586.436</ele>
        <time>2017-01-24T17:51:03Z</time>
      </trkpt>
      <trkpt lat="44.3894" lon="4.09651">
        <ele>582.436</ele>
        <time>2017-01-24T17:50:43Z</time>
      </trkpt>
      <trkpt lat="44.38954" lon="4.09604">
        <ele>586.442</ele>
        <time>2017-01-24T17:50:23Z</time>
      </trkpt>
      <trkpt lat="44.38969" lon="4.09596">
        <ele>585.765</ele>
        <time>2017-01-24T17:50:03Z</time>
      </trkpt>
      <trkpt lat="44.39014" lon="4.09642">
        <ele>565.914</ele>
        <time>2017-01-24T17:49:43Z</time>
      </trkpt>
      <trkpt lat="44.39044" lon="4.09641">
        <ele>562.508</ele>
        <time>2017-01-24T17:49:23Z</time>
      </trkpt>
      <trkpt lat="44.39068" lon="4.09597">
        <ele>569.026</ele>
        <time>2017-01-24T17:49:03Z</time>
      </trkpt>
      <trkpt lat="44.39105" lon="4.09563">
        <ele>568.615</ele>
        <time>2017-01-24T17:48:43Z</time>
      </trkpt>
      <trkpt lat="44.39128" lon="4.09592">
        <ele>557.498</ele>
        <time>2017-01-24T17:48:23Z</time>
      </trkpt>
      <trkpt lat="44.39139" lon="4.09601">
        <ele>554.233</ele>
        <time>2017-01-24T17:48:03Z</time>
      </trkpt>
      <trkpt lat="44.39153" lon="4.09592">
        <ele>552.026</ele>
        <time>2017-01-24T17:47:43Z</time>
      </trkpt>
      <trkpt lat="44.39177" lon="4.09535">
        <ele>557.965</ele>
        <time>2017-01-24T17:47:23Z</time>
      </trkpt>
      <trkpt lat="44.39241" lon="4.09458">
        <ele>560.491</ele>
        <time>2017-01-24T17:47:03Z</time>
      </trkpt>
      <trkpt lat="44.39274" lon="4.09462">
        <ele>551.521</ele>
        <time>2017-01-24T17:46:43Z</time>
      </trkpt>
      <trkpt lat="44.39312" lon="4.09446">
        <ele>546.827</ele>
        <time>2017-01-24T17:46:23Z</time>
      </trkpt>
      <trkpt lat="44.39341" lon="4.09404">
        <ele>548.04</ele>
        <time>2017-01-24T17:46:03Z</time>
      </trkpt>
      <trkpt lat="44.39364" lon="4.09336">
        <ele>558.799</ele>
        <time>2017-01-24T17:45:43Z</time>
      </trkpt>
      <trkpt lat="44.39389" lon="4.09343">
        <ele>559.508</ele>
        <time>2017-01-24T17:45:23Z</time>
      </trkpt>
      <trkpt lat="44.39392" lon="4.09379">
        <ele>554.715</ele>
        <time>2017-01-24T17:45:03Z</time>
      </trkpt>
      <trkpt lat="44.39401" lon="4.0944">
        <ele>553.605</ele>
        <time>2017-01-24T17:44:43Z</time>
      </trkpt>
      <trkpt lat="44.39388" lon="4.09517">
        <ele>548.044</ele>
        <time>2017-01-24T17:44:23Z</time>
      </trkpt>
      <trkpt lat="44.39369" lon="4.09574">
        <ele>543.244</ele>
        <time>2017-01-24T17:44:03Z</time>
      </trkpt>
      <trkpt lat="44.39356" lon="4.09638">
        <ele>538.877</ele>
        <time>2017-01-24T17:43:43Z</time>
      </trkpt>
      <trkpt lat="44.39399" lon="4.0977">
        <ele>531.366</ele>
        <time>2017-01-24T17:43:23Z</time>
      </trkpt>
      <trkpt lat="44.39425" lon="4.09782">
        <ele>535.682</ele>
        <time>2017-01-24T17:43:03Z</time>
      </trkpt>
      <trkpt lat="44.39507" lon="4.09739">
        <ele>542.442</ele>
        <time>2017-01-24T17:42:43Z</time>
      </trkpt>
      <trkpt lat="44.39526" lon="4.09785">
        <ele>534.338</ele>
        <time>2017-01-24T17:42:23Z</time>
      </trkpt>
      <trkpt lat="44.39553" lon="4.09837">
        <ele>532.041</ele>
        <time>2017-01-24T17:42:03Z</time>
      </trkpt>
      <trkpt lat="44.39541" lon="4.09899">
        <ele>523.27</ele>
        <time>2017-01-24T17:41:43Z</time>
      </trkpt>
      <trkpt lat="44.39558" lon="4.09915">
        <ele>526.508</ele>
        <time>2017-01-24T17:41:23Z</time>
      </trkpt>
      <trkpt lat="44.396" lon="4.09922">
        <ele>526.308</ele>
        <time>2017-01-24T17:41:03Z</time>
      </trkpt>
      <trkpt lat="44.39684" lon="4.09894">
        <ele>521.753</ele>
        <time>2017-01-24T17:40:43Z</time>
      </trkpt>
      <trkpt lat="44.39721" lon="4.09858">
        <ele>510.452</ele>
        <time>2017-01-24T17:40:23Z</time>
      </trkpt>
      <trkpt lat="44.39736" lon="4.09812">
        <ele>513.298</ele>
        <time>2017-01-24T17:40:03Z</time>
      </trkpt>
      <trkpt lat="44.39756" lon="4.09803">
        <ele>508.961</ele>
        <time>2017-01-24T17:39:43Z</time>
      </trkpt>
      <trkpt lat="44.39788" lon="4.0981">
        <ele>499.62</ele>
        <time>2017-01-24T17:39:23Z</time>
      </trkpt>
      <trkpt lat="44.39832" lon="4.09788">
        <ele>497.166</ele>
        <time>2017-01-24T17:39:03Z</time>
      </trkpt>
      <trkpt lat="44.39868" lon="4.0975">
        <ele>497.546</ele>
        <time>2017-01-24T17:38:43Z</time>
      </trkpt>
      <trkpt lat="44.39891" lon="4.09704">
        <ele>498.192</ele>
        <time>2017-01-24T17:38:23Z</time>
      </trkpt>
      <trkpt lat="44.39923" lon="4.09681">
        <ele>493.855</ele>
        <time>2017-01-24T17:38:03Z</time>
      </trkpt>
      <trkpt lat="44.39939" lon="4.0968">
        <ele>492.714</ele>
        <time>2017-01-24T17:37:43Z</time>
      </trkpt>
      <trkpt lat="44.39962" lon="4.09671">
        <ele>492.308</ele>
        <time>2017-01-24T17:37:23Z</time>
      </trkpt>
      <trkpt lat="44.40005" lon="4.09667">
        <ele>486.325</ele>
        <time>2017-01-24T17:37:03Z</time>
      </trkpt>
      <trkpt lat="44.40036" lon="4.09643">
        <ele>484.123</ele>
        <time>2017-01-24T17:36:43Z</time>
      </trkpt>
      <trkpt lat="44.40035" lon="4.0971">
        <ele>475.297</ele>
        <time>2017-01-24T17:36:23Z</time>
      </trkpt>
      <trkpt lat="44.40032" lon="4.09742">
        <ele>471.817</ele>
        <time>2017-01-24T17:36:03Z</time>
      </trkpt>
      <trkpt lat="44.40031" lon="4.09824">
        <ele>466.12</ele>
        <time>2017-01-24T17:35:43Z</time>
      </trkpt>
      <trkpt lat="44.40017" lon="4.09848">
        <ele>464.939</ele>
        <time>2017-01-24T17:35:23Z</time>
      </trkpt>
      <trkpt lat="44.39999" lon="4.099">
        <ele>459.845</ele>
        <time>2017-01-24T17:35:03Z</time>
      </trkpt>
      <trkpt lat="44.39967" lon="4.09971">
        <ele>450.325</ele>
        <time>2017-01-24T17:34:43Z</time>
      </trkpt>
      <trkpt lat="44.39943" lon="4.10067">
        <ele>440.971</ele>
        <time>2017-01-24T17:34:23Z</time>
      </trkpt>
      <trkpt lat="44.39916" lon="4.10157">
        <ele>435.024</ele>
        <time>2017-01-24T17:34:03Z</time>
      </trkpt>
      <trkpt lat="44.39901" lon="4.1024">
        <ele>422.523</ele>
        <time>2017-01-24T17:33:43Z</time>
      </trkpt>
      <trkpt lat="44.39903" lon="4.10305">
        <ele>414.508</ele>
        <time>2017-01-24T17:33:23Z</time>
      </trkpt>
      <trkpt lat="44.39898" lon="4.10408">
        <ele>403.426</ele>
        <time>2017-01-24T17:33:03Z</time>
      </trkpt>
      <trkpt lat="44.39883" lon="4.10461">
        <ele>396.106</ele>
        <time>2017-01-24T17:32:43Z</time>
      </trkpt>
      <trkpt lat="44.39879" lon="4.10527">
        <ele>382.989</ele>
        <time>2017-01-24T17:32:23Z</time>
      </trkpt>
      <trkpt lat="44.39903" lon="4.10609">
        <ele>369.417</ele>
        <time>2017-01-24T17:32:03Z</time>
      </trkpt>
      <trkpt lat="44.39926" lon="4.10703">
        <ele>369.96</ele>
        <time>2017-01-24T17:31:43Z</time>
      </trkpt>
      <trkpt lat="44.39933" lon="4.10811">
        <ele>356.059</ele>
        <time>2017-01-24T17:31:23Z</time>
      </trkpt>
      <trkpt lat="44.3993" lon="4.10859">
        <ele>353.725</ele>
        <time>2017-01-24T17:31:03Z</time>
      </trkpt>
      <trkpt lat="44.39891" lon="4.11005">
        <ele>348.115</ele>
        <time>2017-01-24T17:30:43Z</time>
      </trkpt>
      <trkpt lat="44.39872" lon="4.11083">
        <ele>328.041</ele>
        <time>2017-01-24T17:30:23Z</time>
      </trkpt>
      <trkpt lat="44.39874" lon="4.11138">
        <ele>317.864</ele>
        <time>2017-01-24T17:30:03Z</time>
      </trkpt>
      <trkpt lat="44.39885" lon="4.11164">
        <ele>317.673</ele>
        <time>2017-01-24T17:29:43Z</time>
      </trkpt>
      <trkpt lat="44.39949" lon="4.1126">
        <ele>300.208</ele>
        <time>2017-01-24T17:29:23Z</time>
      </trkpt>
      <trkpt lat="44.39955" lon="4.1133">
        <ele>285.517</ele>
        <time>2017-01-24T17:29:03Z</time>
      </trkpt>
      <trkpt lat="44.39964" lon="4.11356">
        <ele>283.425</ele>
        <time>2017-01-24T17:28:43Z</time>
      </trkpt>
      <trkpt lat="44.39958" lon="4.11374">
        <ele>282.583</ele>
        <time>2017-01-24T17:28:23Z</time>
      </trkpt>
      <trkpt lat="44.39949" lon="4.11375">
        <ele>282.98</ele>
        <time>2017-01-24T17:28:03Z</time>
      </trkpt>
      <trkpt lat="44.39936" lon="4.11384">
        <ele>283.383</ele>
        <time>2017-01-24T17:27:43Z</time>
      </trkpt>
      <trkpt lat="44.39935" lon="4.11403">
        <ele>282.752</ele>
        <time>2017-01-24T17:27:23Z</time>
      </trkpt>
      <trkpt lat="44.39919" lon="4.11409">
        <ele>281.358</ele>
        <time>2017-01-24T17:27:03Z</time>
      </trkpt>
      <trkpt lat="44.39915" lon="4.11427">
        <ele>277.998</ele>
        <time>2017-01-24T17:26:43Z</time>
      </trkpt>
      <trkpt lat="44.39921" lon="4.11439">
        <ele>277.274</ele>
        <time>2017-01-24T17:26:23Z</time>
      </trkpt>
      <trkpt lat="44.39908" lon="4.11463">
        <ele>268.247</ele>
        <time>2017-01-24T17:26:03Z</time>
      </trkpt>
      <trkpt lat="44.39879" lon="4.11466">
        <ele>259.176</ele>
        <time>2017-01-24T17:25:43Z</time>
      </trkpt>
      <trkpt lat="44.39868" lon="4.11485">
        <ele>253.508</ele>
        <time>2017-01-24T17:25:23Z</time>
      </trkpt>
      <trkpt lat="44.39864" lon="4.11531">
        <ele>243.305</ele>
        <time>2017-01-24T17:25:03Z</time>
      </trkpt>
      <trkpt lat="44.39904" lon="4.11599">
        <ele>231.132</ele>
        <time>2017-01-24T17:24:43Z</time>
      </trkpt>
      <trkpt lat="44.3992" lon="4.11632">
        <ele>225.612</ele>
        <time>2017-01-24T17:24:23Z</time>
      </trkpt>
      <trkpt lat="44.3993" lon="4.11673">
        <ele>218.813</ele>
        <time>2017-01-24T17:24:03Z</time>
      </trkpt>
      <trkpt lat="44.39944" lon="4.11703">
        <ele>217.126</ele>
        <time>2017-01-24T17:23:43Z</time>
      </trkpt>
      <trkpt lat="44.39976" lon="4.11716">
        <ele>215.345</ele>
        <time>2017-01-24T17:23:23Z</time>
      </trkpt>
      <trkpt lat="44.3999" lon="4.11732">
        <ele>211.921</ele>
        <time>2017-01-24T17:23:03Z</time>
      </trkpt>
      <trkpt lat="44.4005" lon="4.11907">
        <ele>206.841</ele>
        <time>2017-01-24T17:22:43Z</time>
      </trkpt>
      <trkpt lat="44.40051" lon="4.11956">
        <ele>204.937</ele>
        <time>2017-01-24T17:22:23Z</time>
      </trkpt>
      <trkpt lat="44.40039" lon="4.11972">
        <ele>201.74</ele>
        <time>2017-01-24T17:22:03Z</time>
      </trkpt>
      <trkpt lat="44.40032" lon="4.11993">
        <ele>199.779</ele>
        <time>2017-01-24T17:21:43Z</time>
      </trkpt>
      <trkpt lat="44.40011" lon="4.12036">
        <ele>199.608</ele>
        <time>2017-01-24T17:21:23Z</time>
      </trkpt>
      <trkpt lat="44.40008" lon="4.12084">
        <ele>199.009</ele>
        <time>2017-01-24T17:21:03Z</time>
      </trkpt>
      <trkpt lat="44.40019" lon="4.12121">
        <ele>198.381</ele>
        <time>2017-01-24T17:20:43Z</time>
      </trkpt>
      <trkpt lat="44.40036" lon="4.12157">
        <ele>197.341</ele>
        <time>2017-01-24T17:20:23Z</time>
      </trkpt>
      <trkpt lat="44.40076" lon="4.12195">
        <ele>197.736</ele>
        <time>2017-01-24T17:20:03Z</time>
      </trkpt>
      <trkpt lat="44.40094" lon="4.1224">
        <ele>195.939</ele>
        <time>2017-01-24T17:19:43Z</time>
      </trkpt>
      <trkpt lat="44.40106" lon="4.12291">
        <ele>193.398</ele>
        <time>2017-01-24T17:19:23Z</time>
      </trkpt>
      <trkpt lat="44.40135" lon="4.12336">
        <ele>192.394</ele>
        <time>2017-01-24T17:19:03Z</time>
      </trkpt>
      <trkpt lat="44.40153" lon="4.1235">
        <ele>191.744</ele>
        <time>2017-01-24T17:18:43Z</time>
      </trkpt>
      <trkpt lat="44.40159" lon="4.12375">
        <ele>192.36</ele>
        <time>2017-01-24T17:18:23Z</time>
      </trkpt>
      <trkpt lat="44.40237" lon="4.12465">
        <ele>195.013</ele>
        <time>2017-01-24T17:18:03Z</time>
      </trkpt>
      <trkpt lat="44.40253" lon="4.12499">
        <ele>199.832</ele>
        <time>2017-01-24T17:17:43Z</time>
      </trkpt>
      <trkpt lat="44.40301" lon="4.12565">
        <ele>193.308</ele>
        <time>2017-01-24T17:17:23Z</time>
      </trkpt>
      <trkpt lat="44.40376" lon="4.12691">
        <ele>188.321</ele>
        <time>2017-01-24T17:17:03Z</time>
      </trkpt>
      <trkpt lat="44.40409" lon="4.12726">
        <ele>187.156</ele>
        <time>2017-01-24T17:16:43Z</time>
      </trkpt>
      <trkpt lat="44.40442" lon="4.12779">
        <ele>185.274</ele>
        <time>2017-01-24T17:16:23Z</time>
      </trkpt>
      <trkpt lat="44.40493" lon="4.12882">
        <ele>178.023</ele>
        <time>2017-01-24T17:16:03Z</time>
      </trkpt>
      <trkpt lat="44.4053" lon="4.12923">
        <ele>180.296</ele>
        <time>2017-01-24T17:15:43Z</time>
      </trkpt>
      <trkpt lat="44.4052" lon="4.12986">
        <ele>180.865</ele>
        <time>2017-01-24T17:15:23Z</time>
      </trkpt>
      <trkpt lat="44.40534" lon="4.12995">
        <ele>180.121</ele>
        <time>2017-01-24T17:15:03Z</time>
      </trkpt>
      <trkpt lat="44.4056" lon="4.13083">
        <ele>180.031</ele>
        <time>2017-01-24T17:14:43Z</time>
      </trkpt>
      <trkpt lat="44.40591" lon="4.13157">
        <ele>175.837</ele>
        <time>2017-01-24T17:14:23Z</time>
      </trkpt>
      <trkpt lat="44.40608" lon="4.13206">
        <ele>173.86</ele>
        <time>2017-01-24T17:14:03Z</time>
      </trkpt>
      <trkpt lat="44.40612" lon="4.13248">
        <ele>173.049</ele>
        <time>2017-01-24T17:13:43Z</time>
      </trkpt>
      <trkpt lat="44.40624" lon="4.13268">
        <ele>172.208</ele>
        <time>2017-01-24T17:13:23Z</time>
      </trkpt>
      <trkpt lat="44.40624" lon="4.13268">
        <ele>172.216</ele>
        <time>2017-01-24T17:13:03Z</time>
      </trkpt>
      <trkpt lat="44.40687" lon="4.13268">
        <ele>174.388</ele>
        <time>2017-01-24T17:12:43Z</time>
      </trkpt>
      <trkpt lat="44.40803" lon="4.13232">
        <ele>181.546</ele>
        <time>2017-01-24T17:12:23Z</time>
      </trkpt>
      <trkpt lat="44.40885" lon="4.13233">
        <ele>188.153</ele>
        <time>2017-01-24T17:12:03Z</time>
      </trkpt>
      <trkpt lat="44.40925" lon="4.13215">
        <ele>192.016</ele>
        <time>2017-01-24T17:11:43Z</time>
      </trkpt>
      <trkpt lat="44.40962" lon="4.13212">
        <ele>192.015</ele>
        <time>2017-01-24T17:11:23Z</time>
      </trkpt>
      <trkpt lat="44.4102" lon="4.13245">
        <ele>189.511</ele>
        <time>2017-01-24T17:11:03Z</time>
      </trkpt>
      <trkpt lat="44.41074" lon="4.1332">
        <ele>187.471</ele>
        <time>2017-01-24T17:10:43Z</time>
      </trkpt>
      <trkpt lat="44.41126" lon="4.13418">
        <ele>182.837</ele>
        <time>2017-01-24T17:10:23Z</time>
      </trkpt>
      <trkpt lat="44.41151" lon="4.13421">
        <ele>177.91</ele>
        <time>2017-01-24T17:10:03Z</time>
      </trkpt>
      <trkpt lat="44.4119" lon="4.13438">
        <ele>166.539</ele>
        <time>2017-01-24T17:09:43Z</time>
      </trkpt>
      <trkpt lat="44.412" lon="4.13471">
        <ele>164.608</ele>
        <time>2017-01-24T17:09:23Z</time>
      </trkpt>
      <trkpt lat="44.41221" lon="4.13515">
        <ele>157.314</ele>
        <time>2017-01-24T17:09:03Z</time>
      </trkpt>
      <trkpt lat="44.41296" lon="4.13562">
        <ele>150.9</ele>
      </trkpt>
      <trkpt lat="44.41332" lon="4.13543">
        <ele>149.1</ele>
      </trkpt>
      <trkpt lat="44.41377" lon="4.13596">
        <ele>147</ele>
      </trkpt>
      <trkpt lat="44.41403" lon="4.13902">
        <ele>149.3</ele>
      </trkpt>
      <trkpt lat="44.41437" lon="4.13993">
        <ele>146.8</ele>
      </trkpt>
      <trkpt lat="44.41429" lon="4.14151">
        <ele>150.6</ele>
      </trkpt>
    </trkseg>
  </trk>
  <trk>
    <name><![CDATA[MAISON NEUVE]]></name>
    <extensions>
      <line xmlns="http://www.topografix.com/GPX/gpx_style/0/2">
        <color>fb00ff</color>
        <width>4</width>
      </line>
    </extensions>
    <trkseg>
      <trkpt lat="44.41427" lon="4.14146">
        <ele>150.4</ele>
      </trkpt>
      <trkpt lat="44.41435" lon="4.13996">
        <ele>146.8</ele>
      </trkpt>
      <trkpt lat="44.41403" lon="4.13909">
        <ele>149.1</ele>
      </trkpt>
      <trkpt lat="44.41374" lon="4.13598">
        <ele>147.1</ele>
      </trkpt>
      <trkpt lat="44.41333" lon="4.1355">
        <ele>149</ele>
      </trkpt>
      <trkpt lat="44.41295" lon="4.13566">
        <ele>150.9</ele>
      </trkpt>
      <trkpt lat="44.41219" lon="4.13515">
        <ele>160.9</ele>
      </trkpt>
      <trkpt lat="44.41189" lon="4.13439">
        <ele>168.4</ele>
      </trkpt>
      <trkpt lat="44.4115" lon="4.13424">
        <ele>176.2</ele>
      </trkpt>
      <trkpt lat="44.41124" lon="4.13424">
        <ele>181.1</ele>
      </trkpt>
      <trkpt lat="44.41075" lon="4.1333">
        <ele>186.8</ele>
      </trkpt>
      <trkpt lat="44.41021" lon="4.13249">
        <ele>188.8</ele>
      </trkpt>
      <trkpt lat="44.40963" lon="4.13206">
        <ele>191.792</ele>
        <time>2015-07-28T20:06:26Z</time>
      </trkpt>
      <trkpt lat="44.40881" lon="4.13232">
        <ele>187.673</ele>
        <time>2015-07-28T20:06:46Z</time>
      </trkpt>
      <trkpt lat="44.40807" lon="4.13229">
        <ele>181.82</ele>
        <time>2015-07-28T20:07:06Z</time>
      </trkpt>
      <trkpt lat="44.40688" lon="4.13268">
        <ele>174.308</ele>
        <time>2015-07-28T20:07:26Z</time>
      </trkpt>
      <trkpt lat="44.40625" lon="4.13266">
        <ele>172.255</ele>
        <time>2015-07-28T20:07:46Z</time>
      </trkpt>
      <trkpt lat="44.40603" lon="4.13246">
        <ele>173.999</ele>
        <time>2015-07-28T20:08:06Z</time>
      </trkpt>
      <trkpt lat="44.40569" lon="4.13275">
        <ele>175.256</ele>
        <time>2015-07-28T20:08:26Z</time>
      </trkpt>
      <trkpt lat="44.40542" lon="4.13279">
        <ele>176.084</ele>
        <time>2015-07-28T20:08:46Z</time>
      </trkpt>
      <trkpt lat="44.40535" lon="4.13294">
        <ele>175.796</ele>
        <time>2015-07-28T20:09:06Z</time>
      </trkpt>
      <trkpt lat="44.4053" lon="4.13337">
        <ele>174.731</ele>
        <time>2015-07-28T20:09:26Z</time>
      </trkpt>
      <trkpt lat="44.40543" lon="4.1337">
        <ele>172.084</ele>
        <time>2015-07-28T20:09:46Z</time>
      </trkpt>
      <trkpt lat="44.40537" lon="4.13407">
        <ele>172.029</ele>
        <time>2015-07-28T20:10:06Z</time>
      </trkpt>
      <trkpt lat="44.40538" lon="4.13446">
        <ele>171.531</ele>
        <time>2015-07-28T20:10:26Z</time>
      </trkpt>
      <trkpt lat="44.4051" lon="4.13448">
        <ele>172.961</ele>
        <time>2015-07-28T20:10:46Z</time>
      </trkpt>
      <trkpt lat="44.40515" lon="4.13503">
        <ele>170.807</ele>
        <time>2015-07-28T20:11:06Z</time>
      </trkpt>
      <trkpt lat="44.4051" lon="4.13582">
        <ele>170.308</ele>
        <time>2015-07-28T20:11:26Z</time>
      </trkpt>
      <trkpt lat="44.40476" lon="4.13691">
        <ele>173.879</ele>
        <time>2015-07-28T20:11:46Z</time>
      </trkpt>
      <trkpt lat="44.40487" lon="4.13706">
        <ele>173.763</ele>
        <time>2015-07-28T20:12:06Z</time>
      </trkpt>
      <trkpt lat="44.40468" lon="4.1374">
        <ele>175.46</ele>
        <time>2015-07-28T20:12:26Z</time>
      </trkpt>
      <trkpt lat="44.40448" lon="4.13803">
        <ele>179.438</ele>
        <time>2015-07-28T20:12:46Z</time>
      </trkpt>
      <trkpt lat="44.40433" lon="4.13819">
        <ele>183.19</ele>
        <time>2015-07-28T20:13:06Z</time>
      </trkpt>
      <trkpt lat="44.40426" lon="4.13891">
        <ele>185.485</ele>
        <time>2015-07-28T20:13:26Z</time>
      </trkpt>
      <trkpt lat="44.40375" lon="4.14076">
        <ele>181.328</ele>
        <time>2020-11-21T07:40:45Z</time>
      </trkpt>
      <trkpt lat="44.40373" lon="4.14114">
        <ele>181.243</ele>
        <time>2020-11-21T07:41:05Z</time>
      </trkpt>
      <trkpt lat="44.40365" lon="4.14122">
        <ele>181.823</ele>
        <time>2020-11-21T07:41:25Z</time>
      </trkpt>
      <trkpt lat="44.40375" lon="4.14147">
        <ele>181.983</ele>
        <time>2020-11-21T07:41:45Z</time>
      </trkpt>
      <trkpt lat="44.40396" lon="4.14159">
        <ele>183.911</ele>
        <time>2020-11-21T07:42:05Z</time>
      </trkpt>
      <trkpt lat="44.4038" lon="4.14201">
        <ele>184.708</ele>
        <time>2020-11-21T07:42:25Z</time>
      </trkpt>
      <trkpt lat="44.40389" lon="4.14228">
        <ele>186.288</ele>
        <time>2020-11-21T07:42:45Z</time>
      </trkpt>
      <trkpt lat="44.40381" lon="4.14304">
        <ele>193.312</ele>
        <time>2020-11-21T07:43:05Z</time>
      </trkpt>
      <trkpt lat="44.40358" lon="4.14386">
        <ele>195.269</ele>
        <time>2020-11-21T07:43:25Z</time>
      </trkpt>
      <trkpt lat="44.40362" lon="4.14436">
        <ele>199.557</ele>
        <time>2020-11-21T07:43:45Z</time>
      </trkpt>
      <trkpt lat="44.40341" lon="4.1448">
        <ele>201.519</ele>
        <time>2020-11-21T07:44:05Z</time>
      </trkpt>
      <trkpt lat="44.40379" lon="4.14508">
        <ele>212.144</ele>
        <time>2020-11-21T07:44:25Z</time>
      </trkpt>
      <trkpt lat="44.40376" lon="4.14552">
        <ele>218.197</ele>
        <time>2020-11-21T07:44:45Z</time>
      </trkpt>
      <trkpt lat="44.40381" lon="4.14574">
        <ele>223.112</ele>
        <time>2020-11-21T07:45:05Z</time>
      </trkpt>
      <trkpt lat="44.4038" lon="4.14614">
        <ele>228.158</ele>
        <time>2020-11-21T07:45:25Z</time>
      </trkpt>
      <trkpt lat="44.40383" lon="4.14677">
        <ele>240.552</ele>
        <time>2020-11-21T07:45:45Z</time>
      </trkpt>
      <trkpt lat="44.40331" lon="4.14743">
        <ele>244.217</ele>
        <time>2020-11-21T07:46:05Z</time>
      </trkpt>
      <trkpt lat="44.40316" lon="4.14754">
        <ele>244.808</ele>
        <time>2020-11-21T07:46:25Z</time>
      </trkpt>
      <trkpt lat="44.40266" lon="4.14745">
        <ele>239.971</ele>
        <time>2020-11-21T07:46:45Z</time>
      </trkpt>
      <trkpt lat="44.40221" lon="4.14758">
        <ele>236.975</ele>
        <time>2020-11-21T07:47:05Z</time>
      </trkpt>
      <trkpt lat="44.40179" lon="4.14811">
        <ele>249.472</ele>
        <time>2020-11-21T07:47:25Z</time>
      </trkpt>
      <trkpt lat="44.40165" lon="4.14811">
        <ele>249.83</ele>
        <time>2020-11-21T07:47:45Z</time>
      </trkpt>
      <trkpt lat="44.40136" lon="4.14754">
        <ele>242.312</ele>
        <time>2020-11-21T07:48:05Z</time>
      </trkpt>
      <trkpt lat="44.40117" lon="4.1475">
        <ele>244.927</ele>
        <time>2020-11-21T07:48:25Z</time>
      </trkpt>
      <trkpt lat="44.40115" lon="4.14764">
        <ele>247.98</ele>
        <time>2015-07-28T20:18:26Z</time>
      </trkpt>
      <trkpt lat="44.40129" lon="4.14778">
        <ele>247.935</ele>
        <time>2015-07-28T20:18:46Z</time>
      </trkpt>
      <trkpt lat="44.40172" lon="4.14883">
        <ele>257.685</ele>
        <time>2015-07-28T20:19:06Z</time>
      </trkpt>
      <trkpt lat="44.40148" lon="4.1491">
        <ele>258.089</ele>
        <time>2015-07-28T20:19:26Z</time>
      </trkpt>
      <trkpt lat="44.40119" lon="4.15042">
        <ele>257.817</ele>
        <time>2015-07-28T20:19:46Z</time>
      </trkpt>
      <trkpt lat="44.40113" lon="4.15127">
        <ele>255.208</ele>
        <time>2015-07-28T20:20:06Z</time>
      </trkpt>
      <trkpt lat="44.40084" lon="4.15285">
        <ele>252.334</ele>
        <time>2015-07-28T20:20:26Z</time>
      </trkpt>
      <trkpt lat="44.40076" lon="4.15492">
        <ele>250.618</ele>
        <time>2015-07-28T20:20:46Z</time>
      </trkpt>
      <trkpt lat="44.40057" lon="4.156">
        <ele>249.725</ele>
        <time>2015-07-28T20:21:06Z</time>
      </trkpt>
      <trkpt lat="44.40074" lon="4.15674">
        <ele>251.783</ele>
        <time>2015-07-28T20:21:26Z</time>
      </trkpt>
      <trkpt lat="44.40092" lon="4.1579">
        <ele>251.855</ele>
        <time>2015-07-28T20:21:46Z</time>
      </trkpt>
      <trkpt lat="44.40116" lon="4.15862">
        <ele>250.74</ele>
        <time>2015-07-28T20:22:06Z</time>
      </trkpt>
      <trkpt lat="44.4017" lon="4.16071">
        <ele>250.133</ele>
        <time>2015-07-28T20:22:26Z</time>
      </trkpt>
      <trkpt lat="44.40137" lon="4.16165">
        <ele>248.018</ele>
        <time>2015-07-28T20:22:46Z</time>
      </trkpt>
      <trkpt lat="44.40114" lon="4.1628">
        <ele>245.986</ele>
        <time>2015-07-28T20:23:06Z</time>
      </trkpt>
      <trkpt lat="44.40129" lon="4.16362">
        <ele>245.06</ele>
        <time>2015-07-28T20:23:26Z</time>
      </trkpt>
      <trkpt lat="44.4012" lon="4.16531">
        <ele>244.526</ele>
        <time>2015-07-28T20:23:46Z</time>
      </trkpt>
      <trkpt lat="44.40156" lon="4.16601">
        <ele>245.008</ele>
        <time>2015-07-28T20:24:06Z</time>
      </trkpt>
      <trkpt lat="44.40174" lon="4.16656">
        <ele>244.394</ele>
        <time>2015-07-28T20:24:26Z</time>
      </trkpt>
      <trkpt lat="44.40181" lon="4.16733">
        <ele>244.568</ele>
        <time>2015-07-28T20:24:46Z</time>
      </trkpt>
      <trkpt lat="44.40188" lon="4.16759">
        <ele>244.325</ele>
        <time>2015-07-28T20:25:06Z</time>
      </trkpt>
      <trkpt lat="44.40195" lon="4.16829">
        <ele>243.873</ele>
        <time>2015-07-28T20:25:26Z</time>
      </trkpt>
      <trkpt lat="44.40202" lon="4.16865">
        <ele>243.455</ele>
        <time>2015-07-28T20:25:46Z</time>
      </trkpt>
      <trkpt lat="44.4018" lon="4.17016">
        <ele>228.93</ele>
        <time>2015-07-28T20:26:06Z</time>
      </trkpt>
      <trkpt lat="44.40169" lon="4.17056">
        <ele>227.373</ele>
        <time>2015-07-28T20:26:26Z</time>
      </trkpt>
      <trkpt lat="44.40141" lon="4.17092">
        <ele>227.268</ele>
        <time>2015-07-28T20:26:46Z</time>
      </trkpt>
      <trkpt lat="44.40131" lon="4.17109">
        <ele>224.884</ele>
        <time>2015-07-28T20:27:06Z</time>
      </trkpt>
      <trkpt lat="44.4011" lon="4.17132">
        <ele>223.807</ele>
        <time>2015-07-28T20:27:26Z</time>
      </trkpt>
      <trkpt lat="44.40109" lon="4.17143">
        <ele>222.917</ele>
        <time>2015-07-28T20:27:46Z</time>
      </trkpt>
      <trkpt lat="44.40117" lon="4.17167">
        <ele>219.508</ele>
        <time>2015-07-28T20:28:06Z</time>
      </trkpt>
      <trkpt lat="44.40141" lon="4.17307">
        <ele>225.914</ele>
        <time>2015-07-28T20:28:26Z</time>
      </trkpt>
      <trkpt lat="44.4013" lon="4.17363">
        <ele>231.278</ele>
        <time>2015-07-28T20:28:46Z</time>
      </trkpt>
      <trkpt lat="44.40124" lon="4.17428">
        <ele>234.285</ele>
        <time>2015-07-28T20:29:06Z</time>
      </trkpt>
      <trkpt lat="44.40089" lon="4.17447">
        <ele>235.043</ele>
        <time>2015-07-28T20:29:26Z</time>
      </trkpt>
      <trkpt lat="44.39986" lon="4.17472">
        <ele>233.045</ele>
        <time>2015-07-28T20:29:46Z</time>
      </trkpt>
      <trkpt lat="44.39956" lon="4.17496">
        <ele>234.54</ele>
        <time>2015-07-28T20:30:06Z</time>
      </trkpt>
      <trkpt lat="44.39879" lon="4.175">
        <ele>233.363</ele>
        <time>2015-07-28T20:30:26Z</time>
      </trkpt>
      <trkpt lat="44.39854" lon="4.17524">
        <ele>231.518</ele>
        <time>2015-07-28T20:30:46Z</time>
      </trkpt>
      <trkpt lat="44.39841" lon="4.1756">
        <ele>230.794</ele>
        <time>2015-07-28T20:31:06Z</time>
      </trkpt>
      <trkpt lat="44.39845" lon="4.1759">
        <ele>230.857</ele>
        <time>2015-07-28T20:31:26Z</time>
      </trkpt>
      <trkpt lat="44.39832" lon="4.17606">
        <ele>228.022</ele>
        <time>2015-07-28T20:31:46Z</time>
      </trkpt>
      <trkpt lat="44.39839" lon="4.17635">
        <ele>227.908</ele>
        <time>2015-07-28T20:32:06Z</time>
      </trkpt>
      <trkpt lat="44.39787" lon="4.17718">
        <ele>225.725</ele>
        <time>2015-07-28T20:32:26Z</time>
      </trkpt>
      <trkpt lat="44.39774" lon="4.17721">
        <ele>224.959</ele>
        <time>2015-07-28T20:32:46Z</time>
      </trkpt>
      <trkpt lat="44.39768" lon="4.17748">
        <ele>223.786</ele>
        <time>2015-07-28T20:33:06Z</time>
      </trkpt>
      <trkpt lat="44.3974" lon="4.1775">
        <ele>223.034</ele>
        <time>2015-07-28T20:33:26Z</time>
      </trkpt>
      <trkpt lat="44.39724" lon="4.17808">
        <ele>219.236</ele>
        <time>2015-07-28T20:33:46Z</time>
      </trkpt>
      <trkpt lat="44.39671" lon="4.17883">
        <ele>213.171</ele>
        <time>2015-07-28T20:34:06Z</time>
      </trkpt>
      <trkpt lat="44.39665" lon="4.17915">
        <ele>211.044</ele>
        <time>2015-07-28T20:34:26Z</time>
      </trkpt>
      <trkpt lat="44.39676" lon="4.1799">
        <ele>212.649</ele>
        <time>2015-07-28T20:34:46Z</time>
      </trkpt>
      <trkpt lat="44.39691" lon="4.1802">
        <ele>215.387</ele>
        <time>2015-07-28T20:35:06Z</time>
      </trkpt>
      <trkpt lat="44.39695" lon="4.18055">
        <ele>216.042</ele>
        <time>2015-07-28T20:35:26Z</time>
      </trkpt>
      <trkpt lat="44.39717" lon="4.18091">
        <ele>217.326</ele>
        <time>2015-07-28T20:35:46Z</time>
      </trkpt>
      <trkpt lat="44.39758" lon="4.18093">
        <ele>218.508</ele>
        <time>2015-07-28T20:36:06Z</time>
      </trkpt>
      <trkpt lat="44.39806" lon="4.1812">
        <ele>217.074</ele>
        <time>2015-07-28T20:36:26Z</time>
      </trkpt>
      <trkpt lat="44.39851" lon="4.18127">
        <ele>218.368</ele>
        <time>2015-07-28T20:36:46Z</time>
      </trkpt>
      <trkpt lat="44.39876" lon="4.18155">
        <ele>219.115</ele>
        <time>2015-07-28T20:37:06Z</time>
      </trkpt>
      <trkpt lat="44.39885" lon="4.18183">
        <ele>220.593</ele>
        <time>2015-07-28T20:37:26Z</time>
      </trkpt>
      <trkpt lat="44.39971" lon="4.18335">
        <ele>231.145</ele>
        <time>2015-07-28T20:37:46Z</time>
      </trkpt>
      <trkpt lat="44.39989" lon="4.18346">
        <ele>230.75</ele>
        <time>2015-07-28T20:38:06Z</time>
      </trkpt>
      <trkpt lat="44.40018" lon="4.18419">
        <ele>230.043</ele>
        <time>2015-07-28T20:38:26Z</time>
      </trkpt>
      <trkpt lat="44.39995" lon="4.18535">
        <ele>228.428</ele>
        <time>2015-07-28T20:38:46Z</time>
      </trkpt>
      <trkpt lat="44.39998" lon="4.18578">
        <ele>226.723</ele>
        <time>2015-07-28T20:39:06Z</time>
      </trkpt>
      <trkpt lat="44.4001" lon="4.18599">
        <ele>225.283</ele>
        <time>2015-07-28T20:39:26Z</time>
      </trkpt>
      <trkpt lat="44.40026" lon="4.18607">
        <ele>223.311</ele>
        <time>2015-07-28T20:39:46Z</time>
      </trkpt>
      <trkpt lat="44.40044" lon="4.18585">
        <ele>223.008</ele>
        <time>2015-07-28T20:40:06Z</time>
      </trkpt>
      <trkpt lat="44.40068" lon="4.18586">
        <ele>224.878</ele>
        <time>2015-07-28T20:40:26Z</time>
      </trkpt>
      <trkpt lat="44.40082" lon="4.18601">
        <ele>226.232</ele>
        <time>2015-07-28T20:40:46Z</time>
      </trkpt>
      <trkpt lat="44.40118" lon="4.18692">
        <ele>226.379</ele>
        <time>2015-07-28T20:41:06Z</time>
      </trkpt>
      <trkpt lat="44.40193" lon="4.18729">
        <ele>234.527</ele>
        <time>2015-07-28T20:41:26Z</time>
      </trkpt>
      <trkpt lat="44.40225" lon="4.18749">
        <ele>236.369</ele>
        <time>2015-07-28T20:41:46Z</time>
      </trkpt>
      <trkpt lat="44.40208" lon="4.18783">
        <ele>230.954</ele>
        <time>2015-07-28T20:42:06Z</time>
      </trkpt>
      <trkpt lat="44.40217" lon="4.18885">
        <ele>223.387</ele>
        <time>2015-07-28T20:42:26Z</time>
      </trkpt>
      <trkpt lat="44.40228" lon="4.18901">
        <ele>222.712</ele>
        <time>2015-07-28T20:42:46Z</time>
      </trkpt>
      <trkpt lat="44.40246" lon="4.1891">
        <ele>221.976</ele>
        <time>2015-07-28T20:43:06Z</time>
      </trkpt>
      <trkpt lat="44.40239" lon="4.18957">
        <ele>224.19</ele>
        <time>2015-07-28T20:43:26Z</time>
      </trkpt>
      <trkpt lat="44.40215" lon="4.18958">
        <ele>225.119</ele>
        <time>2015-07-28T20:43:46Z</time>
      </trkpt>
      <trkpt lat="44.40204" lon="4.1897">
        <ele>226.308</ele>
        <time>2015-07-28T20:44:06Z</time>
      </trkpt>
      <trkpt lat="44.40193" lon="4.19015">
        <ele>226.263</ele>
        <time>2015-07-28T20:44:26Z</time>
      </trkpt>
      <trkpt lat="44.40133" lon="4.19062">
        <ele>233.027</ele>
        <time>2015-07-28T20:44:46Z</time>
      </trkpt>
      <trkpt lat="44.40115" lon="4.19061">
        <ele>233.114</ele>
        <time>2015-07-28T20:45:06Z</time>
      </trkpt>
      <trkpt lat="44.40059" lon="4.19116">
        <ele>231.012</ele>
        <time>2015-07-28T20:45:26Z</time>
      </trkpt>
      <trkpt lat="44.39974" lon="4.19124">
        <ele>221.664</ele>
        <time>2015-07-28T20:45:46Z</time>
      </trkpt>
      <trkpt lat="44.39825" lon="4.19187">
        <ele>193.219</ele>
        <time>2015-07-28T20:46:06Z</time>
      </trkpt>
      <trkpt lat="44.39801" lon="4.19203">
        <ele>191.352</ele>
        <time>2015-07-28T20:46:26Z</time>
      </trkpt>
      <trkpt lat="44.39758" lon="4.19195">
        <ele>192.587</ele>
        <time>2015-07-28T20:46:46Z</time>
      </trkpt>
      <trkpt lat="44.39723" lon="4.1917">
        <ele>191.466</ele>
        <time>2015-07-28T20:47:06Z</time>
      </trkpt>
      <trkpt lat="44.39688" lon="4.19131">
        <ele>193.529</ele>
        <time>2015-07-28T20:47:26Z</time>
      </trkpt>
      <trkpt lat="44.39631" lon="4.19182">
        <ele>183.921</ele>
        <time>2015-07-28T20:47:46Z</time>
      </trkpt>
      <trkpt lat="44.39532" lon="4.1931">
        <ele>164.808</ele>
        <time>2015-07-28T20:48:06Z</time>
      </trkpt>
      <trkpt lat="44.39473" lon="4.19349">
        <ele>169.872</ele>
        <time>2015-07-28T20:48:26Z</time>
      </trkpt>
      <trkpt lat="44.39436" lon="4.19411">
        <ele>171.926</ele>
        <time>2015-07-28T20:48:46Z</time>
      </trkpt>
      <trkpt lat="44.39418" lon="4.19513">
        <ele>171.813</ele>
        <time>2015-07-28T20:49:06Z</time>
      </trkpt>
      <trkpt lat="44.39398" lon="4.19542">
        <ele>170.291</ele>
        <time>2015-07-28T20:49:26Z</time>
      </trkpt>
      <trkpt lat="44.39365" lon="4.19555">
        <ele>169.053</ele>
        <time>2015-07-28T20:49:46Z</time>
      </trkpt>
      <trkpt lat="44.39331" lon="4.1958">
        <ele>168.358</ele>
        <time>2015-07-28T20:50:06Z</time>
      </trkpt>
      <trkpt lat="44.39275" lon="4.19598">
        <ele>167.631</ele>
        <time>2015-07-28T20:50:26Z</time>
      </trkpt>
      <trkpt lat="44.39245" lon="4.19573">
        <ele>169.036</ele>
        <time>2015-07-28T20:50:46Z</time>
      </trkpt>
      <trkpt lat="44.39222" lon="4.19537">
        <ele>171.051</ele>
        <time>2015-07-28T20:51:06Z</time>
      </trkpt>
      <trkpt lat="44.39208" lon="4.19489">
        <ele>175.001</ele>
        <time>2015-07-28T20:51:26Z</time>
      </trkpt>
      <trkpt lat="44.39185" lon="4.19461">
        <ele>177.311</ele>
        <time>2015-07-28T20:51:46Z</time>
      </trkpt>
      <trkpt lat="44.39165" lon="4.19456">
        <ele>179.008</ele>
        <time>2015-07-28T20:52:06Z</time>
      </trkpt>
      <trkpt lat="44.39162" lon="4.19439">
        <ele>179.461</ele>
        <time>2015-07-28T20:52:26Z</time>
      </trkpt>
      <trkpt lat="44.3913" lon="4.19478">
        <ele>179.395</ele>
        <time>2015-07-28T20:52:46Z</time>
      </trkpt>
      <trkpt lat="44.39101" lon="4.19578">
        <ele>179.572</ele>
        <time>2015-07-28T20:53:06Z</time>
      </trkpt>
      <trkpt lat="44.39083" lon="4.1961">
        <ele>180.97</ele>
        <time>2015-07-28T20:53:26Z</time>
      </trkpt>
      <trkpt lat="44.39066" lon="4.19679">
        <ele>185.032</ele>
        <time>2015-07-28T20:53:46Z</time>
      </trkpt>
      <trkpt lat="44.39059" lon="4.19739">
        <ele>184.467</ele>
        <time>2015-07-28T20:54:06Z</time>
      </trkpt>
      <trkpt lat="44.39019" lon="4.19796">
        <ele>180.77</ele>
        <time>2015-07-28T20:54:26Z</time>
      </trkpt>
      <trkpt lat="44.38972" lon="4.19853">
        <ele>177.345</ele>
        <time>2015-07-28T20:54:46Z</time>
      </trkpt>
      <trkpt lat="44.38959" lon="4.1989">
        <ele>176.559</ele>
        <time>2015-07-28T20:55:06Z</time>
      </trkpt>
      <trkpt lat="44.38848" lon="4.20011">
        <ele>167.503</ele>
        <time>2015-07-28T20:55:26Z</time>
      </trkpt>
      <trkpt lat="44.38809" lon="4.20059">
        <ele>162.423</ele>
        <time>2015-07-28T20:55:46Z</time>
      </trkpt>
      <trkpt lat="44.38713" lon="4.20087">
        <ele>158.708</ele>
        <time>2015-07-28T20:56:06Z</time>
      </trkpt>
      <trkpt lat="44.38635" lon="4.20086">
        <ele>157.391</ele>
        <time>2015-07-28T20:56:26Z</time>
      </trkpt>
      <trkpt lat="44.38577" lon="4.20064">
        <ele>154.445</ele>
        <time>2015-07-28T20:56:46Z</time>
      </trkpt>
      <trkpt lat="44.38447" lon="4.20051">
        <ele>150.112</ele>
        <time>2015-07-28T20:57:06Z</time>
      </trkpt>
      <trkpt lat="44.38417" lon="4.20042">
        <ele>149.06</ele>
        <time>2015-07-28T20:57:26Z</time>
      </trkpt>
      <trkpt lat="44.38385" lon="4.20049">
        <ele>148.712</ele>
        <time>2015-07-28T20:57:46Z</time>
      </trkpt>
      <trkpt lat="44.38331" lon="4.20043">
        <ele>146.417</ele>
        <time>2015-07-28T20:58:06Z</time>
      </trkpt>
      <trkpt lat="44.38311" lon="4.20052">
        <ele>145.46</ele>
        <time>2015-07-28T20:58:26Z</time>
      </trkpt>
      <trkpt lat="44.38227" lon="4.20038">
        <ele>148.285</ele>
        <time>2015-07-28T20:58:46Z</time>
      </trkpt>
      <trkpt lat="44.38212" lon="4.20007">
        <ele>149.022</ele>
        <time>2015-07-28T20:59:06Z</time>
      </trkpt>
      <trkpt lat="44.38141" lon="4.19945">
        <ele>146.162</ele>
        <time>2015-07-28T20:59:26Z</time>
      </trkpt>
      <trkpt lat="44.38067" lon="4.19949">
        <ele>143.008</ele>
        <time>2015-07-28T20:59:46Z</time>
      </trkpt>
      <trkpt lat="44.38033" lon="4.19969">
        <ele>141.308</ele>
        <time>2015-07-28T21:00:06Z</time>
      </trkpt>
      <trkpt lat="44.3797" lon="4.19994">
        <ele>137.178</ele>
        <time>2015-07-28T21:00:26Z</time>
      </trkpt>
      <trkpt lat="44.37869" lon="4.20007">
        <ele>134.012</ele>
        <time>2015-07-28T21:00:46Z</time>
      </trkpt>
      <trkpt lat="44.37756" lon="4.20004">
        <ele>132.149</ele>
        <time>2015-07-28T21:01:06Z</time>
      </trkpt>
      <trkpt lat="44.37715" lon="4.20017">
        <ele>135.337</ele>
        <time>2015-07-28T21:01:26Z</time>
      </trkpt>
      <trkpt lat="44.37695" lon="4.20008">
        <ele>136.059</ele>
        <time>2015-07-28T21:01:46Z</time>
      </trkpt>
      <trkpt lat="44.37571" lon="4.20043">
        <ele>132.954</ele>
        <time>2015-07-28T21:02:06Z</time>
      </trkpt>
      <trkpt lat="44.37542" lon="4.20078">
        <ele>132.767</ele>
        <time>2015-07-28T21:02:26Z</time>
      </trkpt>
      <trkpt lat="44.37506" lon="4.20094">
        <ele>131.752</ele>
        <time>2015-07-28T21:02:46Z</time>
      </trkpt>
      <trkpt lat="44.37481" lon="4.20091">
        <ele>131.769</ele>
        <time>2015-07-28T21:03:06Z</time>
      </trkpt>
      <trkpt lat="44.37469" lon="4.20146">
        <ele>129.804</ele>
        <time>2015-07-28T21:03:26Z</time>
      </trkpt>
      <trkpt lat="44.37465" lon="4.20289">
        <ele>126.424</ele>
        <time>2015-07-28T21:03:46Z</time>
      </trkpt>
      <trkpt lat="44.37481" lon="4.20409">
        <ele>125.408</ele>
        <time>2015-07-28T21:04:06Z</time>
      </trkpt>
      <trkpt lat="44.37483" lon="4.20585">
        <ele>126.892</ele>
        <time>2015-07-28T21:04:26Z</time>
      </trkpt>
      <trkpt lat="44.37473" lon="4.20745">
        <ele>124.276</ele>
        <time>2015-07-28T21:04:46Z</time>
      </trkpt>
      <trkpt lat="44.37479" lon="4.20805">
        <ele>123.323</ele>
        <time>2015-07-28T21:05:06Z</time>
      </trkpt>
      <trkpt lat="44.37474" lon="4.20904">
        <ele>125.431</ele>
        <time>2015-07-28T21:05:26Z</time>
      </trkpt>
      <trkpt lat="44.37549" lon="4.21032">
        <ele>121.143</ele>
        <time>2015-07-28T21:05:46Z</time>
      </trkpt>
      <trkpt lat="44.37592" lon="4.21091">
        <ele>124.768</ele>
        <time>2015-07-28T21:06:06Z</time>
      </trkpt>
      <trkpt lat="44.37643" lon="4.21119">
        <ele>122.171</ele>
        <time>2015-07-28T21:06:26Z</time>
      </trkpt>
      <trkpt lat="44.37695" lon="4.21195">
        <ele>122.036</ele>
        <time>2015-07-28T21:06:46Z</time>
      </trkpt>
      <trkpt lat="44.37726" lon="4.21257">
        <ele>123.112</ele>
        <time>2015-07-28T21:07:06Z</time>
      </trkpt>
      <trkpt lat="44.37764" lon="4.21377">
        <ele>123.432</ele>
        <time>2015-07-28T21:07:26Z</time>
      </trkpt>
      <trkpt lat="44.3779" lon="4.21392">
        <ele>122.505</ele>
        <time>2015-07-28T21:07:46Z</time>
      </trkpt>
      <trkpt lat="44.37789" lon="4.21501">
        <ele>122.008</ele>
        <time>2015-07-28T21:08:06Z</time>
      </trkpt>
      <trkpt lat="44.37772" lon="4.21539">
        <ele>121.887</ele>
        <time>2015-07-28T21:08:26Z</time>
      </trkpt>
      <trkpt lat="44.37821" lon="4.21581">
        <ele>121.151</ele>
        <time>2015-07-28T21:08:46Z</time>
      </trkpt>
      <trkpt lat="44.37917" lon="4.21579">
        <ele>119.058</ele>
        <time>2015-07-28T21:09:06Z</time>
      </trkpt>
      <trkpt lat="44.37931" lon="4.21591">
        <ele>118.736</ele>
        <time>2015-07-28T21:09:26Z</time>
      </trkpt>
      <trkpt lat="44.37954" lon="4.21684">
        <ele>118.428</ele>
        <time>2015-07-28T21:09:46Z</time>
      </trkpt>
      <trkpt lat="44.38036" lon="4.21821">
        <ele>117.883</ele>
        <time>2015-07-28T21:10:06Z</time>
      </trkpt>
      <trkpt lat="44.3809" lon="4.21867">
        <ele>118.446</ele>
        <time>2015-07-28T21:10:26Z</time>
      </trkpt>
      <trkpt lat="44.38111" lon="4.21958">
        <ele>121.061</ele>
        <time>2015-07-28T21:10:46Z</time>
      </trkpt>
      <trkpt lat="44.38128" lon="4.21987">
        <ele>121.135</ele>
        <time>2015-07-28T21:11:06Z</time>
      </trkpt>
      <trkpt lat="44.38215" lon="4.22091">
        <ele>125.986</ele>
        <time>2015-07-28T21:11:26Z</time>
      </trkpt>
      <trkpt lat="44.38238" lon="4.22146">
        <ele>127.514</ele>
        <time>2015-07-28T21:11:46Z</time>
      </trkpt>
      <trkpt lat="44.38277" lon="4.2218">
        <ele>125.608</ele>
        <time>2015-07-28T21:12:06Z</time>
      </trkpt>
      <trkpt lat="44.38318" lon="4.22251">
        <ele>119.179</ele>
        <time>2015-07-28T21:12:26Z</time>
      </trkpt>
      <trkpt lat="44.38356" lon="4.22294">
        <ele>118.543</ele>
        <time>2015-07-28T21:12:46Z</time>
      </trkpt>
      <trkpt lat="44.3843" lon="4.22331">
        <ele>120.38</ele>
        <time>2015-07-28T21:13:06Z</time>
      </trkpt>
      <trkpt lat="44.38476" lon="4.2239">
        <ele>117.898</ele>
        <time>2015-07-28T21:13:26Z</time>
      </trkpt>
      <trkpt lat="44.38504" lon="4.22416">
        <ele>115.72</ele>
        <time>2015-07-28T21:13:46Z</time>
      </trkpt>
      <trkpt lat="44.38543" lon="4.22417">
        <ele>114.065</ele>
        <time>2015-07-28T21:14:06Z</time>
      </trkpt>
      <trkpt lat="44.38567" lon="4.22503">
        <ele>114.018</ele>
        <time>2015-07-28T21:14:26Z</time>
      </trkpt>
      <trkpt lat="44.38568" lon="4.22683">
        <ele>114.993</ele>
        <time>2015-07-28T21:14:46Z</time>
      </trkpt>
      <trkpt lat="44.38592" lon="4.22795">
        <ele>112.949</ele>
        <time>2015-07-28T21:15:06Z</time>
      </trkpt>
      <trkpt lat="44.38599" lon="4.22954">
        <ele>115.002</ele>
        <time>2015-07-28T21:15:26Z</time>
      </trkpt>
      <trkpt lat="44.38599" lon="4.2309">
        <ele>113.622</ele>
        <time>2015-07-28T21:15:46Z</time>
      </trkpt>
      <trkpt lat="44.38605" lon="4.23125">
        <ele>113.808</ele>
        <time>2015-07-28T21:16:06Z</time>
      </trkpt>
      <trkpt lat="44.38629" lon="4.23175">
        <ele>113.81</ele>
        <time>2015-07-28T21:16:26Z</time>
      </trkpt>
      <trkpt lat="44.38747" lon="4.23329">
        <ele>114.054</ele>
        <time>2015-07-28T21:16:46Z</time>
      </trkpt>
      <trkpt lat="44.38856" lon="4.23347">
        <ele>113.531</ele>
        <time>2015-07-28T21:17:06Z</time>
      </trkpt>
      <trkpt lat="44.38966" lon="4.23362">
        <ele>117.759</ele>
        <time>2015-07-28T21:17:26Z</time>
      </trkpt>
      <trkpt lat="44.38965" lon="4.23375">
        <ele>117.481</ele>
        <time>2015-07-28T21:17:46Z</time>
      </trkpt>
      <trkpt lat="44.39003" lon="4.23384">
        <ele>117.256</ele>
        <time>2015-07-28T21:18:06Z</time>
      </trkpt>
      <trkpt lat="44.39238" lon="4.23423">
        <ele>112.4</ele>
      </trkpt>
      <trkpt lat="44.39516" lon="4.23177">
        <ele>132.3</ele>
      </trkpt>
      <trkpt lat="44.396" lon="4.23128">
        <ele>137.6</ele>
      </trkpt>
      <trkpt lat="44.39685" lon="4.23143">
        <ele>142.2</ele>
      </trkpt>
      <trkpt lat="44.39685" lon="4.23101">
        <ele>142.8</ele>
      </trkpt>
    </trkseg>
  </trk>
  <trk>
    <name><![CDATA[VALLON-PONT-D'ARC]]></name>
    <extensions>
      <line xmlns="http://www.topografix.com/GPX/gpx_style/0/2">
        <color>0000FF</color>
        <width>4</width>
      </line>
    </extensions>
    <trkseg>
      <trkpt lat="44.39689" lon="4.23099">
        <ele>143.1</ele>
      </trkpt>
      <trkpt lat="44.39682" lon="4.23149">
        <ele>142</ele>
      </trkpt>
      <trkpt lat="44.396" lon="4.23139">
        <ele>137.8</ele>
      </trkpt>
      <trkpt lat="44.39527" lon="4.23177">
        <ele>133.3</ele>
      </trkpt>
      <trkpt lat="44.39238" lon="4.23435">
        <ele>112.5</ele>
      </trkpt>
      <trkpt lat="44.39003" lon="4.23384">
        <ele>117.256</ele>
        <time>2015-07-28T21:18:06Z</time>
      </trkpt>
      <trkpt lat="44.38984" lon="4.23517">
        <ele>118.029</ele>
        <time>2015-07-28T21:18:26Z</time>
      </trkpt>
      <trkpt lat="44.39013" lon="4.23528">
        <ele>118.084</ele>
        <time>2015-07-28T21:18:46Z</time>
      </trkpt>
      <trkpt lat="44.39042" lon="4.2352">
        <ele>118.022</ele>
        <time>2015-07-28T21:19:06Z</time>
      </trkpt>
      <trkpt lat="44.39056" lon="4.23545">
        <ele>118.062</ele>
        <time>2015-07-28T21:19:26Z</time>
      </trkpt>
      <trkpt lat="44.39021" lon="4.23593">
        <ele>118.508</ele>
        <time>2015-07-28T21:19:46Z</time>
      </trkpt>
      <trkpt lat="44.38968" lon="4.23628">
        <ele>119.408</ele>
        <time>2015-07-28T21:20:06Z</time>
      </trkpt>
      <trkpt lat="44.38899" lon="4.23725">
        <ele>116.248</ele>
        <time>2015-07-28T21:20:26Z</time>
      </trkpt>
      <trkpt lat="44.38847" lon="4.23763">
        <ele>114.032</ele>
        <time>2015-07-28T21:20:46Z</time>
      </trkpt>
      <trkpt lat="44.38823" lon="4.23797">
        <ele>114.429</ele>
        <time>2015-07-28T21:21:06Z</time>
      </trkpt>
      <trkpt lat="44.388" lon="4.23846">
        <ele>114.497</ele>
        <time>2015-07-28T21:21:26Z</time>
      </trkpt>
      <trkpt lat="44.38777" lon="4.23877">
        <ele>113.459</ele>
        <time>2015-07-28T21:21:46Z</time>
      </trkpt>
      <trkpt lat="44.3876" lon="4.23942">
        <ele>113.624</ele>
        <time>2015-07-28T21:22:06Z</time>
      </trkpt>
      <trkpt lat="44.38712" lon="4.23917">
        <ele>114.437</ele>
        <time>2015-07-28T21:22:26Z</time>
      </trkpt>
      <trkpt lat="44.38609" lon="4.24048">
        <ele>113.062</ele>
        <time>2015-07-28T21:22:46Z</time>
      </trkpt>
      <trkpt lat="44.38711" lon="4.24211">
        <ele>113.631</ele>
        <time>2015-07-28T21:23:06Z</time>
      </trkpt>
      <trkpt lat="44.38781" lon="4.24314">
        <ele>111.061</ele>
        <time>2015-07-28T21:23:26Z</time>
      </trkpt>
      <trkpt lat="44.38835" lon="4.24448">
        <ele>113.007</ele>
        <time>2015-07-28T21:23:46Z</time>
      </trkpt>
      <trkpt lat="44.38864" lon="4.24583">
        <ele>111.108</ele>
        <time>2015-07-28T21:24:06Z</time>
      </trkpt>
      <trkpt lat="44.38885" lon="4.24715">
        <ele>112.199</ele>
        <time>2015-07-28T21:24:26Z</time>
      </trkpt>
      <trkpt lat="44.38886" lon="4.24779">
        <ele>111.293</ele>
        <time>2015-07-28T21:24:46Z</time>
      </trkpt>
      <trkpt lat="44.3892" lon="4.25064">
        <ele>113.53</ele>
        <time>2015-07-28T21:25:06Z</time>
      </trkpt>
      <trkpt lat="44.38955" lon="4.25274">
        <ele>111.198</ele>
        <time>2015-07-28T21:25:26Z</time>
      </trkpt>
      <trkpt lat="44.38973" lon="4.25486">
        <ele>111.05</ele>
        <time>2015-07-28T21:25:46Z</time>
      </trkpt>
      <trkpt lat="44.38962" lon="4.2556">
        <ele>113.455</ele>
        <time>2015-07-28T21:26:06Z</time>
      </trkpt>
      <trkpt lat="44.38968" lon="4.25587">
        <ele>114.328</ele>
        <time>2015-07-28T21:26:26Z</time>
      </trkpt>
      <trkpt lat="44.38941" lon="4.25605">
        <ele>117.183</ele>
        <time>2015-07-28T21:26:46Z</time>
      </trkpt>
      <trkpt lat="44.38931" lon="4.25629">
        <ele>117.326</ele>
        <time>2015-07-28T21:27:06Z</time>
      </trkpt>
      <trkpt lat="44.38961" lon="4.2569">
        <ele>114.647</ele>
        <time>2015-07-28T21:27:26Z</time>
      </trkpt>
      <trkpt lat="44.38973" lon="4.25748">
        <ele>115.011</ele>
        <time>2015-07-28T21:27:46Z</time>
      </trkpt>
      <trkpt lat="44.38977" lon="4.25853">
        <ele>115.008</ele>
        <time>2015-07-28T21:28:06Z</time>
      </trkpt>
      <trkpt lat="44.38963" lon="4.25964">
        <ele>118.278</ele>
        <time>2015-07-28T21:28:26Z</time>
      </trkpt>
      <trkpt lat="44.38965" lon="4.26094">
        <ele>125.892</ele>
        <time>2015-07-28T21:28:46Z</time>
      </trkpt>
      <trkpt lat="44.38937" lon="4.26212">
        <ele>135.059</ele>
        <time>2015-07-28T21:29:06Z</time>
      </trkpt>
      <trkpt lat="44.38965" lon="4.26207">
        <ele>138.787</ele>
        <time>2015-07-28T21:29:26Z</time>
      </trkpt>
      <trkpt lat="44.38969" lon="4.26231">
        <ele>140.869</ele>
        <time>2015-07-28T21:29:46Z</time>
      </trkpt>
      <trkpt lat="44.38981" lon="4.26245">
        <ele>142.234</ele>
        <time>2015-07-28T21:30:06Z</time>
      </trkpt>
      <trkpt lat="44.38987" lon="4.26282">
        <ele>142.537</ele>
        <time>2015-07-28T21:30:26Z</time>
      </trkpt>
      <trkpt lat="44.39005" lon="4.26287">
        <ele>142.882</ele>
        <time>2015-07-28T21:30:46Z</time>
      </trkpt>
      <trkpt lat="44.39019" lon="4.26308">
        <ele>142.311</ele>
        <time>2015-07-28T21:31:06Z</time>
      </trkpt>
      <trkpt lat="44.39021" lon="4.26388">
        <ele>142.021</ele>
        <time>2015-07-28T21:31:26Z</time>
      </trkpt>
      <trkpt lat="44.39001" lon="4.26466">
        <ele>139.003</ele>
        <time>2015-07-28T21:31:46Z</time>
      </trkpt>
      <trkpt lat="44.38927" lon="4.26695">
        <ele>138.008</ele>
        <time>2015-07-28T21:32:06Z</time>
      </trkpt>
      <trkpt lat="44.38906" lon="4.26698">
        <ele>137.627</ele>
        <time>2015-07-28T21:32:26Z</time>
      </trkpt>
      <trkpt lat="44.38889" lon="4.26737">
        <ele>136.561</ele>
        <time>2015-07-28T21:32:46Z</time>
      </trkpt>
      <trkpt lat="44.38824" lon="4.27028">
        <ele>142.028</ele>
        <time>2015-07-28T21:33:06Z</time>
      </trkpt>
      <trkpt lat="44.38749" lon="4.27093">
        <ele>145.446</ele>
        <time>2015-07-28T21:33:26Z</time>
      </trkpt>
      <trkpt lat="44.38722" lon="4.27154">
        <ele>148.538</ele>
        <time>2015-07-28T21:33:46Z</time>
      </trkpt>
      <trkpt lat="44.38704" lon="4.27274">
        <ele>149.563</ele>
        <time>2015-07-28T21:34:06Z</time>
      </trkpt>
      <trkpt lat="44.38687" lon="4.27348">
        <ele>154.596</ele>
        <time>2015-07-28T21:34:26Z</time>
      </trkpt>
      <trkpt lat="44.38638" lon="4.27416">
        <ele>153.941</ele>
        <time>2015-07-28T21:34:46Z</time>
      </trkpt>
      <trkpt lat="44.38589" lon="4.27497">
        <ele>156.156</ele>
        <time>2015-07-28T21:35:06Z</time>
      </trkpt>
      <trkpt lat="44.38594" lon="4.27535">
        <ele>158.459</ele>
        <time>2015-07-28T21:35:26Z</time>
      </trkpt>
      <trkpt lat="44.38567" lon="4.27604">
        <ele>162.014</ele>
        <time>2015-07-28T21:35:46Z</time>
      </trkpt>
      <trkpt lat="44.38516" lon="4.27672">
        <ele>162.208</ele>
        <time>2015-07-28T21:36:06Z</time>
      </trkpt>
      <trkpt lat="44.38474" lon="4.27716">
        <ele>166.611</ele>
        <time>2015-07-28T21:36:26Z</time>
      </trkpt>
      <trkpt lat="44.38439" lon="4.27773">
        <ele>169.485</ele>
        <time>2015-07-28T21:36:46Z</time>
      </trkpt>
      <trkpt lat="44.38416" lon="4.27854">
        <ele>171.032</ele>
        <time>2015-07-28T21:37:06Z</time>
      </trkpt>
      <trkpt lat="44.38391" lon="4.27901">
        <ele>175.37</ele>
        <time>2015-07-28T21:37:26Z</time>
      </trkpt>
      <trkpt lat="44.38379" lon="4.27942">
        <ele>178.522</ele>
        <time>2015-07-28T21:37:46Z</time>
      </trkpt>
      <trkpt lat="44.38434" lon="4.28009">
        <ele>175.497</ele>
        <time>2015-07-28T21:38:06Z</time>
      </trkpt>
      <trkpt lat="44.38527" lon="4.28053">
        <ele>173.46</ele>
        <time>2015-07-28T21:38:26Z</time>
      </trkpt>
      <trkpt lat="44.38573" lon="4.28091">
        <ele>165.735</ele>
        <time>2015-07-28T21:38:46Z</time>
      </trkpt>
      <trkpt lat="44.38682" lon="4.28123">
        <ele>152.334</ele>
        <time>2015-07-28T21:39:06Z</time>
      </trkpt>
      <trkpt lat="44.38709" lon="4.281">
        <ele>149.155</ele>
        <time>2015-07-28T21:39:26Z</time>
      </trkpt>
      <trkpt lat="44.38739" lon="4.28056">
        <ele>144.91</ele>
        <time>2015-07-28T21:39:46Z</time>
      </trkpt>
      <trkpt lat="44.38778" lon="4.28075">
        <ele>141.708</ele>
        <time>2015-07-28T21:40:06Z</time>
      </trkpt>
      <trkpt lat="44.38788" lon="4.28114">
        <ele>142.419</ele>
        <time>2015-07-28T21:40:26Z</time>
      </trkpt>
      <trkpt lat="44.38803" lon="4.28132">
        <ele>143.083</ele>
        <time>2015-07-28T21:40:46Z</time>
      </trkpt>
      <trkpt lat="44.38841" lon="4.28146">
        <ele>145.79</ele>
        <time>2015-07-28T21:41:06Z</time>
      </trkpt>
      <trkpt lat="44.38878" lon="4.28145">
        <ele>147.758</ele>
        <time>2015-07-28T21:41:26Z</time>
      </trkpt>
      <trkpt lat="44.38904" lon="4.28166">
        <ele>150.13</ele>
        <time>2015-07-28T21:41:46Z</time>
      </trkpt>
      <trkpt lat="44.38886" lon="4.28178">
        <ele>149.295</ele>
        <time>2015-07-28T21:42:06Z</time>
      </trkpt>
      <trkpt lat="44.38845" lon="4.28269">
        <ele>147.128</ele>
        <time>2015-07-28T21:42:26Z</time>
      </trkpt>
      <trkpt lat="44.38841" lon="4.28311">
        <ele>146.893</ele>
        <time>2015-07-28T21:42:46Z</time>
      </trkpt>
      <trkpt lat="44.3881" lon="4.28369">
        <ele>153.686</ele>
        <time>2015-07-28T21:43:06Z</time>
      </trkpt>
      <trkpt lat="44.3875" lon="4.28422">
        <ele>157.46</ele>
        <time>2015-07-28T21:43:26Z</time>
      </trkpt>
      <trkpt lat="44.38709" lon="4.28482">
        <ele>161.526</ele>
        <time>2015-07-28T21:43:46Z</time>
      </trkpt>
      <trkpt lat="44.38671" lon="4.28511">
        <ele>158.608</ele>
        <time>2015-07-28T21:44:06Z</time>
      </trkpt>
      <trkpt lat="44.38644" lon="4.2854">
        <ele>156.944</ele>
        <time>2015-07-28T21:44:26Z</time>
      </trkpt>
      <trkpt lat="44.38653" lon="4.28565">
        <ele>160.378</ele>
        <time>2015-07-28T21:44:46Z</time>
      </trkpt>
      <trkpt lat="44.3868" lon="4.28546">
        <ele>164.185</ele>
        <time>2015-07-28T21:45:06Z</time>
      </trkpt>
      <trkpt lat="44.38703" lon="4.28543">
        <ele>169.443</ele>
        <time>2015-07-28T21:45:26Z</time>
      </trkpt>
      <trkpt lat="44.38735" lon="4.28531">
        <ele>175.635</ele>
        <time>2015-07-28T21:45:46Z</time>
      </trkpt>
      <trkpt lat="44.38763" lon="4.28534">
        <ele>179.63</ele>
        <time>2015-07-28T21:46:06Z</time>
      </trkpt>
      <trkpt lat="44.38784" lon="4.28544">
        <ele>181.743</ele>
        <time>2015-07-28T21:46:26Z</time>
      </trkpt>
      <trkpt lat="44.38831" lon="4.28641">
        <ele>192.838</ele>
        <time>2015-07-28T21:46:46Z</time>
      </trkpt>
      <trkpt lat="44.38842" lon="4.28656">
        <ele>192.556</ele>
        <time>2015-07-28T21:47:06Z</time>
      </trkpt>
      <trkpt lat="44.38877" lon="4.28749">
        <ele>196.359</ele>
        <time>2015-07-28T21:47:26Z</time>
      </trkpt>
      <trkpt lat="44.38867" lon="4.28795">
        <ele>196.814</ele>
        <time>2015-07-28T21:47:46Z</time>
      </trkpt>
      <trkpt lat="44.3885" lon="4.28824">
        <ele>196.808</ele>
        <time>2015-07-28T21:48:06Z</time>
      </trkpt>
      <trkpt lat="44.38818" lon="4.28853">
        <ele>200.611</ele>
        <time>2015-07-28T21:48:26Z</time>
      </trkpt>
      <trkpt lat="44.38781" lon="4.28854">
        <ele>205.625</ele>
        <time>2015-07-28T21:48:46Z</time>
      </trkpt>
      <trkpt lat="44.38716" lon="4.28831">
        <ele>211.292</ele>
        <time>2015-07-28T21:49:06Z</time>
      </trkpt>
      <trkpt lat="44.38651" lon="4.28854">
        <ele>219.97</ele>
        <time>2015-07-28T21:49:26Z</time>
      </trkpt>
      <trkpt lat="44.38652" lon="4.28864">
        <ele>223.612</ele>
        <time>2015-07-28T21:49:46Z</time>
      </trkpt>
      <trkpt lat="44.38691" lon="4.28873">
        <ele>224.947</ele>
        <time>2015-07-28T21:50:06Z</time>
      </trkpt>
      <trkpt lat="44.38714" lon="4.28909">
        <ele>229.41</ele>
        <time>2015-07-28T21:50:26Z</time>
      </trkpt>
      <trkpt lat="44.3871" lon="4.28944">
        <ele>236.165</ele>
        <time>2015-07-28T21:50:46Z</time>
      </trkpt>
      <trkpt lat="44.38693" lon="4.28991">
        <ele>246.779</ele>
        <time>2015-07-28T21:51:06Z</time>
      </trkpt>
      <trkpt lat="44.38664" lon="4.2903">
        <ele>254.105</ele>
        <time>2015-07-28T21:51:26Z</time>
      </trkpt>
      <trkpt lat="44.386" lon="4.29085">
        <ele>263.625</ele>
        <time>2015-07-28T21:51:46Z</time>
      </trkpt>
      <trkpt lat="44.38541" lon="4.29106">
        <ele>274.808</ele>
        <time>2015-07-28T21:52:06Z</time>
      </trkpt>
      <trkpt lat="44.38523" lon="4.29136">
        <ele>280.323</ele>
        <time>2015-07-28T21:52:26Z</time>
      </trkpt>
      <trkpt lat="44.38527" lon="4.29189">
        <ele>284.937</ele>
        <time>2015-07-28T21:52:46Z</time>
      </trkpt>
      <trkpt lat="44.38514" lon="4.2926">
        <ele>288.734</ele>
        <time>2015-07-28T21:53:06Z</time>
      </trkpt>
      <trkpt lat="44.38446" lon="4.29413">
        <ele>308.652</ele>
        <time>2015-07-28T21:53:26Z</time>
      </trkpt>
      <trkpt lat="44.38348" lon="4.29508">
        <ele>311.144</ele>
        <time>2015-07-28T21:53:46Z</time>
      </trkpt>
      <trkpt lat="44.38271" lon="4.29559">
        <ele>315.719</ele>
        <time>2015-07-28T21:54:06Z</time>
      </trkpt>
      <trkpt lat="44.38234" lon="4.29675">
        <ele>317.212</ele>
        <time>2015-07-28T21:54:26Z</time>
      </trkpt>
      <trkpt lat="44.3823" lon="4.29744">
        <ele>320.057</ele>
        <time>2015-07-28T21:54:46Z</time>
      </trkpt>
      <trkpt lat="44.38258" lon="4.29797">
        <ele>323.454</ele>
        <time>2015-07-28T21:55:06Z</time>
      </trkpt>
      <trkpt lat="44.38298" lon="4.2981">
        <ele>322.756</ele>
        <time>2015-07-28T21:55:26Z</time>
      </trkpt>
      <trkpt lat="44.38365" lon="4.29922">
        <ele>325.811</ele>
        <time>2015-07-28T21:55:46Z</time>
      </trkpt>
      <trkpt lat="44.38385" lon="4.29977">
        <ele>326.108</ele>
        <time>2015-07-28T21:56:06Z</time>
      </trkpt>
      <trkpt lat="44.38442" lon="4.30101">
        <ele>329.471</ele>
        <time>2015-07-28T21:56:26Z</time>
      </trkpt>
      <trkpt lat="44.38479" lon="4.30162">
        <ele>328.615</ele>
        <time>2015-07-28T21:56:46Z</time>
      </trkpt>
      <trkpt lat="44.38539" lon="4.30321">
        <ele>334.812</ele>
        <time>2015-07-28T21:57:06Z</time>
      </trkpt>
      <trkpt lat="44.38543" lon="4.30396">
        <ele>338.02</ele>
        <time>2015-07-28T21:57:26Z</time>
      </trkpt>
      <trkpt lat="44.38538" lon="4.30444">
        <ele>337.422</ele>
        <time>2015-07-28T21:57:46Z</time>
      </trkpt>
      <trkpt lat="44.3855" lon="4.3055">
        <ele>337.917</ele>
        <time>2015-07-28T21:58:06Z</time>
      </trkpt>
      <trkpt lat="44.3856" lon="4.30591">
        <ele>341.19</ele>
        <time>2015-07-28T21:58:26Z</time>
      </trkpt>
      <trkpt lat="44.38576" lon="4.30689">
        <ele>345.235</ele>
        <time>2015-07-28T21:58:46Z</time>
      </trkpt>
      <trkpt lat="44.38568" lon="4.30725">
        <ele>348.482</ele>
        <time>2015-07-28T21:59:06Z</time>
      </trkpt>
      <trkpt lat="44.38575" lon="4.30766">
        <ele>349.843</ele>
        <time>2015-07-28T21:59:26Z</time>
      </trkpt>
      <trkpt lat="44.38606" lon="4.30868">
        <ele>353.017</ele>
        <time>2015-07-28T21:59:46Z</time>
      </trkpt>
      <trkpt lat="44.3859" lon="4.3094">
        <ele>362.308</ele>
        <time>2015-07-28T22:00:06Z</time>
      </trkpt>
      <trkpt lat="44.38642" lon="4.30954">
        <ele>360.914</ele>
        <time>2015-07-28T22:00:26Z</time>
      </trkpt>
      <trkpt lat="44.38675" lon="4.31001">
        <ele>361.988</ele>
        <time>2015-07-28T22:00:46Z</time>
      </trkpt>
      <trkpt lat="44.38665" lon="4.31049">
        <ele>364.975</ele>
        <time>2015-07-28T22:01:06Z</time>
      </trkpt>
      <trkpt lat="44.38709" lon="4.31098">
        <ele>362.313</ele>
        <time>2015-07-28T22:01:26Z</time>
      </trkpt>
      <trkpt lat="44.3874" lon="4.31163">
        <ele>364.485</ele>
        <time>2015-07-28T22:01:46Z</time>
      </trkpt>
      <trkpt lat="44.38844" lon="4.31289">
        <ele>365.46</ele>
        <time>2015-07-28T22:02:06Z</time>
      </trkpt>
      <trkpt lat="44.38849" lon="4.31238">
        <ele>359.893</ele>
        <time>2015-07-28T22:02:26Z</time>
      </trkpt>
      <trkpt lat="44.38873" lon="4.31202">
        <ele>357.618</ele>
        <time>2015-07-28T22:02:46Z</time>
      </trkpt>
      <trkpt lat="44.3894" lon="4.3122">
        <ele>359.097</ele>
        <time>2015-07-28T22:03:06Z</time>
      </trkpt>
      <trkpt lat="44.39035" lon="4.31274">
        <ele>358.123</ele>
        <time>2015-07-28T22:03:26Z</time>
      </trkpt>
      <trkpt lat="44.39075" lon="4.31278">
        <ele>357.025</ele>
        <time>2015-07-28T22:03:46Z</time>
      </trkpt>
      <trkpt lat="44.39122" lon="4.31301">
        <ele>358.608</ele>
        <time>2015-07-28T22:04:06Z</time>
      </trkpt>
      <trkpt lat="44.39185" lon="4.31295">
        <ele>358.115</ele>
        <time>2015-07-28T22:04:26Z</time>
      </trkpt>
      <trkpt lat="44.39225" lon="4.313">
        <ele>356.339</ele>
        <time>2015-07-28T22:04:46Z</time>
      </trkpt>
      <trkpt lat="44.39277" lon="4.31287">
        <ele>354.796</ele>
        <time>2015-07-28T22:05:06Z</time>
      </trkpt>
      <trkpt lat="44.39325" lon="4.31284">
        <ele>354.814</ele>
        <time>2015-07-28T22:05:26Z</time>
      </trkpt>
      <trkpt lat="44.39424" lon="4.31323">
        <ele>348.316</ele>
        <time>2015-07-28T22:05:46Z</time>
      </trkpt>
      <trkpt lat="44.39466" lon="4.31334">
        <ele>347.251</ele>
        <time>2015-07-28T22:06:06Z</time>
      </trkpt>
      <trkpt lat="44.39492" lon="4.31353">
        <ele>347.064</ele>
        <time>2015-07-28T22:06:26Z</time>
      </trkpt>
      <trkpt lat="44.3956" lon="4.31348">
        <ele>344.369</ele>
        <time>2015-07-28T22:06:46Z</time>
      </trkpt>
      <trkpt lat="44.39617" lon="4.31344">
        <ele>341.286</ele>
        <time>2015-07-28T22:07:06Z</time>
      </trkpt>
      <trkpt lat="44.39657" lon="4.31348">
        <ele>340.26</ele>
        <time>2015-07-28T22:07:26Z</time>
      </trkpt>
      <trkpt lat="44.3965" lon="4.31423">
        <ele>338.226</ele>
        <time>2015-07-28T22:07:46Z</time>
      </trkpt>
      <trkpt lat="44.39663" lon="4.31449">
        <ele>336.008</ele>
        <time>2015-07-28T22:08:06Z</time>
      </trkpt>
      <trkpt lat="44.39673" lon="4.315">
        <ele>334.064</ele>
        <time>2015-07-28T22:08:26Z</time>
      </trkpt>
      <trkpt lat="44.39685" lon="4.31529">
        <ele>334.088</ele>
        <time>2015-07-28T22:08:46Z</time>
      </trkpt>
      <trkpt lat="44.39695" lon="4.31595">
        <ele>333.535</ele>
        <time>2015-07-28T22:09:06Z</time>
      </trkpt>
      <trkpt lat="44.39709" lon="4.31618">
        <ele>332.253</ele>
        <time>2015-07-28T22:09:26Z</time>
      </trkpt>
      <trkpt lat="44.39752" lon="4.3164">
        <ele>328.915</ele>
        <time>2015-07-28T22:09:46Z</time>
      </trkpt>
      <trkpt lat="44.39769" lon="4.31656">
        <ele>327.37</ele>
        <time>2015-07-28T22:10:06Z</time>
      </trkpt>
      <trkpt lat="44.39796" lon="4.31669">
        <ele>325.323</ele>
        <time>2015-07-28T22:10:26Z</time>
      </trkpt>
      <trkpt lat="44.39824" lon="4.31673">
        <ele>325.468</ele>
        <time>2015-07-28T22:10:46Z</time>
      </trkpt>
      <trkpt lat="44.39876" lon="4.31753">
        <ele>324.964</ele>
        <time>2015-07-28T22:11:06Z</time>
      </trkpt>
      <trkpt lat="44.3989" lon="4.318">
        <ele>321.506</ele>
        <time>2015-07-28T22:11:26Z</time>
      </trkpt>
      <trkpt lat="44.39913" lon="4.31856">
        <ele>321.216</ele>
        <time>2015-07-28T22:11:46Z</time>
      </trkpt>
      <trkpt lat="44.399" lon="4.31932">
        <ele>320.908</ele>
        <time>2015-07-28T22:12:06Z</time>
      </trkpt>
      <trkpt lat="44.39946" lon="4.31993">
        <ele>318.322</ele>
        <time>2015-07-28T22:12:26Z</time>
      </trkpt>
      <trkpt lat="44.39956" lon="4.32037">
        <ele>316.956</ele>
        <time>2015-07-28T22:12:46Z</time>
      </trkpt>
      <trkpt lat="44.39936" lon="4.32119">
        <ele>314.923</ele>
        <time>2015-07-28T22:13:06Z</time>
      </trkpt>
      <trkpt lat="44.39951" lon="4.32146">
        <ele>314.051</ele>
        <time>2015-07-28T22:13:26Z</time>
      </trkpt>
      <trkpt lat="44.39992" lon="4.32158">
        <ele>314.613</ele>
        <time>2015-07-28T22:13:46Z</time>
      </trkpt>
      <trkpt lat="44.40024" lon="4.32192">
        <ele>314.218</ele>
        <time>2015-07-28T22:14:06Z</time>
      </trkpt>
      <trkpt lat="44.40039" lon="4.3225">
        <ele>311.861</ele>
        <time>2015-07-28T22:14:26Z</time>
      </trkpt>
      <trkpt lat="44.40066" lon="4.32271">
        <ele>308.936</ele>
        <time>2015-07-28T22:14:46Z</time>
      </trkpt>
      <trkpt lat="44.40127" lon="4.32275">
        <ele>306.194</ele>
        <time>2015-07-28T22:15:06Z</time>
      </trkpt>
      <trkpt lat="44.40136" lon="4.32301">
        <ele>306.857</ele>
        <time>2015-07-28T22:15:26Z</time>
      </trkpt>
      <trkpt lat="44.40164" lon="4.32335">
        <ele>310.222</ele>
        <time>2015-07-28T22:15:46Z</time>
      </trkpt>
      <trkpt lat="44.40173" lon="4.32368">
        <ele>315.708</ele>
        <time>2015-07-28T22:16:06Z</time>
      </trkpt>
      <trkpt lat="44.40158" lon="4.32432">
        <ele>321.395</ele>
        <time>2015-07-28T22:16:26Z</time>
      </trkpt>
      <trkpt lat="44.40168" lon="4.32494">
        <ele>323.889</ele>
        <time>2015-07-28T22:16:46Z</time>
      </trkpt>
      <trkpt lat="44.40204" lon="4.32625">
        <ele>327.086</ele>
        <time>2015-07-28T22:17:06Z</time>
      </trkpt>
      <trkpt lat="44.40192" lon="4.32641">
        <ele>328.054</ele>
        <time>2015-07-28T22:17:26Z</time>
      </trkpt>
      <trkpt lat="44.40175" lon="4.32713">
        <ele>330.296</ele>
        <time>2015-07-28T22:17:46Z</time>
      </trkpt>
      <trkpt lat="44.4009" lon="4.32868">
        <ele>341.111</ele>
        <time>2015-07-28T22:18:06Z</time>
      </trkpt>
      <trkpt lat="44.40051" lon="4.32953">
        <ele>346.384</ele>
        <time>2015-07-28T22:18:26Z</time>
      </trkpt>
      <trkpt lat="44.40016" lon="4.33016">
        <ele>353.159</ele>
        <time>2015-07-28T22:18:46Z</time>
      </trkpt>
      <trkpt lat="44.40015" lon="4.33051">
        <ele>349.943</ele>
        <time>2015-07-28T22:19:06Z</time>
      </trkpt>
      <trkpt lat="44.39964" lon="4.33098">
        <ele>347.864</ele>
        <time>2015-07-28T22:19:26Z</time>
      </trkpt>
      <trkpt lat="44.39923" lon="4.33111">
        <ele>347.71</ele>
        <time>2015-07-28T22:19:46Z</time>
      </trkpt>
      <trkpt lat="44.39828" lon="4.33088">
        <ele>347.908</ele>
        <time>2015-07-28T22:20:06Z</time>
      </trkpt>
      <trkpt lat="44.3974" lon="4.33087">
        <ele>353.64</ele>
        <time>2015-07-28T22:20:26Z</time>
      </trkpt>
      <trkpt lat="44.39681" lon="4.33117">
        <ele>353.224</ele>
        <time>2015-07-28T22:20:46Z</time>
      </trkpt>
      <trkpt lat="44.39638" lon="4.33154">
        <ele>347.721</ele>
        <time>2015-07-28T22:21:06Z</time>
      </trkpt>
      <trkpt lat="44.39609" lon="4.33158">
        <ele>345.719</ele>
        <time>2015-07-28T22:21:26Z</time>
      </trkpt>
      <trkpt lat="44.39582" lon="4.33149">
        <ele>348.641</ele>
        <time>2015-07-28T22:21:46Z</time>
      </trkpt>
      <trkpt lat="44.39582" lon="4.33166">
        <ele>347.446</ele>
        <time>2015-07-28T22:22:06Z</time>
      </trkpt>
      <trkpt lat="44.39648" lon="4.33206">
        <ele>347.039</ele>
        <time>2015-07-28T22:22:26Z</time>
      </trkpt>
      <trkpt lat="44.39739" lon="4.33178">
        <ele>341.314</ele>
        <time>2015-07-28T22:22:46Z</time>
      </trkpt>
      <trkpt lat="44.39776" lon="4.33197">
        <ele>338.568</ele>
        <time>2015-07-28T22:23:06Z</time>
      </trkpt>
      <trkpt lat="44.39861" lon="4.33267">
        <ele>335.042</ele>
        <time>2015-07-28T22:23:26Z</time>
      </trkpt>
      <trkpt lat="44.39909" lon="4.33288">
        <ele>329.826</ele>
        <time>2015-07-28T22:23:46Z</time>
      </trkpt>
      <trkpt lat="44.39938" lon="4.33338">
        <ele>331.808</ele>
        <time>2015-07-28T22:24:06Z</time>
      </trkpt>
      <trkpt lat="44.39936" lon="4.33377">
        <ele>337.042</ele>
        <time>2015-07-28T22:24:26Z</time>
      </trkpt>
      <trkpt lat="44.39949" lon="4.33385">
        <ele>337.176</ele>
        <time>2015-07-28T22:24:46Z</time>
      </trkpt>
      <trkpt lat="44.39982" lon="4.3335">
        <ele>334.553</ele>
        <time>2015-07-28T22:25:06Z</time>
      </trkpt>
      <trkpt lat="44.40017" lon="4.33301">
        <ele>328.391</ele>
        <time>2015-07-28T22:25:26Z</time>
      </trkpt>
      <trkpt lat="44.40044" lon="4.33297">
        <ele>328.563</ele>
        <time>2015-07-28T22:25:46Z</time>
      </trkpt>
      <trkpt lat="44.4008" lon="4.33327">
        <ele>336.048</ele>
        <time>2015-07-28T22:26:06Z</time>
      </trkpt>
      <trkpt lat="44.40092" lon="4.33275">
        <ele>329.831</ele>
        <time>2015-07-28T22:26:26Z</time>
      </trkpt>
      <trkpt lat="44.40119" lon="4.33253">
        <ele>331.616</ele>
        <time>2015-07-28T22:26:46Z</time>
      </trkpt>
      <trkpt lat="44.4017" lon="4.33238">
        <ele>335.429</ele>
        <time>2015-07-28T22:27:06Z</time>
      </trkpt>
      <trkpt lat="44.40217" lon="4.33219">
        <ele>337</ele>
        <time>2015-07-28T22:27:26Z</time>
      </trkpt>
      <trkpt lat="44.40236" lon="4.3323">
        <ele>337.22</ele>
        <time>2015-07-28T22:27:46Z</time>
      </trkpt>
      <trkpt lat="44.40231" lon="4.33315">
        <ele>341.708</ele>
        <time>2015-07-28T22:28:06Z</time>
      </trkpt>
      <trkpt lat="44.40255" lon="4.33375">
        <ele>332.648</ele>
        <time>2015-07-28T22:28:26Z</time>
      </trkpt>
      <trkpt lat="44.40224" lon="4.3343">
        <ele>336.322</ele>
        <time>2015-07-28T22:28:46Z</time>
      </trkpt>
      <trkpt lat="44.40215" lon="4.33485">
        <ele>335.499</ele>
        <time>2015-07-28T22:29:06Z</time>
      </trkpt>
      <trkpt lat="44.40244" lon="4.33545">
        <ele>323.377</ele>
        <time>2015-07-28T22:29:26Z</time>
      </trkpt>
      <trkpt lat="44.40228" lon="4.33604">
        <ele>331.839</ele>
        <time>2015-07-28T22:29:46Z</time>
      </trkpt>
      <trkpt lat="44.40232" lon="4.33626">
        <ele>331.654</ele>
        <time>2015-07-28T22:30:06Z</time>
      </trkpt>
      <trkpt lat="44.40291" lon="4.33656">
        <ele>316.297</ele>
        <time>2015-07-28T22:30:26Z</time>
      </trkpt>
      <trkpt lat="44.40303" lon="4.33682">
        <ele>319.272</ele>
        <time>2015-07-28T22:30:46Z</time>
      </trkpt>
      <trkpt lat="44.40306" lon="4.33716">
        <ele>324.733</ele>
        <time>2015-07-28T22:31:06Z</time>
      </trkpt>
      <trkpt lat="44.40387" lon="4.33726">
        <ele>317.523</ele>
        <time>2015-07-28T22:31:26Z</time>
      </trkpt>
      <trkpt lat="44.40404" lon="4.33812">
        <ele>323.215</ele>
        <time>2015-07-28T22:31:46Z</time>
      </trkpt>
      <trkpt lat="44.404" lon="4.33928">
        <ele>328.608</ele>
        <time>2015-07-28T22:32:06Z</time>
      </trkpt>
      <trkpt lat="44.40432" lon="4.33929">
        <ele>321.959</ele>
        <time>2015-07-28T22:32:26Z</time>
      </trkpt>
      <trkpt lat="44.40483" lon="4.33945">
        <ele>321.723</ele>
        <time>2015-07-28T22:32:46Z</time>
      </trkpt>
      <trkpt lat="44.40558" lon="4.33941">
        <ele>321.12</ele>
        <time>2015-07-28T22:33:06Z</time>
      </trkpt>
      <trkpt lat="44.40532" lon="4.34038">
        <ele>324.568</ele>
        <time>2015-07-28T22:33:26Z</time>
      </trkpt>
      <trkpt lat="44.40542" lon="4.34071">
        <ele>325.04</ele>
        <time>2015-07-28T22:33:46Z</time>
      </trkpt>
      <trkpt lat="44.40577" lon="4.34096">
        <ele>318.025</ele>
        <time>2015-07-28T22:34:06Z</time>
      </trkpt>
      <trkpt lat="44.40633" lon="4.34112">
        <ele>305.698</ele>
        <time>2015-07-28T22:34:26Z</time>
      </trkpt>
      <trkpt lat="44.40694" lon="4.34103">
        <ele>293.443</ele>
        <time>2015-07-28T22:34:46Z</time>
      </trkpt>
      <trkpt lat="44.40731" lon="4.34101">
        <ele>291.183</ele>
        <time>2015-07-28T22:35:06Z</time>
      </trkpt>
      <trkpt lat="44.40751" lon="4.34108">
        <ele>290.825</ele>
        <time>2015-07-28T22:35:26Z</time>
      </trkpt>
      <trkpt lat="44.40695" lon="4.34126">
        <ele>290.117</ele>
        <time>2015-07-28T22:35:46Z</time>
      </trkpt>
      <trkpt lat="44.40628" lon="4.34195">
        <ele>289.108</ele>
        <time>2015-07-28T22:36:06Z</time>
      </trkpt>
      <trkpt lat="44.40545" lon="4.34205">
        <ele>303.084</ele>
        <time>2015-07-28T22:36:26Z</time>
      </trkpt>
      <trkpt lat="44.40502" lon="4.34271">
        <ele>304.078</ele>
        <time>2015-07-28T22:36:46Z</time>
      </trkpt>
      <trkpt lat="44.40491" lon="4.34309">
        <ele>302.795</ele>
        <time>2015-07-28T22:37:06Z</time>
      </trkpt>
      <trkpt lat="44.40479" lon="4.34386">
        <ele>300.173</ele>
        <time>2015-07-28T22:37:26Z</time>
      </trkpt>
      <trkpt lat="44.40468" lon="4.34396">
        <ele>300.395</ele>
        <time>2015-07-28T22:37:46Z</time>
      </trkpt>
      <trkpt lat="44.40429" lon="4.3434">
        <ele>299.26</ele>
        <time>2015-07-28T22:38:06Z</time>
      </trkpt>
      <trkpt lat="44.40376" lon="4.34287">
        <ele>298.073</ele>
        <time>2015-07-28T22:38:26Z</time>
      </trkpt>
      <trkpt lat="44.4037" lon="4.34266">
        <ele>303.128</ele>
        <time>2015-07-28T22:38:46Z</time>
      </trkpt>
      <trkpt lat="44.40358" lon="4.34253">
        <ele>306.125</ele>
        <time>2015-07-28T22:39:06Z</time>
      </trkpt>
      <trkpt lat="44.40345" lon="4.34264">
        <ele>303.626</ele>
        <time>2015-07-28T22:39:26Z</time>
      </trkpt>
      <trkpt lat="44.40341" lon="4.34299">
        <ele>291.808</ele>
        <time>2015-07-28T22:39:46Z</time>
      </trkpt>
      <trkpt lat="44.40276" lon="4.34414">
        <ele>280.208</ele>
        <time>2015-07-28T22:40:06Z</time>
      </trkpt>
      <trkpt lat="44.40237" lon="4.34521">
        <ele>268.388</ele>
        <time>2015-07-28T22:40:26Z</time>
      </trkpt>
      <trkpt lat="44.40209" lon="4.3468">
        <ele>243.182</ele>
        <time>2015-07-28T22:40:46Z</time>
      </trkpt>
      <trkpt lat="44.40189" lon="4.34707">
        <ele>245.599</ele>
        <time>2015-07-28T22:41:06Z</time>
      </trkpt>
      <trkpt lat="44.4018" lon="4.34739">
        <ele>243.297</ele>
        <time>2015-07-28T22:41:26Z</time>
      </trkpt>
      <trkpt lat="44.40145" lon="4.34795">
        <ele>238.099</ele>
        <time>2015-07-28T22:41:46Z</time>
      </trkpt>
      <trkpt lat="44.40022" lon="4.34853">
        <ele>219.824</ele>
        <time>2015-07-28T22:42:06Z</time>
      </trkpt>
      <trkpt lat="44.39998" lon="4.34849">
        <ele>218.877</ele>
        <time>2015-07-28T22:42:26Z</time>
      </trkpt>
      <trkpt lat="44.39982" lon="4.34838">
        <ele>219.312</ele>
        <time>2015-07-28T22:42:46Z</time>
      </trkpt>
      <trkpt lat="44.39959" lon="4.34842">
        <ele>215.138</ele>
        <time>2015-07-28T22:43:06Z</time>
      </trkpt>
      <trkpt lat="44.39907" lon="4.34823">
        <ele>208.67</ele>
        <time>2015-07-28T22:43:26Z</time>
      </trkpt>
      <trkpt lat="44.39888" lon="4.34808">
        <ele>207.317</ele>
        <time>2015-07-28T22:43:46Z</time>
      </trkpt>
      <trkpt lat="44.39844" lon="4.34793">
        <ele>206.208</ele>
        <time>2015-07-28T22:44:06Z</time>
      </trkpt>
      <trkpt lat="44.39778" lon="4.34937">
        <ele>197.519</ele>
        <time>2015-07-28T22:44:26Z</time>
      </trkpt>
      <trkpt lat="44.39776" lon="4.34978">
        <ele>193.523</ele>
        <time>2015-07-28T22:44:46Z</time>
      </trkpt>
      <trkpt lat="44.39784" lon="4.35074">
        <ele>184.34</ele>
        <time>2015-07-28T22:45:06Z</time>
      </trkpt>
      <trkpt lat="44.39795" lon="4.35114">
        <ele>182.448</ele>
        <time>2015-07-28T22:45:26Z</time>
      </trkpt>
      <trkpt lat="44.39772" lon="4.35123">
        <ele>179.83</ele>
        <time>2015-07-28T22:45:46Z</time>
      </trkpt>
      <trkpt lat="44.39763" lon="4.35145">
        <ele>178.955</ele>
        <time>2015-07-28T22:46:06Z</time>
      </trkpt>
      <trkpt lat="44.39816" lon="4.35192">
        <ele>182.538</ele>
        <time>2015-07-28T22:46:26Z</time>
      </trkpt>
      <trkpt lat="44.39847" lon="4.35244">
        <ele>174.683</ele>
        <time>2015-07-28T22:46:46Z</time>
      </trkpt>
      <trkpt lat="44.39817" lon="4.35278">
        <ele>174.087</ele>
        <time>2015-07-28T22:47:06Z</time>
      </trkpt>
      <trkpt lat="44.39801" lon="4.35362">
        <ele>173.742</ele>
        <time>2015-07-28T22:47:26Z</time>
      </trkpt>
      <trkpt lat="44.39753" lon="4.35394">
        <ele>169.326</ele>
        <time>2015-07-28T22:47:46Z</time>
      </trkpt>
      <trkpt lat="44.39753" lon="4.35443">
        <ele>170.108</ele>
        <time>2015-07-28T22:48:06Z</time>
      </trkpt>
      <trkpt lat="44.39747" lon="4.35502">
        <ele>169.194</ele>
        <time>2015-07-28T22:48:26Z</time>
      </trkpt>
      <trkpt lat="44.39766" lon="4.35536">
        <ele>168.498</ele>
        <time>2015-07-28T22:48:46Z</time>
      </trkpt>
      <trkpt lat="44.39772" lon="4.35584">
        <ele>166.355</ele>
        <time>2015-07-28T22:49:06Z</time>
      </trkpt>
      <trkpt lat="44.39792" lon="4.35627">
        <ele>166.323</ele>
        <time>2015-07-28T22:49:26Z</time>
      </trkpt>
      <trkpt lat="44.39824" lon="4.35784">
        <ele>168.925</ele>
        <time>2015-07-28T22:49:46Z</time>
      </trkpt>
      <trkpt lat="44.39818" lon="4.35869">
        <ele>167.08</ele>
        <time>2015-07-28T22:50:06Z</time>
      </trkpt>
      <trkpt lat="44.39825" lon="4.35952">
        <ele>169.023</ele>
        <time>2015-07-28T22:50:26Z</time>
      </trkpt>
      <trkpt lat="44.3978" lon="4.36038">
        <ele>163.328</ele>
        <time>2015-07-28T22:50:46Z</time>
      </trkpt>
      <trkpt lat="44.39793" lon="4.36163">
        <ele>157.941</ele>
        <time>2015-07-28T22:51:06Z</time>
      </trkpt>
      <trkpt lat="44.3978" lon="4.36238">
        <ele>152.281</ele>
        <time>2015-07-28T22:51:26Z</time>
      </trkpt>
      <trkpt lat="44.39786" lon="4.36296">
        <ele>148.409</ele>
        <time>2015-07-28T22:51:46Z</time>
      </trkpt>
      <trkpt lat="44.39815" lon="4.36376">
        <ele>145.508</ele>
        <time>2015-07-28T22:52:06Z</time>
      </trkpt>
      <trkpt lat="44.39831" lon="4.3645">
        <ele>140.62</ele>
        <time>2015-07-28T22:52:26Z</time>
      </trkpt>
      <trkpt lat="44.39884" lon="4.36614">
        <ele>134.794</ele>
        <time>2015-07-28T22:52:46Z</time>
      </trkpt>
      <trkpt lat="44.39898" lon="4.36694">
        <ele>126.811</ele>
        <time>2015-07-28T22:53:06Z</time>
      </trkpt>
      <trkpt lat="44.39896" lon="4.36788">
        <ele>121.749</ele>
        <time>2015-07-28T22:53:26Z</time>
      </trkpt>
      <trkpt lat="44.39885" lon="4.36858">
        <ele>118.251</ele>
        <time>2015-07-28T22:53:46Z</time>
      </trkpt>
      <trkpt lat="44.39817" lon="4.36949">
        <ele>94.636</ele>
        <time>2015-07-28T22:54:06Z</time>
      </trkpt>
      <trkpt lat="44.39779" lon="4.36962">
        <ele>99.259</ele>
        <time>2015-07-28T22:54:26Z</time>
      </trkpt>
      <trkpt lat="44.39772" lon="4.36995">
        <ele>106.254</ele>
        <time>2015-07-28T22:54:46Z</time>
      </trkpt>
      <trkpt lat="44.39828" lon="4.37068">
        <ele>103.014</ele>
        <time>2015-07-28T22:55:06Z</time>
      </trkpt>
      <trkpt lat="44.39836" lon="4.37308">
        <ele>116.254</ele>
        <time>2015-07-28T22:55:26Z</time>
      </trkpt>
      <trkpt lat="44.3982" lon="4.37423">
        <ele>112.409</ele>
        <time>2015-07-28T22:55:46Z</time>
      </trkpt>
      <trkpt lat="44.39801" lon="4.37501">
        <ele>109.108</ele>
        <time>2015-07-28T22:56:06Z</time>
      </trkpt>
      <trkpt lat="44.39823" lon="4.37568">
        <ele>98.667</ele>
        <time>2015-07-28T22:56:26Z</time>
      </trkpt>
      <trkpt lat="44.39819" lon="4.37738">
        <ele>91.541</ele>
        <time>2015-07-28T22:56:46Z</time>
      </trkpt>
      <trkpt lat="44.39807" lon="4.37785">
        <ele>90.758</ele>
        <time>2015-07-28T22:57:06Z</time>
      </trkpt>
      <trkpt lat="44.39518" lon="4.37885">
        <ele>100.046</ele>
        <time>2015-07-28T22:57:26Z</time>
      </trkpt>
      <trkpt lat="44.40243" lon="4.39167">
        <ele>111.6</ele>
      </trkpt>
      <trkpt lat="44.40716" lon="4.39509">
        <ele>120.9</ele>
      </trkpt>
    </trkseg>
  </trk>
  <trk>
    <name><![CDATA[Labastide de Virac (Mas de serret)]]></name>
    <extensions>
      <line xmlns="http://www.topografix.com/GPX/gpx_style/0/2">
        <color>00ff40</color>
        <width>4</width>
      </line>
    </extensions>
    <trkseg>
      <trkpt lat="44.40718" lon="4.39498">
        <ele>121.4</ele>
      </trkpt>
      <trkpt lat="44.40244" lon="4.39157">
        <ele>112</ele>
      </trkpt>
      <trkpt lat="44.39518" lon="4.37885">
        <ele>100.046</ele>
        <time>2015-07-28T22:57:26Z</time>
      </trkpt>
      <trkpt lat="44.39482" lon="4.37862">
        <ele>99.438</ele>
        <time>2015-07-28T22:57:46Z</time>
      </trkpt>
      <trkpt lat="44.3936" lon="4.37892">
        <ele>99.233</ele>
        <time>2015-07-28T22:58:06Z</time>
      </trkpt>
      <trkpt lat="44.39369" lon="4.37912">
        <ele>100.196</ele>
        <time>2015-07-28T22:58:26Z</time>
      </trkpt>
      <trkpt lat="44.39383" lon="4.37925">
        <ele>100.171</ele>
        <time>2015-07-28T22:58:46Z</time>
      </trkpt>
      <trkpt lat="44.39324" lon="4.38068">
        <ele>106.853</ele>
        <time>2015-07-28T22:59:06Z</time>
      </trkpt>
      <trkpt lat="44.39289" lon="4.38057">
        <ele>110.304</ele>
        <time>2015-07-28T22:59:26Z</time>
      </trkpt>
      <trkpt lat="44.3928" lon="4.38019">
        <ele>109.714</ele>
        <time>2015-07-28T22:59:46Z</time>
      </trkpt>
      <trkpt lat="44.39239" lon="4.38008">
        <ele>116.808</ele>
        <time>2015-07-28T23:00:06Z</time>
      </trkpt>
      <trkpt lat="44.39219" lon="4.3798">
        <ele>120.691</ele>
        <time>2015-07-28T23:00:26Z</time>
      </trkpt>
      <trkpt lat="44.39189" lon="4.37965">
        <ele>126.195</ele>
        <time>2015-07-28T23:00:46Z</time>
      </trkpt>
      <trkpt lat="44.39186" lon="4.37949">
        <ele>127.322</ele>
        <time>2015-07-28T23:01:06Z</time>
      </trkpt>
      <trkpt lat="44.39113" lon="4.37911">
        <ele>134.32</ele>
        <time>2015-07-28T23:01:26Z</time>
      </trkpt>
      <trkpt lat="44.39116" lon="4.37984">
        <ele>139.462</ele>
        <time>2015-07-28T23:01:46Z</time>
      </trkpt>
      <trkpt lat="44.39137" lon="4.38029">
        <ele>135.577</ele>
        <time>2015-07-28T23:02:06Z</time>
      </trkpt>
      <trkpt lat="44.39128" lon="4.38051">
        <ele>138.58</ele>
        <time>2015-07-28T23:02:26Z</time>
      </trkpt>
      <trkpt lat="44.39139" lon="4.3814">
        <ele>143.075</ele>
        <time>2015-07-28T23:02:46Z</time>
      </trkpt>
      <trkpt lat="44.39064" lon="4.38169">
        <ele>158.853</ele>
        <time>2015-07-28T23:03:06Z</time>
      </trkpt>
      <trkpt lat="44.38999" lon="4.38127">
        <ele>164.104</ele>
        <time>2015-07-28T23:03:26Z</time>
      </trkpt>
      <trkpt lat="44.38947" lon="4.38102">
        <ele>168.714</ele>
        <time>2015-07-28T23:03:46Z</time>
      </trkpt>
      <trkpt lat="44.38891" lon="4.38114">
        <ele>168.008</ele>
        <time>2015-07-28T23:04:06Z</time>
      </trkpt>
      <trkpt lat="44.38866" lon="4.38097">
        <ele>166.851</ele>
        <time>2015-07-28T23:04:26Z</time>
      </trkpt>
      <trkpt lat="44.38762" lon="4.38071">
        <ele>163.595</ele>
        <time>2015-07-28T23:04:46Z</time>
      </trkpt>
      <trkpt lat="44.38668" lon="4.38019">
        <ele>164.722</ele>
        <time>2015-07-28T23:05:06Z</time>
      </trkpt>
      <trkpt lat="44.38587" lon="4.37937">
        <ele>168.67</ele>
        <time>2015-07-28T23:05:26Z</time>
      </trkpt>
      <trkpt lat="44.38531" lon="4.37845">
        <ele>167.642</ele>
        <time>2015-07-28T23:05:46Z</time>
      </trkpt>
      <trkpt lat="44.3851" lon="4.37797">
        <ele>167.617</ele>
        <time>2015-07-28T23:06:06Z</time>
      </trkpt>
      <trkpt lat="44.38326" lon="4.3765">
        <ele>158.26</ele>
        <time>2015-07-28T23:06:26Z</time>
      </trkpt>
      <trkpt lat="44.38316" lon="4.37613">
        <ele>155.775</ele>
        <time>2015-07-28T23:06:46Z</time>
      </trkpt>
      <trkpt lat="44.38277" lon="4.37529">
        <ele>159.068</ele>
        <time>2015-07-28T23:07:06Z</time>
      </trkpt>
      <trkpt lat="44.38253" lon="4.37528">
        <ele>159.942</ele>
        <time>2015-07-28T23:07:26Z</time>
      </trkpt>
      <trkpt lat="44.38172" lon="4.37459">
        <ele>163.626</ele>
        <time>2015-07-28T23:07:46Z</time>
      </trkpt>
      <trkpt lat="44.38136" lon="4.37513">
        <ele>162.308</ele>
        <time>2015-07-28T23:08:06Z</time>
      </trkpt>
      <trkpt lat="44.38072" lon="4.37482">
        <ele>159.582</ele>
        <time>2015-07-28T23:08:26Z</time>
      </trkpt>
      <trkpt lat="44.38032" lon="4.37437">
        <ele>162.246</ele>
        <time>2015-07-28T23:08:46Z</time>
      </trkpt>
      <trkpt lat="44.3801" lon="4.37428">
        <ele>161.193</ele>
        <time>2015-07-28T23:09:06Z</time>
      </trkpt>
      <trkpt lat="44.37977" lon="4.37488">
        <ele>156.231</ele>
        <time>2015-07-28T23:09:26Z</time>
      </trkpt>
      <trkpt lat="44.37978" lon="4.37526">
        <ele>156.283</ele>
        <time>2015-07-28T23:09:46Z</time>
      </trkpt>
      <trkpt lat="44.37921" lon="4.37564">
        <ele>163.898</ele>
        <time>2015-07-28T23:10:06Z</time>
      </trkpt>
      <trkpt lat="44.37903" lon="4.37616">
        <ele>164.921</ele>
        <time>2015-07-28T23:10:26Z</time>
      </trkpt>
      <trkpt lat="44.37877" lon="4.3761">
        <ele>165.686</ele>
        <time>2015-07-28T23:10:46Z</time>
      </trkpt>
      <trkpt lat="44.37841" lon="4.37587">
        <ele>165.075</ele>
        <time>2015-07-28T23:11:06Z</time>
      </trkpt>
      <trkpt lat="44.37819" lon="4.37565">
        <ele>166.628</ele>
        <time>2015-07-28T23:11:26Z</time>
      </trkpt>
      <trkpt lat="44.37806" lon="4.37535">
        <ele>168.02</ele>
        <time>2015-07-28T23:11:46Z</time>
      </trkpt>
      <trkpt lat="44.37669" lon="4.37477">
        <ele>171.008</ele>
        <time>2015-07-28T23:12:06Z</time>
      </trkpt>
      <trkpt lat="44.37657" lon="4.37486">
        <ele>172.133</ele>
        <time>2015-07-28T23:12:26Z</time>
      </trkpt>
      <trkpt lat="44.37618" lon="4.37489">
        <ele>176.577</ele>
        <time>2015-07-28T23:12:46Z</time>
      </trkpt>
      <trkpt lat="44.37566" lon="4.37476">
        <ele>181.224</ele>
        <time>2015-07-28T23:13:06Z</time>
      </trkpt>
      <trkpt lat="44.37487" lon="4.3745">
        <ele>188.052</ele>
        <time>2015-07-28T23:13:26Z</time>
      </trkpt>
      <trkpt lat="44.37425" lon="4.37558">
        <ele>200.784</ele>
        <time>2015-07-28T23:13:46Z</time>
      </trkpt>
      <trkpt lat="44.37368" lon="4.37606">
        <ele>203.259</ele>
        <time>2015-07-28T23:14:06Z</time>
      </trkpt>
      <trkpt lat="44.37362" lon="4.37623">
        <ele>203.982</ele>
        <time>2015-07-28T23:14:26Z</time>
      </trkpt>
      <trkpt lat="44.37342" lon="4.37658">
        <ele>203.457</ele>
        <time>2015-07-28T23:14:46Z</time>
      </trkpt>
      <trkpt lat="44.37306" lon="4.37702">
        <ele>200.035</ele>
        <time>2015-07-28T23:15:06Z</time>
      </trkpt>
      <trkpt lat="44.37266" lon="4.37766">
        <ele>198.186</ele>
        <time>2015-07-28T23:15:26Z</time>
      </trkpt>
      <trkpt lat="44.37235" lon="4.3785">
        <ele>204.514</ele>
        <time>2015-07-28T23:15:46Z</time>
      </trkpt>
      <trkpt lat="44.37208" lon="4.37899">
        <ele>208.208</ele>
        <time>2015-07-28T23:16:06Z</time>
      </trkpt>
      <trkpt lat="44.37174" lon="4.3792">
        <ele>213.699</ele>
        <time>2015-07-28T23:16:26Z</time>
      </trkpt>
      <trkpt lat="44.37164" lon="4.37984">
        <ele>221.233</ele>
        <time>2015-07-28T23:16:46Z</time>
      </trkpt>
      <trkpt lat="44.3714" lon="4.38031">
        <ele>229.26</ele>
        <time>2015-07-28T23:17:06Z</time>
      </trkpt>
      <trkpt lat="44.37107" lon="4.38059">
        <ele>233.748</ele>
        <time>2015-07-28T23:17:26Z</time>
      </trkpt>
      <trkpt lat="44.3708" lon="4.38072">
        <ele>236.64</ele>
        <time>2015-07-28T23:17:46Z</time>
      </trkpt>
      <trkpt lat="44.37081" lon="4.38144">
        <ele>241.025</ele>
        <time>2015-07-28T23:18:06Z</time>
      </trkpt>
      <trkpt lat="44.37066" lon="4.38205">
        <ele>241.088</ele>
        <time>2015-07-28T23:18:26Z</time>
      </trkpt>
      <trkpt lat="44.3704" lon="4.38247">
        <ele>242.933</ele>
        <time>2015-07-28T23:18:46Z</time>
      </trkpt>
      <trkpt lat="44.37008" lon="4.38318">
        <ele>245.887</ele>
        <time>2015-07-28T23:19:06Z</time>
      </trkpt>
      <trkpt lat="44.36963" lon="4.3844">
        <ele>247.842</ele>
        <time>2015-07-28T23:19:26Z</time>
      </trkpt>
      <trkpt lat="44.36934" lon="4.3847">
        <ele>246.326</ele>
        <time>2015-07-28T23:19:46Z</time>
      </trkpt>
      <trkpt lat="44.36905" lon="4.38515">
        <ele>243.208</ele>
        <time>2015-07-28T23:20:06Z</time>
      </trkpt>
      <trkpt lat="44.36871" lon="4.38488">
        <ele>237.884</ele>
        <time>2015-07-28T23:20:26Z</time>
      </trkpt>
      <trkpt lat="44.36831" lon="4.38469">
        <ele>232.128</ele>
        <time>2015-07-28T23:20:46Z</time>
      </trkpt>
      <trkpt lat="44.3673" lon="4.38438">
        <ele>223.565</ele>
        <time>2015-07-28T23:21:06Z</time>
      </trkpt>
      <trkpt lat="44.36684" lon="4.38454">
        <ele>214.483</ele>
        <time>2015-07-28T23:21:26Z</time>
      </trkpt>
      <trkpt lat="44.36616" lon="4.38445">
        <ele>211.355</ele>
        <time>2015-07-28T23:21:46Z</time>
      </trkpt>
      <trkpt lat="44.36602" lon="4.3845">
        <ele>209.75</ele>
        <time>2015-07-28T23:22:06Z</time>
      </trkpt>
      <trkpt lat="44.36556" lon="4.38528">
        <ele>206.143</ele>
        <time>2015-07-28T23:22:26Z</time>
      </trkpt>
      <trkpt lat="44.36522" lon="4.38536">
        <ele>207.518</ele>
        <time>2015-07-28T23:22:46Z</time>
      </trkpt>
      <trkpt lat="44.36459" lon="4.38568">
        <ele>215.346</ele>
        <time>2015-07-28T23:23:06Z</time>
      </trkpt>
      <trkpt lat="44.36417" lon="4.38563">
        <ele>215.588</ele>
        <time>2015-07-28T23:23:26Z</time>
      </trkpt>
      <trkpt lat="44.36339" lon="4.38588">
        <ele>222.816</ele>
        <time>2015-07-28T23:23:46Z</time>
      </trkpt>
      <trkpt lat="44.36322" lon="4.38555">
        <ele>221.708</ele>
        <time>2015-07-28T23:24:06Z</time>
      </trkpt>
      <trkpt lat="44.36288" lon="4.38527">
        <ele>223.57</ele>
        <time>2015-07-28T23:24:26Z</time>
      </trkpt>
      <trkpt lat="44.36244" lon="4.38506">
        <ele>225.274</ele>
        <time>2015-07-28T23:24:46Z</time>
      </trkpt>
      <trkpt lat="44.36168" lon="4.38515">
        <ele>229.281</ele>
        <time>2015-07-28T23:25:06Z</time>
      </trkpt>
      <trkpt lat="44.36067" lon="4.3851">
        <ele>234.269</ele>
        <time>2015-07-28T23:25:26Z</time>
      </trkpt>
      <trkpt lat="44.36033" lon="4.38481">
        <ele>234.071</ele>
        <time>2015-07-28T23:25:46Z</time>
      </trkpt>
      <trkpt lat="44.36008" lon="4.38484">
        <ele>235.566</ele>
        <time>2015-07-28T23:26:06Z</time>
      </trkpt>
      <trkpt lat="44.35995" lon="4.38523">
        <ele>238.529</ele>
        <time>2015-07-28T23:26:26Z</time>
      </trkpt>
      <trkpt lat="44.36019" lon="4.38589">
        <ele>244.894</ele>
        <time>2015-07-28T23:26:46Z</time>
      </trkpt>
      <trkpt lat="44.36018" lon="4.38645">
        <ele>247.774</ele>
        <time>2015-07-28T23:27:06Z</time>
      </trkpt>
      <trkpt lat="44.35989" lon="4.38761">
        <ele>244.956</ele>
        <time>2015-07-28T23:27:26Z</time>
      </trkpt>
      <trkpt lat="44.35991" lon="4.3881">
        <ele>242.521</ele>
        <time>2015-07-28T23:27:46Z</time>
      </trkpt>
      <trkpt lat="44.36031" lon="4.38846">
        <ele>247.408</ele>
        <time>2015-07-28T23:28:06Z</time>
      </trkpt>
      <trkpt lat="44.36033" lon="4.38946">
        <ele>240.183</ele>
        <time>2015-07-28T23:28:26Z</time>
      </trkpt>
      <trkpt lat="44.36009" lon="4.39017">
        <ele>234.417</ele>
        <time>2015-07-28T23:28:46Z</time>
      </trkpt>
      <trkpt lat="44.35993" lon="4.39079">
        <ele>231.244</ele>
        <time>2015-07-28T23:29:06Z</time>
      </trkpt>
      <trkpt lat="44.35997" lon="4.39147">
        <ele>230.552</ele>
        <time>2015-07-28T23:29:26Z</time>
      </trkpt>
      <trkpt lat="44.35976" lon="4.39174">
        <ele>228.024</ele>
        <time>2015-07-28T23:29:46Z</time>
      </trkpt>
      <trkpt lat="44.35938" lon="4.39176">
        <ele>226.259</ele>
        <time>2015-07-28T23:30:06Z</time>
      </trkpt>
      <trkpt lat="44.35909" lon="4.39217">
        <ele>229.722</ele>
        <time>2015-07-28T23:30:26Z</time>
      </trkpt>
      <trkpt lat="44.35905" lon="4.39279">
        <ele>229.257</ele>
        <time>2015-07-28T23:30:46Z</time>
      </trkpt>
      <trkpt lat="44.35866" lon="4.39386">
        <ele>224.939</ele>
        <time>2015-07-28T23:31:06Z</time>
      </trkpt>
      <trkpt lat="44.35814" lon="4.39425">
        <ele>223.901</ele>
        <time>2015-07-28T23:31:26Z</time>
      </trkpt>
      <trkpt lat="44.35676" lon="4.39578">
        <ele>229.321</ele>
        <time>2015-07-28T23:31:46Z</time>
      </trkpt>
      <trkpt lat="44.35572" lon="4.39626">
        <ele>223.208</ele>
        <time>2015-07-28T23:32:06Z</time>
      </trkpt>
      <trkpt lat="44.3554" lon="4.3968">
        <ele>225.689</ele>
        <time>2015-07-28T23:32:26Z</time>
      </trkpt>
      <trkpt lat="44.35485" lon="4.39717">
        <ele>223.293</ele>
        <time>2015-07-28T23:32:46Z</time>
      </trkpt>
      <trkpt lat="44.35466" lon="4.3978">
        <ele>229.97</ele>
        <time>2015-07-28T23:33:06Z</time>
      </trkpt>
      <trkpt lat="44.35438" lon="4.39842">
        <ele>228.488</ele>
        <time>2015-07-28T23:33:26Z</time>
      </trkpt>
      <trkpt lat="44.3542" lon="4.39918">
        <ele>227.76</ele>
        <time>2015-07-28T23:33:46Z</time>
      </trkpt>
      <trkpt lat="44.35407" lon="4.39927">
        <ele>227.445</ele>
        <time>2015-07-28T23:34:06Z</time>
      </trkpt>
      <trkpt lat="44.35341" lon="4.39918">
        <ele>229.428</ele>
        <time>2015-07-28T23:34:26Z</time>
      </trkpt>
      <trkpt lat="44.35261" lon="4.39953">
        <ele>240.983</ele>
        <time>2015-07-28T23:34:46Z</time>
      </trkpt>
      <trkpt lat="44.35218" lon="4.4">
        <ele>242.071</ele>
        <time>2015-07-28T23:35:06Z</time>
      </trkpt>
      <trkpt lat="44.35206" lon="4.40044">
        <ele>245.441</ele>
        <time>2015-07-28T23:35:26Z</time>
      </trkpt>
      <trkpt lat="44.35158" lon="4.40066">
        <ele>248.715</ele>
        <time>2015-07-28T23:35:46Z</time>
      </trkpt>
      <trkpt lat="44.35142" lon="4.40117">
        <ele>254.208</ele>
        <time>2015-07-28T23:36:06Z</time>
      </trkpt>
      <trkpt lat="44.35136" lon="4.40157">
        <ele>257.933</ele>
        <time>2015-07-28T23:36:26Z</time>
      </trkpt>
      <trkpt lat="44.3509" lon="4.40236">
        <ele>257.617</ele>
        <time>2015-07-28T23:36:46Z</time>
      </trkpt>
      <trkpt lat="44.35101" lon="4.4033">
        <ele>251.014</ele>
        <time>2015-07-28T23:37:06Z</time>
      </trkpt>
      <trkpt lat="44.35122" lon="4.40388">
        <ele>246.972</ele>
        <time>2015-07-28T23:37:26Z</time>
      </trkpt>
      <trkpt lat="44.35154" lon="4.40422">
        <ele>240.844</ele>
        <time>2015-07-28T23:37:46Z</time>
      </trkpt>
      <trkpt lat="44.35166" lon="4.40476">
        <ele>241.449</ele>
        <time>2015-07-28T23:38:06Z</time>
      </trkpt>
      <trkpt lat="44.35191" lon="4.4051">
        <ele>239.872</ele>
        <time>2015-07-28T23:38:26Z</time>
      </trkpt>
      <trkpt lat="44.35245" lon="4.40524">
        <ele>240.757</ele>
        <time>2015-07-28T23:38:46Z</time>
      </trkpt>
      <trkpt lat="44.3526" lon="4.406">
        <ele>241.748</ele>
        <time>2015-07-28T23:39:06Z</time>
      </trkpt>
      <trkpt lat="44.35275" lon="4.40725">
        <ele>244.961</ele>
        <time>2015-07-28T23:39:26Z</time>
      </trkpt>
      <trkpt lat="44.35323" lon="4.40751">
        <ele>246.017</ele>
        <time>2015-07-28T23:39:46Z</time>
      </trkpt>
      <trkpt lat="44.35381" lon="4.40757">
        <ele>244.108</ele>
        <time>2015-07-28T23:40:06Z</time>
      </trkpt>
      <trkpt lat="44.35426" lon="4.4078">
        <ele>250.78</ele>
        <time>2015-07-28T23:40:26Z</time>
      </trkpt>
      <trkpt lat="44.35463" lon="4.40818">
        <ele>254.854</ele>
        <time>2015-07-28T23:40:46Z</time>
      </trkpt>
      <trkpt lat="44.35507" lon="4.40836">
        <ele>260.081</ele>
        <time>2015-07-28T23:41:06Z</time>
      </trkpt>
      <trkpt lat="44.35507" lon="4.40881">
        <ele>260.119</ele>
        <time>2015-07-28T23:41:26Z</time>
      </trkpt>
      <trkpt lat="44.3552" lon="4.40914">
        <ele>262.161</ele>
        <time>2015-07-28T23:41:46Z</time>
      </trkpt>
      <trkpt lat="44.35539" lon="4.40936">
        <ele>268.036</ele>
        <time>2015-07-28T23:42:06Z</time>
      </trkpt>
      <trkpt lat="44.35533" lon="4.40973">
        <ele>274.489</ele>
        <time>2015-07-28T23:42:26Z</time>
      </trkpt>
      <trkpt lat="44.35479" lon="4.40995">
        <ele>276.964</ele>
        <time>2015-07-28T23:42:46Z</time>
      </trkpt>
      <trkpt lat="44.35447" lon="4.41012">
        <ele>280.159</ele>
        <time>2015-07-28T23:43:06Z</time>
      </trkpt>
      <trkpt lat="44.3544" lon="4.41225">
        <ele>281.003</ele>
        <time>2015-07-28T23:43:26Z</time>
      </trkpt>
      <trkpt lat="44.35444" lon="4.41259">
        <ele>281.023</ele>
        <time>2015-07-28T23:43:46Z</time>
      </trkpt>
      <trkpt lat="44.35435" lon="4.41298">
        <ele>280.708</ele>
        <time>2015-07-28T23:44:06Z</time>
      </trkpt>
      <trkpt lat="44.35426" lon="4.41415">
        <ele>276.481</ele>
        <time>2015-07-28T23:44:26Z</time>
      </trkpt>
      <trkpt lat="44.35427" lon="4.41457">
        <ele>276.615</ele>
        <time>2015-07-28T23:44:46Z</time>
      </trkpt>
      <trkpt lat="44.35454" lon="4.41498">
        <ele>279.392</ele>
        <time>2015-07-28T23:45:06Z</time>
      </trkpt>
      <trkpt lat="44.35437" lon="4.4153">
        <ele>279.84</ele>
        <time>2015-07-28T23:45:26Z</time>
      </trkpt>
      <trkpt lat="44.35443" lon="4.41575">
        <ele>280.982</ele>
        <time>2015-07-28T23:45:46Z</time>
      </trkpt>
      <trkpt lat="44.35441" lon="4.4163">
        <ele>279.297</ele>
        <time>2015-07-28T23:46:06Z</time>
      </trkpt>
      <trkpt lat="44.3542" lon="4.41676">
        <ele>277.75</ele>
        <time>2015-07-28T23:46:26Z</time>
      </trkpt>
      <trkpt lat="44.35391" lon="4.41717">
        <ele>275.275</ele>
        <time>2015-07-28T23:46:46Z</time>
      </trkpt>
      <trkpt lat="44.35386" lon="4.41923">
        <ele>271.623</ele>
        <time>2015-07-28T23:47:06Z</time>
      </trkpt>
      <trkpt lat="44.35378" lon="4.42071">
        <ele>273.083</ele>
        <time>2015-07-28T23:47:26Z</time>
      </trkpt>
      <trkpt lat="44.3534" lon="4.42204">
        <ele>275.611</ele>
        <time>2015-07-28T23:47:46Z</time>
      </trkpt>
      <trkpt lat="44.35338" lon="4.42237">
        <ele>275.408</ele>
        <time>2015-07-28T23:48:06Z</time>
      </trkpt>
      <trkpt lat="44.35352" lon="4.42398">
        <ele>270.938</ele>
        <time>2015-07-28T23:48:26Z</time>
      </trkpt>
      <trkpt lat="44.3535" lon="4.4248">
        <ele>265.542</ele>
        <time>2015-07-28T23:48:46Z</time>
      </trkpt>
      <trkpt lat="44.35351" lon="4.42575">
        <ele>257.859</ele>
        <time>2015-07-28T23:49:06Z</time>
      </trkpt>
      <trkpt lat="44.35363" lon="4.42696">
        <ele>257.957</ele>
        <time>2015-07-28T23:49:26Z</time>
      </trkpt>
      <trkpt lat="44.35376" lon="4.42708">
        <ele>257.329</ele>
        <time>2015-07-28T23:49:46Z</time>
      </trkpt>
      <trkpt lat="44.35383" lon="4.42779">
        <ele>261.234</ele>
        <time>2015-07-28T23:50:06Z</time>
      </trkpt>
      <trkpt lat="44.35395" lon="4.42851">
        <ele>262.497</ele>
        <time>2015-07-28T23:50:26Z</time>
      </trkpt>
      <trkpt lat="44.35448" lon="4.42877">
        <ele>266.712</ele>
        <time>2015-07-28T23:50:46Z</time>
      </trkpt>
      <trkpt lat="44.35464" lon="4.4291">
        <ele>269.325</ele>
        <time>2015-07-28T23:51:06Z</time>
      </trkpt>
      <trkpt lat="44.35492" lon="4.42992">
        <ele>274.126</ele>
        <time>2015-07-28T23:51:26Z</time>
      </trkpt>
      <trkpt lat="44.35499" lon="4.43047">
        <ele>274.908</ele>
        <time>2015-07-28T23:51:46Z</time>
      </trkpt>
      <trkpt lat="44.35546" lon="4.4315">
        <ele>272.108</ele>
        <time>2015-07-28T23:52:06Z</time>
      </trkpt>
      <trkpt lat="44.35566" lon="4.43219">
        <ele>270.698</ele>
        <time>2015-07-28T23:52:26Z</time>
      </trkpt>
      <trkpt lat="44.35599" lon="4.43291">
        <ele>266.272</ele>
        <time>2015-07-28T23:52:46Z</time>
      </trkpt>
      <trkpt lat="44.35587" lon="4.43299">
        <ele>264.629</ele>
        <time>2015-07-28T23:53:06Z</time>
      </trkpt>
      <trkpt lat="44.35603" lon="4.4335">
        <ele>265.187</ele>
        <time>2015-07-28T23:53:26Z</time>
      </trkpt>
      <trkpt lat="44.35607" lon="4.43382">
        <ele>265.039</ele>
        <time>2015-07-28T23:53:46Z</time>
      </trkpt>
      <trkpt lat="44.35593" lon="4.43401">
        <ele>264.124</ele>
        <time>2015-07-28T23:54:06Z</time>
      </trkpt>
      <trkpt lat="44.35599" lon="4.43426">
        <ele>264.367</ele>
        <time>2015-07-28T23:54:26Z</time>
      </trkpt>
      <trkpt lat="44.35602" lon="4.43476">
        <ele>266.162</ele>
        <time>2015-07-28T23:54:46Z</time>
      </trkpt>
      <trkpt lat="44.3561" lon="4.43503">
        <ele>267.014</ele>
        <time>2015-07-28T23:55:06Z</time>
      </trkpt>
      <trkpt lat="44.35626" lon="4.43631">
        <ele>265.854</ele>
        <time>2015-07-28T23:55:26Z</time>
      </trkpt>
      <trkpt lat="44.35618" lon="4.43665">
        <ele>265.109</ele>
        <time>2015-07-28T23:55:46Z</time>
      </trkpt>
      <trkpt lat="44.356" lon="4.43688">
        <ele>263.508</ele>
        <time>2015-07-28T23:56:06Z</time>
      </trkpt>
      <trkpt lat="44.35592" lon="4.43704">
        <ele>263.747</ele>
        <time>2015-07-28T23:56:26Z</time>
      </trkpt>
      <trkpt lat="44.35573" lon="4.4371">
        <ele>263.581</ele>
        <time>2015-07-28T23:56:46Z</time>
      </trkpt>
      <trkpt lat="44.35556" lon="4.43703">
        <ele>262.688</ele>
        <time>2015-07-28T23:57:06Z</time>
      </trkpt>
      <trkpt lat="44.35511" lon="4.43709">
        <ele>263.226</ele>
        <time>2015-07-28T23:57:26Z</time>
      </trkpt>
      <trkpt lat="44.35467" lon="4.43751">
        <ele>265.388</ele>
        <time>2015-07-28T23:57:46Z</time>
      </trkpt>
      <trkpt lat="44.35433" lon="4.43803">
        <ele>267.123</ele>
        <time>2015-07-28T23:58:06Z</time>
      </trkpt>
      <trkpt lat="44.35419" lon="4.43924">
        <ele>269.486</ele>
        <time>2015-07-28T23:58:26Z</time>
      </trkpt>
      <trkpt lat="44.35417" lon="4.44078">
        <ele>272.041</ele>
        <time>2015-07-28T23:58:46Z</time>
      </trkpt>
      <trkpt lat="44.3543" lon="4.44202">
        <ele>268.971</ele>
        <time>2015-07-28T23:59:06Z</time>
      </trkpt>
      <trkpt lat="44.35414" lon="4.44237">
        <ele>267.441</ele>
        <time>2015-07-28T23:59:26Z</time>
      </trkpt>
      <trkpt lat="44.35407" lon="4.44291">
        <ele>267.815</ele>
        <time>2015-07-28T23:59:46Z</time>
      </trkpt>
      <trkpt lat="44.35396" lon="4.44324">
        <ele>266.708</ele>
        <time>2015-07-29T00:00:06Z</time>
      </trkpt>
      <trkpt lat="44.35387" lon="4.44366">
        <ele>264.253</ele>
        <time>2015-07-29T00:00:26Z</time>
      </trkpt>
      <trkpt lat="44.3537" lon="4.44395">
        <ele>260.467</ele>
        <time>2015-07-29T00:00:46Z</time>
      </trkpt>
      <trkpt lat="44.35323" lon="4.44524">
        <ele>256.134</ele>
        <time>2015-07-29T00:01:06Z</time>
      </trkpt>
      <trkpt lat="44.35317" lon="4.44549">
        <ele>256.072</ele>
        <time>2015-07-29T00:01:26Z</time>
      </trkpt>
      <trkpt lat="44.35288" lon="4.44584">
        <ele>257.444</ele>
        <time>2015-07-29T00:01:46Z</time>
      </trkpt>
      <trkpt lat="44.35273" lon="4.44612">
        <ele>259.599</ele>
        <time>2015-07-29T00:02:06Z</time>
      </trkpt>
      <trkpt lat="44.3529" lon="4.44734">
        <ele>260.322</ele>
        <time>2015-07-29T00:02:26Z</time>
      </trkpt>
      <trkpt lat="44.35287" lon="4.44869">
        <ele>262.637</ele>
        <time>2015-07-29T00:02:46Z</time>
      </trkpt>
      <trkpt lat="44.3526" lon="4.44935">
        <ele>262.644</ele>
        <time>2015-07-29T00:03:06Z</time>
      </trkpt>
      <trkpt lat="44.35249" lon="4.45012">
        <ele>259.005</ele>
        <time>2015-07-29T00:03:26Z</time>
      </trkpt>
      <trkpt lat="44.35208" lon="4.45093">
        <ele>256.015</ele>
        <time>2015-07-29T00:03:46Z</time>
      </trkpt>
      <trkpt lat="44.35173" lon="4.45135">
        <ele>252.808</ele>
        <time>2015-07-29T00:04:06Z</time>
      </trkpt>
      <trkpt lat="44.35148" lon="4.45215">
        <ele>257.42</ele>
        <time>2015-07-29T00:04:26Z</time>
      </trkpt>
      <trkpt lat="44.3512" lon="4.45244">
        <ele>257.394</ele>
        <time>2015-07-29T00:04:46Z</time>
      </trkpt>
      <trkpt lat="44.35097" lon="4.45325">
        <ele>255.791</ele>
        <time>2015-07-29T00:05:06Z</time>
      </trkpt>
    </trkseg>
  </trk>
  <trk>
    <name><![CDATA[ST Martin d'Ardèche]]></name>
    <extensions>
      <line xmlns="http://www.topografix.com/GPX/gpx_style/0/2">
        <color>00ffee</color>
        <width>4</width>
      </line>
    </extensions>
    <trkseg>
      <trkpt lat="44.35097" lon="4.45325">
        <ele>255.791</ele>
        <time>2015-07-29T00:05:06Z</time>
      </trkpt>
      <trkpt lat="44.35074" lon="4.45315">
        <ele>255.429</ele>
        <time>2015-07-29T00:05:26Z</time>
      </trkpt>
      <trkpt lat="44.35045" lon="4.45277">
        <ele>257.081</ele>
        <time>2015-07-29T00:05:46Z</time>
      </trkpt>
      <trkpt lat="44.3498" lon="4.45214">
        <ele>256.816</ele>
        <time>2015-07-29T00:06:06Z</time>
      </trkpt>
      <trkpt lat="44.34913" lon="4.45171">
        <ele>261.169</ele>
        <time>2015-07-29T00:06:26Z</time>
      </trkpt>
      <trkpt lat="44.34884" lon="4.45182">
        <ele>261.444</ele>
        <time>2015-07-29T00:06:46Z</time>
      </trkpt>
      <trkpt lat="44.34832" lon="4.45234">
        <ele>262.274</ele>
        <time>2015-07-29T00:07:06Z</time>
      </trkpt>
      <trkpt lat="44.34794" lon="4.45223">
        <ele>261.756</ele>
        <time>2015-07-29T00:07:26Z</time>
      </trkpt>
      <trkpt lat="44.34764" lon="4.45201">
        <ele>258.221</ele>
        <time>2015-07-29T00:07:46Z</time>
      </trkpt>
      <trkpt lat="44.34735" lon="4.45156">
        <ele>251.208</ele>
        <time>2015-07-29T00:08:06Z</time>
      </trkpt>
      <trkpt lat="44.3472" lon="4.45111">
        <ele>246.353</ele>
        <time>2015-07-29T00:08:26Z</time>
      </trkpt>
      <trkpt lat="44.34719" lon="4.45057">
        <ele>241.877</ele>
        <time>2015-07-29T00:08:46Z</time>
      </trkpt>
      <trkpt lat="44.34731" lon="4.4504">
        <ele>242.094</ele>
        <time>2015-07-29T00:09:06Z</time>
      </trkpt>
      <trkpt lat="44.34815" lon="4.45008">
        <ele>242.562</ele>
        <time>2015-07-29T00:09:26Z</time>
      </trkpt>
      <trkpt lat="44.34824" lon="4.44984">
        <ele>242.774</ele>
        <time>2015-07-29T00:09:46Z</time>
      </trkpt>
      <trkpt lat="44.34825" lon="4.44951">
        <ele>241.059</ele>
        <time>2015-07-29T00:10:06Z</time>
      </trkpt>
      <trkpt lat="44.34807" lon="4.44849">
        <ele>229.562</ele>
        <time>2015-07-29T00:10:26Z</time>
      </trkpt>
      <trkpt lat="44.34788" lon="4.44764">
        <ele>223.287</ele>
        <time>2015-07-29T00:10:46Z</time>
      </trkpt>
      <trkpt lat="44.34841" lon="4.44749">
        <ele>223.699</ele>
        <time>2015-07-29T00:11:06Z</time>
      </trkpt>
      <trkpt lat="44.34877" lon="4.4475">
        <ele>223.607</ele>
        <time>2015-07-29T00:11:26Z</time>
      </trkpt>
      <trkpt lat="44.34879" lon="4.44687">
        <ele>223.627</ele>
        <time>2015-07-29T00:11:46Z</time>
      </trkpt>
      <trkpt lat="44.3487" lon="4.44645">
        <ele>223.808</ele>
        <time>2015-07-29T00:12:06Z</time>
      </trkpt>
      <trkpt lat="44.34869" lon="4.4459">
        <ele>225.455</ele>
        <time>2015-07-29T00:12:26Z</time>
      </trkpt>
      <trkpt lat="44.34861" lon="4.4459">
        <ele>225.039</ele>
        <time>2015-07-29T00:12:46Z</time>
      </trkpt>
      <trkpt lat="44.34851" lon="4.44596">
        <ele>224.086</ele>
        <time>2015-07-29T00:13:06Z</time>
      </trkpt>
      <trkpt lat="44.34844" lon="4.44596">
        <ele>223.254</ele>
        <time>2015-07-29T00:13:26Z</time>
      </trkpt>
      <trkpt lat="44.34835" lon="4.4456">
        <ele>223.086</ele>
        <time>2015-07-29T00:13:46Z</time>
      </trkpt>
      <trkpt lat="44.34817" lon="4.4454">
        <ele>222.971</ele>
        <time>2015-07-29T00:14:06Z</time>
      </trkpt>
      <trkpt lat="44.34802" lon="4.4456">
        <ele>219.934</ele>
        <time>2015-07-29T00:14:26Z</time>
      </trkpt>
      <trkpt lat="44.34785" lon="4.44548">
        <ele>220.229</ele>
        <time>2015-07-29T00:14:46Z</time>
      </trkpt>
      <trkpt lat="44.34765" lon="4.44545">
        <ele>222.033</ele>
        <time>2015-07-29T00:15:06Z</time>
      </trkpt>
      <trkpt lat="44.34748" lon="4.44539">
        <ele>224.723</ele>
        <time>2015-07-29T00:15:26Z</time>
      </trkpt>
      <trkpt lat="44.34732" lon="4.44541">
        <ele>227.615</ele>
        <time>2015-07-29T00:15:46Z</time>
      </trkpt>
      <trkpt lat="44.34716" lon="4.44522">
        <ele>232.508</ele>
        <time>2015-07-29T00:16:06Z</time>
      </trkpt>
      <trkpt lat="44.34662" lon="4.44525">
        <ele>238.799</ele>
        <time>2015-07-29T00:16:26Z</time>
      </trkpt>
      <trkpt lat="44.34647" lon="4.44508">
        <ele>241.813</ele>
        <time>2015-07-29T00:16:46Z</time>
      </trkpt>
      <trkpt lat="44.34632" lon="4.44468">
        <ele>249.22</ele>
        <time>2015-07-29T00:17:06Z</time>
      </trkpt>
      <trkpt lat="44.34618" lon="4.44467">
        <ele>253.178</ele>
        <time>2015-07-29T00:17:26Z</time>
      </trkpt>
      <trkpt lat="44.34592" lon="4.4444">
        <ele>259.85</ele>
        <time>2015-07-29T00:17:46Z</time>
      </trkpt>
      <trkpt lat="44.34548" lon="4.44414">
        <ele>264.855</ele>
        <time>2015-07-29T00:18:06Z</time>
      </trkpt>
      <trkpt lat="44.34469" lon="4.44421">
        <ele>275.588</ele>
        <time>2015-07-29T00:18:26Z</time>
      </trkpt>
      <trkpt lat="44.34443" lon="4.44385">
        <ele>278.093</ele>
        <time>2015-07-29T00:18:46Z</time>
      </trkpt>
      <trkpt lat="44.34417" lon="4.44379">
        <ele>282.575</ele>
        <time>2015-07-29T00:19:06Z</time>
      </trkpt>
      <trkpt lat="44.34392" lon="4.44339">
        <ele>285.628</ele>
        <time>2015-07-29T00:19:26Z</time>
      </trkpt>
      <trkpt lat="44.3438" lon="4.44334">
        <ele>287.02</ele>
        <time>2015-07-29T00:19:46Z</time>
      </trkpt>
      <trkpt lat="44.34356" lon="4.44397">
        <ele>292.908</ele>
        <time>2015-07-29T00:20:06Z</time>
      </trkpt>
      <trkpt lat="44.34352" lon="4.44458">
        <ele>298.573</ele>
        <time>2015-07-29T00:20:26Z</time>
      </trkpt>
      <trkpt lat="44.34353" lon="4.44479">
        <ele>300.457</ele>
        <time>2015-07-29T00:20:46Z</time>
      </trkpt>
      <trkpt lat="44.3434" lon="4.44506">
        <ele>303.054</ele>
        <time>2015-07-29T00:21:06Z</time>
      </trkpt>
      <trkpt lat="44.34305" lon="4.44502">
        <ele>307.852</ele>
        <time>2015-07-29T00:21:26Z</time>
      </trkpt>
      <trkpt lat="44.34296" lon="4.44493">
        <ele>310.774</ele>
        <time>2015-07-29T00:21:46Z</time>
      </trkpt>
      <trkpt lat="44.34286" lon="4.44438">
        <ele>314.459</ele>
        <time>2015-07-29T00:22:06Z</time>
      </trkpt>
      <trkpt lat="44.3426" lon="4.44402">
        <ele>318.532</ele>
        <time>2015-07-29T00:22:26Z</time>
      </trkpt>
      <trkpt lat="44.34246" lon="4.44401">
        <ele>321.947</ele>
        <time>2015-07-29T00:22:46Z</time>
      </trkpt>
      <trkpt lat="44.3423" lon="4.44453">
        <ele>327.725</ele>
        <time>2015-07-29T00:23:06Z</time>
      </trkpt>
      <trkpt lat="44.34219" lon="4.44467">
        <ele>328.326</ele>
        <time>2015-07-29T00:23:26Z</time>
      </trkpt>
      <trkpt lat="44.34144" lon="4.44443">
        <ele>336.408</ele>
        <time>2015-07-29T00:23:46Z</time>
      </trkpt>
      <trkpt lat="44.34136" lon="4.44433">
        <ele>338.308</ele>
        <time>2015-07-29T00:24:06Z</time>
      </trkpt>
      <trkpt lat="44.34108" lon="4.44417">
        <ele>344.228</ele>
        <time>2015-07-29T00:24:26Z</time>
      </trkpt>
      <trkpt lat="44.34082" lon="4.44451">
        <ele>346.062</ele>
        <time>2015-07-29T00:24:46Z</time>
      </trkpt>
      <trkpt lat="44.34072" lon="4.4445">
        <ele>348.639</ele>
        <time>2015-07-29T00:25:06Z</time>
      </trkpt>
      <trkpt lat="44.34053" lon="4.44425">
        <ele>354.297</ele>
        <time>2015-07-29T00:25:26Z</time>
      </trkpt>
      <trkpt lat="44.34039" lon="4.44432">
        <ele>356.469</ele>
        <time>2015-07-29T00:25:46Z</time>
      </trkpt>
      <trkpt lat="44.34004" lon="4.44432">
        <ele>361.094</ele>
        <time>2015-07-29T00:26:06Z</time>
      </trkpt>
      <trkpt lat="44.33993" lon="4.44422">
        <ele>363.147</ele>
        <time>2015-07-29T00:26:26Z</time>
      </trkpt>
      <trkpt lat="44.33947" lon="4.44431">
        <ele>370.052</ele>
        <time>2015-07-29T00:26:46Z</time>
      </trkpt>
      <trkpt lat="44.33928" lon="4.44414">
        <ele>373.412</ele>
        <time>2015-07-29T00:27:06Z</time>
      </trkpt>
      <trkpt lat="44.33906" lon="4.44412">
        <ele>376.532</ele>
        <time>2015-07-29T00:27:26Z</time>
      </trkpt>
      <trkpt lat="44.33888" lon="4.44389">
        <ele>378.105</ele>
        <time>2015-07-29T00:27:46Z</time>
      </trkpt>
      <trkpt lat="44.33871" lon="4.44381">
        <ele>380.208</ele>
        <time>2015-07-29T00:28:06Z</time>
      </trkpt>
      <trkpt lat="44.33859" lon="4.44365">
        <ele>380.467</ele>
        <time>2015-07-29T00:28:26Z</time>
      </trkpt>
      <trkpt lat="44.33849" lon="4.44362">
        <ele>380.521</ele>
        <time>2015-07-29T00:28:46Z</time>
      </trkpt>
      <trkpt lat="44.33836" lon="4.44353">
        <ele>380.418</ele>
        <time>2015-07-29T00:29:06Z</time>
      </trkpt>
      <trkpt lat="44.33821" lon="4.44347">
        <ele>380.066</ele>
        <time>2015-07-29T00:29:26Z</time>
      </trkpt>
      <trkpt lat="44.33772" lon="4.44468">
        <ele>387.288</ele>
        <time>2015-07-29T00:29:46Z</time>
      </trkpt>
      <trkpt lat="44.33743" lon="4.44501">
        <ele>388.073</ele>
        <time>2015-07-29T00:30:06Z</time>
      </trkpt>
      <trkpt lat="44.33715" lon="4.44588">
        <ele>388.386</ele>
        <time>2015-07-29T00:30:26Z</time>
      </trkpt>
      <trkpt lat="44.33676" lon="4.44639">
        <ele>390.351</ele>
        <time>2015-07-29T00:30:46Z</time>
      </trkpt>
      <trkpt lat="44.33638" lon="4.44722">
        <ele>394.042</ele>
        <time>2015-07-29T00:31:06Z</time>
      </trkpt>
      <trkpt lat="44.33514" lon="4.44924">
        <ele>389.022</ele>
        <time>2015-07-29T00:31:26Z</time>
      </trkpt>
      <trkpt lat="44.33474" lon="4.44935">
        <ele>388.114</ele>
        <time>2015-07-29T00:31:46Z</time>
      </trkpt>
      <trkpt lat="44.33418" lon="4.45046">
        <ele>389.008</ele>
        <time>2015-07-29T00:32:06Z</time>
      </trkpt>
      <trkpt lat="44.33415" lon="4.45093">
        <ele>391.12</ele>
        <time>2015-07-29T00:32:26Z</time>
      </trkpt>
      <trkpt lat="44.33391" lon="4.45217">
        <ele>394.974</ele>
        <time>2015-07-29T00:32:46Z</time>
      </trkpt>
      <trkpt lat="44.33381" lon="4.45296">
        <ele>395.791</ele>
        <time>2015-07-29T00:33:06Z</time>
      </trkpt>
      <trkpt lat="44.33353" lon="4.45362">
        <ele>395.089</ele>
        <time>2015-07-29T00:33:26Z</time>
      </trkpt>
      <trkpt lat="44.33328" lon="4.45447">
        <ele>390.961</ele>
        <time>2015-07-29T00:33:46Z</time>
      </trkpt>
      <trkpt lat="44.33242" lon="4.45549">
        <ele>393.486</ele>
        <time>2015-07-29T00:34:06Z</time>
      </trkpt>
      <trkpt lat="44.33217" lon="4.4557">
        <ele>393.779</ele>
        <time>2015-07-29T00:34:26Z</time>
      </trkpt>
      <trkpt lat="44.33212" lon="4.4559">
        <ele>393.214</ele>
        <time>2015-07-29T00:34:46Z</time>
      </trkpt>
      <trkpt lat="44.33167" lon="4.45656">
        <ele>393.882</ele>
        <time>2015-07-29T00:35:06Z</time>
      </trkpt>
      <trkpt lat="44.33054" lon="4.45775">
        <ele>394.243</ele>
        <time>2015-07-29T00:35:26Z</time>
      </trkpt>
      <trkpt lat="44.32989" lon="4.45822">
        <ele>396.017</ele>
        <time>2015-07-29T00:35:46Z</time>
      </trkpt>
      <trkpt lat="44.32945" lon="4.45834">
        <ele>397.008</ele>
        <time>2015-07-29T00:36:06Z</time>
      </trkpt>
      <trkpt lat="44.32863" lon="4.45887">
        <ele>401.914</ele>
        <time>2015-07-29T00:36:26Z</time>
      </trkpt>
      <trkpt lat="44.32822" lon="4.45952">
        <ele>403.498</ele>
        <time>2015-07-29T00:36:46Z</time>
      </trkpt>
      <trkpt lat="44.32796" lon="4.46038">
        <ele>403.035</ele>
        <time>2015-07-29T00:37:06Z</time>
      </trkpt>
      <trkpt lat="44.32779" lon="4.46165">
        <ele>401.173</ele>
        <time>2015-07-29T00:37:26Z</time>
      </trkpt>
      <trkpt lat="44.32768" lon="4.46411">
        <ele>400.895</ele>
        <time>2015-07-29T00:37:46Z</time>
      </trkpt>
      <trkpt lat="44.3277" lon="4.46477">
        <ele>399.14</ele>
        <time>2015-07-29T00:38:06Z</time>
      </trkpt>
      <trkpt lat="44.32827" lon="4.46687">
        <ele>390.443</ele>
        <time>2015-07-29T00:38:26Z</time>
      </trkpt>
      <trkpt lat="44.32831" lon="4.46764">
        <ele>388.448</ele>
        <time>2015-07-29T00:38:46Z</time>
      </trkpt>
      <trkpt lat="44.32813" lon="4.46834">
        <ele>387.326</ele>
        <time>2015-07-29T00:39:06Z</time>
      </trkpt>
      <trkpt lat="44.32819" lon="4.4692">
        <ele>388.547</ele>
        <time>2015-07-29T00:39:26Z</time>
      </trkpt>
      <trkpt lat="44.32816" lon="4.4707">
        <ele>391.711</ele>
        <time>2015-07-29T00:39:46Z</time>
      </trkpt>
      <trkpt lat="44.32794" lon="4.47172">
        <ele>389.008</ele>
        <time>2015-07-29T00:40:06Z</time>
      </trkpt>
      <trkpt lat="44.32803" lon="4.47285">
        <ele>392.178</ele>
        <time>2015-07-29T00:40:26Z</time>
      </trkpt>
      <trkpt lat="44.32771" lon="4.47313">
        <ele>391.842</ele>
        <time>2015-07-29T00:40:46Z</time>
      </trkpt>
      <trkpt lat="44.327" lon="4.47395">
        <ele>393.299</ele>
        <time>2015-07-29T00:41:06Z</time>
      </trkpt>
      <trkpt lat="44.32607" lon="4.47602">
        <ele>390.437</ele>
        <time>2015-07-29T00:41:26Z</time>
      </trkpt>
      <trkpt lat="44.32589" lon="4.47656">
        <ele>389.249</ele>
        <time>2015-07-29T00:41:46Z</time>
      </trkpt>
      <trkpt lat="44.32565" lon="4.4768">
        <ele>389.394</ele>
        <time>2015-07-29T00:42:06Z</time>
      </trkpt>
      <trkpt lat="44.32543" lon="4.47805">
        <ele>391.037</ele>
        <time>2015-07-29T00:42:26Z</time>
      </trkpt>
      <trkpt lat="44.32533" lon="4.47892">
        <ele>385.822</ele>
        <time>2015-07-29T00:42:46Z</time>
      </trkpt>
      <trkpt lat="44.3251" lon="4.4795">
        <ele>380.565</ele>
        <time>2015-07-29T00:43:06Z</time>
      </trkpt>
      <trkpt lat="44.32446" lon="4.48039">
        <ele>377.268</ele>
        <time>2015-07-29T00:43:26Z</time>
      </trkpt>
      <trkpt lat="44.32426" lon="4.48092">
        <ele>372.714</ele>
        <time>2015-07-29T00:43:46Z</time>
      </trkpt>
      <trkpt lat="44.32372" lon="4.48148">
        <ele>367.608</ele>
        <time>2015-07-29T00:44:06Z</time>
      </trkpt>
      <trkpt lat="44.32346" lon="4.48159">
        <ele>365.822</ele>
        <time>2015-07-29T00:44:26Z</time>
      </trkpt>
      <trkpt lat="44.32321" lon="4.48214">
        <ele>364.926</ele>
        <time>2015-07-29T00:44:46Z</time>
      </trkpt>
      <trkpt lat="44.32293" lon="4.48329">
        <ele>360.963</ele>
        <time>2015-07-29T00:45:06Z</time>
      </trkpt>
      <trkpt lat="44.32242" lon="4.48357">
        <ele>358.381</ele>
        <time>2015-07-29T00:45:26Z</time>
      </trkpt>
      <trkpt lat="44.32211" lon="4.48478">
        <ele>359.413</ele>
        <time>2015-07-29T00:45:46Z</time>
      </trkpt>
      <trkpt lat="44.32174" lon="4.48553">
        <ele>359.788</ele>
        <time>2015-07-29T00:46:06Z</time>
      </trkpt>
      <trkpt lat="44.32122" lon="4.48597">
        <ele>359.531</ele>
        <time>2015-07-29T00:46:26Z</time>
      </trkpt>
      <trkpt lat="44.32095" lon="4.48709">
        <ele>355.076</ele>
        <time>2015-07-29T00:46:46Z</time>
      </trkpt>
      <trkpt lat="44.32039" lon="4.48812">
        <ele>355.812</ele>
        <time>2015-07-29T00:47:06Z</time>
      </trkpt>
      <trkpt lat="44.32014" lon="4.48884">
        <ele>358.432</ele>
        <time>2015-07-29T00:47:26Z</time>
      </trkpt>
      <trkpt lat="44.32033" lon="4.48988">
        <ele>359.605</ele>
        <time>2015-07-29T00:47:46Z</time>
      </trkpt>
      <trkpt lat="44.31988" lon="4.49096">
        <ele>359.808</ele>
        <time>2015-07-29T00:48:06Z</time>
      </trkpt>
      <trkpt lat="44.3197" lon="4.4912">
        <ele>358.867</ele>
        <time>2015-07-29T00:48:26Z</time>
      </trkpt>
      <trkpt lat="44.31948" lon="4.49191">
        <ele>355.381</ele>
        <time>2015-07-29T00:48:46Z</time>
      </trkpt>
      <trkpt lat="44.31948" lon="4.49252">
        <ele>352.958</ele>
        <time>2015-07-29T00:49:06Z</time>
      </trkpt>
      <trkpt lat="44.31929" lon="4.49343">
        <ele>349.936</ele>
        <time>2015-07-29T00:49:26Z</time>
      </trkpt>
      <trkpt lat="44.31944" lon="4.49427">
        <ele>347.478</ele>
        <time>2015-07-29T00:49:46Z</time>
      </trkpt>
      <trkpt lat="44.3199" lon="4.49532">
        <ele>345.313</ele>
        <time>2015-07-29T00:50:06Z</time>
      </trkpt>
      <trkpt lat="44.31994" lon="4.49591">
        <ele>346.416</ele>
        <time>2015-07-29T00:50:26Z</time>
      </trkpt>
      <trkpt lat="44.31978" lon="4.49665">
        <ele>345.381</ele>
        <time>2015-07-29T00:50:46Z</time>
      </trkpt>
      <trkpt lat="44.31985" lon="4.49698">
        <ele>342.261</ele>
        <time>2015-07-29T00:51:06Z</time>
      </trkpt>
      <trkpt lat="44.31998" lon="4.49719">
        <ele>342.121</ele>
        <time>2015-07-29T00:51:26Z</time>
      </trkpt>
      <trkpt lat="44.32056" lon="4.49741">
        <ele>338.713</ele>
        <time>2015-07-29T00:51:46Z</time>
      </trkpt>
      <trkpt lat="44.32072" lon="4.49756">
        <ele>337.708</ele>
        <time>2015-07-29T00:52:06Z</time>
      </trkpt>
      <trkpt lat="44.321" lon="4.49814">
        <ele>333.592</ele>
        <time>2015-07-29T00:52:26Z</time>
      </trkpt>
      <trkpt lat="44.32122" lon="4.49841">
        <ele>334.576</ele>
        <time>2015-07-29T00:52:46Z</time>
      </trkpt>
      <trkpt lat="44.32099" lon="4.4989">
        <ele>333.853</ele>
        <time>2015-07-29T00:53:06Z</time>
      </trkpt>
      <trkpt lat="44.32049" lon="4.49922">
        <ele>332.631</ele>
        <time>2015-07-29T00:53:26Z</time>
      </trkpt>
      <trkpt lat="44.31997" lon="4.49926">
        <ele>328.863</ele>
        <time>2015-07-29T00:53:46Z</time>
      </trkpt>
      <trkpt lat="44.31903" lon="4.49956">
        <ele>325.578</ele>
        <time>2015-07-29T00:54:06Z</time>
      </trkpt>
      <trkpt lat="44.31863" lon="4.49945">
        <ele>321.291</ele>
        <time>2015-07-29T00:54:26Z</time>
      </trkpt>
      <trkpt lat="44.31785" lon="4.49944">
        <ele>319.266</ele>
        <time>2015-07-29T00:54:46Z</time>
      </trkpt>
      <trkpt lat="44.31719" lon="4.49976">
        <ele>319.134</ele>
        <time>2015-07-29T00:55:06Z</time>
      </trkpt>
      <trkpt lat="44.31697" lon="4.49999">
        <ele>318.355</ele>
        <time>2015-07-29T00:55:26Z</time>
      </trkpt>
      <trkpt lat="44.31694" lon="4.50082">
        <ele>322.81</ele>
        <time>2015-07-29T00:55:46Z</time>
      </trkpt>
      <trkpt lat="44.31684" lon="4.50079">
        <ele>321.808</ele>
        <time>2015-07-29T00:56:06Z</time>
      </trkpt>
      <trkpt lat="44.31645" lon="4.50045">
        <ele>314.859</ele>
        <time>2015-07-29T00:56:26Z</time>
      </trkpt>
      <trkpt lat="44.31616" lon="4.50044">
        <ele>313.233</ele>
        <time>2015-07-29T00:56:46Z</time>
      </trkpt>
      <trkpt lat="44.31583" lon="4.50068">
        <ele>313.69</ele>
        <time>2015-07-29T00:57:06Z</time>
      </trkpt>
      <trkpt lat="44.31531" lon="4.50088">
        <ele>314.898</ele>
        <time>2015-07-29T00:57:26Z</time>
      </trkpt>
      <trkpt lat="44.31469" lon="4.50087">
        <ele>311.41</ele>
        <time>2015-07-29T00:57:46Z</time>
      </trkpt>
      <trkpt lat="44.31428" lon="4.50119">
        <ele>315.275</ele>
        <time>2015-07-29T00:58:06Z</time>
      </trkpt>
      <trkpt lat="44.31411" lon="4.5017">
        <ele>316.788</ele>
        <time>2015-07-29T00:58:26Z</time>
      </trkpt>
      <trkpt lat="44.31376" lon="4.50224">
        <ele>315.053</ele>
        <time>2015-07-29T00:58:46Z</time>
      </trkpt>
      <trkpt lat="44.31383" lon="4.50348">
        <ele>312.878</ele>
        <time>2015-07-29T00:59:06Z</time>
      </trkpt>
      <trkpt lat="44.31349" lon="4.50392">
        <ele>310.533</ele>
        <time>2015-07-29T00:59:26Z</time>
      </trkpt>
      <trkpt lat="44.31336" lon="4.50438">
        <ele>312.326</ele>
        <time>2015-07-29T00:59:46Z</time>
      </trkpt>
      <trkpt lat="44.31347" lon="4.50513">
        <ele>315.508</ele>
        <time>2015-07-29T01:00:06Z</time>
      </trkpt>
      <trkpt lat="44.31313" lon="4.5055">
        <ele>313.963</ele>
        <time>2015-07-29T01:00:26Z</time>
      </trkpt>
      <trkpt lat="44.31286" lon="4.50671">
        <ele>313.427</ele>
        <time>2015-07-29T01:00:46Z</time>
      </trkpt>
      <trkpt lat="44.31289" lon="4.50837">
        <ele>309.494</ele>
        <time>2015-07-29T01:01:06Z</time>
      </trkpt>
      <trkpt lat="44.31225" lon="4.50986">
        <ele>303.642</ele>
        <time>2015-07-29T01:01:26Z</time>
      </trkpt>
      <trkpt lat="44.31212" lon="4.51045">
        <ele>302.494</ele>
        <time>2015-07-29T01:01:46Z</time>
      </trkpt>
      <trkpt lat="44.31164" lon="4.51069">
        <ele>299.959</ele>
        <time>2015-07-29T01:02:06Z</time>
      </trkpt>
      <trkpt lat="44.3113" lon="4.51113">
        <ele>299.452</ele>
        <time>2015-07-29T01:02:26Z</time>
      </trkpt>
      <trkpt lat="44.31101" lon="4.51137">
        <ele>297.687</ele>
        <time>2015-07-29T01:02:46Z</time>
      </trkpt>
      <trkpt lat="44.31087" lon="4.51175">
        <ele>296.931</ele>
        <time>2015-07-29T01:03:06Z</time>
      </trkpt>
      <trkpt lat="44.31061" lon="4.51209">
        <ele>294.561</ele>
        <time>2015-07-29T01:03:26Z</time>
      </trkpt>
      <trkpt lat="44.31041" lon="4.51271">
        <ele>294.007</ele>
        <time>2015-07-29T01:03:46Z</time>
      </trkpt>
      <trkpt lat="44.31051" lon="4.51316">
        <ele>293.008</ele>
        <time>2015-07-29T01:04:06Z</time>
      </trkpt>
      <trkpt lat="44.31098" lon="4.51356">
        <ele>291.039</ele>
        <time>2015-07-29T01:04:26Z</time>
      </trkpt>
      <trkpt lat="44.31096" lon="4.51437">
        <ele>290.263</ele>
        <time>2015-07-29T01:04:46Z</time>
      </trkpt>
      <trkpt lat="44.31111" lon="4.51512">
        <ele>292.47</ele>
        <time>2015-07-29T01:05:06Z</time>
      </trkpt>
      <trkpt lat="44.31244" lon="4.51665">
        <ele>295.918</ele>
        <time>2015-07-29T01:05:26Z</time>
      </trkpt>
      <trkpt lat="44.31242" lon="4.51858">
        <ele>297.72</ele>
        <time>2015-07-29T01:05:46Z</time>
      </trkpt>
      <trkpt lat="44.31249" lon="4.51926">
        <ele>295.085</ele>
        <time>2015-07-29T01:06:06Z</time>
      </trkpt>
      <trkpt lat="44.31278" lon="4.52006">
        <ele>294.678</ele>
        <time>2015-07-29T01:06:26Z</time>
      </trkpt>
      <trkpt lat="44.31319" lon="4.52066">
        <ele>291.513</ele>
        <time>2015-07-29T01:06:46Z</time>
      </trkpt>
      <trkpt lat="44.31389" lon="4.52144">
        <ele>290.084</ele>
        <time>2015-07-29T01:07:06Z</time>
      </trkpt>
      <trkpt lat="44.31398" lon="4.52179">
        <ele>289.907</ele>
        <time>2015-07-29T01:07:26Z</time>
      </trkpt>
      <trkpt lat="44.31372" lon="4.52286">
        <ele>289.717</ele>
        <time>2015-07-29T01:07:46Z</time>
      </trkpt>
      <trkpt lat="44.31412" lon="4.52373">
        <ele>286.408</ele>
        <time>2015-07-29T01:08:06Z</time>
      </trkpt>
      <trkpt lat="44.3143" lon="4.52438">
        <ele>286.564</ele>
        <time>2015-07-29T01:08:26Z</time>
      </trkpt>
      <trkpt lat="44.31506" lon="4.52645">
        <ele>283.228</ele>
        <time>2015-07-29T01:08:46Z</time>
      </trkpt>
      <trkpt lat="44.31515" lon="4.52762">
        <ele>281.165</ele>
        <time>2015-07-29T01:09:06Z</time>
      </trkpt>
      <trkpt lat="44.31532" lon="4.52882">
        <ele>274.453</ele>
        <time>2015-07-29T01:09:26Z</time>
      </trkpt>
      <trkpt lat="44.31522" lon="4.5294">
        <ele>273.665</ele>
        <time>2015-07-29T01:09:46Z</time>
      </trkpt>
      <trkpt lat="44.31478" lon="4.53061">
        <ele>269.76</ele>
        <time>2015-07-29T01:10:06Z</time>
      </trkpt>
      <trkpt lat="44.31491" lon="4.53061">
        <ele>270.363</ele>
        <time>2015-07-29T01:10:26Z</time>
      </trkpt>
      <trkpt lat="44.31478" lon="4.53095">
        <ele>266.298</ele>
        <time>2015-07-29T01:10:46Z</time>
      </trkpt>
      <trkpt lat="44.31458" lon="4.53127">
        <ele>262.989</ele>
        <time>2015-07-29T01:11:06Z</time>
      </trkpt>
      <trkpt lat="44.31441" lon="4.53174">
        <ele>261.606</ele>
        <time>2015-07-29T01:11:26Z</time>
      </trkpt>
      <trkpt lat="44.31432" lon="4.53219">
        <ele>259.226</ele>
        <time>2015-07-29T01:11:46Z</time>
      </trkpt>
      <trkpt lat="44.31393" lon="4.5333">
        <ele>257.108</ele>
        <time>2015-07-29T01:12:06Z</time>
      </trkpt>
      <trkpt lat="44.31384" lon="4.53464">
        <ele>255.394</ele>
        <time>2015-07-29T01:12:26Z</time>
      </trkpt>
      <trkpt lat="44.31365" lon="4.53502">
        <ele>250.488</ele>
        <time>2015-07-29T01:12:46Z</time>
      </trkpt>
      <trkpt lat="44.31352" lon="4.53521">
        <ele>248.155</ele>
        <time>2015-07-29T01:13:06Z</time>
      </trkpt>
      <trkpt lat="44.31352" lon="4.53564">
        <ele>246.863</ele>
        <time>2015-07-29T01:13:26Z</time>
      </trkpt>
      <trkpt lat="44.31342" lon="4.53624">
        <ele>242.415</ele>
        <time>2015-07-29T01:13:46Z</time>
      </trkpt>
      <trkpt lat="44.31348" lon="4.5368">
        <ele>239.85</ele>
        <time>2015-07-29T01:14:06Z</time>
      </trkpt>
      <trkpt lat="44.31392" lon="4.53782">
        <ele>241.273</ele>
        <time>2015-07-29T01:14:26Z</time>
      </trkpt>
      <trkpt lat="44.31447" lon="4.53844">
        <ele>242.498</ele>
        <time>2015-07-29T01:14:46Z</time>
      </trkpt>
      <trkpt lat="44.31484" lon="4.5387">
        <ele>244.176</ele>
        <time>2015-07-29T01:15:06Z</time>
      </trkpt>
      <trkpt lat="44.31513" lon="4.53929">
        <ele>248.29</ele>
        <time>2015-07-29T01:15:26Z</time>
      </trkpt>
      <trkpt lat="44.31519" lon="4.53955">
        <ele>248.619</ele>
        <time>2015-07-29T01:15:46Z</time>
      </trkpt>
      <trkpt lat="44.31491" lon="4.54129">
        <ele>254.708</ele>
        <time>2015-07-29T01:16:06Z</time>
      </trkpt>
      <trkpt lat="44.31493" lon="4.54215">
        <ele>253.813</ele>
        <time>2015-07-29T01:16:26Z</time>
      </trkpt>
      <trkpt lat="44.31433" lon="4.54245">
        <ele>244.117</ele>
        <time>2015-07-29T01:16:46Z</time>
      </trkpt>
      <trkpt lat="44.31377" lon="4.54317">
        <ele>241.374</ele>
        <time>2015-07-29T01:17:06Z</time>
      </trkpt>
      <trkpt lat="44.31342" lon="4.54361">
        <ele>245.322</ele>
        <time>2015-07-29T01:17:26Z</time>
      </trkpt>
      <trkpt lat="44.31293" lon="4.54387">
        <ele>246.484</ele>
        <time>2015-07-29T01:17:46Z</time>
      </trkpt>
      <trkpt lat="44.31243" lon="4.54472">
        <ele>240.559</ele>
        <time>2015-07-29T01:18:06Z</time>
      </trkpt>
      <trkpt lat="44.31196" lon="4.54521">
        <ele>236.522</ele>
        <time>2015-07-29T01:18:26Z</time>
      </trkpt>
      <trkpt lat="44.31147" lon="4.54595">
        <ele>223.837</ele>
        <time>2015-07-29T01:18:46Z</time>
      </trkpt>
      <trkpt lat="44.31068" lon="4.54661">
        <ele>209.841</ele>
        <time>2015-07-29T01:19:06Z</time>
      </trkpt>
      <trkpt lat="44.31048" lon="4.54702">
        <ele>202.081</ele>
        <time>2015-07-29T01:19:26Z</time>
      </trkpt>
      <trkpt lat="44.31041" lon="4.54729">
        <ele>199.109</ele>
        <time>2015-07-29T01:19:46Z</time>
      </trkpt>
      <trkpt lat="44.31024" lon="4.54758">
        <ele>197.508</ele>
        <time>2015-07-29T01:20:06Z</time>
      </trkpt>
      <trkpt lat="44.31001" lon="4.54849">
        <ele>187.66</ele>
        <time>2015-07-29T01:20:26Z</time>
      </trkpt>
      <trkpt lat="44.30985" lon="4.54884">
        <ele>184.314</ele>
        <time>2015-07-29T01:20:46Z</time>
      </trkpt>
      <trkpt lat="44.30946" lon="4.54939">
        <ele>177.071</ele>
        <time>2015-07-29T01:21:06Z</time>
      </trkpt>
      <trkpt lat="44.30907" lon="4.54972">
        <ele>171.729</ele>
        <time>2015-07-29T01:21:26Z</time>
      </trkpt>
      <trkpt lat="44.30872" lon="4.54991">
        <ele>166.541</ele>
        <time>2015-07-29T01:23:26Z</time>
      </trkpt>
      <trkpt lat="44.30849" lon="4.55016">
        <ele>162.566</ele>
        <time>2015-07-29T01:23:46Z</time>
      </trkpt>
      <trkpt lat="44.30852" lon="4.55083">
        <ele>160.099</ele>
        <time>2015-07-29T01:24:06Z</time>
      </trkpt>
      <trkpt lat="44.30836" lon="4.55086">
        <ele>159.954</ele>
        <time>2015-07-29T01:24:26Z</time>
      </trkpt>
      <trkpt lat="44.30842" lon="4.55125">
        <ele>157.761</ele>
        <time>2015-07-29T01:24:46Z</time>
      </trkpt>
      <trkpt lat="44.30834" lon="4.55175">
        <ele>151.121</ele>
        <time>2015-07-29T01:25:06Z</time>
      </trkpt>
      <trkpt lat="44.30763" lon="4.55257">
        <ele>140.813</ele>
        <time>2015-07-29T01:25:26Z</time>
      </trkpt>
      <trkpt lat="44.30735" lon="4.55267">
        <ele>142.608</ele>
        <time>2015-07-29T01:25:46Z</time>
      </trkpt>
      <trkpt lat="44.30723" lon="4.55285">
        <ele>139.232</ele>
        <time>2015-07-29T01:26:06Z</time>
      </trkpt>
      <trkpt lat="44.30693" lon="4.55318">
        <ele>133.076</ele>
        <time>2015-07-29T01:26:26Z</time>
      </trkpt>
      <trkpt lat="44.30687" lon="4.55331">
        <ele>129.963</ele>
        <time>2015-07-29T01:26:46Z</time>
      </trkpt>
      <trkpt lat="44.30679" lon="4.55331">
        <ele>131.371</ele>
        <time>2015-07-29T01:27:06Z</time>
      </trkpt>
      <trkpt lat="44.30649" lon="4.55358">
        <ele>124.023</ele>
        <time>2015-07-29T01:27:26Z</time>
      </trkpt>
      <trkpt lat="44.30637" lon="4.55391">
        <ele>114.468</ele>
        <time>2015-07-29T01:27:46Z</time>
      </trkpt>
      <trkpt lat="44.30621" lon="4.55391">
        <ele>116.571</ele>
        <time>2015-07-29T01:28:06Z</time>
      </trkpt>
      <trkpt lat="44.30613" lon="4.55421">
        <ele>110.796</ele>
        <time>2015-07-29T01:28:26Z</time>
      </trkpt>
      <trkpt lat="44.30595" lon="4.55416">
        <ele>113.753</ele>
        <time>2015-07-29T01:28:46Z</time>
      </trkpt>
      <trkpt lat="44.30575" lon="4.55422">
        <ele>111.104</ele>
        <time>2015-07-29T01:29:06Z</time>
      </trkpt>
      <trkpt lat="44.30561" lon="4.55449">
        <ele>104.414</ele>
        <time>2015-07-29T01:29:26Z</time>
      </trkpt>
      <trkpt lat="44.30525" lon="4.55466">
        <ele>98.608</ele>
        <time>2015-07-29T01:29:46Z</time>
      </trkpt>
      <trkpt lat="44.30518" lon="4.55482">
        <ele>95.341</ele>
        <time>2015-07-29T01:30:06Z</time>
      </trkpt>
      <trkpt lat="44.30473" lon="4.55511">
        <ele>93.215</ele>
        <time>2015-07-29T01:30:26Z</time>
      </trkpt>
      <trkpt lat="44.30462" lon="4.55535">
        <ele>92.092</ele>
        <time>2015-07-29T01:30:46Z</time>
      </trkpt>
      <trkpt lat="44.30428" lon="4.55524">
        <ele>95.16</ele>
        <time>2015-07-29T01:31:06Z</time>
      </trkpt>
      <trkpt lat="44.30415" lon="4.55573">
        <ele>92.932</ele>
        <time>2015-07-29T01:31:26Z</time>
      </trkpt>
      <trkpt lat="44.30392" lon="4.55573">
        <ele>94.267</ele>
        <time>2015-07-29T01:31:46Z</time>
      </trkpt>
      <trkpt lat="44.30402" lon="4.55615">
        <ele>87.69</ele>
        <time>2015-07-29T01:32:06Z</time>
      </trkpt>
      <trkpt lat="44.3035" lon="4.5566">
        <ele>90.165</ele>
        <time>2015-07-29T01:32:26Z</time>
      </trkpt>
      <trkpt lat="44.30303" lon="4.5568">
        <ele>90.295</ele>
        <time>2015-07-29T01:32:46Z</time>
      </trkpt>
      <trkpt lat="44.30295" lon="4.55656">
        <ele>93.649</ele>
        <time>2015-07-29T01:33:46Z</time>
      </trkpt>
      <trkpt lat="44.30276" lon="4.55678">
        <ele>91.323</ele>
        <time>2015-07-29T01:34:06Z</time>
      </trkpt>
      <trkpt lat="44.30269" lon="4.55669">
        <ele>92.408</ele>
        <time>2015-07-29T01:34:26Z</time>
      </trkpt>
      <trkpt lat="44.30258" lon="4.55676">
        <ele>91.475</ele>
        <time>2015-07-29T01:34:46Z</time>
      </trkpt>
      <trkpt lat="44.30228" lon="4.55719">
        <ele>86.289</ele>
        <time>2015-07-29T01:35:06Z</time>
      </trkpt>
      <trkpt lat="44.30225" lon="4.55748">
        <ele>82.316</ele>
        <time>2015-07-29T01:35:26Z</time>
      </trkpt>
      <trkpt lat="44.30203" lon="4.55788">
        <ele>83.634</ele>
        <time>2015-07-29T01:35:46Z</time>
      </trkpt>
      <trkpt lat="44.30191" lon="4.55796">
        <ele>87.086</ele>
        <time>2015-07-29T01:36:06Z</time>
      </trkpt>
      <trkpt lat="44.30141" lon="4.55881">
        <ele>95.731</ele>
        <time>2015-07-29T01:36:26Z</time>
      </trkpt>
      <trkpt lat="44.30037" lon="4.56155">
        <ele>81.614</ele>
        <time>2015-07-29T01:36:46Z</time>
      </trkpt>
      <trkpt lat="44.30019" lon="4.56316">
        <ele>74.539</ele>
        <time>2015-07-29T01:37:06Z</time>
      </trkpt>
      <trkpt lat="44.29951" lon="4.56572">
        <ele>58.453</ele>
        <time>2015-07-29T01:37:26Z</time>
      </trkpt>
      <trkpt lat="44.29931" lon="4.56625">
        <ele>59.504</ele>
        <time>2015-07-29T01:37:46Z</time>
      </trkpt>
      <trkpt lat="44.29911" lon="4.56648">
        <ele>57.614</ele>
        <time>2015-07-29T01:38:06Z</time>
      </trkpt>
      <trkpt lat="44.30036" lon="4.5671">
        <ele>50.2</ele>
      </trkpt>
      <trkpt lat="44.30038" lon="4.56712">
        <ele>51.008</ele>
        <time>2021-01-12T04:13:38Z</time>
      </trkpt>
      <trkpt lat="44.30069" lon="4.56716">
        <ele>53.12</ele>
        <time>2021-01-12T04:13:18Z</time>
      </trkpt>
      <trkpt lat="44.30102" lon="4.56734">
        <ele>55.1</ele>
        <time>2021-01-12T04:12:58Z</time>
      </trkpt>
      <trkpt lat="44.30114" lon="4.56709">
        <ele>54.729</ele>
        <time>2021-01-12T04:12:38Z</time>
      </trkpt>
      <trkpt lat="44.30138" lon="4.56643">
        <ele>54.154</ele>
        <time>2021-01-12T04:12:18Z</time>
      </trkpt>
      <trkpt lat="44.30148" lon="4.56625">
        <ele>53.798</ele>
        <time>2021-01-12T04:11:58Z</time>
      </trkpt>
      <trkpt lat="44.30157" lon="4.56617">
        <ele>53.711</ele>
        <time>2021-01-12T04:11:38Z</time>
      </trkpt>
      <trkpt lat="44.30176" lon="4.56618">
        <ele>54.681</ele>
        <time>2021-01-12T04:11:18Z</time>
      </trkpt>
      <trkpt lat="44.30205" lon="4.56629">
        <ele>56.024</ele>
        <time>2021-01-12T04:10:58Z</time>
      </trkpt>
      <trkpt lat="44.30223" lon="4.56655">
        <ele>57.056</ele>
        <time>2021-01-12T04:10:38Z</time>
      </trkpt>
      <trkpt lat="44.30226" lon="4.56675">
        <ele>57.572</ele>
        <time>2021-01-12T04:10:18Z</time>
      </trkpt>
      <trkpt lat="44.3023" lon="4.56689">
        <ele>58.145</ele>
        <time>2021-01-12T04:09:58Z</time>
      </trkpt>
      <trkpt lat="44.30263" lon="4.56715">
        <ele>58.908</ele>
        <time>2021-01-12T04:09:38Z</time>
      </trkpt>
      <trkpt lat="44.30284" lon="4.56749">
        <ele>59.92</ele>
        <time>2021-01-12T04:09:18Z</time>
      </trkpt>
      <trkpt lat="44.30299" lon="4.56751">
        <ele>60.073</ele>
        <time>2021-01-12T04:08:58Z</time>
      </trkpt>
      <trkpt lat="44.30323" lon="4.56744">
        <ele>60.692</ele>
        <time>2021-01-12T04:08:38Z</time>
      </trkpt>
      <trkpt lat="44.30341" lon="4.56736">
        <ele>61.569</ele>
        <time>2021-01-12T04:08:18Z</time>
      </trkpt>
      <trkpt lat="44.30357" lon="4.56725">
        <ele>63.413</ele>
        <time>2021-01-12T04:07:58Z</time>
      </trkpt>
      <trkpt lat="44.30371" lon="4.5671">
        <ele>64.196</ele>
        <time>2021-01-12T04:07:38Z</time>
      </trkpt>
      <trkpt lat="44.30381" lon="4.56692">
        <ele>64.316</ele>
        <time>2021-01-12T04:07:18Z</time>
      </trkpt>
      <trkpt lat="44.30402" lon="4.56702">
        <ele>65.669</ele>
        <time>2021-01-12T04:06:58Z</time>
      </trkpt>
      <trkpt lat="44.30426" lon="4.56711">
        <ele>67.481</ele>
        <time>2021-01-12T04:06:38Z</time>
      </trkpt>
      <trkpt lat="44.30459" lon="4.56709">
        <ele>69.327</ele>
        <time>2021-01-12T04:06:18Z</time>
      </trkpt>
      <trkpt lat="44.30487" lon="4.56711">
        <ele>70.84</ele>
        <time>2021-01-12T04:05:58Z</time>
      </trkpt>
      <trkpt lat="44.30537" lon="4.56719">
        <ele>77.008</ele>
        <time>2021-01-12T04:05:38Z</time>
      </trkpt>
      <trkpt lat="44.30589" lon="4.56734">
        <ele>83.817</ele>
        <time>2021-01-12T04:05:18Z</time>
      </trkpt>
      <trkpt lat="44.30588" lon="4.56744">
        <ele>83.661</ele>
        <time>2021-01-12T04:04:58Z</time>
      </trkpt>
      <trkpt lat="44.30595" lon="4.5676">
        <ele>83.448</ele>
        <time>2021-01-12T04:04:38Z</time>
      </trkpt>
      <trkpt lat="44.30606" lon="4.56772">
        <ele>83.239</ele>
        <time>2021-01-12T04:04:18Z</time>
      </trkpt>
      <trkpt lat="44.30618" lon="4.56773">
        <ele>84.743</ele>
        <time>2021-01-12T04:03:58Z</time>
      </trkpt>
      <trkpt lat="44.30636" lon="4.5678">
        <ele>87.336</ele>
        <time>2021-01-12T04:03:38Z</time>
      </trkpt>
      <trkpt lat="44.30641" lon="4.56796">
        <ele>87.786</ele>
        <time>2021-01-12T04:03:18Z</time>
      </trkpt>
      <trkpt lat="44.30656" lon="4.56809">
        <ele>88.949</ele>
        <time>2021-01-12T04:02:58Z</time>
      </trkpt>
      <trkpt lat="44.3067" lon="4.5683">
        <ele>91.131</ele>
        <time>2021-01-12T04:02:38Z</time>
      </trkpt>
      <trkpt lat="44.30669" lon="4.56841">
        <ele>92.057</ele>
        <time>2021-01-12T04:02:18Z</time>
      </trkpt>
      <trkpt lat="44.3065" lon="4.56861">
        <ele>91.71</ele>
        <time>2021-01-12T04:01:58Z</time>
      </trkpt>
      <trkpt lat="44.30623" lon="4.56886">
        <ele>96.208</ele>
        <time>2021-01-12T04:01:38Z</time>
      </trkpt>
      <trkpt lat="44.30613" lon="4.569">
        <ele>100.514</ele>
        <time>2021-01-12T04:01:18Z</time>
      </trkpt>
      <trkpt lat="44.30601" lon="4.56944">
        <ele>110.122</ele>
        <time>2021-01-12T04:00:58Z</time>
      </trkpt>
      <trkpt lat="44.30594" lon="4.57019">
        <ele>112.742</ele>
        <time>2021-01-12T04:00:38Z</time>
      </trkpt>
      <trkpt lat="44.30597" lon="4.5705">
        <ele>112.642</ele>
        <time>2021-01-12T04:00:18Z</time>
      </trkpt>
      <trkpt lat="44.306" lon="4.57099">
        <ele>112.536</ele>
        <time>2021-01-12T03:59:58Z</time>
      </trkpt>
      <trkpt lat="44.30583" lon="4.57097">
        <ele>110.329</ele>
        <time>2021-01-12T03:59:38Z</time>
      </trkpt>
      <trkpt lat="44.30588" lon="4.5712">
        <ele>110.489</ele>
        <time>2021-01-12T03:59:18Z</time>
      </trkpt>
      <trkpt lat="44.30601" lon="4.57169">
        <ele>111.572</ele>
        <time>2021-01-12T03:58:58Z</time>
      </trkpt>
      <trkpt lat="44.30602" lon="4.57194">
        <ele>111.714</ele>
        <time>2021-01-12T03:58:38Z</time>
      </trkpt>
      <trkpt lat="44.30606" lon="4.57254">
        <ele>112.45</ele>
        <time>2021-01-12T03:58:18Z</time>
      </trkpt>
    </trkseg>
  </trk>
  <trk>
    <name><![CDATA[STJust d'ardèche]]></name>
    <trkseg>
      <trkpt lat="44.30595" lon="4.5726">
        <ele>109.8</ele>
      </trkpt>
      <trkpt lat="44.30465" lon="4.57096">
        <ele>94.6</ele>
      </trkpt>
      <trkpt lat="44.3025" lon="4.57127">
        <ele>75.1</ele>
      </trkpt>
      <trkpt lat="44.302" lon="4.57108">
        <ele>67.8</ele>
      </trkpt>
      <trkpt lat="44.30145" lon="4.57184">
        <ele>65.2</ele>
      </trkpt>
      <trkpt lat="44.30139" lon="4.57251">
        <ele>64.3</ele>
      </trkpt>
      <trkpt lat="44.30113" lon="4.57278">
        <ele>59.2</ele>
      </trkpt>
      <trkpt lat="44.30215" lon="4.576">
        <ele>58.3</ele>
      </trkpt>
      <trkpt lat="44.30167" lon="4.57767">
        <ele>57.7</ele>
      </trkpt>
      <trkpt lat="44.30228" lon="4.58183">
        <ele>62.1</ele>
      </trkpt>
      <trkpt lat="44.30245" lon="4.58542">
        <ele>56.9</ele>
      </trkpt>
      <trkpt lat="44.30171" lon="4.59149">
        <ele>53.1</ele>
      </trkpt>
      <trkpt lat="44.30169" lon="4.59813">
        <ele>55.4</ele>
      </trkpt>
      <trkpt lat="44.30132" lon="4.60068">
        <ele>58.6</ele>
      </trkpt>
      <trkpt lat="44.30143" lon="4.60439">
        <ele>57.6</ele>
      </trkpt>
      <trkpt lat="44.30117" lon="4.60842">
        <ele>59.7</ele>
      </trkpt>
      <trkpt lat="44.30134" lon="4.61316">
        <ele>68.3</ele>
      </trkpt>
      <trkpt lat="44.30287" lon="4.61343">
        <ele>78.4</ele>
      </trkpt>
    </trkseg>
  </trk>
</gpx>